<?xml version="1.0" encoding="UTF-8" standalone="no" ?>
<gpx xmlns="http://www.topografix.com/GPX/1/1" xmlns:xsi="http://www.w3.org/2001/XMLSchema-instance" xsi:schemaLocation="http://www.topografix.com/GPX/1/1 http://www.topografix.com/GPX/1/1/gpx.xsd" version="1.1" creator="VisuGPX - https://www.visugpx.com">
  <metadata>
    <name>2022-08-17 08:25:37 Jour</name>
  </metadata>
  <trk>
    <name><![CDATA[2022-08-17 08:25:37 Jour]]></name>
    <trkseg>
      <trkpt lat="45.54304" lon="2.54107">
        <ele>604.93</ele>
        <time>2022-08-17T06:25:37Z</time>
      </trkpt>
      <trkpt lat="45.54313" lon="2.54123">
        <ele>604.93</ele>
        <time>2022-08-17T06:25:39Z</time>
      </trkpt>
      <trkpt lat="45.54312" lon="2.54134">
        <ele>604.64</ele>
        <time>2022-08-17T06:26:24Z</time>
      </trkpt>
      <trkpt lat="45.54308" lon="2.54132">
        <ele>603.68</ele>
        <time>2022-08-17T06:27:20Z</time>
      </trkpt>
      <trkpt lat="45.54309" lon="2.54124">
        <ele>602.47</ele>
        <time>2022-08-17T06:28:14Z</time>
      </trkpt>
      <trkpt lat="45.54311" lon="2.54124">
        <ele>600.97</ele>
        <time>2022-08-17T06:29:11Z</time>
      </trkpt>
      <trkpt lat="45.54312" lon="2.54114">
        <ele>599.35</ele>
        <time>2022-08-17T06:30:21Z</time>
      </trkpt>
      <trkpt lat="45.54312" lon="2.54114">
        <ele>597.26</ele>
        <time>2022-08-17T06:31:51Z</time>
      </trkpt>
      <trkpt lat="45.54311" lon="2.54113">
        <ele>595.51</ele>
        <time>2022-08-17T06:33:06Z</time>
      </trkpt>
      <trkpt lat="45.54307" lon="2.54122">
        <ele>601.33</ele>
        <time>2022-08-17T07:56:56Z</time>
      </trkpt>
      <trkpt lat="45.54314" lon="2.5412">
        <ele>596.55</ele>
        <time>2022-08-17T07:57:10Z</time>
      </trkpt>
      <trkpt lat="45.54316" lon="2.5412">
        <ele>596.55</ele>
        <time>2022-08-17T07:57:11Z</time>
      </trkpt>
      <trkpt lat="45.54306" lon="2.54115">
        <ele>593.24</ele>
        <time>2022-08-17T07:57:17Z</time>
      </trkpt>
      <trkpt lat="45.54293" lon="2.54119">
        <ele>589.55</ele>
        <time>2022-08-17T07:57:20Z</time>
      </trkpt>
      <trkpt lat="45.54292" lon="2.54124">
        <ele>588.57</ele>
        <time>2022-08-17T07:57:21Z</time>
      </trkpt>
      <trkpt lat="45.54291" lon="2.54128">
        <ele>587.59</ele>
        <time>2022-08-17T07:57:22Z</time>
      </trkpt>
      <trkpt lat="45.5429" lon="2.54131">
        <ele>585.72</ele>
        <time>2022-08-17T07:57:23Z</time>
      </trkpt>
      <trkpt lat="45.5429" lon="2.54134">
        <ele>585.72</ele>
        <time>2022-08-17T07:57:24Z</time>
      </trkpt>
      <trkpt lat="45.54289" lon="2.54138">
        <ele>584.8</ele>
        <time>2022-08-17T07:57:25Z</time>
      </trkpt>
      <trkpt lat="45.54286" lon="2.54152">
        <ele>581.3</ele>
        <time>2022-08-17T07:57:29Z</time>
      </trkpt>
      <trkpt lat="45.54284" lon="2.54165">
        <ele>578.1</ele>
        <time>2022-08-17T07:57:33Z</time>
      </trkpt>
      <trkpt lat="45.54282" lon="2.54182">
        <ele>574.42</ele>
        <time>2022-08-17T07:57:38Z</time>
      </trkpt>
      <trkpt lat="45.54276" lon="2.54202">
        <ele>570.86</ele>
        <time>2022-08-17T07:57:43Z</time>
      </trkpt>
      <trkpt lat="45.54274" lon="2.54211">
        <ele>569.49</ele>
        <time>2022-08-17T07:57:45Z</time>
      </trkpt>
      <trkpt lat="45.54274" lon="2.54214">
        <ele>568.83</ele>
        <time>2022-08-17T07:57:46Z</time>
      </trkpt>
      <trkpt lat="45.54276" lon="2.54218">
        <ele>568.14</ele>
        <time>2022-08-17T07:57:47Z</time>
      </trkpt>
      <trkpt lat="45.54289" lon="2.54227">
        <ele>563.54</ele>
        <time>2022-08-17T07:57:53Z</time>
      </trkpt>
      <trkpt lat="45.54291" lon="2.54228">
        <ele>567.25</ele>
        <time>2022-08-17T07:57:54Z</time>
      </trkpt>
      <trkpt lat="45.543" lon="2.54236">
        <ele>564.03</ele>
        <time>2022-08-17T07:57:58Z</time>
      </trkpt>
      <trkpt lat="45.54303" lon="2.54243">
        <ele>562.41</ele>
        <time>2022-08-17T07:58:00Z</time>
      </trkpt>
      <trkpt lat="45.54303" lon="2.54246">
        <ele>561.68</ele>
        <time>2022-08-17T07:58:01Z</time>
      </trkpt>
      <trkpt lat="45.54302" lon="2.5425">
        <ele>560.94</ele>
        <time>2022-08-17T07:58:02Z</time>
      </trkpt>
      <trkpt lat="45.54303" lon="2.54255">
        <ele>560.24</ele>
        <time>2022-08-17T07:58:03Z</time>
      </trkpt>
      <trkpt lat="45.54304" lon="2.54259">
        <ele>559.54</ele>
        <time>2022-08-17T07:58:04Z</time>
      </trkpt>
      <trkpt lat="45.54305" lon="2.54262">
        <ele>558.88</ele>
        <time>2022-08-17T07:58:05Z</time>
      </trkpt>
      <trkpt lat="45.54307" lon="2.54266">
        <ele>558.2</ele>
        <time>2022-08-17T07:58:06Z</time>
      </trkpt>
      <trkpt lat="45.54311" lon="2.54279">
        <ele>556.46</ele>
        <time>2022-08-17T07:58:09Z</time>
      </trkpt>
      <trkpt lat="45.54311" lon="2.54282">
        <ele>555.92</ele>
        <time>2022-08-17T07:58:10Z</time>
      </trkpt>
      <trkpt lat="45.54309" lon="2.54283">
        <ele>555.45</ele>
        <time>2022-08-17T07:58:11Z</time>
      </trkpt>
      <trkpt lat="45.54305" lon="2.54283">
        <ele>555.09</ele>
        <time>2022-08-17T07:58:12Z</time>
      </trkpt>
      <trkpt lat="45.543" lon="2.54283">
        <ele>554.76</ele>
        <time>2022-08-17T07:58:13Z</time>
      </trkpt>
      <trkpt lat="45.54283" lon="2.54281">
        <ele>554.72</ele>
        <time>2022-08-17T07:58:16Z</time>
      </trkpt>
      <trkpt lat="45.54263" lon="2.54281">
        <ele>554.25</ele>
        <time>2022-08-17T07:58:19Z</time>
      </trkpt>
      <trkpt lat="45.54256" lon="2.54283">
        <ele>554.99</ele>
        <time>2022-08-17T07:58:20Z</time>
      </trkpt>
      <trkpt lat="45.54248" lon="2.54281">
        <ele>554.78</ele>
        <time>2022-08-17T07:58:21Z</time>
      </trkpt>
      <trkpt lat="45.5424" lon="2.54276">
        <ele>554.56</ele>
        <time>2022-08-17T07:58:22Z</time>
      </trkpt>
      <trkpt lat="45.54233" lon="2.5427">
        <ele>554.34</ele>
        <time>2022-08-17T07:58:23Z</time>
      </trkpt>
      <trkpt lat="45.54225" lon="2.54263">
        <ele>554.14</ele>
        <time>2022-08-17T07:58:24Z</time>
      </trkpt>
      <trkpt lat="45.54217" lon="2.54253">
        <ele>553.92</ele>
        <time>2022-08-17T07:58:25Z</time>
      </trkpt>
      <trkpt lat="45.54211" lon="2.54243">
        <ele>553.72</ele>
        <time>2022-08-17T07:58:26Z</time>
      </trkpt>
      <trkpt lat="45.54193" lon="2.54212">
        <ele>553.86</ele>
        <time>2022-08-17T07:58:29Z</time>
      </trkpt>
      <trkpt lat="45.54188" lon="2.542">
        <ele>554.74</ele>
        <time>2022-08-17T07:58:30Z</time>
      </trkpt>
      <trkpt lat="45.54185" lon="2.54188">
        <ele>554.41</ele>
        <time>2022-08-17T07:58:31Z</time>
      </trkpt>
      <trkpt lat="45.54182" lon="2.54176">
        <ele>555.47</ele>
        <time>2022-08-17T07:58:32Z</time>
      </trkpt>
      <trkpt lat="45.54179" lon="2.54164">
        <ele>555.07</ele>
        <time>2022-08-17T07:58:33Z</time>
      </trkpt>
      <trkpt lat="45.54172" lon="2.5414">
        <ele>555.68</ele>
        <time>2022-08-17T07:58:35Z</time>
      </trkpt>
      <trkpt lat="45.54167" lon="2.54128">
        <ele>556.09</ele>
        <time>2022-08-17T07:58:36Z</time>
      </trkpt>
      <trkpt lat="45.5416" lon="2.54118">
        <ele>556.6</ele>
        <time>2022-08-17T07:58:37Z</time>
      </trkpt>
      <trkpt lat="45.54153" lon="2.54108">
        <ele>556.21</ele>
        <time>2022-08-17T07:58:38Z</time>
      </trkpt>
      <trkpt lat="45.54146" lon="2.54099">
        <ele>555.73</ele>
        <time>2022-08-17T07:58:39Z</time>
      </trkpt>
      <trkpt lat="45.54137" lon="2.54091">
        <ele>555.37</ele>
        <time>2022-08-17T07:58:40Z</time>
      </trkpt>
      <trkpt lat="45.54128" lon="2.54085">
        <ele>556.02</ele>
        <time>2022-08-17T07:58:41Z</time>
      </trkpt>
      <trkpt lat="45.54119" lon="2.5408">
        <ele>555.63</ele>
        <time>2022-08-17T07:58:42Z</time>
      </trkpt>
      <trkpt lat="45.541" lon="2.54073">
        <ele>554.86</ele>
        <time>2022-08-17T07:58:44Z</time>
      </trkpt>
      <trkpt lat="45.54062" lon="2.54065">
        <ele>556.4</ele>
        <time>2022-08-17T07:58:48Z</time>
      </trkpt>
      <trkpt lat="45.54053" lon="2.54066">
        <ele>557.14</ele>
        <time>2022-08-17T07:58:49Z</time>
      </trkpt>
      <trkpt lat="45.54044" lon="2.5407">
        <ele>557</ele>
        <time>2022-08-17T07:58:50Z</time>
      </trkpt>
      <trkpt lat="45.54035" lon="2.54074">
        <ele>557.76</ele>
        <time>2022-08-17T07:58:51Z</time>
      </trkpt>
      <trkpt lat="45.54026" lon="2.54079">
        <ele>557.64</ele>
        <time>2022-08-17T07:58:52Z</time>
      </trkpt>
      <trkpt lat="45.54009" lon="2.54087">
        <ele>558.72</ele>
        <time>2022-08-17T07:58:54Z</time>
      </trkpt>
      <trkpt lat="45.54" lon="2.54089">
        <ele>559.45</ele>
        <time>2022-08-17T07:58:55Z</time>
      </trkpt>
      <trkpt lat="45.53947" lon="2.54091">
        <ele>563.17</ele>
        <time>2022-08-17T07:59:01Z</time>
      </trkpt>
      <trkpt lat="45.5391" lon="2.54092">
        <ele>566.58</ele>
        <time>2022-08-17T07:59:05Z</time>
      </trkpt>
      <trkpt lat="45.539" lon="2.54092">
        <ele>566.6</ele>
        <time>2022-08-17T07:59:06Z</time>
      </trkpt>
      <trkpt lat="45.53881" lon="2.54088">
        <ele>568.42</ele>
        <time>2022-08-17T07:59:08Z</time>
      </trkpt>
      <trkpt lat="45.53862" lon="2.54079">
        <ele>570.8</ele>
        <time>2022-08-17T07:59:10Z</time>
      </trkpt>
      <trkpt lat="45.53853" lon="2.54073">
        <ele>570.8</ele>
        <time>2022-08-17T07:59:11Z</time>
      </trkpt>
      <trkpt lat="45.53845" lon="2.54065">
        <ele>572.27</ele>
        <time>2022-08-17T07:59:12Z</time>
      </trkpt>
      <trkpt lat="45.53838" lon="2.54056">
        <ele>573.2</ele>
        <time>2022-08-17T07:59:13Z</time>
      </trkpt>
      <trkpt lat="45.53831" lon="2.54047">
        <ele>573.28</ele>
        <time>2022-08-17T07:59:14Z</time>
      </trkpt>
      <trkpt lat="45.53824" lon="2.5404">
        <ele>574.84</ele>
        <time>2022-08-17T07:59:15Z</time>
      </trkpt>
      <trkpt lat="45.53815" lon="2.54036">
        <ele>575.7</ele>
        <time>2022-08-17T07:59:16Z</time>
      </trkpt>
      <trkpt lat="45.53806" lon="2.54034">
        <ele>576.6</ele>
        <time>2022-08-17T07:59:17Z</time>
      </trkpt>
      <trkpt lat="45.53796" lon="2.54033">
        <ele>576.59</ele>
        <time>2022-08-17T07:59:18Z</time>
      </trkpt>
      <trkpt lat="45.53787" lon="2.54033">
        <ele>578</ele>
        <time>2022-08-17T07:59:19Z</time>
      </trkpt>
      <trkpt lat="45.53777" lon="2.54034">
        <ele>578</ele>
        <time>2022-08-17T07:59:20Z</time>
      </trkpt>
      <trkpt lat="45.53747" lon="2.54034">
        <ele>581.31</ele>
        <time>2022-08-17T07:59:23Z</time>
      </trkpt>
      <trkpt lat="45.53737" lon="2.54035">
        <ele>581.39</ele>
        <time>2022-08-17T07:59:24Z</time>
      </trkpt>
      <trkpt lat="45.53707" lon="2.54039">
        <ele>584.44</ele>
        <time>2022-08-17T07:59:27Z</time>
      </trkpt>
      <trkpt lat="45.53698" lon="2.54043">
        <ele>584.41</ele>
        <time>2022-08-17T07:59:28Z</time>
      </trkpt>
      <trkpt lat="45.53689" lon="2.54048">
        <ele>586.34</ele>
        <time>2022-08-17T07:59:29Z</time>
      </trkpt>
      <trkpt lat="45.53663" lon="2.54062">
        <ele>588.35</ele>
        <time>2022-08-17T07:59:32Z</time>
      </trkpt>
      <trkpt lat="45.53654" lon="2.54064">
        <ele>588.85</ele>
        <time>2022-08-17T07:59:33Z</time>
      </trkpt>
      <trkpt lat="45.53647" lon="2.54063">
        <ele>588.85</ele>
        <time>2022-08-17T07:59:34Z</time>
      </trkpt>
      <trkpt lat="45.53639" lon="2.5406">
        <ele>590.93</ele>
        <time>2022-08-17T07:59:35Z</time>
      </trkpt>
      <trkpt lat="45.53631" lon="2.54056">
        <ele>591.83</ele>
        <time>2022-08-17T07:59:36Z</time>
      </trkpt>
      <trkpt lat="45.53613" lon="2.54049">
        <ele>593.37</ele>
        <time>2022-08-17T07:59:38Z</time>
      </trkpt>
      <trkpt lat="45.53604" lon="2.54046">
        <ele>594.36</ele>
        <time>2022-08-17T07:59:39Z</time>
      </trkpt>
      <trkpt lat="45.53583" lon="2.54042">
        <ele>595.55</ele>
        <time>2022-08-17T07:59:41Z</time>
      </trkpt>
      <trkpt lat="45.53572" lon="2.54042">
        <ele>597.26</ele>
        <time>2022-08-17T07:59:42Z</time>
      </trkpt>
      <trkpt lat="45.53561" lon="2.54041">
        <ele>598.12</ele>
        <time>2022-08-17T07:59:43Z</time>
      </trkpt>
      <trkpt lat="45.53527" lon="2.54039">
        <ele>599.93</ele>
        <time>2022-08-17T07:59:46Z</time>
      </trkpt>
      <trkpt lat="45.53506" lon="2.54043">
        <ele>602.14</ele>
        <time>2022-08-17T07:59:48Z</time>
      </trkpt>
      <trkpt lat="45.53485" lon="2.5405">
        <ele>603.79</ele>
        <time>2022-08-17T07:59:50Z</time>
      </trkpt>
      <trkpt lat="45.53465" lon="2.54052">
        <ele>604.96</ele>
        <time>2022-08-17T07:59:52Z</time>
      </trkpt>
      <trkpt lat="45.53455" lon="2.54049">
        <ele>606.4</ele>
        <time>2022-08-17T07:59:53Z</time>
      </trkpt>
      <trkpt lat="45.53447" lon="2.54043">
        <ele>607.26</ele>
        <time>2022-08-17T07:59:54Z</time>
      </trkpt>
      <trkpt lat="45.53438" lon="2.54037">
        <ele>607.22</ele>
        <time>2022-08-17T07:59:55Z</time>
      </trkpt>
      <trkpt lat="45.5343" lon="2.54033">
        <ele>608.98</ele>
        <time>2022-08-17T07:59:56Z</time>
      </trkpt>
      <trkpt lat="45.53421" lon="2.54033">
        <ele>609.79</ele>
        <time>2022-08-17T07:59:57Z</time>
      </trkpt>
      <trkpt lat="45.53412" lon="2.54035">
        <ele>610.87</ele>
        <time>2022-08-17T07:59:58Z</time>
      </trkpt>
      <trkpt lat="45.53394" lon="2.54044">
        <ele>612.13</ele>
        <time>2022-08-17T08:00:00Z</time>
      </trkpt>
      <trkpt lat="45.53385" lon="2.54048">
        <ele>613.57</ele>
        <time>2022-08-17T08:00:01Z</time>
      </trkpt>
      <trkpt lat="45.53368" lon="2.54053">
        <ele>614.61</ele>
        <time>2022-08-17T08:00:03Z</time>
      </trkpt>
      <trkpt lat="45.5336" lon="2.54053">
        <ele>615.81</ele>
        <time>2022-08-17T08:00:04Z</time>
      </trkpt>
      <trkpt lat="45.53353" lon="2.54048">
        <ele>616.79</ele>
        <time>2022-08-17T08:00:05Z</time>
      </trkpt>
      <trkpt lat="45.53344" lon="2.54038">
        <ele>618.14</ele>
        <time>2022-08-17T08:00:06Z</time>
      </trkpt>
      <trkpt lat="45.53336" lon="2.54028">
        <ele>618.13</ele>
        <time>2022-08-17T08:00:07Z</time>
      </trkpt>
      <trkpt lat="45.53329" lon="2.54018">
        <ele>619.71</ele>
        <time>2022-08-17T08:00:08Z</time>
      </trkpt>
      <trkpt lat="45.53305" lon="2.53989">
        <ele>622.89</ele>
        <time>2022-08-17T08:00:11Z</time>
      </trkpt>
      <trkpt lat="45.53301" lon="2.53982">
        <ele>623.89</ele>
        <time>2022-08-17T08:00:12Z</time>
      </trkpt>
      <trkpt lat="45.53296" lon="2.53974">
        <ele>623.98</ele>
        <time>2022-08-17T08:00:13Z</time>
      </trkpt>
      <trkpt lat="45.53292" lon="2.53966">
        <ele>625.45</ele>
        <time>2022-08-17T08:00:14Z</time>
      </trkpt>
      <trkpt lat="45.5329" lon="2.53958">
        <ele>625.55</ele>
        <time>2022-08-17T08:00:15Z</time>
      </trkpt>
      <trkpt lat="45.53293" lon="2.53949">
        <ele>626.79</ele>
        <time>2022-08-17T08:00:16Z</time>
      </trkpt>
      <trkpt lat="45.53296" lon="2.53943">
        <ele>626.8</ele>
        <time>2022-08-17T08:00:17Z</time>
      </trkpt>
      <trkpt lat="45.53301" lon="2.53937">
        <ele>627.8</ele>
        <time>2022-08-17T08:00:18Z</time>
      </trkpt>
      <trkpt lat="45.53307" lon="2.53929">
        <ele>629.09</ele>
        <time>2022-08-17T08:00:19Z</time>
      </trkpt>
      <trkpt lat="45.53312" lon="2.53915">
        <ele>629.02</ele>
        <time>2022-08-17T08:00:20Z</time>
      </trkpt>
      <trkpt lat="45.53314" lon="2.53901">
        <ele>629.95</ele>
        <time>2022-08-17T08:00:21Z</time>
      </trkpt>
      <trkpt lat="45.53312" lon="2.53888">
        <ele>630.06</ele>
        <time>2022-08-17T08:00:22Z</time>
      </trkpt>
      <trkpt lat="45.53309" lon="2.53877">
        <ele>630.05</ele>
        <time>2022-08-17T08:00:23Z</time>
      </trkpt>
      <trkpt lat="45.53303" lon="2.53866">
        <ele>631.24</ele>
        <time>2022-08-17T08:00:24Z</time>
      </trkpt>
      <trkpt lat="45.53297" lon="2.5386">
        <ele>632.26</ele>
        <time>2022-08-17T08:00:25Z</time>
      </trkpt>
      <trkpt lat="45.5329" lon="2.53855">
        <ele>633.62</ele>
        <time>2022-08-17T08:00:26Z</time>
      </trkpt>
      <trkpt lat="45.53281" lon="2.53849">
        <ele>633.68</ele>
        <time>2022-08-17T08:00:27Z</time>
      </trkpt>
      <trkpt lat="45.53264" lon="2.53838">
        <ele>635.79</ele>
        <time>2022-08-17T08:00:29Z</time>
      </trkpt>
      <trkpt lat="45.53255" lon="2.53835">
        <ele>635.84</ele>
        <time>2022-08-17T08:00:30Z</time>
      </trkpt>
      <trkpt lat="45.53246" lon="2.53831">
        <ele>636.99</ele>
        <time>2022-08-17T08:00:31Z</time>
      </trkpt>
      <trkpt lat="45.53235" lon="2.53819">
        <ele>638.01</ele>
        <time>2022-08-17T08:00:33Z</time>
      </trkpt>
      <trkpt lat="45.53233" lon="2.53807">
        <ele>638.01</ele>
        <time>2022-08-17T08:00:34Z</time>
      </trkpt>
      <trkpt lat="45.53232" lon="2.53798">
        <ele>639.4</ele>
        <time>2022-08-17T08:00:35Z</time>
      </trkpt>
      <trkpt lat="45.53233" lon="2.5379">
        <ele>639.36</ele>
        <time>2022-08-17T08:00:36Z</time>
      </trkpt>
      <trkpt lat="45.53234" lon="2.53782">
        <ele>640.91</ele>
        <time>2022-08-17T08:00:37Z</time>
      </trkpt>
      <trkpt lat="45.53235" lon="2.53777">
        <ele>640.89</ele>
        <time>2022-08-17T08:00:38Z</time>
      </trkpt>
      <trkpt lat="45.53236" lon="2.5377">
        <ele>642.64</ele>
        <time>2022-08-17T08:00:39Z</time>
      </trkpt>
      <trkpt lat="45.53243" lon="2.5376">
        <ele>642.66</ele>
        <time>2022-08-17T08:00:40Z</time>
      </trkpt>
      <trkpt lat="45.53252" lon="2.53748">
        <ele>642.66</ele>
        <time>2022-08-17T08:00:41Z</time>
      </trkpt>
      <trkpt lat="45.53258" lon="2.53736">
        <ele>643.46</ele>
        <time>2022-08-17T08:00:42Z</time>
      </trkpt>
      <trkpt lat="45.53259" lon="2.53725">
        <ele>644.48</ele>
        <time>2022-08-17T08:00:43Z</time>
      </trkpt>
      <trkpt lat="45.53257" lon="2.53714">
        <ele>644.51</ele>
        <time>2022-08-17T08:00:44Z</time>
      </trkpt>
      <trkpt lat="45.53253" lon="2.53703">
        <ele>645.57</ele>
        <time>2022-08-17T08:00:45Z</time>
      </trkpt>
      <trkpt lat="45.53241" lon="2.53698">
        <ele>646.88</ele>
        <time>2022-08-17T08:00:46Z</time>
      </trkpt>
      <trkpt lat="45.53232" lon="2.53694">
        <ele>648.43</ele>
        <time>2022-08-17T08:00:47Z</time>
      </trkpt>
      <trkpt lat="45.53221" lon="2.5369">
        <ele>648.43</ele>
        <time>2022-08-17T08:00:48Z</time>
      </trkpt>
      <trkpt lat="45.53211" lon="2.53686">
        <ele>649.93</ele>
        <time>2022-08-17T08:00:49Z</time>
      </trkpt>
      <trkpt lat="45.53192" lon="2.53678">
        <ele>651.43</ele>
        <time>2022-08-17T08:00:51Z</time>
      </trkpt>
      <trkpt lat="45.53165" lon="2.53665">
        <ele>654.5</ele>
        <time>2022-08-17T08:00:54Z</time>
      </trkpt>
      <trkpt lat="45.53145" lon="2.53656">
        <ele>655.9</ele>
        <time>2022-08-17T08:00:56Z</time>
      </trkpt>
      <trkpt lat="45.53096" lon="2.53634">
        <ele>655.87</ele>
        <time>2022-08-17T08:01:02Z</time>
      </trkpt>
      <trkpt lat="45.53092" lon="2.53635">
        <ele>655.72</ele>
        <time>2022-08-17T08:01:03Z</time>
      </trkpt>
      <trkpt lat="45.53087" lon="2.53635">
        <ele>655.71</ele>
        <time>2022-08-17T08:01:04Z</time>
      </trkpt>
      <trkpt lat="45.53082" lon="2.53634">
        <ele>655.64</ele>
        <time>2022-08-17T08:01:05Z</time>
      </trkpt>
      <trkpt lat="45.53077" lon="2.53636">
        <ele>655.55</ele>
        <time>2022-08-17T08:01:06Z</time>
      </trkpt>
      <trkpt lat="45.53073" lon="2.53638">
        <ele>655.49</ele>
        <time>2022-08-17T08:01:07Z</time>
      </trkpt>
      <trkpt lat="45.53069" lon="2.53644">
        <ele>652.34</ele>
        <time>2022-08-17T08:01:08Z</time>
      </trkpt>
      <trkpt lat="45.53064" lon="2.53658">
        <ele>651.27</ele>
        <time>2022-08-17T08:01:09Z</time>
      </trkpt>
      <trkpt lat="45.53059" lon="2.53672">
        <ele>651.24</ele>
        <time>2022-08-17T08:01:10Z</time>
      </trkpt>
      <trkpt lat="45.5305" lon="2.53694">
        <ele>649.62</ele>
        <time>2022-08-17T08:01:12Z</time>
      </trkpt>
      <trkpt lat="45.53044" lon="2.53704">
        <ele>648.77</ele>
        <time>2022-08-17T08:01:13Z</time>
      </trkpt>
      <trkpt lat="45.53038" lon="2.53711">
        <ele>648.77</ele>
        <time>2022-08-17T08:01:14Z</time>
      </trkpt>
      <trkpt lat="45.53029" lon="2.53718">
        <ele>648.71</ele>
        <time>2022-08-17T08:01:15Z</time>
      </trkpt>
      <trkpt lat="45.53021" lon="2.53723">
        <ele>648.67</ele>
        <time>2022-08-17T08:01:16Z</time>
      </trkpt>
      <trkpt lat="45.52995" lon="2.53746">
        <ele>648.69</ele>
        <time>2022-08-17T08:01:19Z</time>
      </trkpt>
      <trkpt lat="45.52988" lon="2.53756">
        <ele>648.75</ele>
        <time>2022-08-17T08:01:20Z</time>
      </trkpt>
      <trkpt lat="45.52981" lon="2.53764">
        <ele>648.78</ele>
        <time>2022-08-17T08:01:21Z</time>
      </trkpt>
      <trkpt lat="45.52957" lon="2.5379">
        <ele>651.22</ele>
        <time>2022-08-17T08:01:24Z</time>
      </trkpt>
      <trkpt lat="45.52948" lon="2.53793">
        <ele>651.98</ele>
        <time>2022-08-17T08:01:25Z</time>
      </trkpt>
      <trkpt lat="45.52923" lon="2.53802">
        <ele>653.12</ele>
        <time>2022-08-17T08:01:28Z</time>
      </trkpt>
      <trkpt lat="45.52917" lon="2.53802">
        <ele>653.12</ele>
        <time>2022-08-17T08:01:29Z</time>
      </trkpt>
      <trkpt lat="45.52912" lon="2.53799">
        <ele>653.1</ele>
        <time>2022-08-17T08:01:30Z</time>
      </trkpt>
      <trkpt lat="45.52906" lon="2.53793">
        <ele>654.08</ele>
        <time>2022-08-17T08:01:31Z</time>
      </trkpt>
      <trkpt lat="45.52901" lon="2.53787">
        <ele>654.07</ele>
        <time>2022-08-17T08:01:32Z</time>
      </trkpt>
      <trkpt lat="45.52899" lon="2.53777">
        <ele>654.06</ele>
        <time>2022-08-17T08:01:33Z</time>
      </trkpt>
      <trkpt lat="45.52898" lon="2.53766">
        <ele>655.44</ele>
        <time>2022-08-17T08:01:34Z</time>
      </trkpt>
      <trkpt lat="45.52897" lon="2.53755">
        <ele>655.43</ele>
        <time>2022-08-17T08:01:35Z</time>
      </trkpt>
      <trkpt lat="45.52899" lon="2.53746">
        <ele>656.68</ele>
        <time>2022-08-17T08:01:36Z</time>
      </trkpt>
      <trkpt lat="45.52901" lon="2.53737">
        <ele>656.69</ele>
        <time>2022-08-17T08:01:37Z</time>
      </trkpt>
      <trkpt lat="45.52906" lon="2.53719">
        <ele>659.03</ele>
        <time>2022-08-17T08:01:39Z</time>
      </trkpt>
      <trkpt lat="45.52912" lon="2.53714">
        <ele>660.4</ele>
        <time>2022-08-17T08:01:40Z</time>
      </trkpt>
      <trkpt lat="45.52917" lon="2.53708">
        <ele>660.36</ele>
        <time>2022-08-17T08:01:41Z</time>
      </trkpt>
      <trkpt lat="45.52931" lon="2.5369">
        <ele>661.64</ele>
        <time>2022-08-17T08:01:43Z</time>
      </trkpt>
      <trkpt lat="45.52935" lon="2.5368">
        <ele>662.64</ele>
        <time>2022-08-17T08:01:44Z</time>
      </trkpt>
      <trkpt lat="45.52936" lon="2.53668">
        <ele>662.66</ele>
        <time>2022-08-17T08:01:45Z</time>
      </trkpt>
      <trkpt lat="45.52935" lon="2.53657">
        <ele>663.9</ele>
        <time>2022-08-17T08:01:46Z</time>
      </trkpt>
      <trkpt lat="45.52931" lon="2.5365">
        <ele>663.88</ele>
        <time>2022-08-17T08:01:47Z</time>
      </trkpt>
      <trkpt lat="45.52927" lon="2.53643">
        <ele>665.41</ele>
        <time>2022-08-17T08:01:48Z</time>
      </trkpt>
      <trkpt lat="45.5292" lon="2.53638">
        <ele>666.38</ele>
        <time>2022-08-17T08:01:49Z</time>
      </trkpt>
      <trkpt lat="45.52912" lon="2.53634">
        <ele>666.36</ele>
        <time>2022-08-17T08:01:50Z</time>
      </trkpt>
      <trkpt lat="45.52902" lon="2.53631">
        <ele>668.74</ele>
        <time>2022-08-17T08:01:51Z</time>
      </trkpt>
      <trkpt lat="45.52891" lon="2.53631">
        <ele>668.56</ele>
        <time>2022-08-17T08:01:52Z</time>
      </trkpt>
      <trkpt lat="45.52867" lon="2.53632">
        <ele>672.69</ele>
        <time>2022-08-17T08:01:54Z</time>
      </trkpt>
      <trkpt lat="45.52855" lon="2.53633">
        <ele>674.51</ele>
        <time>2022-08-17T08:01:55Z</time>
      </trkpt>
      <trkpt lat="45.52842" lon="2.53632">
        <ele>675.42</ele>
        <time>2022-08-17T08:01:56Z</time>
      </trkpt>
      <trkpt lat="45.52829" lon="2.53631">
        <ele>676.85</ele>
        <time>2022-08-17T08:01:57Z</time>
      </trkpt>
      <trkpt lat="45.52803" lon="2.53626">
        <ele>678.67</ele>
        <time>2022-08-17T08:01:59Z</time>
      </trkpt>
      <trkpt lat="45.52789" lon="2.5362">
        <ele>680.64</ele>
        <time>2022-08-17T08:02:00Z</time>
      </trkpt>
      <trkpt lat="45.52763" lon="2.53607">
        <ele>684.12</ele>
        <time>2022-08-17T08:02:02Z</time>
      </trkpt>
      <trkpt lat="45.52733" lon="2.53587">
        <ele>688.66</ele>
        <time>2022-08-17T08:02:04Z</time>
      </trkpt>
      <trkpt lat="45.52701" lon="2.53566">
        <ele>692.1</ele>
        <time>2022-08-17T08:02:06Z</time>
      </trkpt>
      <trkpt lat="45.5267" lon="2.53546">
        <ele>694.13</ele>
        <time>2022-08-17T08:02:08Z</time>
      </trkpt>
      <trkpt lat="45.52657" lon="2.53535">
        <ele>696.34</ele>
        <time>2022-08-17T08:02:09Z</time>
      </trkpt>
      <trkpt lat="45.52646" lon="2.53525">
        <ele>696.34</ele>
        <time>2022-08-17T08:02:10Z</time>
      </trkpt>
      <trkpt lat="45.52636" lon="2.53514">
        <ele>697.77</ele>
        <time>2022-08-17T08:02:11Z</time>
      </trkpt>
      <trkpt lat="45.52626" lon="2.53501">
        <ele>698.22</ele>
        <time>2022-08-17T08:02:12Z</time>
      </trkpt>
      <trkpt lat="45.52616" lon="2.53487">
        <ele>699.58</ele>
        <time>2022-08-17T08:02:13Z</time>
      </trkpt>
      <trkpt lat="45.52607" lon="2.53473">
        <ele>699.54</ele>
        <time>2022-08-17T08:02:14Z</time>
      </trkpt>
      <trkpt lat="45.52598" lon="2.53462">
        <ele>700.47</ele>
        <time>2022-08-17T08:02:15Z</time>
      </trkpt>
      <trkpt lat="45.52588" lon="2.53452">
        <ele>700.44</ele>
        <time>2022-08-17T08:02:16Z</time>
      </trkpt>
      <trkpt lat="45.52579" lon="2.53446">
        <ele>701.58</ele>
        <time>2022-08-17T08:02:17Z</time>
      </trkpt>
      <trkpt lat="45.52571" lon="2.53443">
        <ele>701.65</ele>
        <time>2022-08-17T08:02:18Z</time>
      </trkpt>
      <trkpt lat="45.52563" lon="2.53445">
        <ele>703.08</ele>
        <time>2022-08-17T08:02:19Z</time>
      </trkpt>
      <trkpt lat="45.52556" lon="2.53449">
        <ele>702.99</ele>
        <time>2022-08-17T08:02:20Z</time>
      </trkpt>
      <trkpt lat="45.52549" lon="2.53456">
        <ele>704.22</ele>
        <time>2022-08-17T08:02:21Z</time>
      </trkpt>
      <trkpt lat="45.52543" lon="2.53464">
        <ele>705.46</ele>
        <time>2022-08-17T08:02:22Z</time>
      </trkpt>
      <trkpt lat="45.52538" lon="2.53476">
        <ele>705.41</ele>
        <time>2022-08-17T08:02:23Z</time>
      </trkpt>
      <trkpt lat="45.52534" lon="2.53491">
        <ele>707.61</ele>
        <time>2022-08-17T08:02:24Z</time>
      </trkpt>
      <trkpt lat="45.52531" lon="2.53506">
        <ele>708.53</ele>
        <time>2022-08-17T08:02:25Z</time>
      </trkpt>
      <trkpt lat="45.52528" lon="2.53521">
        <ele>708.5</ele>
        <time>2022-08-17T08:02:26Z</time>
      </trkpt>
      <trkpt lat="45.52524" lon="2.53536">
        <ele>709.73</ele>
        <time>2022-08-17T08:02:27Z</time>
      </trkpt>
      <trkpt lat="45.52519" lon="2.53549">
        <ele>709.67</ele>
        <time>2022-08-17T08:02:28Z</time>
      </trkpt>
      <trkpt lat="45.52511" lon="2.53559">
        <ele>710.6</ele>
        <time>2022-08-17T08:02:29Z</time>
      </trkpt>
      <trkpt lat="45.52501" lon="2.5357">
        <ele>711.9</ele>
        <time>2022-08-17T08:02:30Z</time>
      </trkpt>
      <trkpt lat="45.5249" lon="2.53581">
        <ele>712.93</ele>
        <time>2022-08-17T08:02:31Z</time>
      </trkpt>
      <trkpt lat="45.52479" lon="2.53595">
        <ele>713.98</ele>
        <time>2022-08-17T08:02:32Z</time>
      </trkpt>
      <trkpt lat="45.52469" lon="2.53609">
        <ele>715.32</ele>
        <time>2022-08-17T08:02:33Z</time>
      </trkpt>
      <trkpt lat="45.52461" lon="2.53624">
        <ele>715.21</ele>
        <time>2022-08-17T08:02:34Z</time>
      </trkpt>
      <trkpt lat="45.52456" lon="2.53637">
        <ele>714.43</ele>
        <time>2022-08-17T08:02:35Z</time>
      </trkpt>
      <trkpt lat="45.52454" lon="2.53649">
        <ele>715.24</ele>
        <time>2022-08-17T08:02:36Z</time>
      </trkpt>
      <trkpt lat="45.52456" lon="2.53661">
        <ele>715.31</ele>
        <time>2022-08-17T08:02:37Z</time>
      </trkpt>
      <trkpt lat="45.52462" lon="2.53673">
        <ele>716.66</ele>
        <time>2022-08-17T08:02:38Z</time>
      </trkpt>
      <trkpt lat="45.52469" lon="2.53687">
        <ele>718.26</ele>
        <time>2022-08-17T08:02:39Z</time>
      </trkpt>
      <trkpt lat="45.52497" lon="2.53735">
        <ele>721.69</ele>
        <time>2022-08-17T08:02:42Z</time>
      </trkpt>
      <trkpt lat="45.52505" lon="2.5375">
        <ele>721.84</ele>
        <time>2022-08-17T08:02:43Z</time>
      </trkpt>
      <trkpt lat="45.52514" lon="2.53764">
        <ele>722.77</ele>
        <time>2022-08-17T08:02:44Z</time>
      </trkpt>
      <trkpt lat="45.52525" lon="2.53776">
        <ele>724</ele>
        <time>2022-08-17T08:02:45Z</time>
      </trkpt>
      <trkpt lat="45.52537" lon="2.53787">
        <ele>725.36</ele>
        <time>2022-08-17T08:02:46Z</time>
      </trkpt>
      <trkpt lat="45.52559" lon="2.53805">
        <ele>726.41</ele>
        <time>2022-08-17T08:02:48Z</time>
      </trkpt>
      <trkpt lat="45.52586" lon="2.53831">
        <ele>727.93</ele>
        <time>2022-08-17T08:02:51Z</time>
      </trkpt>
      <trkpt lat="45.52594" lon="2.53841">
        <ele>727.96</ele>
        <time>2022-08-17T08:02:52Z</time>
      </trkpt>
      <trkpt lat="45.52601" lon="2.53853">
        <ele>728.03</ele>
        <time>2022-08-17T08:02:53Z</time>
      </trkpt>
      <trkpt lat="45.52606" lon="2.53867">
        <ele>729.97</ele>
        <time>2022-08-17T08:02:54Z</time>
      </trkpt>
      <trkpt lat="45.52609" lon="2.53882">
        <ele>730.02</ele>
        <time>2022-08-17T08:02:55Z</time>
      </trkpt>
      <trkpt lat="45.52611" lon="2.53899">
        <ele>732.07</ele>
        <time>2022-08-17T08:02:56Z</time>
      </trkpt>
      <trkpt lat="45.52612" lon="2.53917">
        <ele>733.38</ele>
        <time>2022-08-17T08:02:57Z</time>
      </trkpt>
      <trkpt lat="45.52614" lon="2.53937">
        <ele>733.42</ele>
        <time>2022-08-17T08:02:58Z</time>
      </trkpt>
      <trkpt lat="45.52617" lon="2.53978">
        <ele>736.42</ele>
        <time>2022-08-17T08:03:00Z</time>
      </trkpt>
      <trkpt lat="45.52619" lon="2.53997">
        <ele>736.42</ele>
        <time>2022-08-17T08:03:01Z</time>
      </trkpt>
      <trkpt lat="45.52622" lon="2.54015">
        <ele>737.62</ele>
        <time>2022-08-17T08:03:02Z</time>
      </trkpt>
      <trkpt lat="45.52627" lon="2.54031">
        <ele>738.65</ele>
        <time>2022-08-17T08:03:03Z</time>
      </trkpt>
      <trkpt lat="45.52634" lon="2.54046">
        <ele>738.64</ele>
        <time>2022-08-17T08:03:04Z</time>
      </trkpt>
      <trkpt lat="45.52642" lon="2.5406">
        <ele>740.2</ele>
        <time>2022-08-17T08:03:05Z</time>
      </trkpt>
      <trkpt lat="45.52651" lon="2.54073">
        <ele>740.18</ele>
        <time>2022-08-17T08:03:06Z</time>
      </trkpt>
      <trkpt lat="45.52662" lon="2.54085">
        <ele>741.8</ele>
        <time>2022-08-17T08:03:07Z</time>
      </trkpt>
      <trkpt lat="45.52673" lon="2.54096">
        <ele>741.68</ele>
        <time>2022-08-17T08:03:08Z</time>
      </trkpt>
      <trkpt lat="45.52685" lon="2.54107">
        <ele>741.67</ele>
        <time>2022-08-17T08:03:09Z</time>
      </trkpt>
      <trkpt lat="45.52705" lon="2.54128">
        <ele>741.7</ele>
        <time>2022-08-17T08:03:11Z</time>
      </trkpt>
      <trkpt lat="45.52712" lon="2.54139">
        <ele>741.74</ele>
        <time>2022-08-17T08:03:12Z</time>
      </trkpt>
      <trkpt lat="45.52718" lon="2.5415">
        <ele>741.79</ele>
        <time>2022-08-17T08:03:13Z</time>
      </trkpt>
      <trkpt lat="45.52723" lon="2.5416">
        <ele>741.71</ele>
        <time>2022-08-17T08:03:14Z</time>
      </trkpt>
      <trkpt lat="45.52728" lon="2.5417">
        <ele>741.68</ele>
        <time>2022-08-17T08:03:15Z</time>
      </trkpt>
      <trkpt lat="45.52733" lon="2.54178">
        <ele>741.72</ele>
        <time>2022-08-17T08:03:16Z</time>
      </trkpt>
      <trkpt lat="45.5274" lon="2.54185">
        <ele>741.73</ele>
        <time>2022-08-17T08:03:17Z</time>
      </trkpt>
      <trkpt lat="45.52748" lon="2.54192">
        <ele>741.62</ele>
        <time>2022-08-17T08:03:18Z</time>
      </trkpt>
      <trkpt lat="45.52757" lon="2.54197">
        <ele>743.08</ele>
        <time>2022-08-17T08:03:19Z</time>
      </trkpt>
      <trkpt lat="45.52767" lon="2.54201">
        <ele>743.84</ele>
        <time>2022-08-17T08:03:20Z</time>
      </trkpt>
      <trkpt lat="45.52798" lon="2.54215">
        <ele>747.19</ele>
        <time>2022-08-17T08:03:23Z</time>
      </trkpt>
      <trkpt lat="45.52808" lon="2.54222">
        <ele>747.11</ele>
        <time>2022-08-17T08:03:24Z</time>
      </trkpt>
      <trkpt lat="45.52818" lon="2.5423">
        <ele>748.1</ele>
        <time>2022-08-17T08:03:25Z</time>
      </trkpt>
      <trkpt lat="45.52826" lon="2.54239">
        <ele>748.07</ele>
        <time>2022-08-17T08:03:26Z</time>
      </trkpt>
      <trkpt lat="45.52833" lon="2.54248">
        <ele>748.05</ele>
        <time>2022-08-17T08:03:27Z</time>
      </trkpt>
      <trkpt lat="45.52838" lon="2.54259">
        <ele>748.9</ele>
        <time>2022-08-17T08:03:28Z</time>
      </trkpt>
      <trkpt lat="45.52839" lon="2.54273">
        <ele>749.85</ele>
        <time>2022-08-17T08:03:29Z</time>
      </trkpt>
      <trkpt lat="45.52838" lon="2.54287">
        <ele>750.74</ele>
        <time>2022-08-17T08:03:30Z</time>
      </trkpt>
      <trkpt lat="45.52835" lon="2.54303">
        <ele>751.84</ele>
        <time>2022-08-17T08:03:31Z</time>
      </trkpt>
      <trkpt lat="45.52831" lon="2.54319">
        <ele>752.63</ele>
        <time>2022-08-17T08:03:32Z</time>
      </trkpt>
      <trkpt lat="45.52828" lon="2.54336">
        <ele>752.62</ele>
        <time>2022-08-17T08:03:33Z</time>
      </trkpt>
      <trkpt lat="45.52827" lon="2.54354">
        <ele>754.72</ele>
        <time>2022-08-17T08:03:34Z</time>
      </trkpt>
      <trkpt lat="45.52827" lon="2.54372">
        <ele>754.71</ele>
        <time>2022-08-17T08:03:35Z</time>
      </trkpt>
      <trkpt lat="45.52829" lon="2.54389">
        <ele>755.56</ele>
        <time>2022-08-17T08:03:36Z</time>
      </trkpt>
      <trkpt lat="45.52831" lon="2.54407">
        <ele>756.57</ele>
        <time>2022-08-17T08:03:37Z</time>
      </trkpt>
      <trkpt lat="45.52834" lon="2.54425">
        <ele>756.53</ele>
        <time>2022-08-17T08:03:38Z</time>
      </trkpt>
      <trkpt lat="45.52839" lon="2.54461">
        <ele>758.38</ele>
        <time>2022-08-17T08:03:40Z</time>
      </trkpt>
      <trkpt lat="45.52844" lon="2.54492">
        <ele>759.85</ele>
        <time>2022-08-17T08:03:42Z</time>
      </trkpt>
      <trkpt lat="45.52845" lon="2.54506">
        <ele>759.91</ele>
        <time>2022-08-17T08:03:43Z</time>
      </trkpt>
      <trkpt lat="45.52845" lon="2.54518">
        <ele>760.67</ele>
        <time>2022-08-17T08:03:44Z</time>
      </trkpt>
      <trkpt lat="45.52845" lon="2.5453">
        <ele>760.68</ele>
        <time>2022-08-17T08:03:45Z</time>
      </trkpt>
      <trkpt lat="45.52842" lon="2.54543">
        <ele>760.65</ele>
        <time>2022-08-17T08:03:46Z</time>
      </trkpt>
      <trkpt lat="45.52837" lon="2.54558">
        <ele>761.58</ele>
        <time>2022-08-17T08:03:47Z</time>
      </trkpt>
      <trkpt lat="45.52831" lon="2.54573">
        <ele>761.61</ele>
        <time>2022-08-17T08:03:48Z</time>
      </trkpt>
      <trkpt lat="45.52825" lon="2.54588">
        <ele>763.44</ele>
        <time>2022-08-17T08:03:49Z</time>
      </trkpt>
      <trkpt lat="45.5274" lon="2.54739">
        <ele>764.37</ele>
        <time>2022-08-17T08:03:59Z</time>
      </trkpt>
      <trkpt lat="45.52698" lon="2.5482">
        <ele>767.69</ele>
        <time>2022-08-17T08:04:04Z</time>
      </trkpt>
      <trkpt lat="45.52691" lon="2.54837">
        <ele>767.7</ele>
        <time>2022-08-17T08:04:05Z</time>
      </trkpt>
      <trkpt lat="45.52666" lon="2.54888">
        <ele>770.12</ele>
        <time>2022-08-17T08:04:08Z</time>
      </trkpt>
      <trkpt lat="45.52632" lon="2.54946">
        <ele>772.36</ele>
        <time>2022-08-17T08:04:13Z</time>
      </trkpt>
      <trkpt lat="45.52612" lon="2.54985">
        <ele>771.91</ele>
        <time>2022-08-17T08:04:17Z</time>
      </trkpt>
      <trkpt lat="45.52605" lon="2.54994">
        <ele>771.9</ele>
        <time>2022-08-17T08:04:18Z</time>
      </trkpt>
      <trkpt lat="45.52579" lon="2.55029">
        <ele>771.89</ele>
        <time>2022-08-17T08:04:22Z</time>
      </trkpt>
      <trkpt lat="45.52572" lon="2.55046">
        <ele>769.05</ele>
        <time>2022-08-17T08:04:24Z</time>
      </trkpt>
      <trkpt lat="45.5257" lon="2.55053">
        <ele>769.09</ele>
        <time>2022-08-17T08:04:25Z</time>
      </trkpt>
      <trkpt lat="45.52568" lon="2.55059">
        <ele>769.04</ele>
        <time>2022-08-17T08:04:26Z</time>
      </trkpt>
      <trkpt lat="45.52564" lon="2.55062">
        <ele>769.03</ele>
        <time>2022-08-17T08:04:27Z</time>
      </trkpt>
      <trkpt lat="45.52559" lon="2.55063">
        <ele>769.03</ele>
        <time>2022-08-17T08:04:28Z</time>
      </trkpt>
      <trkpt lat="45.52553" lon="2.5506">
        <ele>768.99</ele>
        <time>2022-08-17T08:04:29Z</time>
      </trkpt>
      <trkpt lat="45.52545" lon="2.55057">
        <ele>768.12</ele>
        <time>2022-08-17T08:04:30Z</time>
      </trkpt>
      <trkpt lat="45.52537" lon="2.55055">
        <ele>768.1</ele>
        <time>2022-08-17T08:04:31Z</time>
      </trkpt>
      <trkpt lat="45.52522" lon="2.5505">
        <ele>766.76</ele>
        <time>2022-08-17T08:04:33Z</time>
      </trkpt>
      <trkpt lat="45.52508" lon="2.55043">
        <ele>765.61</ele>
        <time>2022-08-17T08:04:35Z</time>
      </trkpt>
      <trkpt lat="45.52496" lon="2.55035">
        <ele>763.6</ele>
        <time>2022-08-17T08:04:37Z</time>
      </trkpt>
      <trkpt lat="45.52489" lon="2.55032">
        <ele>762.57</ele>
        <time>2022-08-17T08:04:38Z</time>
      </trkpt>
      <trkpt lat="45.52483" lon="2.55032">
        <ele>761.54</ele>
        <time>2022-08-17T08:04:39Z</time>
      </trkpt>
      <trkpt lat="45.52478" lon="2.55036">
        <ele>760.72</ele>
        <time>2022-08-17T08:04:40Z</time>
      </trkpt>
      <trkpt lat="45.52474" lon="2.55043">
        <ele>760.72</ele>
        <time>2022-08-17T08:04:41Z</time>
      </trkpt>
      <trkpt lat="45.52473" lon="2.55053">
        <ele>760.67</ele>
        <time>2022-08-17T08:04:42Z</time>
      </trkpt>
      <trkpt lat="45.52475" lon="2.55064">
        <ele>758.93</ele>
        <time>2022-08-17T08:04:43Z</time>
      </trkpt>
      <trkpt lat="45.52476" lon="2.55075">
        <ele>758.05</ele>
        <time>2022-08-17T08:04:44Z</time>
      </trkpt>
      <trkpt lat="45.52477" lon="2.55087">
        <ele>757.98</ele>
        <time>2022-08-17T08:04:45Z</time>
      </trkpt>
      <trkpt lat="45.52478" lon="2.55099">
        <ele>756.13</ele>
        <time>2022-08-17T08:04:46Z</time>
      </trkpt>
      <trkpt lat="45.52476" lon="2.5511">
        <ele>755.29</ele>
        <time>2022-08-17T08:04:47Z</time>
      </trkpt>
      <trkpt lat="45.52473" lon="2.5512">
        <ele>755.3</ele>
        <time>2022-08-17T08:04:48Z</time>
      </trkpt>
      <trkpt lat="45.52469" lon="2.55129">
        <ele>754.24</ele>
        <time>2022-08-17T08:04:49Z</time>
      </trkpt>
      <trkpt lat="45.52463" lon="2.55137">
        <ele>752.67</ele>
        <time>2022-08-17T08:04:50Z</time>
      </trkpt>
      <trkpt lat="45.52458" lon="2.55144">
        <ele>752.6</ele>
        <time>2022-08-17T08:04:51Z</time>
      </trkpt>
      <trkpt lat="45.52452" lon="2.55152">
        <ele>751.47</ele>
        <time>2022-08-17T08:04:52Z</time>
      </trkpt>
      <trkpt lat="45.52448" lon="2.55161">
        <ele>751.51</ele>
        <time>2022-08-17T08:04:53Z</time>
      </trkpt>
      <trkpt lat="45.52445" lon="2.55172">
        <ele>751.46</ele>
        <time>2022-08-17T08:04:54Z</time>
      </trkpt>
      <trkpt lat="45.52445" lon="2.55182">
        <ele>749.72</ele>
        <time>2022-08-17T08:04:55Z</time>
      </trkpt>
      <trkpt lat="45.52446" lon="2.55191">
        <ele>749.07</ele>
        <time>2022-08-17T08:04:56Z</time>
      </trkpt>
      <trkpt lat="45.5245" lon="2.55201">
        <ele>748.65</ele>
        <time>2022-08-17T08:04:57Z</time>
      </trkpt>
      <trkpt lat="45.52454" lon="2.55209">
        <ele>747.59</ele>
        <time>2022-08-17T08:04:58Z</time>
      </trkpt>
      <trkpt lat="45.52461" lon="2.55213">
        <ele>747.59</ele>
        <time>2022-08-17T08:04:59Z</time>
      </trkpt>
      <trkpt lat="45.5247" lon="2.55216">
        <ele>747.52</ele>
        <time>2022-08-17T08:05:00Z</time>
      </trkpt>
      <trkpt lat="45.5248" lon="2.55217">
        <ele>746.51</ele>
        <time>2022-08-17T08:05:01Z</time>
      </trkpt>
      <trkpt lat="45.52489" lon="2.55217">
        <ele>745.41</ele>
        <time>2022-08-17T08:05:02Z</time>
      </trkpt>
      <trkpt lat="45.52499" lon="2.55217">
        <ele>745.4</ele>
        <time>2022-08-17T08:05:03Z</time>
      </trkpt>
      <trkpt lat="45.5251" lon="2.5522">
        <ele>744</ele>
        <time>2022-08-17T08:05:04Z</time>
      </trkpt>
      <trkpt lat="45.52521" lon="2.55224">
        <ele>744.01</ele>
        <time>2022-08-17T08:05:05Z</time>
      </trkpt>
      <trkpt lat="45.52553" lon="2.55242">
        <ele>741.09</ele>
        <time>2022-08-17T08:05:08Z</time>
      </trkpt>
      <trkpt lat="45.52562" lon="2.55252">
        <ele>741.02</ele>
        <time>2022-08-17T08:05:09Z</time>
      </trkpt>
      <trkpt lat="45.52569" lon="2.55265">
        <ele>740</ele>
        <time>2022-08-17T08:05:10Z</time>
      </trkpt>
      <trkpt lat="45.52574" lon="2.55281">
        <ele>739.93</ele>
        <time>2022-08-17T08:05:11Z</time>
      </trkpt>
      <trkpt lat="45.52577" lon="2.55297">
        <ele>739.98</ele>
        <time>2022-08-17T08:05:12Z</time>
      </trkpt>
      <trkpt lat="45.52579" lon="2.55314">
        <ele>739.95</ele>
        <time>2022-08-17T08:05:13Z</time>
      </trkpt>
      <trkpt lat="45.52583" lon="2.55329">
        <ele>738.55</ele>
        <time>2022-08-17T08:05:14Z</time>
      </trkpt>
      <trkpt lat="45.52589" lon="2.55341">
        <ele>738.51</ele>
        <time>2022-08-17T08:05:15Z</time>
      </trkpt>
      <trkpt lat="45.52596" lon="2.55353">
        <ele>737.68</ele>
        <time>2022-08-17T08:05:16Z</time>
      </trkpt>
      <trkpt lat="45.52604" lon="2.55363">
        <ele>737.7</ele>
        <time>2022-08-17T08:05:17Z</time>
      </trkpt>
      <trkpt lat="45.52613" lon="2.55374">
        <ele>737.68</ele>
        <time>2022-08-17T08:05:18Z</time>
      </trkpt>
      <trkpt lat="45.52632" lon="2.55397">
        <ele>737.63</ele>
        <time>2022-08-17T08:05:20Z</time>
      </trkpt>
      <trkpt lat="45.52639" lon="2.55411">
        <ele>737.73</ele>
        <time>2022-08-17T08:05:21Z</time>
      </trkpt>
      <trkpt lat="45.52645" lon="2.55426">
        <ele>738.14</ele>
        <time>2022-08-17T08:05:22Z</time>
      </trkpt>
      <trkpt lat="45.52685" lon="2.55556">
        <ele>735.46</ele>
        <time>2022-08-17T08:05:30Z</time>
      </trkpt>
      <trkpt lat="45.52694" lon="2.55601">
        <ele>732.89</ele>
        <time>2022-08-17T08:05:33Z</time>
      </trkpt>
      <trkpt lat="45.52698" lon="2.55613">
        <ele>731.68</ele>
        <time>2022-08-17T08:05:34Z</time>
      </trkpt>
      <trkpt lat="45.52703" lon="2.55625">
        <ele>731.66</ele>
        <time>2022-08-17T08:05:35Z</time>
      </trkpt>
      <trkpt lat="45.52713" lon="2.55648">
        <ele>729.81</ele>
        <time>2022-08-17T08:05:37Z</time>
      </trkpt>
      <trkpt lat="45.52715" lon="2.5566">
        <ele>728.75</ele>
        <time>2022-08-17T08:05:38Z</time>
      </trkpt>
      <trkpt lat="45.52715" lon="2.55672">
        <ele>728.74</ele>
        <time>2022-08-17T08:05:39Z</time>
      </trkpt>
      <trkpt lat="45.52713" lon="2.55682">
        <ele>728.69</ele>
        <time>2022-08-17T08:05:40Z</time>
      </trkpt>
      <trkpt lat="45.52708" lon="2.55692">
        <ele>726.97</ele>
        <time>2022-08-17T08:05:41Z</time>
      </trkpt>
      <trkpt lat="45.52701" lon="2.55698">
        <ele>726.95</ele>
        <time>2022-08-17T08:05:42Z</time>
      </trkpt>
      <trkpt lat="45.52694" lon="2.557">
        <ele>725.88</ele>
        <time>2022-08-17T08:05:43Z</time>
      </trkpt>
      <trkpt lat="45.52687" lon="2.55699">
        <ele>725.93</ele>
        <time>2022-08-17T08:05:44Z</time>
      </trkpt>
      <trkpt lat="45.5268" lon="2.55694">
        <ele>725.81</ele>
        <time>2022-08-17T08:05:45Z</time>
      </trkpt>
      <trkpt lat="45.52672" lon="2.55685">
        <ele>725.84</ele>
        <time>2022-08-17T08:05:46Z</time>
      </trkpt>
      <trkpt lat="45.52664" lon="2.55673">
        <ele>726.38</ele>
        <time>2022-08-17T08:05:47Z</time>
      </trkpt>
      <trkpt lat="45.52654" lon="2.5566">
        <ele>726.38</ele>
        <time>2022-08-17T08:05:48Z</time>
      </trkpt>
      <trkpt lat="45.52643" lon="2.55645">
        <ele>728.87</ele>
        <time>2022-08-17T08:05:49Z</time>
      </trkpt>
      <trkpt lat="45.52631" lon="2.5563">
        <ele>728.89</ele>
        <time>2022-08-17T08:05:50Z</time>
      </trkpt>
      <trkpt lat="45.52568" lon="2.55527">
        <ele>726.33</ele>
        <time>2022-08-17T08:05:57Z</time>
      </trkpt>
      <trkpt lat="45.5255" lon="2.555">
        <ele>726.37</ele>
        <time>2022-08-17T08:05:59Z</time>
      </trkpt>
      <trkpt lat="45.52539" lon="2.55488">
        <ele>725.29</ele>
        <time>2022-08-17T08:06:00Z</time>
      </trkpt>
      <trkpt lat="45.52528" lon="2.5548">
        <ele>725.3</ele>
        <time>2022-08-17T08:06:01Z</time>
      </trkpt>
      <trkpt lat="45.52517" lon="2.55477">
        <ele>723.98</ele>
        <time>2022-08-17T08:06:02Z</time>
      </trkpt>
      <trkpt lat="45.52507" lon="2.55481">
        <ele>723.22</ele>
        <time>2022-08-17T08:06:03Z</time>
      </trkpt>
      <trkpt lat="45.52497" lon="2.55488">
        <ele>723.2</ele>
        <time>2022-08-17T08:06:04Z</time>
      </trkpt>
      <trkpt lat="45.52489" lon="2.55498">
        <ele>723.19</ele>
        <time>2022-08-17T08:06:05Z</time>
      </trkpt>
      <trkpt lat="45.52481" lon="2.5551">
        <ele>723.15</ele>
        <time>2022-08-17T08:06:06Z</time>
      </trkpt>
      <trkpt lat="45.52474" lon="2.55526">
        <ele>723.14</ele>
        <time>2022-08-17T08:06:07Z</time>
      </trkpt>
      <trkpt lat="45.52468" lon="2.55544">
        <ele>723.14</ele>
        <time>2022-08-17T08:06:08Z</time>
      </trkpt>
      <trkpt lat="45.52462" lon="2.55564">
        <ele>722.08</ele>
        <time>2022-08-17T08:06:09Z</time>
      </trkpt>
      <trkpt lat="45.52431" lon="2.55639">
        <ele>718.81</ele>
        <time>2022-08-17T08:06:13Z</time>
      </trkpt>
      <trkpt lat="45.52422" lon="2.55655">
        <ele>718.82</ele>
        <time>2022-08-17T08:06:14Z</time>
      </trkpt>
      <trkpt lat="45.52394" lon="2.55695">
        <ele>716.61</ele>
        <time>2022-08-17T08:06:17Z</time>
      </trkpt>
      <trkpt lat="45.52386" lon="2.55707">
        <ele>715.37</ele>
        <time>2022-08-17T08:06:18Z</time>
      </trkpt>
      <trkpt lat="45.52378" lon="2.5572">
        <ele>714.5</ele>
        <time>2022-08-17T08:06:19Z</time>
      </trkpt>
      <trkpt lat="45.52374" lon="2.55735">
        <ele>714.5</ele>
        <time>2022-08-17T08:06:20Z</time>
      </trkpt>
      <trkpt lat="45.52372" lon="2.55752">
        <ele>713.61</ele>
        <time>2022-08-17T08:06:21Z</time>
      </trkpt>
      <trkpt lat="45.52372" lon="2.55771">
        <ele>713.62</ele>
        <time>2022-08-17T08:06:22Z</time>
      </trkpt>
      <trkpt lat="45.52369" lon="2.5581">
        <ele>713.61</ele>
        <time>2022-08-17T08:06:24Z</time>
      </trkpt>
      <trkpt lat="45.52366" lon="2.5583">
        <ele>712.4</ele>
        <time>2022-08-17T08:06:25Z</time>
      </trkpt>
      <trkpt lat="45.52361" lon="2.55848">
        <ele>712.31</ele>
        <time>2022-08-17T08:06:26Z</time>
      </trkpt>
      <trkpt lat="45.52346" lon="2.55897">
        <ele>708.46</ele>
        <time>2022-08-17T08:06:29Z</time>
      </trkpt>
      <trkpt lat="45.5234" lon="2.5591">
        <ele>708.51</ele>
        <time>2022-08-17T08:06:30Z</time>
      </trkpt>
      <trkpt lat="45.52328" lon="2.55933">
        <ele>707.02</ele>
        <time>2022-08-17T08:06:32Z</time>
      </trkpt>
      <trkpt lat="45.52321" lon="2.55942">
        <ele>706.02</ele>
        <time>2022-08-17T08:06:33Z</time>
      </trkpt>
      <trkpt lat="45.52315" lon="2.55948">
        <ele>705.08</ele>
        <time>2022-08-17T08:06:34Z</time>
      </trkpt>
      <trkpt lat="45.52308" lon="2.55952">
        <ele>705.15</ele>
        <time>2022-08-17T08:06:35Z</time>
      </trkpt>
      <trkpt lat="45.52302" lon="2.55952">
        <ele>704.42</ele>
        <time>2022-08-17T08:06:36Z</time>
      </trkpt>
      <trkpt lat="45.52296" lon="2.55949">
        <ele>704.42</ele>
        <time>2022-08-17T08:06:37Z</time>
      </trkpt>
      <trkpt lat="45.52291" lon="2.55944">
        <ele>703.46</ele>
        <time>2022-08-17T08:06:38Z</time>
      </trkpt>
      <trkpt lat="45.52288" lon="2.55937">
        <ele>703.47</ele>
        <time>2022-08-17T08:06:39Z</time>
      </trkpt>
      <trkpt lat="45.52286" lon="2.55927">
        <ele>703.49</ele>
        <time>2022-08-17T08:06:40Z</time>
      </trkpt>
      <trkpt lat="45.52286" lon="2.55916">
        <ele>703.45</ele>
        <time>2022-08-17T08:06:41Z</time>
      </trkpt>
      <trkpt lat="45.52289" lon="2.55906">
        <ele>703.47</ele>
        <time>2022-08-17T08:06:42Z</time>
      </trkpt>
      <trkpt lat="45.52292" lon="2.55896">
        <ele>703.5</ele>
        <time>2022-08-17T08:06:43Z</time>
      </trkpt>
      <trkpt lat="45.52296" lon="2.55887">
        <ele>703.48</ele>
        <time>2022-08-17T08:06:44Z</time>
      </trkpt>
      <trkpt lat="45.523" lon="2.55879">
        <ele>703.47</ele>
        <time>2022-08-17T08:06:45Z</time>
      </trkpt>
      <trkpt lat="45.52303" lon="2.55869">
        <ele>703.53</ele>
        <time>2022-08-17T08:06:46Z</time>
      </trkpt>
      <trkpt lat="45.52305" lon="2.55857">
        <ele>706.49</ele>
        <time>2022-08-17T08:06:47Z</time>
      </trkpt>
      <trkpt lat="45.52304" lon="2.55845">
        <ele>706.54</ele>
        <time>2022-08-17T08:06:48Z</time>
      </trkpt>
      <trkpt lat="45.52303" lon="2.55832">
        <ele>707.35</ele>
        <time>2022-08-17T08:06:49Z</time>
      </trkpt>
      <trkpt lat="45.52302" lon="2.55804">
        <ele>708.39</ele>
        <time>2022-08-17T08:06:51Z</time>
      </trkpt>
      <trkpt lat="45.52302" lon="2.55772">
        <ele>710.1</ele>
        <time>2022-08-17T08:06:53Z</time>
      </trkpt>
      <trkpt lat="45.52302" lon="2.55718">
        <ele>713.12</ele>
        <time>2022-08-17T08:06:56Z</time>
      </trkpt>
      <trkpt lat="45.52303" lon="2.55682">
        <ele>715.84</ele>
        <time>2022-08-17T08:06:58Z</time>
      </trkpt>
      <trkpt lat="45.52306" lon="2.55665">
        <ele>715.81</ele>
        <time>2022-08-17T08:06:59Z</time>
      </trkpt>
      <trkpt lat="45.5231" lon="2.5565">
        <ele>716.66</ele>
        <time>2022-08-17T08:07:00Z</time>
      </trkpt>
      <trkpt lat="45.52321" lon="2.55622">
        <ele>718.08</ele>
        <time>2022-08-17T08:07:02Z</time>
      </trkpt>
      <trkpt lat="45.52333" lon="2.55594">
        <ele>719.77</ele>
        <time>2022-08-17T08:07:04Z</time>
      </trkpt>
      <trkpt lat="45.52342" lon="2.55565">
        <ele>720.57</ele>
        <time>2022-08-17T08:07:06Z</time>
      </trkpt>
      <trkpt lat="45.52344" lon="2.55551">
        <ele>721.62</ele>
        <time>2022-08-17T08:07:07Z</time>
      </trkpt>
      <trkpt lat="45.52344" lon="2.55537">
        <ele>722.85</ele>
        <time>2022-08-17T08:07:08Z</time>
      </trkpt>
      <trkpt lat="45.52337" lon="2.55526">
        <ele>722.88</ele>
        <time>2022-08-17T08:07:09Z</time>
      </trkpt>
      <trkpt lat="45.5233" lon="2.55518">
        <ele>723.93</ele>
        <time>2022-08-17T08:07:10Z</time>
      </trkpt>
      <trkpt lat="45.52321" lon="2.55512">
        <ele>724</ele>
        <time>2022-08-17T08:07:11Z</time>
      </trkpt>
      <trkpt lat="45.5231" lon="2.55507">
        <ele>725.86</ele>
        <time>2022-08-17T08:07:12Z</time>
      </trkpt>
      <trkpt lat="45.523" lon="2.55502">
        <ele>727.01</ele>
        <time>2022-08-17T08:07:13Z</time>
      </trkpt>
      <trkpt lat="45.52288" lon="2.55496">
        <ele>727.04</ele>
        <time>2022-08-17T08:07:14Z</time>
      </trkpt>
      <trkpt lat="45.52252" lon="2.55478">
        <ele>730.86</ele>
        <time>2022-08-17T08:07:17Z</time>
      </trkpt>
      <trkpt lat="45.52241" lon="2.55472">
        <ele>730.78</ele>
        <time>2022-08-17T08:07:18Z</time>
      </trkpt>
      <trkpt lat="45.52232" lon="2.55463">
        <ele>731.86</ele>
        <time>2022-08-17T08:07:19Z</time>
      </trkpt>
      <trkpt lat="45.52224" lon="2.55453">
        <ele>731.94</ele>
        <time>2022-08-17T08:07:20Z</time>
      </trkpt>
      <trkpt lat="45.52195" lon="2.5541">
        <ele>736.86</ele>
        <time>2022-08-17T08:07:23Z</time>
      </trkpt>
      <trkpt lat="45.52187" lon="2.55397">
        <ele>736.84</ele>
        <time>2022-08-17T08:07:24Z</time>
      </trkpt>
      <trkpt lat="45.5218" lon="2.55384">
        <ele>737.38</ele>
        <time>2022-08-17T08:07:25Z</time>
      </trkpt>
      <trkpt lat="45.5216" lon="2.55344">
        <ele>740.14</ele>
        <time>2022-08-17T08:07:28Z</time>
      </trkpt>
      <trkpt lat="45.52143" lon="2.55321">
        <ele>741.62</ele>
        <time>2022-08-17T08:07:30Z</time>
      </trkpt>
      <trkpt lat="45.52133" lon="2.55313">
        <ele>743.93</ele>
        <time>2022-08-17T08:07:31Z</time>
      </trkpt>
      <trkpt lat="45.52121" lon="2.55306">
        <ele>745.26</ele>
        <time>2022-08-17T08:07:32Z</time>
      </trkpt>
      <trkpt lat="45.52109" lon="2.55301">
        <ele>745.26</ele>
        <time>2022-08-17T08:07:33Z</time>
      </trkpt>
      <trkpt lat="45.52095" lon="2.55295">
        <ele>747.2</ele>
        <time>2022-08-17T08:07:34Z</time>
      </trkpt>
      <trkpt lat="45.52066" lon="2.55288">
        <ele>748.96</ele>
        <time>2022-08-17T08:07:36Z</time>
      </trkpt>
      <trkpt lat="45.5205" lon="2.55287">
        <ele>750.72</ele>
        <time>2022-08-17T08:07:37Z</time>
      </trkpt>
      <trkpt lat="45.52022" lon="2.55285">
        <ele>751.75</ele>
        <time>2022-08-17T08:07:39Z</time>
      </trkpt>
      <trkpt lat="45.51997" lon="2.55287">
        <ele>753.31</ele>
        <time>2022-08-17T08:07:41Z</time>
      </trkpt>
      <trkpt lat="45.51961" lon="2.55292">
        <ele>756.02</ele>
        <time>2022-08-17T08:07:44Z</time>
      </trkpt>
      <trkpt lat="45.51932" lon="2.55303">
        <ele>758.58</ele>
        <time>2022-08-17T08:07:47Z</time>
      </trkpt>
      <trkpt lat="45.51923" lon="2.55311">
        <ele>760.02</ele>
        <time>2022-08-17T08:07:48Z</time>
      </trkpt>
      <trkpt lat="45.51914" lon="2.55323">
        <ele>760.65</ele>
        <time>2022-08-17T08:07:49Z</time>
      </trkpt>
      <trkpt lat="45.51895" lon="2.55346">
        <ele>761.63</ele>
        <time>2022-08-17T08:07:51Z</time>
      </trkpt>
      <trkpt lat="45.51879" lon="2.55368">
        <ele>763.5</ele>
        <time>2022-08-17T08:07:53Z</time>
      </trkpt>
      <trkpt lat="45.51871" lon="2.55379">
        <ele>765.08</ele>
        <time>2022-08-17T08:07:54Z</time>
      </trkpt>
      <trkpt lat="45.51864" lon="2.55392">
        <ele>766.33</ele>
        <time>2022-08-17T08:07:55Z</time>
      </trkpt>
      <trkpt lat="45.5186" lon="2.55405">
        <ele>766.4</ele>
        <time>2022-08-17T08:07:56Z</time>
      </trkpt>
      <trkpt lat="45.51857" lon="2.55419">
        <ele>766.4</ele>
        <time>2022-08-17T08:07:57Z</time>
      </trkpt>
      <trkpt lat="45.51855" lon="2.55433">
        <ele>767.8</ele>
        <time>2022-08-17T08:07:58Z</time>
      </trkpt>
      <trkpt lat="45.51849" lon="2.55462">
        <ele>770.1</ele>
        <time>2022-08-17T08:08:00Z</time>
      </trkpt>
      <trkpt lat="45.51844" lon="2.55474">
        <ele>769.97</ele>
        <time>2022-08-17T08:08:01Z</time>
      </trkpt>
      <trkpt lat="45.51837" lon="2.55486">
        <ele>770.78</ele>
        <time>2022-08-17T08:08:02Z</time>
      </trkpt>
      <trkpt lat="45.5183" lon="2.55497">
        <ele>770.7</ele>
        <time>2022-08-17T08:08:03Z</time>
      </trkpt>
      <trkpt lat="45.51822" lon="2.55508">
        <ele>770.78</ele>
        <time>2022-08-17T08:08:04Z</time>
      </trkpt>
      <trkpt lat="45.51815" lon="2.5552">
        <ele>771.58</ele>
        <time>2022-08-17T08:08:05Z</time>
      </trkpt>
      <trkpt lat="45.51811" lon="2.55534">
        <ele>771.65</ele>
        <time>2022-08-17T08:08:06Z</time>
      </trkpt>
      <trkpt lat="45.51807" lon="2.55548">
        <ele>771.68</ele>
        <time>2022-08-17T08:08:07Z</time>
      </trkpt>
      <trkpt lat="45.51804" lon="2.5556">
        <ele>771.57</ele>
        <time>2022-08-17T08:08:08Z</time>
      </trkpt>
      <trkpt lat="45.51799" lon="2.5557">
        <ele>771.62</ele>
        <time>2022-08-17T08:08:09Z</time>
      </trkpt>
      <trkpt lat="45.51794" lon="2.55578">
        <ele>771.6</ele>
        <time>2022-08-17T08:08:10Z</time>
      </trkpt>
      <trkpt lat="45.51787" lon="2.55583">
        <ele>771.58</ele>
        <time>2022-08-17T08:08:11Z</time>
      </trkpt>
      <trkpt lat="45.5178" lon="2.55585">
        <ele>771.51</ele>
        <time>2022-08-17T08:08:12Z</time>
      </trkpt>
      <trkpt lat="45.51772" lon="2.55584">
        <ele>771.23</ele>
        <time>2022-08-17T08:08:13Z</time>
      </trkpt>
      <trkpt lat="45.51764" lon="2.5558">
        <ele>771.23</ele>
        <time>2022-08-17T08:08:14Z</time>
      </trkpt>
      <trkpt lat="45.51758" lon="2.55573">
        <ele>772.2</ele>
        <time>2022-08-17T08:08:15Z</time>
      </trkpt>
      <trkpt lat="45.51751" lon="2.55564">
        <ele>772.21</ele>
        <time>2022-08-17T08:08:16Z</time>
      </trkpt>
      <trkpt lat="45.51745" lon="2.55555">
        <ele>773.52</ele>
        <time>2022-08-17T08:08:17Z</time>
      </trkpt>
      <trkpt lat="45.51738" lon="2.55547">
        <ele>774.46</ele>
        <time>2022-08-17T08:08:18Z</time>
      </trkpt>
      <trkpt lat="45.51731" lon="2.5554">
        <ele>774.5</ele>
        <time>2022-08-17T08:08:19Z</time>
      </trkpt>
      <trkpt lat="45.51722" lon="2.55534">
        <ele>775.38</ele>
        <time>2022-08-17T08:08:20Z</time>
      </trkpt>
      <trkpt lat="45.51713" lon="2.55528">
        <ele>775.39</ele>
        <time>2022-08-17T08:08:21Z</time>
      </trkpt>
      <trkpt lat="45.51667" lon="2.55501">
        <ele>777.69</ele>
        <time>2022-08-17T08:08:26Z</time>
      </trkpt>
      <trkpt lat="45.51649" lon="2.55493">
        <ele>778.53</ele>
        <time>2022-08-17T08:08:28Z</time>
      </trkpt>
      <trkpt lat="45.51641" lon="2.55491">
        <ele>779.46</ele>
        <time>2022-08-17T08:08:29Z</time>
      </trkpt>
      <trkpt lat="45.51633" lon="2.5549">
        <ele>779.45</ele>
        <time>2022-08-17T08:08:30Z</time>
      </trkpt>
      <trkpt lat="45.51567" lon="2.55474">
        <ele>777.01</ele>
        <time>2022-08-17T08:08:41Z</time>
      </trkpt>
      <trkpt lat="45.51561" lon="2.5547">
        <ele>777.02</ele>
        <time>2022-08-17T08:08:42Z</time>
      </trkpt>
      <trkpt lat="45.5154" lon="2.55447">
        <ele>777.01</ele>
        <time>2022-08-17T08:08:46Z</time>
      </trkpt>
      <trkpt lat="45.51525" lon="2.55426">
        <ele>775.87</ele>
        <time>2022-08-17T08:08:49Z</time>
      </trkpt>
      <trkpt lat="45.51519" lon="2.5542">
        <ele>775.91</ele>
        <time>2022-08-17T08:08:50Z</time>
      </trkpt>
      <trkpt lat="45.51513" lon="2.55416">
        <ele>775.91</ele>
        <time>2022-08-17T08:08:51Z</time>
      </trkpt>
      <trkpt lat="45.51506" lon="2.55413">
        <ele>775.91</ele>
        <time>2022-08-17T08:08:52Z</time>
      </trkpt>
      <trkpt lat="45.51499" lon="2.5541">
        <ele>775.92</ele>
        <time>2022-08-17T08:08:53Z</time>
      </trkpt>
      <trkpt lat="45.51433" lon="2.55383">
        <ele>773.56</ele>
        <time>2022-08-17T08:09:02Z</time>
      </trkpt>
      <trkpt lat="45.51425" lon="2.55383">
        <ele>773.4</ele>
        <time>2022-08-17T08:09:03Z</time>
      </trkpt>
      <trkpt lat="45.51417" lon="2.55383">
        <ele>772.35</ele>
        <time>2022-08-17T08:09:04Z</time>
      </trkpt>
      <trkpt lat="45.51408" lon="2.55385">
        <ele>772.36</ele>
        <time>2022-08-17T08:09:05Z</time>
      </trkpt>
      <trkpt lat="45.514" lon="2.55388">
        <ele>772.34</ele>
        <time>2022-08-17T08:09:06Z</time>
      </trkpt>
      <trkpt lat="45.51391" lon="2.55394">
        <ele>772.36</ele>
        <time>2022-08-17T08:09:07Z</time>
      </trkpt>
      <trkpt lat="45.51383" lon="2.554">
        <ele>772.37</ele>
        <time>2022-08-17T08:09:08Z</time>
      </trkpt>
      <trkpt lat="45.51366" lon="2.55415">
        <ele>771.41</ele>
        <time>2022-08-17T08:09:10Z</time>
      </trkpt>
      <trkpt lat="45.5136" lon="2.55425">
        <ele>769.98</ele>
        <time>2022-08-17T08:09:11Z</time>
      </trkpt>
      <trkpt lat="45.51356" lon="2.55437">
        <ele>769</ele>
        <time>2022-08-17T08:09:12Z</time>
      </trkpt>
      <trkpt lat="45.51352" lon="2.5545">
        <ele>768.16</ele>
        <time>2022-08-17T08:09:13Z</time>
      </trkpt>
      <trkpt lat="45.51349" lon="2.55463">
        <ele>766.96</ele>
        <time>2022-08-17T08:09:14Z</time>
      </trkpt>
      <trkpt lat="45.51348" lon="2.55477">
        <ele>766.94</ele>
        <time>2022-08-17T08:09:15Z</time>
      </trkpt>
      <trkpt lat="45.51345" lon="2.5549">
        <ele>765.3</ele>
        <time>2022-08-17T08:09:16Z</time>
      </trkpt>
      <trkpt lat="45.51342" lon="2.55502">
        <ele>764.17</ele>
        <time>2022-08-17T08:09:17Z</time>
      </trkpt>
      <trkpt lat="45.51337" lon="2.55514">
        <ele>764.11</ele>
        <time>2022-08-17T08:09:18Z</time>
      </trkpt>
      <trkpt lat="45.51331" lon="2.55525">
        <ele>764.07</ele>
        <time>2022-08-17T08:09:19Z</time>
      </trkpt>
      <trkpt lat="45.51323" lon="2.55536">
        <ele>763.33</ele>
        <time>2022-08-17T08:09:20Z</time>
      </trkpt>
      <trkpt lat="45.51315" lon="2.55547">
        <ele>763.29</ele>
        <time>2022-08-17T08:09:21Z</time>
      </trkpt>
      <trkpt lat="45.51241" lon="2.55618">
        <ele>765.93</ele>
        <time>2022-08-17T08:09:29Z</time>
      </trkpt>
      <trkpt lat="45.5122" lon="2.55634">
        <ele>767.26</ele>
        <time>2022-08-17T08:09:31Z</time>
      </trkpt>
      <trkpt lat="45.51197" lon="2.55652">
        <ele>768.48</ele>
        <time>2022-08-17T08:09:33Z</time>
      </trkpt>
      <trkpt lat="45.5116" lon="2.55685">
        <ele>770.74</ele>
        <time>2022-08-17T08:09:36Z</time>
      </trkpt>
      <trkpt lat="45.51119" lon="2.55719">
        <ele>773.02</ele>
        <time>2022-08-17T08:09:39Z</time>
      </trkpt>
      <trkpt lat="45.51091" lon="2.55743">
        <ele>774.86</ele>
        <time>2022-08-17T08:09:41Z</time>
      </trkpt>
      <trkpt lat="45.51053" lon="2.55782">
        <ele>778.32</ele>
        <time>2022-08-17T08:09:44Z</time>
      </trkpt>
      <trkpt lat="45.5104" lon="2.55795">
        <ele>778.41</ele>
        <time>2022-08-17T08:09:45Z</time>
      </trkpt>
      <trkpt lat="45.50987" lon="2.55851">
        <ele>778.58</ele>
        <time>2022-08-17T08:09:51Z</time>
      </trkpt>
      <trkpt lat="45.50964" lon="2.5587">
        <ele>778.54</ele>
        <time>2022-08-17T08:09:55Z</time>
      </trkpt>
      <trkpt lat="45.50953" lon="2.55874">
        <ele>778.48</ele>
        <time>2022-08-17T08:09:56Z</time>
      </trkpt>
      <trkpt lat="45.50941" lon="2.55877">
        <ele>778.47</ele>
        <time>2022-08-17T08:09:57Z</time>
      </trkpt>
      <trkpt lat="45.50863" lon="2.55891">
        <ele>775.99</ele>
        <time>2022-08-17T08:10:02Z</time>
      </trkpt>
      <trkpt lat="45.50831" lon="2.55896">
        <ele>774.34</ele>
        <time>2022-08-17T08:10:04Z</time>
      </trkpt>
      <trkpt lat="45.50787" lon="2.55903">
        <ele>772.13</ele>
        <time>2022-08-17T08:10:07Z</time>
      </trkpt>
      <trkpt lat="45.50735" lon="2.55913">
        <ele>769.71</ele>
        <time>2022-08-17T08:10:11Z</time>
      </trkpt>
      <trkpt lat="45.50724" lon="2.55918">
        <ele>768.58</ele>
        <time>2022-08-17T08:10:12Z</time>
      </trkpt>
      <trkpt lat="45.50712" lon="2.55926">
        <ele>768.57</ele>
        <time>2022-08-17T08:10:13Z</time>
      </trkpt>
      <trkpt lat="45.50701" lon="2.55937">
        <ele>767.7</ele>
        <time>2022-08-17T08:10:14Z</time>
      </trkpt>
      <trkpt lat="45.5069" lon="2.55951">
        <ele>767.63</ele>
        <time>2022-08-17T08:10:15Z</time>
      </trkpt>
      <trkpt lat="45.50678" lon="2.55968">
        <ele>767.65</ele>
        <time>2022-08-17T08:10:16Z</time>
      </trkpt>
      <trkpt lat="45.50643" lon="2.56017">
        <ele>763.99</ele>
        <time>2022-08-17T08:10:19Z</time>
      </trkpt>
      <trkpt lat="45.50631" lon="2.56033">
        <ele>763.97</ele>
        <time>2022-08-17T08:10:20Z</time>
      </trkpt>
      <trkpt lat="45.50599" lon="2.5608">
        <ele>759.84</ele>
        <time>2022-08-17T08:10:23Z</time>
      </trkpt>
      <trkpt lat="45.50567" lon="2.56122">
        <ele>756.6</ele>
        <time>2022-08-17T08:10:26Z</time>
      </trkpt>
      <trkpt lat="45.50554" lon="2.56133">
        <ele>755.72</ele>
        <time>2022-08-17T08:10:27Z</time>
      </trkpt>
      <trkpt lat="45.5054" lon="2.56143">
        <ele>755.74</ele>
        <time>2022-08-17T08:10:28Z</time>
      </trkpt>
      <trkpt lat="45.50482" lon="2.56175">
        <ele>753.71</ele>
        <time>2022-08-17T08:10:32Z</time>
      </trkpt>
      <trkpt lat="45.50456" lon="2.56187">
        <ele>751.33</ele>
        <time>2022-08-17T08:10:34Z</time>
      </trkpt>
      <trkpt lat="45.50444" lon="2.5619">
        <ele>751.31</ele>
        <time>2022-08-17T08:10:35Z</time>
      </trkpt>
      <trkpt lat="45.50431" lon="2.5619">
        <ele>751.33</ele>
        <time>2022-08-17T08:10:36Z</time>
      </trkpt>
      <trkpt lat="45.50418" lon="2.56189">
        <ele>751.32</ele>
        <time>2022-08-17T08:10:37Z</time>
      </trkpt>
      <trkpt lat="45.50405" lon="2.56186">
        <ele>751.32</ele>
        <time>2022-08-17T08:10:38Z</time>
      </trkpt>
      <trkpt lat="45.50264" lon="2.56184">
        <ele>750.67</ele>
        <time>2022-08-17T08:10:48Z</time>
      </trkpt>
      <trkpt lat="45.50223" lon="2.56184">
        <ele>747.32</ele>
        <time>2022-08-17T08:10:51Z</time>
      </trkpt>
      <trkpt lat="45.50185" lon="2.56184">
        <ele>744.2</ele>
        <time>2022-08-17T08:10:54Z</time>
      </trkpt>
      <trkpt lat="45.50161" lon="2.5618">
        <ele>742.12</ele>
        <time>2022-08-17T08:10:56Z</time>
      </trkpt>
      <trkpt lat="45.5015" lon="2.56176">
        <ele>741.05</ele>
        <time>2022-08-17T08:10:57Z</time>
      </trkpt>
      <trkpt lat="45.50139" lon="2.56169">
        <ele>741.16</ele>
        <time>2022-08-17T08:10:58Z</time>
      </trkpt>
      <trkpt lat="45.50093" lon="2.56137">
        <ele>739.13</ele>
        <time>2022-08-17T08:11:02Z</time>
      </trkpt>
      <trkpt lat="45.5008" lon="2.56133">
        <ele>737.89</ele>
        <time>2022-08-17T08:11:03Z</time>
      </trkpt>
      <trkpt lat="45.50068" lon="2.56132">
        <ele>736.48</ele>
        <time>2022-08-17T08:11:04Z</time>
      </trkpt>
      <trkpt lat="45.50056" lon="2.56133">
        <ele>735.11</ele>
        <time>2022-08-17T08:11:05Z</time>
      </trkpt>
      <trkpt lat="45.50044" lon="2.56137">
        <ele>735.06</ele>
        <time>2022-08-17T08:11:06Z</time>
      </trkpt>
      <trkpt lat="45.50033" lon="2.56144">
        <ele>734.03</ele>
        <time>2022-08-17T08:11:07Z</time>
      </trkpt>
      <trkpt lat="45.50023" lon="2.56153">
        <ele>733.93</ele>
        <time>2022-08-17T08:11:08Z</time>
      </trkpt>
      <trkpt lat="45.50013" lon="2.56166">
        <ele>733.01</ele>
        <time>2022-08-17T08:11:09Z</time>
      </trkpt>
      <trkpt lat="45.50003" lon="2.56182">
        <ele>732.03</ele>
        <time>2022-08-17T08:11:10Z</time>
      </trkpt>
      <trkpt lat="45.49995" lon="2.562">
        <ele>732.05</ele>
        <time>2022-08-17T08:11:11Z</time>
      </trkpt>
      <trkpt lat="45.49987" lon="2.56219">
        <ele>731</ele>
        <time>2022-08-17T08:11:12Z</time>
      </trkpt>
      <trkpt lat="45.4998" lon="2.56238">
        <ele>729.55</ele>
        <time>2022-08-17T08:11:13Z</time>
      </trkpt>
      <trkpt lat="45.49958" lon="2.56289">
        <ele>726.57</ele>
        <time>2022-08-17T08:11:16Z</time>
      </trkpt>
      <trkpt lat="45.49949" lon="2.56303">
        <ele>725.65</ele>
        <time>2022-08-17T08:11:17Z</time>
      </trkpt>
      <trkpt lat="45.4993" lon="2.56329">
        <ele>724.29</ele>
        <time>2022-08-17T08:11:19Z</time>
      </trkpt>
      <trkpt lat="45.49921" lon="2.56344">
        <ele>722.26</ele>
        <time>2022-08-17T08:11:20Z</time>
      </trkpt>
      <trkpt lat="45.49913" lon="2.56361">
        <ele>722.21</ele>
        <time>2022-08-17T08:11:21Z</time>
      </trkpt>
      <trkpt lat="45.49908" lon="2.5638">
        <ele>722.12</ele>
        <time>2022-08-17T08:11:22Z</time>
      </trkpt>
      <trkpt lat="45.49895" lon="2.56419">
        <ele>722.22</ele>
        <time>2022-08-17T08:11:24Z</time>
      </trkpt>
      <trkpt lat="45.49887" lon="2.56437">
        <ele>722.17</ele>
        <time>2022-08-17T08:11:25Z</time>
      </trkpt>
      <trkpt lat="45.49836" lon="2.56537">
        <ele>719.2</ele>
        <time>2022-08-17T08:11:32Z</time>
      </trkpt>
      <trkpt lat="45.49835" lon="2.56552">
        <ele>719.2</ele>
        <time>2022-08-17T08:11:33Z</time>
      </trkpt>
      <trkpt lat="45.49836" lon="2.56569">
        <ele>719.26</ele>
        <time>2022-08-17T08:11:34Z</time>
      </trkpt>
      <trkpt lat="45.4984" lon="2.56586">
        <ele>719.3</ele>
        <time>2022-08-17T08:11:35Z</time>
      </trkpt>
      <trkpt lat="45.49846" lon="2.56602">
        <ele>719.37</ele>
        <time>2022-08-17T08:11:36Z</time>
      </trkpt>
      <trkpt lat="45.49855" lon="2.56617">
        <ele>719.41</ele>
        <time>2022-08-17T08:11:37Z</time>
      </trkpt>
      <trkpt lat="45.49863" lon="2.56631">
        <ele>719.47</ele>
        <time>2022-08-17T08:11:38Z</time>
      </trkpt>
      <trkpt lat="45.49891" lon="2.56688">
        <ele>719.62</ele>
        <time>2022-08-17T08:11:42Z</time>
      </trkpt>
      <trkpt lat="45.49895" lon="2.56705">
        <ele>719.62</ele>
        <time>2022-08-17T08:11:43Z</time>
      </trkpt>
      <trkpt lat="45.49898" lon="2.56722">
        <ele>719.63</ele>
        <time>2022-08-17T08:11:44Z</time>
      </trkpt>
      <trkpt lat="45.499" lon="2.56741">
        <ele>719.63</ele>
        <time>2022-08-17T08:11:45Z</time>
      </trkpt>
      <trkpt lat="45.49902" lon="2.56761">
        <ele>722.08</ele>
        <time>2022-08-17T08:11:46Z</time>
      </trkpt>
      <trkpt lat="45.49905" lon="2.56801">
        <ele>722.94</ele>
        <time>2022-08-17T08:11:48Z</time>
      </trkpt>
      <trkpt lat="45.49899" lon="2.5691">
        <ele>722.95</ele>
        <time>2022-08-17T08:11:55Z</time>
      </trkpt>
      <trkpt lat="45.49894" lon="2.56922">
        <ele>722.95</ele>
        <time>2022-08-17T08:11:56Z</time>
      </trkpt>
      <trkpt lat="45.49884" lon="2.5693">
        <ele>722.99</ele>
        <time>2022-08-17T08:11:57Z</time>
      </trkpt>
      <trkpt lat="45.49874" lon="2.56936">
        <ele>723.06</ele>
        <time>2022-08-17T08:11:58Z</time>
      </trkpt>
      <trkpt lat="45.49863" lon="2.56938">
        <ele>723.06</ele>
        <time>2022-08-17T08:11:59Z</time>
      </trkpt>
      <trkpt lat="45.49852" lon="2.56936">
        <ele>723.08</ele>
        <time>2022-08-17T08:12:00Z</time>
      </trkpt>
      <trkpt lat="45.49843" lon="2.5693">
        <ele>723.01</ele>
        <time>2022-08-17T08:12:01Z</time>
      </trkpt>
      <trkpt lat="45.49836" lon="2.56922">
        <ele>723.08</ele>
        <time>2022-08-17T08:12:02Z</time>
      </trkpt>
      <trkpt lat="45.49829" lon="2.5691">
        <ele>723.1</ele>
        <time>2022-08-17T08:12:03Z</time>
      </trkpt>
      <trkpt lat="45.49824" lon="2.56897">
        <ele>723.79</ele>
        <time>2022-08-17T08:12:04Z</time>
      </trkpt>
      <trkpt lat="45.49819" lon="2.56883">
        <ele>724.74</ele>
        <time>2022-08-17T08:12:05Z</time>
      </trkpt>
      <trkpt lat="45.49816" lon="2.56869">
        <ele>724.74</ele>
        <time>2022-08-17T08:12:06Z</time>
      </trkpt>
      <trkpt lat="45.4982" lon="2.56855">
        <ele>726.21</ele>
        <time>2022-08-17T08:12:07Z</time>
      </trkpt>
      <trkpt lat="45.49824" lon="2.56842">
        <ele>726.21</ele>
        <time>2022-08-17T08:12:08Z</time>
      </trkpt>
      <trkpt lat="45.49829" lon="2.56829">
        <ele>727.18</ele>
        <time>2022-08-17T08:12:09Z</time>
      </trkpt>
      <trkpt lat="45.49833" lon="2.56817">
        <ele>727.18</ele>
        <time>2022-08-17T08:12:10Z</time>
      </trkpt>
      <trkpt lat="45.49837" lon="2.568">
        <ele>728.23</ele>
        <time>2022-08-17T08:12:11Z</time>
      </trkpt>
      <trkpt lat="45.4984" lon="2.56784">
        <ele>729.11</ele>
        <time>2022-08-17T08:12:12Z</time>
      </trkpt>
      <trkpt lat="45.49841" lon="2.56768">
        <ele>729.12</ele>
        <time>2022-08-17T08:12:13Z</time>
      </trkpt>
      <trkpt lat="45.49839" lon="2.56753">
        <ele>730.38</ele>
        <time>2022-08-17T08:12:14Z</time>
      </trkpt>
      <trkpt lat="45.49834" lon="2.5674">
        <ele>730.39</ele>
        <time>2022-08-17T08:12:15Z</time>
      </trkpt>
      <trkpt lat="45.49827" lon="2.56727">
        <ele>731.72</ele>
        <time>2022-08-17T08:12:16Z</time>
      </trkpt>
      <trkpt lat="45.49819" lon="2.56713">
        <ele>732.56</ele>
        <time>2022-08-17T08:12:17Z</time>
      </trkpt>
      <trkpt lat="45.49789" lon="2.56667">
        <ele>736.12</ele>
        <time>2022-08-17T08:12:20Z</time>
      </trkpt>
      <trkpt lat="45.49757" lon="2.56611">
        <ele>739.75</ele>
        <time>2022-08-17T08:12:23Z</time>
      </trkpt>
      <trkpt lat="45.49748" lon="2.56589">
        <ele>741.11</ele>
        <time>2022-08-17T08:12:24Z</time>
      </trkpt>
      <trkpt lat="45.49742" lon="2.56567">
        <ele>742.54</ele>
        <time>2022-08-17T08:12:25Z</time>
      </trkpt>
      <trkpt lat="45.49737" lon="2.56547">
        <ele>742.36</ele>
        <time>2022-08-17T08:12:26Z</time>
      </trkpt>
      <trkpt lat="45.49734" lon="2.56527">
        <ele>744.02</ele>
        <time>2022-08-17T08:12:27Z</time>
      </trkpt>
      <trkpt lat="45.49732" lon="2.56509">
        <ele>743.94</ele>
        <time>2022-08-17T08:12:28Z</time>
      </trkpt>
      <trkpt lat="45.49732" lon="2.56492">
        <ele>744.39</ele>
        <time>2022-08-17T08:12:29Z</time>
      </trkpt>
      <trkpt lat="45.49732" lon="2.56463">
        <ele>744.59</ele>
        <time>2022-08-17T08:12:31Z</time>
      </trkpt>
      <trkpt lat="45.4973" lon="2.56451">
        <ele>745.8</ele>
        <time>2022-08-17T08:12:32Z</time>
      </trkpt>
      <trkpt lat="45.49726" lon="2.56439">
        <ele>746.68</ele>
        <time>2022-08-17T08:12:33Z</time>
      </trkpt>
      <trkpt lat="45.49719" lon="2.56429">
        <ele>746.77</ele>
        <time>2022-08-17T08:12:34Z</time>
      </trkpt>
      <trkpt lat="45.4971" lon="2.56422">
        <ele>748.09</ele>
        <time>2022-08-17T08:12:35Z</time>
      </trkpt>
      <trkpt lat="45.49698" lon="2.56418">
        <ele>749.2</ele>
        <time>2022-08-17T08:12:36Z</time>
      </trkpt>
      <trkpt lat="45.49685" lon="2.56415">
        <ele>750.52</ele>
        <time>2022-08-17T08:12:37Z</time>
      </trkpt>
      <trkpt lat="45.49656" lon="2.56412">
        <ele>753.02</ele>
        <time>2022-08-17T08:12:39Z</time>
      </trkpt>
      <trkpt lat="45.4964" lon="2.56414">
        <ele>754.08</ele>
        <time>2022-08-17T08:12:40Z</time>
      </trkpt>
      <trkpt lat="45.49625" lon="2.56418">
        <ele>755.17</ele>
        <time>2022-08-17T08:12:41Z</time>
      </trkpt>
      <trkpt lat="45.49611" lon="2.56422">
        <ele>755.15</ele>
        <time>2022-08-17T08:12:42Z</time>
      </trkpt>
      <trkpt lat="45.49598" lon="2.56427">
        <ele>756.11</ele>
        <time>2022-08-17T08:12:43Z</time>
      </trkpt>
      <trkpt lat="45.49575" lon="2.56433">
        <ele>756.24</ele>
        <time>2022-08-17T08:12:45Z</time>
      </trkpt>
      <trkpt lat="45.49563" lon="2.56431">
        <ele>757.46</ele>
        <time>2022-08-17T08:12:46Z</time>
      </trkpt>
      <trkpt lat="45.49551" lon="2.56425">
        <ele>758.62</ele>
        <time>2022-08-17T08:12:47Z</time>
      </trkpt>
      <trkpt lat="45.49539" lon="2.56413">
        <ele>759.98</ele>
        <time>2022-08-17T08:12:48Z</time>
      </trkpt>
      <trkpt lat="45.49529" lon="2.56399">
        <ele>761.73</ele>
        <time>2022-08-17T08:12:49Z</time>
      </trkpt>
      <trkpt lat="45.49521" lon="2.56384">
        <ele>761.64</ele>
        <time>2022-08-17T08:12:50Z</time>
      </trkpt>
      <trkpt lat="45.49514" lon="2.5637">
        <ele>762.5</ele>
        <time>2022-08-17T08:12:51Z</time>
      </trkpt>
      <trkpt lat="45.49507" lon="2.56357">
        <ele>763.35</ele>
        <time>2022-08-17T08:12:52Z</time>
      </trkpt>
      <trkpt lat="45.49499" lon="2.56347">
        <ele>763.35</ele>
        <time>2022-08-17T08:12:53Z</time>
      </trkpt>
      <trkpt lat="45.49488" lon="2.5634">
        <ele>765.21</ele>
        <time>2022-08-17T08:12:54Z</time>
      </trkpt>
      <trkpt lat="45.49474" lon="2.56337">
        <ele>765.29</ele>
        <time>2022-08-17T08:12:55Z</time>
      </trkpt>
      <trkpt lat="45.49459" lon="2.56336">
        <ele>767.03</ele>
        <time>2022-08-17T08:12:56Z</time>
      </trkpt>
      <trkpt lat="45.49444" lon="2.56335">
        <ele>767.01</ele>
        <time>2022-08-17T08:12:57Z</time>
      </trkpt>
      <trkpt lat="45.49381" lon="2.5633">
        <ele>763.97</ele>
        <time>2022-08-17T08:13:02Z</time>
      </trkpt>
      <trkpt lat="45.4937" lon="2.5633">
        <ele>764.02</ele>
        <time>2022-08-17T08:13:03Z</time>
      </trkpt>
      <trkpt lat="45.49339" lon="2.56328">
        <ele>761.57</ele>
        <time>2022-08-17T08:13:06Z</time>
      </trkpt>
      <trkpt lat="45.49319" lon="2.56327">
        <ele>760.14</ele>
        <time>2022-08-17T08:13:08Z</time>
      </trkpt>
      <trkpt lat="45.493" lon="2.56326">
        <ele>758.34</ele>
        <time>2022-08-17T08:13:10Z</time>
      </trkpt>
      <trkpt lat="45.49282" lon="2.56326">
        <ele>756.74</ele>
        <time>2022-08-17T08:13:12Z</time>
      </trkpt>
      <trkpt lat="45.49247" lon="2.56332">
        <ele>753.34</ele>
        <time>2022-08-17T08:13:16Z</time>
      </trkpt>
      <trkpt lat="45.49238" lon="2.56333">
        <ele>753.31</ele>
        <time>2022-08-17T08:13:17Z</time>
      </trkpt>
      <trkpt lat="45.49213" lon="2.56332">
        <ele>750.96</ele>
        <time>2022-08-17T08:13:20Z</time>
      </trkpt>
      <trkpt lat="45.4918" lon="2.56327">
        <ele>748.61</ele>
        <time>2022-08-17T08:13:24Z</time>
      </trkpt>
      <trkpt lat="45.49156" lon="2.56322">
        <ele>746.9</ele>
        <time>2022-08-17T08:13:27Z</time>
      </trkpt>
      <trkpt lat="45.49134" lon="2.56314">
        <ele>745.15</ele>
        <time>2022-08-17T08:13:30Z</time>
      </trkpt>
      <trkpt lat="45.49127" lon="2.56309">
        <ele>744.32</ele>
        <time>2022-08-17T08:13:31Z</time>
      </trkpt>
      <trkpt lat="45.49121" lon="2.56304">
        <ele>744.33</ele>
        <time>2022-08-17T08:13:32Z</time>
      </trkpt>
      <trkpt lat="45.49116" lon="2.56298">
        <ele>744.36</ele>
        <time>2022-08-17T08:13:33Z</time>
      </trkpt>
      <trkpt lat="45.49112" lon="2.5629">
        <ele>744.33</ele>
        <time>2022-08-17T08:13:34Z</time>
      </trkpt>
      <trkpt lat="45.49108" lon="2.56282">
        <ele>743.1</ele>
        <time>2022-08-17T08:13:35Z</time>
      </trkpt>
      <trkpt lat="45.49105" lon="2.56273">
        <ele>743.13</ele>
        <time>2022-08-17T08:13:36Z</time>
      </trkpt>
      <trkpt lat="45.49091" lon="2.56224">
        <ele>743.2</ele>
        <time>2022-08-17T08:13:41Z</time>
      </trkpt>
      <trkpt lat="45.49089" lon="2.56213">
        <ele>743.21</ele>
        <time>2022-08-17T08:13:42Z</time>
      </trkpt>
      <trkpt lat="45.49089" lon="2.56202">
        <ele>743.17</ele>
        <time>2022-08-17T08:13:43Z</time>
      </trkpt>
      <trkpt lat="45.4909" lon="2.56191">
        <ele>743.26</ele>
        <time>2022-08-17T08:13:44Z</time>
      </trkpt>
      <trkpt lat="45.4909" lon="2.5618">
        <ele>743.3</ele>
        <time>2022-08-17T08:13:45Z</time>
      </trkpt>
      <trkpt lat="45.49091" lon="2.56168">
        <ele>743.31</ele>
        <time>2022-08-17T08:13:46Z</time>
      </trkpt>
      <trkpt lat="45.4909" lon="2.56157">
        <ele>743.33</ele>
        <time>2022-08-17T08:13:47Z</time>
      </trkpt>
      <trkpt lat="45.49087" lon="2.56147">
        <ele>743.38</ele>
        <time>2022-08-17T08:13:48Z</time>
      </trkpt>
      <trkpt lat="45.49067" lon="2.56074">
        <ele>743.53</ele>
        <time>2022-08-17T08:13:54Z</time>
      </trkpt>
      <trkpt lat="45.49061" lon="2.56064">
        <ele>743.53</ele>
        <time>2022-08-17T08:13:55Z</time>
      </trkpt>
      <trkpt lat="45.49053" lon="2.56056">
        <ele>743.54</ele>
        <time>2022-08-17T08:13:56Z</time>
      </trkpt>
      <trkpt lat="45.49043" lon="2.56049">
        <ele>743.55</ele>
        <time>2022-08-17T08:13:57Z</time>
      </trkpt>
      <trkpt lat="45.49033" lon="2.56043">
        <ele>742.52</ele>
        <time>2022-08-17T08:13:58Z</time>
      </trkpt>
      <trkpt lat="45.49004" lon="2.56027">
        <ele>739.79</ele>
        <time>2022-08-17T08:14:01Z</time>
      </trkpt>
      <trkpt lat="45.48995" lon="2.56026">
        <ele>738.86</ele>
        <time>2022-08-17T08:14:02Z</time>
      </trkpt>
      <trkpt lat="45.48986" lon="2.56028">
        <ele>738.06</ele>
        <time>2022-08-17T08:14:03Z</time>
      </trkpt>
      <trkpt lat="45.48978" lon="2.56034">
        <ele>737.08</ele>
        <time>2022-08-17T08:14:04Z</time>
      </trkpt>
      <trkpt lat="45.48972" lon="2.56043">
        <ele>737.02</ele>
        <time>2022-08-17T08:14:05Z</time>
      </trkpt>
      <trkpt lat="45.48967" lon="2.56054">
        <ele>735.61</ele>
        <time>2022-08-17T08:14:06Z</time>
      </trkpt>
      <trkpt lat="45.48961" lon="2.56064">
        <ele>734.69</ele>
        <time>2022-08-17T08:14:07Z</time>
      </trkpt>
      <trkpt lat="45.48956" lon="2.56074">
        <ele>734.75</ele>
        <time>2022-08-17T08:14:08Z</time>
      </trkpt>
      <trkpt lat="45.4895" lon="2.56083">
        <ele>733.65</ele>
        <time>2022-08-17T08:14:09Z</time>
      </trkpt>
      <trkpt lat="45.48943" lon="2.56091">
        <ele>733.68</ele>
        <time>2022-08-17T08:14:10Z</time>
      </trkpt>
      <trkpt lat="45.48907" lon="2.5613">
        <ele>732.01</ele>
        <time>2022-08-17T08:14:15Z</time>
      </trkpt>
      <trkpt lat="45.48891" lon="2.56151">
        <ele>731.21</ele>
        <time>2022-08-17T08:14:17Z</time>
      </trkpt>
      <trkpt lat="45.48885" lon="2.56163">
        <ele>730.19</ele>
        <time>2022-08-17T08:14:18Z</time>
      </trkpt>
      <trkpt lat="45.4888" lon="2.56177">
        <ele>730.1</ele>
        <time>2022-08-17T08:14:19Z</time>
      </trkpt>
      <trkpt lat="45.48873" lon="2.56189">
        <ele>730.16</ele>
        <time>2022-08-17T08:14:20Z</time>
      </trkpt>
      <trkpt lat="45.48866" lon="2.56199">
        <ele>730.21</ele>
        <time>2022-08-17T08:14:21Z</time>
      </trkpt>
      <trkpt lat="45.48855" lon="2.56203">
        <ele>730.19</ele>
        <time>2022-08-17T08:14:22Z</time>
      </trkpt>
      <trkpt lat="45.48843" lon="2.56204">
        <ele>732.69</ele>
        <time>2022-08-17T08:14:23Z</time>
      </trkpt>
      <trkpt lat="45.48829" lon="2.56202">
        <ele>734.22</ele>
        <time>2022-08-17T08:14:24Z</time>
      </trkpt>
      <trkpt lat="45.48814" lon="2.56198">
        <ele>735.53</ele>
        <time>2022-08-17T08:14:25Z</time>
      </trkpt>
      <trkpt lat="45.48767" lon="2.56184">
        <ele>738.42</ele>
        <time>2022-08-17T08:14:28Z</time>
      </trkpt>
      <trkpt lat="45.48736" lon="2.56175">
        <ele>741.66</ele>
        <time>2022-08-17T08:14:30Z</time>
      </trkpt>
      <trkpt lat="45.48688" lon="2.56169">
        <ele>745.38</ele>
        <time>2022-08-17T08:14:33Z</time>
      </trkpt>
      <trkpt lat="45.48636" lon="2.56169">
        <ele>749.06</ele>
        <time>2022-08-17T08:14:36Z</time>
      </trkpt>
      <trkpt lat="45.48559" lon="2.56167">
        <ele>752.49</ele>
        <time>2022-08-17T08:14:42Z</time>
      </trkpt>
      <trkpt lat="45.48547" lon="2.56164">
        <ele>753.72</ele>
        <time>2022-08-17T08:14:43Z</time>
      </trkpt>
      <trkpt lat="45.48535" lon="2.56158">
        <ele>753.61</ele>
        <time>2022-08-17T08:14:44Z</time>
      </trkpt>
      <trkpt lat="45.48523" lon="2.56151">
        <ele>754.75</ele>
        <time>2022-08-17T08:14:45Z</time>
      </trkpt>
      <trkpt lat="45.48512" lon="2.56141">
        <ele>754.75</ele>
        <time>2022-08-17T08:14:46Z</time>
      </trkpt>
      <trkpt lat="45.48501" lon="2.56131">
        <ele>754.84</ele>
        <time>2022-08-17T08:14:47Z</time>
      </trkpt>
      <trkpt lat="45.4835" lon="2.55991">
        <ele>754.73</ele>
        <time>2022-08-17T08:14:59Z</time>
      </trkpt>
      <trkpt lat="45.48285" lon="2.55945">
        <ele>752.02</ele>
        <time>2022-08-17T08:15:04Z</time>
      </trkpt>
      <trkpt lat="45.48239" lon="2.55928">
        <ele>750.29</ele>
        <time>2022-08-17T08:15:07Z</time>
      </trkpt>
      <trkpt lat="45.48181" lon="2.55906">
        <ele>747.81</ele>
        <time>2022-08-17T08:15:11Z</time>
      </trkpt>
      <trkpt lat="45.48144" lon="2.55895">
        <ele>744.99</ele>
        <time>2022-08-17T08:15:14Z</time>
      </trkpt>
      <trkpt lat="45.48132" lon="2.55894">
        <ele>744.22</ele>
        <time>2022-08-17T08:15:15Z</time>
      </trkpt>
      <trkpt lat="45.4812" lon="2.55895">
        <ele>743.28</ele>
        <time>2022-08-17T08:15:16Z</time>
      </trkpt>
      <trkpt lat="45.48109" lon="2.55898">
        <ele>743.26</ele>
        <time>2022-08-17T08:15:17Z</time>
      </trkpt>
      <trkpt lat="45.48016" lon="2.55919">
        <ele>742.43</ele>
        <time>2022-08-17T08:15:24Z</time>
      </trkpt>
      <trkpt lat="45.48003" lon="2.55927">
        <ele>745.24</ele>
        <time>2022-08-17T08:15:25Z</time>
      </trkpt>
      <trkpt lat="45.47991" lon="2.55936">
        <ele>745.28</ele>
        <time>2022-08-17T08:15:26Z</time>
      </trkpt>
      <trkpt lat="45.4798" lon="2.55946">
        <ele>745.28</ele>
        <time>2022-08-17T08:15:27Z</time>
      </trkpt>
      <trkpt lat="45.47971" lon="2.55958">
        <ele>745.37</ele>
        <time>2022-08-17T08:15:28Z</time>
      </trkpt>
      <trkpt lat="45.47964" lon="2.55972">
        <ele>745.53</ele>
        <time>2022-08-17T08:15:29Z</time>
      </trkpt>
      <trkpt lat="45.47958" lon="2.55986">
        <ele>742.94</ele>
        <time>2022-08-17T08:15:30Z</time>
      </trkpt>
      <trkpt lat="45.47952" lon="2.55999">
        <ele>742.95</ele>
        <time>2022-08-17T08:15:31Z</time>
      </trkpt>
      <trkpt lat="45.47945" lon="2.56012">
        <ele>742.95</ele>
        <time>2022-08-17T08:15:32Z</time>
      </trkpt>
      <trkpt lat="45.47937" lon="2.56024">
        <ele>742.94</ele>
        <time>2022-08-17T08:15:33Z</time>
      </trkpt>
      <trkpt lat="45.47927" lon="2.56034">
        <ele>741.96</ele>
        <time>2022-08-17T08:15:34Z</time>
      </trkpt>
      <trkpt lat="45.47916" lon="2.56043">
        <ele>741.97</ele>
        <time>2022-08-17T08:15:35Z</time>
      </trkpt>
      <trkpt lat="45.47903" lon="2.56051">
        <ele>741.97</ele>
        <time>2022-08-17T08:15:36Z</time>
      </trkpt>
      <trkpt lat="45.47822" lon="2.56103">
        <ele>739.64</ele>
        <time>2022-08-17T08:15:42Z</time>
      </trkpt>
      <trkpt lat="45.47788" lon="2.56133">
        <ele>738.37</ele>
        <time>2022-08-17T08:15:45Z</time>
      </trkpt>
      <trkpt lat="45.47723" lon="2.56229">
        <ele>736.55</ele>
        <time>2022-08-17T08:15:53Z</time>
      </trkpt>
      <trkpt lat="45.47712" lon="2.5625">
        <ele>735.2</ele>
        <time>2022-08-17T08:15:55Z</time>
      </trkpt>
      <trkpt lat="45.47702" lon="2.56266">
        <ele>733.41</ele>
        <time>2022-08-17T08:15:57Z</time>
      </trkpt>
      <trkpt lat="45.47698" lon="2.5627">
        <ele>731.92</ele>
        <time>2022-08-17T08:15:58Z</time>
      </trkpt>
      <trkpt lat="45.47695" lon="2.56272">
        <ele>731.88</ele>
        <time>2022-08-17T08:15:59Z</time>
      </trkpt>
      <trkpt lat="45.47692" lon="2.56273">
        <ele>731.88</ele>
        <time>2022-08-17T08:16:00Z</time>
      </trkpt>
      <trkpt lat="45.47687" lon="2.56273">
        <ele>731.8</ele>
        <time>2022-08-17T08:16:01Z</time>
      </trkpt>
      <trkpt lat="45.4768" lon="2.56272">
        <ele>731.89</ele>
        <time>2022-08-17T08:16:02Z</time>
      </trkpt>
      <trkpt lat="45.47672" lon="2.56269">
        <ele>731.89</ele>
        <time>2022-08-17T08:16:03Z</time>
      </trkpt>
      <trkpt lat="45.47581" lon="2.56235">
        <ele>732.06</ele>
        <time>2022-08-17T08:16:10Z</time>
      </trkpt>
      <trkpt lat="45.47436" lon="2.56182">
        <ele>728.86</ele>
        <time>2022-08-17T08:16:20Z</time>
      </trkpt>
      <trkpt lat="45.47422" lon="2.56176">
        <ele>728.86</ele>
        <time>2022-08-17T08:16:21Z</time>
      </trkpt>
      <trkpt lat="45.47381" lon="2.56161">
        <ele>727.07</ele>
        <time>2022-08-17T08:16:24Z</time>
      </trkpt>
      <trkpt lat="45.47269" lon="2.56121">
        <ele>723.84</ele>
        <time>2022-08-17T08:16:32Z</time>
      </trkpt>
      <trkpt lat="45.47182" lon="2.56091">
        <ele>720.76</ele>
        <time>2022-08-17T08:16:38Z</time>
      </trkpt>
      <trkpt lat="45.47168" lon="2.56085">
        <ele>720.79</ele>
        <time>2022-08-17T08:16:39Z</time>
      </trkpt>
      <trkpt lat="45.47079" lon="2.56051">
        <ele>716.83</ele>
        <time>2022-08-17T08:16:45Z</time>
      </trkpt>
      <trkpt lat="45.47064" lon="2.56044">
        <ele>716.84</ele>
        <time>2022-08-17T08:16:46Z</time>
      </trkpt>
      <trkpt lat="45.47034" lon="2.56028">
        <ele>715.53</ele>
        <time>2022-08-17T08:16:48Z</time>
      </trkpt>
      <trkpt lat="45.47005" lon="2.56011">
        <ele>713.73</ele>
        <time>2022-08-17T08:16:50Z</time>
      </trkpt>
      <trkpt lat="45.4696" lon="2.55985">
        <ele>711.38</ele>
        <time>2022-08-17T08:16:53Z</time>
      </trkpt>
      <trkpt lat="45.4693" lon="2.55968">
        <ele>710.1</ele>
        <time>2022-08-17T08:16:55Z</time>
      </trkpt>
      <trkpt lat="45.46885" lon="2.55941">
        <ele>707.49</ele>
        <time>2022-08-17T08:16:58Z</time>
      </trkpt>
      <trkpt lat="45.46841" lon="2.55915">
        <ele>706.09</ele>
        <time>2022-08-17T08:17:01Z</time>
      </trkpt>
      <trkpt lat="45.46794" lon="2.55886">
        <ele>703.55</ele>
        <time>2022-08-17T08:17:05Z</time>
      </trkpt>
      <trkpt lat="45.46779" lon="2.55877">
        <ele>701.38</ele>
        <time>2022-08-17T08:17:07Z</time>
      </trkpt>
      <trkpt lat="45.46774" lon="2.55873">
        <ele>700.36</ele>
        <time>2022-08-17T08:17:08Z</time>
      </trkpt>
      <trkpt lat="45.46765" lon="2.55868">
        <ele>699.48</ele>
        <time>2022-08-17T08:17:14Z</time>
      </trkpt>
      <trkpt lat="45.46768" lon="2.55871">
        <ele>699.85</ele>
        <time>2022-08-17T08:18:11Z</time>
      </trkpt>
      <trkpt lat="45.46765" lon="2.5587">
        <ele>699.86</ele>
        <time>2022-08-17T08:18:12Z</time>
      </trkpt>
      <trkpt lat="45.4676" lon="2.55869">
        <ele>699.88</ele>
        <time>2022-08-17T08:18:13Z</time>
      </trkpt>
      <trkpt lat="45.46752" lon="2.55865">
        <ele>699.88</ele>
        <time>2022-08-17T08:18:14Z</time>
      </trkpt>
      <trkpt lat="45.46743" lon="2.5586">
        <ele>699.89</ele>
        <time>2022-08-17T08:18:15Z</time>
      </trkpt>
      <trkpt lat="45.46731" lon="2.55853">
        <ele>699.9</ele>
        <time>2022-08-17T08:18:16Z</time>
      </trkpt>
      <trkpt lat="45.46703" lon="2.55836">
        <ele>702.37</ele>
        <time>2022-08-17T08:18:18Z</time>
      </trkpt>
      <trkpt lat="45.46557" lon="2.5575">
        <ele>703.54</ele>
        <time>2022-08-17T08:18:26Z</time>
      </trkpt>
      <trkpt lat="45.46477" lon="2.55705">
        <ele>699.28</ele>
        <time>2022-08-17T08:18:30Z</time>
      </trkpt>
      <trkpt lat="45.46421" lon="2.5568">
        <ele>696.16</ele>
        <time>2022-08-17T08:18:33Z</time>
      </trkpt>
      <trkpt lat="45.46402" lon="2.55672">
        <ele>696.11</ele>
        <time>2022-08-17T08:18:34Z</time>
      </trkpt>
      <trkpt lat="45.46363" lon="2.55658">
        <ele>692.35</ele>
        <time>2022-08-17T08:18:36Z</time>
      </trkpt>
      <trkpt lat="45.46305" lon="2.55639">
        <ele>687.97</ele>
        <time>2022-08-17T08:18:39Z</time>
      </trkpt>
      <trkpt lat="45.46252" lon="2.55621">
        <ele>684.33</ele>
        <time>2022-08-17T08:18:42Z</time>
      </trkpt>
      <trkpt lat="45.46236" lon="2.55615">
        <ele>684.34</ele>
        <time>2022-08-17T08:18:43Z</time>
      </trkpt>
      <trkpt lat="45.46202" lon="2.55605">
        <ele>683.11</ele>
        <time>2022-08-17T08:18:45Z</time>
      </trkpt>
      <trkpt lat="45.46133" lon="2.55584">
        <ele>680.62</ele>
        <time>2022-08-17T08:18:49Z</time>
      </trkpt>
      <trkpt lat="45.4608" lon="2.55566">
        <ele>677.59</ele>
        <time>2022-08-17T08:18:52Z</time>
      </trkpt>
      <trkpt lat="45.46044" lon="2.55553">
        <ele>676.87</ele>
        <time>2022-08-17T08:18:54Z</time>
      </trkpt>
      <trkpt lat="45.4599" lon="2.5553">
        <ele>673.95</ele>
        <time>2022-08-17T08:18:57Z</time>
      </trkpt>
      <trkpt lat="45.45954" lon="2.55515">
        <ele>669.92</ele>
        <time>2022-08-17T08:18:59Z</time>
      </trkpt>
      <trkpt lat="45.459" lon="2.55493">
        <ele>665.45</ele>
        <time>2022-08-17T08:19:02Z</time>
      </trkpt>
      <trkpt lat="45.45844" lon="2.5547">
        <ele>661.23</ele>
        <time>2022-08-17T08:19:05Z</time>
      </trkpt>
      <trkpt lat="45.4579" lon="2.55447">
        <ele>657.12</ele>
        <time>2022-08-17T08:19:08Z</time>
      </trkpt>
      <trkpt lat="45.45756" lon="2.55433">
        <ele>653.57</ele>
        <time>2022-08-17T08:19:10Z</time>
      </trkpt>
      <trkpt lat="45.45723" lon="2.5542">
        <ele>650.47</ele>
        <time>2022-08-17T08:19:12Z</time>
      </trkpt>
      <trkpt lat="45.45691" lon="2.55406">
        <ele>647.09</ele>
        <time>2022-08-17T08:19:14Z</time>
      </trkpt>
      <trkpt lat="45.45645" lon="2.55389">
        <ele>643</ele>
        <time>2022-08-17T08:19:17Z</time>
      </trkpt>
      <trkpt lat="45.45615" lon="2.55379">
        <ele>639.86</ele>
        <time>2022-08-17T08:19:19Z</time>
      </trkpt>
      <trkpt lat="45.45586" lon="2.55369">
        <ele>636.83</ele>
        <time>2022-08-17T08:19:21Z</time>
      </trkpt>
      <trkpt lat="45.45544" lon="2.55355">
        <ele>633.25</ele>
        <time>2022-08-17T08:19:24Z</time>
      </trkpt>
      <trkpt lat="45.45504" lon="2.55338">
        <ele>629.4</ele>
        <time>2022-08-17T08:19:27Z</time>
      </trkpt>
      <trkpt lat="45.45491" lon="2.5533">
        <ele>629.27</ele>
        <time>2022-08-17T08:19:28Z</time>
      </trkpt>
      <trkpt lat="45.45455" lon="2.55308">
        <ele>626.43</ele>
        <time>2022-08-17T08:19:31Z</time>
      </trkpt>
      <trkpt lat="45.45431" lon="2.55293">
        <ele>624.15</ele>
        <time>2022-08-17T08:19:33Z</time>
      </trkpt>
      <trkpt lat="45.45393" lon="2.55258">
        <ele>622.06</ele>
        <time>2022-08-17T08:19:37Z</time>
      </trkpt>
      <trkpt lat="45.45335" lon="2.55192">
        <ele>624.81</ele>
        <time>2022-08-17T08:19:46Z</time>
      </trkpt>
      <trkpt lat="45.45322" lon="2.55176">
        <ele>626.86</ele>
        <time>2022-08-17T08:19:48Z</time>
      </trkpt>
      <trkpt lat="45.45306" lon="2.55154">
        <ele>626.87</ele>
        <time>2022-08-17T08:19:54Z</time>
      </trkpt>
      <trkpt lat="45.45303" lon="2.5515">
        <ele>628</ele>
        <time>2022-08-17T08:20:32Z</time>
      </trkpt>
      <trkpt lat="45.45298" lon="2.55144">
        <ele>628.02</ele>
        <time>2022-08-17T08:20:33Z</time>
      </trkpt>
      <trkpt lat="45.4527" lon="2.55114">
        <ele>631</ele>
        <time>2022-08-17T08:20:37Z</time>
      </trkpt>
      <trkpt lat="45.45254" lon="2.55092">
        <ele>634.49</ele>
        <time>2022-08-17T08:20:39Z</time>
      </trkpt>
      <trkpt lat="45.45227" lon="2.55051">
        <ele>637.63</ele>
        <time>2022-08-17T08:20:42Z</time>
      </trkpt>
      <trkpt lat="45.4521" lon="2.5502">
        <ele>638.5</ele>
        <time>2022-08-17T08:20:44Z</time>
      </trkpt>
      <trkpt lat="45.45193" lon="2.54986">
        <ele>639.85</ele>
        <time>2022-08-17T08:20:46Z</time>
      </trkpt>
      <trkpt lat="45.45067" lon="2.54715">
        <ele>641.82</ele>
        <time>2022-08-17T08:21:00Z</time>
      </trkpt>
      <trkpt lat="45.44934" lon="2.54479">
        <ele>642.54</ele>
        <time>2022-08-17T08:21:12Z</time>
      </trkpt>
      <trkpt lat="45.44826" lon="2.54309">
        <ele>642.56</ele>
        <time>2022-08-17T08:21:21Z</time>
      </trkpt>
      <trkpt lat="45.44764" lon="2.5425">
        <ele>639.96</ele>
        <time>2022-08-17T08:21:25Z</time>
      </trkpt>
      <trkpt lat="45.44733" lon="2.54219">
        <ele>638.48</ele>
        <time>2022-08-17T08:21:27Z</time>
      </trkpt>
      <trkpt lat="45.44687" lon="2.54173">
        <ele>635.95</ele>
        <time>2022-08-17T08:21:30Z</time>
      </trkpt>
      <trkpt lat="45.44625" lon="2.54116">
        <ele>631.69</ele>
        <time>2022-08-17T08:21:34Z</time>
      </trkpt>
      <trkpt lat="45.44609" lon="2.54104">
        <ele>631.69</ele>
        <time>2022-08-17T08:21:35Z</time>
      </trkpt>
      <trkpt lat="45.44575" lon="2.54083">
        <ele>629.59</ele>
        <time>2022-08-17T08:21:37Z</time>
      </trkpt>
      <trkpt lat="45.44523" lon="2.54058">
        <ele>626.55</ele>
        <time>2022-08-17T08:21:40Z</time>
      </trkpt>
      <trkpt lat="45.44429" lon="2.53996">
        <ele>625.64</ele>
        <time>2022-08-17T08:21:46Z</time>
      </trkpt>
      <trkpt lat="45.44416" lon="2.53981">
        <ele>625.62</ele>
        <time>2022-08-17T08:21:47Z</time>
      </trkpt>
      <trkpt lat="45.44405" lon="2.53964">
        <ele>625.61</ele>
        <time>2022-08-17T08:21:48Z</time>
      </trkpt>
      <trkpt lat="45.44375" lon="2.53911">
        <ele>628.99</ele>
        <time>2022-08-17T08:21:51Z</time>
      </trkpt>
      <trkpt lat="45.4436" lon="2.53873">
        <ele>631.21</ele>
        <time>2022-08-17T08:21:53Z</time>
      </trkpt>
      <trkpt lat="45.44341" lon="2.53814">
        <ele>635.17</ele>
        <time>2022-08-17T08:21:56Z</time>
      </trkpt>
      <trkpt lat="45.4433" lon="2.53775">
        <ele>636.63</ele>
        <time>2022-08-17T08:21:58Z</time>
      </trkpt>
      <trkpt lat="45.44319" lon="2.53718">
        <ele>638.56</ele>
        <time>2022-08-17T08:22:01Z</time>
      </trkpt>
      <trkpt lat="45.44262" lon="2.53561">
        <ele>639.7</ele>
        <time>2022-08-17T08:22:10Z</time>
      </trkpt>
      <trkpt lat="45.44215" lon="2.53444">
        <ele>636.64</ele>
        <time>2022-08-17T08:22:17Z</time>
      </trkpt>
      <trkpt lat="45.44208" lon="2.53427">
        <ele>636.59</ele>
        <time>2022-08-17T08:22:18Z</time>
      </trkpt>
      <trkpt lat="45.44125" lon="2.53226">
        <ele>636.02</ele>
        <time>2022-08-17T08:22:31Z</time>
      </trkpt>
      <trkpt lat="45.44106" lon="2.53179">
        <ele>633.96</ele>
        <time>2022-08-17T08:22:35Z</time>
      </trkpt>
      <trkpt lat="45.4404" lon="2.53019">
        <ele>634.03</ele>
        <time>2022-08-17T08:22:46Z</time>
      </trkpt>
      <trkpt lat="45.44007" lon="2.52937">
        <ele>632.74</ele>
        <time>2022-08-17T08:22:51Z</time>
      </trkpt>
      <trkpt lat="45.43986" lon="2.52887">
        <ele>631.34</ele>
        <time>2022-08-17T08:22:54Z</time>
      </trkpt>
      <trkpt lat="45.43933" lon="2.52768">
        <ele>629.64</ele>
        <time>2022-08-17T08:23:03Z</time>
      </trkpt>
      <trkpt lat="45.43927" lon="2.52763">
        <ele>629.7</ele>
        <time>2022-08-17T08:23:04Z</time>
      </trkpt>
      <trkpt lat="45.43922" lon="2.52762">
        <ele>629.7</ele>
        <time>2022-08-17T08:23:05Z</time>
      </trkpt>
      <trkpt lat="45.43917" lon="2.52765">
        <ele>629.67</ele>
        <time>2022-08-17T08:23:06Z</time>
      </trkpt>
      <trkpt lat="45.43911" lon="2.5277">
        <ele>628.91</ele>
        <time>2022-08-17T08:23:07Z</time>
      </trkpt>
      <trkpt lat="45.43858" lon="2.52815">
        <ele>632.1</ele>
        <time>2022-08-17T08:23:13Z</time>
      </trkpt>
      <trkpt lat="45.43847" lon="2.52824">
        <ele>632.12</ele>
        <time>2022-08-17T08:23:14Z</time>
      </trkpt>
      <trkpt lat="45.43784" lon="2.52875">
        <ele>635.12</ele>
        <time>2022-08-17T08:23:19Z</time>
      </trkpt>
      <trkpt lat="45.43666" lon="2.52961">
        <ele>635.3</ele>
        <time>2022-08-17T08:23:29Z</time>
      </trkpt>
      <trkpt lat="45.43628" lon="2.5298">
        <ele>631.42</ele>
        <time>2022-08-17T08:23:32Z</time>
      </trkpt>
      <trkpt lat="45.43616" lon="2.52986">
        <ele>631.4</ele>
        <time>2022-08-17T08:23:33Z</time>
      </trkpt>
      <trkpt lat="45.43591" lon="2.53001">
        <ele>627.65</ele>
        <time>2022-08-17T08:23:35Z</time>
      </trkpt>
      <trkpt lat="45.43579" lon="2.5301">
        <ele>627.65</ele>
        <time>2022-08-17T08:23:36Z</time>
      </trkpt>
      <trkpt lat="45.43567" lon="2.53021">
        <ele>627.6</ele>
        <time>2022-08-17T08:23:37Z</time>
      </trkpt>
      <trkpt lat="45.43556" lon="2.53034">
        <ele>626.44</ele>
        <time>2022-08-17T08:23:38Z</time>
      </trkpt>
      <trkpt lat="45.43545" lon="2.53049">
        <ele>626.31</ele>
        <time>2022-08-17T08:23:39Z</time>
      </trkpt>
      <trkpt lat="45.43537" lon="2.53066">
        <ele>625.16</ele>
        <time>2022-08-17T08:23:40Z</time>
      </trkpt>
      <trkpt lat="45.43529" lon="2.53084">
        <ele>625.17</ele>
        <time>2022-08-17T08:23:41Z</time>
      </trkpt>
      <trkpt lat="45.43522" lon="2.53104">
        <ele>625.18</ele>
        <time>2022-08-17T08:23:42Z</time>
      </trkpt>
      <trkpt lat="45.43517" lon="2.53125">
        <ele>624.52</ele>
        <time>2022-08-17T08:23:43Z</time>
      </trkpt>
      <trkpt lat="45.43466" lon="2.5334">
        <ele>621.02</ele>
        <time>2022-08-17T08:23:53Z</time>
      </trkpt>
      <trkpt lat="45.43413" lon="2.53455">
        <ele>619.01</ele>
        <time>2022-08-17T08:24:00Z</time>
      </trkpt>
      <trkpt lat="45.43405" lon="2.53466">
        <ele>619.05</ele>
        <time>2022-08-17T08:24:01Z</time>
      </trkpt>
      <trkpt lat="45.43395" lon="2.53476">
        <ele>619.05</ele>
        <time>2022-08-17T08:24:02Z</time>
      </trkpt>
      <trkpt lat="45.43385" lon="2.53484">
        <ele>619.06</ele>
        <time>2022-08-17T08:24:03Z</time>
      </trkpt>
      <trkpt lat="45.4333" lon="2.53523">
        <ele>621.72</ele>
        <time>2022-08-17T08:24:08Z</time>
      </trkpt>
      <trkpt lat="45.43284" lon="2.53549">
        <ele>621.78</ele>
        <time>2022-08-17T08:24:13Z</time>
      </trkpt>
      <trkpt lat="45.43275" lon="2.53551">
        <ele>621.79</ele>
        <time>2022-08-17T08:24:14Z</time>
      </trkpt>
      <trkpt lat="45.43267" lon="2.53551">
        <ele>621.8</ele>
        <time>2022-08-17T08:24:15Z</time>
      </trkpt>
      <trkpt lat="45.43258" lon="2.53549">
        <ele>621.81</ele>
        <time>2022-08-17T08:24:16Z</time>
      </trkpt>
      <trkpt lat="45.43248" lon="2.53546">
        <ele>621.84</ele>
        <time>2022-08-17T08:24:17Z</time>
      </trkpt>
      <trkpt lat="45.43239" lon="2.53542">
        <ele>619.08</ele>
        <time>2022-08-17T08:24:18Z</time>
      </trkpt>
      <trkpt lat="45.43229" lon="2.53537">
        <ele>619.07</ele>
        <time>2022-08-17T08:24:19Z</time>
      </trkpt>
      <trkpt lat="45.432" lon="2.53517">
        <ele>616.43</ele>
        <time>2022-08-17T08:24:22Z</time>
      </trkpt>
      <trkpt lat="45.43172" lon="2.53497">
        <ele>614.07</ele>
        <time>2022-08-17T08:24:25Z</time>
      </trkpt>
      <trkpt lat="45.43154" lon="2.53485">
        <ele>612.57</ele>
        <time>2022-08-17T08:24:27Z</time>
      </trkpt>
      <trkpt lat="45.43129" lon="2.53471">
        <ele>611.2</ele>
        <time>2022-08-17T08:24:30Z</time>
      </trkpt>
      <trkpt lat="45.43043" lon="2.53435">
        <ele>611.77</ele>
        <time>2022-08-17T08:24:39Z</time>
      </trkpt>
      <trkpt lat="45.43018" lon="2.5343">
        <ele>611.8</ele>
        <time>2022-08-17T08:24:41Z</time>
      </trkpt>
      <trkpt lat="45.43005" lon="2.53431">
        <ele>611.81</ele>
        <time>2022-08-17T08:24:42Z</time>
      </trkpt>
      <trkpt lat="45.42992" lon="2.53432">
        <ele>611.84</ele>
        <time>2022-08-17T08:24:43Z</time>
      </trkpt>
      <trkpt lat="45.42937" lon="2.53444">
        <ele>614.25</ele>
        <time>2022-08-17T08:24:47Z</time>
      </trkpt>
      <trkpt lat="45.42852" lon="2.53462">
        <ele>616.66</ele>
        <time>2022-08-17T08:24:53Z</time>
      </trkpt>
      <trkpt lat="45.42837" lon="2.53462">
        <ele>616.66</ele>
        <time>2022-08-17T08:24:54Z</time>
      </trkpt>
      <trkpt lat="45.42733" lon="2.53462">
        <ele>618.45</ele>
        <time>2022-08-17T08:25:01Z</time>
      </trkpt>
      <trkpt lat="45.42718" lon="2.53468">
        <ele>618.44</ele>
        <time>2022-08-17T08:25:02Z</time>
      </trkpt>
      <trkpt lat="45.42674" lon="2.53488">
        <ele>616.13</ele>
        <time>2022-08-17T08:25:05Z</time>
      </trkpt>
      <trkpt lat="45.42626" lon="2.53506">
        <ele>614.32</ele>
        <time>2022-08-17T08:25:08Z</time>
      </trkpt>
      <trkpt lat="45.42466" lon="2.53584">
        <ele>613.45</ele>
        <time>2022-08-17T08:25:18Z</time>
      </trkpt>
      <trkpt lat="45.42421" lon="2.53611">
        <ele>613.65</ele>
        <time>2022-08-17T08:25:21Z</time>
      </trkpt>
      <trkpt lat="45.4236" lon="2.5364">
        <ele>616.16</ele>
        <time>2022-08-17T08:25:25Z</time>
      </trkpt>
      <trkpt lat="45.42331" lon="2.53663">
        <ele>617.92</ele>
        <time>2022-08-17T08:25:27Z</time>
      </trkpt>
      <trkpt lat="45.42288" lon="2.53697">
        <ele>621.54</ele>
        <time>2022-08-17T08:25:30Z</time>
      </trkpt>
      <trkpt lat="45.42246" lon="2.53729">
        <ele>624.83</ele>
        <time>2022-08-17T08:25:33Z</time>
      </trkpt>
      <trkpt lat="45.42207" lon="2.53761">
        <ele>628.68</ele>
        <time>2022-08-17T08:25:36Z</time>
      </trkpt>
      <trkpt lat="45.42166" lon="2.53788">
        <ele>632.8</ele>
        <time>2022-08-17T08:25:39Z</time>
      </trkpt>
      <trkpt lat="45.42152" lon="2.53794">
        <ele>634.21</ele>
        <time>2022-08-17T08:25:40Z</time>
      </trkpt>
      <trkpt lat="45.42137" lon="2.53798">
        <ele>635.78</ele>
        <time>2022-08-17T08:25:41Z</time>
      </trkpt>
      <trkpt lat="45.4209" lon="2.53809">
        <ele>640.07</ele>
        <time>2022-08-17T08:25:44Z</time>
      </trkpt>
      <trkpt lat="45.42041" lon="2.53828">
        <ele>643.06</ele>
        <time>2022-08-17T08:25:47Z</time>
      </trkpt>
      <trkpt lat="45.42025" lon="2.53838">
        <ele>643.18</ele>
        <time>2022-08-17T08:25:48Z</time>
      </trkpt>
      <trkpt lat="45.41995" lon="2.53858">
        <ele>644.39</ele>
        <time>2022-08-17T08:25:50Z</time>
      </trkpt>
      <trkpt lat="45.4194" lon="2.53898">
        <ele>644.51</ele>
        <time>2022-08-17T08:25:54Z</time>
      </trkpt>
      <trkpt lat="45.41928" lon="2.53911">
        <ele>642.2</ele>
        <time>2022-08-17T08:25:55Z</time>
      </trkpt>
      <trkpt lat="45.41917" lon="2.53925">
        <ele>642.14</ele>
        <time>2022-08-17T08:25:56Z</time>
      </trkpt>
      <trkpt lat="45.41907" lon="2.53941">
        <ele>642.12</ele>
        <time>2022-08-17T08:25:57Z</time>
      </trkpt>
      <trkpt lat="45.41898" lon="2.53958">
        <ele>640.76</ele>
        <time>2022-08-17T08:25:58Z</time>
      </trkpt>
      <trkpt lat="45.4189" lon="2.53976">
        <ele>640.66</ele>
        <time>2022-08-17T08:25:59Z</time>
      </trkpt>
      <trkpt lat="45.41883" lon="2.53995">
        <ele>639.18</ele>
        <time>2022-08-17T08:26:00Z</time>
      </trkpt>
      <trkpt lat="45.41876" lon="2.54015">
        <ele>639.13</ele>
        <time>2022-08-17T08:26:01Z</time>
      </trkpt>
      <trkpt lat="45.41862" lon="2.54051">
        <ele>636.69</ele>
        <time>2022-08-17T08:26:03Z</time>
      </trkpt>
      <trkpt lat="45.41841" lon="2.54104">
        <ele>633.87</ele>
        <time>2022-08-17T08:26:06Z</time>
      </trkpt>
      <trkpt lat="45.41828" lon="2.54139">
        <ele>632.28</ele>
        <time>2022-08-17T08:26:08Z</time>
      </trkpt>
      <trkpt lat="45.41813" lon="2.54175">
        <ele>630.63</ele>
        <time>2022-08-17T08:26:10Z</time>
      </trkpt>
      <trkpt lat="45.41794" lon="2.54209">
        <ele>628.95</ele>
        <time>2022-08-17T08:26:12Z</time>
      </trkpt>
      <trkpt lat="45.41783" lon="2.54225">
        <ele>627.59</ele>
        <time>2022-08-17T08:26:13Z</time>
      </trkpt>
      <trkpt lat="45.41771" lon="2.54239">
        <ele>627.6</ele>
        <time>2022-08-17T08:26:14Z</time>
      </trkpt>
      <trkpt lat="45.41758" lon="2.54251">
        <ele>627.47</ele>
        <time>2022-08-17T08:26:15Z</time>
      </trkpt>
      <trkpt lat="45.41745" lon="2.54262">
        <ele>627.53</ele>
        <time>2022-08-17T08:26:16Z</time>
      </trkpt>
      <trkpt lat="45.4173" lon="2.54271">
        <ele>626.26</ele>
        <time>2022-08-17T08:26:17Z</time>
      </trkpt>
      <trkpt lat="45.41716" lon="2.54277">
        <ele>626.13</ele>
        <time>2022-08-17T08:26:18Z</time>
      </trkpt>
      <trkpt lat="45.41701" lon="2.54283">
        <ele>625.06</ele>
        <time>2022-08-17T08:26:19Z</time>
      </trkpt>
      <trkpt lat="45.41591" lon="2.54363">
        <ele>625.21</ele>
        <time>2022-08-17T08:26:27Z</time>
      </trkpt>
      <trkpt lat="45.41508" lon="2.54447">
        <ele>621.47</ele>
        <time>2022-08-17T08:26:33Z</time>
      </trkpt>
      <trkpt lat="45.41493" lon="2.54461">
        <ele>621.4</ele>
        <time>2022-08-17T08:26:34Z</time>
      </trkpt>
      <trkpt lat="45.41449" lon="2.54506">
        <ele>617.49</ele>
        <time>2022-08-17T08:26:37Z</time>
      </trkpt>
      <trkpt lat="45.41405" lon="2.5455">
        <ele>614.93</ele>
        <time>2022-08-17T08:26:40Z</time>
      </trkpt>
      <trkpt lat="45.4137" lon="2.54592">
        <ele>614.52</ele>
        <time>2022-08-17T08:26:43Z</time>
      </trkpt>
      <trkpt lat="45.41362" lon="2.54608">
        <ele>614.46</ele>
        <time>2022-08-17T08:26:44Z</time>
      </trkpt>
      <trkpt lat="45.41355" lon="2.54624">
        <ele>614.46</ele>
        <time>2022-08-17T08:26:45Z</time>
      </trkpt>
      <trkpt lat="45.41311" lon="2.54758">
        <ele>610.82</ele>
        <time>2022-08-17T08:26:52Z</time>
      </trkpt>
      <trkpt lat="45.41307" lon="2.54778">
        <ele>610.83</ele>
        <time>2022-08-17T08:26:53Z</time>
      </trkpt>
      <trkpt lat="45.413" lon="2.54819">
        <ele>609.58</ele>
        <time>2022-08-17T08:26:55Z</time>
      </trkpt>
      <trkpt lat="45.41292" lon="2.54881">
        <ele>608.01</ele>
        <time>2022-08-17T08:26:58Z</time>
      </trkpt>
      <trkpt lat="45.41278" lon="2.54985">
        <ele>605.5</ele>
        <time>2022-08-17T08:27:03Z</time>
      </trkpt>
      <trkpt lat="45.41265" lon="2.55064">
        <ele>601.46</ele>
        <time>2022-08-17T08:27:07Z</time>
      </trkpt>
      <trkpt lat="45.41242" lon="2.55131">
        <ele>597.3</ele>
        <time>2022-08-17T08:27:11Z</time>
      </trkpt>
      <trkpt lat="45.41221" lon="2.55179">
        <ele>593.81</ele>
        <time>2022-08-17T08:27:14Z</time>
      </trkpt>
      <trkpt lat="45.41209" lon="2.55212">
        <ele>592.3</ele>
        <time>2022-08-17T08:27:16Z</time>
      </trkpt>
      <trkpt lat="45.41199" lon="2.5525">
        <ele>590.49</ele>
        <time>2022-08-17T08:27:18Z</time>
      </trkpt>
      <trkpt lat="45.41196" lon="2.55271">
        <ele>589.35</ele>
        <time>2022-08-17T08:27:19Z</time>
      </trkpt>
      <trkpt lat="45.41194" lon="2.55293">
        <ele>589.36</ele>
        <time>2022-08-17T08:27:20Z</time>
      </trkpt>
      <trkpt lat="45.41194" lon="2.55316">
        <ele>589.27</ele>
        <time>2022-08-17T08:27:21Z</time>
      </trkpt>
      <trkpt lat="45.41195" lon="2.5534">
        <ele>587.74</ele>
        <time>2022-08-17T08:27:22Z</time>
      </trkpt>
      <trkpt lat="45.41198" lon="2.55363">
        <ele>587.76</ele>
        <time>2022-08-17T08:27:23Z</time>
      </trkpt>
      <trkpt lat="45.41206" lon="2.55407">
        <ele>585.19</ele>
        <time>2022-08-17T08:27:25Z</time>
      </trkpt>
      <trkpt lat="45.41213" lon="2.55427">
        <ele>585.24</ele>
        <time>2022-08-17T08:27:26Z</time>
      </trkpt>
      <trkpt lat="45.41222" lon="2.55445">
        <ele>582.92</ele>
        <time>2022-08-17T08:27:27Z</time>
      </trkpt>
      <trkpt lat="45.41231" lon="2.55462">
        <ele>582.94</ele>
        <time>2022-08-17T08:27:28Z</time>
      </trkpt>
      <trkpt lat="45.41242" lon="2.55478">
        <ele>582.95</ele>
        <time>2022-08-17T08:27:29Z</time>
      </trkpt>
      <trkpt lat="45.41255" lon="2.55493">
        <ele>583</ele>
        <time>2022-08-17T08:27:30Z</time>
      </trkpt>
      <trkpt lat="45.41271" lon="2.55506">
        <ele>582.54</ele>
        <time>2022-08-17T08:27:31Z</time>
      </trkpt>
      <trkpt lat="45.41286" lon="2.55516">
        <ele>582.02</ele>
        <time>2022-08-17T08:27:32Z</time>
      </trkpt>
      <trkpt lat="45.41303" lon="2.55524">
        <ele>582.55</ele>
        <time>2022-08-17T08:27:33Z</time>
      </trkpt>
      <trkpt lat="45.41322" lon="2.55529">
        <ele>581.68</ele>
        <time>2022-08-17T08:27:34Z</time>
      </trkpt>
      <trkpt lat="45.41342" lon="2.55533">
        <ele>581.64</ele>
        <time>2022-08-17T08:27:35Z</time>
      </trkpt>
      <trkpt lat="45.41362" lon="2.55536">
        <ele>581.64</ele>
        <time>2022-08-17T08:27:36Z</time>
      </trkpt>
      <trkpt lat="45.41417" lon="2.55541">
        <ele>578.36</ele>
        <time>2022-08-17T08:27:39Z</time>
      </trkpt>
      <trkpt lat="45.41435" lon="2.55544">
        <ele>576.82</ele>
        <time>2022-08-17T08:27:40Z</time>
      </trkpt>
      <trkpt lat="45.41451" lon="2.5555">
        <ele>576.81</ele>
        <time>2022-08-17T08:27:41Z</time>
      </trkpt>
      <trkpt lat="45.41466" lon="2.55559">
        <ele>574.74</ele>
        <time>2022-08-17T08:27:42Z</time>
      </trkpt>
      <trkpt lat="45.41479" lon="2.5557">
        <ele>573.54</ele>
        <time>2022-08-17T08:27:43Z</time>
      </trkpt>
      <trkpt lat="45.41491" lon="2.55584">
        <ele>572.23</ele>
        <time>2022-08-17T08:27:44Z</time>
      </trkpt>
      <trkpt lat="45.41501" lon="2.55599">
        <ele>571.47</ele>
        <time>2022-08-17T08:27:45Z</time>
      </trkpt>
      <trkpt lat="45.41509" lon="2.55616">
        <ele>569.93</ele>
        <time>2022-08-17T08:27:46Z</time>
      </trkpt>
      <trkpt lat="45.41514" lon="2.55634">
        <ele>569.07</ele>
        <time>2022-08-17T08:27:47Z</time>
      </trkpt>
      <trkpt lat="45.41518" lon="2.55653">
        <ele>567.82</ele>
        <time>2022-08-17T08:27:48Z</time>
      </trkpt>
      <trkpt lat="45.4152" lon="2.55672">
        <ele>566.54</ele>
        <time>2022-08-17T08:27:49Z</time>
      </trkpt>
      <trkpt lat="45.41522" lon="2.55691">
        <ele>565.52</ele>
        <time>2022-08-17T08:27:50Z</time>
      </trkpt>
      <trkpt lat="45.41523" lon="2.55709">
        <ele>565.43</ele>
        <time>2022-08-17T08:27:51Z</time>
      </trkpt>
      <trkpt lat="45.41523" lon="2.55746">
        <ele>562.22</ele>
        <time>2022-08-17T08:27:53Z</time>
      </trkpt>
      <trkpt lat="45.4152" lon="2.55764">
        <ele>561.04</ele>
        <time>2022-08-17T08:27:54Z</time>
      </trkpt>
      <trkpt lat="45.41516" lon="2.55781">
        <ele>559.81</ele>
        <time>2022-08-17T08:27:55Z</time>
      </trkpt>
      <trkpt lat="45.41509" lon="2.55796">
        <ele>558.46</ele>
        <time>2022-08-17T08:27:56Z</time>
      </trkpt>
      <trkpt lat="45.415" lon="2.5581">
        <ele>558.63</ele>
        <time>2022-08-17T08:27:57Z</time>
      </trkpt>
      <trkpt lat="45.41491" lon="2.55824">
        <ele>557.36</ele>
        <time>2022-08-17T08:27:58Z</time>
      </trkpt>
      <trkpt lat="45.41481" lon="2.55837">
        <ele>557.37</ele>
        <time>2022-08-17T08:27:59Z</time>
      </trkpt>
      <trkpt lat="45.41459" lon="2.55861">
        <ele>556.05</ele>
        <time>2022-08-17T08:28:01Z</time>
      </trkpt>
      <trkpt lat="45.41436" lon="2.55881">
        <ele>553.04</ele>
        <time>2022-08-17T08:28:03Z</time>
      </trkpt>
      <trkpt lat="45.41424" lon="2.55887">
        <ele>551.74</ele>
        <time>2022-08-17T08:28:04Z</time>
      </trkpt>
      <trkpt lat="45.41411" lon="2.55891">
        <ele>550.51</ele>
        <time>2022-08-17T08:28:05Z</time>
      </trkpt>
      <trkpt lat="45.41397" lon="2.55893">
        <ele>550.42</ele>
        <time>2022-08-17T08:28:06Z</time>
      </trkpt>
      <trkpt lat="45.41382" lon="2.55891">
        <ele>548.68</ele>
        <time>2022-08-17T08:28:07Z</time>
      </trkpt>
      <trkpt lat="45.41367" lon="2.55888">
        <ele>547.81</ele>
        <time>2022-08-17T08:28:08Z</time>
      </trkpt>
      <trkpt lat="45.41323" lon="2.55877">
        <ele>544.05</ele>
        <time>2022-08-17T08:28:11Z</time>
      </trkpt>
      <trkpt lat="45.41294" lon="2.55871">
        <ele>540.66</ele>
        <time>2022-08-17T08:28:13Z</time>
      </trkpt>
      <trkpt lat="45.41251" lon="2.5586">
        <ele>536.55</ele>
        <time>2022-08-17T08:28:16Z</time>
      </trkpt>
      <trkpt lat="45.41206" lon="2.55849">
        <ele>534.09</ele>
        <time>2022-08-17T08:28:19Z</time>
      </trkpt>
      <trkpt lat="45.41178" lon="2.55844">
        <ele>530.24</ele>
        <time>2022-08-17T08:28:21Z</time>
      </trkpt>
      <trkpt lat="45.41164" lon="2.55843">
        <ele>529.44</ele>
        <time>2022-08-17T08:28:22Z</time>
      </trkpt>
      <trkpt lat="45.4115" lon="2.55845">
        <ele>528.41</ele>
        <time>2022-08-17T08:28:23Z</time>
      </trkpt>
      <trkpt lat="45.41137" lon="2.55849">
        <ele>526.62</ele>
        <time>2022-08-17T08:28:24Z</time>
      </trkpt>
      <trkpt lat="45.411" lon="2.55866">
        <ele>524.6</ele>
        <time>2022-08-17T08:28:27Z</time>
      </trkpt>
      <trkpt lat="45.41051" lon="2.55887">
        <ele>524.57</ele>
        <time>2022-08-17T08:28:31Z</time>
      </trkpt>
      <trkpt lat="45.41037" lon="2.55886">
        <ele>524.57</ele>
        <time>2022-08-17T08:28:32Z</time>
      </trkpt>
      <trkpt lat="45.41023" lon="2.55882">
        <ele>524.49</ele>
        <time>2022-08-17T08:28:33Z</time>
      </trkpt>
      <trkpt lat="45.40902" lon="2.55867">
        <ele>524.84</ele>
        <time>2022-08-17T08:28:41Z</time>
      </trkpt>
      <trkpt lat="45.40888" lon="2.55872">
        <ele>524.87</ele>
        <time>2022-08-17T08:28:42Z</time>
      </trkpt>
      <trkpt lat="45.40875" lon="2.55879">
        <ele>524.88</ele>
        <time>2022-08-17T08:28:43Z</time>
      </trkpt>
      <trkpt lat="45.40863" lon="2.55889">
        <ele>524.91</ele>
        <time>2022-08-17T08:28:44Z</time>
      </trkpt>
      <trkpt lat="45.40853" lon="2.55901">
        <ele>524.91</ele>
        <time>2022-08-17T08:28:45Z</time>
      </trkpt>
      <trkpt lat="45.40845" lon="2.55915">
        <ele>524.91</ele>
        <time>2022-08-17T08:28:46Z</time>
      </trkpt>
      <trkpt lat="45.4084" lon="2.55932">
        <ele>524.85</ele>
        <time>2022-08-17T08:28:47Z</time>
      </trkpt>
      <trkpt lat="45.40836" lon="2.55949">
        <ele>524.85</ele>
        <time>2022-08-17T08:28:48Z</time>
      </trkpt>
      <trkpt lat="45.40822" lon="2.56023">
        <ele>522.41</ele>
        <time>2022-08-17T08:28:54Z</time>
      </trkpt>
      <trkpt lat="45.40811" lon="2.56058">
        <ele>522.41</ele>
        <time>2022-08-17T08:28:57Z</time>
      </trkpt>
      <trkpt lat="45.40806" lon="2.56067">
        <ele>522.42</ele>
        <time>2022-08-17T08:28:58Z</time>
      </trkpt>
      <trkpt lat="45.40798" lon="2.56085">
        <ele>521.67</ele>
        <time>2022-08-17T08:29:01Z</time>
      </trkpt>
      <trkpt lat="45.40799" lon="2.56087">
        <ele>521.66</ele>
        <time>2022-08-17T08:29:02Z</time>
      </trkpt>
      <trkpt lat="45.40801" lon="2.56088">
        <ele>521.67</ele>
        <time>2022-08-17T08:29:03Z</time>
      </trkpt>
      <trkpt lat="45.40803" lon="2.56088">
        <ele>521.67</ele>
        <time>2022-08-17T08:29:04Z</time>
      </trkpt>
      <trkpt lat="45.40805" lon="2.56085">
        <ele>521.67</ele>
        <time>2022-08-17T08:29:05Z</time>
      </trkpt>
      <trkpt lat="45.40808" lon="2.56081">
        <ele>521.69</ele>
        <time>2022-08-17T08:29:06Z</time>
      </trkpt>
      <trkpt lat="45.40811" lon="2.56076">
        <ele>521.67</ele>
        <time>2022-08-17T08:29:07Z</time>
      </trkpt>
      <trkpt lat="45.40813" lon="2.5607">
        <ele>521.68</ele>
        <time>2022-08-17T08:29:08Z</time>
      </trkpt>
      <trkpt lat="45.40816" lon="2.56063">
        <ele>521.68</ele>
        <time>2022-08-17T08:29:09Z</time>
      </trkpt>
      <trkpt lat="45.4082" lon="2.56054">
        <ele>521.71</ele>
        <time>2022-08-17T08:29:10Z</time>
      </trkpt>
      <trkpt lat="45.40824" lon="2.56045">
        <ele>521.75</ele>
        <time>2022-08-17T08:29:11Z</time>
      </trkpt>
      <trkpt lat="45.40828" lon="2.56035">
        <ele>520.97</ele>
        <time>2022-08-17T08:29:12Z</time>
      </trkpt>
      <trkpt lat="45.40831" lon="2.56024">
        <ele>520.97</ele>
        <time>2022-08-17T08:29:13Z</time>
      </trkpt>
      <trkpt lat="45.40834" lon="2.56013">
        <ele>520.96</ele>
        <time>2022-08-17T08:29:14Z</time>
      </trkpt>
      <trkpt lat="45.40836" lon="2.56002">
        <ele>520.96</ele>
        <time>2022-08-17T08:29:15Z</time>
      </trkpt>
      <trkpt lat="45.40837" lon="2.55991">
        <ele>520.96</ele>
        <time>2022-08-17T08:29:16Z</time>
      </trkpt>
      <trkpt lat="45.40842" lon="2.55956">
        <ele>523.52</ele>
        <time>2022-08-17T08:29:19Z</time>
      </trkpt>
      <trkpt lat="45.40845" lon="2.55945">
        <ele>523.53</ele>
        <time>2022-08-17T08:29:20Z</time>
      </trkpt>
      <trkpt lat="45.40848" lon="2.55934">
        <ele>523.53</ele>
        <time>2022-08-17T08:29:21Z</time>
      </trkpt>
      <trkpt lat="45.40851" lon="2.55923">
        <ele>523.52</ele>
        <time>2022-08-17T08:29:22Z</time>
      </trkpt>
      <trkpt lat="45.40856" lon="2.55914">
        <ele>524.34</ele>
        <time>2022-08-17T08:29:23Z</time>
      </trkpt>
      <trkpt lat="45.40861" lon="2.55905">
        <ele>524.34</ele>
        <time>2022-08-17T08:29:24Z</time>
      </trkpt>
      <trkpt lat="45.40867" lon="2.55897">
        <ele>524.37</ele>
        <time>2022-08-17T08:29:25Z</time>
      </trkpt>
      <trkpt lat="45.40873" lon="2.5589">
        <ele>524.39</ele>
        <time>2022-08-17T08:29:26Z</time>
      </trkpt>
      <trkpt lat="45.40887" lon="2.55879">
        <ele>524.42</ele>
        <time>2022-08-17T08:29:28Z</time>
      </trkpt>
      <trkpt lat="45.40894" lon="2.55874">
        <ele>524.44</ele>
        <time>2022-08-17T08:29:29Z</time>
      </trkpt>
      <trkpt lat="45.40902" lon="2.55871">
        <ele>524.46</ele>
        <time>2022-08-17T08:29:30Z</time>
      </trkpt>
      <trkpt lat="45.40909" lon="2.55869">
        <ele>524.44</ele>
        <time>2022-08-17T08:29:31Z</time>
      </trkpt>
      <trkpt lat="45.40917" lon="2.55868">
        <ele>524.43</ele>
        <time>2022-08-17T08:29:32Z</time>
      </trkpt>
      <trkpt lat="45.40925" lon="2.55868">
        <ele>524.48</ele>
        <time>2022-08-17T08:29:33Z</time>
      </trkpt>
      <trkpt lat="45.40933" lon="2.55869">
        <ele>524.46</ele>
        <time>2022-08-17T08:29:34Z</time>
      </trkpt>
      <trkpt lat="45.41047" lon="2.55891">
        <ele>524.34</ele>
        <time>2022-08-17T08:29:49Z</time>
      </trkpt>
      <trkpt lat="45.41053" lon="2.5589">
        <ele>524.35</ele>
        <time>2022-08-17T08:29:50Z</time>
      </trkpt>
      <trkpt lat="45.41067" lon="2.5589">
        <ele>522.02</ele>
        <time>2022-08-17T08:29:54Z</time>
      </trkpt>
      <trkpt lat="45.41068" lon="2.5589">
        <ele>522.09</ele>
        <time>2022-08-17T08:30:09Z</time>
      </trkpt>
      <trkpt lat="45.41073" lon="2.5589">
        <ele>521.63</ele>
        <time>2022-08-17T08:31:21Z</time>
      </trkpt>
      <trkpt lat="45.41092" lon="2.55905">
        <ele>524.57</ele>
        <time>2022-08-17T08:31:39Z</time>
      </trkpt>
      <trkpt lat="45.41096" lon="2.55908">
        <ele>524.61</ele>
        <time>2022-08-17T08:31:40Z</time>
      </trkpt>
      <trkpt lat="45.41098" lon="2.55911">
        <ele>525.32</ele>
        <time>2022-08-17T08:31:41Z</time>
      </trkpt>
      <trkpt lat="45.41101" lon="2.55913">
        <ele>525.32</ele>
        <time>2022-08-17T08:31:42Z</time>
      </trkpt>
      <trkpt lat="45.41104" lon="2.55916">
        <ele>526.4</ele>
        <time>2022-08-17T08:31:43Z</time>
      </trkpt>
      <trkpt lat="45.41109" lon="2.55924">
        <ele>526.49</ele>
        <time>2022-08-17T08:31:51Z</time>
      </trkpt>
      <trkpt lat="45.41106" lon="2.55923">
        <ele>526.49</ele>
        <time>2022-08-17T08:31:57Z</time>
      </trkpt>
      <trkpt lat="45.41104" lon="2.55921">
        <ele>526.48</ele>
        <time>2022-08-17T08:31:58Z</time>
      </trkpt>
      <trkpt lat="45.41092" lon="2.55907">
        <ele>526.47</ele>
        <time>2022-08-17T08:32:01Z</time>
      </trkpt>
      <trkpt lat="45.41078" lon="2.55894">
        <ele>526.44</ele>
        <time>2022-08-17T08:32:04Z</time>
      </trkpt>
      <trkpt lat="45.41066" lon="2.55887">
        <ele>523.49</ele>
        <time>2022-08-17T08:32:07Z</time>
      </trkpt>
      <trkpt lat="45.41061" lon="2.55885">
        <ele>523.5</ele>
        <time>2022-08-17T08:32:08Z</time>
      </trkpt>
      <trkpt lat="45.41054" lon="2.55884">
        <ele>523.5</ele>
        <time>2022-08-17T08:32:09Z</time>
      </trkpt>
      <trkpt lat="45.41039" lon="2.55884">
        <ele>523.51</ele>
        <time>2022-08-17T08:32:11Z</time>
      </trkpt>
      <trkpt lat="45.40938" lon="2.55864">
        <ele>523.59</ele>
        <time>2022-08-17T08:32:21Z</time>
      </trkpt>
      <trkpt lat="45.40893" lon="2.5587">
        <ele>523.64</ele>
        <time>2022-08-17T08:32:25Z</time>
      </trkpt>
      <trkpt lat="45.40883" lon="2.55876">
        <ele>526.06</ele>
        <time>2022-08-17T08:32:26Z</time>
      </trkpt>
      <trkpt lat="45.40873" lon="2.55883">
        <ele>526.07</ele>
        <time>2022-08-17T08:32:27Z</time>
      </trkpt>
      <trkpt lat="45.40864" lon="2.55891">
        <ele>526.08</ele>
        <time>2022-08-17T08:32:28Z</time>
      </trkpt>
      <trkpt lat="45.40856" lon="2.55901">
        <ele>526.03</ele>
        <time>2022-08-17T08:32:29Z</time>
      </trkpt>
      <trkpt lat="45.40851" lon="2.55909">
        <ele>526.02</ele>
        <time>2022-08-17T08:32:30Z</time>
      </trkpt>
      <trkpt lat="45.40848" lon="2.55917">
        <ele>526.02</ele>
        <time>2022-08-17T08:32:31Z</time>
      </trkpt>
      <trkpt lat="45.40847" lon="2.55925">
        <ele>526.02</ele>
        <time>2022-08-17T08:32:32Z</time>
      </trkpt>
      <trkpt lat="45.40848" lon="2.55934">
        <ele>525.95</ele>
        <time>2022-08-17T08:32:33Z</time>
      </trkpt>
      <trkpt lat="45.40848" lon="2.55943">
        <ele>525.92</ele>
        <time>2022-08-17T08:32:34Z</time>
      </trkpt>
      <trkpt lat="45.40847" lon="2.55953">
        <ele>525.92</ele>
        <time>2022-08-17T08:32:35Z</time>
      </trkpt>
      <trkpt lat="45.40843" lon="2.55996">
        <ele>526.02</ele>
        <time>2022-08-17T08:32:39Z</time>
      </trkpt>
      <trkpt lat="45.40844" lon="2.56006">
        <ele>526.03</ele>
        <time>2022-08-17T08:32:40Z</time>
      </trkpt>
      <trkpt lat="45.40847" lon="2.56015">
        <ele>526.02</ele>
        <time>2022-08-17T08:32:41Z</time>
      </trkpt>
      <trkpt lat="45.40851" lon="2.56024">
        <ele>526</ele>
        <time>2022-08-17T08:32:42Z</time>
      </trkpt>
      <trkpt lat="45.40854" lon="2.56033">
        <ele>526</ele>
        <time>2022-08-17T08:32:43Z</time>
      </trkpt>
      <trkpt lat="45.40867" lon="2.56054">
        <ele>523.62</ele>
        <time>2022-08-17T08:32:49Z</time>
      </trkpt>
      <trkpt lat="45.40867" lon="2.5605">
        <ele>523.62</ele>
        <time>2022-08-17T08:32:58Z</time>
      </trkpt>
      <trkpt lat="45.40865" lon="2.56047">
        <ele>523.64</ele>
        <time>2022-08-17T08:32:59Z</time>
      </trkpt>
      <trkpt lat="45.40862" lon="2.56042">
        <ele>523.64</ele>
        <time>2022-08-17T08:33:00Z</time>
      </trkpt>
      <trkpt lat="45.40858" lon="2.56033">
        <ele>523.73</ele>
        <time>2022-08-17T08:33:01Z</time>
      </trkpt>
      <trkpt lat="45.40855" lon="2.56022">
        <ele>523.7</ele>
        <time>2022-08-17T08:33:02Z</time>
      </trkpt>
      <trkpt lat="45.40851" lon="2.56012">
        <ele>523.74</ele>
        <time>2022-08-17T08:33:03Z</time>
      </trkpt>
      <trkpt lat="45.40849" lon="2.55999">
        <ele>523.75</ele>
        <time>2022-08-17T08:33:04Z</time>
      </trkpt>
      <trkpt lat="45.40847" lon="2.55986">
        <ele>523.75</ele>
        <time>2022-08-17T08:33:05Z</time>
      </trkpt>
      <trkpt lat="45.40847" lon="2.55972">
        <ele>526.07</ele>
        <time>2022-08-17T08:33:06Z</time>
      </trkpt>
      <trkpt lat="45.40849" lon="2.55961">
        <ele>526.08</ele>
        <time>2022-08-17T08:33:07Z</time>
      </trkpt>
      <trkpt lat="45.4085" lon="2.55942">
        <ele>526.08</ele>
        <time>2022-08-17T08:33:09Z</time>
      </trkpt>
      <trkpt lat="45.40849" lon="2.55936">
        <ele>526.09</ele>
        <time>2022-08-17T08:33:10Z</time>
      </trkpt>
      <trkpt lat="45.40848" lon="2.55933">
        <ele>526.09</ele>
        <time>2022-08-17T08:33:11Z</time>
      </trkpt>
      <trkpt lat="45.40846" lon="2.55932">
        <ele>526.11</ele>
        <time>2022-08-17T08:33:12Z</time>
      </trkpt>
      <trkpt lat="45.40843" lon="2.55933">
        <ele>526.14</ele>
        <time>2022-08-17T08:33:13Z</time>
      </trkpt>
      <trkpt lat="45.40841" lon="2.55939">
        <ele>526.12</ele>
        <time>2022-08-17T08:33:14Z</time>
      </trkpt>
      <trkpt lat="45.40839" lon="2.5595">
        <ele>526.16</ele>
        <time>2022-08-17T08:33:15Z</time>
      </trkpt>
      <trkpt lat="45.40838" lon="2.55963">
        <ele>526.17</ele>
        <time>2022-08-17T08:33:16Z</time>
      </trkpt>
      <trkpt lat="45.40831" lon="2.56006">
        <ele>526.16</ele>
        <time>2022-08-17T08:33:19Z</time>
      </trkpt>
      <trkpt lat="45.40828" lon="2.56019">
        <ele>526.16</ele>
        <time>2022-08-17T08:33:20Z</time>
      </trkpt>
      <trkpt lat="45.40825" lon="2.5603">
        <ele>526.14</ele>
        <time>2022-08-17T08:33:21Z</time>
      </trkpt>
      <trkpt lat="45.40815" lon="2.56053">
        <ele>523.54</ele>
        <time>2022-08-17T08:33:23Z</time>
      </trkpt>
      <trkpt lat="45.40809" lon="2.56064">
        <ele>523.53</ele>
        <time>2022-08-17T08:33:24Z</time>
      </trkpt>
      <trkpt lat="45.40802" lon="2.56074">
        <ele>523.66</ele>
        <time>2022-08-17T08:33:25Z</time>
      </trkpt>
      <trkpt lat="45.40794" lon="2.56083">
        <ele>523.66</ele>
        <time>2022-08-17T08:33:26Z</time>
      </trkpt>
      <trkpt lat="45.40786" lon="2.56089">
        <ele>523.62</ele>
        <time>2022-08-17T08:33:27Z</time>
      </trkpt>
      <trkpt lat="45.40778" lon="2.56092">
        <ele>523.67</ele>
        <time>2022-08-17T08:33:28Z</time>
      </trkpt>
      <trkpt lat="45.4077" lon="2.56094">
        <ele>523.68</ele>
        <time>2022-08-17T08:33:29Z</time>
      </trkpt>
      <trkpt lat="45.40763" lon="2.56094">
        <ele>523.69</ele>
        <time>2022-08-17T08:33:30Z</time>
      </trkpt>
      <trkpt lat="45.40757" lon="2.56094">
        <ele>523.69</ele>
        <time>2022-08-17T08:33:31Z</time>
      </trkpt>
      <trkpt lat="45.40753" lon="2.56097">
        <ele>523.7</ele>
        <time>2022-08-17T08:33:32Z</time>
      </trkpt>
      <trkpt lat="45.40751" lon="2.56101">
        <ele>523.71</ele>
        <time>2022-08-17T08:33:33Z</time>
      </trkpt>
      <trkpt lat="45.4075" lon="2.56107">
        <ele>523.71</ele>
        <time>2022-08-17T08:33:34Z</time>
      </trkpt>
      <trkpt lat="45.40751" lon="2.56116">
        <ele>523.73</ele>
        <time>2022-08-17T08:33:35Z</time>
      </trkpt>
      <trkpt lat="45.40752" lon="2.56125">
        <ele>523.74</ele>
        <time>2022-08-17T08:33:36Z</time>
      </trkpt>
      <trkpt lat="45.40754" lon="2.56135">
        <ele>526.36</ele>
        <time>2022-08-17T08:33:37Z</time>
      </trkpt>
      <trkpt lat="45.40757" lon="2.56146">
        <ele>526.37</ele>
        <time>2022-08-17T08:33:38Z</time>
      </trkpt>
      <trkpt lat="45.40764" lon="2.56169">
        <ele>527.61</ele>
        <time>2022-08-17T08:33:40Z</time>
      </trkpt>
      <trkpt lat="45.40784" lon="2.56242">
        <ele>529.62</ele>
        <time>2022-08-17T08:33:46Z</time>
      </trkpt>
      <trkpt lat="45.40786" lon="2.56266">
        <ele>529.6</ele>
        <time>2022-08-17T08:33:48Z</time>
      </trkpt>
      <trkpt lat="45.40787" lon="2.56278">
        <ele>529.67</ele>
        <time>2022-08-17T08:33:49Z</time>
      </trkpt>
      <trkpt lat="45.40787" lon="2.56304">
        <ele>531.35</ele>
        <time>2022-08-17T08:33:51Z</time>
      </trkpt>
      <trkpt lat="45.40787" lon="2.56317">
        <ele>531.35</ele>
        <time>2022-08-17T08:33:52Z</time>
      </trkpt>
      <trkpt lat="45.40782" lon="2.5637">
        <ele>534.94</ele>
        <time>2022-08-17T08:33:56Z</time>
      </trkpt>
      <trkpt lat="45.40779" lon="2.56397">
        <ele>535.94</ele>
        <time>2022-08-17T08:33:58Z</time>
      </trkpt>
      <trkpt lat="45.4078" lon="2.5641">
        <ele>537.14</ele>
        <time>2022-08-17T08:33:59Z</time>
      </trkpt>
      <trkpt lat="45.40782" lon="2.56421">
        <ele>538.14</ele>
        <time>2022-08-17T08:34:00Z</time>
      </trkpt>
      <trkpt lat="45.40787" lon="2.56433">
        <ele>538.26</ele>
        <time>2022-08-17T08:34:01Z</time>
      </trkpt>
      <trkpt lat="45.40792" lon="2.56444">
        <ele>539.25</ele>
        <time>2022-08-17T08:34:02Z</time>
      </trkpt>
      <trkpt lat="45.40797" lon="2.56456">
        <ele>539.24</ele>
        <time>2022-08-17T08:34:03Z</time>
      </trkpt>
      <trkpt lat="45.40803" lon="2.56468">
        <ele>540.19</ele>
        <time>2022-08-17T08:34:04Z</time>
      </trkpt>
      <trkpt lat="45.40806" lon="2.56481">
        <ele>540.26</ele>
        <time>2022-08-17T08:34:05Z</time>
      </trkpt>
      <trkpt lat="45.40808" lon="2.56495">
        <ele>540.27</ele>
        <time>2022-08-17T08:34:06Z</time>
      </trkpt>
      <trkpt lat="45.4081" lon="2.56509">
        <ele>541.16</ele>
        <time>2022-08-17T08:34:07Z</time>
      </trkpt>
      <trkpt lat="45.40812" lon="2.56538">
        <ele>542.07</ele>
        <time>2022-08-17T08:34:09Z</time>
      </trkpt>
      <trkpt lat="45.40816" lon="2.56567">
        <ele>542.98</ele>
        <time>2022-08-17T08:34:11Z</time>
      </trkpt>
      <trkpt lat="45.4082" lon="2.5658">
        <ele>542.92</ele>
        <time>2022-08-17T08:34:12Z</time>
      </trkpt>
      <trkpt lat="45.40826" lon="2.56593">
        <ele>543.02</ele>
        <time>2022-08-17T08:34:13Z</time>
      </trkpt>
      <trkpt lat="45.40833" lon="2.56604">
        <ele>542.94</ele>
        <time>2022-08-17T08:34:14Z</time>
      </trkpt>
      <trkpt lat="45.4084" lon="2.56615">
        <ele>542.82</ele>
        <time>2022-08-17T08:34:15Z</time>
      </trkpt>
      <trkpt lat="45.40847" lon="2.56626">
        <ele>540.25</ele>
        <time>2022-08-17T08:34:16Z</time>
      </trkpt>
      <trkpt lat="45.40853" lon="2.56637">
        <ele>540.25</ele>
        <time>2022-08-17T08:34:17Z</time>
      </trkpt>
      <trkpt lat="45.40858" lon="2.56648">
        <ele>540.24</ele>
        <time>2022-08-17T08:34:18Z</time>
      </trkpt>
      <trkpt lat="45.40865" lon="2.5667">
        <ele>538.73</ele>
        <time>2022-08-17T08:34:20Z</time>
      </trkpt>
      <trkpt lat="45.4088" lon="2.56704">
        <ele>537.69</ele>
        <time>2022-08-17T08:34:23Z</time>
      </trkpt>
      <trkpt lat="45.40918" lon="2.56772">
        <ele>535.15</ele>
        <time>2022-08-17T08:34:29Z</time>
      </trkpt>
      <trkpt lat="45.40922" lon="2.56784">
        <ele>533.6</ele>
        <time>2022-08-17T08:34:30Z</time>
      </trkpt>
      <trkpt lat="45.40925" lon="2.56796">
        <ele>533.6</ele>
        <time>2022-08-17T08:34:31Z</time>
      </trkpt>
      <trkpt lat="45.40926" lon="2.56809">
        <ele>533.65</ele>
        <time>2022-08-17T08:34:32Z</time>
      </trkpt>
      <trkpt lat="45.40926" lon="2.56823">
        <ele>533.6</ele>
        <time>2022-08-17T08:34:33Z</time>
      </trkpt>
      <trkpt lat="45.40924" lon="2.56837">
        <ele>533.64</ele>
        <time>2022-08-17T08:34:34Z</time>
      </trkpt>
      <trkpt lat="45.40923" lon="2.56851">
        <ele>533.64</ele>
        <time>2022-08-17T08:34:35Z</time>
      </trkpt>
      <trkpt lat="45.40924" lon="2.56876">
        <ele>533.67</ele>
        <time>2022-08-17T08:34:37Z</time>
      </trkpt>
      <trkpt lat="45.40926" lon="2.569">
        <ele>533.68</ele>
        <time>2022-08-17T08:34:39Z</time>
      </trkpt>
      <trkpt lat="45.4093" lon="2.56912">
        <ele>533.7</ele>
        <time>2022-08-17T08:34:40Z</time>
      </trkpt>
      <trkpt lat="45.40935" lon="2.56923">
        <ele>533.71</ele>
        <time>2022-08-17T08:34:41Z</time>
      </trkpt>
      <trkpt lat="45.4094" lon="2.56933">
        <ele>536.16</ele>
        <time>2022-08-17T08:34:42Z</time>
      </trkpt>
      <trkpt lat="45.40946" lon="2.56943">
        <ele>536.16</ele>
        <time>2022-08-17T08:34:43Z</time>
      </trkpt>
      <trkpt lat="45.40953" lon="2.56953">
        <ele>536.16</ele>
        <time>2022-08-17T08:34:44Z</time>
      </trkpt>
      <trkpt lat="45.40967" lon="2.56975">
        <ele>537.14</ele>
        <time>2022-08-17T08:34:46Z</time>
      </trkpt>
      <trkpt lat="45.40973" lon="2.56986">
        <ele>537.15</ele>
        <time>2022-08-17T08:34:47Z</time>
      </trkpt>
      <trkpt lat="45.40978" lon="2.56998">
        <ele>538.66</ele>
        <time>2022-08-17T08:34:48Z</time>
      </trkpt>
      <trkpt lat="45.40982" lon="2.5701">
        <ele>538.66</ele>
        <time>2022-08-17T08:34:49Z</time>
      </trkpt>
      <trkpt lat="45.40986" lon="2.57022">
        <ele>539.52</ele>
        <time>2022-08-17T08:34:50Z</time>
      </trkpt>
      <trkpt lat="45.40992" lon="2.57046">
        <ele>539.54</ele>
        <time>2022-08-17T08:34:52Z</time>
      </trkpt>
      <trkpt lat="45.40993" lon="2.57058">
        <ele>539.55</ele>
        <time>2022-08-17T08:34:53Z</time>
      </trkpt>
      <trkpt lat="45.40993" lon="2.57072">
        <ele>539.55</ele>
        <time>2022-08-17T08:34:54Z</time>
      </trkpt>
      <trkpt lat="45.40994" lon="2.57085">
        <ele>539.59</ele>
        <time>2022-08-17T08:34:55Z</time>
      </trkpt>
      <trkpt lat="45.40996" lon="2.57098">
        <ele>539.6</ele>
        <time>2022-08-17T08:34:56Z</time>
      </trkpt>
      <trkpt lat="45.40999" lon="2.57111">
        <ele>539.63</ele>
        <time>2022-08-17T08:34:57Z</time>
      </trkpt>
      <trkpt lat="45.41001" lon="2.57124">
        <ele>540.5</ele>
        <time>2022-08-17T08:34:58Z</time>
      </trkpt>
      <trkpt lat="45.41001" lon="2.57137">
        <ele>540.47</ele>
        <time>2022-08-17T08:34:59Z</time>
      </trkpt>
      <trkpt lat="45.41001" lon="2.57151">
        <ele>540.5</ele>
        <time>2022-08-17T08:35:00Z</time>
      </trkpt>
      <trkpt lat="45.41001" lon="2.57165">
        <ele>540.49</ele>
        <time>2022-08-17T08:35:01Z</time>
      </trkpt>
      <trkpt lat="45.41002" lon="2.57178">
        <ele>540.51</ele>
        <time>2022-08-17T08:35:02Z</time>
      </trkpt>
      <trkpt lat="45.41006" lon="2.5719">
        <ele>540.53</ele>
        <time>2022-08-17T08:35:03Z</time>
      </trkpt>
      <trkpt lat="45.41011" lon="2.57201">
        <ele>540.56</ele>
        <time>2022-08-17T08:35:04Z</time>
      </trkpt>
      <trkpt lat="45.41017" lon="2.5721">
        <ele>540.54</ele>
        <time>2022-08-17T08:35:05Z</time>
      </trkpt>
      <trkpt lat="45.41024" lon="2.57217">
        <ele>540.56</ele>
        <time>2022-08-17T08:35:06Z</time>
      </trkpt>
      <trkpt lat="45.41032" lon="2.57222">
        <ele>541.12</ele>
        <time>2022-08-17T08:35:07Z</time>
      </trkpt>
      <trkpt lat="45.41041" lon="2.57225">
        <ele>541.12</ele>
        <time>2022-08-17T08:35:08Z</time>
      </trkpt>
      <trkpt lat="45.4105" lon="2.57229">
        <ele>541.15</ele>
        <time>2022-08-17T08:35:09Z</time>
      </trkpt>
      <trkpt lat="45.41058" lon="2.57234">
        <ele>541.97</ele>
        <time>2022-08-17T08:35:10Z</time>
      </trkpt>
      <trkpt lat="45.41066" lon="2.5724">
        <ele>541.98</ele>
        <time>2022-08-17T08:35:11Z</time>
      </trkpt>
      <trkpt lat="45.41073" lon="2.57248">
        <ele>542.01</ele>
        <time>2022-08-17T08:35:12Z</time>
      </trkpt>
      <trkpt lat="45.4108" lon="2.57257">
        <ele>542</ele>
        <time>2022-08-17T08:35:13Z</time>
      </trkpt>
      <trkpt lat="45.41087" lon="2.57267">
        <ele>542</ele>
        <time>2022-08-17T08:35:14Z</time>
      </trkpt>
      <trkpt lat="45.41092" lon="2.57279">
        <ele>542.03</ele>
        <time>2022-08-17T08:35:15Z</time>
      </trkpt>
      <trkpt lat="45.41095" lon="2.57292">
        <ele>542.02</ele>
        <time>2022-08-17T08:35:16Z</time>
      </trkpt>
      <trkpt lat="45.41096" lon="2.57304">
        <ele>542.06</ele>
        <time>2022-08-17T08:35:17Z</time>
      </trkpt>
      <trkpt lat="45.41096" lon="2.57317">
        <ele>542.06</ele>
        <time>2022-08-17T08:35:18Z</time>
      </trkpt>
      <trkpt lat="45.41096" lon="2.5733">
        <ele>542.01</ele>
        <time>2022-08-17T08:35:19Z</time>
      </trkpt>
      <trkpt lat="45.41097" lon="2.57344">
        <ele>543.26</ele>
        <time>2022-08-17T08:35:20Z</time>
      </trkpt>
      <trkpt lat="45.41098" lon="2.57358">
        <ele>543.28</ele>
        <time>2022-08-17T08:35:21Z</time>
      </trkpt>
      <trkpt lat="45.411" lon="2.57372">
        <ele>543.28</ele>
        <time>2022-08-17T08:35:22Z</time>
      </trkpt>
      <trkpt lat="45.41103" lon="2.57385">
        <ele>543.27</ele>
        <time>2022-08-17T08:35:23Z</time>
      </trkpt>
      <trkpt lat="45.41107" lon="2.57399">
        <ele>543.29</ele>
        <time>2022-08-17T08:35:24Z</time>
      </trkpt>
      <trkpt lat="45.41113" lon="2.57426">
        <ele>544.18</ele>
        <time>2022-08-17T08:35:26Z</time>
      </trkpt>
      <trkpt lat="45.41114" lon="2.57439">
        <ele>544.95</ele>
        <time>2022-08-17T08:35:27Z</time>
      </trkpt>
      <trkpt lat="45.41114" lon="2.57454">
        <ele>544.97</ele>
        <time>2022-08-17T08:35:28Z</time>
      </trkpt>
      <trkpt lat="45.41113" lon="2.57471">
        <ele>546.78</ele>
        <time>2022-08-17T08:35:29Z</time>
      </trkpt>
      <trkpt lat="45.41111" lon="2.57489">
        <ele>548.08</ele>
        <time>2022-08-17T08:35:30Z</time>
      </trkpt>
      <trkpt lat="45.41109" lon="2.57507">
        <ele>548.16</ele>
        <time>2022-08-17T08:35:31Z</time>
      </trkpt>
      <trkpt lat="45.41108" lon="2.57524">
        <ele>548.18</ele>
        <time>2022-08-17T08:35:32Z</time>
      </trkpt>
      <trkpt lat="45.41106" lon="2.5754">
        <ele>550.27</ele>
        <time>2022-08-17T08:35:33Z</time>
      </trkpt>
      <trkpt lat="45.41105" lon="2.57556">
        <ele>550.27</ele>
        <time>2022-08-17T08:35:34Z</time>
      </trkpt>
      <trkpt lat="45.41118" lon="2.5768">
        <ele>550.81</ele>
        <time>2022-08-17T08:35:42Z</time>
      </trkpt>
      <trkpt lat="45.41145" lon="2.57863">
        <ele>550.86</ele>
        <time>2022-08-17T08:35:54Z</time>
      </trkpt>
      <trkpt lat="45.41155" lon="2.57915">
        <ele>552.77</ele>
        <time>2022-08-17T08:35:57Z</time>
      </trkpt>
      <trkpt lat="45.4116" lon="2.57947">
        <ele>554.51</ele>
        <time>2022-08-17T08:35:59Z</time>
      </trkpt>
      <trkpt lat="45.41161" lon="2.57962">
        <ele>555.73</ele>
        <time>2022-08-17T08:36:00Z</time>
      </trkpt>
      <trkpt lat="45.41163" lon="2.57977">
        <ele>555.74</ele>
        <time>2022-08-17T08:36:01Z</time>
      </trkpt>
      <trkpt lat="45.41167" lon="2.57991">
        <ele>557.34</ele>
        <time>2022-08-17T08:36:02Z</time>
      </trkpt>
      <trkpt lat="45.41172" lon="2.58004">
        <ele>557.34</ele>
        <time>2022-08-17T08:36:03Z</time>
      </trkpt>
      <trkpt lat="45.41177" lon="2.58018">
        <ele>557.38</ele>
        <time>2022-08-17T08:36:04Z</time>
      </trkpt>
      <trkpt lat="45.41186" lon="2.58045">
        <ele>559.01</ele>
        <time>2022-08-17T08:36:06Z</time>
      </trkpt>
      <trkpt lat="45.4119" lon="2.5806">
        <ele>559.01</ele>
        <time>2022-08-17T08:36:07Z</time>
      </trkpt>
      <trkpt lat="45.41192" lon="2.58075">
        <ele>559.02</ele>
        <time>2022-08-17T08:36:08Z</time>
      </trkpt>
      <trkpt lat="45.41198" lon="2.58103">
        <ele>561.63</ele>
        <time>2022-08-17T08:36:10Z</time>
      </trkpt>
      <trkpt lat="45.41205" lon="2.58132">
        <ele>562.59</ele>
        <time>2022-08-17T08:36:12Z</time>
      </trkpt>
      <trkpt lat="45.41226" lon="2.58218">
        <ele>564.39</ele>
        <time>2022-08-17T08:36:18Z</time>
      </trkpt>
      <trkpt lat="45.41226" lon="2.58231">
        <ele>564.39</ele>
        <time>2022-08-17T08:36:19Z</time>
      </trkpt>
      <trkpt lat="45.41225" lon="2.58243">
        <ele>564.38</ele>
        <time>2022-08-17T08:36:20Z</time>
      </trkpt>
      <trkpt lat="45.41222" lon="2.58255">
        <ele>564.38</ele>
        <time>2022-08-17T08:36:21Z</time>
      </trkpt>
      <trkpt lat="45.41216" lon="2.58266">
        <ele>565.28</ele>
        <time>2022-08-17T08:36:22Z</time>
      </trkpt>
      <trkpt lat="45.41208" lon="2.58275">
        <ele>565.31</ele>
        <time>2022-08-17T08:36:23Z</time>
      </trkpt>
      <trkpt lat="45.41201" lon="2.58284">
        <ele>565.33</ele>
        <time>2022-08-17T08:36:24Z</time>
      </trkpt>
      <trkpt lat="45.41194" lon="2.58294">
        <ele>565.31</ele>
        <time>2022-08-17T08:36:25Z</time>
      </trkpt>
      <trkpt lat="45.41187" lon="2.58306">
        <ele>565.34</ele>
        <time>2022-08-17T08:36:26Z</time>
      </trkpt>
      <trkpt lat="45.41182" lon="2.5832">
        <ele>565.03</ele>
        <time>2022-08-17T08:36:27Z</time>
      </trkpt>
      <trkpt lat="45.41178" lon="2.58336">
        <ele>565.8</ele>
        <time>2022-08-17T08:36:28Z</time>
      </trkpt>
      <trkpt lat="45.41174" lon="2.58353">
        <ele>565.82</ele>
        <time>2022-08-17T08:36:29Z</time>
      </trkpt>
      <trkpt lat="45.4117" lon="2.58371">
        <ele>565.82</ele>
        <time>2022-08-17T08:36:30Z</time>
      </trkpt>
      <trkpt lat="45.41158" lon="2.58475">
        <ele>565.79</ele>
        <time>2022-08-17T08:36:37Z</time>
      </trkpt>
      <trkpt lat="45.41159" lon="2.58488">
        <ele>565.8</ele>
        <time>2022-08-17T08:36:38Z</time>
      </trkpt>
      <trkpt lat="45.41162" lon="2.58501">
        <ele>565.78</ele>
        <time>2022-08-17T08:36:39Z</time>
      </trkpt>
      <trkpt lat="45.41167" lon="2.58514">
        <ele>565.78</ele>
        <time>2022-08-17T08:36:40Z</time>
      </trkpt>
      <trkpt lat="45.41173" lon="2.58525">
        <ele>565.79</ele>
        <time>2022-08-17T08:36:41Z</time>
      </trkpt>
      <trkpt lat="45.4118" lon="2.58536">
        <ele>565.78</ele>
        <time>2022-08-17T08:36:42Z</time>
      </trkpt>
      <trkpt lat="45.41214" lon="2.58588">
        <ele>563.06</ele>
        <time>2022-08-17T08:36:47Z</time>
      </trkpt>
      <trkpt lat="45.41267" lon="2.58677">
        <ele>561.62</ele>
        <time>2022-08-17T08:36:56Z</time>
      </trkpt>
      <trkpt lat="45.41294" lon="2.58724">
        <ele>564.05</ele>
        <time>2022-08-17T08:37:01Z</time>
      </trkpt>
      <trkpt lat="45.413" lon="2.5873">
        <ele>565.08</ele>
        <time>2022-08-17T08:37:02Z</time>
      </trkpt>
      <trkpt lat="45.41307" lon="2.58734">
        <ele>566.09</ele>
        <time>2022-08-17T08:37:03Z</time>
      </trkpt>
      <trkpt lat="45.41314" lon="2.58735">
        <ele>567.09</ele>
        <time>2022-08-17T08:37:04Z</time>
      </trkpt>
      <trkpt lat="45.41323" lon="2.58735">
        <ele>568.12</ele>
        <time>2022-08-17T08:37:05Z</time>
      </trkpt>
      <trkpt lat="45.41332" lon="2.58734">
        <ele>569.7</ele>
        <time>2022-08-17T08:37:06Z</time>
      </trkpt>
      <trkpt lat="45.41341" lon="2.58732">
        <ele>569.72</ele>
        <time>2022-08-17T08:37:07Z</time>
      </trkpt>
      <trkpt lat="45.4136" lon="2.58727">
        <ele>573.37</ele>
        <time>2022-08-17T08:37:09Z</time>
      </trkpt>
      <trkpt lat="45.41388" lon="2.58718">
        <ele>576.44</ele>
        <time>2022-08-17T08:37:12Z</time>
      </trkpt>
      <trkpt lat="45.41406" lon="2.58715">
        <ele>578.94</ele>
        <time>2022-08-17T08:37:14Z</time>
      </trkpt>
      <trkpt lat="45.41432" lon="2.58716">
        <ele>581.1</ele>
        <time>2022-08-17T08:37:17Z</time>
      </trkpt>
      <trkpt lat="45.41442" lon="2.58715">
        <ele>583.02</ele>
        <time>2022-08-17T08:37:18Z</time>
      </trkpt>
      <trkpt lat="45.4145" lon="2.58712">
        <ele>583.88</ele>
        <time>2022-08-17T08:37:19Z</time>
      </trkpt>
      <trkpt lat="45.41457" lon="2.58707">
        <ele>583.98</ele>
        <time>2022-08-17T08:37:20Z</time>
      </trkpt>
      <trkpt lat="45.41465" lon="2.58703">
        <ele>585.71</ele>
        <time>2022-08-17T08:37:21Z</time>
      </trkpt>
      <trkpt lat="45.41472" lon="2.58702">
        <ele>585.72</ele>
        <time>2022-08-17T08:37:22Z</time>
      </trkpt>
      <trkpt lat="45.41479" lon="2.58702">
        <ele>587.58</ele>
        <time>2022-08-17T08:37:23Z</time>
      </trkpt>
      <trkpt lat="45.41485" lon="2.58702">
        <ele>587.57</ele>
        <time>2022-08-17T08:37:24Z</time>
      </trkpt>
      <trkpt lat="45.41493" lon="2.58703">
        <ele>589.17</ele>
        <time>2022-08-17T08:37:25Z</time>
      </trkpt>
      <trkpt lat="45.41501" lon="2.58703">
        <ele>590</ele>
        <time>2022-08-17T08:37:26Z</time>
      </trkpt>
      <trkpt lat="45.41509" lon="2.58702">
        <ele>590.09</ele>
        <time>2022-08-17T08:37:27Z</time>
      </trkpt>
      <trkpt lat="45.41516" lon="2.58699">
        <ele>591.44</ele>
        <time>2022-08-17T08:37:28Z</time>
      </trkpt>
      <trkpt lat="45.41523" lon="2.58696">
        <ele>592.76</ele>
        <time>2022-08-17T08:37:29Z</time>
      </trkpt>
      <trkpt lat="45.41529" lon="2.58688">
        <ele>593.41</ele>
        <time>2022-08-17T08:37:30Z</time>
      </trkpt>
      <trkpt lat="45.41534" lon="2.5868">
        <ele>594.22</ele>
        <time>2022-08-17T08:37:31Z</time>
      </trkpt>
      <trkpt lat="45.4154" lon="2.5867">
        <ele>595.26</ele>
        <time>2022-08-17T08:37:32Z</time>
      </trkpt>
      <trkpt lat="45.4155" lon="2.5865">
        <ele>596.29</ele>
        <time>2022-08-17T08:37:34Z</time>
      </trkpt>
      <trkpt lat="45.41567" lon="2.58617">
        <ele>600.4</ele>
        <time>2022-08-17T08:37:37Z</time>
      </trkpt>
      <trkpt lat="45.41572" lon="2.58605">
        <ele>600.37</ele>
        <time>2022-08-17T08:37:38Z</time>
      </trkpt>
      <trkpt lat="45.41581" lon="2.58581">
        <ele>603.43</ele>
        <time>2022-08-17T08:37:40Z</time>
      </trkpt>
      <trkpt lat="45.41586" lon="2.5857">
        <ele>603.6</ele>
        <time>2022-08-17T08:37:41Z</time>
      </trkpt>
      <trkpt lat="45.41591" lon="2.5856">
        <ele>605.27</ele>
        <time>2022-08-17T08:37:42Z</time>
      </trkpt>
      <trkpt lat="45.41597" lon="2.58551">
        <ele>605.27</ele>
        <time>2022-08-17T08:37:43Z</time>
      </trkpt>
      <trkpt lat="45.41615" lon="2.58521">
        <ele>608.45</ele>
        <time>2022-08-17T08:37:46Z</time>
      </trkpt>
      <trkpt lat="45.41633" lon="2.58496">
        <ele>611.53</ele>
        <time>2022-08-17T08:37:49Z</time>
      </trkpt>
      <trkpt lat="45.41641" lon="2.58491">
        <ele>611.61</ele>
        <time>2022-08-17T08:37:50Z</time>
      </trkpt>
      <trkpt lat="45.41657" lon="2.58483">
        <ele>613.32</ele>
        <time>2022-08-17T08:37:52Z</time>
      </trkpt>
      <trkpt lat="45.41664" lon="2.58478">
        <ele>614.63</ele>
        <time>2022-08-17T08:37:53Z</time>
      </trkpt>
      <trkpt lat="45.41671" lon="2.58471">
        <ele>616.21</ele>
        <time>2022-08-17T08:37:54Z</time>
      </trkpt>
      <trkpt lat="45.41678" lon="2.58464">
        <ele>616.19</ele>
        <time>2022-08-17T08:37:55Z</time>
      </trkpt>
      <trkpt lat="45.41684" lon="2.58456">
        <ele>617.79</ele>
        <time>2022-08-17T08:37:56Z</time>
      </trkpt>
      <trkpt lat="45.41689" lon="2.58445">
        <ele>617.77</ele>
        <time>2022-08-17T08:37:57Z</time>
      </trkpt>
      <trkpt lat="45.41693" lon="2.58434">
        <ele>619.25</ele>
        <time>2022-08-17T08:37:58Z</time>
      </trkpt>
      <trkpt lat="45.41696" lon="2.58422">
        <ele>620.21</ele>
        <time>2022-08-17T08:37:59Z</time>
      </trkpt>
      <trkpt lat="45.41708" lon="2.58375">
        <ele>624.24</ele>
        <time>2022-08-17T08:38:03Z</time>
      </trkpt>
      <trkpt lat="45.41716" lon="2.58344">
        <ele>626.61</ele>
        <time>2022-08-17T08:38:06Z</time>
      </trkpt>
      <trkpt lat="45.41719" lon="2.58339">
        <ele>626.61</ele>
        <time>2022-08-17T08:38:07Z</time>
      </trkpt>
      <trkpt lat="45.41724" lon="2.58338">
        <ele>627.71</ele>
        <time>2022-08-17T08:38:08Z</time>
      </trkpt>
      <trkpt lat="45.41728" lon="2.58341">
        <ele>628.52</ele>
        <time>2022-08-17T08:38:09Z</time>
      </trkpt>
      <trkpt lat="45.41732" lon="2.58346">
        <ele>629.53</ele>
        <time>2022-08-17T08:38:10Z</time>
      </trkpt>
      <trkpt lat="45.41735" lon="2.58352">
        <ele>630.53</ele>
        <time>2022-08-17T08:38:11Z</time>
      </trkpt>
      <trkpt lat="45.41738" lon="2.58358">
        <ele>630.54</ele>
        <time>2022-08-17T08:38:12Z</time>
      </trkpt>
      <trkpt lat="45.41741" lon="2.58365">
        <ele>632.29</ele>
        <time>2022-08-17T08:38:13Z</time>
      </trkpt>
      <trkpt lat="45.41746" lon="2.58373">
        <ele>633.11</ele>
        <time>2022-08-17T08:38:14Z</time>
      </trkpt>
      <trkpt lat="45.4175" lon="2.58381">
        <ele>633.21</ele>
        <time>2022-08-17T08:38:15Z</time>
      </trkpt>
      <trkpt lat="45.41765" lon="2.58411">
        <ele>636.54</ele>
        <time>2022-08-17T08:38:18Z</time>
      </trkpt>
      <trkpt lat="45.41771" lon="2.58421">
        <ele>636.69</ele>
        <time>2022-08-17T08:38:19Z</time>
      </trkpt>
      <trkpt lat="45.41795" lon="2.58471">
        <ele>639.2</ele>
        <time>2022-08-17T08:38:24Z</time>
      </trkpt>
      <trkpt lat="45.41801" lon="2.58481">
        <ele>641.14</ele>
        <time>2022-08-17T08:38:25Z</time>
      </trkpt>
      <trkpt lat="45.41806" lon="2.58492">
        <ele>641.15</ele>
        <time>2022-08-17T08:38:26Z</time>
      </trkpt>
      <trkpt lat="45.41818" lon="2.58512">
        <ele>643.42</ele>
        <time>2022-08-17T08:38:28Z</time>
      </trkpt>
      <trkpt lat="45.41826" lon="2.5852">
        <ele>643.4</ele>
        <time>2022-08-17T08:38:29Z</time>
      </trkpt>
      <trkpt lat="45.41843" lon="2.58534">
        <ele>645.12</ele>
        <time>2022-08-17T08:38:31Z</time>
      </trkpt>
      <trkpt lat="45.41853" lon="2.58539">
        <ele>645.12</ele>
        <time>2022-08-17T08:38:32Z</time>
      </trkpt>
      <trkpt lat="45.41863" lon="2.58542">
        <ele>645.19</ele>
        <time>2022-08-17T08:38:33Z</time>
      </trkpt>
      <trkpt lat="45.41881" lon="2.58547">
        <ele>646.26</ele>
        <time>2022-08-17T08:38:35Z</time>
      </trkpt>
      <trkpt lat="45.41889" lon="2.58549">
        <ele>646.27</ele>
        <time>2022-08-17T08:38:36Z</time>
      </trkpt>
      <trkpt lat="45.41895" lon="2.58553">
        <ele>647.6</ele>
        <time>2022-08-17T08:38:37Z</time>
      </trkpt>
      <trkpt lat="45.419" lon="2.58558">
        <ele>647.59</ele>
        <time>2022-08-17T08:38:38Z</time>
      </trkpt>
      <trkpt lat="45.41904" lon="2.58563">
        <ele>647.66</ele>
        <time>2022-08-17T08:38:39Z</time>
      </trkpt>
      <trkpt lat="45.41907" lon="2.58569">
        <ele>649</ele>
        <time>2022-08-17T08:38:41Z</time>
      </trkpt>
      <trkpt lat="45.41908" lon="2.58574">
        <ele>649.96</ele>
        <time>2022-08-17T08:38:44Z</time>
      </trkpt>
      <trkpt lat="45.41907" lon="2.58575">
        <ele>649.97</ele>
        <time>2022-08-17T08:38:45Z</time>
      </trkpt>
      <trkpt lat="45.41903" lon="2.58577">
        <ele>649.83</ele>
        <time>2022-08-17T08:38:53Z</time>
      </trkpt>
      <trkpt lat="45.41901" lon="2.58575">
        <ele>649.78</ele>
        <time>2022-08-17T08:38:54Z</time>
      </trkpt>
      <trkpt lat="45.41892" lon="2.58566">
        <ele>649.72</ele>
        <time>2022-08-17T08:38:56Z</time>
      </trkpt>
      <trkpt lat="45.41887" lon="2.5856">
        <ele>649.72</ele>
        <time>2022-08-17T08:38:57Z</time>
      </trkpt>
      <trkpt lat="45.41881" lon="2.58557">
        <ele>649.72</ele>
        <time>2022-08-17T08:38:58Z</time>
      </trkpt>
      <trkpt lat="45.41874" lon="2.58554">
        <ele>647.43</ele>
        <time>2022-08-17T08:38:59Z</time>
      </trkpt>
      <trkpt lat="45.41865" lon="2.58553">
        <ele>647.43</ele>
        <time>2022-08-17T08:39:00Z</time>
      </trkpt>
      <trkpt lat="45.41858" lon="2.58551">
        <ele>645.8</ele>
        <time>2022-08-17T08:39:01Z</time>
      </trkpt>
      <trkpt lat="45.41851" lon="2.58549">
        <ele>645.76</ele>
        <time>2022-08-17T08:39:02Z</time>
      </trkpt>
      <trkpt lat="45.41842" lon="2.58545">
        <ele>645.77</ele>
        <time>2022-08-17T08:39:03Z</time>
      </trkpt>
      <trkpt lat="45.41835" lon="2.58538">
        <ele>644.67</ele>
        <time>2022-08-17T08:39:04Z</time>
      </trkpt>
      <trkpt lat="45.41814" lon="2.5852">
        <ele>643.88</ele>
        <time>2022-08-17T08:39:07Z</time>
      </trkpt>
      <trkpt lat="45.41809" lon="2.58513">
        <ele>643.84</ele>
        <time>2022-08-17T08:39:08Z</time>
      </trkpt>
      <trkpt lat="45.418" lon="2.58499">
        <ele>642.82</ele>
        <time>2022-08-17T08:39:10Z</time>
      </trkpt>
      <trkpt lat="45.41793" lon="2.58483">
        <ele>641.29</ele>
        <time>2022-08-17T08:39:12Z</time>
      </trkpt>
      <trkpt lat="45.41791" lon="2.58476">
        <ele>639.68</ele>
        <time>2022-08-17T08:39:13Z</time>
      </trkpt>
      <trkpt lat="45.41788" lon="2.5847">
        <ele>639.6</ele>
        <time>2022-08-17T08:39:14Z</time>
      </trkpt>
      <trkpt lat="45.41786" lon="2.58466">
        <ele>638.59</ele>
        <time>2022-08-17T08:39:15Z</time>
      </trkpt>
      <trkpt lat="45.41786" lon="2.58461">
        <ele>638.64</ele>
        <time>2022-08-17T08:39:16Z</time>
      </trkpt>
      <trkpt lat="45.41787" lon="2.58458">
        <ele>638.59</ele>
        <time>2022-08-17T08:39:17Z</time>
      </trkpt>
      <trkpt lat="45.41788" lon="2.58456">
        <ele>637.37</ele>
        <time>2022-08-17T08:39:18Z</time>
      </trkpt>
      <trkpt lat="45.41789" lon="2.58456">
        <ele>637.41</ele>
        <time>2022-08-17T08:39:19Z</time>
      </trkpt>
      <trkpt lat="45.41789" lon="2.58458">
        <ele>637.1</ele>
        <time>2022-08-17T08:39:21Z</time>
      </trkpt>
      <trkpt lat="45.4179" lon="2.58461">
        <ele>637.1</ele>
        <time>2022-08-17T08:39:22Z</time>
      </trkpt>
      <trkpt lat="45.41791" lon="2.58465">
        <ele>637.07</ele>
        <time>2022-08-17T08:39:23Z</time>
      </trkpt>
      <trkpt lat="45.41793" lon="2.5847">
        <ele>636.7</ele>
        <time>2022-08-17T08:39:24Z</time>
      </trkpt>
      <trkpt lat="45.41795" lon="2.58476">
        <ele>636.75</ele>
        <time>2022-08-17T08:39:25Z</time>
      </trkpt>
      <trkpt lat="45.41809" lon="2.58505">
        <ele>637.09</ele>
        <time>2022-08-17T08:39:30Z</time>
      </trkpt>
      <trkpt lat="45.41814" lon="2.58509">
        <ele>637.07</ele>
        <time>2022-08-17T08:39:31Z</time>
      </trkpt>
      <trkpt lat="45.4183" lon="2.58518">
        <ele>637.06</ele>
        <time>2022-08-17T08:39:34Z</time>
      </trkpt>
      <trkpt lat="45.41845" lon="2.58521">
        <ele>637.06</ele>
        <time>2022-08-17T08:39:36Z</time>
      </trkpt>
      <trkpt lat="45.41853" lon="2.58522">
        <ele>636.28</ele>
        <time>2022-08-17T08:39:37Z</time>
      </trkpt>
      <trkpt lat="45.41896" lon="2.58529">
        <ele>636.24</ele>
        <time>2022-08-17T08:39:43Z</time>
      </trkpt>
      <trkpt lat="45.41901" lon="2.58532">
        <ele>636.22</ele>
        <time>2022-08-17T08:39:44Z</time>
      </trkpt>
      <trkpt lat="45.41906" lon="2.58535">
        <ele>636.27</ele>
        <time>2022-08-17T08:39:45Z</time>
      </trkpt>
      <trkpt lat="45.41911" lon="2.58539">
        <ele>636.28</ele>
        <time>2022-08-17T08:39:46Z</time>
      </trkpt>
      <trkpt lat="45.41915" lon="2.58544">
        <ele>636.27</ele>
        <time>2022-08-17T08:39:47Z</time>
      </trkpt>
      <trkpt lat="45.41919" lon="2.5855">
        <ele>636.32</ele>
        <time>2022-08-17T08:39:48Z</time>
      </trkpt>
      <trkpt lat="45.41923" lon="2.58556">
        <ele>636.28</ele>
        <time>2022-08-17T08:39:49Z</time>
      </trkpt>
      <trkpt lat="45.41927" lon="2.58564">
        <ele>636.32</ele>
        <time>2022-08-17T08:39:50Z</time>
      </trkpt>
      <trkpt lat="45.4193" lon="2.58572">
        <ele>636.36</ele>
        <time>2022-08-17T08:39:51Z</time>
      </trkpt>
      <trkpt lat="45.41934" lon="2.58581">
        <ele>636.36</ele>
        <time>2022-08-17T08:39:52Z</time>
      </trkpt>
      <trkpt lat="45.41937" lon="2.58589">
        <ele>639.2</ele>
        <time>2022-08-17T08:39:53Z</time>
      </trkpt>
      <trkpt lat="45.4194" lon="2.58596">
        <ele>639.21</ele>
        <time>2022-08-17T08:39:54Z</time>
      </trkpt>
      <trkpt lat="45.41947" lon="2.58617">
        <ele>639.24</ele>
        <time>2022-08-17T08:39:57Z</time>
      </trkpt>
      <trkpt lat="45.41951" lon="2.58622">
        <ele>639.27</ele>
        <time>2022-08-17T08:39:58Z</time>
      </trkpt>
      <trkpt lat="45.41964" lon="2.58636">
        <ele>639.32</ele>
        <time>2022-08-17T08:40:01Z</time>
      </trkpt>
      <trkpt lat="45.41968" lon="2.5864">
        <ele>639.28</ele>
        <time>2022-08-17T08:40:02Z</time>
      </trkpt>
      <trkpt lat="45.41973" lon="2.58641">
        <ele>639.33</ele>
        <time>2022-08-17T08:40:03Z</time>
      </trkpt>
      <trkpt lat="45.41977" lon="2.58641">
        <ele>639.31</ele>
        <time>2022-08-17T08:40:04Z</time>
      </trkpt>
      <trkpt lat="45.41982" lon="2.58639">
        <ele>639.33</ele>
        <time>2022-08-17T08:40:05Z</time>
      </trkpt>
      <trkpt lat="45.41987" lon="2.58635">
        <ele>639.3</ele>
        <time>2022-08-17T08:40:06Z</time>
      </trkpt>
      <trkpt lat="45.41992" lon="2.5863">
        <ele>639.38</ele>
        <time>2022-08-17T08:40:07Z</time>
      </trkpt>
      <trkpt lat="45.41997" lon="2.58624">
        <ele>639.36</ele>
        <time>2022-08-17T08:40:08Z</time>
      </trkpt>
      <trkpt lat="45.42001" lon="2.58617">
        <ele>639.35</ele>
        <time>2022-08-17T08:40:09Z</time>
      </trkpt>
      <trkpt lat="45.42005" lon="2.58611">
        <ele>639.27</ele>
        <time>2022-08-17T08:40:10Z</time>
      </trkpt>
      <trkpt lat="45.42013" lon="2.58597">
        <ele>639.17</ele>
        <time>2022-08-17T08:40:12Z</time>
      </trkpt>
      <trkpt lat="45.42017" lon="2.58591">
        <ele>639.17</ele>
        <time>2022-08-17T08:40:13Z</time>
      </trkpt>
      <trkpt lat="45.4202" lon="2.58587">
        <ele>639.24</ele>
        <time>2022-08-17T08:40:14Z</time>
      </trkpt>
      <trkpt lat="45.42023" lon="2.58584">
        <ele>639.23</ele>
        <time>2022-08-17T08:40:15Z</time>
      </trkpt>
      <trkpt lat="45.42025" lon="2.5858">
        <ele>636.68</ele>
        <time>2022-08-17T08:40:16Z</time>
      </trkpt>
      <trkpt lat="45.42028" lon="2.58578">
        <ele>636.68</ele>
        <time>2022-08-17T08:40:17Z</time>
      </trkpt>
      <trkpt lat="45.42031" lon="2.58575">
        <ele>636.67</ele>
        <time>2022-08-17T08:40:18Z</time>
      </trkpt>
      <trkpt lat="45.42035" lon="2.58573">
        <ele>636.66</ele>
        <time>2022-08-17T08:40:19Z</time>
      </trkpt>
      <trkpt lat="45.42044" lon="2.58568">
        <ele>635.27</ele>
        <time>2022-08-17T08:40:21Z</time>
      </trkpt>
      <trkpt lat="45.4205" lon="2.58566">
        <ele>634.48</ele>
        <time>2022-08-17T08:40:22Z</time>
      </trkpt>
      <trkpt lat="45.42055" lon="2.58565">
        <ele>633.55</ele>
        <time>2022-08-17T08:40:23Z</time>
      </trkpt>
      <trkpt lat="45.4206" lon="2.58565">
        <ele>633.55</ele>
        <time>2022-08-17T08:40:24Z</time>
      </trkpt>
      <trkpt lat="45.42065" lon="2.58566">
        <ele>632.33</ele>
        <time>2022-08-17T08:40:25Z</time>
      </trkpt>
      <trkpt lat="45.42078" lon="2.5857">
        <ele>632.34</ele>
        <time>2022-08-17T08:40:28Z</time>
      </trkpt>
      <trkpt lat="45.42082" lon="2.58574">
        <ele>632.35</ele>
        <time>2022-08-17T08:40:29Z</time>
      </trkpt>
      <trkpt lat="45.42085" lon="2.58578">
        <ele>632.35</ele>
        <time>2022-08-17T08:40:30Z</time>
      </trkpt>
      <trkpt lat="45.42086" lon="2.58582">
        <ele>632.31</ele>
        <time>2022-08-17T08:40:31Z</time>
      </trkpt>
      <trkpt lat="45.42087" lon="2.58588">
        <ele>632.39</ele>
        <time>2022-08-17T08:40:32Z</time>
      </trkpt>
      <trkpt lat="45.42088" lon="2.58595">
        <ele>632.33</ele>
        <time>2022-08-17T08:40:33Z</time>
      </trkpt>
      <trkpt lat="45.42089" lon="2.58601">
        <ele>631.57</ele>
        <time>2022-08-17T08:40:34Z</time>
      </trkpt>
      <trkpt lat="45.4209" lon="2.58606">
        <ele>631.61</ele>
        <time>2022-08-17T08:40:35Z</time>
      </trkpt>
      <trkpt lat="45.42092" lon="2.58611">
        <ele>631.59</ele>
        <time>2022-08-17T08:40:36Z</time>
      </trkpt>
      <trkpt lat="45.42093" lon="2.58616">
        <ele>631.64</ele>
        <time>2022-08-17T08:40:37Z</time>
      </trkpt>
      <trkpt lat="45.42094" lon="2.58619">
        <ele>631.69</ele>
        <time>2022-08-17T08:40:38Z</time>
      </trkpt>
      <trkpt lat="45.42095" lon="2.58622">
        <ele>631.85</ele>
        <time>2022-08-17T08:40:39Z</time>
      </trkpt>
      <trkpt lat="45.42095" lon="2.58623">
        <ele>631.85</ele>
        <time>2022-08-17T08:40:40Z</time>
      </trkpt>
      <trkpt lat="45.42102" lon="2.58636">
        <ele>631.95</ele>
        <time>2022-08-17T08:41:02Z</time>
      </trkpt>
      <trkpt lat="45.42104" lon="2.58639">
        <ele>631.95</ele>
        <time>2022-08-17T08:41:03Z</time>
      </trkpt>
      <trkpt lat="45.42105" lon="2.58641">
        <ele>631.95</ele>
        <time>2022-08-17T08:41:04Z</time>
      </trkpt>
      <trkpt lat="45.42106" lon="2.58644">
        <ele>631.92</ele>
        <time>2022-08-17T08:41:05Z</time>
      </trkpt>
      <trkpt lat="45.42107" lon="2.58648">
        <ele>631.92</ele>
        <time>2022-08-17T08:41:06Z</time>
      </trkpt>
      <trkpt lat="45.4211" lon="2.58656">
        <ele>631.9</ele>
        <time>2022-08-17T08:41:08Z</time>
      </trkpt>
      <trkpt lat="45.42112" lon="2.58658">
        <ele>631.89</ele>
        <time>2022-08-17T08:41:09Z</time>
      </trkpt>
      <trkpt lat="45.42114" lon="2.58658">
        <ele>631.89</ele>
        <time>2022-08-17T08:41:10Z</time>
      </trkpt>
      <trkpt lat="45.42117" lon="2.58657">
        <ele>631.89</ele>
        <time>2022-08-17T08:41:12Z</time>
      </trkpt>
      <trkpt lat="45.42119" lon="2.58653">
        <ele>631.9</ele>
        <time>2022-08-17T08:41:13Z</time>
      </trkpt>
      <trkpt lat="45.42121" lon="2.58649">
        <ele>634.45</ele>
        <time>2022-08-17T08:41:14Z</time>
      </trkpt>
      <trkpt lat="45.42123" lon="2.58644">
        <ele>634.48</ele>
        <time>2022-08-17T08:41:15Z</time>
      </trkpt>
      <trkpt lat="45.42125" lon="2.58639">
        <ele>636.03</ele>
        <time>2022-08-17T08:41:16Z</time>
      </trkpt>
      <trkpt lat="45.42126" lon="2.58633">
        <ele>636.83</ele>
        <time>2022-08-17T08:41:17Z</time>
      </trkpt>
      <trkpt lat="45.42127" lon="2.58628">
        <ele>637.81</ele>
        <time>2022-08-17T08:41:18Z</time>
      </trkpt>
      <trkpt lat="45.42129" lon="2.58623">
        <ele>637.82</ele>
        <time>2022-08-17T08:41:19Z</time>
      </trkpt>
      <trkpt lat="45.4213" lon="2.58619">
        <ele>638.77</ele>
        <time>2022-08-17T08:41:20Z</time>
      </trkpt>
      <trkpt lat="45.42136" lon="2.58605">
        <ele>640.8</ele>
        <time>2022-08-17T08:41:27Z</time>
      </trkpt>
      <trkpt lat="45.42141" lon="2.58613">
        <ele>642.09</ele>
        <time>2022-08-17T08:41:31Z</time>
      </trkpt>
      <trkpt lat="45.42144" lon="2.5862">
        <ele>643.38</ele>
        <time>2022-08-17T08:41:33Z</time>
      </trkpt>
      <trkpt lat="45.4215" lon="2.58632">
        <ele>645.37</ele>
        <time>2022-08-17T08:41:36Z</time>
      </trkpt>
      <trkpt lat="45.42161" lon="2.58649">
        <ele>647.75</ele>
        <time>2022-08-17T08:41:40Z</time>
      </trkpt>
      <trkpt lat="45.42166" lon="2.58657">
        <ele>649.09</ele>
        <time>2022-08-17T08:41:42Z</time>
      </trkpt>
      <trkpt lat="45.42168" lon="2.5866">
        <ele>649.97</ele>
        <time>2022-08-17T08:41:43Z</time>
      </trkpt>
      <trkpt lat="45.4217" lon="2.58667">
        <ele>650.98</ele>
        <time>2022-08-17T08:41:45Z</time>
      </trkpt>
      <trkpt lat="45.42175" lon="2.58672">
        <ele>652.31</ele>
        <time>2022-08-17T08:41:47Z</time>
      </trkpt>
      <trkpt lat="45.42177" lon="2.58676">
        <ele>653.33</ele>
        <time>2022-08-17T08:41:48Z</time>
      </trkpt>
      <trkpt lat="45.42183" lon="2.58683">
        <ele>654.86</ele>
        <time>2022-08-17T08:41:50Z</time>
      </trkpt>
      <trkpt lat="45.42196" lon="2.587">
        <ele>656.54</ele>
        <time>2022-08-17T08:41:54Z</time>
      </trkpt>
      <trkpt lat="45.42204" lon="2.58718">
        <ele>659.68</ele>
        <time>2022-08-17T08:41:58Z</time>
      </trkpt>
      <trkpt lat="45.42209" lon="2.58725">
        <ele>660.53</ele>
        <time>2022-08-17T08:42:00Z</time>
      </trkpt>
      <trkpt lat="45.4221" lon="2.58732">
        <ele>661.52</ele>
        <time>2022-08-17T08:42:03Z</time>
      </trkpt>
      <trkpt lat="45.42215" lon="2.5874">
        <ele>661.48</ele>
        <time>2022-08-17T08:42:12Z</time>
      </trkpt>
      <trkpt lat="45.42225" lon="2.58749">
        <ele>663.74</ele>
        <time>2022-08-17T08:42:17Z</time>
      </trkpt>
      <trkpt lat="45.42246" lon="2.58774">
        <ele>666.16</ele>
        <time>2022-08-17T08:42:24Z</time>
      </trkpt>
      <trkpt lat="45.42251" lon="2.58806">
        <ele>668.68</ele>
        <time>2022-08-17T08:42:29Z</time>
      </trkpt>
      <trkpt lat="45.42252" lon="2.58812">
        <ele>670.22</ele>
        <time>2022-08-17T08:42:30Z</time>
      </trkpt>
      <trkpt lat="45.42255" lon="2.58825">
        <ele>671.27</ele>
        <time>2022-08-17T08:42:32Z</time>
      </trkpt>
      <trkpt lat="45.42254" lon="2.58855">
        <ele>674.98</ele>
        <time>2022-08-17T08:42:38Z</time>
      </trkpt>
      <trkpt lat="45.42251" lon="2.5886">
        <ele>675.02</ele>
        <time>2022-08-17T08:42:39Z</time>
      </trkpt>
      <trkpt lat="45.42247" lon="2.5887">
        <ele>677.34</ele>
        <time>2022-08-17T08:42:42Z</time>
      </trkpt>
      <trkpt lat="45.42245" lon="2.58874">
        <ele>678.54</ele>
        <time>2022-08-17T08:42:43Z</time>
      </trkpt>
      <trkpt lat="45.42244" lon="2.58879">
        <ele>679.81</ele>
        <time>2022-08-17T08:42:44Z</time>
      </trkpt>
      <trkpt lat="45.42242" lon="2.58882">
        <ele>679.85</ele>
        <time>2022-08-17T08:42:45Z</time>
      </trkpt>
      <trkpt lat="45.4224" lon="2.58886">
        <ele>681.05</ele>
        <time>2022-08-17T08:42:46Z</time>
      </trkpt>
      <trkpt lat="45.42237" lon="2.58889">
        <ele>680.97</ele>
        <time>2022-08-17T08:42:47Z</time>
      </trkpt>
      <trkpt lat="45.42235" lon="2.58892">
        <ele>682.51</ele>
        <time>2022-08-17T08:42:48Z</time>
      </trkpt>
      <trkpt lat="45.42227" lon="2.58907">
        <ele>684.8</ele>
        <time>2022-08-17T08:42:52Z</time>
      </trkpt>
      <trkpt lat="45.42227" lon="2.58911">
        <ele>686.44</ele>
        <time>2022-08-17T08:42:54Z</time>
      </trkpt>
      <trkpt lat="45.42227" lon="2.58922">
        <ele>688.34</ele>
        <time>2022-08-17T08:42:57Z</time>
      </trkpt>
      <trkpt lat="45.42228" lon="2.58935">
        <ele>689.73</ele>
        <time>2022-08-17T08:42:59Z</time>
      </trkpt>
      <trkpt lat="45.42229" lon="2.58942">
        <ele>691.22</ele>
        <time>2022-08-17T08:43:00Z</time>
      </trkpt>
      <trkpt lat="45.4223" lon="2.58949">
        <ele>691.14</ele>
        <time>2022-08-17T08:43:01Z</time>
      </trkpt>
      <trkpt lat="45.42232" lon="2.58962">
        <ele>692.36</ele>
        <time>2022-08-17T08:43:03Z</time>
      </trkpt>
      <trkpt lat="45.42233" lon="2.58969">
        <ele>693.98</ele>
        <time>2022-08-17T08:43:04Z</time>
      </trkpt>
      <trkpt lat="45.42235" lon="2.58976">
        <ele>694.05</ele>
        <time>2022-08-17T08:43:05Z</time>
      </trkpt>
      <trkpt lat="45.42236" lon="2.58991">
        <ele>695.35</ele>
        <time>2022-08-17T08:43:07Z</time>
      </trkpt>
      <trkpt lat="45.42237" lon="2.58999">
        <ele>696.41</ele>
        <time>2022-08-17T08:43:08Z</time>
      </trkpt>
      <trkpt lat="45.42238" lon="2.59008">
        <ele>696.38</ele>
        <time>2022-08-17T08:43:09Z</time>
      </trkpt>
      <trkpt lat="45.42239" lon="2.59016">
        <ele>696.37</ele>
        <time>2022-08-17T08:43:10Z</time>
      </trkpt>
      <trkpt lat="45.42239" lon="2.59022">
        <ele>696.34</ele>
        <time>2022-08-17T08:43:11Z</time>
      </trkpt>
      <trkpt lat="45.42238" lon="2.5903">
        <ele>696.87</ele>
        <time>2022-08-17T08:43:15Z</time>
      </trkpt>
      <trkpt lat="45.42226" lon="2.5904">
        <ele>696.39</ele>
        <time>2022-08-17T08:43:22Z</time>
      </trkpt>
      <trkpt lat="45.4222" lon="2.59054">
        <ele>696.54</ele>
        <time>2022-08-17T08:44:22Z</time>
      </trkpt>
      <trkpt lat="45.42224" lon="2.59074">
        <ele>697.87</ele>
        <time>2022-08-17T08:45:01Z</time>
      </trkpt>
      <trkpt lat="45.42229" lon="2.5909">
        <ele>699.06</ele>
        <time>2022-08-17T08:45:09Z</time>
      </trkpt>
      <trkpt lat="45.42232" lon="2.59097">
        <ele>699.06</ele>
        <time>2022-08-17T08:45:10Z</time>
      </trkpt>
      <trkpt lat="45.42236" lon="2.59103">
        <ele>700.14</ele>
        <time>2022-08-17T08:45:11Z</time>
      </trkpt>
      <trkpt lat="45.4224" lon="2.59109">
        <ele>700.15</ele>
        <time>2022-08-17T08:45:12Z</time>
      </trkpt>
      <trkpt lat="45.42245" lon="2.59115">
        <ele>700.15</ele>
        <time>2022-08-17T08:45:13Z</time>
      </trkpt>
      <trkpt lat="45.42254" lon="2.59129">
        <ele>701.3</ele>
        <time>2022-08-17T08:45:15Z</time>
      </trkpt>
      <trkpt lat="45.42257" lon="2.59136">
        <ele>701.32</ele>
        <time>2022-08-17T08:45:16Z</time>
      </trkpt>
      <trkpt lat="45.42267" lon="2.59154">
        <ele>702.74</ele>
        <time>2022-08-17T08:45:19Z</time>
      </trkpt>
      <trkpt lat="45.42274" lon="2.59165">
        <ele>702.81</ele>
        <time>2022-08-17T08:45:21Z</time>
      </trkpt>
      <trkpt lat="45.42278" lon="2.59169">
        <ele>702.87</ele>
        <time>2022-08-17T08:45:22Z</time>
      </trkpt>
      <trkpt lat="45.42315" lon="2.59216">
        <ele>703.84</ele>
        <time>2022-08-17T08:45:31Z</time>
      </trkpt>
      <trkpt lat="45.42318" lon="2.5922">
        <ele>704.54</ele>
        <time>2022-08-17T08:45:39Z</time>
      </trkpt>
      <trkpt lat="45.42321" lon="2.59224">
        <ele>705.67</ele>
        <time>2022-08-17T08:46:24Z</time>
      </trkpt>
      <trkpt lat="45.4234" lon="2.59251">
        <ele>706.83</ele>
        <time>2022-08-17T08:46:29Z</time>
      </trkpt>
      <trkpt lat="45.42343" lon="2.59256">
        <ele>706.86</ele>
        <time>2022-08-17T08:46:30Z</time>
      </trkpt>
      <trkpt lat="45.42344" lon="2.59261">
        <ele>707.65</ele>
        <time>2022-08-17T08:46:31Z</time>
      </trkpt>
      <trkpt lat="45.42347" lon="2.59274">
        <ele>708.72</ele>
        <time>2022-08-17T08:46:38Z</time>
      </trkpt>
      <trkpt lat="45.42348" lon="2.59277">
        <ele>708.84</ele>
        <time>2022-08-17T08:46:39Z</time>
      </trkpt>
      <trkpt lat="45.42357" lon="2.59291">
        <ele>710.09</ele>
        <time>2022-08-17T08:46:42Z</time>
      </trkpt>
      <trkpt lat="45.42381" lon="2.59335">
        <ele>710.75</ele>
        <time>2022-08-17T08:46:51Z</time>
      </trkpt>
      <trkpt lat="45.42384" lon="2.59339">
        <ele>710.78</ele>
        <time>2022-08-17T08:46:52Z</time>
      </trkpt>
      <trkpt lat="45.42389" lon="2.59349">
        <ele>711.58</ele>
        <time>2022-08-17T08:46:54Z</time>
      </trkpt>
      <trkpt lat="45.42391" lon="2.59354">
        <ele>711.59</ele>
        <time>2022-08-17T08:46:55Z</time>
      </trkpt>
      <trkpt lat="45.42393" lon="2.59359">
        <ele>711.6</ele>
        <time>2022-08-17T08:46:56Z</time>
      </trkpt>
      <trkpt lat="45.42395" lon="2.59365">
        <ele>711.64</ele>
        <time>2022-08-17T08:46:57Z</time>
      </trkpt>
      <trkpt lat="45.42398" lon="2.5937">
        <ele>712.39</ele>
        <time>2022-08-17T08:46:58Z</time>
      </trkpt>
      <trkpt lat="45.424" lon="2.59375">
        <ele>712.4</ele>
        <time>2022-08-17T08:46:59Z</time>
      </trkpt>
      <trkpt lat="45.42402" lon="2.59381">
        <ele>712.4</ele>
        <time>2022-08-17T08:47:00Z</time>
      </trkpt>
      <trkpt lat="45.4241" lon="2.59402">
        <ele>713.24</ele>
        <time>2022-08-17T08:47:03Z</time>
      </trkpt>
      <trkpt lat="45.42414" lon="2.59408">
        <ele>713.23</ele>
        <time>2022-08-17T08:47:04Z</time>
      </trkpt>
      <trkpt lat="45.42422" lon="2.5942">
        <ele>715.16</ele>
        <time>2022-08-17T08:47:06Z</time>
      </trkpt>
      <trkpt lat="45.42427" lon="2.59424">
        <ele>715.16</ele>
        <time>2022-08-17T08:47:07Z</time>
      </trkpt>
      <trkpt lat="45.42431" lon="2.59426">
        <ele>716.11</ele>
        <time>2022-08-17T08:47:08Z</time>
      </trkpt>
      <trkpt lat="45.42435" lon="2.59428">
        <ele>716.17</ele>
        <time>2022-08-17T08:47:09Z</time>
      </trkpt>
      <trkpt lat="45.4244" lon="2.59428">
        <ele>717.26</ele>
        <time>2022-08-17T08:47:10Z</time>
      </trkpt>
      <trkpt lat="45.42444" lon="2.59428">
        <ele>717.24</ele>
        <time>2022-08-17T08:47:11Z</time>
      </trkpt>
      <trkpt lat="45.42448" lon="2.59427">
        <ele>718.44</ele>
        <time>2022-08-17T08:47:12Z</time>
      </trkpt>
      <trkpt lat="45.42452" lon="2.59428">
        <ele>719.11</ele>
        <time>2022-08-17T08:47:13Z</time>
      </trkpt>
      <trkpt lat="45.42454" lon="2.59431">
        <ele>720</ele>
        <time>2022-08-17T08:47:14Z</time>
      </trkpt>
      <trkpt lat="45.42456" lon="2.59435">
        <ele>720.05</ele>
        <time>2022-08-17T08:47:15Z</time>
      </trkpt>
      <trkpt lat="45.42456" lon="2.59439">
        <ele>721.05</ele>
        <time>2022-08-17T08:47:16Z</time>
      </trkpt>
      <trkpt lat="45.42455" lon="2.59445">
        <ele>721.95</ele>
        <time>2022-08-17T08:47:17Z</time>
      </trkpt>
      <trkpt lat="45.42453" lon="2.59451">
        <ele>721.94</ele>
        <time>2022-08-17T08:47:18Z</time>
      </trkpt>
      <trkpt lat="45.42452" lon="2.59458">
        <ele>723.46</ele>
        <time>2022-08-17T08:47:19Z</time>
      </trkpt>
      <trkpt lat="45.42451" lon="2.59464">
        <ele>723.53</ele>
        <time>2022-08-17T08:47:20Z</time>
      </trkpt>
      <trkpt lat="45.4245" lon="2.59471">
        <ele>724.82</ele>
        <time>2022-08-17T08:47:22Z</time>
      </trkpt>
      <trkpt lat="45.42451" lon="2.59486">
        <ele>726.64</ele>
        <time>2022-08-17T08:47:25Z</time>
      </trkpt>
      <trkpt lat="45.42452" lon="2.59493">
        <ele>727.61</ele>
        <time>2022-08-17T08:47:26Z</time>
      </trkpt>
      <trkpt lat="45.42451" lon="2.595">
        <ele>727.64</ele>
        <time>2022-08-17T08:47:27Z</time>
      </trkpt>
      <trkpt lat="45.42449" lon="2.5953">
        <ele>729.49</ele>
        <time>2022-08-17T08:47:31Z</time>
      </trkpt>
      <trkpt lat="45.42448" lon="2.59542">
        <ele>730.81</ele>
        <time>2022-08-17T08:47:33Z</time>
      </trkpt>
      <trkpt lat="45.42449" lon="2.59547">
        <ele>732.11</ele>
        <time>2022-08-17T08:47:34Z</time>
      </trkpt>
      <trkpt lat="45.4245" lon="2.59552">
        <ele>732.11</ele>
        <time>2022-08-17T08:47:35Z</time>
      </trkpt>
      <trkpt lat="45.42464" lon="2.59575">
        <ele>735.54</ele>
        <time>2022-08-17T08:47:39Z</time>
      </trkpt>
      <trkpt lat="45.42468" lon="2.59581">
        <ele>735.54</ele>
        <time>2022-08-17T08:47:40Z</time>
      </trkpt>
      <trkpt lat="45.42481" lon="2.59599">
        <ele>736.9</ele>
        <time>2022-08-17T08:47:43Z</time>
      </trkpt>
      <trkpt lat="45.42485" lon="2.59606">
        <ele>736.87</ele>
        <time>2022-08-17T08:47:44Z</time>
      </trkpt>
      <trkpt lat="45.42494" lon="2.59624">
        <ele>738.15</ele>
        <time>2022-08-17T08:47:47Z</time>
      </trkpt>
      <trkpt lat="45.42504" lon="2.5965">
        <ele>739.67</ele>
        <time>2022-08-17T08:47:51Z</time>
      </trkpt>
      <trkpt lat="45.42505" lon="2.59657">
        <ele>739.67</ele>
        <time>2022-08-17T08:47:52Z</time>
      </trkpt>
      <trkpt lat="45.42506" lon="2.59664">
        <ele>739.7</ele>
        <time>2022-08-17T08:47:53Z</time>
      </trkpt>
      <trkpt lat="45.42505" lon="2.59671">
        <ele>739.75</ele>
        <time>2022-08-17T08:47:54Z</time>
      </trkpt>
      <trkpt lat="45.42504" lon="2.59678">
        <ele>739.83</ele>
        <time>2022-08-17T08:47:55Z</time>
      </trkpt>
      <trkpt lat="45.42501" lon="2.59691">
        <ele>741.07</ele>
        <time>2022-08-17T08:47:57Z</time>
      </trkpt>
      <trkpt lat="45.42495" lon="2.59721">
        <ele>744.11</ele>
        <time>2022-08-17T08:48:01Z</time>
      </trkpt>
      <trkpt lat="45.42493" lon="2.59728">
        <ele>744.13</ele>
        <time>2022-08-17T08:48:02Z</time>
      </trkpt>
      <trkpt lat="45.42489" lon="2.59751">
        <ele>747.74</ele>
        <time>2022-08-17T08:48:07Z</time>
      </trkpt>
      <trkpt lat="45.42491" lon="2.59752">
        <ele>747.33</ele>
        <time>2022-08-17T08:48:08Z</time>
      </trkpt>
      <trkpt lat="45.42495" lon="2.59752">
        <ele>748.48</ele>
        <time>2022-08-17T08:48:09Z</time>
      </trkpt>
      <trkpt lat="45.42499" lon="2.5975">
        <ele>749.28</ele>
        <time>2022-08-17T08:48:10Z</time>
      </trkpt>
      <trkpt lat="45.42503" lon="2.59748">
        <ele>749.28</ele>
        <time>2022-08-17T08:48:11Z</time>
      </trkpt>
      <trkpt lat="45.42523" lon="2.5974">
        <ele>752.34</ele>
        <time>2022-08-17T08:48:15Z</time>
      </trkpt>
      <trkpt lat="45.42528" lon="2.59736">
        <ele>752.34</ele>
        <time>2022-08-17T08:48:16Z</time>
      </trkpt>
      <trkpt lat="45.42534" lon="2.59731">
        <ele>753.86</ele>
        <time>2022-08-17T08:48:17Z</time>
      </trkpt>
      <trkpt lat="45.42538" lon="2.59725">
        <ele>753.97</ele>
        <time>2022-08-17T08:48:18Z</time>
      </trkpt>
      <trkpt lat="45.4254" lon="2.59719">
        <ele>755.04</ele>
        <time>2022-08-17T08:48:19Z</time>
      </trkpt>
      <trkpt lat="45.42542" lon="2.59712">
        <ele>755.03</ele>
        <time>2022-08-17T08:48:20Z</time>
      </trkpt>
      <trkpt lat="45.42544" lon="2.59705">
        <ele>755.04</ele>
        <time>2022-08-17T08:48:21Z</time>
      </trkpt>
      <trkpt lat="45.42545" lon="2.597">
        <ele>756.78</ele>
        <time>2022-08-17T08:48:22Z</time>
      </trkpt>
      <trkpt lat="45.42548" lon="2.59696">
        <ele>756.83</ele>
        <time>2022-08-17T08:48:23Z</time>
      </trkpt>
      <trkpt lat="45.42551" lon="2.59695">
        <ele>757.75</ele>
        <time>2022-08-17T08:48:24Z</time>
      </trkpt>
      <trkpt lat="45.42555" lon="2.59696">
        <ele>757.79</ele>
        <time>2022-08-17T08:48:25Z</time>
      </trkpt>
      <trkpt lat="45.42559" lon="2.59698">
        <ele>758.77</ele>
        <time>2022-08-17T08:48:26Z</time>
      </trkpt>
      <trkpt lat="45.42563" lon="2.59702">
        <ele>758.76</ele>
        <time>2022-08-17T08:48:27Z</time>
      </trkpt>
      <trkpt lat="45.42567" lon="2.59707">
        <ele>760.06</ele>
        <time>2022-08-17T08:48:28Z</time>
      </trkpt>
      <trkpt lat="45.42571" lon="2.59712">
        <ele>760.06</ele>
        <time>2022-08-17T08:48:29Z</time>
      </trkpt>
      <trkpt lat="45.42578" lon="2.59722">
        <ele>761.56</ele>
        <time>2022-08-17T08:48:31Z</time>
      </trkpt>
      <trkpt lat="45.42595" lon="2.59742">
        <ele>764.36</ele>
        <time>2022-08-17T08:48:35Z</time>
      </trkpt>
      <trkpt lat="45.42604" lon="2.5976">
        <ele>766.24</ele>
        <time>2022-08-17T08:48:39Z</time>
      </trkpt>
      <trkpt lat="45.42606" lon="2.59766">
        <ele>766.24</ele>
        <time>2022-08-17T08:48:40Z</time>
      </trkpt>
      <trkpt lat="45.42607" lon="2.59773">
        <ele>766.24</ele>
        <time>2022-08-17T08:48:41Z</time>
      </trkpt>
      <trkpt lat="45.42607" lon="2.59779">
        <ele>766.28</ele>
        <time>2022-08-17T08:48:42Z</time>
      </trkpt>
      <trkpt lat="45.42607" lon="2.59786">
        <ele>766.28</ele>
        <time>2022-08-17T08:48:43Z</time>
      </trkpt>
      <trkpt lat="45.42609" lon="2.59813">
        <ele>766.27</ele>
        <time>2022-08-17T08:48:47Z</time>
      </trkpt>
      <trkpt lat="45.42609" lon="2.59819">
        <ele>763.62</ele>
        <time>2022-08-17T08:48:48Z</time>
      </trkpt>
      <trkpt lat="45.42607" lon="2.59824">
        <ele>763.57</ele>
        <time>2022-08-17T08:48:49Z</time>
      </trkpt>
      <trkpt lat="45.42606" lon="2.59829">
        <ele>762.66</ele>
        <time>2022-08-17T08:48:50Z</time>
      </trkpt>
      <trkpt lat="45.42604" lon="2.59833">
        <ele>762.65</ele>
        <time>2022-08-17T08:48:51Z</time>
      </trkpt>
      <trkpt lat="45.42602" lon="2.59835">
        <ele>761.67</ele>
        <time>2022-08-17T08:48:52Z</time>
      </trkpt>
      <trkpt lat="45.42601" lon="2.59838">
        <ele>761.8</ele>
        <time>2022-08-17T08:49:04Z</time>
      </trkpt>
      <trkpt lat="45.42599" lon="2.59839">
        <ele>772</ele>
        <time>2022-08-17T08:49:25Z</time>
      </trkpt>
      <trkpt lat="45.42522" lon="2.60062">
        <ele>756.01</ele>
        <time>2022-08-17T08:50:34Z</time>
      </trkpt>
      <trkpt lat="45.42527" lon="2.60114">
        <ele>753.76</ele>
        <time>2022-08-17T08:50:40Z</time>
      </trkpt>
      <trkpt lat="45.42527" lon="2.60121">
        <ele>753.52</ele>
        <time>2022-08-17T08:50:41Z</time>
      </trkpt>
      <trkpt lat="45.42526" lon="2.60128">
        <ele>753.69</ele>
        <time>2022-08-17T08:50:42Z</time>
      </trkpt>
      <trkpt lat="45.42526" lon="2.60134">
        <ele>752.91</ele>
        <time>2022-08-17T08:50:43Z</time>
      </trkpt>
      <trkpt lat="45.42526" lon="2.60151">
        <ele>751.66</ele>
        <time>2022-08-17T08:50:47Z</time>
      </trkpt>
      <trkpt lat="45.42527" lon="2.60152">
        <ele>751.66</ele>
        <time>2022-08-17T08:50:48Z</time>
      </trkpt>
      <trkpt lat="45.4253" lon="2.60152">
        <ele>751.66</ele>
        <time>2022-08-17T08:50:49Z</time>
      </trkpt>
      <trkpt lat="45.42533" lon="2.6015">
        <ele>751.66</ele>
        <time>2022-08-17T08:50:50Z</time>
      </trkpt>
      <trkpt lat="45.42537" lon="2.60146">
        <ele>751.64</ele>
        <time>2022-08-17T08:50:51Z</time>
      </trkpt>
      <trkpt lat="45.42567" lon="2.60109">
        <ele>749.26</ele>
        <time>2022-08-17T08:50:57Z</time>
      </trkpt>
      <trkpt lat="45.42579" lon="2.60097">
        <ele>748.3</ele>
        <time>2022-08-17T08:50:59Z</time>
      </trkpt>
      <trkpt lat="45.42585" lon="2.60092">
        <ele>746.94</ele>
        <time>2022-08-17T08:51:00Z</time>
      </trkpt>
      <trkpt lat="45.4259" lon="2.60088">
        <ele>746.95</ele>
        <time>2022-08-17T08:51:01Z</time>
      </trkpt>
      <trkpt lat="45.42596" lon="2.60085">
        <ele>745.68</ele>
        <time>2022-08-17T08:51:02Z</time>
      </trkpt>
      <trkpt lat="45.42602" lon="2.60082">
        <ele>745.69</ele>
        <time>2022-08-17T08:51:03Z</time>
      </trkpt>
      <trkpt lat="45.42608" lon="2.6008">
        <ele>744.75</ele>
        <time>2022-08-17T08:51:04Z</time>
      </trkpt>
      <trkpt lat="45.4262" lon="2.60078">
        <ele>744.73</ele>
        <time>2022-08-17T08:51:06Z</time>
      </trkpt>
      <trkpt lat="45.42626" lon="2.60078">
        <ele>743.78</ele>
        <time>2022-08-17T08:51:07Z</time>
      </trkpt>
      <trkpt lat="45.42632" lon="2.6008">
        <ele>742.96</ele>
        <time>2022-08-17T08:51:08Z</time>
      </trkpt>
      <trkpt lat="45.42637" lon="2.60082">
        <ele>742.97</ele>
        <time>2022-08-17T08:51:09Z</time>
      </trkpt>
      <trkpt lat="45.42641" lon="2.60086">
        <ele>742.95</ele>
        <time>2022-08-17T08:51:10Z</time>
      </trkpt>
      <trkpt lat="45.42645" lon="2.60091">
        <ele>743</ele>
        <time>2022-08-17T08:51:11Z</time>
      </trkpt>
      <trkpt lat="45.42648" lon="2.60096">
        <ele>742.97</ele>
        <time>2022-08-17T08:51:12Z</time>
      </trkpt>
      <trkpt lat="45.42651" lon="2.60101">
        <ele>742.06</ele>
        <time>2022-08-17T08:51:13Z</time>
      </trkpt>
      <trkpt lat="45.42654" lon="2.60105">
        <ele>742.04</ele>
        <time>2022-08-17T08:51:14Z</time>
      </trkpt>
      <trkpt lat="45.42658" lon="2.60109">
        <ele>742.05</ele>
        <time>2022-08-17T08:51:15Z</time>
      </trkpt>
      <trkpt lat="45.42662" lon="2.60112">
        <ele>741.1</ele>
        <time>2022-08-17T08:51:16Z</time>
      </trkpt>
      <trkpt lat="45.42666" lon="2.60114">
        <ele>741.11</ele>
        <time>2022-08-17T08:51:17Z</time>
      </trkpt>
      <trkpt lat="45.42671" lon="2.60116">
        <ele>741.1</ele>
        <time>2022-08-17T08:51:18Z</time>
      </trkpt>
      <trkpt lat="45.42675" lon="2.60118">
        <ele>740.12</ele>
        <time>2022-08-17T08:51:19Z</time>
      </trkpt>
      <trkpt lat="45.42679" lon="2.60121">
        <ele>740.19</ele>
        <time>2022-08-17T08:51:20Z</time>
      </trkpt>
      <trkpt lat="45.42683" lon="2.60126">
        <ele>740.18</ele>
        <time>2022-08-17T08:51:21Z</time>
      </trkpt>
      <trkpt lat="45.42686" lon="2.6013">
        <ele>740.21</ele>
        <time>2022-08-17T08:51:22Z</time>
      </trkpt>
      <trkpt lat="45.42689" lon="2.60136">
        <ele>739.58</ele>
        <time>2022-08-17T08:51:23Z</time>
      </trkpt>
      <trkpt lat="45.42692" lon="2.60141">
        <ele>739.58</ele>
        <time>2022-08-17T08:51:24Z</time>
      </trkpt>
      <trkpt lat="45.42695" lon="2.60147">
        <ele>738.62</ele>
        <time>2022-08-17T08:51:25Z</time>
      </trkpt>
      <trkpt lat="45.42698" lon="2.60152">
        <ele>738.66</ele>
        <time>2022-08-17T08:51:26Z</time>
      </trkpt>
      <trkpt lat="45.42702" lon="2.60155">
        <ele>738.63</ele>
        <time>2022-08-17T08:51:27Z</time>
      </trkpt>
      <trkpt lat="45.42707" lon="2.60158">
        <ele>738.64</ele>
        <time>2022-08-17T08:51:28Z</time>
      </trkpt>
      <trkpt lat="45.42713" lon="2.60159">
        <ele>738.62</ele>
        <time>2022-08-17T08:51:29Z</time>
      </trkpt>
      <trkpt lat="45.4272" lon="2.60159">
        <ele>737.48</ele>
        <time>2022-08-17T08:51:30Z</time>
      </trkpt>
      <trkpt lat="45.42726" lon="2.60158">
        <ele>737.48</ele>
        <time>2022-08-17T08:51:31Z</time>
      </trkpt>
      <trkpt lat="45.42747" lon="2.60154">
        <ele>735.04</ele>
        <time>2022-08-17T08:51:34Z</time>
      </trkpt>
      <trkpt lat="45.42753" lon="2.60152">
        <ele>735.05</ele>
        <time>2022-08-17T08:51:35Z</time>
      </trkpt>
      <trkpt lat="45.42758" lon="2.60148">
        <ele>734.3</ele>
        <time>2022-08-17T08:51:36Z</time>
      </trkpt>
      <trkpt lat="45.42763" lon="2.60142">
        <ele>734.3</ele>
        <time>2022-08-17T08:51:37Z</time>
      </trkpt>
      <trkpt lat="45.42768" lon="2.60135">
        <ele>734.27</ele>
        <time>2022-08-17T08:51:38Z</time>
      </trkpt>
      <trkpt lat="45.42773" lon="2.60126">
        <ele>734.29</ele>
        <time>2022-08-17T08:51:39Z</time>
      </trkpt>
      <trkpt lat="45.42795" lon="2.60074">
        <ele>731.06</ele>
        <time>2022-08-17T08:51:44Z</time>
      </trkpt>
      <trkpt lat="45.42809" lon="2.60044">
        <ele>729.24</ele>
        <time>2022-08-17T08:51:47Z</time>
      </trkpt>
      <trkpt lat="45.42848" lon="2.59982">
        <ele>725.31</ele>
        <time>2022-08-17T08:51:54Z</time>
      </trkpt>
      <trkpt lat="45.42868" lon="2.59955">
        <ele>723.73</ele>
        <time>2022-08-17T08:51:57Z</time>
      </trkpt>
      <trkpt lat="45.42891" lon="2.5992">
        <ele>720.32</ele>
        <time>2022-08-17T08:52:01Z</time>
      </trkpt>
      <trkpt lat="45.42896" lon="2.59912">
        <ele>720.41</ele>
        <time>2022-08-17T08:52:02Z</time>
      </trkpt>
      <trkpt lat="45.42938" lon="2.59847">
        <ele>718.17</ele>
        <time>2022-08-17T08:52:09Z</time>
      </trkpt>
      <trkpt lat="45.42943" lon="2.59836">
        <ele>716.77</ele>
        <time>2022-08-17T08:52:10Z</time>
      </trkpt>
      <trkpt lat="45.42946" lon="2.59825">
        <ele>716.73</ele>
        <time>2022-08-17T08:52:11Z</time>
      </trkpt>
      <trkpt lat="45.42951" lon="2.59806">
        <ele>714.9</ele>
        <time>2022-08-17T08:52:13Z</time>
      </trkpt>
      <trkpt lat="45.42955" lon="2.598">
        <ele>714.02</ele>
        <time>2022-08-17T08:52:14Z</time>
      </trkpt>
      <trkpt lat="45.4296" lon="2.59797">
        <ele>714.03</ele>
        <time>2022-08-17T08:52:15Z</time>
      </trkpt>
      <trkpt lat="45.42964" lon="2.59799">
        <ele>713.11</ele>
        <time>2022-08-17T08:52:16Z</time>
      </trkpt>
      <trkpt lat="45.42967" lon="2.59806">
        <ele>713.11</ele>
        <time>2022-08-17T08:52:17Z</time>
      </trkpt>
      <trkpt lat="45.42968" lon="2.59815">
        <ele>713.12</ele>
        <time>2022-08-17T08:52:18Z</time>
      </trkpt>
      <trkpt lat="45.42967" lon="2.59824">
        <ele>713.08</ele>
        <time>2022-08-17T08:52:19Z</time>
      </trkpt>
      <trkpt lat="45.42965" lon="2.59834">
        <ele>711.64</ele>
        <time>2022-08-17T08:52:20Z</time>
      </trkpt>
      <trkpt lat="45.42961" lon="2.59843">
        <ele>711.65</ele>
        <time>2022-08-17T08:52:21Z</time>
      </trkpt>
      <trkpt lat="45.42956" lon="2.59852">
        <ele>711.6</ele>
        <time>2022-08-17T08:52:22Z</time>
      </trkpt>
      <trkpt lat="45.42953" lon="2.59861">
        <ele>711.61</ele>
        <time>2022-08-17T08:52:23Z</time>
      </trkpt>
      <trkpt lat="45.4295" lon="2.5987">
        <ele>711.57</ele>
        <time>2022-08-17T08:52:24Z</time>
      </trkpt>
      <trkpt lat="45.4295" lon="2.59879">
        <ele>711.62</ele>
        <time>2022-08-17T08:52:25Z</time>
      </trkpt>
      <trkpt lat="45.42952" lon="2.59887">
        <ele>710.59</ele>
        <time>2022-08-17T08:52:26Z</time>
      </trkpt>
      <trkpt lat="45.42955" lon="2.59893">
        <ele>710.58</ele>
        <time>2022-08-17T08:52:27Z</time>
      </trkpt>
      <trkpt lat="45.42959" lon="2.59897">
        <ele>710.58</ele>
        <time>2022-08-17T08:52:28Z</time>
      </trkpt>
      <trkpt lat="45.42965" lon="2.599">
        <ele>710.61</ele>
        <time>2022-08-17T08:52:29Z</time>
      </trkpt>
      <trkpt lat="45.42971" lon="2.59902">
        <ele>710.63</ele>
        <time>2022-08-17T08:52:30Z</time>
      </trkpt>
      <trkpt lat="45.42986" lon="2.59908">
        <ele>709.25</ele>
        <time>2022-08-17T08:52:32Z</time>
      </trkpt>
      <trkpt lat="45.42993" lon="2.59912">
        <ele>709.25</ele>
        <time>2022-08-17T08:52:33Z</time>
      </trkpt>
      <trkpt lat="45.43016" lon="2.59926">
        <ele>706.14</ele>
        <time>2022-08-17T08:52:36Z</time>
      </trkpt>
      <trkpt lat="45.43023" lon="2.5993">
        <ele>706.01</ele>
        <time>2022-08-17T08:52:37Z</time>
      </trkpt>
      <trkpt lat="45.43071" lon="2.5995">
        <ele>705.45</ele>
        <time>2022-08-17T08:52:43Z</time>
      </trkpt>
      <trkpt lat="45.4308" lon="2.5995">
        <ele>705.46</ele>
        <time>2022-08-17T08:52:44Z</time>
      </trkpt>
      <trkpt lat="45.43089" lon="2.59948">
        <ele>705.42</ele>
        <time>2022-08-17T08:52:45Z</time>
      </trkpt>
      <trkpt lat="45.4311" lon="2.59939">
        <ele>705.42</ele>
        <time>2022-08-17T08:52:47Z</time>
      </trkpt>
      <trkpt lat="45.43146" lon="2.59914">
        <ele>702.7</ele>
        <time>2022-08-17T08:52:51Z</time>
      </trkpt>
      <trkpt lat="45.43166" lon="2.59899">
        <ele>699.49</ele>
        <time>2022-08-17T08:52:54Z</time>
      </trkpt>
      <trkpt lat="45.43177" lon="2.59897">
        <ele>697.76</ele>
        <time>2022-08-17T08:52:56Z</time>
      </trkpt>
      <trkpt lat="45.43183" lon="2.59898">
        <ele>697.64</ele>
        <time>2022-08-17T08:52:57Z</time>
      </trkpt>
      <trkpt lat="45.43187" lon="2.59902">
        <ele>696.47</ele>
        <time>2022-08-17T08:52:58Z</time>
      </trkpt>
      <trkpt lat="45.43191" lon="2.59907">
        <ele>695.18</ele>
        <time>2022-08-17T08:52:59Z</time>
      </trkpt>
      <trkpt lat="45.43194" lon="2.59913">
        <ele>695.17</ele>
        <time>2022-08-17T08:53:00Z</time>
      </trkpt>
      <trkpt lat="45.43195" lon="2.5992">
        <ele>694.23</ele>
        <time>2022-08-17T08:53:01Z</time>
      </trkpt>
      <trkpt lat="45.43196" lon="2.59928">
        <ele>693.26</ele>
        <time>2022-08-17T08:53:02Z</time>
      </trkpt>
      <trkpt lat="45.43195" lon="2.59938">
        <ele>693.17</ele>
        <time>2022-08-17T08:53:03Z</time>
      </trkpt>
      <trkpt lat="45.43195" lon="2.59947">
        <ele>692.26</ele>
        <time>2022-08-17T08:53:04Z</time>
      </trkpt>
      <trkpt lat="45.43195" lon="2.59956">
        <ele>692.15</ele>
        <time>2022-08-17T08:53:05Z</time>
      </trkpt>
      <trkpt lat="45.43196" lon="2.59965">
        <ele>691.38</ele>
        <time>2022-08-17T08:53:06Z</time>
      </trkpt>
      <trkpt lat="45.43196" lon="2.59973">
        <ele>691.3</ele>
        <time>2022-08-17T08:53:07Z</time>
      </trkpt>
      <trkpt lat="45.43198" lon="2.59981">
        <ele>691.3</ele>
        <time>2022-08-17T08:53:08Z</time>
      </trkpt>
      <trkpt lat="45.432" lon="2.59987">
        <ele>690.07</ele>
        <time>2022-08-17T08:53:09Z</time>
      </trkpt>
      <trkpt lat="45.43203" lon="2.59993">
        <ele>690.07</ele>
        <time>2022-08-17T08:53:10Z</time>
      </trkpt>
      <trkpt lat="45.43216" lon="2.60012">
        <ele>688.19</ele>
        <time>2022-08-17T08:53:14Z</time>
      </trkpt>
      <trkpt lat="45.4322" lon="2.60015">
        <ele>688.15</ele>
        <time>2022-08-17T08:53:15Z</time>
      </trkpt>
      <trkpt lat="45.43225" lon="2.60018">
        <ele>688.14</ele>
        <time>2022-08-17T08:53:16Z</time>
      </trkpt>
      <trkpt lat="45.43234" lon="2.60023">
        <ele>686.4</ele>
        <time>2022-08-17T08:53:18Z</time>
      </trkpt>
      <trkpt lat="45.43239" lon="2.60026">
        <ele>686.43</ele>
        <time>2022-08-17T08:53:19Z</time>
      </trkpt>
      <trkpt lat="45.43245" lon="2.60032">
        <ele>685.31</ele>
        <time>2022-08-17T08:53:20Z</time>
      </trkpt>
      <trkpt lat="45.43251" lon="2.60041">
        <ele>685.33</ele>
        <time>2022-08-17T08:53:21Z</time>
      </trkpt>
      <trkpt lat="45.43258" lon="2.6005">
        <ele>684.41</ele>
        <time>2022-08-17T08:53:22Z</time>
      </trkpt>
      <trkpt lat="45.43266" lon="2.60059">
        <ele>683.51</ele>
        <time>2022-08-17T08:53:23Z</time>
      </trkpt>
      <trkpt lat="45.43279" lon="2.6008">
        <ele>682.34</ele>
        <time>2022-08-17T08:53:25Z</time>
      </trkpt>
      <trkpt lat="45.43296" lon="2.60108">
        <ele>680.26</ele>
        <time>2022-08-17T08:53:28Z</time>
      </trkpt>
      <trkpt lat="45.43301" lon="2.60117">
        <ele>678.33</ele>
        <time>2022-08-17T08:53:29Z</time>
      </trkpt>
      <trkpt lat="45.43303" lon="2.60127">
        <ele>678.05</ele>
        <time>2022-08-17T08:53:30Z</time>
      </trkpt>
      <trkpt lat="45.43306" lon="2.60137">
        <ele>677.13</ele>
        <time>2022-08-17T08:53:31Z</time>
      </trkpt>
      <trkpt lat="45.43308" lon="2.60148">
        <ele>677.07</ele>
        <time>2022-08-17T08:53:32Z</time>
      </trkpt>
      <trkpt lat="45.43314" lon="2.60168">
        <ele>675.96</ele>
        <time>2022-08-17T08:53:34Z</time>
      </trkpt>
      <trkpt lat="45.43321" lon="2.60186">
        <ele>674.27</ele>
        <time>2022-08-17T08:53:36Z</time>
      </trkpt>
      <trkpt lat="45.43326" lon="2.60204">
        <ele>673.39</ele>
        <time>2022-08-17T08:53:38Z</time>
      </trkpt>
      <trkpt lat="45.43329" lon="2.60213">
        <ele>672.53</ele>
        <time>2022-08-17T08:53:39Z</time>
      </trkpt>
      <trkpt lat="45.43333" lon="2.60221">
        <ele>671.46</ele>
        <time>2022-08-17T08:53:40Z</time>
      </trkpt>
      <trkpt lat="45.43337" lon="2.6023">
        <ele>671.48</ele>
        <time>2022-08-17T08:53:41Z</time>
      </trkpt>
      <trkpt lat="45.4334" lon="2.60239">
        <ele>670.32</ele>
        <time>2022-08-17T08:53:42Z</time>
      </trkpt>
      <trkpt lat="45.43342" lon="2.60248">
        <ele>670.32</ele>
        <time>2022-08-17T08:53:43Z</time>
      </trkpt>
      <trkpt lat="45.43345" lon="2.60255">
        <ele>669.47</ele>
        <time>2022-08-17T08:53:44Z</time>
      </trkpt>
      <trkpt lat="45.43349" lon="2.6026">
        <ele>669.45</ele>
        <time>2022-08-17T08:53:45Z</time>
      </trkpt>
      <trkpt lat="45.43354" lon="2.60264">
        <ele>669.47</ele>
        <time>2022-08-17T08:53:46Z</time>
      </trkpt>
      <trkpt lat="45.43357" lon="2.60267">
        <ele>669.42</ele>
        <time>2022-08-17T08:53:47Z</time>
      </trkpt>
      <trkpt lat="45.4336" lon="2.60268">
        <ele>668.55</ele>
        <time>2022-08-17T08:53:48Z</time>
      </trkpt>
      <trkpt lat="45.43364" lon="2.60268">
        <ele>668.55</ele>
        <time>2022-08-17T08:53:49Z</time>
      </trkpt>
      <trkpt lat="45.4337" lon="2.60268">
        <ele>668.52</ele>
        <time>2022-08-17T08:53:50Z</time>
      </trkpt>
      <trkpt lat="45.43377" lon="2.60267">
        <ele>667.7</ele>
        <time>2022-08-17T08:53:51Z</time>
      </trkpt>
      <trkpt lat="45.43385" lon="2.60266">
        <ele>667.71</ele>
        <time>2022-08-17T08:53:52Z</time>
      </trkpt>
      <trkpt lat="45.43393" lon="2.60266">
        <ele>667.7</ele>
        <time>2022-08-17T08:53:53Z</time>
      </trkpt>
      <trkpt lat="45.434" lon="2.60268">
        <ele>665.81</ele>
        <time>2022-08-17T08:53:54Z</time>
      </trkpt>
      <trkpt lat="45.43408" lon="2.6027">
        <ele>665.8</ele>
        <time>2022-08-17T08:53:55Z</time>
      </trkpt>
      <trkpt lat="45.43416" lon="2.6027">
        <ele>665.76</ele>
        <time>2022-08-17T08:53:56Z</time>
      </trkpt>
      <trkpt lat="45.43426" lon="2.6027">
        <ele>664.27</ele>
        <time>2022-08-17T08:53:57Z</time>
      </trkpt>
      <trkpt lat="45.43435" lon="2.60268">
        <ele>664.26</ele>
        <time>2022-08-17T08:53:58Z</time>
      </trkpt>
      <trkpt lat="45.43458" lon="2.6026">
        <ele>661.79</ele>
        <time>2022-08-17T08:54:01Z</time>
      </trkpt>
      <trkpt lat="45.43464" lon="2.60256">
        <ele>661.74</ele>
        <time>2022-08-17T08:54:02Z</time>
      </trkpt>
      <trkpt lat="45.43468" lon="2.6025">
        <ele>660.12</ele>
        <time>2022-08-17T08:54:03Z</time>
      </trkpt>
      <trkpt lat="45.43472" lon="2.60244">
        <ele>660.07</ele>
        <time>2022-08-17T08:54:04Z</time>
      </trkpt>
      <trkpt lat="45.43472" lon="2.60237">
        <ele>659.99</ele>
        <time>2022-08-17T08:54:05Z</time>
      </trkpt>
      <trkpt lat="45.4347" lon="2.60231">
        <ele>658.38</ele>
        <time>2022-08-17T08:54:06Z</time>
      </trkpt>
      <trkpt lat="45.43468" lon="2.60226">
        <ele>658.38</ele>
        <time>2022-08-17T08:54:07Z</time>
      </trkpt>
      <trkpt lat="45.43464" lon="2.60222">
        <ele>657.46</ele>
        <time>2022-08-17T08:54:08Z</time>
      </trkpt>
      <trkpt lat="45.43461" lon="2.6022">
        <ele>657.4</ele>
        <time>2022-08-17T08:54:09Z</time>
      </trkpt>
      <trkpt lat="45.43458" lon="2.60218">
        <ele>657.39</ele>
        <time>2022-08-17T08:54:10Z</time>
      </trkpt>
      <trkpt lat="45.4345" lon="2.60214">
        <ele>655.96</ele>
        <time>2022-08-17T08:54:12Z</time>
      </trkpt>
      <trkpt lat="45.43446" lon="2.60212">
        <ele>655.92</ele>
        <time>2022-08-17T08:54:13Z</time>
      </trkpt>
      <trkpt lat="45.43443" lon="2.60207">
        <ele>655.13</ele>
        <time>2022-08-17T08:54:14Z</time>
      </trkpt>
      <trkpt lat="45.43442" lon="2.60196">
        <ele>654.11</ele>
        <time>2022-08-17T08:54:16Z</time>
      </trkpt>
      <trkpt lat="45.43443" lon="2.6019">
        <ele>654.08</ele>
        <time>2022-08-17T08:54:17Z</time>
      </trkpt>
      <trkpt lat="45.43445" lon="2.60185">
        <ele>654.08</ele>
        <time>2022-08-17T08:54:18Z</time>
      </trkpt>
      <trkpt lat="45.43449" lon="2.60182">
        <ele>654.44</ele>
        <time>2022-08-17T08:54:19Z</time>
      </trkpt>
      <trkpt lat="45.43454" lon="2.6018">
        <ele>653.39</ele>
        <time>2022-08-17T08:54:20Z</time>
      </trkpt>
      <trkpt lat="45.43461" lon="2.60179">
        <ele>653.39</ele>
        <time>2022-08-17T08:54:21Z</time>
      </trkpt>
      <trkpt lat="45.43467" lon="2.60182">
        <ele>653.34</ele>
        <time>2022-08-17T08:54:22Z</time>
      </trkpt>
      <trkpt lat="45.43472" lon="2.60186">
        <ele>653.34</ele>
        <time>2022-08-17T08:54:23Z</time>
      </trkpt>
      <trkpt lat="45.4348" lon="2.60192">
        <ele>653.3</ele>
        <time>2022-08-17T08:54:24Z</time>
      </trkpt>
      <trkpt lat="45.43495" lon="2.60207">
        <ele>653.26</ele>
        <time>2022-08-17T08:54:26Z</time>
      </trkpt>
      <trkpt lat="45.43516" lon="2.60228">
        <ele>652.27</ele>
        <time>2022-08-17T08:54:29Z</time>
      </trkpt>
      <trkpt lat="45.43524" lon="2.60233">
        <ele>652.36</ele>
        <time>2022-08-17T08:54:30Z</time>
      </trkpt>
      <trkpt lat="45.43531" lon="2.60237">
        <ele>652.35</ele>
        <time>2022-08-17T08:54:31Z</time>
      </trkpt>
      <trkpt lat="45.43545" lon="2.60242">
        <ele>651.31</ele>
        <time>2022-08-17T08:54:33Z</time>
      </trkpt>
      <trkpt lat="45.4356" lon="2.60245">
        <ele>650.51</ele>
        <time>2022-08-17T08:54:35Z</time>
      </trkpt>
      <trkpt lat="45.43567" lon="2.60246">
        <ele>650.49</ele>
        <time>2022-08-17T08:54:36Z</time>
      </trkpt>
      <trkpt lat="45.43574" lon="2.60246">
        <ele>649.29</ele>
        <time>2022-08-17T08:54:37Z</time>
      </trkpt>
      <trkpt lat="45.43582" lon="2.60245">
        <ele>649.28</ele>
        <time>2022-08-17T08:54:38Z</time>
      </trkpt>
      <trkpt lat="45.43589" lon="2.60244">
        <ele>649.28</ele>
        <time>2022-08-17T08:54:39Z</time>
      </trkpt>
      <trkpt lat="45.43604" lon="2.60243">
        <ele>647.83</ele>
        <time>2022-08-17T08:54:41Z</time>
      </trkpt>
      <trkpt lat="45.43612" lon="2.60244">
        <ele>647.81</ele>
        <time>2022-08-17T08:54:42Z</time>
      </trkpt>
      <trkpt lat="45.43618" lon="2.60248">
        <ele>646.8</ele>
        <time>2022-08-17T08:54:43Z</time>
      </trkpt>
      <trkpt lat="45.43622" lon="2.60253">
        <ele>646.8</ele>
        <time>2022-08-17T08:54:44Z</time>
      </trkpt>
      <trkpt lat="45.43625" lon="2.60259">
        <ele>646.82</ele>
        <time>2022-08-17T08:54:45Z</time>
      </trkpt>
      <trkpt lat="45.4363" lon="2.60272">
        <ele>646.8</ele>
        <time>2022-08-17T08:54:47Z</time>
      </trkpt>
      <trkpt lat="45.43633" lon="2.60278">
        <ele>645.26</ele>
        <time>2022-08-17T08:54:48Z</time>
      </trkpt>
      <trkpt lat="45.43637" lon="2.60282">
        <ele>645.27</ele>
        <time>2022-08-17T08:54:49Z</time>
      </trkpt>
      <trkpt lat="45.43641" lon="2.60283">
        <ele>645.27</ele>
        <time>2022-08-17T08:54:50Z</time>
      </trkpt>
      <trkpt lat="45.43645" lon="2.60283">
        <ele>645.28</ele>
        <time>2022-08-17T08:54:51Z</time>
      </trkpt>
      <trkpt lat="45.43649" lon="2.60283">
        <ele>644.53</ele>
        <time>2022-08-17T08:54:52Z</time>
      </trkpt>
      <trkpt lat="45.43674" lon="2.60281">
        <ele>644.89</ele>
        <time>2022-08-17T08:55:03Z</time>
      </trkpt>
      <trkpt lat="45.43676" lon="2.6028">
        <ele>644.9</ele>
        <time>2022-08-17T08:55:05Z</time>
      </trkpt>
      <trkpt lat="45.43677" lon="2.60279">
        <ele>644.92</ele>
        <time>2022-08-17T08:55:06Z</time>
      </trkpt>
      <trkpt lat="45.43678" lon="2.60275">
        <ele>644.92</ele>
        <time>2022-08-17T08:55:07Z</time>
      </trkpt>
      <trkpt lat="45.43678" lon="2.6027">
        <ele>644.95</ele>
        <time>2022-08-17T08:55:08Z</time>
      </trkpt>
      <trkpt lat="45.43678" lon="2.60263">
        <ele>644.98</ele>
        <time>2022-08-17T08:55:09Z</time>
      </trkpt>
      <trkpt lat="45.43678" lon="2.60255">
        <ele>645.01</ele>
        <time>2022-08-17T08:55:10Z</time>
      </trkpt>
      <trkpt lat="45.43677" lon="2.60248">
        <ele>645.02</ele>
        <time>2022-08-17T08:55:11Z</time>
      </trkpt>
      <trkpt lat="45.43671" lon="2.60217">
        <ele>647.6</ele>
        <time>2022-08-17T08:55:15Z</time>
      </trkpt>
      <trkpt lat="45.43661" lon="2.60173">
        <ele>649.84</ele>
        <time>2022-08-17T08:55:20Z</time>
      </trkpt>
      <trkpt lat="45.43622" lon="2.60067">
        <ele>652.62</ele>
        <time>2022-08-17T08:55:32Z</time>
      </trkpt>
      <trkpt lat="45.43586" lon="2.59955">
        <ele>652.64</ele>
        <time>2022-08-17T08:55:45Z</time>
      </trkpt>
      <trkpt lat="45.43528" lon="2.59811">
        <ele>652.96</ele>
        <time>2022-08-17T08:56:04Z</time>
      </trkpt>
      <trkpt lat="45.43491" lon="2.5972">
        <ele>655.28</ele>
        <time>2022-08-17T08:56:14Z</time>
      </trkpt>
      <trkpt lat="45.43487" lon="2.5971">
        <ele>655.3</ele>
        <time>2022-08-17T08:56:15Z</time>
      </trkpt>
      <trkpt lat="45.43473" lon="2.59661">
        <ele>656.38</ele>
        <time>2022-08-17T08:56:20Z</time>
      </trkpt>
      <trkpt lat="45.43436" lon="2.5955">
        <ele>657.49</ele>
        <time>2022-08-17T08:56:31Z</time>
      </trkpt>
      <trkpt lat="45.43432" lon="2.59545">
        <ele>657.32</ele>
        <time>2022-08-17T08:56:32Z</time>
      </trkpt>
      <trkpt lat="45.43429" lon="2.59541">
        <ele>657.33</ele>
        <time>2022-08-17T08:56:33Z</time>
      </trkpt>
      <trkpt lat="45.43421" lon="2.59533">
        <ele>657.35</ele>
        <time>2022-08-17T08:56:35Z</time>
      </trkpt>
      <trkpt lat="45.43413" lon="2.59522">
        <ele>655.04</ele>
        <time>2022-08-17T08:56:37Z</time>
      </trkpt>
      <trkpt lat="45.43408" lon="2.59515">
        <ele>655.03</ele>
        <time>2022-08-17T08:56:38Z</time>
      </trkpt>
      <trkpt lat="45.43393" lon="2.59491">
        <ele>651.23</ele>
        <time>2022-08-17T08:56:41Z</time>
      </trkpt>
      <trkpt lat="45.43389" lon="2.59482">
        <ele>649.99</ele>
        <time>2022-08-17T08:56:42Z</time>
      </trkpt>
      <trkpt lat="45.43376" lon="2.59454">
        <ele>646.61</ele>
        <time>2022-08-17T08:56:45Z</time>
      </trkpt>
      <trkpt lat="45.4336" lon="2.59427">
        <ele>644.59</ele>
        <time>2022-08-17T08:56:48Z</time>
      </trkpt>
      <trkpt lat="45.43351" lon="2.5941">
        <ele>642.95</ele>
        <time>2022-08-17T08:56:50Z</time>
      </trkpt>
      <trkpt lat="45.43338" lon="2.59388">
        <ele>639.29</ele>
        <time>2022-08-17T08:56:53Z</time>
      </trkpt>
      <trkpt lat="45.43332" lon="2.59382">
        <ele>637.92</ele>
        <time>2022-08-17T08:56:55Z</time>
      </trkpt>
      <trkpt lat="45.43329" lon="2.59382">
        <ele>636.88</ele>
        <time>2022-08-17T08:56:56Z</time>
      </trkpt>
      <trkpt lat="45.43328" lon="2.59385">
        <ele>636.79</ele>
        <time>2022-08-17T08:56:57Z</time>
      </trkpt>
      <trkpt lat="45.43328" lon="2.59389">
        <ele>636.8</ele>
        <time>2022-08-17T08:56:58Z</time>
      </trkpt>
      <trkpt lat="45.43329" lon="2.59394">
        <ele>635.57</ele>
        <time>2022-08-17T08:56:59Z</time>
      </trkpt>
      <trkpt lat="45.43331" lon="2.594">
        <ele>635.51</ele>
        <time>2022-08-17T08:57:00Z</time>
      </trkpt>
      <trkpt lat="45.43333" lon="2.59408">
        <ele>635.58</ele>
        <time>2022-08-17T08:57:01Z</time>
      </trkpt>
      <trkpt lat="45.43335" lon="2.59417">
        <ele>636.38</ele>
        <time>2022-08-17T08:57:02Z</time>
      </trkpt>
      <trkpt lat="45.43344" lon="2.59449">
        <ele>634.88</ele>
        <time>2022-08-17T08:57:06Z</time>
      </trkpt>
      <trkpt lat="45.43349" lon="2.59482">
        <ele>634.87</ele>
        <time>2022-08-17T08:57:11Z</time>
      </trkpt>
      <trkpt lat="45.43347" lon="2.59486">
        <ele>634.89</ele>
        <time>2022-08-17T08:57:12Z</time>
      </trkpt>
      <trkpt lat="45.43346" lon="2.59488">
        <ele>634.88</ele>
        <time>2022-08-17T08:57:13Z</time>
      </trkpt>
      <trkpt lat="45.43344" lon="2.5949">
        <ele>633.85</ele>
        <time>2022-08-17T08:57:14Z</time>
      </trkpt>
      <trkpt lat="45.43343" lon="2.59493">
        <ele>633.87</ele>
        <time>2022-08-17T08:57:19Z</time>
      </trkpt>
      <trkpt lat="45.43344" lon="2.59495">
        <ele>633.9</ele>
        <time>2022-08-17T08:57:20Z</time>
      </trkpt>
      <trkpt lat="45.43345" lon="2.59495">
        <ele>633.93</ele>
        <time>2022-08-17T08:57:21Z</time>
      </trkpt>
      <trkpt lat="45.43347" lon="2.59495">
        <ele>633.94</ele>
        <time>2022-08-17T08:57:22Z</time>
      </trkpt>
      <trkpt lat="45.43349" lon="2.59493">
        <ele>633.94</ele>
        <time>2022-08-17T08:57:23Z</time>
      </trkpt>
      <trkpt lat="45.43349" lon="2.59493">
        <ele>634.04</ele>
        <time>2022-08-17T08:57:34Z</time>
      </trkpt>
      <trkpt lat="45.43351" lon="2.59493">
        <ele>634.29</ele>
        <time>2022-08-17T08:58:33Z</time>
      </trkpt>
      <trkpt lat="45.43353" lon="2.59493">
        <ele>634.63</ele>
        <time>2022-08-17T09:00:10Z</time>
      </trkpt>
      <trkpt lat="45.43354" lon="2.59491">
        <ele>635</ele>
        <time>2022-08-17T09:01:31Z</time>
      </trkpt>
      <trkpt lat="45.43354" lon="2.5949">
        <ele>637.72</ele>
        <time>2022-08-17T09:02:41Z</time>
      </trkpt>
      <trkpt lat="45.43356" lon="2.59491">
        <ele>638.18</ele>
        <time>2022-08-17T09:03:55Z</time>
      </trkpt>
      <trkpt lat="45.43355" lon="2.59491">
        <ele>636.03</ele>
        <time>2022-08-17T09:04:14Z</time>
      </trkpt>
      <trkpt lat="45.43353" lon="2.59491">
        <ele>636.5</ele>
        <time>2022-08-17T09:05:22Z</time>
      </trkpt>
      <trkpt lat="45.43351" lon="2.5949">
        <ele>635.94</ele>
        <time>2022-08-17T09:06:12Z</time>
      </trkpt>
      <trkpt lat="45.43352" lon="2.5949">
        <ele>636.01</ele>
        <time>2022-08-17T09:06:23Z</time>
      </trkpt>
      <trkpt lat="45.43351" lon="2.59486">
        <ele>636.03</ele>
        <time>2022-08-17T09:06:24Z</time>
      </trkpt>
      <trkpt lat="45.4335" lon="2.5948">
        <ele>636.03</ele>
        <time>2022-08-17T09:06:25Z</time>
      </trkpt>
      <trkpt lat="45.43348" lon="2.59472">
        <ele>636.05</ele>
        <time>2022-08-17T09:06:26Z</time>
      </trkpt>
      <trkpt lat="45.43346" lon="2.59462">
        <ele>636.06</ele>
        <time>2022-08-17T09:06:27Z</time>
      </trkpt>
      <trkpt lat="45.43339" lon="2.59431">
        <ele>638.33</ele>
        <time>2022-08-17T09:06:30Z</time>
      </trkpt>
      <trkpt lat="45.43331" lon="2.59396">
        <ele>638.38</ele>
        <time>2022-08-17T09:06:34Z</time>
      </trkpt>
      <trkpt lat="45.4333" lon="2.59391">
        <ele>638.37</ele>
        <time>2022-08-17T09:06:35Z</time>
      </trkpt>
      <trkpt lat="45.43331" lon="2.59387">
        <ele>638.39</ele>
        <time>2022-08-17T09:06:36Z</time>
      </trkpt>
      <trkpt lat="45.43333" lon="2.59385">
        <ele>638.42</ele>
        <time>2022-08-17T09:06:37Z</time>
      </trkpt>
      <trkpt lat="45.43336" lon="2.59385">
        <ele>638.46</ele>
        <time>2022-08-17T09:06:38Z</time>
      </trkpt>
      <trkpt lat="45.43338" lon="2.59388">
        <ele>639.53</ele>
        <time>2022-08-17T09:06:39Z</time>
      </trkpt>
      <trkpt lat="45.43341" lon="2.59392">
        <ele>639.55</ele>
        <time>2022-08-17T09:06:40Z</time>
      </trkpt>
      <trkpt lat="45.43343" lon="2.59398">
        <ele>640.83</ele>
        <time>2022-08-17T09:06:41Z</time>
      </trkpt>
      <trkpt lat="45.43347" lon="2.59405">
        <ele>640.83</ele>
        <time>2022-08-17T09:06:42Z</time>
      </trkpt>
      <trkpt lat="45.4336" lon="2.5943">
        <ele>643.54</ele>
        <time>2022-08-17T09:06:45Z</time>
      </trkpt>
      <trkpt lat="45.4338" lon="2.59466">
        <ele>647.59</ele>
        <time>2022-08-17T09:06:49Z</time>
      </trkpt>
      <trkpt lat="45.43385" lon="2.59474">
        <ele>647.66</ele>
        <time>2022-08-17T09:06:50Z</time>
      </trkpt>
      <trkpt lat="45.43397" lon="2.59497">
        <ele>651.29</ele>
        <time>2022-08-17T09:06:53Z</time>
      </trkpt>
      <trkpt lat="45.43404" lon="2.59512">
        <ele>653.67</ele>
        <time>2022-08-17T09:06:55Z</time>
      </trkpt>
      <trkpt lat="45.43418" lon="2.59536">
        <ele>656.49</ele>
        <time>2022-08-17T09:06:59Z</time>
      </trkpt>
      <trkpt lat="45.43423" lon="2.59543">
        <ele>658.44</ele>
        <time>2022-08-17T09:07:01Z</time>
      </trkpt>
      <trkpt lat="45.43425" lon="2.59544">
        <ele>659.26</ele>
        <time>2022-08-17T09:07:02Z</time>
      </trkpt>
      <trkpt lat="45.43426" lon="2.59544">
        <ele>659.22</ele>
        <time>2022-08-17T09:07:03Z</time>
      </trkpt>
      <trkpt lat="45.43427" lon="2.59542">
        <ele>659.23</ele>
        <time>2022-08-17T09:07:04Z</time>
      </trkpt>
      <trkpt lat="45.43428" lon="2.59539">
        <ele>660.79</ele>
        <time>2022-08-17T09:07:05Z</time>
      </trkpt>
      <trkpt lat="45.43427" lon="2.59535">
        <ele>660.76</ele>
        <time>2022-08-17T09:07:06Z</time>
      </trkpt>
      <trkpt lat="45.43427" lon="2.59531">
        <ele>660.81</ele>
        <time>2022-08-17T09:07:07Z</time>
      </trkpt>
      <trkpt lat="45.43426" lon="2.59528">
        <ele>660.07</ele>
        <time>2022-08-17T09:07:08Z</time>
      </trkpt>
      <trkpt lat="45.43423" lon="2.5951">
        <ele>660.15</ele>
        <time>2022-08-17T09:07:18Z</time>
      </trkpt>
      <trkpt lat="45.43415" lon="2.59479">
        <ele>661.58</ele>
        <time>2022-08-17T09:07:21Z</time>
      </trkpt>
      <trkpt lat="45.43413" lon="2.59466">
        <ele>661.59</ele>
        <time>2022-08-17T09:07:22Z</time>
      </trkpt>
      <trkpt lat="45.43399" lon="2.59394">
        <ele>664.53</ele>
        <time>2022-08-17T09:07:27Z</time>
      </trkpt>
      <trkpt lat="45.43373" lon="2.5932">
        <ele>666.17</ele>
        <time>2022-08-17T09:07:32Z</time>
      </trkpt>
      <trkpt lat="45.43363" lon="2.59298">
        <ele>666.17</ele>
        <time>2022-08-17T09:07:34Z</time>
      </trkpt>
      <trkpt lat="45.4336" lon="2.59287">
        <ele>666.19</ele>
        <time>2022-08-17T09:07:35Z</time>
      </trkpt>
      <trkpt lat="45.43358" lon="2.59274">
        <ele>666.2</ele>
        <time>2022-08-17T09:07:36Z</time>
      </trkpt>
      <trkpt lat="45.43356" lon="2.59241">
        <ele>668.27</ele>
        <time>2022-08-17T09:07:38Z</time>
      </trkpt>
      <trkpt lat="45.43352" lon="2.59224">
        <ele>669.74</ele>
        <time>2022-08-17T09:07:39Z</time>
      </trkpt>
      <trkpt lat="45.43345" lon="2.59206">
        <ele>671.36</ele>
        <time>2022-08-17T09:07:40Z</time>
      </trkpt>
      <trkpt lat="45.43336" lon="2.5919">
        <ele>672.37</ele>
        <time>2022-08-17T09:07:41Z</time>
      </trkpt>
      <trkpt lat="45.43326" lon="2.59176">
        <ele>672.42</ele>
        <time>2022-08-17T09:07:42Z</time>
      </trkpt>
      <trkpt lat="45.43296" lon="2.59127">
        <ele>675.69</ele>
        <time>2022-08-17T09:07:46Z</time>
      </trkpt>
      <trkpt lat="45.43292" lon="2.59116">
        <ele>675.75</ele>
        <time>2022-08-17T09:07:47Z</time>
      </trkpt>
      <trkpt lat="45.4329" lon="2.59106">
        <ele>676.66</ele>
        <time>2022-08-17T09:07:48Z</time>
      </trkpt>
      <trkpt lat="45.4329" lon="2.59096">
        <ele>676.71</ele>
        <time>2022-08-17T09:07:49Z</time>
      </trkpt>
      <trkpt lat="45.43292" lon="2.59085">
        <ele>677.67</ele>
        <time>2022-08-17T09:07:50Z</time>
      </trkpt>
      <trkpt lat="45.43296" lon="2.59074">
        <ele>678.33</ele>
        <time>2022-08-17T09:07:51Z</time>
      </trkpt>
      <trkpt lat="45.43301" lon="2.59063">
        <ele>679.68</ele>
        <time>2022-08-17T09:07:52Z</time>
      </trkpt>
      <trkpt lat="45.43306" lon="2.59053">
        <ele>679.76</ele>
        <time>2022-08-17T09:07:53Z</time>
      </trkpt>
      <trkpt lat="45.43311" lon="2.59045">
        <ele>680.94</ele>
        <time>2022-08-17T09:07:54Z</time>
      </trkpt>
      <trkpt lat="45.43317" lon="2.59037">
        <ele>681.02</ele>
        <time>2022-08-17T09:07:55Z</time>
      </trkpt>
      <trkpt lat="45.43324" lon="2.5903">
        <ele>682.05</ele>
        <time>2022-08-17T09:07:56Z</time>
      </trkpt>
      <trkpt lat="45.43339" lon="2.59018">
        <ele>682.63</ele>
        <time>2022-08-17T09:07:58Z</time>
      </trkpt>
      <trkpt lat="45.43347" lon="2.59014">
        <ele>684.23</ele>
        <time>2022-08-17T09:07:59Z</time>
      </trkpt>
      <trkpt lat="45.43356" lon="2.5901">
        <ele>684.23</ele>
        <time>2022-08-17T09:08:00Z</time>
      </trkpt>
      <trkpt lat="45.43366" lon="2.59009">
        <ele>686.11</ele>
        <time>2022-08-17T09:08:01Z</time>
      </trkpt>
      <trkpt lat="45.43376" lon="2.59008">
        <ele>686.18</ele>
        <time>2022-08-17T09:08:02Z</time>
      </trkpt>
      <trkpt lat="45.43385" lon="2.59008">
        <ele>687.26</ele>
        <time>2022-08-17T09:08:03Z</time>
      </trkpt>
      <trkpt lat="45.43422" lon="2.59009">
        <ele>689.92</ele>
        <time>2022-08-17T09:08:07Z</time>
      </trkpt>
      <trkpt lat="45.43431" lon="2.59009">
        <ele>690.83</ele>
        <time>2022-08-17T09:08:08Z</time>
      </trkpt>
      <trkpt lat="45.43439" lon="2.59007">
        <ele>690.82</ele>
        <time>2022-08-17T09:08:09Z</time>
      </trkpt>
      <trkpt lat="45.43446" lon="2.59004">
        <ele>690.87</ele>
        <time>2022-08-17T09:08:10Z</time>
      </trkpt>
      <trkpt lat="45.4345" lon="2.59">
        <ele>692.03</ele>
        <time>2022-08-17T09:08:11Z</time>
      </trkpt>
      <trkpt lat="45.43453" lon="2.58997">
        <ele>692.08</ele>
        <time>2022-08-17T09:08:12Z</time>
      </trkpt>
      <trkpt lat="45.43454" lon="2.58995">
        <ele>692.08</ele>
        <time>2022-08-17T09:08:13Z</time>
      </trkpt>
      <trkpt lat="45.43453" lon="2.58989">
        <ele>692.69</ele>
        <time>2022-08-17T09:08:23Z</time>
      </trkpt>
      <trkpt lat="45.43454" lon="2.58984">
        <ele>692.63</ele>
        <time>2022-08-17T09:09:02Z</time>
      </trkpt>
      <trkpt lat="45.43453" lon="2.58979">
        <ele>692.64</ele>
        <time>2022-08-17T09:09:06Z</time>
      </trkpt>
      <trkpt lat="45.43453" lon="2.58975">
        <ele>692.66</ele>
        <time>2022-08-17T09:09:07Z</time>
      </trkpt>
      <trkpt lat="45.43453" lon="2.58969">
        <ele>692.69</ele>
        <time>2022-08-17T09:09:08Z</time>
      </trkpt>
      <trkpt lat="45.43452" lon="2.58962">
        <ele>693.47</ele>
        <time>2022-08-17T09:09:09Z</time>
      </trkpt>
      <trkpt lat="45.4345" lon="2.58956">
        <ele>694.23</ele>
        <time>2022-08-17T09:09:10Z</time>
      </trkpt>
      <trkpt lat="45.43447" lon="2.58951">
        <ele>694.24</ele>
        <time>2022-08-17T09:09:11Z</time>
      </trkpt>
      <trkpt lat="45.43442" lon="2.58945">
        <ele>695.49</ele>
        <time>2022-08-17T09:09:12Z</time>
      </trkpt>
      <trkpt lat="45.43436" lon="2.5894">
        <ele>695.49</ele>
        <time>2022-08-17T09:09:13Z</time>
      </trkpt>
      <trkpt lat="45.43433" lon="2.58933">
        <ele>696.38</ele>
        <time>2022-08-17T09:09:14Z</time>
      </trkpt>
      <trkpt lat="45.43431" lon="2.58924">
        <ele>696.38</ele>
        <time>2022-08-17T09:09:15Z</time>
      </trkpt>
      <trkpt lat="45.4343" lon="2.58914">
        <ele>696.38</ele>
        <time>2022-08-17T09:09:16Z</time>
      </trkpt>
      <trkpt lat="45.4343" lon="2.58903">
        <ele>696.41</ele>
        <time>2022-08-17T09:09:17Z</time>
      </trkpt>
      <trkpt lat="45.43431" lon="2.58891">
        <ele>697.88</ele>
        <time>2022-08-17T09:09:18Z</time>
      </trkpt>
      <trkpt lat="45.43433" lon="2.58878">
        <ele>697.93</ele>
        <time>2022-08-17T09:09:19Z</time>
      </trkpt>
      <trkpt lat="45.43441" lon="2.58838">
        <ele>699.2</ele>
        <time>2022-08-17T09:09:22Z</time>
      </trkpt>
      <trkpt lat="45.43448" lon="2.58798">
        <ele>700.76</ele>
        <time>2022-08-17T09:09:25Z</time>
      </trkpt>
      <trkpt lat="45.4345" lon="2.58786">
        <ele>700.8</ele>
        <time>2022-08-17T09:09:26Z</time>
      </trkpt>
      <trkpt lat="45.43453" lon="2.58776">
        <ele>702.31</ele>
        <time>2022-08-17T09:09:27Z</time>
      </trkpt>
      <trkpt lat="45.43458" lon="2.58767">
        <ele>702.27</ele>
        <time>2022-08-17T09:09:28Z</time>
      </trkpt>
      <trkpt lat="45.43463" lon="2.58758">
        <ele>702.31</ele>
        <time>2022-08-17T09:09:29Z</time>
      </trkpt>
      <trkpt lat="45.43469" lon="2.5875">
        <ele>702.31</ele>
        <time>2022-08-17T09:09:30Z</time>
      </trkpt>
      <trkpt lat="45.43476" lon="2.58742">
        <ele>703.73</ele>
        <time>2022-08-17T09:09:31Z</time>
      </trkpt>
      <trkpt lat="45.43483" lon="2.58736">
        <ele>704.55</ele>
        <time>2022-08-17T09:09:32Z</time>
      </trkpt>
      <trkpt lat="45.43491" lon="2.5873">
        <ele>704.49</ele>
        <time>2022-08-17T09:09:33Z</time>
      </trkpt>
      <trkpt lat="45.43516" lon="2.58712">
        <ele>706.29</ele>
        <time>2022-08-17T09:09:36Z</time>
      </trkpt>
      <trkpt lat="45.43522" lon="2.58703">
        <ele>707.16</ele>
        <time>2022-08-17T09:09:37Z</time>
      </trkpt>
      <trkpt lat="45.43526" lon="2.58692">
        <ele>708.1</ele>
        <time>2022-08-17T09:09:38Z</time>
      </trkpt>
      <trkpt lat="45.43528" lon="2.58681">
        <ele>708.1</ele>
        <time>2022-08-17T09:09:39Z</time>
      </trkpt>
      <trkpt lat="45.43529" lon="2.58668">
        <ele>709.14</ele>
        <time>2022-08-17T09:09:40Z</time>
      </trkpt>
      <trkpt lat="45.43527" lon="2.58655">
        <ele>709.2</ele>
        <time>2022-08-17T09:09:41Z</time>
      </trkpt>
      <trkpt lat="45.43525" lon="2.58642">
        <ele>710.4</ele>
        <time>2022-08-17T09:09:42Z</time>
      </trkpt>
      <trkpt lat="45.43523" lon="2.58629">
        <ele>710.46</ele>
        <time>2022-08-17T09:09:43Z</time>
      </trkpt>
      <trkpt lat="45.43521" lon="2.58601">
        <ele>712.15</ele>
        <time>2022-08-17T09:09:45Z</time>
      </trkpt>
      <trkpt lat="45.43519" lon="2.5856">
        <ele>714.62</ele>
        <time>2022-08-17T09:09:48Z</time>
      </trkpt>
      <trkpt lat="45.43515" lon="2.58546">
        <ele>714.61</ele>
        <time>2022-08-17T09:09:49Z</time>
      </trkpt>
      <trkpt lat="45.43497" lon="2.58502">
        <ele>717.1</ele>
        <time>2022-08-17T09:09:53Z</time>
      </trkpt>
      <trkpt lat="45.43486" lon="2.58463">
        <ele>718.01</ele>
        <time>2022-08-17T09:10:01Z</time>
      </trkpt>
      <trkpt lat="45.43486" lon="2.58463">
        <ele>717.96</ele>
        <time>2022-08-17T09:10:43Z</time>
      </trkpt>
      <trkpt lat="45.43484" lon="2.58461">
        <ele>718.29</ele>
        <time>2022-08-17T09:11:22Z</time>
      </trkpt>
      <trkpt lat="45.43482" lon="2.58454">
        <ele>718.3</ele>
        <time>2022-08-17T09:11:23Z</time>
      </trkpt>
      <trkpt lat="45.43479" lon="2.58444">
        <ele>719.23</ele>
        <time>2022-08-17T09:11:24Z</time>
      </trkpt>
      <trkpt lat="45.43474" lon="2.58413">
        <ele>720.17</ele>
        <time>2022-08-17T09:11:26Z</time>
      </trkpt>
      <trkpt lat="45.43466" lon="2.58372">
        <ele>721.97</ele>
        <time>2022-08-17T09:11:29Z</time>
      </trkpt>
      <trkpt lat="45.43459" lon="2.58238">
        <ele>722.07</ele>
        <time>2022-08-17T09:11:38Z</time>
      </trkpt>
      <trkpt lat="45.4345" lon="2.58191">
        <ele>722.11</ele>
        <time>2022-08-17T09:11:41Z</time>
      </trkpt>
      <trkpt lat="45.43444" lon="2.58177">
        <ele>722.09</ele>
        <time>2022-08-17T09:11:42Z</time>
      </trkpt>
      <trkpt lat="45.43394" lon="2.58073">
        <ele>719.55</ele>
        <time>2022-08-17T09:11:50Z</time>
      </trkpt>
      <trkpt lat="45.43385" lon="2.58063">
        <ele>719.56</ele>
        <time>2022-08-17T09:11:51Z</time>
      </trkpt>
      <trkpt lat="45.4336" lon="2.58034">
        <ele>719.6</ele>
        <time>2022-08-17T09:11:54Z</time>
      </trkpt>
      <trkpt lat="45.43344" lon="2.58006">
        <ele>719.64</ele>
        <time>2022-08-17T09:11:57Z</time>
      </trkpt>
      <trkpt lat="45.43341" lon="2.57999">
        <ele>719.64</ele>
        <time>2022-08-17T09:11:58Z</time>
      </trkpt>
      <trkpt lat="45.4334" lon="2.57993">
        <ele>722.05</ele>
        <time>2022-08-17T09:11:59Z</time>
      </trkpt>
      <trkpt lat="45.43339" lon="2.57987">
        <ele>722.08</ele>
        <time>2022-08-17T09:12:00Z</time>
      </trkpt>
      <trkpt lat="45.43339" lon="2.57981">
        <ele>722.08</ele>
        <time>2022-08-17T09:12:01Z</time>
      </trkpt>
      <trkpt lat="45.43338" lon="2.57973">
        <ele>722.1</ele>
        <time>2022-08-17T09:12:03Z</time>
      </trkpt>
      <trkpt lat="45.43337" lon="2.57972">
        <ele>722.12</ele>
        <time>2022-08-17T09:12:04Z</time>
      </trkpt>
      <trkpt lat="45.43336" lon="2.57975">
        <ele>722.17</ele>
        <time>2022-08-17T09:12:11Z</time>
      </trkpt>
      <trkpt lat="45.43336" lon="2.5798">
        <ele>722.95</ele>
        <time>2022-08-17T09:12:12Z</time>
      </trkpt>
      <trkpt lat="45.43336" lon="2.57987">
        <ele>722.91</ele>
        <time>2022-08-17T09:12:13Z</time>
      </trkpt>
      <trkpt lat="45.43337" lon="2.57995">
        <ele>722.88</ele>
        <time>2022-08-17T09:12:14Z</time>
      </trkpt>
      <trkpt lat="45.4334" lon="2.58003">
        <ele>722.88</ele>
        <time>2022-08-17T09:12:15Z</time>
      </trkpt>
      <trkpt lat="45.43343" lon="2.58012">
        <ele>722.88</ele>
        <time>2022-08-17T09:12:16Z</time>
      </trkpt>
      <trkpt lat="45.43347" lon="2.58021">
        <ele>722.89</ele>
        <time>2022-08-17T09:12:17Z</time>
      </trkpt>
      <trkpt lat="45.43355" lon="2.58043">
        <ele>719.8</ele>
        <time>2022-08-17T09:12:20Z</time>
      </trkpt>
      <trkpt lat="45.43355" lon="2.58049">
        <ele>718.51</ele>
        <time>2022-08-17T09:12:21Z</time>
      </trkpt>
      <trkpt lat="45.43353" lon="2.58053">
        <ele>718.52</ele>
        <time>2022-08-17T09:12:22Z</time>
      </trkpt>
      <trkpt lat="45.43351" lon="2.58056">
        <ele>718.5</ele>
        <time>2022-08-17T09:12:23Z</time>
      </trkpt>
      <trkpt lat="45.43349" lon="2.58058">
        <ele>718.52</ele>
        <time>2022-08-17T09:12:24Z</time>
      </trkpt>
      <trkpt lat="45.4334" lon="2.58064">
        <ele>717.15</ele>
        <time>2022-08-17T09:12:27Z</time>
      </trkpt>
      <trkpt lat="45.43332" lon="2.58063">
        <ele>716.05</ele>
        <time>2022-08-17T09:12:29Z</time>
      </trkpt>
      <trkpt lat="45.43328" lon="2.58062">
        <ele>716.02</ele>
        <time>2022-08-17T09:12:30Z</time>
      </trkpt>
      <trkpt lat="45.43307" lon="2.58049">
        <ele>714.82</ele>
        <time>2022-08-17T09:12:34Z</time>
      </trkpt>
      <trkpt lat="45.43285" lon="2.58033">
        <ele>712.49</ele>
        <time>2022-08-17T09:12:38Z</time>
      </trkpt>
      <trkpt lat="45.43261" lon="2.58018">
        <ele>711.21</ele>
        <time>2022-08-17T09:12:43Z</time>
      </trkpt>
      <trkpt lat="45.43257" lon="2.58016">
        <ele>711.22</ele>
        <time>2022-08-17T09:12:44Z</time>
      </trkpt>
      <trkpt lat="45.43253" lon="2.58014">
        <ele>711.23</ele>
        <time>2022-08-17T09:12:45Z</time>
      </trkpt>
      <trkpt lat="45.43249" lon="2.58012">
        <ele>710</ele>
        <time>2022-08-17T09:12:46Z</time>
      </trkpt>
      <trkpt lat="45.43238" lon="2.58002">
        <ele>708.16</ele>
        <time>2022-08-17T09:12:51Z</time>
      </trkpt>
      <trkpt lat="45.43234" lon="2.57999">
        <ele>708.17</ele>
        <time>2022-08-17T09:13:00Z</time>
      </trkpt>
      <trkpt lat="45.43218" lon="2.5799">
        <ele>705.1</ele>
        <time>2022-08-17T09:13:03Z</time>
      </trkpt>
      <trkpt lat="45.43213" lon="2.57989">
        <ele>705.1</ele>
        <time>2022-08-17T09:13:04Z</time>
      </trkpt>
      <trkpt lat="45.43209" lon="2.57989">
        <ele>704.25</ele>
        <time>2022-08-17T09:13:05Z</time>
      </trkpt>
      <trkpt lat="45.43206" lon="2.57991">
        <ele>703.45</ele>
        <time>2022-08-17T09:13:06Z</time>
      </trkpt>
      <trkpt lat="45.43203" lon="2.57994">
        <ele>703.44</ele>
        <time>2022-08-17T09:13:07Z</time>
      </trkpt>
      <trkpt lat="45.43201" lon="2.57997">
        <ele>703.41</ele>
        <time>2022-08-17T09:13:08Z</time>
      </trkpt>
      <trkpt lat="45.43199" lon="2.58001">
        <ele>702.07</ele>
        <time>2022-08-17T09:13:09Z</time>
      </trkpt>
      <trkpt lat="45.43197" lon="2.58005">
        <ele>702.03</ele>
        <time>2022-08-17T09:13:10Z</time>
      </trkpt>
      <trkpt lat="45.43186" lon="2.5804">
        <ele>698.23</ele>
        <time>2022-08-17T09:13:18Z</time>
      </trkpt>
      <trkpt lat="45.43183" lon="2.58045">
        <ele>698.23</ele>
        <time>2022-08-17T09:13:19Z</time>
      </trkpt>
      <trkpt lat="45.43179" lon="2.58056">
        <ele>697.38</ele>
        <time>2022-08-17T09:13:21Z</time>
      </trkpt>
      <trkpt lat="45.43178" lon="2.58061">
        <ele>697.53</ele>
        <time>2022-08-17T09:13:22Z</time>
      </trkpt>
      <trkpt lat="45.43176" lon="2.58067">
        <ele>697.49</ele>
        <time>2022-08-17T09:13:23Z</time>
      </trkpt>
      <trkpt lat="45.43176" lon="2.58072">
        <ele>696.11</ele>
        <time>2022-08-17T09:13:24Z</time>
      </trkpt>
      <trkpt lat="45.43176" lon="2.58078">
        <ele>696.1</ele>
        <time>2022-08-17T09:13:25Z</time>
      </trkpt>
      <trkpt lat="45.43177" lon="2.58083">
        <ele>696.1</ele>
        <time>2022-08-17T09:13:26Z</time>
      </trkpt>
      <trkpt lat="45.43179" lon="2.58089">
        <ele>695.19</ele>
        <time>2022-08-17T09:13:27Z</time>
      </trkpt>
      <trkpt lat="45.43183" lon="2.58104">
        <ele>695.18</ele>
        <time>2022-08-17T09:13:29Z</time>
      </trkpt>
      <trkpt lat="45.43185" lon="2.58111">
        <ele>693.97</ele>
        <time>2022-08-17T09:13:30Z</time>
      </trkpt>
      <trkpt lat="45.43187" lon="2.58118">
        <ele>693.92</ele>
        <time>2022-08-17T09:13:31Z</time>
      </trkpt>
      <trkpt lat="45.43188" lon="2.58125">
        <ele>692.92</ele>
        <time>2022-08-17T09:13:32Z</time>
      </trkpt>
      <trkpt lat="45.43189" lon="2.58133">
        <ele>692.95</ele>
        <time>2022-08-17T09:13:33Z</time>
      </trkpt>
      <trkpt lat="45.43189" lon="2.5814">
        <ele>692.91</ele>
        <time>2022-08-17T09:13:34Z</time>
      </trkpt>
      <trkpt lat="45.4319" lon="2.58156">
        <ele>691.6</ele>
        <time>2022-08-17T09:13:36Z</time>
      </trkpt>
      <trkpt lat="45.43189" lon="2.58165">
        <ele>691.56</ele>
        <time>2022-08-17T09:13:37Z</time>
      </trkpt>
      <trkpt lat="45.43185" lon="2.58182">
        <ele>690.71</ele>
        <time>2022-08-17T09:13:39Z</time>
      </trkpt>
      <trkpt lat="45.43164" lon="2.58277">
        <ele>689.67</ele>
        <time>2022-08-17T09:13:49Z</time>
      </trkpt>
      <trkpt lat="45.43164" lon="2.58286">
        <ele>689.66</ele>
        <time>2022-08-17T09:13:50Z</time>
      </trkpt>
      <trkpt lat="45.43164" lon="2.58295">
        <ele>689.66</ele>
        <time>2022-08-17T09:13:51Z</time>
      </trkpt>
      <trkpt lat="45.43166" lon="2.58322">
        <ele>689.68</ele>
        <time>2022-08-17T09:13:54Z</time>
      </trkpt>
      <trkpt lat="45.43166" lon="2.5834">
        <ele>689.67</ele>
        <time>2022-08-17T09:13:56Z</time>
      </trkpt>
      <trkpt lat="45.4317" lon="2.58364">
        <ele>688.67</ele>
        <time>2022-08-17T09:13:59Z</time>
      </trkpt>
      <trkpt lat="45.43177" lon="2.58387">
        <ele>687.86</ele>
        <time>2022-08-17T09:14:02Z</time>
      </trkpt>
      <trkpt lat="45.43207" lon="2.58455">
        <ele>687.87</ele>
        <time>2022-08-17T09:14:10Z</time>
      </trkpt>
      <trkpt lat="45.43226" lon="2.58482">
        <ele>690.22</ele>
        <time>2022-08-17T09:14:14Z</time>
      </trkpt>
      <trkpt lat="45.43236" lon="2.58497">
        <ele>690.23</ele>
        <time>2022-08-17T09:14:16Z</time>
      </trkpt>
      <trkpt lat="45.4324" lon="2.58504">
        <ele>690.26</ele>
        <time>2022-08-17T09:14:17Z</time>
      </trkpt>
      <trkpt lat="45.43243" lon="2.58512">
        <ele>690.28</ele>
        <time>2022-08-17T09:14:18Z</time>
      </trkpt>
      <trkpt lat="45.43245" lon="2.58519">
        <ele>690.28</ele>
        <time>2022-08-17T09:14:19Z</time>
      </trkpt>
      <trkpt lat="45.43247" lon="2.58526">
        <ele>690.3</ele>
        <time>2022-08-17T09:14:20Z</time>
      </trkpt>
      <trkpt lat="45.43248" lon="2.58533">
        <ele>690.31</ele>
        <time>2022-08-17T09:14:21Z</time>
      </trkpt>
      <trkpt lat="45.43254" lon="2.58554">
        <ele>690.27</ele>
        <time>2022-08-17T09:14:24Z</time>
      </trkpt>
      <trkpt lat="45.43255" lon="2.58559">
        <ele>690.22</ele>
        <time>2022-08-17T09:14:25Z</time>
      </trkpt>
      <trkpt lat="45.4326" lon="2.58576">
        <ele>687.92</ele>
        <time>2022-08-17T09:14:28Z</time>
      </trkpt>
      <trkpt lat="45.43262" lon="2.58589">
        <ele>687.93</ele>
        <time>2022-08-17T09:14:30Z</time>
      </trkpt>
      <trkpt lat="45.43263" lon="2.58602">
        <ele>686.68</ele>
        <time>2022-08-17T09:14:32Z</time>
      </trkpt>
      <trkpt lat="45.43264" lon="2.58609">
        <ele>686.67</ele>
        <time>2022-08-17T09:14:33Z</time>
      </trkpt>
      <trkpt lat="45.43265" lon="2.58615">
        <ele>686.66</ele>
        <time>2022-08-17T09:14:34Z</time>
      </trkpt>
      <trkpt lat="45.43266" lon="2.58622">
        <ele>686.64</ele>
        <time>2022-08-17T09:14:35Z</time>
      </trkpt>
      <trkpt lat="45.43267" lon="2.58628">
        <ele>685.43</ele>
        <time>2022-08-17T09:14:36Z</time>
      </trkpt>
      <trkpt lat="45.43269" lon="2.58634">
        <ele>685.4</ele>
        <time>2022-08-17T09:14:37Z</time>
      </trkpt>
      <trkpt lat="45.43271" lon="2.58647">
        <ele>683.59</ele>
        <time>2022-08-17T09:14:39Z</time>
      </trkpt>
      <trkpt lat="45.43271" lon="2.58653">
        <ele>683.59</ele>
        <time>2022-08-17T09:14:40Z</time>
      </trkpt>
      <trkpt lat="45.4327" lon="2.5866">
        <ele>683.57</ele>
        <time>2022-08-17T09:14:41Z</time>
      </trkpt>
      <trkpt lat="45.43264" lon="2.58704">
        <ele>683.63</ele>
        <time>2022-08-17T09:14:48Z</time>
      </trkpt>
      <trkpt lat="45.43264" lon="2.5871">
        <ele>681.62</ele>
        <time>2022-08-17T09:14:49Z</time>
      </trkpt>
      <trkpt lat="45.43265" lon="2.58717">
        <ele>681.62</ele>
        <time>2022-08-17T09:14:50Z</time>
      </trkpt>
      <trkpt lat="45.43268" lon="2.58736">
        <ele>678.45</ele>
        <time>2022-08-17T09:14:53Z</time>
      </trkpt>
      <trkpt lat="45.43269" lon="2.58749">
        <ele>677.61</ele>
        <time>2022-08-17T09:14:55Z</time>
      </trkpt>
      <trkpt lat="45.43268" lon="2.58756">
        <ele>677.62</ele>
        <time>2022-08-17T09:14:56Z</time>
      </trkpt>
      <trkpt lat="45.43266" lon="2.58762">
        <ele>675.86</ele>
        <time>2022-08-17T09:14:57Z</time>
      </trkpt>
      <trkpt lat="45.43264" lon="2.58768">
        <ele>674.95</ele>
        <time>2022-08-17T09:14:58Z</time>
      </trkpt>
      <trkpt lat="45.43262" lon="2.58774">
        <ele>674.97</ele>
        <time>2022-08-17T09:14:59Z</time>
      </trkpt>
      <trkpt lat="45.43255" lon="2.588">
        <ele>671.69</ele>
        <time>2022-08-17T09:15:04Z</time>
      </trkpt>
      <trkpt lat="45.43254" lon="2.58804">
        <ele>671.69</ele>
        <time>2022-08-17T09:15:05Z</time>
      </trkpt>
      <trkpt lat="45.43254" lon="2.58815">
        <ele>670.07</ele>
        <time>2022-08-17T09:15:08Z</time>
      </trkpt>
      <trkpt lat="45.43257" lon="2.58831">
        <ele>667.79</ele>
        <time>2022-08-17T09:15:11Z</time>
      </trkpt>
      <trkpt lat="45.43265" lon="2.58857">
        <ele>665.19</ele>
        <time>2022-08-17T09:15:16Z</time>
      </trkpt>
      <trkpt lat="45.4327" lon="2.58881">
        <ele>662.48</ele>
        <time>2022-08-17T09:15:20Z</time>
      </trkpt>
      <trkpt lat="45.4327" lon="2.58887">
        <ele>661.01</ele>
        <time>2022-08-17T09:15:21Z</time>
      </trkpt>
      <trkpt lat="45.43269" lon="2.58902">
        <ele>660.18</ele>
        <time>2022-08-17T09:15:23Z</time>
      </trkpt>
      <trkpt lat="45.43267" lon="2.58916">
        <ele>658.5</ele>
        <time>2022-08-17T09:15:25Z</time>
      </trkpt>
      <trkpt lat="45.43266" lon="2.58935">
        <ele>656.33</ele>
        <time>2022-08-17T09:15:28Z</time>
      </trkpt>
      <trkpt lat="45.43265" lon="2.58949">
        <ele>654.81</ele>
        <time>2022-08-17T09:15:30Z</time>
      </trkpt>
      <trkpt lat="45.43262" lon="2.58974">
        <ele>652.54</ele>
        <time>2022-08-17T09:15:34Z</time>
      </trkpt>
      <trkpt lat="45.43261" lon="2.5898">
        <ele>652.55</ele>
        <time>2022-08-17T09:15:35Z</time>
      </trkpt>
      <trkpt lat="45.43258" lon="2.58986">
        <ele>652.54</ele>
        <time>2022-08-17T09:15:36Z</time>
      </trkpt>
      <trkpt lat="45.43249" lon="2.59002">
        <ele>651.91</ele>
        <time>2022-08-17T09:15:39Z</time>
      </trkpt>
      <trkpt lat="45.43247" lon="2.59007">
        <ele>650.38</ele>
        <time>2022-08-17T09:15:40Z</time>
      </trkpt>
      <trkpt lat="45.43244" lon="2.59014">
        <ele>650.32</ele>
        <time>2022-08-17T09:15:41Z</time>
      </trkpt>
      <trkpt lat="45.43233" lon="2.59048">
        <ele>648.32</ele>
        <time>2022-08-17T09:15:46Z</time>
      </trkpt>
      <trkpt lat="45.43231" lon="2.59056">
        <ele>647.19</ele>
        <time>2022-08-17T09:15:47Z</time>
      </trkpt>
      <trkpt lat="45.4323" lon="2.59063">
        <ele>647.2</ele>
        <time>2022-08-17T09:15:48Z</time>
      </trkpt>
      <trkpt lat="45.43229" lon="2.59071">
        <ele>646.27</ele>
        <time>2022-08-17T09:15:49Z</time>
      </trkpt>
      <trkpt lat="45.43228" lon="2.5908">
        <ele>646.19</ele>
        <time>2022-08-17T09:15:50Z</time>
      </trkpt>
      <trkpt lat="45.43228" lon="2.59088">
        <ele>645.4</ele>
        <time>2022-08-17T09:15:51Z</time>
      </trkpt>
      <trkpt lat="45.43235" lon="2.59152">
        <ele>642.56</ele>
        <time>2022-08-17T09:15:58Z</time>
      </trkpt>
      <trkpt lat="45.43238" lon="2.59162">
        <ele>642.61</ele>
        <time>2022-08-17T09:15:59Z</time>
      </trkpt>
      <trkpt lat="45.43242" lon="2.59171">
        <ele>642.56</ele>
        <time>2022-08-17T09:16:00Z</time>
      </trkpt>
      <trkpt lat="45.43246" lon="2.59179">
        <ele>642.52</ele>
        <time>2022-08-17T09:16:01Z</time>
      </trkpt>
      <trkpt lat="45.43251" lon="2.59187">
        <ele>642.52</ele>
        <time>2022-08-17T09:16:02Z</time>
      </trkpt>
      <trkpt lat="45.43258" lon="2.59196">
        <ele>642.97</ele>
        <time>2022-08-17T09:16:03Z</time>
      </trkpt>
      <trkpt lat="45.43292" lon="2.59253">
        <ele>642.93</ele>
        <time>2022-08-17T09:16:08Z</time>
      </trkpt>
      <trkpt lat="45.43298" lon="2.59267">
        <ele>642.93</ele>
        <time>2022-08-17T09:16:09Z</time>
      </trkpt>
      <trkpt lat="45.43329" lon="2.59366">
        <ele>641.9</ele>
        <time>2022-08-17T09:16:16Z</time>
      </trkpt>
      <trkpt lat="45.43333" lon="2.59376">
        <ele>641.02</ele>
        <time>2022-08-17T09:16:17Z</time>
      </trkpt>
      <trkpt lat="45.43348" lon="2.59405">
        <ele>641.05</ele>
        <time>2022-08-17T09:16:23Z</time>
      </trkpt>
      <trkpt lat="45.43346" lon="2.594">
        <ele>641.09</ele>
        <time>2022-08-17T09:16:28Z</time>
      </trkpt>
      <trkpt lat="45.4334" lon="2.59394">
        <ele>640.14</ele>
        <time>2022-08-17T09:16:42Z</time>
      </trkpt>
      <trkpt lat="45.43338" lon="2.59392">
        <ele>640.15</ele>
        <time>2022-08-17T09:16:43Z</time>
      </trkpt>
      <trkpt lat="45.43333" lon="2.59394">
        <ele>640.14</ele>
        <time>2022-08-17T09:16:45Z</time>
      </trkpt>
      <trkpt lat="45.43333" lon="2.59398">
        <ele>638.56</ele>
        <time>2022-08-17T09:16:46Z</time>
      </trkpt>
      <trkpt lat="45.43333" lon="2.59403">
        <ele>638.52</ele>
        <time>2022-08-17T09:16:47Z</time>
      </trkpt>
      <trkpt lat="45.43334" lon="2.5941">
        <ele>638.52</ele>
        <time>2022-08-17T09:16:48Z</time>
      </trkpt>
      <trkpt lat="45.43336" lon="2.59417">
        <ele>638.52</ele>
        <time>2022-08-17T09:16:49Z</time>
      </trkpt>
      <trkpt lat="45.4335" lon="2.59486">
        <ele>637.62</ele>
        <time>2022-08-17T09:17:00Z</time>
      </trkpt>
      <trkpt lat="45.43349" lon="2.59493">
        <ele>636.52</ele>
        <time>2022-08-17T09:17:02Z</time>
      </trkpt>
      <trkpt lat="45.4335" lon="2.59495">
        <ele>636.54</ele>
        <time>2022-08-17T09:17:03Z</time>
      </trkpt>
      <trkpt lat="45.43351" lon="2.59494">
        <ele>636.56</ele>
        <time>2022-08-17T09:17:04Z</time>
      </trkpt>
      <trkpt lat="45.43353" lon="2.59492">
        <ele>636.55</ele>
        <time>2022-08-17T09:17:05Z</time>
      </trkpt>
      <trkpt lat="45.43353" lon="2.59487">
        <ele>636.56</ele>
        <time>2022-08-17T09:17:06Z</time>
      </trkpt>
      <trkpt lat="45.43351" lon="2.59481">
        <ele>636.56</ele>
        <time>2022-08-17T09:17:07Z</time>
      </trkpt>
      <trkpt lat="45.43349" lon="2.59473">
        <ele>636.58</ele>
        <time>2022-08-17T09:17:08Z</time>
      </trkpt>
      <trkpt lat="45.43346" lon="2.59462">
        <ele>636.59</ele>
        <time>2022-08-17T09:17:09Z</time>
      </trkpt>
      <trkpt lat="45.43332" lon="2.59398">
        <ele>636.66</ele>
        <time>2022-08-17T09:17:15Z</time>
      </trkpt>
      <trkpt lat="45.43332" lon="2.59393">
        <ele>636.69</ele>
        <time>2022-08-17T09:17:16Z</time>
      </trkpt>
      <trkpt lat="45.43335" lon="2.5939">
        <ele>636.66</ele>
        <time>2022-08-17T09:17:17Z</time>
      </trkpt>
      <trkpt lat="45.43338" lon="2.59389">
        <ele>639.14</ele>
        <time>2022-08-17T09:17:18Z</time>
      </trkpt>
      <trkpt lat="45.43341" lon="2.59391">
        <ele>640.05</ele>
        <time>2022-08-17T09:17:19Z</time>
      </trkpt>
      <trkpt lat="45.43344" lon="2.59396">
        <ele>641.05</ele>
        <time>2022-08-17T09:17:20Z</time>
      </trkpt>
      <trkpt lat="45.43348" lon="2.59403">
        <ele>642.17</ele>
        <time>2022-08-17T09:17:21Z</time>
      </trkpt>
      <trkpt lat="45.43353" lon="2.59412">
        <ele>643.34</ele>
        <time>2022-08-17T09:17:22Z</time>
      </trkpt>
      <trkpt lat="45.43359" lon="2.59423">
        <ele>644.36</ele>
        <time>2022-08-17T09:17:23Z</time>
      </trkpt>
      <trkpt lat="45.43375" lon="2.59452">
        <ele>648.03</ele>
        <time>2022-08-17T09:17:25Z</time>
      </trkpt>
      <trkpt lat="45.43391" lon="2.59486">
        <ele>651.71</ele>
        <time>2022-08-17T09:17:27Z</time>
      </trkpt>
      <trkpt lat="45.43405" lon="2.59515">
        <ele>653.85</ele>
        <time>2022-08-17T09:17:29Z</time>
      </trkpt>
      <trkpt lat="45.43417" lon="2.59535">
        <ele>657.26</ele>
        <time>2022-08-17T09:17:31Z</time>
      </trkpt>
      <trkpt lat="45.43426" lon="2.59549">
        <ele>658.85</ele>
        <time>2022-08-17T09:17:33Z</time>
      </trkpt>
      <trkpt lat="45.43433" lon="2.5956">
        <ele>660.09</ele>
        <time>2022-08-17T09:17:35Z</time>
      </trkpt>
      <trkpt lat="45.43438" lon="2.5957">
        <ele>661.42</ele>
        <time>2022-08-17T09:17:36Z</time>
      </trkpt>
      <trkpt lat="45.43442" lon="2.59584">
        <ele>661.53</ele>
        <time>2022-08-17T09:17:37Z</time>
      </trkpt>
      <trkpt lat="45.43482" lon="2.59692">
        <ele>662.51</ele>
        <time>2022-08-17T09:17:44Z</time>
      </trkpt>
      <trkpt lat="45.43491" lon="2.5972">
        <ele>659.91</ele>
        <time>2022-08-17T09:17:46Z</time>
      </trkpt>
      <trkpt lat="45.43498" lon="2.59735">
        <ele>659.87</ele>
        <time>2022-08-17T09:17:47Z</time>
      </trkpt>
      <trkpt lat="45.43556" lon="2.59866">
        <ele>656.77</ele>
        <time>2022-08-17T09:17:55Z</time>
      </trkpt>
      <trkpt lat="45.43562" lon="2.5988">
        <ele>656.77</ele>
        <time>2022-08-17T09:17:56Z</time>
      </trkpt>
      <trkpt lat="45.43598" lon="2.59978">
        <ele>655.76</ele>
        <time>2022-08-17T09:18:05Z</time>
      </trkpt>
      <trkpt lat="45.43629" lon="2.60079">
        <ele>655.03</ele>
        <time>2022-08-17T09:18:18Z</time>
      </trkpt>
      <trkpt lat="45.43664" lon="2.60204">
        <ele>653.18</ele>
        <time>2022-08-17T09:18:28Z</time>
      </trkpt>
      <trkpt lat="45.43667" lon="2.60216">
        <ele>653.08</ele>
        <time>2022-08-17T09:18:29Z</time>
      </trkpt>
      <trkpt lat="45.43673" lon="2.60249">
        <ele>651.15</ele>
        <time>2022-08-17T09:18:32Z</time>
      </trkpt>
      <trkpt lat="45.43675" lon="2.60259">
        <ele>651.15</ele>
        <time>2022-08-17T09:18:33Z</time>
      </trkpt>
      <trkpt lat="45.43675" lon="2.60267">
        <ele>650.04</ele>
        <time>2022-08-17T09:18:34Z</time>
      </trkpt>
      <trkpt lat="45.43674" lon="2.60274">
        <ele>650.01</ele>
        <time>2022-08-17T09:18:35Z</time>
      </trkpt>
      <trkpt lat="45.43672" lon="2.60279">
        <ele>649.2</ele>
        <time>2022-08-17T09:18:36Z</time>
      </trkpt>
      <trkpt lat="45.4367" lon="2.60282">
        <ele>649.2</ele>
        <time>2022-08-17T09:18:37Z</time>
      </trkpt>
      <trkpt lat="45.43667" lon="2.60284">
        <ele>648.34</ele>
        <time>2022-08-17T09:18:38Z</time>
      </trkpt>
      <trkpt lat="45.43663" lon="2.60285">
        <ele>648.34</ele>
        <time>2022-08-17T09:18:39Z</time>
      </trkpt>
      <trkpt lat="45.43659" lon="2.60286">
        <ele>648.35</ele>
        <time>2022-08-17T09:18:40Z</time>
      </trkpt>
      <trkpt lat="45.4363" lon="2.60281">
        <ele>648.32</ele>
        <time>2022-08-17T09:18:48Z</time>
      </trkpt>
      <trkpt lat="45.43633" lon="2.60276">
        <ele>648.41</ele>
        <time>2022-08-17T09:18:58Z</time>
      </trkpt>
      <trkpt lat="45.43635" lon="2.60277">
        <ele>648.42</ele>
        <time>2022-08-17T09:18:59Z</time>
      </trkpt>
      <trkpt lat="45.43646" lon="2.6028">
        <ele>648.4</ele>
        <time>2022-08-17T09:19:02Z</time>
      </trkpt>
      <trkpt lat="45.4365" lon="2.6028">
        <ele>648.43</ele>
        <time>2022-08-17T09:19:03Z</time>
      </trkpt>
      <trkpt lat="45.43672" lon="2.60281">
        <ele>648.44</ele>
        <time>2022-08-17T09:19:07Z</time>
      </trkpt>
      <trkpt lat="45.43675" lon="2.60285">
        <ele>648.45</ele>
        <time>2022-08-17T09:19:08Z</time>
      </trkpt>
      <trkpt lat="45.43679" lon="2.6029">
        <ele>648.46</ele>
        <time>2022-08-17T09:19:09Z</time>
      </trkpt>
      <trkpt lat="45.43681" lon="2.60295">
        <ele>648.47</ele>
        <time>2022-08-17T09:19:10Z</time>
      </trkpt>
      <trkpt lat="45.43683" lon="2.60301">
        <ele>651.12</ele>
        <time>2022-08-17T09:19:11Z</time>
      </trkpt>
      <trkpt lat="45.43686" lon="2.60307">
        <ele>651.97</ele>
        <time>2022-08-17T09:19:12Z</time>
      </trkpt>
      <trkpt lat="45.43689" lon="2.60313">
        <ele>651.97</ele>
        <time>2022-08-17T09:19:13Z</time>
      </trkpt>
      <trkpt lat="45.43692" lon="2.6032">
        <ele>653</ele>
        <time>2022-08-17T09:19:14Z</time>
      </trkpt>
      <trkpt lat="45.43695" lon="2.60326">
        <ele>653.03</ele>
        <time>2022-08-17T09:19:15Z</time>
      </trkpt>
      <trkpt lat="45.43699" lon="2.60333">
        <ele>654.37</ele>
        <time>2022-08-17T09:19:16Z</time>
      </trkpt>
      <trkpt lat="45.43702" lon="2.6034">
        <ele>654.43</ele>
        <time>2022-08-17T09:19:17Z</time>
      </trkpt>
      <trkpt lat="45.43705" lon="2.60347">
        <ele>655.36</ele>
        <time>2022-08-17T09:19:18Z</time>
      </trkpt>
      <trkpt lat="45.43711" lon="2.60362">
        <ele>656.28</ele>
        <time>2022-08-17T09:19:20Z</time>
      </trkpt>
      <trkpt lat="45.43722" lon="2.60386">
        <ele>657.23</ele>
        <time>2022-08-17T09:19:24Z</time>
      </trkpt>
      <trkpt lat="45.43728" lon="2.60397">
        <ele>657.23</ele>
        <time>2022-08-17T09:19:26Z</time>
      </trkpt>
      <trkpt lat="45.43731" lon="2.60401">
        <ele>656.82</ele>
        <time>2022-08-17T09:19:27Z</time>
      </trkpt>
      <trkpt lat="45.43745" lon="2.6042">
        <ele>658.63</ele>
        <time>2022-08-17T09:19:31Z</time>
      </trkpt>
      <trkpt lat="45.4375" lon="2.60431">
        <ele>658.64</ele>
        <time>2022-08-17T09:19:33Z</time>
      </trkpt>
      <trkpt lat="45.43763" lon="2.60461">
        <ele>659.7</ele>
        <time>2022-08-17T09:19:42Z</time>
      </trkpt>
      <trkpt lat="45.43771" lon="2.60478">
        <ele>660.73</ele>
        <time>2022-08-17T09:19:51Z</time>
      </trkpt>
      <trkpt lat="45.43761" lon="2.60518">
        <ele>660.74</ele>
        <time>2022-08-17T09:19:59Z</time>
      </trkpt>
      <trkpt lat="45.43758" lon="2.60522">
        <ele>660.73</ele>
        <time>2022-08-17T09:20:00Z</time>
      </trkpt>
      <trkpt lat="45.43744" lon="2.60538">
        <ele>658.4</ele>
        <time>2022-08-17T09:20:04Z</time>
      </trkpt>
      <trkpt lat="45.43724" lon="2.60558">
        <ele>657.34</ele>
        <time>2022-08-17T09:20:10Z</time>
      </trkpt>
      <trkpt lat="45.4372" lon="2.60562">
        <ele>657.31</ele>
        <time>2022-08-17T09:20:11Z</time>
      </trkpt>
      <trkpt lat="45.43715" lon="2.60566">
        <ele>657.34</ele>
        <time>2022-08-17T09:20:12Z</time>
      </trkpt>
      <trkpt lat="45.43711" lon="2.60569">
        <ele>656.05</ele>
        <time>2022-08-17T09:20:13Z</time>
      </trkpt>
      <trkpt lat="45.43706" lon="2.60573">
        <ele>656.08</ele>
        <time>2022-08-17T09:20:14Z</time>
      </trkpt>
      <trkpt lat="45.43702" lon="2.60575">
        <ele>656.31</ele>
        <time>2022-08-17T09:20:15Z</time>
      </trkpt>
      <trkpt lat="45.43698" lon="2.60578">
        <ele>654.86</ele>
        <time>2022-08-17T09:20:16Z</time>
      </trkpt>
      <trkpt lat="45.43694" lon="2.60579">
        <ele>654.86</ele>
        <time>2022-08-17T09:20:17Z</time>
      </trkpt>
      <trkpt lat="45.43652" lon="2.60602">
        <ele>653.12</ele>
        <time>2022-08-17T09:20:27Z</time>
      </trkpt>
      <trkpt lat="45.4364" lon="2.60609">
        <ele>653.12</ele>
        <time>2022-08-17T09:20:29Z</time>
      </trkpt>
      <trkpt lat="45.43624" lon="2.60622">
        <ele>653.12</ele>
        <time>2022-08-17T09:20:32Z</time>
      </trkpt>
      <trkpt lat="45.43618" lon="2.60625">
        <ele>653.14</ele>
        <time>2022-08-17T09:20:33Z</time>
      </trkpt>
      <trkpt lat="45.43614" lon="2.6063">
        <ele>653.1</ele>
        <time>2022-08-17T09:20:34Z</time>
      </trkpt>
      <trkpt lat="45.43609" lon="2.60634">
        <ele>653.13</ele>
        <time>2022-08-17T09:20:35Z</time>
      </trkpt>
      <trkpt lat="45.43604" lon="2.60637">
        <ele>653.11</ele>
        <time>2022-08-17T09:20:36Z</time>
      </trkpt>
      <trkpt lat="45.43589" lon="2.60646">
        <ele>653.17</ele>
        <time>2022-08-17T09:20:39Z</time>
      </trkpt>
      <trkpt lat="45.43584" lon="2.6065">
        <ele>653.2</ele>
        <time>2022-08-17T09:20:40Z</time>
      </trkpt>
      <trkpt lat="45.43579" lon="2.60655">
        <ele>655.52</ele>
        <time>2022-08-17T09:20:41Z</time>
      </trkpt>
      <trkpt lat="45.43576" lon="2.60662">
        <ele>656.62</ele>
        <time>2022-08-17T09:20:42Z</time>
      </trkpt>
      <trkpt lat="45.43572" lon="2.60668">
        <ele>657.83</ele>
        <time>2022-08-17T09:20:43Z</time>
      </trkpt>
      <trkpt lat="45.43569" lon="2.60674">
        <ele>657.84</ele>
        <time>2022-08-17T09:20:44Z</time>
      </trkpt>
      <trkpt lat="45.43564" lon="2.60685">
        <ele>660.41</ele>
        <time>2022-08-17T09:20:46Z</time>
      </trkpt>
      <trkpt lat="45.43562" lon="2.6069">
        <ele>661.33</ele>
        <time>2022-08-17T09:20:47Z</time>
      </trkpt>
      <trkpt lat="45.4356" lon="2.60694">
        <ele>662.22</ele>
        <time>2022-08-17T09:20:48Z</time>
      </trkpt>
      <trkpt lat="45.43559" lon="2.60698">
        <ele>663.43</ele>
        <time>2022-08-17T09:20:49Z</time>
      </trkpt>
      <trkpt lat="45.43556" lon="2.60703">
        <ele>663.44</ele>
        <time>2022-08-17T09:20:50Z</time>
      </trkpt>
      <trkpt lat="45.43554" lon="2.60707">
        <ele>665.13</ele>
        <time>2022-08-17T09:20:51Z</time>
      </trkpt>
      <trkpt lat="45.43551" lon="2.60711">
        <ele>665.19</ele>
        <time>2022-08-17T09:20:52Z</time>
      </trkpt>
      <trkpt lat="45.43547" lon="2.60716">
        <ele>666.15</ele>
        <time>2022-08-17T09:20:53Z</time>
      </trkpt>
      <trkpt lat="45.43544" lon="2.60722">
        <ele>666.15</ele>
        <time>2022-08-17T09:20:54Z</time>
      </trkpt>
      <trkpt lat="45.43543" lon="2.60727">
        <ele>666.21</ele>
        <time>2022-08-17T09:20:55Z</time>
      </trkpt>
      <trkpt lat="45.43542" lon="2.60734">
        <ele>666.2</ele>
        <time>2022-08-17T09:20:56Z</time>
      </trkpt>
      <trkpt lat="45.43541" lon="2.60741">
        <ele>666.26</ele>
        <time>2022-08-17T09:20:57Z</time>
      </trkpt>
      <trkpt lat="45.43541" lon="2.60748">
        <ele>666.19</ele>
        <time>2022-08-17T09:20:58Z</time>
      </trkpt>
      <trkpt lat="45.43542" lon="2.60755">
        <ele>666.25</ele>
        <time>2022-08-17T09:20:59Z</time>
      </trkpt>
      <trkpt lat="45.43544" lon="2.60762">
        <ele>666.21</ele>
        <time>2022-08-17T09:21:00Z</time>
      </trkpt>
      <trkpt lat="45.43548" lon="2.60776">
        <ele>665.99</ele>
        <time>2022-08-17T09:21:03Z</time>
      </trkpt>
      <trkpt lat="45.43549" lon="2.60781">
        <ele>665.98</ele>
        <time>2022-08-17T09:21:04Z</time>
      </trkpt>
      <trkpt lat="45.43559" lon="2.60841">
        <ele>665.7</ele>
        <time>2022-08-17T09:21:13Z</time>
      </trkpt>
      <trkpt lat="45.43565" lon="2.60905">
        <ele>665.73</ele>
        <time>2022-08-17T09:21:23Z</time>
      </trkpt>
      <trkpt lat="45.43562" lon="2.60928">
        <ele>665.77</ele>
        <time>2022-08-17T09:21:26Z</time>
      </trkpt>
      <trkpt lat="45.43561" lon="2.60935">
        <ele>666.56</ele>
        <time>2022-08-17T09:21:27Z</time>
      </trkpt>
      <trkpt lat="45.43548" lon="2.61018">
        <ele>667.57</ele>
        <time>2022-08-17T09:21:37Z</time>
      </trkpt>
      <trkpt lat="45.43548" lon="2.61025">
        <ele>667.57</ele>
        <time>2022-08-17T09:21:38Z</time>
      </trkpt>
      <trkpt lat="45.43549" lon="2.61033">
        <ele>668.56</ele>
        <time>2022-08-17T09:21:39Z</time>
      </trkpt>
      <trkpt lat="45.4355" lon="2.61039">
        <ele>668.56</ele>
        <time>2022-08-17T09:21:40Z</time>
      </trkpt>
      <trkpt lat="45.43552" lon="2.61047">
        <ele>669.53</ele>
        <time>2022-08-17T09:21:41Z</time>
      </trkpt>
      <trkpt lat="45.43554" lon="2.61055">
        <ele>669.53</ele>
        <time>2022-08-17T09:21:42Z</time>
      </trkpt>
      <trkpt lat="45.43555" lon="2.61063">
        <ele>670.7</ele>
        <time>2022-08-17T09:21:43Z</time>
      </trkpt>
      <trkpt lat="45.43559" lon="2.61072">
        <ele>671.45</ele>
        <time>2022-08-17T09:21:44Z</time>
      </trkpt>
      <trkpt lat="45.43562" lon="2.61081">
        <ele>671.45</ele>
        <time>2022-08-17T09:21:45Z</time>
      </trkpt>
      <trkpt lat="45.43566" lon="2.61097">
        <ele>672.99</ele>
        <time>2022-08-17T09:21:47Z</time>
      </trkpt>
      <trkpt lat="45.43571" lon="2.6112">
        <ele>675.18</ele>
        <time>2022-08-17T09:21:50Z</time>
      </trkpt>
      <trkpt lat="45.43572" lon="2.61127">
        <ele>675.17</ele>
        <time>2022-08-17T09:21:51Z</time>
      </trkpt>
      <trkpt lat="45.43576" lon="2.61152">
        <ele>675.92</ele>
        <time>2022-08-17T09:21:54Z</time>
      </trkpt>
      <trkpt lat="45.43582" lon="2.61193">
        <ele>675.41</ele>
        <time>2022-08-17T09:21:59Z</time>
      </trkpt>
      <trkpt lat="45.43585" lon="2.61202">
        <ele>675.41</ele>
        <time>2022-08-17T09:22:00Z</time>
      </trkpt>
      <trkpt lat="45.43588" lon="2.61211">
        <ele>675.38</ele>
        <time>2022-08-17T09:22:01Z</time>
      </trkpt>
      <trkpt lat="45.43592" lon="2.61218">
        <ele>675.35</ele>
        <time>2022-08-17T09:22:02Z</time>
      </trkpt>
      <trkpt lat="45.43597" lon="2.61225">
        <ele>675.32</ele>
        <time>2022-08-17T09:22:03Z</time>
      </trkpt>
      <trkpt lat="45.43601" lon="2.61231">
        <ele>675.31</ele>
        <time>2022-08-17T09:22:04Z</time>
      </trkpt>
      <trkpt lat="45.43607" lon="2.61238">
        <ele>675.29</ele>
        <time>2022-08-17T09:22:05Z</time>
      </trkpt>
      <trkpt lat="45.43613" lon="2.61244">
        <ele>676.53</ele>
        <time>2022-08-17T09:22:06Z</time>
      </trkpt>
      <trkpt lat="45.43618" lon="2.61251">
        <ele>676.52</ele>
        <time>2022-08-17T09:22:07Z</time>
      </trkpt>
      <trkpt lat="45.43623" lon="2.61258">
        <ele>678.15</ele>
        <time>2022-08-17T09:22:08Z</time>
      </trkpt>
      <trkpt lat="45.43627" lon="2.61265">
        <ele>678.13</ele>
        <time>2022-08-17T09:22:09Z</time>
      </trkpt>
      <trkpt lat="45.43629" lon="2.61271">
        <ele>678.91</ele>
        <time>2022-08-17T09:22:10Z</time>
      </trkpt>
      <trkpt lat="45.43631" lon="2.61275">
        <ele>679.67</ele>
        <time>2022-08-17T09:22:11Z</time>
      </trkpt>
      <trkpt lat="45.43633" lon="2.61278">
        <ele>679.65</ele>
        <time>2022-08-17T09:22:12Z</time>
      </trkpt>
      <trkpt lat="45.43636" lon="2.61282">
        <ele>679.63</ele>
        <time>2022-08-17T09:22:13Z</time>
      </trkpt>
      <trkpt lat="45.43639" lon="2.61286">
        <ele>679.57</ele>
        <time>2022-08-17T09:22:14Z</time>
      </trkpt>
      <trkpt lat="45.43642" lon="2.61291">
        <ele>679.6</ele>
        <time>2022-08-17T09:22:15Z</time>
      </trkpt>
      <trkpt lat="45.43646" lon="2.61297">
        <ele>679.59</ele>
        <time>2022-08-17T09:22:16Z</time>
      </trkpt>
      <trkpt lat="45.4365" lon="2.61303">
        <ele>679.57</ele>
        <time>2022-08-17T09:22:17Z</time>
      </trkpt>
      <trkpt lat="45.43655" lon="2.61309">
        <ele>679.57</ele>
        <time>2022-08-17T09:22:18Z</time>
      </trkpt>
      <trkpt lat="45.4366" lon="2.61315">
        <ele>679.55</ele>
        <time>2022-08-17T09:22:19Z</time>
      </trkpt>
      <trkpt lat="45.43666" lon="2.61321">
        <ele>679.55</ele>
        <time>2022-08-17T09:22:20Z</time>
      </trkpt>
      <trkpt lat="45.4367" lon="2.61327">
        <ele>679.56</ele>
        <time>2022-08-17T09:22:21Z</time>
      </trkpt>
      <trkpt lat="45.43674" lon="2.61333">
        <ele>679.59</ele>
        <time>2022-08-17T09:22:22Z</time>
      </trkpt>
      <trkpt lat="45.43691" lon="2.61352">
        <ele>681.31</ele>
        <time>2022-08-17T09:22:26Z</time>
      </trkpt>
      <trkpt lat="45.437" lon="2.61363">
        <ele>681.28</ele>
        <time>2022-08-17T09:22:28Z</time>
      </trkpt>
      <trkpt lat="45.43704" lon="2.61368">
        <ele>682.67</ele>
        <time>2022-08-17T09:22:29Z</time>
      </trkpt>
      <trkpt lat="45.43709" lon="2.61372">
        <ele>682.64</ele>
        <time>2022-08-17T09:22:30Z</time>
      </trkpt>
      <trkpt lat="45.43715" lon="2.61373">
        <ele>682.65</ele>
        <time>2022-08-17T09:22:31Z</time>
      </trkpt>
      <trkpt lat="45.43721" lon="2.61376">
        <ele>682.64</ele>
        <time>2022-08-17T09:22:32Z</time>
      </trkpt>
      <trkpt lat="45.43728" lon="2.61379">
        <ele>684.03</ele>
        <time>2022-08-17T09:22:33Z</time>
      </trkpt>
      <trkpt lat="45.43734" lon="2.61383">
        <ele>684.03</ele>
        <time>2022-08-17T09:22:34Z</time>
      </trkpt>
      <trkpt lat="45.43744" lon="2.61392">
        <ele>685.99</ele>
        <time>2022-08-17T09:22:36Z</time>
      </trkpt>
      <trkpt lat="45.43748" lon="2.61395">
        <ele>685.98</ele>
        <time>2022-08-17T09:22:37Z</time>
      </trkpt>
      <trkpt lat="45.43766" lon="2.61405">
        <ele>687.54</ele>
        <time>2022-08-17T09:22:40Z</time>
      </trkpt>
      <trkpt lat="45.43773" lon="2.61409">
        <ele>688.47</ele>
        <time>2022-08-17T09:22:41Z</time>
      </trkpt>
      <trkpt lat="45.43781" lon="2.61414">
        <ele>688.45</ele>
        <time>2022-08-17T09:22:42Z</time>
      </trkpt>
      <trkpt lat="45.43788" lon="2.61419">
        <ele>688.45</ele>
        <time>2022-08-17T09:22:43Z</time>
      </trkpt>
      <trkpt lat="45.43794" lon="2.61424">
        <ele>688.41</ele>
        <time>2022-08-17T09:22:44Z</time>
      </trkpt>
      <trkpt lat="45.43801" lon="2.6143">
        <ele>689.66</ele>
        <time>2022-08-17T09:22:45Z</time>
      </trkpt>
      <trkpt lat="45.43807" lon="2.61436">
        <ele>689.62</ele>
        <time>2022-08-17T09:22:46Z</time>
      </trkpt>
      <trkpt lat="45.43819" lon="2.61445">
        <ele>691.49</ele>
        <time>2022-08-17T09:22:48Z</time>
      </trkpt>
      <trkpt lat="45.43826" lon="2.6145">
        <ele>691.45</ele>
        <time>2022-08-17T09:22:49Z</time>
      </trkpt>
      <trkpt lat="45.43832" lon="2.61455">
        <ele>691.44</ele>
        <time>2022-08-17T09:22:50Z</time>
      </trkpt>
      <trkpt lat="45.43837" lon="2.61461">
        <ele>693.5</ele>
        <time>2022-08-17T09:22:51Z</time>
      </trkpt>
      <trkpt lat="45.43842" lon="2.61467">
        <ele>693.51</ele>
        <time>2022-08-17T09:22:52Z</time>
      </trkpt>
      <trkpt lat="45.43847" lon="2.61473">
        <ele>693.48</ele>
        <time>2022-08-17T09:22:53Z</time>
      </trkpt>
      <trkpt lat="45.43852" lon="2.61478">
        <ele>693.46</ele>
        <time>2022-08-17T09:22:54Z</time>
      </trkpt>
      <trkpt lat="45.43856" lon="2.61484">
        <ele>693.47</ele>
        <time>2022-08-17T09:22:55Z</time>
      </trkpt>
      <trkpt lat="45.4386" lon="2.61489">
        <ele>694.3</ele>
        <time>2022-08-17T09:22:56Z</time>
      </trkpt>
      <trkpt lat="45.43863" lon="2.61496">
        <ele>694.3</ele>
        <time>2022-08-17T09:22:57Z</time>
      </trkpt>
      <trkpt lat="45.43866" lon="2.61505">
        <ele>694.23</ele>
        <time>2022-08-17T09:22:58Z</time>
      </trkpt>
      <trkpt lat="45.43878" lon="2.61542">
        <ele>694.14</ele>
        <time>2022-08-17T09:23:03Z</time>
      </trkpt>
      <trkpt lat="45.43902" lon="2.6159">
        <ele>694.01</ele>
        <time>2022-08-17T09:23:09Z</time>
      </trkpt>
      <trkpt lat="45.43904" lon="2.61598">
        <ele>694</ele>
        <time>2022-08-17T09:23:10Z</time>
      </trkpt>
      <trkpt lat="45.43909" lon="2.6162">
        <ele>693.88</ele>
        <time>2022-08-17T09:23:13Z</time>
      </trkpt>
      <trkpt lat="45.43912" lon="2.6169">
        <ele>691.51</ele>
        <time>2022-08-17T09:23:20Z</time>
      </trkpt>
      <trkpt lat="45.43912" lon="2.61699">
        <ele>691.49</ele>
        <time>2022-08-17T09:23:21Z</time>
      </trkpt>
      <trkpt lat="45.43913" lon="2.61738">
        <ele>691.52</ele>
        <time>2022-08-17T09:23:25Z</time>
      </trkpt>
      <trkpt lat="45.43915" lon="2.6175">
        <ele>691.53</ele>
        <time>2022-08-17T09:23:26Z</time>
      </trkpt>
      <trkpt lat="45.43919" lon="2.61786">
        <ele>691.59</ele>
        <time>2022-08-17T09:23:29Z</time>
      </trkpt>
      <trkpt lat="45.4392" lon="2.61797">
        <ele>691.59</ele>
        <time>2022-08-17T09:23:30Z</time>
      </trkpt>
      <trkpt lat="45.43921" lon="2.61817">
        <ele>691.63</ele>
        <time>2022-08-17T09:23:32Z</time>
      </trkpt>
      <trkpt lat="45.43922" lon="2.61827">
        <ele>691.65</ele>
        <time>2022-08-17T09:23:33Z</time>
      </trkpt>
      <trkpt lat="45.43924" lon="2.61836">
        <ele>691.66</ele>
        <time>2022-08-17T09:23:34Z</time>
      </trkpt>
      <trkpt lat="45.43937" lon="2.61871">
        <ele>693.94</ele>
        <time>2022-08-17T09:23:39Z</time>
      </trkpt>
      <trkpt lat="45.43941" lon="2.61877">
        <ele>693.95</ele>
        <time>2022-08-17T09:23:40Z</time>
      </trkpt>
      <trkpt lat="45.43949" lon="2.61888">
        <ele>695.97</ele>
        <time>2022-08-17T09:23:42Z</time>
      </trkpt>
      <trkpt lat="45.43953" lon="2.61895">
        <ele>696</ele>
        <time>2022-08-17T09:23:43Z</time>
      </trkpt>
      <trkpt lat="45.4396" lon="2.61907">
        <ele>697.24</ele>
        <time>2022-08-17T09:23:45Z</time>
      </trkpt>
      <trkpt lat="45.43967" lon="2.61918">
        <ele>698.63</ele>
        <time>2022-08-17T09:23:47Z</time>
      </trkpt>
      <trkpt lat="45.4397" lon="2.61922">
        <ele>700.12</ele>
        <time>2022-08-17T09:23:48Z</time>
      </trkpt>
      <trkpt lat="45.43973" lon="2.61927">
        <ele>701.34</ele>
        <time>2022-08-17T09:23:49Z</time>
      </trkpt>
      <trkpt lat="45.43975" lon="2.61933">
        <ele>702.11</ele>
        <time>2022-08-17T09:23:50Z</time>
      </trkpt>
      <trkpt lat="45.43979" lon="2.61939">
        <ele>702.15</ele>
        <time>2022-08-17T09:23:51Z</time>
      </trkpt>
      <trkpt lat="45.43986" lon="2.6195">
        <ele>705.4</ele>
        <time>2022-08-17T09:23:53Z</time>
      </trkpt>
      <trkpt lat="45.4399" lon="2.61955">
        <ele>705.47</ele>
        <time>2022-08-17T09:23:54Z</time>
      </trkpt>
      <trkpt lat="45.43998" lon="2.61964">
        <ele>707.09</ele>
        <time>2022-08-17T09:23:56Z</time>
      </trkpt>
      <trkpt lat="45.44003" lon="2.61968">
        <ele>708.4</ele>
        <time>2022-08-17T09:23:57Z</time>
      </trkpt>
      <trkpt lat="45.44012" lon="2.61975">
        <ele>710.62</ele>
        <time>2022-08-17T09:23:59Z</time>
      </trkpt>
      <trkpt lat="45.44016" lon="2.61978">
        <ele>710.63</ele>
        <time>2022-08-17T09:24:00Z</time>
      </trkpt>
      <trkpt lat="45.44025" lon="2.61983">
        <ele>712.24</ele>
        <time>2022-08-17T09:24:02Z</time>
      </trkpt>
      <trkpt lat="45.44031" lon="2.61984">
        <ele>713.73</ele>
        <time>2022-08-17T09:24:04Z</time>
      </trkpt>
      <trkpt lat="45.44046" lon="2.61988">
        <ele>714.76</ele>
        <time>2022-08-17T09:24:08Z</time>
      </trkpt>
      <trkpt lat="45.44051" lon="2.61991">
        <ele>715.66</ele>
        <time>2022-08-17T09:24:09Z</time>
      </trkpt>
      <trkpt lat="45.44055" lon="2.61994">
        <ele>715.64</ele>
        <time>2022-08-17T09:24:10Z</time>
      </trkpt>
      <trkpt lat="45.44059" lon="2.61998">
        <ele>717.23</ele>
        <time>2022-08-17T09:24:11Z</time>
      </trkpt>
      <trkpt lat="45.44062" lon="2.62001">
        <ele>717.22</ele>
        <time>2022-08-17T09:24:12Z</time>
      </trkpt>
      <trkpt lat="45.44096" lon="2.62012">
        <ele>720.18</ele>
        <time>2022-08-17T09:24:20Z</time>
      </trkpt>
      <trkpt lat="45.4411" lon="2.6202">
        <ele>721.55</ele>
        <time>2022-08-17T09:24:24Z</time>
      </trkpt>
      <trkpt lat="45.44132" lon="2.62021">
        <ele>722.53</ele>
        <time>2022-08-17T09:24:28Z</time>
      </trkpt>
      <trkpt lat="45.44136" lon="2.62022">
        <ele>722.19</ele>
        <time>2022-08-17T09:24:29Z</time>
      </trkpt>
      <trkpt lat="45.4414" lon="2.62023">
        <ele>722.19</ele>
        <time>2022-08-17T09:24:30Z</time>
      </trkpt>
      <trkpt lat="45.44144" lon="2.62024">
        <ele>722.17</ele>
        <time>2022-08-17T09:24:31Z</time>
      </trkpt>
      <trkpt lat="45.44149" lon="2.62024">
        <ele>723.76</ele>
        <time>2022-08-17T09:24:32Z</time>
      </trkpt>
      <trkpt lat="45.44154" lon="2.62025">
        <ele>723.74</ele>
        <time>2022-08-17T09:24:33Z</time>
      </trkpt>
      <trkpt lat="45.44159" lon="2.62026">
        <ele>723.75</ele>
        <time>2022-08-17T09:24:34Z</time>
      </trkpt>
      <trkpt lat="45.44165" lon="2.62025">
        <ele>724.86</ele>
        <time>2022-08-17T09:24:35Z</time>
      </trkpt>
      <trkpt lat="45.4417" lon="2.62028">
        <ele>724.84</ele>
        <time>2022-08-17T09:24:36Z</time>
      </trkpt>
      <trkpt lat="45.44175" lon="2.62031">
        <ele>724.82</ele>
        <time>2022-08-17T09:24:37Z</time>
      </trkpt>
      <trkpt lat="45.44179" lon="2.62033">
        <ele>726.26</ele>
        <time>2022-08-17T09:24:38Z</time>
      </trkpt>
      <trkpt lat="45.44184" lon="2.62035">
        <ele>726.28</ele>
        <time>2022-08-17T09:24:39Z</time>
      </trkpt>
      <trkpt lat="45.44189" lon="2.62037">
        <ele>727.62</ele>
        <time>2022-08-17T09:24:40Z</time>
      </trkpt>
      <trkpt lat="45.44193" lon="2.62039">
        <ele>727.62</ele>
        <time>2022-08-17T09:24:41Z</time>
      </trkpt>
      <trkpt lat="45.44197" lon="2.62041">
        <ele>728.51</ele>
        <time>2022-08-17T09:24:42Z</time>
      </trkpt>
      <trkpt lat="45.44201" lon="2.62042">
        <ele>728.52</ele>
        <time>2022-08-17T09:24:43Z</time>
      </trkpt>
      <trkpt lat="45.44206" lon="2.62044">
        <ele>729.85</ele>
        <time>2022-08-17T09:24:44Z</time>
      </trkpt>
      <trkpt lat="45.4421" lon="2.62047">
        <ele>729.85</ele>
        <time>2022-08-17T09:24:45Z</time>
      </trkpt>
      <trkpt lat="45.44215" lon="2.62049">
        <ele>731.16</ele>
        <time>2022-08-17T09:24:46Z</time>
      </trkpt>
      <trkpt lat="45.4422" lon="2.6205">
        <ele>731.1</ele>
        <time>2022-08-17T09:24:47Z</time>
      </trkpt>
      <trkpt lat="45.44236" lon="2.6206">
        <ele>732.85</ele>
        <time>2022-08-17T09:24:51Z</time>
      </trkpt>
      <trkpt lat="45.44239" lon="2.62061">
        <ele>732.85</ele>
        <time>2022-08-17T09:24:52Z</time>
      </trkpt>
      <trkpt lat="45.44241" lon="2.62061">
        <ele>732.83</ele>
        <time>2022-08-17T09:24:53Z</time>
      </trkpt>
      <trkpt lat="45.44247" lon="2.62066">
        <ele>732.16</ele>
        <time>2022-08-17T09:25:03Z</time>
      </trkpt>
      <trkpt lat="45.44248" lon="2.62067">
        <ele>732.08</ele>
        <time>2022-08-17T09:25:06Z</time>
      </trkpt>
      <trkpt lat="45.44268" lon="2.62084">
        <ele>731.83</ele>
        <time>2022-08-17T09:25:16Z</time>
      </trkpt>
      <trkpt lat="45.44271" lon="2.62085">
        <ele>731.81</ele>
        <time>2022-08-17T09:25:17Z</time>
      </trkpt>
      <trkpt lat="45.44276" lon="2.62088">
        <ele>731.79</ele>
        <time>2022-08-17T09:25:18Z</time>
      </trkpt>
      <trkpt lat="45.44281" lon="2.62092">
        <ele>731.79</ele>
        <time>2022-08-17T09:25:19Z</time>
      </trkpt>
      <trkpt lat="45.44286" lon="2.62094">
        <ele>731.79</ele>
        <time>2022-08-17T09:25:20Z</time>
      </trkpt>
      <trkpt lat="45.44291" lon="2.62097">
        <ele>731.77</ele>
        <time>2022-08-17T09:25:21Z</time>
      </trkpt>
      <trkpt lat="45.44297" lon="2.62098">
        <ele>731.75</ele>
        <time>2022-08-17T09:25:22Z</time>
      </trkpt>
      <trkpt lat="45.44302" lon="2.621">
        <ele>731.74</ele>
        <time>2022-08-17T09:25:23Z</time>
      </trkpt>
      <trkpt lat="45.44306" lon="2.62103">
        <ele>731.73</ele>
        <time>2022-08-17T09:25:24Z</time>
      </trkpt>
      <trkpt lat="45.44309" lon="2.62107">
        <ele>731.71</ele>
        <time>2022-08-17T09:25:25Z</time>
      </trkpt>
      <trkpt lat="45.44312" lon="2.62109">
        <ele>731.7</ele>
        <time>2022-08-17T09:25:26Z</time>
      </trkpt>
      <trkpt lat="45.44315" lon="2.62109">
        <ele>731.67</ele>
        <time>2022-08-17T09:25:28Z</time>
      </trkpt>
      <trkpt lat="45.4432" lon="2.62113">
        <ele>731.55</ele>
        <time>2022-08-17T09:25:40Z</time>
      </trkpt>
      <trkpt lat="45.4431" lon="2.62111">
        <ele>731.52</ele>
        <time>2022-08-17T09:25:50Z</time>
      </trkpt>
      <trkpt lat="45.44303" lon="2.62109">
        <ele>731.64</ele>
        <time>2022-08-17T09:26:23Z</time>
      </trkpt>
      <trkpt lat="45.44297" lon="2.62106">
        <ele>731.75</ele>
        <time>2022-08-17T09:26:39Z</time>
      </trkpt>
      <trkpt lat="45.44294" lon="2.62105">
        <ele>731.76</ele>
        <time>2022-08-17T09:26:40Z</time>
      </trkpt>
      <trkpt lat="45.44289" lon="2.62103">
        <ele>731.77</ele>
        <time>2022-08-17T09:26:41Z</time>
      </trkpt>
      <trkpt lat="45.44285" lon="2.62101">
        <ele>731.78</ele>
        <time>2022-08-17T09:26:42Z</time>
      </trkpt>
      <trkpt lat="45.44281" lon="2.62097">
        <ele>731.79</ele>
        <time>2022-08-17T09:26:43Z</time>
      </trkpt>
      <trkpt lat="45.44279" lon="2.62094">
        <ele>731.81</ele>
        <time>2022-08-17T09:26:44Z</time>
      </trkpt>
      <trkpt lat="45.44277" lon="2.6209">
        <ele>731.82</ele>
        <time>2022-08-17T09:26:45Z</time>
      </trkpt>
      <trkpt lat="45.44275" lon="2.62085">
        <ele>731.83</ele>
        <time>2022-08-17T09:26:46Z</time>
      </trkpt>
      <trkpt lat="45.44274" lon="2.62079">
        <ele>731.84</ele>
        <time>2022-08-17T09:26:47Z</time>
      </trkpt>
      <trkpt lat="45.44273" lon="2.62072">
        <ele>732.96</ele>
        <time>2022-08-17T09:26:48Z</time>
      </trkpt>
      <trkpt lat="45.44271" lon="2.62065">
        <ele>734.43</ele>
        <time>2022-08-17T09:26:49Z</time>
      </trkpt>
      <trkpt lat="45.44269" lon="2.6206">
        <ele>734.43</ele>
        <time>2022-08-17T09:26:50Z</time>
      </trkpt>
      <trkpt lat="45.44267" lon="2.62055">
        <ele>735.51</ele>
        <time>2022-08-17T09:26:51Z</time>
      </trkpt>
      <trkpt lat="45.44264" lon="2.62052">
        <ele>735.51</ele>
        <time>2022-08-17T09:26:52Z</time>
      </trkpt>
      <trkpt lat="45.44262" lon="2.62049">
        <ele>736.64</ele>
        <time>2022-08-17T09:26:53Z</time>
      </trkpt>
      <trkpt lat="45.44259" lon="2.62046">
        <ele>737.53</ele>
        <time>2022-08-17T09:26:54Z</time>
      </trkpt>
      <trkpt lat="45.44256" lon="2.62044">
        <ele>737.53</ele>
        <time>2022-08-17T09:26:55Z</time>
      </trkpt>
      <trkpt lat="45.44253" lon="2.6204">
        <ele>737.64</ele>
        <time>2022-08-17T09:26:56Z</time>
      </trkpt>
      <trkpt lat="45.4425" lon="2.62037">
        <ele>737.64</ele>
        <time>2022-08-17T09:26:57Z</time>
      </trkpt>
      <trkpt lat="45.44247" lon="2.62033">
        <ele>737.57</ele>
        <time>2022-08-17T09:26:58Z</time>
      </trkpt>
      <trkpt lat="45.44238" lon="2.62023">
        <ele>738.61</ele>
        <time>2022-08-17T09:27:01Z</time>
      </trkpt>
      <trkpt lat="45.44232" lon="2.62015">
        <ele>739.22</ele>
        <time>2022-08-17T09:27:03Z</time>
      </trkpt>
      <trkpt lat="45.44221" lon="2.62002">
        <ele>740.05</ele>
        <time>2022-08-17T09:27:06Z</time>
      </trkpt>
      <trkpt lat="45.44218" lon="2.61997">
        <ele>741.2</ele>
        <time>2022-08-17T09:27:07Z</time>
      </trkpt>
      <trkpt lat="45.44214" lon="2.61993">
        <ele>741.24</ele>
        <time>2022-08-17T09:27:08Z</time>
      </trkpt>
      <trkpt lat="45.44209" lon="2.61987">
        <ele>741.23</ele>
        <time>2022-08-17T09:27:09Z</time>
      </trkpt>
      <trkpt lat="45.44206" lon="2.61982">
        <ele>741.21</ele>
        <time>2022-08-17T09:27:10Z</time>
      </trkpt>
      <trkpt lat="45.44202" lon="2.61977">
        <ele>742.49</ele>
        <time>2022-08-17T09:27:11Z</time>
      </trkpt>
      <trkpt lat="45.44198" lon="2.61973">
        <ele>742.48</ele>
        <time>2022-08-17T09:27:12Z</time>
      </trkpt>
      <trkpt lat="45.44184" lon="2.61958">
        <ele>743.28</ele>
        <time>2022-08-17T09:27:16Z</time>
      </trkpt>
      <trkpt lat="45.4418" lon="2.61954">
        <ele>744.45</ele>
        <time>2022-08-17T09:27:17Z</time>
      </trkpt>
      <trkpt lat="45.44176" lon="2.61949">
        <ele>744.49</ele>
        <time>2022-08-17T09:27:18Z</time>
      </trkpt>
      <trkpt lat="45.44173" lon="2.61945">
        <ele>745.42</ele>
        <time>2022-08-17T09:27:19Z</time>
      </trkpt>
      <trkpt lat="45.44169" lon="2.61942">
        <ele>745.42</ele>
        <time>2022-08-17T09:27:20Z</time>
      </trkpt>
      <trkpt lat="45.44166" lon="2.61939">
        <ele>746.85</ele>
        <time>2022-08-17T09:27:21Z</time>
      </trkpt>
      <trkpt lat="45.44163" lon="2.61938">
        <ele>746.8</ele>
        <time>2022-08-17T09:27:22Z</time>
      </trkpt>
      <trkpt lat="45.4416" lon="2.61935">
        <ele>747.62</ele>
        <time>2022-08-17T09:27:23Z</time>
      </trkpt>
      <trkpt lat="45.44157" lon="2.61932">
        <ele>748.44</ele>
        <time>2022-08-17T09:27:24Z</time>
      </trkpt>
      <trkpt lat="45.44154" lon="2.61929">
        <ele>748.41</ele>
        <time>2022-08-17T09:27:25Z</time>
      </trkpt>
      <trkpt lat="45.44152" lon="2.61925">
        <ele>749.46</ele>
        <time>2022-08-17T09:27:26Z</time>
      </trkpt>
      <trkpt lat="45.44151" lon="2.61921">
        <ele>749.81</ele>
        <time>2022-08-17T09:27:27Z</time>
      </trkpt>
      <trkpt lat="45.44149" lon="2.61914">
        <ele>750.81</ele>
        <time>2022-08-17T09:27:28Z</time>
      </trkpt>
      <trkpt lat="45.44148" lon="2.61907">
        <ele>751.67</ele>
        <time>2022-08-17T09:27:29Z</time>
      </trkpt>
      <trkpt lat="45.44146" lon="2.61901">
        <ele>751.7</ele>
        <time>2022-08-17T09:27:30Z</time>
      </trkpt>
      <trkpt lat="45.44145" lon="2.61887">
        <ele>752.95</ele>
        <time>2022-08-17T09:27:32Z</time>
      </trkpt>
      <trkpt lat="45.44145" lon="2.61868">
        <ele>755.08</ele>
        <time>2022-08-17T09:27:35Z</time>
      </trkpt>
      <trkpt lat="45.44149" lon="2.6182">
        <ele>759.76</ele>
        <time>2022-08-17T09:27:42Z</time>
      </trkpt>
      <trkpt lat="45.4415" lon="2.61792">
        <ele>761.2</ele>
        <time>2022-08-17T09:27:46Z</time>
      </trkpt>
      <trkpt lat="45.44149" lon="2.61769">
        <ele>763.35</ele>
        <time>2022-08-17T09:27:49Z</time>
      </trkpt>
      <trkpt lat="45.44143" lon="2.61717">
        <ele>764.65</ele>
        <time>2022-08-17T09:27:54Z</time>
      </trkpt>
      <trkpt lat="45.44139" lon="2.61685">
        <ele>764.64</ele>
        <time>2022-08-17T09:27:57Z</time>
      </trkpt>
      <trkpt lat="45.44138" lon="2.61673">
        <ele>764.6</ele>
        <time>2022-08-17T09:27:58Z</time>
      </trkpt>
      <trkpt lat="45.44136" lon="2.61662">
        <ele>764.61</ele>
        <time>2022-08-17T09:27:59Z</time>
      </trkpt>
      <trkpt lat="45.44134" lon="2.61652">
        <ele>764.53</ele>
        <time>2022-08-17T09:28:00Z</time>
      </trkpt>
      <trkpt lat="45.44134" lon="2.61643">
        <ele>764.53</ele>
        <time>2022-08-17T09:28:01Z</time>
      </trkpt>
      <trkpt lat="45.44135" lon="2.61625">
        <ele>765.77</ele>
        <time>2022-08-17T09:28:03Z</time>
      </trkpt>
      <trkpt lat="45.44134" lon="2.61568">
        <ele>767.29</ele>
        <time>2022-08-17T09:28:10Z</time>
      </trkpt>
      <trkpt lat="45.44133" lon="2.61554">
        <ele>767.15</ele>
        <time>2022-08-17T09:28:12Z</time>
      </trkpt>
      <trkpt lat="45.44134" lon="2.61547">
        <ele>768.02</ele>
        <time>2022-08-17T09:28:13Z</time>
      </trkpt>
      <trkpt lat="45.44134" lon="2.61539">
        <ele>767.94</ele>
        <time>2022-08-17T09:28:14Z</time>
      </trkpt>
      <trkpt lat="45.44135" lon="2.61531">
        <ele>767.75</ele>
        <time>2022-08-17T09:28:15Z</time>
      </trkpt>
      <trkpt lat="45.44136" lon="2.61521">
        <ele>767.9</ele>
        <time>2022-08-17T09:28:16Z</time>
      </trkpt>
      <trkpt lat="45.44134" lon="2.6151">
        <ele>767.69</ele>
        <time>2022-08-17T09:28:17Z</time>
      </trkpt>
      <trkpt lat="45.44134" lon="2.61499">
        <ele>768.52</ele>
        <time>2022-08-17T09:28:18Z</time>
      </trkpt>
      <trkpt lat="45.44132" lon="2.61488">
        <ele>768.5</ele>
        <time>2022-08-17T09:28:19Z</time>
      </trkpt>
      <trkpt lat="45.44131" lon="2.61456">
        <ele>769.75</ele>
        <time>2022-08-17T09:28:22Z</time>
      </trkpt>
      <trkpt lat="45.44125" lon="2.61396">
        <ele>770.81</ele>
        <time>2022-08-17T09:28:30Z</time>
      </trkpt>
      <trkpt lat="45.44124" lon="2.61389">
        <ele>770.78</ele>
        <time>2022-08-17T09:28:31Z</time>
      </trkpt>
      <trkpt lat="45.44122" lon="2.61383">
        <ele>770.74</ele>
        <time>2022-08-17T09:28:32Z</time>
      </trkpt>
      <trkpt lat="45.4411" lon="2.61339">
        <ele>770.59</ele>
        <time>2022-08-17T09:28:40Z</time>
      </trkpt>
      <trkpt lat="45.44105" lon="2.61321">
        <ele>770.62</ele>
        <time>2022-08-17T09:28:43Z</time>
      </trkpt>
      <trkpt lat="45.44104" lon="2.61315">
        <ele>770.62</ele>
        <time>2022-08-17T09:28:44Z</time>
      </trkpt>
      <trkpt lat="45.44103" lon="2.61309">
        <ele>770.61</ele>
        <time>2022-08-17T09:28:45Z</time>
      </trkpt>
      <trkpt lat="45.44102" lon="2.61295">
        <ele>770.6</ele>
        <time>2022-08-17T09:28:47Z</time>
      </trkpt>
      <trkpt lat="45.44101" lon="2.61281">
        <ele>768.21</ele>
        <time>2022-08-17T09:28:49Z</time>
      </trkpt>
      <trkpt lat="45.44101" lon="2.61258">
        <ele>768.21</ele>
        <time>2022-08-17T09:28:52Z</time>
      </trkpt>
      <trkpt lat="45.44099" lon="2.61241">
        <ele>768.19</ele>
        <time>2022-08-17T09:28:54Z</time>
      </trkpt>
      <trkpt lat="45.44099" lon="2.61232">
        <ele>768.19</ele>
        <time>2022-08-17T09:28:55Z</time>
      </trkpt>
      <trkpt lat="45.44097" lon="2.61215">
        <ele>768.18</ele>
        <time>2022-08-17T09:28:57Z</time>
      </trkpt>
      <trkpt lat="45.44093" lon="2.61191">
        <ele>768.21</ele>
        <time>2022-08-17T09:29:00Z</time>
      </trkpt>
      <trkpt lat="45.44092" lon="2.61183">
        <ele>768.24</ele>
        <time>2022-08-17T09:29:01Z</time>
      </trkpt>
      <trkpt lat="45.44088" lon="2.61166">
        <ele>768.24</ele>
        <time>2022-08-17T09:29:03Z</time>
      </trkpt>
      <trkpt lat="45.44077" lon="2.61128">
        <ele>768.22</ele>
        <time>2022-08-17T09:29:07Z</time>
      </trkpt>
      <trkpt lat="45.44076" lon="2.61118">
        <ele>768.22</ele>
        <time>2022-08-17T09:29:08Z</time>
      </trkpt>
      <trkpt lat="45.44078" lon="2.61109">
        <ele>768.23</ele>
        <time>2022-08-17T09:29:09Z</time>
      </trkpt>
      <trkpt lat="45.44086" lon="2.61062">
        <ele>770.92</ele>
        <time>2022-08-17T09:29:15Z</time>
      </trkpt>
      <trkpt lat="45.44088" lon="2.61053">
        <ele>771.96</ele>
        <time>2022-08-17T09:29:16Z</time>
      </trkpt>
      <trkpt lat="45.44091" lon="2.61045">
        <ele>771.96</ele>
        <time>2022-08-17T09:29:17Z</time>
      </trkpt>
      <trkpt lat="45.44095" lon="2.61038">
        <ele>771.99</ele>
        <time>2022-08-17T09:29:18Z</time>
      </trkpt>
      <trkpt lat="45.44098" lon="2.61032">
        <ele>772.84</ele>
        <time>2022-08-17T09:29:19Z</time>
      </trkpt>
      <trkpt lat="45.44102" lon="2.61025">
        <ele>772.84</ele>
        <time>2022-08-17T09:29:20Z</time>
      </trkpt>
      <trkpt lat="45.44108" lon="2.6102">
        <ele>773.7</ele>
        <time>2022-08-17T09:29:21Z</time>
      </trkpt>
      <trkpt lat="45.44114" lon="2.61016">
        <ele>773.68</ele>
        <time>2022-08-17T09:29:22Z</time>
      </trkpt>
      <trkpt lat="45.44119" lon="2.6101">
        <ele>773.71</ele>
        <time>2022-08-17T09:29:23Z</time>
      </trkpt>
      <trkpt lat="45.4412" lon="2.61003">
        <ele>773.71</ele>
        <time>2022-08-17T09:29:24Z</time>
      </trkpt>
      <trkpt lat="45.44122" lon="2.60994">
        <ele>773.71</ele>
        <time>2022-08-17T09:29:25Z</time>
      </trkpt>
      <trkpt lat="45.44123" lon="2.60976">
        <ele>773.71</ele>
        <time>2022-08-17T09:29:27Z</time>
      </trkpt>
      <trkpt lat="45.44121" lon="2.60967">
        <ele>773.72</ele>
        <time>2022-08-17T09:29:28Z</time>
      </trkpt>
      <trkpt lat="45.44115" lon="2.60923">
        <ele>773.54</ele>
        <time>2022-08-17T09:29:33Z</time>
      </trkpt>
      <trkpt lat="45.4411" lon="2.60907">
        <ele>773.54</ele>
        <time>2022-08-17T09:29:35Z</time>
      </trkpt>
      <trkpt lat="45.44078" lon="2.60821">
        <ele>774.24</ele>
        <time>2022-08-17T09:29:46Z</time>
      </trkpt>
      <trkpt lat="45.44071" lon="2.60807">
        <ele>775.55</ele>
        <time>2022-08-17T09:29:48Z</time>
      </trkpt>
      <trkpt lat="45.44056" lon="2.60774">
        <ele>775.57</ele>
        <time>2022-08-17T09:29:52Z</time>
      </trkpt>
      <trkpt lat="45.44029" lon="2.60708">
        <ele>775.54</ele>
        <time>2022-08-17T09:30:00Z</time>
      </trkpt>
      <trkpt lat="45.44026" lon="2.607">
        <ele>775.54</ele>
        <time>2022-08-17T09:30:01Z</time>
      </trkpt>
      <trkpt lat="45.44024" lon="2.60691">
        <ele>775.55</ele>
        <time>2022-08-17T09:30:02Z</time>
      </trkpt>
      <trkpt lat="45.44023" lon="2.60683">
        <ele>775.55</ele>
        <time>2022-08-17T09:30:03Z</time>
      </trkpt>
      <trkpt lat="45.44022" lon="2.60674">
        <ele>775.55</ele>
        <time>2022-08-17T09:30:04Z</time>
      </trkpt>
      <trkpt lat="45.44022" lon="2.60658">
        <ele>775.55</ele>
        <time>2022-08-17T09:30:06Z</time>
      </trkpt>
      <trkpt lat="45.44024" lon="2.60651">
        <ele>775.54</ele>
        <time>2022-08-17T09:30:07Z</time>
      </trkpt>
      <trkpt lat="45.44026" lon="2.60644">
        <ele>775.55</ele>
        <time>2022-08-17T09:30:08Z</time>
      </trkpt>
      <trkpt lat="45.44051" lon="2.6059">
        <ele>775.6</ele>
        <time>2022-08-17T09:30:16Z</time>
      </trkpt>
      <trkpt lat="45.44054" lon="2.60581">
        <ele>775.58</ele>
        <time>2022-08-17T09:30:17Z</time>
      </trkpt>
      <trkpt lat="45.44062" lon="2.60554">
        <ele>775.6</ele>
        <time>2022-08-17T09:30:20Z</time>
      </trkpt>
      <trkpt lat="45.44065" lon="2.60546">
        <ele>775.61</ele>
        <time>2022-08-17T09:30:21Z</time>
      </trkpt>
      <trkpt lat="45.44069" lon="2.60539">
        <ele>775.61</ele>
        <time>2022-08-17T09:30:22Z</time>
      </trkpt>
      <trkpt lat="45.44074" lon="2.60534">
        <ele>775.64</ele>
        <time>2022-08-17T09:30:23Z</time>
      </trkpt>
      <trkpt lat="45.44078" lon="2.60529">
        <ele>775.62</ele>
        <time>2022-08-17T09:30:24Z</time>
      </trkpt>
      <trkpt lat="45.44083" lon="2.60524">
        <ele>775.58</ele>
        <time>2022-08-17T09:30:25Z</time>
      </trkpt>
      <trkpt lat="45.44107" lon="2.60498">
        <ele>775.65</ele>
        <time>2022-08-17T09:30:30Z</time>
      </trkpt>
      <trkpt lat="45.44112" lon="2.60493">
        <ele>775.65</ele>
        <time>2022-08-17T09:30:31Z</time>
      </trkpt>
      <trkpt lat="45.44118" lon="2.60489">
        <ele>773.34</ele>
        <time>2022-08-17T09:30:32Z</time>
      </trkpt>
      <trkpt lat="45.44124" lon="2.60486">
        <ele>773.33</ele>
        <time>2022-08-17T09:30:33Z</time>
      </trkpt>
      <trkpt lat="45.44131" lon="2.60485">
        <ele>773.34</ele>
        <time>2022-08-17T09:30:34Z</time>
      </trkpt>
      <trkpt lat="45.44137" lon="2.60484">
        <ele>773.34</ele>
        <time>2022-08-17T09:30:35Z</time>
      </trkpt>
      <trkpt lat="45.44143" lon="2.60484">
        <ele>773.34</ele>
        <time>2022-08-17T09:30:36Z</time>
      </trkpt>
      <trkpt lat="45.44154" lon="2.60483">
        <ele>772.46</ele>
        <time>2022-08-17T09:30:38Z</time>
      </trkpt>
      <trkpt lat="45.44165" lon="2.6048">
        <ele>772.47</ele>
        <time>2022-08-17T09:30:40Z</time>
      </trkpt>
      <trkpt lat="45.44209" lon="2.60446">
        <ele>772.48</ele>
        <time>2022-08-17T09:30:48Z</time>
      </trkpt>
      <trkpt lat="45.44235" lon="2.60432">
        <ele>772.45</ele>
        <time>2022-08-17T09:30:52Z</time>
      </trkpt>
      <trkpt lat="45.4424" lon="2.60428">
        <ele>772.48</ele>
        <time>2022-08-17T09:30:53Z</time>
      </trkpt>
      <trkpt lat="45.44246" lon="2.60425">
        <ele>772.55</ele>
        <time>2022-08-17T09:30:54Z</time>
      </trkpt>
      <trkpt lat="45.44259" lon="2.60419">
        <ele>772.55</ele>
        <time>2022-08-17T09:30:56Z</time>
      </trkpt>
      <trkpt lat="45.44313" lon="2.60408">
        <ele>772.51</ele>
        <time>2022-08-17T09:31:04Z</time>
      </trkpt>
      <trkpt lat="45.44329" lon="2.60409">
        <ele>772.51</ele>
        <time>2022-08-17T09:31:06Z</time>
      </trkpt>
      <trkpt lat="45.44344" lon="2.6041">
        <ele>772.51</ele>
        <time>2022-08-17T09:31:08Z</time>
      </trkpt>
      <trkpt lat="45.44351" lon="2.6041">
        <ele>772.5</ele>
        <time>2022-08-17T09:31:09Z</time>
      </trkpt>
      <trkpt lat="45.44357" lon="2.6041">
        <ele>772.5</ele>
        <time>2022-08-17T09:31:10Z</time>
      </trkpt>
      <trkpt lat="45.44363" lon="2.60409">
        <ele>772.5</ele>
        <time>2022-08-17T09:31:11Z</time>
      </trkpt>
      <trkpt lat="45.44369" lon="2.60407">
        <ele>772.52</ele>
        <time>2022-08-17T09:31:12Z</time>
      </trkpt>
      <trkpt lat="45.44376" lon="2.60404">
        <ele>772.49</ele>
        <time>2022-08-17T09:31:13Z</time>
      </trkpt>
      <trkpt lat="45.44381" lon="2.604">
        <ele>772.49</ele>
        <time>2022-08-17T09:31:14Z</time>
      </trkpt>
      <trkpt lat="45.44386" lon="2.60396">
        <ele>772.47</ele>
        <time>2022-08-17T09:31:15Z</time>
      </trkpt>
      <trkpt lat="45.4439" lon="2.60391">
        <ele>772.5</ele>
        <time>2022-08-17T09:31:16Z</time>
      </trkpt>
      <trkpt lat="45.44393" lon="2.60386">
        <ele>772.49</ele>
        <time>2022-08-17T09:31:17Z</time>
      </trkpt>
      <trkpt lat="45.44396" lon="2.60375">
        <ele>775.09</ele>
        <time>2022-08-17T09:31:19Z</time>
      </trkpt>
      <trkpt lat="45.44397" lon="2.60371">
        <ele>775.09</ele>
        <time>2022-08-17T09:31:20Z</time>
      </trkpt>
      <trkpt lat="45.44402" lon="2.60361">
        <ele>775.9</ele>
        <time>2022-08-17T09:31:23Z</time>
      </trkpt>
      <trkpt lat="45.44385" lon="2.60344">
        <ele>777.59</ele>
        <time>2022-08-17T09:31:27Z</time>
      </trkpt>
      <trkpt lat="45.44381" lon="2.60339">
        <ele>777.58</ele>
        <time>2022-08-17T09:31:28Z</time>
      </trkpt>
      <trkpt lat="45.44376" lon="2.60334">
        <ele>777.59</ele>
        <time>2022-08-17T09:31:29Z</time>
      </trkpt>
      <trkpt lat="45.44357" lon="2.6031">
        <ele>778.58</ele>
        <time>2022-08-17T09:31:33Z</time>
      </trkpt>
      <trkpt lat="45.44342" lon="2.60288">
        <ele>780.06</ele>
        <time>2022-08-17T09:31:36Z</time>
      </trkpt>
      <trkpt lat="45.44338" lon="2.6028">
        <ele>780.03</ele>
        <time>2022-08-17T09:31:37Z</time>
      </trkpt>
      <trkpt lat="45.44326" lon="2.60251">
        <ele>781.43</ele>
        <time>2022-08-17T09:31:40Z</time>
      </trkpt>
      <trkpt lat="45.44321" lon="2.60242">
        <ele>781.4</ele>
        <time>2022-08-17T09:31:41Z</time>
      </trkpt>
      <trkpt lat="45.44283" lon="2.60191">
        <ele>782.03</ele>
        <time>2022-08-17T09:31:47Z</time>
      </trkpt>
      <trkpt lat="45.44276" lon="2.60186">
        <ele>782.05</ele>
        <time>2022-08-17T09:31:48Z</time>
      </trkpt>
      <trkpt lat="45.44256" lon="2.6017">
        <ele>782.03</ele>
        <time>2022-08-17T09:31:51Z</time>
      </trkpt>
      <trkpt lat="45.44251" lon="2.60163">
        <ele>779.18</ele>
        <time>2022-08-17T09:31:52Z</time>
      </trkpt>
      <trkpt lat="45.44246" lon="2.60156">
        <ele>779.18</ele>
        <time>2022-08-17T09:31:53Z</time>
      </trkpt>
      <trkpt lat="45.44241" lon="2.6015">
        <ele>779.17</ele>
        <time>2022-08-17T09:31:54Z</time>
      </trkpt>
      <trkpt lat="45.44237" lon="2.60141">
        <ele>777.99</ele>
        <time>2022-08-17T09:31:55Z</time>
      </trkpt>
      <trkpt lat="45.44234" lon="2.60133">
        <ele>777.94</ele>
        <time>2022-08-17T09:31:56Z</time>
      </trkpt>
      <trkpt lat="45.44231" lon="2.60124">
        <ele>777.94</ele>
        <time>2022-08-17T09:31:57Z</time>
      </trkpt>
      <trkpt lat="45.44205" lon="2.60061">
        <ele>777.04</ele>
        <time>2022-08-17T09:32:04Z</time>
      </trkpt>
      <trkpt lat="45.44203" lon="2.60051">
        <ele>777.05</ele>
        <time>2022-08-17T09:32:05Z</time>
      </trkpt>
      <trkpt lat="45.44197" lon="2.6002">
        <ele>775.02</ele>
        <time>2022-08-17T09:32:08Z</time>
      </trkpt>
      <trkpt lat="45.44194" lon="2.59984">
        <ele>773.17</ele>
        <time>2022-08-17T09:32:11Z</time>
      </trkpt>
      <trkpt lat="45.44192" lon="2.5997">
        <ele>773.16</ele>
        <time>2022-08-17T09:32:12Z</time>
      </trkpt>
      <trkpt lat="45.44179" lon="2.59901">
        <ele>770.05</ele>
        <time>2022-08-17T09:32:17Z</time>
      </trkpt>
      <trkpt lat="45.44178" lon="2.59888">
        <ele>770.06</ele>
        <time>2022-08-17T09:32:18Z</time>
      </trkpt>
      <trkpt lat="45.44173" lon="2.59865">
        <ele>769.05</ele>
        <time>2022-08-17T09:32:20Z</time>
      </trkpt>
      <trkpt lat="45.44162" lon="2.59824">
        <ele>769.03</ele>
        <time>2022-08-17T09:32:24Z</time>
      </trkpt>
      <trkpt lat="45.4416" lon="2.59813">
        <ele>769.05</ele>
        <time>2022-08-17T09:32:25Z</time>
      </trkpt>
      <trkpt lat="45.4416" lon="2.59803">
        <ele>769.06</ele>
        <time>2022-08-17T09:32:26Z</time>
      </trkpt>
      <trkpt lat="45.44159" lon="2.59791">
        <ele>769.11</ele>
        <time>2022-08-17T09:32:27Z</time>
      </trkpt>
      <trkpt lat="45.4416" lon="2.59779">
        <ele>769.15</ele>
        <time>2022-08-17T09:32:28Z</time>
      </trkpt>
      <trkpt lat="45.44164" lon="2.59709">
        <ele>769.37</ele>
        <time>2022-08-17T09:32:34Z</time>
      </trkpt>
      <trkpt lat="45.44164" lon="2.59698">
        <ele>769.37</ele>
        <time>2022-08-17T09:32:35Z</time>
      </trkpt>
      <trkpt lat="45.44162" lon="2.59687">
        <ele>769.39</ele>
        <time>2022-08-17T09:32:36Z</time>
      </trkpt>
      <trkpt lat="45.4416" lon="2.59676">
        <ele>769.4</ele>
        <time>2022-08-17T09:32:37Z</time>
      </trkpt>
      <trkpt lat="45.44157" lon="2.59665">
        <ele>769.42</ele>
        <time>2022-08-17T09:32:38Z</time>
      </trkpt>
      <trkpt lat="45.44147" lon="2.59632">
        <ele>769.46</ele>
        <time>2022-08-17T09:32:41Z</time>
      </trkpt>
      <trkpt lat="45.44142" lon="2.59623">
        <ele>769.46</ele>
        <time>2022-08-17T09:32:42Z</time>
      </trkpt>
      <trkpt lat="45.44136" lon="2.59615">
        <ele>769.45</ele>
        <time>2022-08-17T09:32:43Z</time>
      </trkpt>
      <trkpt lat="45.4413" lon="2.59609">
        <ele>769.47</ele>
        <time>2022-08-17T09:32:44Z</time>
      </trkpt>
      <trkpt lat="45.44123" lon="2.59605">
        <ele>769.47</ele>
        <time>2022-08-17T09:32:45Z</time>
      </trkpt>
      <trkpt lat="45.44115" lon="2.59604">
        <ele>769.5</ele>
        <time>2022-08-17T09:32:46Z</time>
      </trkpt>
      <trkpt lat="45.44108" lon="2.59603">
        <ele>769.51</ele>
        <time>2022-08-17T09:32:47Z</time>
      </trkpt>
      <trkpt lat="45.44101" lon="2.59603">
        <ele>769.5</ele>
        <time>2022-08-17T09:32:48Z</time>
      </trkpt>
      <trkpt lat="45.44094" lon="2.59602">
        <ele>769.53</ele>
        <time>2022-08-17T09:32:49Z</time>
      </trkpt>
      <trkpt lat="45.44088" lon="2.596">
        <ele>769.55</ele>
        <time>2022-08-17T09:32:50Z</time>
      </trkpt>
      <trkpt lat="45.44082" lon="2.59596">
        <ele>772.05</ele>
        <time>2022-08-17T09:32:51Z</time>
      </trkpt>
      <trkpt lat="45.44077" lon="2.59593">
        <ele>772.05</ele>
        <time>2022-08-17T09:32:52Z</time>
      </trkpt>
      <trkpt lat="45.44008" lon="2.59562">
        <ele>772.14</ele>
        <time>2022-08-17T09:33:02Z</time>
      </trkpt>
      <trkpt lat="45.4398" lon="2.59548">
        <ele>772.17</ele>
        <time>2022-08-17T09:33:06Z</time>
      </trkpt>
      <trkpt lat="45.43973" lon="2.59543">
        <ele>772.19</ele>
        <time>2022-08-17T09:33:07Z</time>
      </trkpt>
      <trkpt lat="45.43966" lon="2.59536">
        <ele>772.2</ele>
        <time>2022-08-17T09:33:08Z</time>
      </trkpt>
      <trkpt lat="45.43925" lon="2.59492">
        <ele>773.13</ele>
        <time>2022-08-17T09:33:14Z</time>
      </trkpt>
      <trkpt lat="45.4392" lon="2.59483">
        <ele>774.57</ele>
        <time>2022-08-17T09:33:15Z</time>
      </trkpt>
      <trkpt lat="45.43916" lon="2.59474">
        <ele>774.59</ele>
        <time>2022-08-17T09:33:16Z</time>
      </trkpt>
      <trkpt lat="45.43913" lon="2.59465">
        <ele>774.59</ele>
        <time>2022-08-17T09:33:17Z</time>
      </trkpt>
      <trkpt lat="45.43912" lon="2.59454">
        <ele>774.61</ele>
        <time>2022-08-17T09:33:18Z</time>
      </trkpt>
      <trkpt lat="45.43912" lon="2.59443">
        <ele>774.59</ele>
        <time>2022-08-17T09:33:19Z</time>
      </trkpt>
      <trkpt lat="45.43914" lon="2.59432">
        <ele>774.62</ele>
        <time>2022-08-17T09:33:20Z</time>
      </trkpt>
      <trkpt lat="45.43916" lon="2.59421">
        <ele>774.61</ele>
        <time>2022-08-17T09:33:21Z</time>
      </trkpt>
      <trkpt lat="45.43925" lon="2.59388">
        <ele>772.27</ele>
        <time>2022-08-17T09:33:24Z</time>
      </trkpt>
      <trkpt lat="45.43932" lon="2.5937">
        <ele>771.18</ele>
        <time>2022-08-17T09:33:26Z</time>
      </trkpt>
      <trkpt lat="45.43937" lon="2.59363">
        <ele>770.42</ele>
        <time>2022-08-17T09:33:27Z</time>
      </trkpt>
      <trkpt lat="45.43942" lon="2.59357">
        <ele>769.67</ele>
        <time>2022-08-17T09:33:28Z</time>
      </trkpt>
      <trkpt lat="45.43951" lon="2.59345">
        <ele>768.77</ele>
        <time>2022-08-17T09:33:30Z</time>
      </trkpt>
      <trkpt lat="45.43956" lon="2.59338">
        <ele>767.49</ele>
        <time>2022-08-17T09:33:31Z</time>
      </trkpt>
      <trkpt lat="45.43959" lon="2.5933">
        <ele>767.48</ele>
        <time>2022-08-17T09:33:32Z</time>
      </trkpt>
      <trkpt lat="45.43962" lon="2.59322">
        <ele>766.47</ele>
        <time>2022-08-17T09:33:33Z</time>
      </trkpt>
      <trkpt lat="45.43964" lon="2.59311">
        <ele>766.44</ele>
        <time>2022-08-17T09:33:34Z</time>
      </trkpt>
      <trkpt lat="45.43966" lon="2.59298">
        <ele>765.56</ele>
        <time>2022-08-17T09:33:35Z</time>
      </trkpt>
      <trkpt lat="45.43975" lon="2.59237">
        <ele>763.26</ele>
        <time>2022-08-17T09:33:40Z</time>
      </trkpt>
      <trkpt lat="45.43975" lon="2.59225">
        <ele>762.15</ele>
        <time>2022-08-17T09:33:41Z</time>
      </trkpt>
      <trkpt lat="45.43974" lon="2.59214">
        <ele>762.11</ele>
        <time>2022-08-17T09:33:42Z</time>
      </trkpt>
      <trkpt lat="45.43972" lon="2.59204">
        <ele>761.42</ele>
        <time>2022-08-17T09:33:43Z</time>
      </trkpt>
      <trkpt lat="45.43949" lon="2.59129">
        <ele>759.19</ele>
        <time>2022-08-17T09:33:52Z</time>
      </trkpt>
      <trkpt lat="45.43947" lon="2.59116">
        <ele>759.16</ele>
        <time>2022-08-17T09:33:53Z</time>
      </trkpt>
      <trkpt lat="45.43947" lon="2.59102">
        <ele>759.13</ele>
        <time>2022-08-17T09:33:54Z</time>
      </trkpt>
      <trkpt lat="45.43948" lon="2.59087">
        <ele>759.18</ele>
        <time>2022-08-17T09:33:55Z</time>
      </trkpt>
      <trkpt lat="45.4395" lon="2.59072">
        <ele>757.85</ele>
        <time>2022-08-17T09:33:56Z</time>
      </trkpt>
      <trkpt lat="45.4395" lon="2.59058">
        <ele>757.86</ele>
        <time>2022-08-17T09:33:57Z</time>
      </trkpt>
      <trkpt lat="45.43947" lon="2.59044">
        <ele>756.92</ele>
        <time>2022-08-17T09:33:58Z</time>
      </trkpt>
      <trkpt lat="45.43943" lon="2.59031">
        <ele>756.09</ele>
        <time>2022-08-17T09:33:59Z</time>
      </trkpt>
      <trkpt lat="45.43938" lon="2.59018">
        <ele>756.09</ele>
        <time>2022-08-17T09:34:00Z</time>
      </trkpt>
      <trkpt lat="45.43917" lon="2.58968">
        <ele>753.85</ele>
        <time>2022-08-17T09:34:04Z</time>
      </trkpt>
      <trkpt lat="45.43906" lon="2.58946">
        <ele>751.98</ele>
        <time>2022-08-17T09:34:06Z</time>
      </trkpt>
      <trkpt lat="45.43901" lon="2.58936">
        <ele>750.57</ele>
        <time>2022-08-17T09:34:07Z</time>
      </trkpt>
      <trkpt lat="45.43896" lon="2.58927">
        <ele>749.75</ele>
        <time>2022-08-17T09:34:08Z</time>
      </trkpt>
      <trkpt lat="45.43889" lon="2.58919">
        <ele>748.78</ele>
        <time>2022-08-17T09:34:09Z</time>
      </trkpt>
      <trkpt lat="45.4388" lon="2.58913">
        <ele>748.79</ele>
        <time>2022-08-17T09:34:10Z</time>
      </trkpt>
      <trkpt lat="45.43871" lon="2.58907">
        <ele>748.72</ele>
        <time>2022-08-17T09:34:11Z</time>
      </trkpt>
      <trkpt lat="45.43861" lon="2.58903">
        <ele>748.19</ele>
        <time>2022-08-17T09:34:12Z</time>
      </trkpt>
      <trkpt lat="45.43851" lon="2.58899">
        <ele>748.12</ele>
        <time>2022-08-17T09:34:13Z</time>
      </trkpt>
      <trkpt lat="45.43834" lon="2.58891">
        <ele>747.06</ele>
        <time>2022-08-17T09:34:15Z</time>
      </trkpt>
      <trkpt lat="45.43826" lon="2.58886">
        <ele>747.06</ele>
        <time>2022-08-17T09:34:16Z</time>
      </trkpt>
      <trkpt lat="45.43819" lon="2.58878">
        <ele>746.12</ele>
        <time>2022-08-17T09:34:17Z</time>
      </trkpt>
      <trkpt lat="45.43813" lon="2.58868">
        <ele>746.12</ele>
        <time>2022-08-17T09:34:18Z</time>
      </trkpt>
      <trkpt lat="45.43808" lon="2.58857">
        <ele>746.1</ele>
        <time>2022-08-17T09:34:19Z</time>
      </trkpt>
      <trkpt lat="45.43802" lon="2.58847">
        <ele>746.14</ele>
        <time>2022-08-17T09:34:20Z</time>
      </trkpt>
      <trkpt lat="45.43795" lon="2.58839">
        <ele>745.22</ele>
        <time>2022-08-17T09:34:21Z</time>
      </trkpt>
      <trkpt lat="45.43788" lon="2.58832">
        <ele>745.3</ele>
        <time>2022-08-17T09:34:22Z</time>
      </trkpt>
      <trkpt lat="45.43781" lon="2.58826">
        <ele>745.27</ele>
        <time>2022-08-17T09:34:23Z</time>
      </trkpt>
      <trkpt lat="45.43773" lon="2.5882">
        <ele>745.28</ele>
        <time>2022-08-17T09:34:24Z</time>
      </trkpt>
      <trkpt lat="45.43768" lon="2.58813">
        <ele>744.22</ele>
        <time>2022-08-17T09:34:25Z</time>
      </trkpt>
      <trkpt lat="45.43763" lon="2.58805">
        <ele>744.21</ele>
        <time>2022-08-17T09:34:26Z</time>
      </trkpt>
      <trkpt lat="45.43759" lon="2.58795">
        <ele>742.98</ele>
        <time>2022-08-17T09:34:27Z</time>
      </trkpt>
      <trkpt lat="45.43756" lon="2.58785">
        <ele>743</ele>
        <time>2022-08-17T09:34:28Z</time>
      </trkpt>
      <trkpt lat="45.43754" lon="2.58775">
        <ele>741.71</ele>
        <time>2022-08-17T09:34:29Z</time>
      </trkpt>
      <trkpt lat="45.43753" lon="2.58765">
        <ele>741.68</ele>
        <time>2022-08-17T09:34:30Z</time>
      </trkpt>
      <trkpt lat="45.43753" lon="2.58756">
        <ele>741.7</ele>
        <time>2022-08-17T09:34:31Z</time>
      </trkpt>
      <trkpt lat="45.43754" lon="2.58747">
        <ele>740.83</ele>
        <time>2022-08-17T09:34:32Z</time>
      </trkpt>
      <trkpt lat="45.43754" lon="2.58722">
        <ele>739.94</ele>
        <time>2022-08-17T09:34:36Z</time>
      </trkpt>
      <trkpt lat="45.43756" lon="2.58721">
        <ele>739.92</ele>
        <time>2022-08-17T09:34:37Z</time>
      </trkpt>
      <trkpt lat="45.43758" lon="2.5872">
        <ele>739.94</ele>
        <time>2022-08-17T09:34:38Z</time>
      </trkpt>
      <trkpt lat="45.43761" lon="2.5872">
        <ele>739.93</ele>
        <time>2022-08-17T09:34:39Z</time>
      </trkpt>
      <trkpt lat="45.43766" lon="2.58722">
        <ele>739.95</ele>
        <time>2022-08-17T09:34:40Z</time>
      </trkpt>
      <trkpt lat="45.43771" lon="2.58722">
        <ele>739.94</ele>
        <time>2022-08-17T09:34:41Z</time>
      </trkpt>
      <trkpt lat="45.43778" lon="2.58722">
        <ele>743.29</ele>
        <time>2022-08-17T09:34:42Z</time>
      </trkpt>
      <trkpt lat="45.43786" lon="2.58719">
        <ele>744.18</ele>
        <time>2022-08-17T09:34:43Z</time>
      </trkpt>
      <trkpt lat="45.43794" lon="2.58716">
        <ele>745.14</ele>
        <time>2022-08-17T09:34:44Z</time>
      </trkpt>
      <trkpt lat="45.4381" lon="2.58712">
        <ele>746.09</ele>
        <time>2022-08-17T09:34:46Z</time>
      </trkpt>
      <trkpt lat="45.43819" lon="2.5871">
        <ele>747.4</ele>
        <time>2022-08-17T09:34:47Z</time>
      </trkpt>
      <trkpt lat="45.43829" lon="2.58711">
        <ele>747.46</ele>
        <time>2022-08-17T09:34:48Z</time>
      </trkpt>
      <trkpt lat="45.43856" lon="2.5871">
        <ele>748.53</ele>
        <time>2022-08-17T09:34:51Z</time>
      </trkpt>
      <trkpt lat="45.43864" lon="2.58706">
        <ele>748.55</ele>
        <time>2022-08-17T09:34:52Z</time>
      </trkpt>
      <trkpt lat="45.43872" lon="2.58702">
        <ele>748.59</ele>
        <time>2022-08-17T09:34:53Z</time>
      </trkpt>
      <trkpt lat="45.43879" lon="2.58696">
        <ele>748.61</ele>
        <time>2022-08-17T09:34:54Z</time>
      </trkpt>
      <trkpt lat="45.43886" lon="2.5869">
        <ele>748.64</ele>
        <time>2022-08-17T09:34:55Z</time>
      </trkpt>
      <trkpt lat="45.43893" lon="2.58683">
        <ele>748.65</ele>
        <time>2022-08-17T09:34:56Z</time>
      </trkpt>
      <trkpt lat="45.43899" lon="2.58674">
        <ele>748.7</ele>
        <time>2022-08-17T09:34:57Z</time>
      </trkpt>
      <trkpt lat="45.43905" lon="2.58666">
        <ele>748.7</ele>
        <time>2022-08-17T09:34:58Z</time>
      </trkpt>
      <trkpt lat="45.4391" lon="2.58657">
        <ele>748.65</ele>
        <time>2022-08-17T09:34:59Z</time>
      </trkpt>
      <trkpt lat="45.43914" lon="2.58647">
        <ele>748.65</ele>
        <time>2022-08-17T09:35:00Z</time>
      </trkpt>
      <trkpt lat="45.43918" lon="2.58637">
        <ele>748.62</ele>
        <time>2022-08-17T09:35:01Z</time>
      </trkpt>
      <trkpt lat="45.43922" lon="2.58626">
        <ele>748.63</ele>
        <time>2022-08-17T09:35:02Z</time>
      </trkpt>
      <trkpt lat="45.43934" lon="2.58596">
        <ele>748.55</ele>
        <time>2022-08-17T09:35:05Z</time>
      </trkpt>
      <trkpt lat="45.43939" lon="2.58587">
        <ele>748.5</ele>
        <time>2022-08-17T09:35:06Z</time>
      </trkpt>
      <trkpt lat="45.43944" lon="2.5858">
        <ele>748.49</ele>
        <time>2022-08-17T09:35:07Z</time>
      </trkpt>
      <trkpt lat="45.43952" lon="2.58576">
        <ele>748.49</ele>
        <time>2022-08-17T09:35:08Z</time>
      </trkpt>
      <trkpt lat="45.43959" lon="2.58573">
        <ele>748.49</ele>
        <time>2022-08-17T09:35:09Z</time>
      </trkpt>
      <trkpt lat="45.43967" lon="2.58573">
        <ele>748.5</ele>
        <time>2022-08-17T09:35:10Z</time>
      </trkpt>
      <trkpt lat="45.43975" lon="2.58575">
        <ele>748.5</ele>
        <time>2022-08-17T09:35:11Z</time>
      </trkpt>
      <trkpt lat="45.43983" lon="2.58576">
        <ele>748.5</ele>
        <time>2022-08-17T09:35:12Z</time>
      </trkpt>
      <trkpt lat="45.43991" lon="2.58575">
        <ele>748.51</ele>
        <time>2022-08-17T09:35:13Z</time>
      </trkpt>
      <trkpt lat="45.43999" lon="2.5857">
        <ele>749.34</ele>
        <time>2022-08-17T09:35:14Z</time>
      </trkpt>
      <trkpt lat="45.44005" lon="2.58563">
        <ele>749.35</ele>
        <time>2022-08-17T09:35:15Z</time>
      </trkpt>
      <trkpt lat="45.4401" lon="2.58554">
        <ele>750.34</ele>
        <time>2022-08-17T09:35:16Z</time>
      </trkpt>
      <trkpt lat="45.44014" lon="2.58546">
        <ele>750.36</ele>
        <time>2022-08-17T09:35:17Z</time>
      </trkpt>
      <trkpt lat="45.44027" lon="2.58523">
        <ele>752.28</ele>
        <time>2022-08-17T09:35:20Z</time>
      </trkpt>
      <trkpt lat="45.44037" lon="2.58505">
        <ele>754.65</ele>
        <time>2022-08-17T09:35:23Z</time>
      </trkpt>
      <trkpt lat="45.44039" lon="2.58498">
        <ele>754.67</ele>
        <time>2022-08-17T09:35:24Z</time>
      </trkpt>
      <trkpt lat="45.44041" lon="2.58491">
        <ele>754.68</ele>
        <time>2022-08-17T09:35:25Z</time>
      </trkpt>
      <trkpt lat="45.44042" lon="2.58482">
        <ele>754.72</ele>
        <time>2022-08-17T09:35:26Z</time>
      </trkpt>
      <trkpt lat="45.44042" lon="2.58474">
        <ele>754.76</ele>
        <time>2022-08-17T09:35:27Z</time>
      </trkpt>
      <trkpt lat="45.44042" lon="2.58466">
        <ele>754.77</ele>
        <time>2022-08-17T09:35:28Z</time>
      </trkpt>
      <trkpt lat="45.44042" lon="2.58459">
        <ele>754.73</ele>
        <time>2022-08-17T09:35:29Z</time>
      </trkpt>
      <trkpt lat="45.44043" lon="2.58452">
        <ele>754.77</ele>
        <time>2022-08-17T09:35:30Z</time>
      </trkpt>
      <trkpt lat="45.44045" lon="2.58446">
        <ele>754.57</ele>
        <time>2022-08-17T09:35:31Z</time>
      </trkpt>
      <trkpt lat="45.44048" lon="2.58441">
        <ele>755.4</ele>
        <time>2022-08-17T09:35:32Z</time>
      </trkpt>
      <trkpt lat="45.44052" lon="2.58437">
        <ele>755.43</ele>
        <time>2022-08-17T09:35:33Z</time>
      </trkpt>
      <trkpt lat="45.44056" lon="2.58433">
        <ele>755.43</ele>
        <time>2022-08-17T09:35:34Z</time>
      </trkpt>
      <trkpt lat="45.4406" lon="2.5843">
        <ele>755.44</ele>
        <time>2022-08-17T09:35:35Z</time>
      </trkpt>
      <trkpt lat="45.44065" lon="2.58428">
        <ele>755.44</ele>
        <time>2022-08-17T09:35:36Z</time>
      </trkpt>
      <trkpt lat="45.4407" lon="2.58425">
        <ele>756.55</ele>
        <time>2022-08-17T09:35:37Z</time>
      </trkpt>
      <trkpt lat="45.44076" lon="2.58423">
        <ele>756.54</ele>
        <time>2022-08-17T09:35:38Z</time>
      </trkpt>
      <trkpt lat="45.44094" lon="2.58416">
        <ele>756.59</ele>
        <time>2022-08-17T09:35:41Z</time>
      </trkpt>
      <trkpt lat="45.441" lon="2.58412">
        <ele>756.61</ele>
        <time>2022-08-17T09:35:42Z</time>
      </trkpt>
      <trkpt lat="45.44104" lon="2.58407">
        <ele>756.6</ele>
        <time>2022-08-17T09:35:43Z</time>
      </trkpt>
      <trkpt lat="45.44108" lon="2.58401">
        <ele>756.59</ele>
        <time>2022-08-17T09:35:44Z</time>
      </trkpt>
      <trkpt lat="45.44112" lon="2.58394">
        <ele>756.61</ele>
        <time>2022-08-17T09:35:45Z</time>
      </trkpt>
      <trkpt lat="45.44115" lon="2.58388">
        <ele>756.62</ele>
        <time>2022-08-17T09:35:46Z</time>
      </trkpt>
      <trkpt lat="45.44152" lon="2.5834">
        <ele>759.2</ele>
        <time>2022-08-17T09:35:56Z</time>
      </trkpt>
      <trkpt lat="45.44157" lon="2.58337">
        <ele>759.1</ele>
        <time>2022-08-17T09:35:57Z</time>
      </trkpt>
      <trkpt lat="45.44162" lon="2.58336">
        <ele>759.11</ele>
        <time>2022-08-17T09:35:58Z</time>
      </trkpt>
      <trkpt lat="45.44166" lon="2.58336">
        <ele>759.11</ele>
        <time>2022-08-17T09:35:59Z</time>
      </trkpt>
      <trkpt lat="45.4417" lon="2.58337">
        <ele>759.12</ele>
        <time>2022-08-17T09:36:00Z</time>
      </trkpt>
      <trkpt lat="45.44174" lon="2.5834">
        <ele>759.13</ele>
        <time>2022-08-17T09:36:01Z</time>
      </trkpt>
      <trkpt lat="45.44178" lon="2.58342">
        <ele>759.16</ele>
        <time>2022-08-17T09:36:02Z</time>
      </trkpt>
      <trkpt lat="45.44194" lon="2.5835">
        <ele>759.19</ele>
        <time>2022-08-17T09:36:06Z</time>
      </trkpt>
      <trkpt lat="45.44198" lon="2.58349">
        <ele>759.18</ele>
        <time>2022-08-17T09:36:07Z</time>
      </trkpt>
      <trkpt lat="45.44203" lon="2.58347">
        <ele>759.96</ele>
        <time>2022-08-17T09:36:08Z</time>
      </trkpt>
      <trkpt lat="45.44208" lon="2.58344">
        <ele>759.97</ele>
        <time>2022-08-17T09:36:09Z</time>
      </trkpt>
      <trkpt lat="45.44212" lon="2.5834">
        <ele>760.91</ele>
        <time>2022-08-17T09:36:10Z</time>
      </trkpt>
      <trkpt lat="45.44216" lon="2.58336">
        <ele>760.9</ele>
        <time>2022-08-17T09:36:11Z</time>
      </trkpt>
      <trkpt lat="45.4422" lon="2.58331">
        <ele>760.94</ele>
        <time>2022-08-17T09:36:12Z</time>
      </trkpt>
      <trkpt lat="45.44224" lon="2.58326">
        <ele>762.1</ele>
        <time>2022-08-17T09:36:13Z</time>
      </trkpt>
      <trkpt lat="45.44228" lon="2.5832">
        <ele>762.16</ele>
        <time>2022-08-17T09:36:14Z</time>
      </trkpt>
      <trkpt lat="45.44263" lon="2.58281">
        <ele>765.21</ele>
        <time>2022-08-17T09:36:21Z</time>
      </trkpt>
      <trkpt lat="45.44282" lon="2.58261">
        <ele>767.53</ele>
        <time>2022-08-17T09:36:25Z</time>
      </trkpt>
      <trkpt lat="45.4429" lon="2.5825">
        <ele>768.88</ele>
        <time>2022-08-17T09:36:27Z</time>
      </trkpt>
      <trkpt lat="45.44298" lon="2.58241">
        <ele>770.17</ele>
        <time>2022-08-17T09:36:29Z</time>
      </trkpt>
      <trkpt lat="45.44303" lon="2.58238">
        <ele>770.22</ele>
        <time>2022-08-17T09:36:30Z</time>
      </trkpt>
      <trkpt lat="45.44308" lon="2.58237">
        <ele>770.22</ele>
        <time>2022-08-17T09:36:31Z</time>
      </trkpt>
      <trkpt lat="45.44313" lon="2.58237">
        <ele>770.28</ele>
        <time>2022-08-17T09:36:32Z</time>
      </trkpt>
      <trkpt lat="45.44318" lon="2.58238">
        <ele>770.28</ele>
        <time>2022-08-17T09:36:33Z</time>
      </trkpt>
      <trkpt lat="45.44324" lon="2.58239">
        <ele>771.22</ele>
        <time>2022-08-17T09:36:34Z</time>
      </trkpt>
      <trkpt lat="45.44344" lon="2.58245">
        <ele>771.26</ele>
        <time>2022-08-17T09:36:38Z</time>
      </trkpt>
      <trkpt lat="45.44348" lon="2.58245">
        <ele>771.23</ele>
        <time>2022-08-17T09:36:39Z</time>
      </trkpt>
      <trkpt lat="45.44353" lon="2.58244">
        <ele>768.75</ele>
        <time>2022-08-17T09:36:40Z</time>
      </trkpt>
      <trkpt lat="45.44357" lon="2.58243">
        <ele>767.83</ele>
        <time>2022-08-17T09:36:41Z</time>
      </trkpt>
      <trkpt lat="45.44362" lon="2.58241">
        <ele>767.78</ele>
        <time>2022-08-17T09:36:42Z</time>
      </trkpt>
      <trkpt lat="45.44376" lon="2.58233">
        <ele>764.74</ele>
        <time>2022-08-17T09:36:45Z</time>
      </trkpt>
      <trkpt lat="45.4438" lon="2.58229">
        <ele>764.68</ele>
        <time>2022-08-17T09:36:46Z</time>
      </trkpt>
      <trkpt lat="45.44392" lon="2.58214">
        <ele>762.41</ele>
        <time>2022-08-17T09:36:49Z</time>
      </trkpt>
      <trkpt lat="45.444" lon="2.58203">
        <ele>761.14</ele>
        <time>2022-08-17T09:36:51Z</time>
      </trkpt>
      <trkpt lat="45.44414" lon="2.5819">
        <ele>758.67</ele>
        <time>2022-08-17T09:36:54Z</time>
      </trkpt>
      <trkpt lat="45.44419" lon="2.58187">
        <ele>757.49</ele>
        <time>2022-08-17T09:36:55Z</time>
      </trkpt>
      <trkpt lat="45.44424" lon="2.58186">
        <ele>757.51</ele>
        <time>2022-08-17T09:36:56Z</time>
      </trkpt>
      <trkpt lat="45.44433" lon="2.58183">
        <ele>756.11</ele>
        <time>2022-08-17T09:36:58Z</time>
      </trkpt>
      <trkpt lat="45.44438" lon="2.58182">
        <ele>756.07</ele>
        <time>2022-08-17T09:36:59Z</time>
      </trkpt>
      <trkpt lat="45.44458" lon="2.58177">
        <ele>752.54</ele>
        <time>2022-08-17T09:37:03Z</time>
      </trkpt>
      <trkpt lat="45.44464" lon="2.58177">
        <ele>752.47</ele>
        <time>2022-08-17T09:37:04Z</time>
      </trkpt>
      <trkpt lat="45.44471" lon="2.58178">
        <ele>751.31</ele>
        <time>2022-08-17T09:37:05Z</time>
      </trkpt>
      <trkpt lat="45.44478" lon="2.58181">
        <ele>750.49</ele>
        <time>2022-08-17T09:37:06Z</time>
      </trkpt>
      <trkpt lat="45.44485" lon="2.58186">
        <ele>750.44</ele>
        <time>2022-08-17T09:37:07Z</time>
      </trkpt>
      <trkpt lat="45.44491" lon="2.58192">
        <ele>750.44</ele>
        <time>2022-08-17T09:37:08Z</time>
      </trkpt>
      <trkpt lat="45.44498" lon="2.58199">
        <ele>750.5</ele>
        <time>2022-08-17T09:37:09Z</time>
      </trkpt>
      <trkpt lat="45.4451" lon="2.58214">
        <ele>750.6</ele>
        <time>2022-08-17T09:37:11Z</time>
      </trkpt>
      <trkpt lat="45.44516" lon="2.58222">
        <ele>750.96</ele>
        <time>2022-08-17T09:37:12Z</time>
      </trkpt>
      <trkpt lat="45.4452" lon="2.58231">
        <ele>750.97</ele>
        <time>2022-08-17T09:37:13Z</time>
      </trkpt>
      <trkpt lat="45.44542" lon="2.58276">
        <ele>750.97</ele>
        <time>2022-08-17T09:37:18Z</time>
      </trkpt>
      <trkpt lat="45.44548" lon="2.58283">
        <ele>750.98</ele>
        <time>2022-08-17T09:37:19Z</time>
      </trkpt>
      <trkpt lat="45.44554" lon="2.58289">
        <ele>750.99</ele>
        <time>2022-08-17T09:37:20Z</time>
      </trkpt>
      <trkpt lat="45.44597" lon="2.5832">
        <ele>753.85</ele>
        <time>2022-08-17T09:37:27Z</time>
      </trkpt>
      <trkpt lat="45.44601" lon="2.58321">
        <ele>753.86</ele>
        <time>2022-08-17T09:37:28Z</time>
      </trkpt>
      <trkpt lat="45.44605" lon="2.5832">
        <ele>754.76</ele>
        <time>2022-08-17T09:37:29Z</time>
      </trkpt>
      <trkpt lat="45.44607" lon="2.58317">
        <ele>754.77</ele>
        <time>2022-08-17T09:37:30Z</time>
      </trkpt>
      <trkpt lat="45.44609" lon="2.58313">
        <ele>754.78</ele>
        <time>2022-08-17T09:37:31Z</time>
      </trkpt>
      <trkpt lat="45.44611" lon="2.58307">
        <ele>754.79</ele>
        <time>2022-08-17T09:37:32Z</time>
      </trkpt>
      <trkpt lat="45.44612" lon="2.58299">
        <ele>754.76</ele>
        <time>2022-08-17T09:37:33Z</time>
      </trkpt>
      <trkpt lat="45.44615" lon="2.58281">
        <ele>754.75</ele>
        <time>2022-08-17T09:37:35Z</time>
      </trkpt>
      <trkpt lat="45.4462" lon="2.58261">
        <ele>754.69</ele>
        <time>2022-08-17T09:37:37Z</time>
      </trkpt>
      <trkpt lat="45.44623" lon="2.58251">
        <ele>754.69</ele>
        <time>2022-08-17T09:37:38Z</time>
      </trkpt>
      <trkpt lat="45.44631" lon="2.58226">
        <ele>754.69</ele>
        <time>2022-08-17T09:37:41Z</time>
      </trkpt>
      <trkpt lat="45.44632" lon="2.58218">
        <ele>754.69</ele>
        <time>2022-08-17T09:37:42Z</time>
      </trkpt>
      <trkpt lat="45.44633" lon="2.5821">
        <ele>754.7</ele>
        <time>2022-08-17T09:37:43Z</time>
      </trkpt>
      <trkpt lat="45.44632" lon="2.58202">
        <ele>754.68</ele>
        <time>2022-08-17T09:37:44Z</time>
      </trkpt>
      <trkpt lat="45.44632" lon="2.58194">
        <ele>752.05</ele>
        <time>2022-08-17T09:37:45Z</time>
      </trkpt>
      <trkpt lat="45.44631" lon="2.58186">
        <ele>751.18</ele>
        <time>2022-08-17T09:37:46Z</time>
      </trkpt>
      <trkpt lat="45.44632" lon="2.58178">
        <ele>751.21</ele>
        <time>2022-08-17T09:37:47Z</time>
      </trkpt>
      <trkpt lat="45.44633" lon="2.58171">
        <ele>751.18</ele>
        <time>2022-08-17T09:37:48Z</time>
      </trkpt>
      <trkpt lat="45.44637" lon="2.58165">
        <ele>749.93</ele>
        <time>2022-08-17T09:37:49Z</time>
      </trkpt>
      <trkpt lat="45.44641" lon="2.58162">
        <ele>749.93</ele>
        <time>2022-08-17T09:37:50Z</time>
      </trkpt>
      <trkpt lat="45.44646" lon="2.58161">
        <ele>749.89</ele>
        <time>2022-08-17T09:37:51Z</time>
      </trkpt>
      <trkpt lat="45.44652" lon="2.58163">
        <ele>749.89</ele>
        <time>2022-08-17T09:37:52Z</time>
      </trkpt>
      <trkpt lat="45.44659" lon="2.58165">
        <ele>749.09</ele>
        <time>2022-08-17T09:37:53Z</time>
      </trkpt>
      <trkpt lat="45.4468" lon="2.58169">
        <ele>749.05</ele>
        <time>2022-08-17T09:37:56Z</time>
      </trkpt>
      <trkpt lat="45.44688" lon="2.58169">
        <ele>749.01</ele>
        <time>2022-08-17T09:37:57Z</time>
      </trkpt>
      <trkpt lat="45.44695" lon="2.58167">
        <ele>747.51</ele>
        <time>2022-08-17T09:37:58Z</time>
      </trkpt>
      <trkpt lat="45.44701" lon="2.58163">
        <ele>747.46</ele>
        <time>2022-08-17T09:37:59Z</time>
      </trkpt>
      <trkpt lat="45.44707" lon="2.58157">
        <ele>747.42</ele>
        <time>2022-08-17T09:38:00Z</time>
      </trkpt>
      <trkpt lat="45.4471" lon="2.5815">
        <ele>746.3</ele>
        <time>2022-08-17T09:38:01Z</time>
      </trkpt>
      <trkpt lat="45.44712" lon="2.58141">
        <ele>745.68</ele>
        <time>2022-08-17T09:38:02Z</time>
      </trkpt>
      <trkpt lat="45.44714" lon="2.58132">
        <ele>745.65</ele>
        <time>2022-08-17T09:38:03Z</time>
      </trkpt>
      <trkpt lat="45.44721" lon="2.58105">
        <ele>743.64</ele>
        <time>2022-08-17T09:38:06Z</time>
      </trkpt>
      <trkpt lat="45.44725" lon="2.58096">
        <ele>742.89</ele>
        <time>2022-08-17T09:38:07Z</time>
      </trkpt>
      <trkpt lat="45.44731" lon="2.58088">
        <ele>741.92</ele>
        <time>2022-08-17T09:38:08Z</time>
      </trkpt>
      <trkpt lat="45.44738" lon="2.58082">
        <ele>741.99</ele>
        <time>2022-08-17T09:38:09Z</time>
      </trkpt>
      <trkpt lat="45.44746" lon="2.58076">
        <ele>740.71</ele>
        <time>2022-08-17T09:38:10Z</time>
      </trkpt>
      <trkpt lat="45.44754" lon="2.58073">
        <ele>739.31</ele>
        <time>2022-08-17T09:38:11Z</time>
      </trkpt>
      <trkpt lat="45.44762" lon="2.58072">
        <ele>739.27</ele>
        <time>2022-08-17T09:38:12Z</time>
      </trkpt>
      <trkpt lat="45.4477" lon="2.58073">
        <ele>738.34</ele>
        <time>2022-08-17T09:38:13Z</time>
      </trkpt>
      <trkpt lat="45.44795" lon="2.58076">
        <ele>736.6</ele>
        <time>2022-08-17T09:38:16Z</time>
      </trkpt>
      <trkpt lat="45.44817" lon="2.58083">
        <ele>735.14</ele>
        <time>2022-08-17T09:38:19Z</time>
      </trkpt>
      <trkpt lat="45.44832" lon="2.58089">
        <ele>734.15</ele>
        <time>2022-08-17T09:38:21Z</time>
      </trkpt>
      <trkpt lat="45.44846" lon="2.58092">
        <ele>732.83</ele>
        <time>2022-08-17T09:38:23Z</time>
      </trkpt>
      <trkpt lat="45.4486" lon="2.58093">
        <ele>730.85</ele>
        <time>2022-08-17T09:38:25Z</time>
      </trkpt>
      <trkpt lat="45.44866" lon="2.58091">
        <ele>730.86</ele>
        <time>2022-08-17T09:38:26Z</time>
      </trkpt>
      <trkpt lat="45.44888" lon="2.58084">
        <ele>729.45</ele>
        <time>2022-08-17T09:38:29Z</time>
      </trkpt>
      <trkpt lat="45.44897" lon="2.58083">
        <ele>727.74</ele>
        <time>2022-08-17T09:38:30Z</time>
      </trkpt>
      <trkpt lat="45.44905" lon="2.58083">
        <ele>727.67</ele>
        <time>2022-08-17T09:38:31Z</time>
      </trkpt>
      <trkpt lat="45.44914" lon="2.58084">
        <ele>726.11</ele>
        <time>2022-08-17T09:38:32Z</time>
      </trkpt>
      <trkpt lat="45.44922" lon="2.58085">
        <ele>725.5</ele>
        <time>2022-08-17T09:38:33Z</time>
      </trkpt>
      <trkpt lat="45.4493" lon="2.58087">
        <ele>725.5</ele>
        <time>2022-08-17T09:38:34Z</time>
      </trkpt>
      <trkpt lat="45.44938" lon="2.58088">
        <ele>724.41</ele>
        <time>2022-08-17T09:38:35Z</time>
      </trkpt>
      <trkpt lat="45.44945" lon="2.58088">
        <ele>724.35</ele>
        <time>2022-08-17T09:38:36Z</time>
      </trkpt>
      <trkpt lat="45.44951" lon="2.58088">
        <ele>722.94</ele>
        <time>2022-08-17T09:38:37Z</time>
      </trkpt>
      <trkpt lat="45.44958" lon="2.58087">
        <ele>722.94</ele>
        <time>2022-08-17T09:38:38Z</time>
      </trkpt>
      <trkpt lat="45.44966" lon="2.58084">
        <ele>721.72</ele>
        <time>2022-08-17T09:38:39Z</time>
      </trkpt>
      <trkpt lat="45.44973" lon="2.5808">
        <ele>721.72</ele>
        <time>2022-08-17T09:38:40Z</time>
      </trkpt>
      <trkpt lat="45.44979" lon="2.58075">
        <ele>721.66</ele>
        <time>2022-08-17T09:38:41Z</time>
      </trkpt>
      <trkpt lat="45.44984" lon="2.58069">
        <ele>720.14</ele>
        <time>2022-08-17T09:38:42Z</time>
      </trkpt>
      <trkpt lat="45.44988" lon="2.58061">
        <ele>720.07</ele>
        <time>2022-08-17T09:38:43Z</time>
      </trkpt>
      <trkpt lat="45.44991" lon="2.58051">
        <ele>720.09</ele>
        <time>2022-08-17T09:38:44Z</time>
      </trkpt>
      <trkpt lat="45.44993" lon="2.58039">
        <ele>719.27</ele>
        <time>2022-08-17T09:38:45Z</time>
      </trkpt>
      <trkpt lat="45.44995" lon="2.58027">
        <ele>719.25</ele>
        <time>2022-08-17T09:38:46Z</time>
      </trkpt>
      <trkpt lat="45.44997" lon="2.58013">
        <ele>719.24</ele>
        <time>2022-08-17T09:38:47Z</time>
      </trkpt>
      <trkpt lat="45.45004" lon="2.57962">
        <ele>715.7</ele>
        <time>2022-08-17T09:38:51Z</time>
      </trkpt>
      <trkpt lat="45.45006" lon="2.57949">
        <ele>715.75</ele>
        <time>2022-08-17T09:38:52Z</time>
      </trkpt>
      <trkpt lat="45.4501" lon="2.57938">
        <ele>714.3</ele>
        <time>2022-08-17T09:38:53Z</time>
      </trkpt>
      <trkpt lat="45.45014" lon="2.57929">
        <ele>714.21</ele>
        <time>2022-08-17T09:38:54Z</time>
      </trkpt>
      <trkpt lat="45.4502" lon="2.57922">
        <ele>712.5</ele>
        <time>2022-08-17T09:38:55Z</time>
      </trkpt>
      <trkpt lat="45.45027" lon="2.57919">
        <ele>712.47</ele>
        <time>2022-08-17T09:38:56Z</time>
      </trkpt>
      <trkpt lat="45.45035" lon="2.57918">
        <ele>712.01</ele>
        <time>2022-08-17T09:38:57Z</time>
      </trkpt>
      <trkpt lat="45.45043" lon="2.5792">
        <ele>710.09</ele>
        <time>2022-08-17T09:38:58Z</time>
      </trkpt>
      <trkpt lat="45.45051" lon="2.57923">
        <ele>710.09</ele>
        <time>2022-08-17T09:38:59Z</time>
      </trkpt>
      <trkpt lat="45.45059" lon="2.57925">
        <ele>708.31</ele>
        <time>2022-08-17T09:39:00Z</time>
      </trkpt>
      <trkpt lat="45.45067" lon="2.57925">
        <ele>707.33</ele>
        <time>2022-08-17T09:39:01Z</time>
      </trkpt>
      <trkpt lat="45.45074" lon="2.57922">
        <ele>706.57</ele>
        <time>2022-08-17T09:39:02Z</time>
      </trkpt>
      <trkpt lat="45.45082" lon="2.57917">
        <ele>704.95</ele>
        <time>2022-08-17T09:39:03Z</time>
      </trkpt>
      <trkpt lat="45.45087" lon="2.57908">
        <ele>704.95</ele>
        <time>2022-08-17T09:39:04Z</time>
      </trkpt>
      <trkpt lat="45.45091" lon="2.57897">
        <ele>703.58</ele>
        <time>2022-08-17T09:39:05Z</time>
      </trkpt>
      <trkpt lat="45.45096" lon="2.57887">
        <ele>703.51</ele>
        <time>2022-08-17T09:39:06Z</time>
      </trkpt>
      <trkpt lat="45.45105" lon="2.57867">
        <ele>701.94</ele>
        <time>2022-08-17T09:39:08Z</time>
      </trkpt>
      <trkpt lat="45.45109" lon="2.57857">
        <ele>700.92</ele>
        <time>2022-08-17T09:39:09Z</time>
      </trkpt>
      <trkpt lat="45.45114" lon="2.57849">
        <ele>700.07</ele>
        <time>2022-08-17T09:39:10Z</time>
      </trkpt>
      <trkpt lat="45.4512" lon="2.57842">
        <ele>700.04</ele>
        <time>2022-08-17T09:39:11Z</time>
      </trkpt>
      <trkpt lat="45.45136" lon="2.57824">
        <ele>698.71</ele>
        <time>2022-08-17T09:39:14Z</time>
      </trkpt>
      <trkpt lat="45.45163" lon="2.57789">
        <ele>697.85</ele>
        <time>2022-08-17T09:39:18Z</time>
      </trkpt>
      <trkpt lat="45.45168" lon="2.57779">
        <ele>697.89</ele>
        <time>2022-08-17T09:39:19Z</time>
      </trkpt>
      <trkpt lat="45.45173" lon="2.57768">
        <ele>697.93</ele>
        <time>2022-08-17T09:39:20Z</time>
      </trkpt>
      <trkpt lat="45.45176" lon="2.57756">
        <ele>697.95</ele>
        <time>2022-08-17T09:39:21Z</time>
      </trkpt>
      <trkpt lat="45.45179" lon="2.57743">
        <ele>698.04</ele>
        <time>2022-08-17T09:39:22Z</time>
      </trkpt>
      <trkpt lat="45.45179" lon="2.57729">
        <ele>698.42</ele>
        <time>2022-08-17T09:39:23Z</time>
      </trkpt>
      <trkpt lat="45.45178" lon="2.57716">
        <ele>698.42</ele>
        <time>2022-08-17T09:39:24Z</time>
      </trkpt>
      <trkpt lat="45.45175" lon="2.57703">
        <ele>698.41</ele>
        <time>2022-08-17T09:39:25Z</time>
      </trkpt>
      <trkpt lat="45.45171" lon="2.57691">
        <ele>698.42</ele>
        <time>2022-08-17T09:39:26Z</time>
      </trkpt>
      <trkpt lat="45.45167" lon="2.57679">
        <ele>701.15</ele>
        <time>2022-08-17T09:39:27Z</time>
      </trkpt>
      <trkpt lat="45.45162" lon="2.57668">
        <ele>701.16</ele>
        <time>2022-08-17T09:39:28Z</time>
      </trkpt>
      <trkpt lat="45.45157" lon="2.57658">
        <ele>702.03</ele>
        <time>2022-08-17T09:39:29Z</time>
      </trkpt>
      <trkpt lat="45.45151" lon="2.57648">
        <ele>702.06</ele>
        <time>2022-08-17T09:39:30Z</time>
      </trkpt>
      <trkpt lat="45.45145" lon="2.57638">
        <ele>703</ele>
        <time>2022-08-17T09:39:31Z</time>
      </trkpt>
      <trkpt lat="45.45123" lon="2.57604">
        <ele>706.13</ele>
        <time>2022-08-17T09:39:35Z</time>
      </trkpt>
      <trkpt lat="45.45119" lon="2.57595">
        <ele>706.14</ele>
        <time>2022-08-17T09:39:36Z</time>
      </trkpt>
      <trkpt lat="45.45116" lon="2.57585">
        <ele>707.37</ele>
        <time>2022-08-17T09:39:37Z</time>
      </trkpt>
      <trkpt lat="45.45114" lon="2.57576">
        <ele>708.22</ele>
        <time>2022-08-17T09:39:38Z</time>
      </trkpt>
      <trkpt lat="45.45113" lon="2.57565">
        <ele>708.22</ele>
        <time>2022-08-17T09:39:39Z</time>
      </trkpt>
      <trkpt lat="45.45112" lon="2.57554">
        <ele>709.5</ele>
        <time>2022-08-17T09:39:40Z</time>
      </trkpt>
      <trkpt lat="45.45113" lon="2.57542">
        <ele>709.6</ele>
        <time>2022-08-17T09:39:41Z</time>
      </trkpt>
      <trkpt lat="45.45114" lon="2.57531">
        <ele>710.41</ele>
        <time>2022-08-17T09:39:42Z</time>
      </trkpt>
      <trkpt lat="45.45115" lon="2.57519">
        <ele>711.94</ele>
        <time>2022-08-17T09:39:43Z</time>
      </trkpt>
      <trkpt lat="45.45118" lon="2.57508">
        <ele>711.97</ele>
        <time>2022-08-17T09:39:44Z</time>
      </trkpt>
      <trkpt lat="45.45121" lon="2.57497">
        <ele>713.65</ele>
        <time>2022-08-17T09:39:45Z</time>
      </trkpt>
      <trkpt lat="45.45126" lon="2.57476">
        <ele>714.95</ele>
        <time>2022-08-17T09:39:47Z</time>
      </trkpt>
      <trkpt lat="45.45131" lon="2.57432">
        <ele>717.1</ele>
        <time>2022-08-17T09:39:51Z</time>
      </trkpt>
      <trkpt lat="45.45129" lon="2.57275">
        <ele>719.26</ele>
        <time>2022-08-17T09:40:04Z</time>
      </trkpt>
      <trkpt lat="45.45132" lon="2.57265">
        <ele>719.28</ele>
        <time>2022-08-17T09:40:05Z</time>
      </trkpt>
      <trkpt lat="45.45139" lon="2.5724">
        <ele>719.28</ele>
        <time>2022-08-17T09:40:08Z</time>
      </trkpt>
      <trkpt lat="45.4514" lon="2.57232">
        <ele>719.29</ele>
        <time>2022-08-17T09:40:09Z</time>
      </trkpt>
      <trkpt lat="45.45142" lon="2.57171">
        <ele>720.09</ele>
        <time>2022-08-17T09:40:15Z</time>
      </trkpt>
      <trkpt lat="45.45141" lon="2.5716">
        <ele>720.09</ele>
        <time>2022-08-17T09:40:16Z</time>
      </trkpt>
      <trkpt lat="45.4514" lon="2.5715">
        <ele>717.75</ele>
        <time>2022-08-17T09:40:17Z</time>
      </trkpt>
      <trkpt lat="45.45137" lon="2.5714">
        <ele>717.74</ele>
        <time>2022-08-17T09:40:18Z</time>
      </trkpt>
      <trkpt lat="45.45135" lon="2.5713">
        <ele>716.87</ele>
        <time>2022-08-17T09:40:19Z</time>
      </trkpt>
      <trkpt lat="45.45125" lon="2.57076">
        <ele>714.28</ele>
        <time>2022-08-17T09:40:24Z</time>
      </trkpt>
      <trkpt lat="45.45123" lon="2.57054">
        <ele>713.11</ele>
        <time>2022-08-17T09:40:26Z</time>
      </trkpt>
      <trkpt lat="45.45125" lon="2.5702">
        <ele>710.57</ele>
        <time>2022-08-17T09:40:29Z</time>
      </trkpt>
      <trkpt lat="45.45126" lon="2.56986">
        <ele>707.62</ele>
        <time>2022-08-17T09:40:32Z</time>
      </trkpt>
      <trkpt lat="45.45127" lon="2.5695">
        <ele>704.26</ele>
        <time>2022-08-17T09:40:35Z</time>
      </trkpt>
      <trkpt lat="45.45127" lon="2.56937">
        <ele>704.12</ele>
        <time>2022-08-17T09:40:36Z</time>
      </trkpt>
      <trkpt lat="45.45133" lon="2.56898">
        <ele>701.5</ele>
        <time>2022-08-17T09:40:39Z</time>
      </trkpt>
      <trkpt lat="45.45139" lon="2.56871">
        <ele>700.06</ele>
        <time>2022-08-17T09:40:41Z</time>
      </trkpt>
      <trkpt lat="45.45143" lon="2.56858">
        <ele>698.26</ele>
        <time>2022-08-17T09:40:42Z</time>
      </trkpt>
      <trkpt lat="45.45148" lon="2.56847">
        <ele>696.84</ele>
        <time>2022-08-17T09:40:43Z</time>
      </trkpt>
      <trkpt lat="45.45154" lon="2.56836">
        <ele>696.79</ele>
        <time>2022-08-17T09:40:44Z</time>
      </trkpt>
      <trkpt lat="45.45161" lon="2.56826">
        <ele>695.33</ele>
        <time>2022-08-17T09:40:45Z</time>
      </trkpt>
      <trkpt lat="45.45168" lon="2.56818">
        <ele>695.26</ele>
        <time>2022-08-17T09:40:46Z</time>
      </trkpt>
      <trkpt lat="45.45175" lon="2.56809">
        <ele>693.95</ele>
        <time>2022-08-17T09:40:47Z</time>
      </trkpt>
      <trkpt lat="45.45181" lon="2.56798">
        <ele>693.01</ele>
        <time>2022-08-17T09:40:48Z</time>
      </trkpt>
      <trkpt lat="45.45186" lon="2.56787">
        <ele>692.99</ele>
        <time>2022-08-17T09:40:49Z</time>
      </trkpt>
      <trkpt lat="45.4519" lon="2.56775">
        <ele>691.9</ele>
        <time>2022-08-17T09:40:50Z</time>
      </trkpt>
      <trkpt lat="45.45192" lon="2.56763">
        <ele>691.83</ele>
        <time>2022-08-17T09:40:51Z</time>
      </trkpt>
      <trkpt lat="45.45193" lon="2.5675">
        <ele>690.53</ele>
        <time>2022-08-17T09:40:52Z</time>
      </trkpt>
      <trkpt lat="45.45194" lon="2.56737">
        <ele>689.47</ele>
        <time>2022-08-17T09:40:53Z</time>
      </trkpt>
      <trkpt lat="45.45194" lon="2.56723">
        <ele>689.42</ele>
        <time>2022-08-17T09:40:54Z</time>
      </trkpt>
      <trkpt lat="45.45196" lon="2.56695">
        <ele>686.2</ele>
        <time>2022-08-17T09:40:56Z</time>
      </trkpt>
      <trkpt lat="45.45197" lon="2.56683">
        <ele>685.22</ele>
        <time>2022-08-17T09:40:57Z</time>
      </trkpt>
      <trkpt lat="45.452" lon="2.56673">
        <ele>684.2</ele>
        <time>2022-08-17T09:40:58Z</time>
      </trkpt>
      <trkpt lat="45.45204" lon="2.56665">
        <ele>683.06</ele>
        <time>2022-08-17T09:40:59Z</time>
      </trkpt>
      <trkpt lat="45.4521" lon="2.56659">
        <ele>683.05</ele>
        <time>2022-08-17T09:41:00Z</time>
      </trkpt>
      <trkpt lat="45.45217" lon="2.56658">
        <ele>682.52</ele>
        <time>2022-08-17T09:41:01Z</time>
      </trkpt>
      <trkpt lat="45.45225" lon="2.5666">
        <ele>681.38</ele>
        <time>2022-08-17T09:41:02Z</time>
      </trkpt>
      <trkpt lat="45.45233" lon="2.56663">
        <ele>681.38</ele>
        <time>2022-08-17T09:41:03Z</time>
      </trkpt>
      <trkpt lat="45.45249" lon="2.56666">
        <ele>679.43</ele>
        <time>2022-08-17T09:41:05Z</time>
      </trkpt>
      <trkpt lat="45.45257" lon="2.56666">
        <ele>678.6</ele>
        <time>2022-08-17T09:41:06Z</time>
      </trkpt>
      <trkpt lat="45.45264" lon="2.56665">
        <ele>678.56</ele>
        <time>2022-08-17T09:41:07Z</time>
      </trkpt>
      <trkpt lat="45.4527" lon="2.5666">
        <ele>677.63</ele>
        <time>2022-08-17T09:41:08Z</time>
      </trkpt>
      <trkpt lat="45.45274" lon="2.56652">
        <ele>677.63</ele>
        <time>2022-08-17T09:41:09Z</time>
      </trkpt>
      <trkpt lat="45.45277" lon="2.56643">
        <ele>676.49</ele>
        <time>2022-08-17T09:41:10Z</time>
      </trkpt>
      <trkpt lat="45.45278" lon="2.56633">
        <ele>676.43</ele>
        <time>2022-08-17T09:41:11Z</time>
      </trkpt>
      <trkpt lat="45.45291" lon="2.56558">
        <ele>676.49</ele>
        <time>2022-08-17T09:41:19Z</time>
      </trkpt>
      <trkpt lat="45.4529" lon="2.56548">
        <ele>676.49</ele>
        <time>2022-08-17T09:41:20Z</time>
      </trkpt>
      <trkpt lat="45.45289" lon="2.56537">
        <ele>676.52</ele>
        <time>2022-08-17T09:41:21Z</time>
      </trkpt>
      <trkpt lat="45.45285" lon="2.56481">
        <ele>676.76</ele>
        <time>2022-08-17T09:41:27Z</time>
      </trkpt>
      <trkpt lat="45.45286" lon="2.56472">
        <ele>676.77</ele>
        <time>2022-08-17T09:41:28Z</time>
      </trkpt>
      <trkpt lat="45.45289" lon="2.56464">
        <ele>676.77</ele>
        <time>2022-08-17T09:41:29Z</time>
      </trkpt>
      <trkpt lat="45.45301" lon="2.56437">
        <ele>679.29</ele>
        <time>2022-08-17T09:41:32Z</time>
      </trkpt>
      <trkpt lat="45.45344" lon="2.56327">
        <ele>682.52</ele>
        <time>2022-08-17T09:41:41Z</time>
      </trkpt>
      <trkpt lat="45.45364" lon="2.56256">
        <ele>682.51</ele>
        <time>2022-08-17T09:41:46Z</time>
      </trkpt>
      <trkpt lat="45.45365" lon="2.56243">
        <ele>680.15</ele>
        <time>2022-08-17T09:41:47Z</time>
      </trkpt>
      <trkpt lat="45.45366" lon="2.56229">
        <ele>678.6</ele>
        <time>2022-08-17T09:41:48Z</time>
      </trkpt>
      <trkpt lat="45.45365" lon="2.56215">
        <ele>677.76</ele>
        <time>2022-08-17T09:41:49Z</time>
      </trkpt>
      <trkpt lat="45.45365" lon="2.56201">
        <ele>675.39</ele>
        <time>2022-08-17T09:41:50Z</time>
      </trkpt>
      <trkpt lat="45.45365" lon="2.56186">
        <ele>674.27</ele>
        <time>2022-08-17T09:41:51Z</time>
      </trkpt>
      <trkpt lat="45.45366" lon="2.56171">
        <ele>672.92</ele>
        <time>2022-08-17T09:41:52Z</time>
      </trkpt>
      <trkpt lat="45.45368" lon="2.56156">
        <ele>672.92</ele>
        <time>2022-08-17T09:41:53Z</time>
      </trkpt>
      <trkpt lat="45.45372" lon="2.56126">
        <ele>671.36</ele>
        <time>2022-08-17T09:41:55Z</time>
      </trkpt>
      <trkpt lat="45.45373" lon="2.56109">
        <ele>671.35</ele>
        <time>2022-08-17T09:41:56Z</time>
      </trkpt>
      <trkpt lat="45.45374" lon="2.56093">
        <ele>671.3</ele>
        <time>2022-08-17T09:41:57Z</time>
      </trkpt>
      <trkpt lat="45.45374" lon="2.56077">
        <ele>671.33</ele>
        <time>2022-08-17T09:41:58Z</time>
      </trkpt>
      <trkpt lat="45.45373" lon="2.56061">
        <ele>671.38</ele>
        <time>2022-08-17T09:41:59Z</time>
      </trkpt>
      <trkpt lat="45.4537" lon="2.56047">
        <ele>671.39</ele>
        <time>2022-08-17T09:42:00Z</time>
      </trkpt>
      <trkpt lat="45.45366" lon="2.56035">
        <ele>670.54</ele>
        <time>2022-08-17T09:42:01Z</time>
      </trkpt>
      <trkpt lat="45.4536" lon="2.56022">
        <ele>670.54</ele>
        <time>2022-08-17T09:42:02Z</time>
      </trkpt>
      <trkpt lat="45.45354" lon="2.5601">
        <ele>669.28</ele>
        <time>2022-08-17T09:42:03Z</time>
      </trkpt>
      <trkpt lat="45.45349" lon="2.55997">
        <ele>669.3</ele>
        <time>2022-08-17T09:42:04Z</time>
      </trkpt>
      <trkpt lat="45.45332" lon="2.55954">
        <ele>665.53</ele>
        <time>2022-08-17T09:42:07Z</time>
      </trkpt>
      <trkpt lat="45.45327" lon="2.55939">
        <ele>665.48</ele>
        <time>2022-08-17T09:42:08Z</time>
      </trkpt>
      <trkpt lat="45.45317" lon="2.55907">
        <ele>662.33</ele>
        <time>2022-08-17T09:42:10Z</time>
      </trkpt>
      <trkpt lat="45.45304" lon="2.55863">
        <ele>658.03</ele>
        <time>2022-08-17T09:42:13Z</time>
      </trkpt>
      <trkpt lat="45.45299" lon="2.55851">
        <ele>657</ele>
        <time>2022-08-17T09:42:14Z</time>
      </trkpt>
      <trkpt lat="45.45293" lon="2.55841">
        <ele>656.95</ele>
        <time>2022-08-17T09:42:15Z</time>
      </trkpt>
      <trkpt lat="45.45282" lon="2.55822">
        <ele>655.52</ele>
        <time>2022-08-17T09:42:17Z</time>
      </trkpt>
      <trkpt lat="45.45271" lon="2.55803">
        <ele>653.54</ele>
        <time>2022-08-17T09:42:19Z</time>
      </trkpt>
      <trkpt lat="45.45261" lon="2.55785">
        <ele>651.87</ele>
        <time>2022-08-17T09:42:21Z</time>
      </trkpt>
      <trkpt lat="45.45254" lon="2.55777">
        <ele>651.96</ele>
        <time>2022-08-17T09:42:22Z</time>
      </trkpt>
      <trkpt lat="45.45247" lon="2.5577">
        <ele>650.14</ele>
        <time>2022-08-17T09:42:23Z</time>
      </trkpt>
      <trkpt lat="45.45239" lon="2.55765">
        <ele>650.15</ele>
        <time>2022-08-17T09:42:24Z</time>
      </trkpt>
      <trkpt lat="45.45224" lon="2.55753">
        <ele>649.12</ele>
        <time>2022-08-17T09:42:26Z</time>
      </trkpt>
      <trkpt lat="45.45217" lon="2.55746">
        <ele>649.04</ele>
        <time>2022-08-17T09:42:27Z</time>
      </trkpt>
      <trkpt lat="45.4521" lon="2.55737">
        <ele>649.09</ele>
        <time>2022-08-17T09:42:28Z</time>
      </trkpt>
      <trkpt lat="45.45203" lon="2.55727">
        <ele>649.06</ele>
        <time>2022-08-17T09:42:29Z</time>
      </trkpt>
      <trkpt lat="45.45197" lon="2.55715">
        <ele>649.03</ele>
        <time>2022-08-17T09:42:30Z</time>
      </trkpt>
      <trkpt lat="45.45193" lon="2.55702">
        <ele>649.03</ele>
        <time>2022-08-17T09:42:31Z</time>
      </trkpt>
      <trkpt lat="45.45191" lon="2.55688">
        <ele>648.99</ele>
        <time>2022-08-17T09:42:32Z</time>
      </trkpt>
      <trkpt lat="45.45191" lon="2.55674">
        <ele>648.97</ele>
        <time>2022-08-17T09:42:33Z</time>
      </trkpt>
      <trkpt lat="45.45193" lon="2.55661">
        <ele>648.24</ele>
        <time>2022-08-17T09:42:34Z</time>
      </trkpt>
      <trkpt lat="45.45197" lon="2.55649">
        <ele>648.22</ele>
        <time>2022-08-17T09:42:35Z</time>
      </trkpt>
      <trkpt lat="45.45202" lon="2.55638">
        <ele>648.25</ele>
        <time>2022-08-17T09:42:36Z</time>
      </trkpt>
      <trkpt lat="45.45206" lon="2.55627">
        <ele>648.29</ele>
        <time>2022-08-17T09:42:37Z</time>
      </trkpt>
      <trkpt lat="45.45239" lon="2.55544">
        <ele>645.44</ele>
        <time>2022-08-17T09:42:45Z</time>
      </trkpt>
      <trkpt lat="45.45241" lon="2.55533">
        <ele>645.47</ele>
        <time>2022-08-17T09:42:46Z</time>
      </trkpt>
      <trkpt lat="45.45276" lon="2.55388">
        <ele>643.85</ele>
        <time>2022-08-17T09:42:57Z</time>
      </trkpt>
      <trkpt lat="45.45283" lon="2.5536">
        <ele>642.83</ele>
        <time>2022-08-17T09:42:59Z</time>
      </trkpt>
      <trkpt lat="45.45294" lon="2.55295">
        <ele>640.43</ele>
        <time>2022-08-17T09:43:04Z</time>
      </trkpt>
      <trkpt lat="45.45305" lon="2.55215">
        <ele>639.58</ele>
        <time>2022-08-17T09:43:11Z</time>
      </trkpt>
      <trkpt lat="45.45306" lon="2.55204">
        <ele>638.57</ele>
        <time>2022-08-17T09:43:12Z</time>
      </trkpt>
      <trkpt lat="45.45305" lon="2.55194">
        <ele>638.57</ele>
        <time>2022-08-17T09:43:13Z</time>
      </trkpt>
      <trkpt lat="45.45303" lon="2.55185">
        <ele>637.75</ele>
        <time>2022-08-17T09:43:14Z</time>
      </trkpt>
      <trkpt lat="45.45302" lon="2.55177">
        <ele>637.75</ele>
        <time>2022-08-17T09:43:15Z</time>
      </trkpt>
      <trkpt lat="45.45302" lon="2.5517">
        <ele>636.57</ele>
        <time>2022-08-17T09:43:16Z</time>
      </trkpt>
      <trkpt lat="45.45302" lon="2.55165">
        <ele>636.54</ele>
        <time>2022-08-17T09:43:17Z</time>
      </trkpt>
      <trkpt lat="45.45304" lon="2.5516">
        <ele>635.73</ele>
        <time>2022-08-17T09:43:18Z</time>
      </trkpt>
      <trkpt lat="45.45305" lon="2.55158">
        <ele>635.73</ele>
        <time>2022-08-17T09:43:19Z</time>
      </trkpt>
      <trkpt lat="45.45307" lon="2.55157">
        <ele>635.72</ele>
        <time>2022-08-17T09:43:20Z</time>
      </trkpt>
      <trkpt lat="45.45308" lon="2.55155">
        <ele>635.72</ele>
        <time>2022-08-17T09:43:21Z</time>
      </trkpt>
      <trkpt lat="45.45309" lon="2.55151">
        <ele>635.73</ele>
        <time>2022-08-17T09:43:22Z</time>
      </trkpt>
      <trkpt lat="45.45309" lon="2.55147">
        <ele>635.7</ele>
        <time>2022-08-17T09:43:23Z</time>
      </trkpt>
      <trkpt lat="45.45307" lon="2.55143">
        <ele>635.72</ele>
        <time>2022-08-17T09:43:24Z</time>
      </trkpt>
      <trkpt lat="45.45302" lon="2.55139">
        <ele>635.72</ele>
        <time>2022-08-17T09:43:25Z</time>
      </trkpt>
      <trkpt lat="45.45296" lon="2.55133">
        <ele>635.72</ele>
        <time>2022-08-17T09:43:26Z</time>
      </trkpt>
      <trkpt lat="45.45279" lon="2.55115">
        <ele>639.61</ele>
        <time>2022-08-17T09:43:28Z</time>
      </trkpt>
      <trkpt lat="45.45259" lon="2.55088">
        <ele>642.64</ele>
        <time>2022-08-17T09:43:30Z</time>
      </trkpt>
      <trkpt lat="45.45224" lon="2.55033">
        <ele>647.6</ele>
        <time>2022-08-17T09:43:33Z</time>
      </trkpt>
      <trkpt lat="45.45189" lon="2.54964">
        <ele>650.42</ele>
        <time>2022-08-17T09:43:36Z</time>
      </trkpt>
      <trkpt lat="45.45092" lon="2.54754">
        <ele>649.92</ele>
        <time>2022-08-17T09:43:46Z</time>
      </trkpt>
      <trkpt lat="45.44919" lon="2.54442">
        <ele>649.83</ele>
        <time>2022-08-17T09:44:03Z</time>
      </trkpt>
      <trkpt lat="45.44842" lon="2.54319">
        <ele>649.8</ele>
        <time>2022-08-17T09:44:10Z</time>
      </trkpt>
      <trkpt lat="45.44829" lon="2.54305">
        <ele>649.8</ele>
        <time>2022-08-17T09:44:11Z</time>
      </trkpt>
      <trkpt lat="45.44801" lon="2.54277">
        <ele>647.28</ele>
        <time>2022-08-17T09:44:13Z</time>
      </trkpt>
      <trkpt lat="45.44727" lon="2.54206">
        <ele>643.38</ele>
        <time>2022-08-17T09:44:18Z</time>
      </trkpt>
      <trkpt lat="45.44712" lon="2.54192">
        <ele>643.35</ele>
        <time>2022-08-17T09:44:19Z</time>
      </trkpt>
      <trkpt lat="45.44683" lon="2.54163">
        <ele>642.03</ele>
        <time>2022-08-17T09:44:21Z</time>
      </trkpt>
      <trkpt lat="45.44653" lon="2.54135">
        <ele>640.62</ele>
        <time>2022-08-17T09:44:23Z</time>
      </trkpt>
      <trkpt lat="45.44605" lon="2.54099">
        <ele>638.02</ele>
        <time>2022-08-17T09:44:26Z</time>
      </trkpt>
      <trkpt lat="45.44553" lon="2.54073">
        <ele>635.27</ele>
        <time>2022-08-17T09:44:29Z</time>
      </trkpt>
      <trkpt lat="45.44519" lon="2.54055">
        <ele>633.82</ele>
        <time>2022-08-17T09:44:31Z</time>
      </trkpt>
      <trkpt lat="45.44442" lon="2.54003">
        <ele>632.83</ele>
        <time>2022-08-17T09:44:36Z</time>
      </trkpt>
      <trkpt lat="45.44428" lon="2.53988">
        <ele>632.76</ele>
        <time>2022-08-17T09:44:37Z</time>
      </trkpt>
      <trkpt lat="45.44416" lon="2.53972">
        <ele>632.77</ele>
        <time>2022-08-17T09:44:38Z</time>
      </trkpt>
      <trkpt lat="45.44404" lon="2.53955">
        <ele>632.75</ele>
        <time>2022-08-17T09:44:39Z</time>
      </trkpt>
      <trkpt lat="45.44393" lon="2.53937">
        <ele>635.7</ele>
        <time>2022-08-17T09:44:40Z</time>
      </trkpt>
      <trkpt lat="45.44384" lon="2.53918">
        <ele>636.65</ele>
        <time>2022-08-17T09:44:41Z</time>
      </trkpt>
      <trkpt lat="45.44375" lon="2.53898">
        <ele>637.77</ele>
        <time>2022-08-17T09:44:42Z</time>
      </trkpt>
      <trkpt lat="45.44368" lon="2.53878">
        <ele>639.43</ele>
        <time>2022-08-17T09:44:43Z</time>
      </trkpt>
      <trkpt lat="45.4436" lon="2.53857">
        <ele>639.49</ele>
        <time>2022-08-17T09:44:44Z</time>
      </trkpt>
      <trkpt lat="45.44347" lon="2.53818">
        <ele>641.91</ele>
        <time>2022-08-17T09:44:46Z</time>
      </trkpt>
      <trkpt lat="45.4433" lon="2.53752">
        <ele>644.4</ele>
        <time>2022-08-17T09:44:50Z</time>
      </trkpt>
      <trkpt lat="45.4432" lon="2.53702">
        <ele>647.49</ele>
        <time>2022-08-17T09:44:53Z</time>
      </trkpt>
      <trkpt lat="45.44309" lon="2.53666">
        <ele>648.47</ele>
        <time>2022-08-17T09:44:55Z</time>
      </trkpt>
      <trkpt lat="45.44244" lon="2.53503">
        <ele>644.96</ele>
        <time>2022-08-17T09:45:05Z</time>
      </trkpt>
      <trkpt lat="45.44238" lon="2.53488">
        <ele>644.95</ele>
        <time>2022-08-17T09:45:06Z</time>
      </trkpt>
      <trkpt lat="45.44162" lon="2.53303">
        <ele>642.94</ele>
        <time>2022-08-17T09:45:19Z</time>
      </trkpt>
      <trkpt lat="45.44096" lon="2.53144">
        <ele>642.22</ele>
        <time>2022-08-17T09:45:31Z</time>
      </trkpt>
      <trkpt lat="45.44022" lon="2.52961">
        <ele>639.67</ele>
        <time>2022-08-17T09:45:42Z</time>
      </trkpt>
      <trkpt lat="45.43975" lon="2.52849">
        <ele>637.52</ele>
        <time>2022-08-17T09:45:49Z</time>
      </trkpt>
      <trkpt lat="45.43938" lon="2.52769">
        <ele>636.36</ele>
        <time>2022-08-17T09:45:57Z</time>
      </trkpt>
      <trkpt lat="45.43934" lon="2.52764">
        <ele>636.39</ele>
        <time>2022-08-17T09:45:58Z</time>
      </trkpt>
      <trkpt lat="45.43929" lon="2.52763">
        <ele>635.28</ele>
        <time>2022-08-17T09:45:59Z</time>
      </trkpt>
      <trkpt lat="45.43924" lon="2.52765">
        <ele>635.33</ele>
        <time>2022-08-17T09:46:00Z</time>
      </trkpt>
      <trkpt lat="45.43919" lon="2.5277">
        <ele>635.3</ele>
        <time>2022-08-17T09:46:01Z</time>
      </trkpt>
      <trkpt lat="45.43912" lon="2.52777">
        <ele>635.32</ele>
        <time>2022-08-17T09:46:02Z</time>
      </trkpt>
      <trkpt lat="45.43873" lon="2.5281">
        <ele>637.87</ele>
        <time>2022-08-17T09:46:06Z</time>
      </trkpt>
      <trkpt lat="45.43841" lon="2.52836">
        <ele>639.43</ele>
        <time>2022-08-17T09:46:09Z</time>
      </trkpt>
      <trkpt lat="45.43726" lon="2.52926">
        <ele>641.94</ele>
        <time>2022-08-17T09:46:20Z</time>
      </trkpt>
      <trkpt lat="45.4366" lon="2.52966">
        <ele>639.39</ele>
        <time>2022-08-17T09:46:27Z</time>
      </trkpt>
      <trkpt lat="45.43611" lon="2.52991">
        <ele>637.02</ele>
        <time>2022-08-17T09:46:31Z</time>
      </trkpt>
      <trkpt lat="45.43588" lon="2.53006">
        <ele>633.71</ele>
        <time>2022-08-17T09:46:33Z</time>
      </trkpt>
      <trkpt lat="45.43577" lon="2.53015">
        <ele>632.85</ele>
        <time>2022-08-17T09:46:34Z</time>
      </trkpt>
      <trkpt lat="45.43568" lon="2.53025">
        <ele>631.18</ele>
        <time>2022-08-17T09:46:35Z</time>
      </trkpt>
      <trkpt lat="45.43559" lon="2.53037">
        <ele>631.18</ele>
        <time>2022-08-17T09:46:36Z</time>
      </trkpt>
      <trkpt lat="45.4355" lon="2.5305">
        <ele>631.18</ele>
        <time>2022-08-17T09:46:37Z</time>
      </trkpt>
      <trkpt lat="45.43542" lon="2.53065">
        <ele>631.18</ele>
        <time>2022-08-17T09:46:38Z</time>
      </trkpt>
      <trkpt lat="45.43534" lon="2.53082">
        <ele>631.13</ele>
        <time>2022-08-17T09:46:39Z</time>
      </trkpt>
      <trkpt lat="45.43527" lon="2.531">
        <ele>630.09</ele>
        <time>2022-08-17T09:46:40Z</time>
      </trkpt>
      <trkpt lat="45.43522" lon="2.53118">
        <ele>630.04</ele>
        <time>2022-08-17T09:46:41Z</time>
      </trkpt>
      <trkpt lat="45.43517" lon="2.53135">
        <ele>629.22</ele>
        <time>2022-08-17T09:46:42Z</time>
      </trkpt>
      <trkpt lat="45.43508" lon="2.53173">
        <ele>628</ele>
        <time>2022-08-17T09:46:45Z</time>
      </trkpt>
      <trkpt lat="45.43494" lon="2.53236">
        <ele>627.25</ele>
        <time>2022-08-17T09:46:51Z</time>
      </trkpt>
      <trkpt lat="45.43447" lon="2.53397">
        <ele>625.57</ele>
        <time>2022-08-17T09:47:00Z</time>
      </trkpt>
      <trkpt lat="45.43407" lon="2.53465">
        <ele>625.61</ele>
        <time>2022-08-17T09:47:05Z</time>
      </trkpt>
      <trkpt lat="45.43398" lon="2.53474">
        <ele>625.63</ele>
        <time>2022-08-17T09:47:06Z</time>
      </trkpt>
      <trkpt lat="45.43389" lon="2.53481">
        <ele>625.64</ele>
        <time>2022-08-17T09:47:07Z</time>
      </trkpt>
      <trkpt lat="45.43348" lon="2.5351">
        <ele>628.05</ele>
        <time>2022-08-17T09:47:11Z</time>
      </trkpt>
      <trkpt lat="45.43281" lon="2.53549">
        <ele>628.08</ele>
        <time>2022-08-17T09:47:18Z</time>
      </trkpt>
      <trkpt lat="45.43273" lon="2.5355">
        <ele>628.08</ele>
        <time>2022-08-17T09:47:19Z</time>
      </trkpt>
      <trkpt lat="45.43264" lon="2.53549">
        <ele>628.08</ele>
        <time>2022-08-17T09:47:20Z</time>
      </trkpt>
      <trkpt lat="45.43256" lon="2.53546">
        <ele>628.08</ele>
        <time>2022-08-17T09:47:21Z</time>
      </trkpt>
      <trkpt lat="45.43246" lon="2.53542">
        <ele>628.03</ele>
        <time>2022-08-17T09:47:22Z</time>
      </trkpt>
      <trkpt lat="45.43224" lon="2.53531">
        <ele>625.25</ele>
        <time>2022-08-17T09:47:24Z</time>
      </trkpt>
      <trkpt lat="45.43173" lon="2.53494">
        <ele>622.63</ele>
        <time>2022-08-17T09:47:28Z</time>
      </trkpt>
      <trkpt lat="45.43071" lon="2.53446">
        <ele>620.73</ele>
        <time>2022-08-17T09:47:34Z</time>
      </trkpt>
      <trkpt lat="45.43026" lon="2.53432">
        <ele>620.73</ele>
        <time>2022-08-17T09:47:37Z</time>
      </trkpt>
      <trkpt lat="45.43011" lon="2.53432">
        <ele>620.7</ele>
        <time>2022-08-17T09:47:38Z</time>
      </trkpt>
      <trkpt lat="45.42994" lon="2.53434">
        <ele>620.68</ele>
        <time>2022-08-17T09:47:39Z</time>
      </trkpt>
      <trkpt lat="45.42857" lon="2.53461">
        <ele>620.69</ele>
        <time>2022-08-17T09:47:48Z</time>
      </trkpt>
      <trkpt lat="45.42826" lon="2.53462">
        <ele>623.25</ele>
        <time>2022-08-17T09:47:50Z</time>
      </trkpt>
      <trkpt lat="45.42749" lon="2.5346">
        <ele>624.41</ele>
        <time>2022-08-17T09:47:55Z</time>
      </trkpt>
      <trkpt lat="45.42733" lon="2.53464">
        <ele>624.31</ele>
        <time>2022-08-17T09:47:56Z</time>
      </trkpt>
      <trkpt lat="45.42644" lon="2.535">
        <ele>620.97</ele>
        <time>2022-08-17T09:48:01Z</time>
      </trkpt>
      <trkpt lat="45.42626" lon="2.53506">
        <ele>620.96</ele>
        <time>2022-08-17T09:48:02Z</time>
      </trkpt>
      <trkpt lat="45.42559" lon="2.5353">
        <ele>619.69</ele>
        <time>2022-08-17T09:48:06Z</time>
      </trkpt>
      <trkpt lat="45.42436" lon="2.53606">
        <ele>618.81</ele>
        <time>2022-08-17T09:48:14Z</time>
      </trkpt>
      <trkpt lat="45.4242" lon="2.53614">
        <ele>618.78</ele>
        <time>2022-08-17T09:48:15Z</time>
      </trkpt>
      <trkpt lat="45.42371" lon="2.53634">
        <ele>622.2</ele>
        <time>2022-08-17T09:48:18Z</time>
      </trkpt>
      <trkpt lat="45.42319" lon="2.53671">
        <ele>627.2</ele>
        <time>2022-08-17T09:48:21Z</time>
      </trkpt>
      <trkpt lat="45.42283" lon="2.53701">
        <ele>631.08</ele>
        <time>2022-08-17T09:48:23Z</time>
      </trkpt>
      <trkpt lat="45.4225" lon="2.53727">
        <ele>632.24</ele>
        <time>2022-08-17T09:48:25Z</time>
      </trkpt>
      <trkpt lat="45.42196" lon="2.5377">
        <ele>636.68</ele>
        <time>2022-08-17T09:48:29Z</time>
      </trkpt>
      <trkpt lat="45.42165" lon="2.53787">
        <ele>640.4</ele>
        <time>2022-08-17T09:48:31Z</time>
      </trkpt>
      <trkpt lat="45.42147" lon="2.53793">
        <ele>642.46</ele>
        <time>2022-08-17T09:48:32Z</time>
      </trkpt>
      <trkpt lat="45.4211" lon="2.53802">
        <ele>646.47</ele>
        <time>2022-08-17T09:48:34Z</time>
      </trkpt>
      <trkpt lat="45.42074" lon="2.53812">
        <ele>649.82</ele>
        <time>2022-08-17T09:48:36Z</time>
      </trkpt>
      <trkpt lat="45.42037" lon="2.53828">
        <ele>652.23</ele>
        <time>2022-08-17T09:48:38Z</time>
      </trkpt>
      <trkpt lat="45.4202" lon="2.5384">
        <ele>652.06</ele>
        <time>2022-08-17T09:48:39Z</time>
      </trkpt>
      <trkpt lat="45.41932" lon="2.53907">
        <ele>649.88</ele>
        <time>2022-08-17T09:48:45Z</time>
      </trkpt>
      <trkpt lat="45.41921" lon="2.53921">
        <ele>648.93</ele>
        <time>2022-08-17T09:48:46Z</time>
      </trkpt>
      <trkpt lat="45.41911" lon="2.53936">
        <ele>647.19</ele>
        <time>2022-08-17T09:48:47Z</time>
      </trkpt>
      <trkpt lat="45.41902" lon="2.53954">
        <ele>646.25</ele>
        <time>2022-08-17T09:48:48Z</time>
      </trkpt>
      <trkpt lat="45.41894" lon="2.53972">
        <ele>646.25</ele>
        <time>2022-08-17T09:48:49Z</time>
      </trkpt>
      <trkpt lat="45.41886" lon="2.53991">
        <ele>645.03</ele>
        <time>2022-08-17T09:48:50Z</time>
      </trkpt>
      <trkpt lat="45.41878" lon="2.54011">
        <ele>644.98</ele>
        <time>2022-08-17T09:48:51Z</time>
      </trkpt>
      <trkpt lat="45.41862" lon="2.54055">
        <ele>643.67</ele>
        <time>2022-08-17T09:48:53Z</time>
      </trkpt>
      <trkpt lat="45.41838" lon="2.5412">
        <ele>639.69</ele>
        <time>2022-08-17T09:48:56Z</time>
      </trkpt>
      <trkpt lat="45.41814" lon="2.54179">
        <ele>635.69</ele>
        <time>2022-08-17T09:48:59Z</time>
      </trkpt>
      <trkpt lat="45.41805" lon="2.54196">
        <ele>634.6</ele>
        <time>2022-08-17T09:49:00Z</time>
      </trkpt>
      <trkpt lat="45.41795" lon="2.54211">
        <ele>634.53</ele>
        <time>2022-08-17T09:49:01Z</time>
      </trkpt>
      <trkpt lat="45.41785" lon="2.54225">
        <ele>633.19</ele>
        <time>2022-08-17T09:49:02Z</time>
      </trkpt>
      <trkpt lat="45.41774" lon="2.54238">
        <ele>633.11</ele>
        <time>2022-08-17T09:49:03Z</time>
      </trkpt>
      <trkpt lat="45.41762" lon="2.5425">
        <ele>632.13</ele>
        <time>2022-08-17T09:49:04Z</time>
      </trkpt>
      <trkpt lat="45.41749" lon="2.5426">
        <ele>632.13</ele>
        <time>2022-08-17T09:49:05Z</time>
      </trkpt>
      <trkpt lat="45.41735" lon="2.54268">
        <ele>631.12</ele>
        <time>2022-08-17T09:49:06Z</time>
      </trkpt>
      <trkpt lat="45.41721" lon="2.54275">
        <ele>631.08</ele>
        <time>2022-08-17T09:49:07Z</time>
      </trkpt>
      <trkpt lat="45.41707" lon="2.54281">
        <ele>631.08</ele>
        <time>2022-08-17T09:49:08Z</time>
      </trkpt>
      <trkpt lat="45.41589" lon="2.54366">
        <ele>631.59</ele>
        <time>2022-08-17T09:49:16Z</time>
      </trkpt>
      <trkpt lat="45.41492" lon="2.54463">
        <ele>627.82</ele>
        <time>2022-08-17T09:49:22Z</time>
      </trkpt>
      <trkpt lat="45.41444" lon="2.54511">
        <ele>623.97</ele>
        <time>2022-08-17T09:49:25Z</time>
      </trkpt>
      <trkpt lat="45.414" lon="2.54556">
        <ele>620.07</ele>
        <time>2022-08-17T09:49:28Z</time>
      </trkpt>
      <trkpt lat="45.41387" lon="2.54571">
        <ele>620.04</ele>
        <time>2022-08-17T09:49:29Z</time>
      </trkpt>
      <trkpt lat="45.41376" lon="2.54587">
        <ele>618.86</ele>
        <time>2022-08-17T09:49:30Z</time>
      </trkpt>
      <trkpt lat="45.41366" lon="2.54604">
        <ele>618.86</ele>
        <time>2022-08-17T09:49:31Z</time>
      </trkpt>
      <trkpt lat="45.41357" lon="2.54624">
        <ele>618.82</ele>
        <time>2022-08-17T09:49:32Z</time>
      </trkpt>
      <trkpt lat="45.41302" lon="2.54823">
        <ele>616.72</ele>
        <time>2022-08-17T09:49:41Z</time>
      </trkpt>
      <trkpt lat="45.41292" lon="2.54894">
        <ele>614.46</ele>
        <time>2022-08-17T09:49:44Z</time>
      </trkpt>
      <trkpt lat="45.41283" lon="2.5496">
        <ele>610.93</ele>
        <time>2022-08-17T09:49:47Z</time>
      </trkpt>
      <trkpt lat="45.41278" lon="2.55">
        <ele>610.08</ele>
        <time>2022-08-17T09:49:49Z</time>
      </trkpt>
      <trkpt lat="45.41272" lon="2.55038">
        <ele>608.36</ele>
        <time>2022-08-17T09:49:51Z</time>
      </trkpt>
      <trkpt lat="45.41264" lon="2.55078">
        <ele>608.43</ele>
        <time>2022-08-17T09:49:53Z</time>
      </trkpt>
      <trkpt lat="45.41257" lon="2.55099">
        <ele>607</ele>
        <time>2022-08-17T09:49:54Z</time>
      </trkpt>
      <trkpt lat="45.4125" lon="2.5512">
        <ele>605.26</ele>
        <time>2022-08-17T09:49:55Z</time>
      </trkpt>
      <trkpt lat="45.41241" lon="2.55139">
        <ele>605.21</ele>
        <time>2022-08-17T09:49:56Z</time>
      </trkpt>
      <trkpt lat="45.41225" lon="2.55178">
        <ele>601.95</ele>
        <time>2022-08-17T09:49:58Z</time>
      </trkpt>
      <trkpt lat="45.4121" lon="2.55217">
        <ele>598.98</ele>
        <time>2022-08-17T09:50:00Z</time>
      </trkpt>
      <trkpt lat="45.41205" lon="2.55236">
        <ele>598.41</ele>
        <time>2022-08-17T09:50:01Z</time>
      </trkpt>
      <trkpt lat="45.41201" lon="2.55257">
        <ele>596.16</ele>
        <time>2022-08-17T09:50:02Z</time>
      </trkpt>
      <trkpt lat="45.41198" lon="2.55278">
        <ele>596.08</ele>
        <time>2022-08-17T09:50:03Z</time>
      </trkpt>
      <trkpt lat="45.41196" lon="2.55299">
        <ele>595.39</ele>
        <time>2022-08-17T09:50:04Z</time>
      </trkpt>
      <trkpt lat="45.41196" lon="2.55321">
        <ele>595.31</ele>
        <time>2022-08-17T09:50:05Z</time>
      </trkpt>
      <trkpt lat="45.41197" lon="2.55343">
        <ele>593.98</ele>
        <time>2022-08-17T09:50:06Z</time>
      </trkpt>
      <trkpt lat="45.412" lon="2.55365">
        <ele>593.14</ele>
        <time>2022-08-17T09:50:07Z</time>
      </trkpt>
      <trkpt lat="45.41204" lon="2.55388">
        <ele>593.14</ele>
        <time>2022-08-17T09:50:08Z</time>
      </trkpt>
      <trkpt lat="45.41209" lon="2.55409">
        <ele>593.3</ele>
        <time>2022-08-17T09:50:09Z</time>
      </trkpt>
      <trkpt lat="45.41216" lon="2.55429">
        <ele>591.76</ele>
        <time>2022-08-17T09:50:10Z</time>
      </trkpt>
      <trkpt lat="45.41224" lon="2.55448">
        <ele>590.71</ele>
        <time>2022-08-17T09:50:11Z</time>
      </trkpt>
      <trkpt lat="45.41233" lon="2.55465">
        <ele>589.9</ele>
        <time>2022-08-17T09:50:12Z</time>
      </trkpt>
      <trkpt lat="45.41243" lon="2.55479">
        <ele>589.82</ele>
        <time>2022-08-17T09:50:13Z</time>
      </trkpt>
      <trkpt lat="45.41254" lon="2.55491">
        <ele>588.34</ele>
        <time>2022-08-17T09:50:14Z</time>
      </trkpt>
      <trkpt lat="45.41267" lon="2.55502">
        <ele>588.18</ele>
        <time>2022-08-17T09:50:15Z</time>
      </trkpt>
      <trkpt lat="45.4128" lon="2.55511">
        <ele>588.27</ele>
        <time>2022-08-17T09:50:16Z</time>
      </trkpt>
      <trkpt lat="45.41294" lon="2.55519">
        <ele>587.14</ele>
        <time>2022-08-17T09:50:17Z</time>
      </trkpt>
      <trkpt lat="45.41309" lon="2.55526">
        <ele>587.08</ele>
        <time>2022-08-17T09:50:18Z</time>
      </trkpt>
      <trkpt lat="45.41326" lon="2.55532">
        <ele>587.03</ele>
        <time>2022-08-17T09:50:19Z</time>
      </trkpt>
      <trkpt lat="45.41344" lon="2.55535">
        <ele>587.05</ele>
        <time>2022-08-17T09:50:20Z</time>
      </trkpt>
      <trkpt lat="45.41363" lon="2.55537">
        <ele>586.99</ele>
        <time>2022-08-17T09:50:21Z</time>
      </trkpt>
      <trkpt lat="45.4143" lon="2.55542">
        <ele>584.42</ele>
        <time>2022-08-17T09:50:25Z</time>
      </trkpt>
      <trkpt lat="45.41445" lon="2.55547">
        <ele>582.23</ele>
        <time>2022-08-17T09:50:26Z</time>
      </trkpt>
      <trkpt lat="45.4146" lon="2.55555">
        <ele>580.66</ele>
        <time>2022-08-17T09:50:27Z</time>
      </trkpt>
      <trkpt lat="45.41473" lon="2.55566">
        <ele>580.65</ele>
        <time>2022-08-17T09:50:28Z</time>
      </trkpt>
      <trkpt lat="45.41486" lon="2.55579">
        <ele>578.79</ele>
        <time>2022-08-17T09:50:29Z</time>
      </trkpt>
      <trkpt lat="45.41497" lon="2.55597">
        <ele>577.98</ele>
        <time>2022-08-17T09:50:30Z</time>
      </trkpt>
      <trkpt lat="45.41505" lon="2.55617">
        <ele>577.16</ele>
        <time>2022-08-17T09:50:31Z</time>
      </trkpt>
      <trkpt lat="45.41512" lon="2.55639">
        <ele>577</ele>
        <time>2022-08-17T09:50:32Z</time>
      </trkpt>
      <trkpt lat="45.41516" lon="2.55662">
        <ele>574.56</ele>
        <time>2022-08-17T09:50:33Z</time>
      </trkpt>
      <trkpt lat="45.41519" lon="2.55685">
        <ele>573.59</ele>
        <time>2022-08-17T09:50:34Z</time>
      </trkpt>
      <trkpt lat="45.41521" lon="2.55708">
        <ele>572.57</ele>
        <time>2022-08-17T09:50:35Z</time>
      </trkpt>
      <trkpt lat="45.41521" lon="2.55731">
        <ele>570.8</ele>
        <time>2022-08-17T09:50:36Z</time>
      </trkpt>
      <trkpt lat="45.4152" lon="2.55753">
        <ele>569.31</ele>
        <time>2022-08-17T09:50:37Z</time>
      </trkpt>
      <trkpt lat="45.41516" lon="2.55774">
        <ele>568.04</ele>
        <time>2022-08-17T09:50:38Z</time>
      </trkpt>
      <trkpt lat="45.41508" lon="2.55793">
        <ele>566.66</ele>
        <time>2022-08-17T09:50:39Z</time>
      </trkpt>
      <trkpt lat="45.41499" lon="2.5581">
        <ele>565.81</ele>
        <time>2022-08-17T09:50:40Z</time>
      </trkpt>
      <trkpt lat="45.41488" lon="2.55826">
        <ele>565.83</ele>
        <time>2022-08-17T09:50:41Z</time>
      </trkpt>
      <trkpt lat="45.41477" lon="2.55841">
        <ele>563.91</ele>
        <time>2022-08-17T09:50:42Z</time>
      </trkpt>
      <trkpt lat="45.41465" lon="2.55855">
        <ele>562.67</ele>
        <time>2022-08-17T09:50:43Z</time>
      </trkpt>
      <trkpt lat="45.41453" lon="2.55867">
        <ele>562.69</ele>
        <time>2022-08-17T09:50:44Z</time>
      </trkpt>
      <trkpt lat="45.4144" lon="2.55878">
        <ele>560.5</ele>
        <time>2022-08-17T09:50:45Z</time>
      </trkpt>
      <trkpt lat="45.41426" lon="2.55886">
        <ele>558.86</ele>
        <time>2022-08-17T09:50:46Z</time>
      </trkpt>
      <trkpt lat="45.41411" lon="2.55891">
        <ele>557.39</ele>
        <time>2022-08-17T09:50:47Z</time>
      </trkpt>
      <trkpt lat="45.41394" lon="2.55892">
        <ele>557.51</ele>
        <time>2022-08-17T09:50:48Z</time>
      </trkpt>
      <trkpt lat="45.41374" lon="2.5589">
        <ele>557.38</ele>
        <time>2022-08-17T09:50:49Z</time>
      </trkpt>
      <trkpt lat="45.41354" lon="2.55885">
        <ele>555.7</ele>
        <time>2022-08-17T09:50:50Z</time>
      </trkpt>
      <trkpt lat="45.41315" lon="2.55877">
        <ele>551.98</ele>
        <time>2022-08-17T09:50:52Z</time>
      </trkpt>
      <trkpt lat="45.41277" lon="2.55868">
        <ele>547.71</ele>
        <time>2022-08-17T09:50:54Z</time>
      </trkpt>
      <trkpt lat="45.41241" lon="2.55859">
        <ele>543.59</ele>
        <time>2022-08-17T09:50:56Z</time>
      </trkpt>
      <trkpt lat="45.41207" lon="2.5585">
        <ele>540.24</ele>
        <time>2022-08-17T09:50:58Z</time>
      </trkpt>
      <trkpt lat="45.41173" lon="2.55844">
        <ele>536.82</ele>
        <time>2022-08-17T09:51:00Z</time>
      </trkpt>
      <trkpt lat="45.41157" lon="2.55846">
        <ele>535.62</ele>
        <time>2022-08-17T09:51:01Z</time>
      </trkpt>
      <trkpt lat="45.41142" lon="2.55851">
        <ele>534.35</ele>
        <time>2022-08-17T09:51:02Z</time>
      </trkpt>
      <trkpt lat="45.41127" lon="2.55857">
        <ele>534.18</ele>
        <time>2022-08-17T09:51:03Z</time>
      </trkpt>
      <trkpt lat="45.41099" lon="2.5587">
        <ele>532.21</ele>
        <time>2022-08-17T09:51:05Z</time>
      </trkpt>
      <trkpt lat="45.41073" lon="2.55882">
        <ele>531.11</ele>
        <time>2022-08-17T09:51:07Z</time>
      </trkpt>
      <trkpt lat="45.41059" lon="2.55887">
        <ele>530.96</ele>
        <time>2022-08-17T09:51:08Z</time>
      </trkpt>
      <trkpt lat="45.41043" lon="2.55888">
        <ele>530.99</ele>
        <time>2022-08-17T09:51:09Z</time>
      </trkpt>
      <trkpt lat="45.41026" lon="2.55886">
        <ele>531.02</ele>
        <time>2022-08-17T09:51:10Z</time>
      </trkpt>
      <trkpt lat="45.40989" lon="2.55876">
        <ele>533.56</ele>
        <time>2022-08-17T09:51:12Z</time>
      </trkpt>
      <trkpt lat="45.40923" lon="2.55867">
        <ele>533.73</ele>
        <time>2022-08-17T09:51:16Z</time>
      </trkpt>
      <trkpt lat="45.40907" lon="2.55869">
        <ele>533.79</ele>
        <time>2022-08-17T09:51:17Z</time>
      </trkpt>
      <trkpt lat="45.40892" lon="2.55874">
        <ele>533.8</ele>
        <time>2022-08-17T09:51:18Z</time>
      </trkpt>
      <trkpt lat="45.40878" lon="2.55882">
        <ele>533.88</ele>
        <time>2022-08-17T09:51:19Z</time>
      </trkpt>
      <trkpt lat="45.40865" lon="2.55892">
        <ele>533.96</ele>
        <time>2022-08-17T09:51:20Z</time>
      </trkpt>
      <trkpt lat="45.40855" lon="2.55905">
        <ele>533.96</ele>
        <time>2022-08-17T09:51:21Z</time>
      </trkpt>
      <trkpt lat="45.40846" lon="2.55921">
        <ele>533.96</ele>
        <time>2022-08-17T09:51:22Z</time>
      </trkpt>
      <trkpt lat="45.4084" lon="2.5594">
        <ele>534</ele>
        <time>2022-08-17T09:51:23Z</time>
      </trkpt>
      <trkpt lat="45.40836" lon="2.55962">
        <ele>533.95</ele>
        <time>2022-08-17T09:51:24Z</time>
      </trkpt>
      <trkpt lat="45.40833" lon="2.55984">
        <ele>533.95</ele>
        <time>2022-08-17T09:51:25Z</time>
      </trkpt>
      <trkpt lat="45.40818" lon="2.56046">
        <ele>533.92</ele>
        <time>2022-08-17T09:51:28Z</time>
      </trkpt>
      <trkpt lat="45.40811" lon="2.56064">
        <ele>531.07</ele>
        <time>2022-08-17T09:51:29Z</time>
      </trkpt>
      <trkpt lat="45.40801" lon="2.56078">
        <ele>530.26</ele>
        <time>2022-08-17T09:51:30Z</time>
      </trkpt>
      <trkpt lat="45.4079" lon="2.56087">
        <ele>530.24</ele>
        <time>2022-08-17T09:51:31Z</time>
      </trkpt>
      <trkpt lat="45.40778" lon="2.56093">
        <ele>530.25</ele>
        <time>2022-08-17T09:51:32Z</time>
      </trkpt>
      <trkpt lat="45.40765" lon="2.56094">
        <ele>530.28</ele>
        <time>2022-08-17T09:51:33Z</time>
      </trkpt>
      <trkpt lat="45.40751" lon="2.5609">
        <ele>530.28</ele>
        <time>2022-08-17T09:51:34Z</time>
      </trkpt>
      <trkpt lat="45.40736" lon="2.56081">
        <ele>533.5</ele>
        <time>2022-08-17T09:51:35Z</time>
      </trkpt>
      <trkpt lat="45.4072" lon="2.5607">
        <ele>534.34</ele>
        <time>2022-08-17T09:51:36Z</time>
      </trkpt>
      <trkpt lat="45.40705" lon="2.5606">
        <ele>534.4</ele>
        <time>2022-08-17T09:51:37Z</time>
      </trkpt>
      <trkpt lat="45.40673" lon="2.56041">
        <ele>535.24</ele>
        <time>2022-08-17T09:51:39Z</time>
      </trkpt>
      <trkpt lat="45.40654" lon="2.56033">
        <ele>536.36</ele>
        <time>2022-08-17T09:51:40Z</time>
      </trkpt>
      <trkpt lat="45.40634" lon="2.56026">
        <ele>536.32</ele>
        <time>2022-08-17T09:51:41Z</time>
      </trkpt>
      <trkpt lat="45.40565" lon="2.55995">
        <ele>533.1</ele>
        <time>2022-08-17T09:51:45Z</time>
      </trkpt>
      <trkpt lat="45.4055" lon="2.55983">
        <ele>533.1</ele>
        <time>2022-08-17T09:51:46Z</time>
      </trkpt>
      <trkpt lat="45.40487" lon="2.55936">
        <ele>532.07</ele>
        <time>2022-08-17T09:51:50Z</time>
      </trkpt>
      <trkpt lat="45.40469" lon="2.5593">
        <ele>532.07</ele>
        <time>2022-08-17T09:51:51Z</time>
      </trkpt>
      <trkpt lat="45.40397" lon="2.55914">
        <ele>528.54</ele>
        <time>2022-08-17T09:51:55Z</time>
      </trkpt>
      <trkpt lat="45.40382" lon="2.55912">
        <ele>528.53</ele>
        <time>2022-08-17T09:51:56Z</time>
      </trkpt>
      <trkpt lat="45.40366" lon="2.55912">
        <ele>528.5</ele>
        <time>2022-08-17T09:51:57Z</time>
      </trkpt>
      <trkpt lat="45.40351" lon="2.55914">
        <ele>528.5</ele>
        <time>2022-08-17T09:51:58Z</time>
      </trkpt>
      <trkpt lat="45.40336" lon="2.55918">
        <ele>528.49</ele>
        <time>2022-08-17T09:51:59Z</time>
      </trkpt>
      <trkpt lat="45.40308" lon="2.55926">
        <ele>527.41</ele>
        <time>2022-08-17T09:52:01Z</time>
      </trkpt>
      <trkpt lat="45.40293" lon="2.55926">
        <ele>527.43</ele>
        <time>2022-08-17T09:52:02Z</time>
      </trkpt>
      <trkpt lat="45.40278" lon="2.55922">
        <ele>527.4</ele>
        <time>2022-08-17T09:52:03Z</time>
      </trkpt>
      <trkpt lat="45.40263" lon="2.55916">
        <ele>527.41</ele>
        <time>2022-08-17T09:52:04Z</time>
      </trkpt>
      <trkpt lat="45.40249" lon="2.55909">
        <ele>527.38</ele>
        <time>2022-08-17T09:52:05Z</time>
      </trkpt>
      <trkpt lat="45.40235" lon="2.55904">
        <ele>527.39</ele>
        <time>2022-08-17T09:52:06Z</time>
      </trkpt>
      <trkpt lat="45.4022" lon="2.55902">
        <ele>527.38</ele>
        <time>2022-08-17T09:52:07Z</time>
      </trkpt>
      <trkpt lat="45.40204" lon="2.55903">
        <ele>527.41</ele>
        <time>2022-08-17T09:52:08Z</time>
      </trkpt>
      <trkpt lat="45.40187" lon="2.55909">
        <ele>529.66</ele>
        <time>2022-08-17T09:52:09Z</time>
      </trkpt>
      <trkpt lat="45.40169" lon="2.55919">
        <ele>530.46</ele>
        <time>2022-08-17T09:52:10Z</time>
      </trkpt>
      <trkpt lat="45.40151" lon="2.55929">
        <ele>531.27</ele>
        <time>2022-08-17T09:52:11Z</time>
      </trkpt>
      <trkpt lat="45.40134" lon="2.55938">
        <ele>531.33</ele>
        <time>2022-08-17T09:52:12Z</time>
      </trkpt>
      <trkpt lat="45.40077" lon="2.55966">
        <ele>528.79</ele>
        <time>2022-08-17T09:52:16Z</time>
      </trkpt>
      <trkpt lat="45.40066" lon="2.55972">
        <ele>528.78</ele>
        <time>2022-08-17T09:52:17Z</time>
      </trkpt>
      <trkpt lat="45.40056" lon="2.55981">
        <ele>527.14</ele>
        <time>2022-08-17T09:52:18Z</time>
      </trkpt>
      <trkpt lat="45.40047" lon="2.55992">
        <ele>525.89</ele>
        <time>2022-08-17T09:52:19Z</time>
      </trkpt>
      <trkpt lat="45.4004" lon="2.56003">
        <ele>525.87</ele>
        <time>2022-08-17T09:52:20Z</time>
      </trkpt>
      <trkpt lat="45.40033" lon="2.56014">
        <ele>525.05</ele>
        <time>2022-08-17T09:52:21Z</time>
      </trkpt>
      <trkpt lat="45.39998" lon="2.56117">
        <ele>522.02</ele>
        <time>2022-08-17T09:52:30Z</time>
      </trkpt>
      <trkpt lat="45.39994" lon="2.56139">
        <ele>520.64</ele>
        <time>2022-08-17T09:52:32Z</time>
      </trkpt>
      <trkpt lat="45.39991" lon="2.56161">
        <ele>519.42</ele>
        <time>2022-08-17T09:52:34Z</time>
      </trkpt>
      <trkpt lat="45.39984" lon="2.56194">
        <ele>517.09</ele>
        <time>2022-08-17T09:52:37Z</time>
      </trkpt>
      <trkpt lat="45.39979" lon="2.56229">
        <ele>514.79</ele>
        <time>2022-08-17T09:52:40Z</time>
      </trkpt>
      <trkpt lat="45.39978" lon="2.56262">
        <ele>511.81</ele>
        <time>2022-08-17T09:52:43Z</time>
      </trkpt>
      <trkpt lat="45.39976" lon="2.56289">
        <ele>509.53</ele>
        <time>2022-08-17T09:52:46Z</time>
      </trkpt>
      <trkpt lat="45.39976" lon="2.56301">
        <ele>508.09</ele>
        <time>2022-08-17T09:52:48Z</time>
      </trkpt>
      <trkpt lat="45.39976" lon="2.56309">
        <ele>508.03</ele>
        <time>2022-08-17T09:52:49Z</time>
      </trkpt>
      <trkpt lat="45.39978" lon="2.56319">
        <ele>508.1</ele>
        <time>2022-08-17T09:52:50Z</time>
      </trkpt>
      <trkpt lat="45.39981" lon="2.56331">
        <ele>508.02</ele>
        <time>2022-08-17T09:52:51Z</time>
      </trkpt>
      <trkpt lat="45.39986" lon="2.56345">
        <ele>507.96</ele>
        <time>2022-08-17T09:52:52Z</time>
      </trkpt>
      <trkpt lat="45.3999" lon="2.56362">
        <ele>511.35</ele>
        <time>2022-08-17T09:52:53Z</time>
      </trkpt>
      <trkpt lat="45.40003" lon="2.56426">
        <ele>515.31</ele>
        <time>2022-08-17T09:52:56Z</time>
      </trkpt>
      <trkpt lat="45.4001" lon="2.56472">
        <ele>518.86</ele>
        <time>2022-08-17T09:52:58Z</time>
      </trkpt>
      <trkpt lat="45.40012" lon="2.56494">
        <ele>519.01</ele>
        <time>2022-08-17T09:52:59Z</time>
      </trkpt>
      <trkpt lat="45.40015" lon="2.56537">
        <ele>520.99</ele>
        <time>2022-08-17T09:53:01Z</time>
      </trkpt>
      <trkpt lat="45.40015" lon="2.5658">
        <ele>522.58</ele>
        <time>2022-08-17T09:53:03Z</time>
      </trkpt>
      <trkpt lat="45.40013" lon="2.56621">
        <ele>524.93</ele>
        <time>2022-08-17T09:53:05Z</time>
      </trkpt>
      <trkpt lat="45.40007" lon="2.56661">
        <ele>527.65</ele>
        <time>2022-08-17T09:53:07Z</time>
      </trkpt>
      <trkpt lat="45.40001" lon="2.56681">
        <ele>528.54</ele>
        <time>2022-08-17T09:53:08Z</time>
      </trkpt>
      <trkpt lat="45.39993" lon="2.56699">
        <ele>528.64</ele>
        <time>2022-08-17T09:53:09Z</time>
      </trkpt>
      <trkpt lat="45.39984" lon="2.56717">
        <ele>530.59</ele>
        <time>2022-08-17T09:53:10Z</time>
      </trkpt>
      <trkpt lat="45.39972" lon="2.56734">
        <ele>531.62</ele>
        <time>2022-08-17T09:53:11Z</time>
      </trkpt>
      <trkpt lat="45.39959" lon="2.5675">
        <ele>532.94</ele>
        <time>2022-08-17T09:53:12Z</time>
      </trkpt>
      <trkpt lat="45.39946" lon="2.56766">
        <ele>535.34</ele>
        <time>2022-08-17T09:53:13Z</time>
      </trkpt>
      <trkpt lat="45.3992" lon="2.56803">
        <ele>538.24</ele>
        <time>2022-08-17T09:53:15Z</time>
      </trkpt>
      <trkpt lat="45.39895" lon="2.56848">
        <ele>541.53</ele>
        <time>2022-08-17T09:53:17Z</time>
      </trkpt>
      <trkpt lat="45.39854" lon="2.56914">
        <ele>545.34</ele>
        <time>2022-08-17T09:53:20Z</time>
      </trkpt>
      <trkpt lat="45.39841" lon="2.56932">
        <ele>545.56</ele>
        <time>2022-08-17T09:53:21Z</time>
      </trkpt>
      <trkpt lat="45.39816" lon="2.56969">
        <ele>547.22</ele>
        <time>2022-08-17T09:53:23Z</time>
      </trkpt>
      <trkpt lat="45.39805" lon="2.56992">
        <ele>550.07</ele>
        <time>2022-08-17T09:53:24Z</time>
      </trkpt>
      <trkpt lat="45.39784" lon="2.57043">
        <ele>553.52</ele>
        <time>2022-08-17T09:53:26Z</time>
      </trkpt>
      <trkpt lat="45.39775" lon="2.57067">
        <ele>553.37</ele>
        <time>2022-08-17T09:53:27Z</time>
      </trkpt>
      <trkpt lat="45.39752" lon="2.57131">
        <ele>555.45</ele>
        <time>2022-08-17T09:53:30Z</time>
      </trkpt>
      <trkpt lat="45.39747" lon="2.57155">
        <ele>556.68</ele>
        <time>2022-08-17T09:53:31Z</time>
      </trkpt>
      <trkpt lat="45.39745" lon="2.57181">
        <ele>558.37</ele>
        <time>2022-08-17T09:53:32Z</time>
      </trkpt>
      <trkpt lat="45.39743" lon="2.57236">
        <ele>561.48</ele>
        <time>2022-08-17T09:53:34Z</time>
      </trkpt>
      <trkpt lat="45.39737" lon="2.57289">
        <ele>563.64</ele>
        <time>2022-08-17T09:53:36Z</time>
      </trkpt>
      <trkpt lat="45.39732" lon="2.57313">
        <ele>563.69</ele>
        <time>2022-08-17T09:53:37Z</time>
      </trkpt>
      <trkpt lat="45.39713" lon="2.57387">
        <ele>565.53</ele>
        <time>2022-08-17T09:53:41Z</time>
      </trkpt>
      <trkpt lat="45.39713" lon="2.57404">
        <ele>565.43</ele>
        <time>2022-08-17T09:53:42Z</time>
      </trkpt>
      <trkpt lat="45.39716" lon="2.57421">
        <ele>567.13</ele>
        <time>2022-08-17T09:53:43Z</time>
      </trkpt>
      <trkpt lat="45.39724" lon="2.57456">
        <ele>569.23</ele>
        <time>2022-08-17T09:53:45Z</time>
      </trkpt>
      <trkpt lat="45.39726" lon="2.57474">
        <ele>569.11</ele>
        <time>2022-08-17T09:53:46Z</time>
      </trkpt>
      <trkpt lat="45.39724" lon="2.57491">
        <ele>570.59</ele>
        <time>2022-08-17T09:53:47Z</time>
      </trkpt>
      <trkpt lat="45.39717" lon="2.57506">
        <ele>570.66</ele>
        <time>2022-08-17T09:53:48Z</time>
      </trkpt>
      <trkpt lat="45.39708" lon="2.57519">
        <ele>571.96</ele>
        <time>2022-08-17T09:53:49Z</time>
      </trkpt>
      <trkpt lat="45.39696" lon="2.5753">
        <ele>573.17</ele>
        <time>2022-08-17T09:53:50Z</time>
      </trkpt>
      <trkpt lat="45.39683" lon="2.57543">
        <ele>574.43</ele>
        <time>2022-08-17T09:53:51Z</time>
      </trkpt>
      <trkpt lat="45.39672" lon="2.5756">
        <ele>575.75</ele>
        <time>2022-08-17T09:53:52Z</time>
      </trkpt>
      <trkpt lat="45.39661" lon="2.57581">
        <ele>578.03</ele>
        <time>2022-08-17T09:53:53Z</time>
      </trkpt>
      <trkpt lat="45.3965" lon="2.57605">
        <ele>580.24</ele>
        <time>2022-08-17T09:53:54Z</time>
      </trkpt>
      <trkpt lat="45.39638" lon="2.5763">
        <ele>582.82</ele>
        <time>2022-08-17T09:53:55Z</time>
      </trkpt>
      <trkpt lat="45.39596" lon="2.57696">
        <ele>585.56</ele>
        <time>2022-08-17T09:53:58Z</time>
      </trkpt>
      <trkpt lat="45.39549" lon="2.57765">
        <ele>588.75</ele>
        <time>2022-08-17T09:54:02Z</time>
      </trkpt>
      <trkpt lat="45.39539" lon="2.57786">
        <ele>590.95</ele>
        <time>2022-08-17T09:54:03Z</time>
      </trkpt>
      <trkpt lat="45.39529" lon="2.5781">
        <ele>591.93</ele>
        <time>2022-08-17T09:54:04Z</time>
      </trkpt>
      <trkpt lat="45.39496" lon="2.579">
        <ele>596.13</ele>
        <time>2022-08-17T09:54:08Z</time>
      </trkpt>
      <trkpt lat="45.39491" lon="2.57922">
        <ele>597.09</ele>
        <time>2022-08-17T09:54:09Z</time>
      </trkpt>
      <trkpt lat="45.39487" lon="2.57945">
        <ele>597.95</ele>
        <time>2022-08-17T09:54:10Z</time>
      </trkpt>
      <trkpt lat="45.39484" lon="2.57966">
        <ele>597.97</ele>
        <time>2022-08-17T09:54:11Z</time>
      </trkpt>
      <trkpt lat="45.39479" lon="2.58004">
        <ele>599.56</ele>
        <time>2022-08-17T09:54:13Z</time>
      </trkpt>
      <trkpt lat="45.39477" lon="2.5802">
        <ele>599.53</ele>
        <time>2022-08-17T09:54:14Z</time>
      </trkpt>
      <trkpt lat="45.39477" lon="2.58036">
        <ele>599.68</ele>
        <time>2022-08-17T09:54:15Z</time>
      </trkpt>
      <trkpt lat="45.3948" lon="2.58051">
        <ele>601.34</ele>
        <time>2022-08-17T09:54:16Z</time>
      </trkpt>
      <trkpt lat="45.39485" lon="2.58064">
        <ele>602.37</ele>
        <time>2022-08-17T09:54:17Z</time>
      </trkpt>
      <trkpt lat="45.39494" lon="2.58074">
        <ele>602.27</ele>
        <time>2022-08-17T09:54:18Z</time>
      </trkpt>
      <trkpt lat="45.39503" lon="2.58083">
        <ele>603.34</ele>
        <time>2022-08-17T09:54:19Z</time>
      </trkpt>
      <trkpt lat="45.39513" lon="2.58092">
        <ele>604.61</ele>
        <time>2022-08-17T09:54:20Z</time>
      </trkpt>
      <trkpt lat="45.39522" lon="2.58103">
        <ele>604.63</ele>
        <time>2022-08-17T09:54:21Z</time>
      </trkpt>
      <trkpt lat="45.39529" lon="2.58116">
        <ele>605.59</ele>
        <time>2022-08-17T09:54:22Z</time>
      </trkpt>
      <trkpt lat="45.39532" lon="2.5813">
        <ele>606.35</ele>
        <time>2022-08-17T09:54:23Z</time>
      </trkpt>
      <trkpt lat="45.39531" lon="2.58145">
        <ele>607.12</ele>
        <time>2022-08-17T09:54:24Z</time>
      </trkpt>
      <trkpt lat="45.39526" lon="2.58159">
        <ele>608.28</ele>
        <time>2022-08-17T09:54:25Z</time>
      </trkpt>
      <trkpt lat="45.39518" lon="2.58173">
        <ele>609.71</ele>
        <time>2022-08-17T09:54:26Z</time>
      </trkpt>
      <trkpt lat="45.39508" lon="2.58187">
        <ele>611.45</ele>
        <time>2022-08-17T09:54:27Z</time>
      </trkpt>
      <trkpt lat="45.39499" lon="2.58204">
        <ele>612.6</ele>
        <time>2022-08-17T09:54:28Z</time>
      </trkpt>
      <trkpt lat="45.39491" lon="2.58222">
        <ele>613.46</ele>
        <time>2022-08-17T09:54:29Z</time>
      </trkpt>
      <trkpt lat="45.39486" lon="2.58241">
        <ele>613.54</ele>
        <time>2022-08-17T09:54:30Z</time>
      </trkpt>
      <trkpt lat="45.39483" lon="2.5826">
        <ele>614.89</ele>
        <time>2022-08-17T09:54:31Z</time>
      </trkpt>
      <trkpt lat="45.39481" lon="2.58279">
        <ele>614.97</ele>
        <time>2022-08-17T09:54:32Z</time>
      </trkpt>
      <trkpt lat="45.39482" lon="2.58298">
        <ele>616.44</ele>
        <time>2022-08-17T09:54:33Z</time>
      </trkpt>
      <trkpt lat="45.39485" lon="2.58316">
        <ele>617.34</ele>
        <time>2022-08-17T09:54:34Z</time>
      </trkpt>
      <trkpt lat="45.39491" lon="2.58334">
        <ele>618.45</ele>
        <time>2022-08-17T09:54:35Z</time>
      </trkpt>
      <trkpt lat="45.395" lon="2.58352">
        <ele>619.89</ele>
        <time>2022-08-17T09:54:36Z</time>
      </trkpt>
      <trkpt lat="45.39509" lon="2.58371">
        <ele>621.26</ele>
        <time>2022-08-17T09:54:37Z</time>
      </trkpt>
      <trkpt lat="45.39517" lon="2.58392">
        <ele>622.51</ele>
        <time>2022-08-17T09:54:38Z</time>
      </trkpt>
      <trkpt lat="45.39523" lon="2.58414">
        <ele>623.83</ele>
        <time>2022-08-17T09:54:39Z</time>
      </trkpt>
      <trkpt lat="45.39538" lon="2.5848">
        <ele>626.25</ele>
        <time>2022-08-17T09:54:42Z</time>
      </trkpt>
      <trkpt lat="45.3955" lon="2.58519">
        <ele>629.03</ele>
        <time>2022-08-17T09:54:44Z</time>
      </trkpt>
      <trkpt lat="45.39558" lon="2.58538">
        <ele>630.22</ele>
        <time>2022-08-17T09:54:45Z</time>
      </trkpt>
      <trkpt lat="45.39568" lon="2.58556">
        <ele>631.3</ele>
        <time>2022-08-17T09:54:46Z</time>
      </trkpt>
      <trkpt lat="45.39579" lon="2.58573">
        <ele>632.72</ele>
        <time>2022-08-17T09:54:47Z</time>
      </trkpt>
      <trkpt lat="45.39589" lon="2.58588">
        <ele>632.83</ele>
        <time>2022-08-17T09:54:48Z</time>
      </trkpt>
      <trkpt lat="45.39616" lon="2.58635">
        <ele>636.53</ele>
        <time>2022-08-17T09:54:51Z</time>
      </trkpt>
      <trkpt lat="45.39623" lon="2.58653">
        <ele>637.56</ele>
        <time>2022-08-17T09:54:52Z</time>
      </trkpt>
      <trkpt lat="45.39628" lon="2.58673">
        <ele>639.18</ele>
        <time>2022-08-17T09:54:53Z</time>
      </trkpt>
      <trkpt lat="45.39631" lon="2.58696">
        <ele>640.64</ele>
        <time>2022-08-17T09:54:54Z</time>
      </trkpt>
      <trkpt lat="45.39633" lon="2.58721">
        <ele>642.87</ele>
        <time>2022-08-17T09:54:55Z</time>
      </trkpt>
      <trkpt lat="45.39633" lon="2.58748">
        <ele>644.72</ele>
        <time>2022-08-17T09:54:56Z</time>
      </trkpt>
      <trkpt lat="45.39628" lon="2.58828">
        <ele>648.59</ele>
        <time>2022-08-17T09:54:59Z</time>
      </trkpt>
      <trkpt lat="45.39623" lon="2.58853">
        <ele>649.61</ele>
        <time>2022-08-17T09:55:00Z</time>
      </trkpt>
      <trkpt lat="45.39613" lon="2.58905">
        <ele>652.55</ele>
        <time>2022-08-17T09:55:02Z</time>
      </trkpt>
      <trkpt lat="45.39611" lon="2.58931">
        <ele>652.55</ele>
        <time>2022-08-17T09:55:03Z</time>
      </trkpt>
      <trkpt lat="45.39611" lon="2.58955">
        <ele>653.3</ele>
        <time>2022-08-17T09:55:04Z</time>
      </trkpt>
      <trkpt lat="45.39609" lon="2.59031">
        <ele>655.99</ele>
        <time>2022-08-17T09:55:08Z</time>
      </trkpt>
      <trkpt lat="45.39606" lon="2.59045">
        <ele>656.13</ele>
        <time>2022-08-17T09:55:09Z</time>
      </trkpt>
      <trkpt lat="45.39601" lon="2.59057">
        <ele>656.95</ele>
        <time>2022-08-17T09:55:10Z</time>
      </trkpt>
      <trkpt lat="45.39593" lon="2.59066">
        <ele>656.99</ele>
        <time>2022-08-17T09:55:11Z</time>
      </trkpt>
      <trkpt lat="45.39584" lon="2.5907">
        <ele>658.07</ele>
        <time>2022-08-17T09:55:12Z</time>
      </trkpt>
      <trkpt lat="45.39574" lon="2.59069">
        <ele>658.91</ele>
        <time>2022-08-17T09:55:13Z</time>
      </trkpt>
      <trkpt lat="45.39564" lon="2.59062">
        <ele>659.72</ele>
        <time>2022-08-17T09:55:14Z</time>
      </trkpt>
      <trkpt lat="45.39556" lon="2.59052">
        <ele>660.89</ele>
        <time>2022-08-17T09:55:15Z</time>
      </trkpt>
      <trkpt lat="45.39551" lon="2.59037">
        <ele>661.71</ele>
        <time>2022-08-17T09:55:16Z</time>
      </trkpt>
      <trkpt lat="45.39549" lon="2.59018">
        <ele>663.54</ele>
        <time>2022-08-17T09:55:17Z</time>
      </trkpt>
      <trkpt lat="45.39548" lon="2.58997">
        <ele>664.8</ele>
        <time>2022-08-17T09:55:18Z</time>
      </trkpt>
      <trkpt lat="45.39547" lon="2.58953">
        <ele>666.05</ele>
        <time>2022-08-17T09:55:20Z</time>
      </trkpt>
      <trkpt lat="45.39542" lon="2.58913">
        <ele>667.4</ele>
        <time>2022-08-17T09:55:22Z</time>
      </trkpt>
      <trkpt lat="45.39536" lon="2.58893">
        <ele>668.9</ele>
        <time>2022-08-17T09:55:23Z</time>
      </trkpt>
      <trkpt lat="45.39527" lon="2.58875">
        <ele>669</ele>
        <time>2022-08-17T09:55:24Z</time>
      </trkpt>
      <trkpt lat="45.39515" lon="2.58858">
        <ele>670.68</ele>
        <time>2022-08-17T09:55:25Z</time>
      </trkpt>
      <trkpt lat="45.39503" lon="2.58842">
        <ele>671.78</ele>
        <time>2022-08-17T09:55:26Z</time>
      </trkpt>
      <trkpt lat="45.39491" lon="2.58827">
        <ele>671.75</ele>
        <time>2022-08-17T09:55:27Z</time>
      </trkpt>
      <trkpt lat="45.39477" lon="2.58813">
        <ele>672.67</ele>
        <time>2022-08-17T09:55:28Z</time>
      </trkpt>
      <trkpt lat="45.39461" lon="2.58802">
        <ele>672.77</ele>
        <time>2022-08-17T09:55:29Z</time>
      </trkpt>
      <trkpt lat="45.39388" lon="2.58753">
        <ele>673.55</ele>
        <time>2022-08-17T09:55:35Z</time>
      </trkpt>
      <trkpt lat="45.39373" lon="2.58744">
        <ele>673.45</ele>
        <time>2022-08-17T09:55:37Z</time>
      </trkpt>
      <trkpt lat="45.39367" lon="2.58746">
        <ele>673.41</ele>
        <time>2022-08-17T09:55:38Z</time>
      </trkpt>
      <trkpt lat="45.39361" lon="2.58753">
        <ele>673.18</ele>
        <time>2022-08-17T09:55:39Z</time>
      </trkpt>
      <trkpt lat="45.39357" lon="2.58763">
        <ele>673.15</ele>
        <time>2022-08-17T09:55:40Z</time>
      </trkpt>
      <trkpt lat="45.39354" lon="2.58772">
        <ele>674.2</ele>
        <time>2022-08-17T09:55:41Z</time>
      </trkpt>
      <trkpt lat="45.39354" lon="2.5878">
        <ele>675.01</ele>
        <time>2022-08-17T09:55:42Z</time>
      </trkpt>
      <trkpt lat="45.39357" lon="2.58788">
        <ele>675.04</ele>
        <time>2022-08-17T09:55:43Z</time>
      </trkpt>
      <trkpt lat="45.39362" lon="2.58795">
        <ele>676.48</ele>
        <time>2022-08-17T09:55:44Z</time>
      </trkpt>
      <trkpt lat="45.3937" lon="2.58803">
        <ele>677.84</ele>
        <time>2022-08-17T09:55:45Z</time>
      </trkpt>
      <trkpt lat="45.3938" lon="2.5881">
        <ele>679.11</ele>
        <time>2022-08-17T09:55:46Z</time>
      </trkpt>
      <trkpt lat="45.39394" lon="2.58818">
        <ele>680.15</ele>
        <time>2022-08-17T09:55:47Z</time>
      </trkpt>
      <trkpt lat="45.39408" lon="2.58826">
        <ele>682.38</ele>
        <time>2022-08-17T09:55:48Z</time>
      </trkpt>
      <trkpt lat="45.39422" lon="2.58833">
        <ele>682.42</ele>
        <time>2022-08-17T09:55:49Z</time>
      </trkpt>
      <trkpt lat="45.39448" lon="2.58851">
        <ele>683.79</ele>
        <time>2022-08-17T09:55:51Z</time>
      </trkpt>
      <trkpt lat="45.39457" lon="2.58864">
        <ele>685.12</ele>
        <time>2022-08-17T09:55:52Z</time>
      </trkpt>
      <trkpt lat="45.39463" lon="2.58881">
        <ele>685.14</ele>
        <time>2022-08-17T09:55:53Z</time>
      </trkpt>
      <trkpt lat="45.39466" lon="2.58899">
        <ele>687.02</ele>
        <time>2022-08-17T09:55:54Z</time>
      </trkpt>
      <trkpt lat="45.39464" lon="2.5892">
        <ele>688.24</ele>
        <time>2022-08-17T09:55:55Z</time>
      </trkpt>
      <trkpt lat="45.3946" lon="2.58941">
        <ele>690.19</ele>
        <time>2022-08-17T09:55:56Z</time>
      </trkpt>
      <trkpt lat="45.39454" lon="2.58966">
        <ele>692.21</ele>
        <time>2022-08-17T09:55:57Z</time>
      </trkpt>
      <trkpt lat="45.39444" lon="2.59014">
        <ele>695.37</ele>
        <time>2022-08-17T09:55:59Z</time>
      </trkpt>
      <trkpt lat="45.39441" lon="2.59037">
        <ele>696.21</ele>
        <time>2022-08-17T09:56:00Z</time>
      </trkpt>
      <trkpt lat="45.39441" lon="2.5906">
        <ele>697.58</ele>
        <time>2022-08-17T09:56:01Z</time>
      </trkpt>
      <trkpt lat="45.39443" lon="2.59083">
        <ele>698.73</ele>
        <time>2022-08-17T09:56:02Z</time>
      </trkpt>
      <trkpt lat="45.39448" lon="2.59105">
        <ele>699.77</ele>
        <time>2022-08-17T09:56:03Z</time>
      </trkpt>
      <trkpt lat="45.39455" lon="2.59127">
        <ele>700.92</ele>
        <time>2022-08-17T09:56:04Z</time>
      </trkpt>
      <trkpt lat="45.39464" lon="2.59146">
        <ele>701.84</ele>
        <time>2022-08-17T09:56:05Z</time>
      </trkpt>
      <trkpt lat="45.39474" lon="2.59162">
        <ele>701.96</ele>
        <time>2022-08-17T09:56:06Z</time>
      </trkpt>
      <trkpt lat="45.39485" lon="2.59176">
        <ele>703.51</ele>
        <time>2022-08-17T09:56:07Z</time>
      </trkpt>
      <trkpt lat="45.39499" lon="2.59189">
        <ele>705.73</ele>
        <time>2022-08-17T09:56:08Z</time>
      </trkpt>
      <trkpt lat="45.39515" lon="2.59202">
        <ele>707.59</ele>
        <time>2022-08-17T09:56:09Z</time>
      </trkpt>
      <trkpt lat="45.39547" lon="2.59227">
        <ele>709.81</ele>
        <time>2022-08-17T09:56:11Z</time>
      </trkpt>
      <trkpt lat="45.39561" lon="2.59239">
        <ele>710.91</ele>
        <time>2022-08-17T09:56:12Z</time>
      </trkpt>
      <trkpt lat="45.39574" lon="2.59252">
        <ele>711.9</ele>
        <time>2022-08-17T09:56:13Z</time>
      </trkpt>
      <trkpt lat="45.3961" lon="2.59301">
        <ele>715.67</ele>
        <time>2022-08-17T09:56:16Z</time>
      </trkpt>
      <trkpt lat="45.39622" lon="2.59323">
        <ele>717.63</ele>
        <time>2022-08-17T09:56:17Z</time>
      </trkpt>
      <trkpt lat="45.39632" lon="2.59348">
        <ele>719.63</ele>
        <time>2022-08-17T09:56:18Z</time>
      </trkpt>
      <trkpt lat="45.39652" lon="2.59401">
        <ele>723.36</ele>
        <time>2022-08-17T09:56:20Z</time>
      </trkpt>
      <trkpt lat="45.3967" lon="2.59446">
        <ele>724.59</ele>
        <time>2022-08-17T09:56:22Z</time>
      </trkpt>
      <trkpt lat="45.39691" lon="2.59485">
        <ele>727.47</ele>
        <time>2022-08-17T09:56:24Z</time>
      </trkpt>
      <trkpt lat="45.39704" lon="2.59501">
        <ele>728.57</ele>
        <time>2022-08-17T09:56:25Z</time>
      </trkpt>
      <trkpt lat="45.39718" lon="2.59514">
        <ele>730.11</ele>
        <time>2022-08-17T09:56:26Z</time>
      </trkpt>
      <trkpt lat="45.39734" lon="2.59525">
        <ele>731.1</ele>
        <time>2022-08-17T09:56:27Z</time>
      </trkpt>
      <trkpt lat="45.39751" lon="2.59532">
        <ele>732.34</ele>
        <time>2022-08-17T09:56:28Z</time>
      </trkpt>
      <trkpt lat="45.39767" lon="2.5954">
        <ele>733.21</ele>
        <time>2022-08-17T09:56:29Z</time>
      </trkpt>
      <trkpt lat="45.39782" lon="2.59549">
        <ele>734.58</ele>
        <time>2022-08-17T09:56:30Z</time>
      </trkpt>
      <trkpt lat="45.39796" lon="2.59561">
        <ele>735.61</ele>
        <time>2022-08-17T09:56:31Z</time>
      </trkpt>
      <trkpt lat="45.39809" lon="2.59576">
        <ele>737.42</ele>
        <time>2022-08-17T09:56:32Z</time>
      </trkpt>
      <trkpt lat="45.3982" lon="2.59594">
        <ele>737.57</ele>
        <time>2022-08-17T09:56:33Z</time>
      </trkpt>
      <trkpt lat="45.39828" lon="2.59612">
        <ele>739.49</ele>
        <time>2022-08-17T09:56:34Z</time>
      </trkpt>
      <trkpt lat="45.39834" lon="2.59632">
        <ele>740.81</ele>
        <time>2022-08-17T09:56:35Z</time>
      </trkpt>
      <trkpt lat="45.39839" lon="2.59652">
        <ele>742.3</ele>
        <time>2022-08-17T09:56:36Z</time>
      </trkpt>
      <trkpt lat="45.39841" lon="2.59675">
        <ele>744.06</ele>
        <time>2022-08-17T09:56:37Z</time>
      </trkpt>
      <trkpt lat="45.39842" lon="2.59699">
        <ele>745.6</ele>
        <time>2022-08-17T09:56:38Z</time>
      </trkpt>
      <trkpt lat="45.3984" lon="2.59724">
        <ele>747.66</ele>
        <time>2022-08-17T09:56:39Z</time>
      </trkpt>
      <trkpt lat="45.39837" lon="2.5979">
        <ele>751.3</ele>
        <time>2022-08-17T09:56:42Z</time>
      </trkpt>
      <trkpt lat="45.39838" lon="2.59808">
        <ele>751.44</ele>
        <time>2022-08-17T09:56:43Z</time>
      </trkpt>
      <trkpt lat="45.3984" lon="2.59824">
        <ele>752.28</ele>
        <time>2022-08-17T09:56:44Z</time>
      </trkpt>
      <trkpt lat="45.39843" lon="2.59839">
        <ele>752.4</ele>
        <time>2022-08-17T09:56:45Z</time>
      </trkpt>
      <trkpt lat="45.39847" lon="2.59854">
        <ele>752.4</ele>
        <time>2022-08-17T09:56:46Z</time>
      </trkpt>
      <trkpt lat="45.39851" lon="2.5987">
        <ele>754.22</ele>
        <time>2022-08-17T09:56:47Z</time>
      </trkpt>
      <trkpt lat="45.39857" lon="2.59886">
        <ele>754.15</ele>
        <time>2022-08-17T09:56:48Z</time>
      </trkpt>
      <trkpt lat="45.39901" lon="2.60076">
        <ele>754.99</ele>
        <time>2022-08-17T09:56:58Z</time>
      </trkpt>
      <trkpt lat="45.39929" lon="2.60414">
        <ele>754.95</ele>
        <time>2022-08-17T09:57:14Z</time>
      </trkpt>
      <trkpt lat="45.3993" lon="2.60456">
        <ele>754.95</ele>
        <time>2022-08-17T09:57:16Z</time>
      </trkpt>
      <trkpt lat="45.39933" lon="2.60477">
        <ele>754.93</ele>
        <time>2022-08-17T09:57:17Z</time>
      </trkpt>
      <trkpt lat="45.39939" lon="2.60497">
        <ele>752.08</ele>
        <time>2022-08-17T09:57:18Z</time>
      </trkpt>
      <trkpt lat="45.39946" lon="2.60517">
        <ele>752.11</ele>
        <time>2022-08-17T09:57:19Z</time>
      </trkpt>
      <trkpt lat="45.39954" lon="2.60535">
        <ele>750.46</ele>
        <time>2022-08-17T09:57:20Z</time>
      </trkpt>
      <trkpt lat="45.39975" lon="2.60588">
        <ele>747.35</ele>
        <time>2022-08-17T09:57:23Z</time>
      </trkpt>
      <trkpt lat="45.39987" lon="2.60622">
        <ele>745.63</ele>
        <time>2022-08-17T09:57:25Z</time>
      </trkpt>
      <trkpt lat="45.4001" lon="2.60692">
        <ele>744.62</ele>
        <time>2022-08-17T09:57:30Z</time>
      </trkpt>
      <trkpt lat="45.40012" lon="2.60705">
        <ele>744.55</ele>
        <time>2022-08-17T09:57:31Z</time>
      </trkpt>
      <trkpt lat="45.40013" lon="2.60735">
        <ele>744.58</ele>
        <time>2022-08-17T09:57:33Z</time>
      </trkpt>
      <trkpt lat="45.40012" lon="2.60751">
        <ele>744.58</ele>
        <time>2022-08-17T09:57:34Z</time>
      </trkpt>
      <trkpt lat="45.40009" lon="2.60769">
        <ele>744.58</ele>
        <time>2022-08-17T09:57:35Z</time>
      </trkpt>
      <trkpt lat="45.40005" lon="2.60787">
        <ele>744.61</ele>
        <time>2022-08-17T09:57:36Z</time>
      </trkpt>
      <trkpt lat="45.39999" lon="2.60806">
        <ele>744.61</ele>
        <time>2022-08-17T09:57:37Z</time>
      </trkpt>
      <trkpt lat="45.39993" lon="2.60826">
        <ele>744.66</ele>
        <time>2022-08-17T09:57:38Z</time>
      </trkpt>
      <trkpt lat="45.39938" lon="2.61011">
        <ele>742.73</ele>
        <time>2022-08-17T09:57:47Z</time>
      </trkpt>
      <trkpt lat="45.39931" lon="2.6104">
        <ele>747.49</ele>
        <time>2022-08-17T09:57:48Z</time>
      </trkpt>
      <trkpt lat="45.39915" lon="2.61103">
        <ele>750.57</ele>
        <time>2022-08-17T09:57:50Z</time>
      </trkpt>
      <trkpt lat="45.39907" lon="2.61135">
        <ele>750.58</ele>
        <time>2022-08-17T09:57:51Z</time>
      </trkpt>
      <trkpt lat="45.39869" lon="2.61287">
        <ele>753.69</ele>
        <time>2022-08-17T09:57:57Z</time>
      </trkpt>
      <trkpt lat="45.39856" lon="2.61327">
        <ele>756.18</ele>
        <time>2022-08-17T09:57:59Z</time>
      </trkpt>
      <trkpt lat="45.39848" lon="2.61347">
        <ele>757.41</ele>
        <time>2022-08-17T09:58:00Z</time>
      </trkpt>
      <trkpt lat="45.39837" lon="2.61367">
        <ele>757.44</ele>
        <time>2022-08-17T09:58:01Z</time>
      </trkpt>
      <trkpt lat="45.39813" lon="2.61407">
        <ele>761.63</ele>
        <time>2022-08-17T09:58:03Z</time>
      </trkpt>
      <trkpt lat="45.39791" lon="2.61444">
        <ele>762.52</ele>
        <time>2022-08-17T09:58:05Z</time>
      </trkpt>
      <trkpt lat="45.39773" lon="2.61485">
        <ele>764.22</ele>
        <time>2022-08-17T09:58:07Z</time>
      </trkpt>
      <trkpt lat="45.39767" lon="2.6151">
        <ele>765.77</ele>
        <time>2022-08-17T09:58:08Z</time>
      </trkpt>
      <trkpt lat="45.39764" lon="2.61538">
        <ele>767.6</ele>
        <time>2022-08-17T09:58:09Z</time>
      </trkpt>
      <trkpt lat="45.39763" lon="2.61565">
        <ele>767.51</ele>
        <time>2022-08-17T09:58:10Z</time>
      </trkpt>
      <trkpt lat="45.39742" lon="2.61699">
        <ele>770.6</ele>
        <time>2022-08-17T09:58:15Z</time>
      </trkpt>
      <trkpt lat="45.39721" lon="2.61789">
        <ele>772.44</ele>
        <time>2022-08-17T09:58:18Z</time>
      </trkpt>
      <trkpt lat="45.39667" lon="2.62004">
        <ele>772.49</ele>
        <time>2022-08-17T09:58:26Z</time>
      </trkpt>
      <trkpt lat="45.39625" lon="2.62139">
        <ele>772.34</ele>
        <time>2022-08-17T09:58:33Z</time>
      </trkpt>
      <trkpt lat="45.39615" lon="2.62171">
        <ele>769.77</ele>
        <time>2022-08-17T09:58:36Z</time>
      </trkpt>
      <trkpt lat="45.39603" lon="2.62223">
        <ele>772.77</ele>
        <time>2022-08-17T09:58:40Z</time>
      </trkpt>
      <trkpt lat="45.39599" lon="2.62239">
        <ele>772.77</ele>
        <time>2022-08-17T09:58:41Z</time>
      </trkpt>
      <trkpt lat="45.39579" lon="2.62316">
        <ele>775.61</ele>
        <time>2022-08-17T09:58:45Z</time>
      </trkpt>
      <trkpt lat="45.39565" lon="2.62356">
        <ele>777.14</ele>
        <time>2022-08-17T09:58:47Z</time>
      </trkpt>
      <trkpt lat="45.39525" lon="2.62538">
        <ele>780.58</ele>
        <time>2022-08-17T09:58:55Z</time>
      </trkpt>
      <trkpt lat="45.39507" lon="2.62629">
        <ele>784.35</ele>
        <time>2022-08-17T09:58:58Z</time>
      </trkpt>
      <trkpt lat="45.39496" lon="2.62681">
        <ele>785.37</ele>
        <time>2022-08-17T09:59:00Z</time>
      </trkpt>
      <trkpt lat="45.39492" lon="2.6273">
        <ele>787.75</ele>
        <time>2022-08-17T09:59:02Z</time>
      </trkpt>
      <trkpt lat="45.39493" lon="2.62757">
        <ele>789.77</ele>
        <time>2022-08-17T09:59:03Z</time>
      </trkpt>
      <trkpt lat="45.39498" lon="2.62785">
        <ele>791.32</ele>
        <time>2022-08-17T09:59:04Z</time>
      </trkpt>
      <trkpt lat="45.39508" lon="2.62843">
        <ele>793.09</ele>
        <time>2022-08-17T09:59:06Z</time>
      </trkpt>
      <trkpt lat="45.39523" lon="2.62945">
        <ele>795.76</ele>
        <time>2022-08-17T09:59:10Z</time>
      </trkpt>
      <trkpt lat="45.39522" lon="2.62969">
        <ele>795.88</ele>
        <time>2022-08-17T09:59:11Z</time>
      </trkpt>
      <trkpt lat="45.39517" lon="2.62993">
        <ele>797.22</ele>
        <time>2022-08-17T09:59:12Z</time>
      </trkpt>
      <trkpt lat="45.39508" lon="2.63016">
        <ele>798.24</ele>
        <time>2022-08-17T09:59:13Z</time>
      </trkpt>
      <trkpt lat="45.39496" lon="2.63037">
        <ele>799.52</ele>
        <time>2022-08-17T09:59:14Z</time>
      </trkpt>
      <trkpt lat="45.39483" lon="2.63056">
        <ele>801.08</ele>
        <time>2022-08-17T09:59:15Z</time>
      </trkpt>
      <trkpt lat="45.39469" lon="2.63074">
        <ele>801.08</ele>
        <time>2022-08-17T09:59:16Z</time>
      </trkpt>
      <trkpt lat="45.39445" lon="2.63104">
        <ele>802.89</ele>
        <time>2022-08-17T09:59:18Z</time>
      </trkpt>
      <trkpt lat="45.39411" lon="2.63149">
        <ele>803.75</ele>
        <time>2022-08-17T09:59:21Z</time>
      </trkpt>
      <trkpt lat="45.39404" lon="2.63168">
        <ele>803.65</ele>
        <time>2022-08-17T09:59:22Z</time>
      </trkpt>
      <trkpt lat="45.39399" lon="2.63191">
        <ele>805.77</ele>
        <time>2022-08-17T09:59:23Z</time>
      </trkpt>
      <trkpt lat="45.39398" lon="2.63215">
        <ele>806.9</ele>
        <time>2022-08-17T09:59:24Z</time>
      </trkpt>
      <trkpt lat="45.39401" lon="2.6324">
        <ele>807.81</ele>
        <time>2022-08-17T09:59:25Z</time>
      </trkpt>
      <trkpt lat="45.39409" lon="2.63264">
        <ele>809.28</ele>
        <time>2022-08-17T09:59:26Z</time>
      </trkpt>
      <trkpt lat="45.39421" lon="2.63285">
        <ele>811.57</ele>
        <time>2022-08-17T09:59:27Z</time>
      </trkpt>
      <trkpt lat="45.39437" lon="2.63304">
        <ele>813.24</ele>
        <time>2022-08-17T09:59:28Z</time>
      </trkpt>
      <trkpt lat="45.39453" lon="2.63322">
        <ele>813.33</ele>
        <time>2022-08-17T09:59:29Z</time>
      </trkpt>
      <trkpt lat="45.39497" lon="2.63367">
        <ele>814.97</ele>
        <time>2022-08-17T09:59:32Z</time>
      </trkpt>
      <trkpt lat="45.39513" lon="2.63379">
        <ele>816.25</ele>
        <time>2022-08-17T09:59:33Z</time>
      </trkpt>
      <trkpt lat="45.39531" lon="2.63387">
        <ele>817.5</ele>
        <time>2022-08-17T09:59:34Z</time>
      </trkpt>
      <trkpt lat="45.39549" lon="2.63395">
        <ele>817.48</ele>
        <time>2022-08-17T09:59:35Z</time>
      </trkpt>
      <trkpt lat="45.39597" lon="2.63419">
        <ele>819.67</ele>
        <time>2022-08-17T09:59:38Z</time>
      </trkpt>
      <trkpt lat="45.39611" lon="2.63433">
        <ele>819.67</ele>
        <time>2022-08-17T09:59:39Z</time>
      </trkpt>
      <trkpt lat="45.39623" lon="2.63449">
        <ele>820.51</ele>
        <time>2022-08-17T09:59:40Z</time>
      </trkpt>
      <trkpt lat="45.39633" lon="2.63468">
        <ele>820.56</ele>
        <time>2022-08-17T09:59:41Z</time>
      </trkpt>
      <trkpt lat="45.3964" lon="2.6349">
        <ele>821.77</ele>
        <time>2022-08-17T09:59:42Z</time>
      </trkpt>
      <trkpt lat="45.39645" lon="2.63513">
        <ele>821.81</ele>
        <time>2022-08-17T09:59:43Z</time>
      </trkpt>
      <trkpt lat="45.39646" lon="2.63538">
        <ele>822.67</ele>
        <time>2022-08-17T09:59:44Z</time>
      </trkpt>
      <trkpt lat="45.39645" lon="2.63564">
        <ele>822.66</ele>
        <time>2022-08-17T09:59:45Z</time>
      </trkpt>
      <trkpt lat="45.39643" lon="2.63588">
        <ele>822.66</ele>
        <time>2022-08-17T09:59:46Z</time>
      </trkpt>
      <trkpt lat="45.39641" lon="2.63722">
        <ele>822.37</ele>
        <time>2022-08-17T09:59:53Z</time>
      </trkpt>
      <trkpt lat="45.39643" lon="2.63758">
        <ele>822.4</ele>
        <time>2022-08-17T09:59:55Z</time>
      </trkpt>
      <trkpt lat="45.39641" lon="2.63776">
        <ele>822.4</ele>
        <time>2022-08-17T09:59:56Z</time>
      </trkpt>
      <trkpt lat="45.39637" lon="2.63794">
        <ele>822.41</ele>
        <time>2022-08-17T09:59:57Z</time>
      </trkpt>
      <trkpt lat="45.3963" lon="2.63811">
        <ele>822.39</ele>
        <time>2022-08-17T09:59:58Z</time>
      </trkpt>
      <trkpt lat="45.39622" lon="2.63826">
        <ele>822.37</ele>
        <time>2022-08-17T09:59:59Z</time>
      </trkpt>
      <trkpt lat="45.39613" lon="2.63842">
        <ele>820.06</ele>
        <time>2022-08-17T10:00:00Z</time>
      </trkpt>
      <trkpt lat="45.39604" lon="2.63857">
        <ele>820.05</ele>
        <time>2022-08-17T10:00:01Z</time>
      </trkpt>
      <trkpt lat="45.39596" lon="2.63875">
        <ele>820.03</ele>
        <time>2022-08-17T10:00:02Z</time>
      </trkpt>
      <trkpt lat="45.3959" lon="2.63894">
        <ele>820.03</ele>
        <time>2022-08-17T10:00:03Z</time>
      </trkpt>
      <trkpt lat="45.39586" lon="2.63914">
        <ele>820.04</ele>
        <time>2022-08-17T10:00:04Z</time>
      </trkpt>
      <trkpt lat="45.39586" lon="2.63935">
        <ele>820.03</ele>
        <time>2022-08-17T10:00:05Z</time>
      </trkpt>
      <trkpt lat="45.39587" lon="2.63955">
        <ele>820.03</ele>
        <time>2022-08-17T10:00:06Z</time>
      </trkpt>
      <trkpt lat="45.39591" lon="2.63974">
        <ele>820.06</ele>
        <time>2022-08-17T10:00:07Z</time>
      </trkpt>
      <trkpt lat="45.39595" lon="2.63993">
        <ele>820.08</ele>
        <time>2022-08-17T10:00:08Z</time>
      </trkpt>
      <trkpt lat="45.39613" lon="2.6407">
        <ele>823.12</ele>
        <time>2022-08-17T10:00:12Z</time>
      </trkpt>
      <trkpt lat="45.3963" lon="2.64129">
        <ele>825.61</ele>
        <time>2022-08-17T10:00:15Z</time>
      </trkpt>
      <trkpt lat="45.39644" lon="2.64168">
        <ele>828.92</ele>
        <time>2022-08-17T10:00:17Z</time>
      </trkpt>
      <trkpt lat="45.39653" lon="2.64186">
        <ele>828.92</ele>
        <time>2022-08-17T10:00:18Z</time>
      </trkpt>
      <trkpt lat="45.39666" lon="2.64201">
        <ele>831.06</ele>
        <time>2022-08-17T10:00:19Z</time>
      </trkpt>
      <trkpt lat="45.39682" lon="2.64214">
        <ele>832.63</ele>
        <time>2022-08-17T10:00:20Z</time>
      </trkpt>
      <trkpt lat="45.397" lon="2.64225">
        <ele>832.63</ele>
        <time>2022-08-17T10:00:21Z</time>
      </trkpt>
      <trkpt lat="45.39745" lon="2.64253">
        <ele>834.23</ele>
        <time>2022-08-17T10:00:24Z</time>
      </trkpt>
      <trkpt lat="45.39758" lon="2.64266">
        <ele>834.3</ele>
        <time>2022-08-17T10:00:25Z</time>
      </trkpt>
      <trkpt lat="45.3977" lon="2.64281">
        <ele>835.15</ele>
        <time>2022-08-17T10:00:26Z</time>
      </trkpt>
      <trkpt lat="45.3978" lon="2.64301">
        <ele>835.15</ele>
        <time>2022-08-17T10:00:27Z</time>
      </trkpt>
      <trkpt lat="45.39787" lon="2.64323">
        <ele>836.1</ele>
        <time>2022-08-17T10:00:28Z</time>
      </trkpt>
      <trkpt lat="45.39793" lon="2.64349">
        <ele>837.37</ele>
        <time>2022-08-17T10:00:29Z</time>
      </trkpt>
      <trkpt lat="45.39799" lon="2.64377">
        <ele>838.67</ele>
        <time>2022-08-17T10:00:30Z</time>
      </trkpt>
      <trkpt lat="45.39809" lon="2.64435">
        <ele>839.53</ele>
        <time>2022-08-17T10:00:32Z</time>
      </trkpt>
      <trkpt lat="45.39835" lon="2.64592">
        <ele>837.01</ele>
        <time>2022-08-17T10:00:39Z</time>
      </trkpt>
      <trkpt lat="45.39836" lon="2.6461">
        <ele>836.96</ele>
        <time>2022-08-17T10:00:40Z</time>
      </trkpt>
      <trkpt lat="45.39836" lon="2.64627">
        <ele>836.96</ele>
        <time>2022-08-17T10:00:41Z</time>
      </trkpt>
      <trkpt lat="45.39835" lon="2.64644">
        <ele>836.92</ele>
        <time>2022-08-17T10:00:42Z</time>
      </trkpt>
      <trkpt lat="45.39832" lon="2.64697">
        <ele>836.92</ele>
        <time>2022-08-17T10:00:45Z</time>
      </trkpt>
      <trkpt lat="45.39834" lon="2.64713">
        <ele>836.83</ele>
        <time>2022-08-17T10:00:46Z</time>
      </trkpt>
      <trkpt lat="45.39838" lon="2.64728">
        <ele>836.79</ele>
        <time>2022-08-17T10:00:47Z</time>
      </trkpt>
      <trkpt lat="45.39843" lon="2.64743">
        <ele>836.75</ele>
        <time>2022-08-17T10:00:48Z</time>
      </trkpt>
      <trkpt lat="45.3985" lon="2.64757">
        <ele>836.73</ele>
        <time>2022-08-17T10:00:49Z</time>
      </trkpt>
      <trkpt lat="45.39859" lon="2.64769">
        <ele>836.72</ele>
        <time>2022-08-17T10:00:50Z</time>
      </trkpt>
      <trkpt lat="45.3987" lon="2.6478">
        <ele>836.96</ele>
        <time>2022-08-17T10:00:51Z</time>
      </trkpt>
      <trkpt lat="45.39881" lon="2.64791">
        <ele>836.96</ele>
        <time>2022-08-17T10:00:52Z</time>
      </trkpt>
      <trkpt lat="45.39901" lon="2.64814">
        <ele>839.63</ele>
        <time>2022-08-17T10:00:54Z</time>
      </trkpt>
      <trkpt lat="45.3991" lon="2.64829">
        <ele>839.64</ele>
        <time>2022-08-17T10:00:55Z</time>
      </trkpt>
      <trkpt lat="45.39916" lon="2.64845">
        <ele>839.67</ele>
        <time>2022-08-17T10:00:56Z</time>
      </trkpt>
      <trkpt lat="45.39922" lon="2.64863">
        <ele>839.67</ele>
        <time>2022-08-17T10:00:57Z</time>
      </trkpt>
      <trkpt lat="45.39927" lon="2.64881">
        <ele>839.68</ele>
        <time>2022-08-17T10:00:58Z</time>
      </trkpt>
      <trkpt lat="45.39954" lon="2.64979">
        <ele>840.62</ele>
        <time>2022-08-17T10:01:06Z</time>
      </trkpt>
      <trkpt lat="45.39958" lon="2.64992">
        <ele>840.6</ele>
        <time>2022-08-17T10:01:08Z</time>
      </trkpt>
      <trkpt lat="45.39958" lon="2.64997">
        <ele>840.6</ele>
        <time>2022-08-17T10:01:09Z</time>
      </trkpt>
      <trkpt lat="45.39957" lon="2.65002">
        <ele>840.62</ele>
        <time>2022-08-17T10:01:10Z</time>
      </trkpt>
      <trkpt lat="45.39954" lon="2.65007">
        <ele>840.61</ele>
        <time>2022-08-17T10:01:11Z</time>
      </trkpt>
      <trkpt lat="45.3995" lon="2.65011">
        <ele>840.62</ele>
        <time>2022-08-17T10:01:12Z</time>
      </trkpt>
      <trkpt lat="45.39945" lon="2.65014">
        <ele>840.61</ele>
        <time>2022-08-17T10:01:13Z</time>
      </trkpt>
      <trkpt lat="45.39939" lon="2.65017">
        <ele>840.63</ele>
        <time>2022-08-17T10:01:14Z</time>
      </trkpt>
      <trkpt lat="45.39921" lon="2.65026">
        <ele>840.59</ele>
        <time>2022-08-17T10:01:18Z</time>
      </trkpt>
      <trkpt lat="45.39916" lon="2.65027">
        <ele>840.59</ele>
        <time>2022-08-17T10:01:19Z</time>
      </trkpt>
      <trkpt lat="45.39855" lon="2.65032">
        <ele>840.6</ele>
        <time>2022-08-17T10:01:32Z</time>
      </trkpt>
      <trkpt lat="45.39852" lon="2.6503">
        <ele>840.75</ele>
        <time>2022-08-17T10:01:46Z</time>
      </trkpt>
      <trkpt lat="45.39848" lon="2.65029">
        <ele>841.01</ele>
        <time>2022-08-17T10:02:29Z</time>
      </trkpt>
      <trkpt lat="45.39842" lon="2.65028">
        <ele>841.04</ele>
        <time>2022-08-17T10:02:30Z</time>
      </trkpt>
      <trkpt lat="45.39765" lon="2.65027">
        <ele>842.89</ele>
        <time>2022-08-17T10:02:38Z</time>
      </trkpt>
      <trkpt lat="45.39557" lon="2.65029">
        <ele>842.89</ele>
        <time>2022-08-17T10:02:56Z</time>
      </trkpt>
      <trkpt lat="45.3946" lon="2.6503">
        <ele>843</ele>
        <time>2022-08-17T10:03:05Z</time>
      </trkpt>
      <trkpt lat="45.39453" lon="2.65034">
        <ele>843</ele>
        <time>2022-08-17T10:03:06Z</time>
      </trkpt>
      <trkpt lat="45.39447" lon="2.6504">
        <ele>843.01</ele>
        <time>2022-08-17T10:03:07Z</time>
      </trkpt>
      <trkpt lat="45.39444" lon="2.65051">
        <ele>843.01</ele>
        <time>2022-08-17T10:03:08Z</time>
      </trkpt>
      <trkpt lat="45.39441" lon="2.65063">
        <ele>843.02</ele>
        <time>2022-08-17T10:03:09Z</time>
      </trkpt>
      <trkpt lat="45.39437" lon="2.65076">
        <ele>843.03</ele>
        <time>2022-08-17T10:03:10Z</time>
      </trkpt>
      <trkpt lat="45.39433" lon="2.6509">
        <ele>843.04</ele>
        <time>2022-08-17T10:03:11Z</time>
      </trkpt>
      <trkpt lat="45.39406" lon="2.65156">
        <ele>843.07</ele>
        <time>2022-08-17T10:03:17Z</time>
      </trkpt>
      <trkpt lat="45.39375" lon="2.65206">
        <ele>843.21</ele>
        <time>2022-08-17T10:03:24Z</time>
      </trkpt>
      <trkpt lat="45.39369" lon="2.65211">
        <ele>843.24</ele>
        <time>2022-08-17T10:03:25Z</time>
      </trkpt>
      <trkpt lat="45.39363" lon="2.65215">
        <ele>844.27</ele>
        <time>2022-08-17T10:03:26Z</time>
      </trkpt>
      <trkpt lat="45.39357" lon="2.65218">
        <ele>844.29</ele>
        <time>2022-08-17T10:03:27Z</time>
      </trkpt>
      <trkpt lat="45.3935" lon="2.6522">
        <ele>844.26</ele>
        <time>2022-08-17T10:03:28Z</time>
      </trkpt>
      <trkpt lat="45.39343" lon="2.65221">
        <ele>844.15</ele>
        <time>2022-08-17T10:03:29Z</time>
      </trkpt>
      <trkpt lat="45.39336" lon="2.65221">
        <ele>844.15</ele>
        <time>2022-08-17T10:03:30Z</time>
      </trkpt>
      <trkpt lat="45.39328" lon="2.6522">
        <ele>844.15</ele>
        <time>2022-08-17T10:03:31Z</time>
      </trkpt>
      <trkpt lat="45.3932" lon="2.6522">
        <ele>844.16</ele>
        <time>2022-08-17T10:03:32Z</time>
      </trkpt>
      <trkpt lat="45.39312" lon="2.65221">
        <ele>844.16</ele>
        <time>2022-08-17T10:03:33Z</time>
      </trkpt>
      <trkpt lat="45.39306" lon="2.65226">
        <ele>844.16</ele>
        <time>2022-08-17T10:03:34Z</time>
      </trkpt>
      <trkpt lat="45.393" lon="2.65232">
        <ele>844.17</ele>
        <time>2022-08-17T10:03:35Z</time>
      </trkpt>
      <trkpt lat="45.39295" lon="2.6524">
        <ele>844.18</ele>
        <time>2022-08-17T10:03:36Z</time>
      </trkpt>
      <trkpt lat="45.39291" lon="2.65249">
        <ele>844.18</ele>
        <time>2022-08-17T10:03:37Z</time>
      </trkpt>
      <trkpt lat="45.39273" lon="2.6529">
        <ele>841.66</ele>
        <time>2022-08-17T10:03:42Z</time>
      </trkpt>
      <trkpt lat="45.3926" lon="2.65314">
        <ele>841.64</ele>
        <time>2022-08-17T10:03:45Z</time>
      </trkpt>
      <trkpt lat="45.39255" lon="2.65321">
        <ele>841.62</ele>
        <time>2022-08-17T10:03:46Z</time>
      </trkpt>
      <trkpt lat="45.39248" lon="2.65328">
        <ele>841.65</ele>
        <time>2022-08-17T10:03:47Z</time>
      </trkpt>
      <trkpt lat="45.39241" lon="2.65334">
        <ele>841.62</ele>
        <time>2022-08-17T10:03:48Z</time>
      </trkpt>
      <trkpt lat="45.39233" lon="2.6534">
        <ele>841.63</ele>
        <time>2022-08-17T10:03:49Z</time>
      </trkpt>
      <trkpt lat="45.39211" lon="2.65355">
        <ele>841.7</ele>
        <time>2022-08-17T10:03:52Z</time>
      </trkpt>
      <trkpt lat="45.39204" lon="2.65358">
        <ele>841.67</ele>
        <time>2022-08-17T10:03:53Z</time>
      </trkpt>
      <trkpt lat="45.39195" lon="2.65359">
        <ele>841.74</ele>
        <time>2022-08-17T10:03:54Z</time>
      </trkpt>
      <trkpt lat="45.39186" lon="2.65357">
        <ele>841.74</ele>
        <time>2022-08-17T10:03:55Z</time>
      </trkpt>
      <trkpt lat="45.39177" lon="2.65355">
        <ele>841.74</ele>
        <time>2022-08-17T10:03:56Z</time>
      </trkpt>
      <trkpt lat="45.39099" lon="2.65346">
        <ele>841.79</ele>
        <time>2022-08-17T10:04:04Z</time>
      </trkpt>
      <trkpt lat="45.3909" lon="2.65348">
        <ele>841.79</ele>
        <time>2022-08-17T10:04:05Z</time>
      </trkpt>
      <trkpt lat="45.3908" lon="2.65351">
        <ele>841.8</ele>
        <time>2022-08-17T10:04:06Z</time>
      </trkpt>
      <trkpt lat="45.3907" lon="2.65355">
        <ele>841.8</ele>
        <time>2022-08-17T10:04:07Z</time>
      </trkpt>
      <trkpt lat="45.39061" lon="2.6536">
        <ele>841.81</ele>
        <time>2022-08-17T10:04:08Z</time>
      </trkpt>
      <trkpt lat="45.39052" lon="2.65366">
        <ele>841.81</ele>
        <time>2022-08-17T10:04:09Z</time>
      </trkpt>
      <trkpt lat="45.39043" lon="2.65373">
        <ele>841.82</ele>
        <time>2022-08-17T10:04:10Z</time>
      </trkpt>
      <trkpt lat="45.39027" lon="2.65389">
        <ele>841.83</ele>
        <time>2022-08-17T10:04:12Z</time>
      </trkpt>
      <trkpt lat="45.39021" lon="2.65398">
        <ele>841.86</ele>
        <time>2022-08-17T10:04:13Z</time>
      </trkpt>
      <trkpt lat="45.39017" lon="2.65408">
        <ele>844.97</ele>
        <time>2022-08-17T10:04:14Z</time>
      </trkpt>
      <trkpt lat="45.39013" lon="2.65419">
        <ele>844.94</ele>
        <time>2022-08-17T10:04:15Z</time>
      </trkpt>
      <trkpt lat="45.39004" lon="2.65439">
        <ele>845.97</ele>
        <time>2022-08-17T10:04:17Z</time>
      </trkpt>
      <trkpt lat="45.38999" lon="2.65449">
        <ele>846.01</ele>
        <time>2022-08-17T10:04:18Z</time>
      </trkpt>
      <trkpt lat="45.38993" lon="2.65458">
        <ele>848.08</ele>
        <time>2022-08-17T10:04:19Z</time>
      </trkpt>
      <trkpt lat="45.38987" lon="2.65468">
        <ele>848.07</ele>
        <time>2022-08-17T10:04:20Z</time>
      </trkpt>
      <trkpt lat="45.38924" lon="2.65543">
        <ele>848.98</ele>
        <time>2022-08-17T10:04:28Z</time>
      </trkpt>
      <trkpt lat="45.38915" lon="2.65548">
        <ele>849</ele>
        <time>2022-08-17T10:04:29Z</time>
      </trkpt>
      <trkpt lat="45.38906" lon="2.65552">
        <ele>849.78</ele>
        <time>2022-08-17T10:04:30Z</time>
      </trkpt>
      <trkpt lat="45.38896" lon="2.65554">
        <ele>849.79</ele>
        <time>2022-08-17T10:04:31Z</time>
      </trkpt>
      <trkpt lat="45.38886" lon="2.65555">
        <ele>849.82</ele>
        <time>2022-08-17T10:04:32Z</time>
      </trkpt>
      <trkpt lat="45.38876" lon="2.65555">
        <ele>849.79</ele>
        <time>2022-08-17T10:04:33Z</time>
      </trkpt>
      <trkpt lat="45.38809" lon="2.65573">
        <ele>853.09</ele>
        <time>2022-08-17T10:04:40Z</time>
      </trkpt>
      <trkpt lat="45.38784" lon="2.65584">
        <ele>856.55</ele>
        <time>2022-08-17T10:04:43Z</time>
      </trkpt>
      <trkpt lat="45.38769" lon="2.65595">
        <ele>857.49</ele>
        <time>2022-08-17T10:04:45Z</time>
      </trkpt>
      <trkpt lat="45.38756" lon="2.65608">
        <ele>858.68</ele>
        <time>2022-08-17T10:04:47Z</time>
      </trkpt>
      <trkpt lat="45.38749" lon="2.65614">
        <ele>860.45</ele>
        <time>2022-08-17T10:04:48Z</time>
      </trkpt>
      <trkpt lat="45.38741" lon="2.65619">
        <ele>860.46</ele>
        <time>2022-08-17T10:04:49Z</time>
      </trkpt>
      <trkpt lat="45.38716" lon="2.65631">
        <ele>862.41</ele>
        <time>2022-08-17T10:04:52Z</time>
      </trkpt>
      <trkpt lat="45.38708" lon="2.65633">
        <ele>863.44</ele>
        <time>2022-08-17T10:04:53Z</time>
      </trkpt>
      <trkpt lat="45.38699" lon="2.65634">
        <ele>863.44</ele>
        <time>2022-08-17T10:04:54Z</time>
      </trkpt>
      <trkpt lat="45.38691" lon="2.65633">
        <ele>864.46</ele>
        <time>2022-08-17T10:04:55Z</time>
      </trkpt>
      <trkpt lat="45.38684" lon="2.65631">
        <ele>864.42</ele>
        <time>2022-08-17T10:04:56Z</time>
      </trkpt>
      <trkpt lat="45.38677" lon="2.65626">
        <ele>865.17</ele>
        <time>2022-08-17T10:04:57Z</time>
      </trkpt>
      <trkpt lat="45.3867" lon="2.6562">
        <ele>865.25</ele>
        <time>2022-08-17T10:04:58Z</time>
      </trkpt>
      <trkpt lat="45.38657" lon="2.6561">
        <ele>865.23</ele>
        <time>2022-08-17T10:05:00Z</time>
      </trkpt>
      <trkpt lat="45.3865" lon="2.65608">
        <ele>865.19</ele>
        <time>2022-08-17T10:05:01Z</time>
      </trkpt>
      <trkpt lat="45.38642" lon="2.65606">
        <ele>865.16</ele>
        <time>2022-08-17T10:05:02Z</time>
      </trkpt>
      <trkpt lat="45.38635" lon="2.65606">
        <ele>865.15</ele>
        <time>2022-08-17T10:05:03Z</time>
      </trkpt>
      <trkpt lat="45.38627" lon="2.65608">
        <ele>865.13</ele>
        <time>2022-08-17T10:05:04Z</time>
      </trkpt>
      <trkpt lat="45.3862" lon="2.65611">
        <ele>865.12</ele>
        <time>2022-08-17T10:05:05Z</time>
      </trkpt>
      <trkpt lat="45.38612" lon="2.65614">
        <ele>865.12</ele>
        <time>2022-08-17T10:05:06Z</time>
      </trkpt>
      <trkpt lat="45.38604" lon="2.65617">
        <ele>861.61</ele>
        <time>2022-08-17T10:05:07Z</time>
      </trkpt>
      <trkpt lat="45.38597" lon="2.65618">
        <ele>861.62</ele>
        <time>2022-08-17T10:05:08Z</time>
      </trkpt>
      <trkpt lat="45.38588" lon="2.65616">
        <ele>861.62</ele>
        <time>2022-08-17T10:05:09Z</time>
      </trkpt>
      <trkpt lat="45.38579" lon="2.65613">
        <ele>860.05</ele>
        <time>2022-08-17T10:05:10Z</time>
      </trkpt>
      <trkpt lat="45.38568" lon="2.65609">
        <ele>860.05</ele>
        <time>2022-08-17T10:05:11Z</time>
      </trkpt>
      <trkpt lat="45.38492" lon="2.65582">
        <ele>862.48</ele>
        <time>2022-08-17T10:05:18Z</time>
      </trkpt>
      <trkpt lat="45.38409" lon="2.65569">
        <ele>862.52</ele>
        <time>2022-08-17T10:05:25Z</time>
      </trkpt>
      <trkpt lat="45.38398" lon="2.6557">
        <ele>862.53</ele>
        <time>2022-08-17T10:05:26Z</time>
      </trkpt>
      <trkpt lat="45.38377" lon="2.65574">
        <ele>859.86</ele>
        <time>2022-08-17T10:05:28Z</time>
      </trkpt>
      <trkpt lat="45.38348" lon="2.6558">
        <ele>856.6</ele>
        <time>2022-08-17T10:05:31Z</time>
      </trkpt>
      <trkpt lat="45.38339" lon="2.65584">
        <ele>855.2</ele>
        <time>2022-08-17T10:05:32Z</time>
      </trkpt>
      <trkpt lat="45.38331" lon="2.65592">
        <ele>855.17</ele>
        <time>2022-08-17T10:05:33Z</time>
      </trkpt>
      <trkpt lat="45.38325" lon="2.65601">
        <ele>854.07</ele>
        <time>2022-08-17T10:05:34Z</time>
      </trkpt>
      <trkpt lat="45.3832" lon="2.65611">
        <ele>853.09</ele>
        <time>2022-08-17T10:05:35Z</time>
      </trkpt>
      <trkpt lat="45.38316" lon="2.65622">
        <ele>853.04</ele>
        <time>2022-08-17T10:05:36Z</time>
      </trkpt>
      <trkpt lat="45.38308" lon="2.65644">
        <ele>852.29</ele>
        <time>2022-08-17T10:05:38Z</time>
      </trkpt>
      <trkpt lat="45.38306" lon="2.65656">
        <ele>852.67</ele>
        <time>2022-08-17T10:05:39Z</time>
      </trkpt>
      <trkpt lat="45.38306" lon="2.6567">
        <ele>852.64</ele>
        <time>2022-08-17T10:05:40Z</time>
      </trkpt>
      <trkpt lat="45.38305" lon="2.65697">
        <ele>852.69</ele>
        <time>2022-08-17T10:05:42Z</time>
      </trkpt>
      <trkpt lat="45.38302" lon="2.65709">
        <ele>855</ele>
        <time>2022-08-17T10:05:43Z</time>
      </trkpt>
      <trkpt lat="45.38297" lon="2.6572">
        <ele>855.04</ele>
        <time>2022-08-17T10:05:44Z</time>
      </trkpt>
      <trkpt lat="45.3829" lon="2.65729">
        <ele>855.02</ele>
        <time>2022-08-17T10:05:45Z</time>
      </trkpt>
      <trkpt lat="45.38283" lon="2.65735">
        <ele>855.02</ele>
        <time>2022-08-17T10:05:46Z</time>
      </trkpt>
      <trkpt lat="45.38274" lon="2.6574">
        <ele>855.05</ele>
        <time>2022-08-17T10:05:47Z</time>
      </trkpt>
      <trkpt lat="45.38265" lon="2.65744">
        <ele>855.02</ele>
        <time>2022-08-17T10:05:48Z</time>
      </trkpt>
      <trkpt lat="45.38208" lon="2.65766">
        <ele>855.1</ele>
        <time>2022-08-17T10:05:54Z</time>
      </trkpt>
      <trkpt lat="45.382" lon="2.65772">
        <ele>855.1</ele>
        <time>2022-08-17T10:05:55Z</time>
      </trkpt>
      <trkpt lat="45.38192" lon="2.6578">
        <ele>855.13</ele>
        <time>2022-08-17T10:05:56Z</time>
      </trkpt>
      <trkpt lat="45.38127" lon="2.65846">
        <ele>852.71</ele>
        <time>2022-08-17T10:06:06Z</time>
      </trkpt>
      <trkpt lat="45.38121" lon="2.65855">
        <ele>852.71</ele>
        <time>2022-08-17T10:06:09Z</time>
      </trkpt>
      <trkpt lat="45.38121" lon="2.65858">
        <ele>851.93</ele>
        <time>2022-08-17T10:06:10Z</time>
      </trkpt>
      <trkpt lat="45.38121" lon="2.65862">
        <ele>851.94</ele>
        <time>2022-08-17T10:06:11Z</time>
      </trkpt>
      <trkpt lat="45.38122" lon="2.65867">
        <ele>851.91</ele>
        <time>2022-08-17T10:06:12Z</time>
      </trkpt>
      <trkpt lat="45.38123" lon="2.65874">
        <ele>851.92</ele>
        <time>2022-08-17T10:06:13Z</time>
      </trkpt>
      <trkpt lat="45.38126" lon="2.65882">
        <ele>851.9</ele>
        <time>2022-08-17T10:06:14Z</time>
      </trkpt>
      <trkpt lat="45.38142" lon="2.65954">
        <ele>849.99</ele>
        <time>2022-08-17T10:06:21Z</time>
      </trkpt>
      <trkpt lat="45.38145" lon="2.65963">
        <ele>849.99</ele>
        <time>2022-08-17T10:06:22Z</time>
      </trkpt>
      <trkpt lat="45.38149" lon="2.65973">
        <ele>849.98</ele>
        <time>2022-08-17T10:06:23Z</time>
      </trkpt>
      <trkpt lat="45.38154" lon="2.65981">
        <ele>849.99</ele>
        <time>2022-08-17T10:06:24Z</time>
      </trkpt>
      <trkpt lat="45.38159" lon="2.6599">
        <ele>848.98</ele>
        <time>2022-08-17T10:06:25Z</time>
      </trkpt>
      <trkpt lat="45.38164" lon="2.65997">
        <ele>849</ele>
        <time>2022-08-17T10:06:26Z</time>
      </trkpt>
      <trkpt lat="45.38169" lon="2.66005">
        <ele>848.97</ele>
        <time>2022-08-17T10:06:27Z</time>
      </trkpt>
      <trkpt lat="45.3818" lon="2.66023">
        <ele>848.96</ele>
        <time>2022-08-17T10:06:29Z</time>
      </trkpt>
      <trkpt lat="45.38183" lon="2.66033">
        <ele>848.01</ele>
        <time>2022-08-17T10:06:30Z</time>
      </trkpt>
      <trkpt lat="45.38184" lon="2.66045">
        <ele>847.29</ele>
        <time>2022-08-17T10:06:31Z</time>
      </trkpt>
      <trkpt lat="45.38184" lon="2.66056">
        <ele>846.36</ele>
        <time>2022-08-17T10:06:32Z</time>
      </trkpt>
      <trkpt lat="45.38184" lon="2.66068">
        <ele>845.14</ele>
        <time>2022-08-17T10:06:33Z</time>
      </trkpt>
      <trkpt lat="45.38183" lon="2.6608">
        <ele>844.13</ele>
        <time>2022-08-17T10:06:34Z</time>
      </trkpt>
      <trkpt lat="45.3818" lon="2.66092">
        <ele>843.17</ele>
        <time>2022-08-17T10:06:35Z</time>
      </trkpt>
      <trkpt lat="45.38177" lon="2.66102">
        <ele>842.15</ele>
        <time>2022-08-17T10:06:36Z</time>
      </trkpt>
      <trkpt lat="45.38174" lon="2.66111">
        <ele>840.67</ele>
        <time>2022-08-17T10:06:37Z</time>
      </trkpt>
      <trkpt lat="45.38172" lon="2.6612">
        <ele>840.65</ele>
        <time>2022-08-17T10:06:38Z</time>
      </trkpt>
      <trkpt lat="45.38171" lon="2.66129">
        <ele>839.6</ele>
        <time>2022-08-17T10:06:39Z</time>
      </trkpt>
      <trkpt lat="45.38172" lon="2.66137">
        <ele>839.54</ele>
        <time>2022-08-17T10:06:40Z</time>
      </trkpt>
      <trkpt lat="45.38176" lon="2.66157">
        <ele>838.78</ele>
        <time>2022-08-17T10:06:42Z</time>
      </trkpt>
      <trkpt lat="45.38177" lon="2.66169">
        <ele>838.75</ele>
        <time>2022-08-17T10:06:43Z</time>
      </trkpt>
      <trkpt lat="45.38176" lon="2.66181">
        <ele>837.64</ele>
        <time>2022-08-17T10:06:44Z</time>
      </trkpt>
      <trkpt lat="45.38174" lon="2.66206">
        <ele>836.07</ele>
        <time>2022-08-17T10:06:46Z</time>
      </trkpt>
      <trkpt lat="45.38174" lon="2.66218">
        <ele>836.03</ele>
        <time>2022-08-17T10:06:47Z</time>
      </trkpt>
      <trkpt lat="45.38176" lon="2.66228">
        <ele>835.98</ele>
        <time>2022-08-17T10:06:48Z</time>
      </trkpt>
      <trkpt lat="45.38179" lon="2.66236">
        <ele>835.05</ele>
        <time>2022-08-17T10:06:49Z</time>
      </trkpt>
      <trkpt lat="45.38182" lon="2.66243">
        <ele>835.06</ele>
        <time>2022-08-17T10:06:50Z</time>
      </trkpt>
      <trkpt lat="45.38186" lon="2.66249">
        <ele>835.12</ele>
        <time>2022-08-17T10:06:51Z</time>
      </trkpt>
      <trkpt lat="45.38193" lon="2.66259">
        <ele>835.15</ele>
        <time>2022-08-17T10:06:53Z</time>
      </trkpt>
      <trkpt lat="45.38198" lon="2.66264">
        <ele>835.19</ele>
        <time>2022-08-17T10:06:54Z</time>
      </trkpt>
      <trkpt lat="45.38204" lon="2.66269">
        <ele>837.93</ele>
        <time>2022-08-17T10:06:55Z</time>
      </trkpt>
      <trkpt lat="45.38219" lon="2.66279">
        <ele>839.23</ele>
        <time>2022-08-17T10:06:57Z</time>
      </trkpt>
      <trkpt lat="45.38292" lon="2.66313">
        <ele>840.31</ele>
        <time>2022-08-17T10:07:04Z</time>
      </trkpt>
      <trkpt lat="45.38403" lon="2.6633">
        <ele>842.13</ele>
        <time>2022-08-17T10:07:14Z</time>
      </trkpt>
      <trkpt lat="45.38421" lon="2.66337">
        <ele>843.26</ele>
        <time>2022-08-17T10:07:16Z</time>
      </trkpt>
      <trkpt lat="45.38429" lon="2.66343">
        <ele>843.31</ele>
        <time>2022-08-17T10:07:17Z</time>
      </trkpt>
      <trkpt lat="45.38438" lon="2.6635">
        <ele>845.53</ele>
        <time>2022-08-17T10:07:18Z</time>
      </trkpt>
      <trkpt lat="45.38446" lon="2.66359">
        <ele>847.12</ele>
        <time>2022-08-17T10:07:19Z</time>
      </trkpt>
      <trkpt lat="45.38454" lon="2.66367">
        <ele>847.12</ele>
        <time>2022-08-17T10:07:20Z</time>
      </trkpt>
      <trkpt lat="45.38492" lon="2.664">
        <ele>848.01</ele>
        <time>2022-08-17T10:07:24Z</time>
      </trkpt>
      <trkpt lat="45.38502" lon="2.66405">
        <ele>847.98</ele>
        <time>2022-08-17T10:07:25Z</time>
      </trkpt>
      <trkpt lat="45.38514" lon="2.66406">
        <ele>848.02</ele>
        <time>2022-08-17T10:07:26Z</time>
      </trkpt>
      <trkpt lat="45.38526" lon="2.66403">
        <ele>848.07</ele>
        <time>2022-08-17T10:07:27Z</time>
      </trkpt>
      <trkpt lat="45.38538" lon="2.66398">
        <ele>849.47</ele>
        <time>2022-08-17T10:07:28Z</time>
      </trkpt>
      <trkpt lat="45.38551" lon="2.66393">
        <ele>851.03</ele>
        <time>2022-08-17T10:07:29Z</time>
      </trkpt>
      <trkpt lat="45.38563" lon="2.66389">
        <ele>852.22</ele>
        <time>2022-08-17T10:07:30Z</time>
      </trkpt>
      <trkpt lat="45.38573" lon="2.66388">
        <ele>853.6</ele>
        <time>2022-08-17T10:07:31Z</time>
      </trkpt>
      <trkpt lat="45.38583" lon="2.66387">
        <ele>854.69</ele>
        <time>2022-08-17T10:07:32Z</time>
      </trkpt>
      <trkpt lat="45.38607" lon="2.66389">
        <ele>858.38</ele>
        <time>2022-08-17T10:07:35Z</time>
      </trkpt>
      <trkpt lat="45.38614" lon="2.66391">
        <ele>858.34</ele>
        <time>2022-08-17T10:07:36Z</time>
      </trkpt>
      <trkpt lat="45.38639" lon="2.66401">
        <ele>860.17</ele>
        <time>2022-08-17T10:07:39Z</time>
      </trkpt>
      <trkpt lat="45.38649" lon="2.66409">
        <ele>861.49</ele>
        <time>2022-08-17T10:07:41Z</time>
      </trkpt>
      <trkpt lat="45.38656" lon="2.66413">
        <ele>862.85</ele>
        <time>2022-08-17T10:07:43Z</time>
      </trkpt>
      <trkpt lat="45.38657" lon="2.66414">
        <ele>863.02</ele>
        <time>2022-08-17T10:07:53Z</time>
      </trkpt>
      <trkpt lat="45.38656" lon="2.66415">
        <ele>870.91</ele>
        <time>2022-08-17T10:08:15Z</time>
      </trkpt>
      <trkpt lat="45.38707" lon="2.66449">
        <ele>860.11</ele>
        <time>2022-08-17T10:10:38Z</time>
      </trkpt>
      <trkpt lat="45.38712" lon="2.66454">
        <ele>860.36</ele>
        <time>2022-08-17T10:11:06Z</time>
      </trkpt>
      <trkpt lat="45.38717" lon="2.66454">
        <ele>860.38</ele>
        <time>2022-08-17T10:11:07Z</time>
      </trkpt>
      <trkpt lat="45.38722" lon="2.66454">
        <ele>859.24</ele>
        <time>2022-08-17T10:11:08Z</time>
      </trkpt>
      <trkpt lat="45.38729" lon="2.66455">
        <ele>859.23</ele>
        <time>2022-08-17T10:11:09Z</time>
      </trkpt>
      <trkpt lat="45.38736" lon="2.66458">
        <ele>857.9</ele>
        <time>2022-08-17T10:11:10Z</time>
      </trkpt>
      <trkpt lat="45.38743" lon="2.66461">
        <ele>857.9</ele>
        <time>2022-08-17T10:11:11Z</time>
      </trkpt>
      <trkpt lat="45.38749" lon="2.66466">
        <ele>856.23</ele>
        <time>2022-08-17T10:11:12Z</time>
      </trkpt>
      <trkpt lat="45.38754" lon="2.66472">
        <ele>854.58</ele>
        <time>2022-08-17T10:11:13Z</time>
      </trkpt>
      <trkpt lat="45.38758" lon="2.66479">
        <ele>853.8</ele>
        <time>2022-08-17T10:11:14Z</time>
      </trkpt>
      <trkpt lat="45.38762" lon="2.66487">
        <ele>852.26</ele>
        <time>2022-08-17T10:11:15Z</time>
      </trkpt>
      <trkpt lat="45.38765" lon="2.66494">
        <ele>852.22</ele>
        <time>2022-08-17T10:11:16Z</time>
      </trkpt>
      <trkpt lat="45.38767" lon="2.66502">
        <ele>850.72</ele>
        <time>2022-08-17T10:11:17Z</time>
      </trkpt>
      <trkpt lat="45.38768" lon="2.6651">
        <ele>849.41</ele>
        <time>2022-08-17T10:11:18Z</time>
      </trkpt>
      <trkpt lat="45.38769" lon="2.6652">
        <ele>848.56</ele>
        <time>2022-08-17T10:11:19Z</time>
      </trkpt>
      <trkpt lat="45.38768" lon="2.66529">
        <ele>848.49</ele>
        <time>2022-08-17T10:11:20Z</time>
      </trkpt>
      <trkpt lat="45.38767" lon="2.66539">
        <ele>847.16</ele>
        <time>2022-08-17T10:11:21Z</time>
      </trkpt>
      <trkpt lat="45.38765" lon="2.66548">
        <ele>846.36</ele>
        <time>2022-08-17T10:11:22Z</time>
      </trkpt>
      <trkpt lat="45.38764" lon="2.66558">
        <ele>846.37</ele>
        <time>2022-08-17T10:11:23Z</time>
      </trkpt>
      <trkpt lat="45.38761" lon="2.66591">
        <ele>844.37</ele>
        <time>2022-08-17T10:11:26Z</time>
      </trkpt>
      <trkpt lat="45.38762" lon="2.66601">
        <ele>844.37</ele>
        <time>2022-08-17T10:11:27Z</time>
      </trkpt>
      <trkpt lat="45.38765" lon="2.66609">
        <ele>844.41</ele>
        <time>2022-08-17T10:11:28Z</time>
      </trkpt>
      <trkpt lat="45.38768" lon="2.66617">
        <ele>844.35</ele>
        <time>2022-08-17T10:11:29Z</time>
      </trkpt>
      <trkpt lat="45.38772" lon="2.66625">
        <ele>844.79</ele>
        <time>2022-08-17T10:11:30Z</time>
      </trkpt>
      <trkpt lat="45.38776" lon="2.66632">
        <ele>844.16</ele>
        <time>2022-08-17T10:11:31Z</time>
      </trkpt>
      <trkpt lat="45.38816" lon="2.66719">
        <ele>844.85</ele>
        <time>2022-08-17T10:11:40Z</time>
      </trkpt>
      <trkpt lat="45.38822" lon="2.66729">
        <ele>844.84</ele>
        <time>2022-08-17T10:11:41Z</time>
      </trkpt>
      <trkpt lat="45.38829" lon="2.66736">
        <ele>844.85</ele>
        <time>2022-08-17T10:11:42Z</time>
      </trkpt>
      <trkpt lat="45.38838" lon="2.66742">
        <ele>844.85</ele>
        <time>2022-08-17T10:11:43Z</time>
      </trkpt>
      <trkpt lat="45.38848" lon="2.66748">
        <ele>844.86</ele>
        <time>2022-08-17T10:11:44Z</time>
      </trkpt>
      <trkpt lat="45.38858" lon="2.66752">
        <ele>844.85</ele>
        <time>2022-08-17T10:11:45Z</time>
      </trkpt>
      <trkpt lat="45.38927" lon="2.66781">
        <ele>843.93</ele>
        <time>2022-08-17T10:11:52Z</time>
      </trkpt>
      <trkpt lat="45.38934" lon="2.66786">
        <ele>843.97</ele>
        <time>2022-08-17T10:11:53Z</time>
      </trkpt>
      <trkpt lat="45.38963" lon="2.66814">
        <ele>842.01</ele>
        <time>2022-08-17T10:11:57Z</time>
      </trkpt>
      <trkpt lat="45.38971" lon="2.66824">
        <ele>840.92</ele>
        <time>2022-08-17T10:11:58Z</time>
      </trkpt>
      <trkpt lat="45.38979" lon="2.66836">
        <ele>839.67</ele>
        <time>2022-08-17T10:11:59Z</time>
      </trkpt>
      <trkpt lat="45.38998" lon="2.66871">
        <ele>837.79</ele>
        <time>2022-08-17T10:12:02Z</time>
      </trkpt>
      <trkpt lat="45.3902" lon="2.66915">
        <ele>834.78</ele>
        <time>2022-08-17T10:12:07Z</time>
      </trkpt>
      <trkpt lat="45.3902" lon="2.66922">
        <ele>834.83</ele>
        <time>2022-08-17T10:12:08Z</time>
      </trkpt>
      <trkpt lat="45.39018" lon="2.6693">
        <ele>834.78</ele>
        <time>2022-08-17T10:12:09Z</time>
      </trkpt>
      <trkpt lat="45.38991" lon="2.67017">
        <ele>834.82</ele>
        <time>2022-08-17T10:12:16Z</time>
      </trkpt>
      <trkpt lat="45.38973" lon="2.6707">
        <ele>834.81</ele>
        <time>2022-08-17T10:12:20Z</time>
      </trkpt>
      <trkpt lat="45.38967" lon="2.67081">
        <ele>834</ele>
        <time>2022-08-17T10:12:21Z</time>
      </trkpt>
      <trkpt lat="45.38961" lon="2.6709">
        <ele>833.99</ele>
        <time>2022-08-17T10:12:22Z</time>
      </trkpt>
      <trkpt lat="45.38953" lon="2.67099">
        <ele>832.75</ele>
        <time>2022-08-17T10:12:23Z</time>
      </trkpt>
      <trkpt lat="45.38945" lon="2.67107">
        <ele>832.64</ele>
        <time>2022-08-17T10:12:24Z</time>
      </trkpt>
      <trkpt lat="45.38937" lon="2.67113">
        <ele>830.92</ele>
        <time>2022-08-17T10:12:25Z</time>
      </trkpt>
      <trkpt lat="45.38928" lon="2.67118">
        <ele>829.83</ele>
        <time>2022-08-17T10:12:26Z</time>
      </trkpt>
      <trkpt lat="45.38919" lon="2.67121">
        <ele>829.75</ele>
        <time>2022-08-17T10:12:27Z</time>
      </trkpt>
      <trkpt lat="45.38909" lon="2.67122">
        <ele>828.22</ele>
        <time>2022-08-17T10:12:28Z</time>
      </trkpt>
      <trkpt lat="45.38899" lon="2.67123">
        <ele>827.34</ele>
        <time>2022-08-17T10:12:29Z</time>
      </trkpt>
      <trkpt lat="45.38889" lon="2.67124">
        <ele>827.28</ele>
        <time>2022-08-17T10:12:30Z</time>
      </trkpt>
      <trkpt lat="45.38869" lon="2.67125">
        <ele>823.87</ele>
        <time>2022-08-17T10:12:32Z</time>
      </trkpt>
      <trkpt lat="45.38859" lon="2.67125">
        <ele>823.87</ele>
        <time>2022-08-17T10:12:33Z</time>
      </trkpt>
      <trkpt lat="45.3884" lon="2.67124">
        <ele>822.05</ele>
        <time>2022-08-17T10:12:35Z</time>
      </trkpt>
      <trkpt lat="45.3883" lon="2.67121">
        <ele>822.05</ele>
        <time>2022-08-17T10:12:36Z</time>
      </trkpt>
      <trkpt lat="45.3882" lon="2.67118">
        <ele>820.63</ele>
        <time>2022-08-17T10:12:37Z</time>
      </trkpt>
      <trkpt lat="45.3881" lon="2.67114">
        <ele>820.63</ele>
        <time>2022-08-17T10:12:38Z</time>
      </trkpt>
      <trkpt lat="45.38789" lon="2.67105">
        <ele>818.96</ele>
        <time>2022-08-17T10:12:40Z</time>
      </trkpt>
      <trkpt lat="45.38735" lon="2.67079">
        <ele>815.73</ele>
        <time>2022-08-17T10:12:45Z</time>
      </trkpt>
      <trkpt lat="45.38711" lon="2.67062">
        <ele>813.91</ele>
        <time>2022-08-17T10:12:47Z</time>
      </trkpt>
      <trkpt lat="45.38688" lon="2.67043">
        <ele>812.17</ele>
        <time>2022-08-17T10:12:49Z</time>
      </trkpt>
      <trkpt lat="45.38668" lon="2.67023">
        <ele>810.23</ele>
        <time>2022-08-17T10:12:51Z</time>
      </trkpt>
      <trkpt lat="45.38638" lon="2.66995">
        <ele>806.57</ele>
        <time>2022-08-17T10:12:54Z</time>
      </trkpt>
      <trkpt lat="45.38607" lon="2.6697">
        <ele>802.91</ele>
        <time>2022-08-17T10:12:57Z</time>
      </trkpt>
      <trkpt lat="45.38585" lon="2.66958">
        <ele>801.73</ele>
        <time>2022-08-17T10:12:59Z</time>
      </trkpt>
      <trkpt lat="45.38573" lon="2.66954">
        <ele>799.78</ele>
        <time>2022-08-17T10:13:00Z</time>
      </trkpt>
      <trkpt lat="45.3856" lon="2.66952">
        <ele>799.78</ele>
        <time>2022-08-17T10:13:01Z</time>
      </trkpt>
      <trkpt lat="45.38534" lon="2.66952">
        <ele>795.8</ele>
        <time>2022-08-17T10:13:03Z</time>
      </trkpt>
      <trkpt lat="45.38522" lon="2.66953">
        <ele>794.36</ele>
        <time>2022-08-17T10:13:04Z</time>
      </trkpt>
      <trkpt lat="45.38512" lon="2.66958">
        <ele>792.69</ele>
        <time>2022-08-17T10:13:05Z</time>
      </trkpt>
      <trkpt lat="45.38504" lon="2.66967">
        <ele>791.52</ele>
        <time>2022-08-17T10:13:06Z</time>
      </trkpt>
      <trkpt lat="45.38497" lon="2.66978">
        <ele>791.4</ele>
        <time>2022-08-17T10:13:07Z</time>
      </trkpt>
      <trkpt lat="45.3849" lon="2.66989">
        <ele>789.79</ele>
        <time>2022-08-17T10:13:08Z</time>
      </trkpt>
      <trkpt lat="45.38482" lon="2.66997">
        <ele>787.96</ele>
        <time>2022-08-17T10:13:09Z</time>
      </trkpt>
      <trkpt lat="45.38472" lon="2.67001">
        <ele>786.64</ele>
        <time>2022-08-17T10:13:10Z</time>
      </trkpt>
      <trkpt lat="45.38462" lon="2.67">
        <ele>785.51</ele>
        <time>2022-08-17T10:13:11Z</time>
      </trkpt>
      <trkpt lat="45.38452" lon="2.66997">
        <ele>783.89</ele>
        <time>2022-08-17T10:13:12Z</time>
      </trkpt>
      <trkpt lat="45.38439" lon="2.66992">
        <ele>783.8</ele>
        <time>2022-08-17T10:13:13Z</time>
      </trkpt>
      <trkpt lat="45.38403" lon="2.66978">
        <ele>779.98</ele>
        <time>2022-08-17T10:13:16Z</time>
      </trkpt>
      <trkpt lat="45.38392" lon="2.66973">
        <ele>778.3</ele>
        <time>2022-08-17T10:13:17Z</time>
      </trkpt>
      <trkpt lat="45.38383" lon="2.66965">
        <ele>776.35</ele>
        <time>2022-08-17T10:13:18Z</time>
      </trkpt>
      <trkpt lat="45.38374" lon="2.66956">
        <ele>776.34</ele>
        <time>2022-08-17T10:13:19Z</time>
      </trkpt>
      <trkpt lat="45.38365" lon="2.66948">
        <ele>774.7</ele>
        <time>2022-08-17T10:13:20Z</time>
      </trkpt>
      <trkpt lat="45.38356" lon="2.66942">
        <ele>773.29</ele>
        <time>2022-08-17T10:13:21Z</time>
      </trkpt>
      <trkpt lat="45.38346" lon="2.66942">
        <ele>772.14</ele>
        <time>2022-08-17T10:13:22Z</time>
      </trkpt>
      <trkpt lat="45.38337" lon="2.66947">
        <ele>770.52</ele>
        <time>2022-08-17T10:13:23Z</time>
      </trkpt>
      <trkpt lat="45.38327" lon="2.66954">
        <ele>770.52</ele>
        <time>2022-08-17T10:13:24Z</time>
      </trkpt>
      <trkpt lat="45.38317" lon="2.66961">
        <ele>768.72</ele>
        <time>2022-08-17T10:13:25Z</time>
      </trkpt>
      <trkpt lat="45.38306" lon="2.66966">
        <ele>767.03</ele>
        <time>2022-08-17T10:13:26Z</time>
      </trkpt>
      <trkpt lat="45.38295" lon="2.6697">
        <ele>766.02</ele>
        <time>2022-08-17T10:13:27Z</time>
      </trkpt>
      <trkpt lat="45.38284" lon="2.66972">
        <ele>765.91</ele>
        <time>2022-08-17T10:13:28Z</time>
      </trkpt>
      <trkpt lat="45.38272" lon="2.66976">
        <ele>763.71</ele>
        <time>2022-08-17T10:13:29Z</time>
      </trkpt>
      <trkpt lat="45.38262" lon="2.66983">
        <ele>762.22</ele>
        <time>2022-08-17T10:13:30Z</time>
      </trkpt>
      <trkpt lat="45.38253" lon="2.66993">
        <ele>760.51</ele>
        <time>2022-08-17T10:13:31Z</time>
      </trkpt>
      <trkpt lat="45.38246" lon="2.67005">
        <ele>759.62</ele>
        <time>2022-08-17T10:13:32Z</time>
      </trkpt>
      <trkpt lat="45.3824" lon="2.67019">
        <ele>758.45</ele>
        <time>2022-08-17T10:13:33Z</time>
      </trkpt>
      <trkpt lat="45.38235" lon="2.67033">
        <ele>756.56</ele>
        <time>2022-08-17T10:13:34Z</time>
      </trkpt>
      <trkpt lat="45.38229" lon="2.67045">
        <ele>756.55</ele>
        <time>2022-08-17T10:13:35Z</time>
      </trkpt>
      <trkpt lat="45.38222" lon="2.67057">
        <ele>754.46</ele>
        <time>2022-08-17T10:13:36Z</time>
      </trkpt>
      <trkpt lat="45.38213" lon="2.67066">
        <ele>754.5</ele>
        <time>2022-08-17T10:13:37Z</time>
      </trkpt>
      <trkpt lat="45.38204" lon="2.67073">
        <ele>752.92</ele>
        <time>2022-08-17T10:13:38Z</time>
      </trkpt>
      <trkpt lat="45.38194" lon="2.67075">
        <ele>751.72</ele>
        <time>2022-08-17T10:13:39Z</time>
      </trkpt>
      <trkpt lat="45.38183" lon="2.67072">
        <ele>750.12</ele>
        <time>2022-08-17T10:13:40Z</time>
      </trkpt>
      <trkpt lat="45.38173" lon="2.67066">
        <ele>748.95</ele>
        <time>2022-08-17T10:13:41Z</time>
      </trkpt>
      <trkpt lat="45.38165" lon="2.67057">
        <ele>747.8</ele>
        <time>2022-08-17T10:13:42Z</time>
      </trkpt>
      <trkpt lat="45.38158" lon="2.67046">
        <ele>746.44</ele>
        <time>2022-08-17T10:13:43Z</time>
      </trkpt>
      <trkpt lat="45.38152" lon="2.67033">
        <ele>745.52</ele>
        <time>2022-08-17T10:13:44Z</time>
      </trkpt>
      <trkpt lat="45.38146" lon="2.67021">
        <ele>744.24</ele>
        <time>2022-08-17T10:13:45Z</time>
      </trkpt>
      <trkpt lat="45.38139" lon="2.6701">
        <ele>742.99</ele>
        <time>2022-08-17T10:13:46Z</time>
      </trkpt>
      <trkpt lat="45.38126" lon="2.66986">
        <ele>740.99</ele>
        <time>2022-08-17T10:13:48Z</time>
      </trkpt>
      <trkpt lat="45.38114" lon="2.66963">
        <ele>739.02</ele>
        <time>2022-08-17T10:13:50Z</time>
      </trkpt>
      <trkpt lat="45.38107" lon="2.66955">
        <ele>737.22</ele>
        <time>2022-08-17T10:13:51Z</time>
      </trkpt>
      <trkpt lat="45.38099" lon="2.66951">
        <ele>736.21</ele>
        <time>2022-08-17T10:13:52Z</time>
      </trkpt>
      <trkpt lat="45.38091" lon="2.66952">
        <ele>734.44</ele>
        <time>2022-08-17T10:13:53Z</time>
      </trkpt>
      <trkpt lat="45.38082" lon="2.66955">
        <ele>733.47</ele>
        <time>2022-08-17T10:13:54Z</time>
      </trkpt>
      <trkpt lat="45.38074" lon="2.66957">
        <ele>732.3</ele>
        <time>2022-08-17T10:13:55Z</time>
      </trkpt>
      <trkpt lat="45.38066" lon="2.6696">
        <ele>732.3</ele>
        <time>2022-08-17T10:13:56Z</time>
      </trkpt>
      <trkpt lat="45.38057" lon="2.66962">
        <ele>730.2</ele>
        <time>2022-08-17T10:13:57Z</time>
      </trkpt>
      <trkpt lat="45.38048" lon="2.66965">
        <ele>729.16</ele>
        <time>2022-08-17T10:13:58Z</time>
      </trkpt>
      <trkpt lat="45.38039" lon="2.66971">
        <ele>728.12</ele>
        <time>2022-08-17T10:13:59Z</time>
      </trkpt>
      <trkpt lat="45.38031" lon="2.66978">
        <ele>728.01</ele>
        <time>2022-08-17T10:14:00Z</time>
      </trkpt>
      <trkpt lat="45.38024" lon="2.66985">
        <ele>727</ele>
        <time>2022-08-17T10:14:01Z</time>
      </trkpt>
      <trkpt lat="45.38003" lon="2.67003">
        <ele>726.21</ele>
        <time>2022-08-17T10:14:04Z</time>
      </trkpt>
      <trkpt lat="45.37995" lon="2.67006">
        <ele>726.16</ele>
        <time>2022-08-17T10:14:05Z</time>
      </trkpt>
      <trkpt lat="45.37957" lon="2.67023">
        <ele>722.62</ele>
        <time>2022-08-17T10:14:09Z</time>
      </trkpt>
      <trkpt lat="45.37948" lon="2.67025">
        <ele>721.53</ele>
        <time>2022-08-17T10:14:10Z</time>
      </trkpt>
      <trkpt lat="45.37939" lon="2.67025">
        <ele>720.34</ele>
        <time>2022-08-17T10:14:11Z</time>
      </trkpt>
      <trkpt lat="45.3793" lon="2.67023">
        <ele>718.56</ele>
        <time>2022-08-17T10:14:12Z</time>
      </trkpt>
      <trkpt lat="45.3792" lon="2.6702">
        <ele>718.58</ele>
        <time>2022-08-17T10:14:13Z</time>
      </trkpt>
      <trkpt lat="45.3791" lon="2.67017">
        <ele>717.37</ele>
        <time>2022-08-17T10:14:14Z</time>
      </trkpt>
      <trkpt lat="45.37899" lon="2.67015">
        <ele>717.32</ele>
        <time>2022-08-17T10:14:15Z</time>
      </trkpt>
      <trkpt lat="45.37879" lon="2.67011">
        <ele>717.38</ele>
        <time>2022-08-17T10:14:17Z</time>
      </trkpt>
      <trkpt lat="45.3787" lon="2.67007">
        <ele>716.33</ele>
        <time>2022-08-17T10:14:18Z</time>
      </trkpt>
      <trkpt lat="45.37861" lon="2.67">
        <ele>716.3</ele>
        <time>2022-08-17T10:14:19Z</time>
      </trkpt>
      <trkpt lat="45.37852" lon="2.66991">
        <ele>716.3</ele>
        <time>2022-08-17T10:14:20Z</time>
      </trkpt>
      <trkpt lat="45.37844" lon="2.66981">
        <ele>716.31</ele>
        <time>2022-08-17T10:14:21Z</time>
      </trkpt>
      <trkpt lat="45.37834" lon="2.66972">
        <ele>716.26</ele>
        <time>2022-08-17T10:14:22Z</time>
      </trkpt>
      <trkpt lat="45.37822" lon="2.66966">
        <ele>719.55</ele>
        <time>2022-08-17T10:14:23Z</time>
      </trkpt>
      <trkpt lat="45.3781" lon="2.66961">
        <ele>720.76</ele>
        <time>2022-08-17T10:14:24Z</time>
      </trkpt>
      <trkpt lat="45.37798" lon="2.66957">
        <ele>720.74</ele>
        <time>2022-08-17T10:14:25Z</time>
      </trkpt>
      <trkpt lat="45.37788" lon="2.66955">
        <ele>722.06</ele>
        <time>2022-08-17T10:14:26Z</time>
      </trkpt>
      <trkpt lat="45.37778" lon="2.66955">
        <ele>722.12</ele>
        <time>2022-08-17T10:14:27Z</time>
      </trkpt>
      <trkpt lat="45.37771" lon="2.66957">
        <ele>722.17</ele>
        <time>2022-08-17T10:14:28Z</time>
      </trkpt>
      <trkpt lat="45.37764" lon="2.66964">
        <ele>723.27</ele>
        <time>2022-08-17T10:14:29Z</time>
      </trkpt>
      <trkpt lat="45.37757" lon="2.66972">
        <ele>723.38</ele>
        <time>2022-08-17T10:14:30Z</time>
      </trkpt>
      <trkpt lat="45.37751" lon="2.66983">
        <ele>724.92</ele>
        <time>2022-08-17T10:14:31Z</time>
      </trkpt>
      <trkpt lat="45.37742" lon="2.66995">
        <ele>726.28</ele>
        <time>2022-08-17T10:14:32Z</time>
      </trkpt>
      <trkpt lat="45.37732" lon="2.67008">
        <ele>727.52</ele>
        <time>2022-08-17T10:14:33Z</time>
      </trkpt>
      <trkpt lat="45.3772" lon="2.67021">
        <ele>728.56</ele>
        <time>2022-08-17T10:14:34Z</time>
      </trkpt>
      <trkpt lat="45.3768" lon="2.67064">
        <ele>730.53</ele>
        <time>2022-08-17T10:14:37Z</time>
      </trkpt>
      <trkpt lat="45.3762" lon="2.67122">
        <ele>730.53</ele>
        <time>2022-08-17T10:14:42Z</time>
      </trkpt>
      <trkpt lat="45.37608" lon="2.67129">
        <ele>730.49</ele>
        <time>2022-08-17T10:14:43Z</time>
      </trkpt>
      <trkpt lat="45.37596" lon="2.67133">
        <ele>730.49</ele>
        <time>2022-08-17T10:14:44Z</time>
      </trkpt>
      <trkpt lat="45.37575" lon="2.67141">
        <ele>730.49</ele>
        <time>2022-08-17T10:14:46Z</time>
      </trkpt>
      <trkpt lat="45.37566" lon="2.67147">
        <ele>730.34</ele>
        <time>2022-08-17T10:14:47Z</time>
      </trkpt>
      <trkpt lat="45.37559" lon="2.67156">
        <ele>727.88</ele>
        <time>2022-08-17T10:14:48Z</time>
      </trkpt>
      <trkpt lat="45.37551" lon="2.67168">
        <ele>727.83</ele>
        <time>2022-08-17T10:14:49Z</time>
      </trkpt>
      <trkpt lat="45.37544" lon="2.67182">
        <ele>727.79</ele>
        <time>2022-08-17T10:14:50Z</time>
      </trkpt>
      <trkpt lat="45.37536" lon="2.67195">
        <ele>726.33</ele>
        <time>2022-08-17T10:14:51Z</time>
      </trkpt>
      <trkpt lat="45.37526" lon="2.67205">
        <ele>725.5</ele>
        <time>2022-08-17T10:14:52Z</time>
      </trkpt>
      <trkpt lat="45.37515" lon="2.67209">
        <ele>724.48</ele>
        <time>2022-08-17T10:14:53Z</time>
      </trkpt>
      <trkpt lat="45.37503" lon="2.67212">
        <ele>724.48</ele>
        <time>2022-08-17T10:14:54Z</time>
      </trkpt>
      <trkpt lat="45.37465" lon="2.67217">
        <ele>724.43</ele>
        <time>2022-08-17T10:14:57Z</time>
      </trkpt>
      <trkpt lat="45.37454" lon="2.67217">
        <ele>723.18</ele>
        <time>2022-08-17T10:14:58Z</time>
      </trkpt>
      <trkpt lat="45.37442" lon="2.67218">
        <ele>723.18</ele>
        <time>2022-08-17T10:14:59Z</time>
      </trkpt>
      <trkpt lat="45.37431" lon="2.67222">
        <ele>723.1</ele>
        <time>2022-08-17T10:15:00Z</time>
      </trkpt>
      <trkpt lat="45.37421" lon="2.67226">
        <ele>723.14</ele>
        <time>2022-08-17T10:15:01Z</time>
      </trkpt>
      <trkpt lat="45.37413" lon="2.67233">
        <ele>721.84</ele>
        <time>2022-08-17T10:15:02Z</time>
      </trkpt>
      <trkpt lat="45.37406" lon="2.67242">
        <ele>721.84</ele>
        <time>2022-08-17T10:15:03Z</time>
      </trkpt>
      <trkpt lat="45.37402" lon="2.67253">
        <ele>721.16</ele>
        <time>2022-08-17T10:15:04Z</time>
      </trkpt>
      <trkpt lat="45.37398" lon="2.67264">
        <ele>721.12</ele>
        <time>2022-08-17T10:15:05Z</time>
      </trkpt>
      <trkpt lat="45.37396" lon="2.67275">
        <ele>721.12</ele>
        <time>2022-08-17T10:15:06Z</time>
      </trkpt>
      <trkpt lat="45.37394" lon="2.67285">
        <ele>719.82</ele>
        <time>2022-08-17T10:15:07Z</time>
      </trkpt>
      <trkpt lat="45.37393" lon="2.67295">
        <ele>719.86</ele>
        <time>2022-08-17T10:15:08Z</time>
      </trkpt>
      <trkpt lat="45.37391" lon="2.67316">
        <ele>718.58</ele>
        <time>2022-08-17T10:15:10Z</time>
      </trkpt>
      <trkpt lat="45.37389" lon="2.67327">
        <ele>718.59</ele>
        <time>2022-08-17T10:15:11Z</time>
      </trkpt>
      <trkpt lat="45.37384" lon="2.67339">
        <ele>718.59</ele>
        <time>2022-08-17T10:15:12Z</time>
      </trkpt>
      <trkpt lat="45.37346" lon="2.6744">
        <ele>714.96</ele>
        <time>2022-08-17T10:15:20Z</time>
      </trkpt>
      <trkpt lat="45.37325" lon="2.67497">
        <ele>711.97</ele>
        <time>2022-08-17T10:15:25Z</time>
      </trkpt>
      <trkpt lat="45.37316" lon="2.67519">
        <ele>710.48</ele>
        <time>2022-08-17T10:15:27Z</time>
      </trkpt>
      <trkpt lat="45.37305" lon="2.67553">
        <ele>707.92</ele>
        <time>2022-08-17T10:15:30Z</time>
      </trkpt>
      <trkpt lat="45.37289" lon="2.6759">
        <ele>706.12</ele>
        <time>2022-08-17T10:15:34Z</time>
      </trkpt>
      <trkpt lat="45.37284" lon="2.67597">
        <ele>704.59</ele>
        <time>2022-08-17T10:15:35Z</time>
      </trkpt>
      <trkpt lat="45.37279" lon="2.67603">
        <ele>703.8</ele>
        <time>2022-08-17T10:15:36Z</time>
      </trkpt>
      <trkpt lat="45.37273" lon="2.67608">
        <ele>703.8</ele>
        <time>2022-08-17T10:15:37Z</time>
      </trkpt>
      <trkpt lat="45.37255" lon="2.67625">
        <ele>701.95</ele>
        <time>2022-08-17T10:15:40Z</time>
      </trkpt>
      <trkpt lat="45.37249" lon="2.67634">
        <ele>701.97</ele>
        <time>2022-08-17T10:15:41Z</time>
      </trkpt>
      <trkpt lat="45.37244" lon="2.67645">
        <ele>701.99</ele>
        <time>2022-08-17T10:15:42Z</time>
      </trkpt>
      <trkpt lat="45.37227" lon="2.67675">
        <ele>701.1</ele>
        <time>2022-08-17T10:15:45Z</time>
      </trkpt>
      <trkpt lat="45.37221" lon="2.67682">
        <ele>701.13</ele>
        <time>2022-08-17T10:15:46Z</time>
      </trkpt>
      <trkpt lat="45.37215" lon="2.67687">
        <ele>700.23</ele>
        <time>2022-08-17T10:15:47Z</time>
      </trkpt>
      <trkpt lat="45.37195" lon="2.67697">
        <ele>700.21</ele>
        <time>2022-08-17T10:15:50Z</time>
      </trkpt>
      <trkpt lat="45.37188" lon="2.67703">
        <ele>700.24</ele>
        <time>2022-08-17T10:15:51Z</time>
      </trkpt>
      <trkpt lat="45.37181" lon="2.67711">
        <ele>700.25</ele>
        <time>2022-08-17T10:15:52Z</time>
      </trkpt>
      <trkpt lat="45.37166" lon="2.67731">
        <ele>699.74</ele>
        <time>2022-08-17T10:15:54Z</time>
      </trkpt>
      <trkpt lat="45.37156" lon="2.6774">
        <ele>699.71</ele>
        <time>2022-08-17T10:15:55Z</time>
      </trkpt>
      <trkpt lat="45.37146" lon="2.67749">
        <ele>698.27</ele>
        <time>2022-08-17T10:15:56Z</time>
      </trkpt>
      <trkpt lat="45.37127" lon="2.67763">
        <ele>696.18</ele>
        <time>2022-08-17T10:15:58Z</time>
      </trkpt>
      <trkpt lat="45.37117" lon="2.67768">
        <ele>696.18</ele>
        <time>2022-08-17T10:15:59Z</time>
      </trkpt>
      <trkpt lat="45.37106" lon="2.67769">
        <ele>694.59</ele>
        <time>2022-08-17T10:16:00Z</time>
      </trkpt>
      <trkpt lat="45.37096" lon="2.67768">
        <ele>694.54</ele>
        <time>2022-08-17T10:16:01Z</time>
      </trkpt>
      <trkpt lat="45.37086" lon="2.67767">
        <ele>692.89</ele>
        <time>2022-08-17T10:16:02Z</time>
      </trkpt>
      <trkpt lat="45.37075" lon="2.67766">
        <ele>692.84</ele>
        <time>2022-08-17T10:16:03Z</time>
      </trkpt>
      <trkpt lat="45.37064" lon="2.67768">
        <ele>692.84</ele>
        <time>2022-08-17T10:16:04Z</time>
      </trkpt>
      <trkpt lat="45.3705" lon="2.67771">
        <ele>692.79</ele>
        <time>2022-08-17T10:16:05Z</time>
      </trkpt>
      <trkpt lat="45.37009" lon="2.67784">
        <ele>690.54</ele>
        <time>2022-08-17T10:16:08Z</time>
      </trkpt>
      <trkpt lat="45.36984" lon="2.67791">
        <ele>688.86</ele>
        <time>2022-08-17T10:16:10Z</time>
      </trkpt>
      <trkpt lat="45.36973" lon="2.67791">
        <ele>687.93</ele>
        <time>2022-08-17T10:16:11Z</time>
      </trkpt>
      <trkpt lat="45.36962" lon="2.67787">
        <ele>687.9</ele>
        <time>2022-08-17T10:16:12Z</time>
      </trkpt>
      <trkpt lat="45.36952" lon="2.6778">
        <ele>687.9</ele>
        <time>2022-08-17T10:16:13Z</time>
      </trkpt>
      <trkpt lat="45.36942" lon="2.67769">
        <ele>687.9</ele>
        <time>2022-08-17T10:16:14Z</time>
      </trkpt>
      <trkpt lat="45.36931" lon="2.67756">
        <ele>687.9</ele>
        <time>2022-08-17T10:16:15Z</time>
      </trkpt>
      <trkpt lat="45.36921" lon="2.67743">
        <ele>688.01</ele>
        <time>2022-08-17T10:16:16Z</time>
      </trkpt>
      <trkpt lat="45.36885" lon="2.67701">
        <ele>688.43</ele>
        <time>2022-08-17T10:16:20Z</time>
      </trkpt>
      <trkpt lat="45.36877" lon="2.67697">
        <ele>688.44</ele>
        <time>2022-08-17T10:16:21Z</time>
      </trkpt>
      <trkpt lat="45.36867" lon="2.67694">
        <ele>688.44</ele>
        <time>2022-08-17T10:16:22Z</time>
      </trkpt>
      <trkpt lat="45.36857" lon="2.67695">
        <ele>688.44</ele>
        <time>2022-08-17T10:16:23Z</time>
      </trkpt>
      <trkpt lat="45.36846" lon="2.67697">
        <ele>688.44</ele>
        <time>2022-08-17T10:16:24Z</time>
      </trkpt>
      <trkpt lat="45.36835" lon="2.67703">
        <ele>688.44</ele>
        <time>2022-08-17T10:16:25Z</time>
      </trkpt>
      <trkpt lat="45.36825" lon="2.67708">
        <ele>688.42</ele>
        <time>2022-08-17T10:16:26Z</time>
      </trkpt>
      <trkpt lat="45.36814" lon="2.67709">
        <ele>688.42</ele>
        <time>2022-08-17T10:16:27Z</time>
      </trkpt>
      <trkpt lat="45.36803" lon="2.67708">
        <ele>688.42</ele>
        <time>2022-08-17T10:16:28Z</time>
      </trkpt>
      <trkpt lat="45.36793" lon="2.67705">
        <ele>688.41</ele>
        <time>2022-08-17T10:16:29Z</time>
      </trkpt>
      <trkpt lat="45.36783" lon="2.67703">
        <ele>687.06</ele>
        <time>2022-08-17T10:16:30Z</time>
      </trkpt>
      <trkpt lat="45.36773" lon="2.677">
        <ele>687.05</ele>
        <time>2022-08-17T10:16:31Z</time>
      </trkpt>
      <trkpt lat="45.36764" lon="2.67699">
        <ele>687.02</ele>
        <time>2022-08-17T10:16:32Z</time>
      </trkpt>
      <trkpt lat="45.36755" lon="2.67699">
        <ele>686.14</ele>
        <time>2022-08-17T10:16:33Z</time>
      </trkpt>
      <trkpt lat="45.36747" lon="2.67701">
        <ele>686.1</ele>
        <time>2022-08-17T10:16:34Z</time>
      </trkpt>
      <trkpt lat="45.36738" lon="2.67705">
        <ele>686.12</ele>
        <time>2022-08-17T10:16:35Z</time>
      </trkpt>
      <trkpt lat="45.36728" lon="2.67712">
        <ele>686.1</ele>
        <time>2022-08-17T10:16:36Z</time>
      </trkpt>
      <trkpt lat="45.36718" lon="2.67721">
        <ele>686.11</ele>
        <time>2022-08-17T10:16:37Z</time>
      </trkpt>
      <trkpt lat="45.36677" lon="2.67751">
        <ele>685.24</ele>
        <time>2022-08-17T10:16:41Z</time>
      </trkpt>
      <trkpt lat="45.36659" lon="2.67772">
        <ele>683.67</ele>
        <time>2022-08-17T10:16:43Z</time>
      </trkpt>
      <trkpt lat="45.3665" lon="2.67782">
        <ele>683.67</ele>
        <time>2022-08-17T10:16:44Z</time>
      </trkpt>
      <trkpt lat="45.36641" lon="2.6779">
        <ele>683.64</ele>
        <time>2022-08-17T10:16:45Z</time>
      </trkpt>
      <trkpt lat="45.36631" lon="2.67795">
        <ele>683.67</ele>
        <time>2022-08-17T10:16:46Z</time>
      </trkpt>
      <trkpt lat="45.36621" lon="2.67792">
        <ele>683.64</ele>
        <time>2022-08-17T10:16:47Z</time>
      </trkpt>
      <trkpt lat="45.36609" lon="2.67792">
        <ele>683.62</ele>
        <time>2022-08-17T10:16:48Z</time>
      </trkpt>
      <trkpt lat="45.36598" lon="2.6779">
        <ele>682.85</ele>
        <time>2022-08-17T10:16:49Z</time>
      </trkpt>
      <trkpt lat="45.36586" lon="2.67787">
        <ele>682.82</ele>
        <time>2022-08-17T10:16:50Z</time>
      </trkpt>
      <trkpt lat="45.36545" lon="2.67777">
        <ele>681.26</ele>
        <time>2022-08-17T10:16:54Z</time>
      </trkpt>
      <trkpt lat="45.36533" lon="2.67777">
        <ele>681.25</ele>
        <time>2022-08-17T10:16:55Z</time>
      </trkpt>
      <trkpt lat="45.36521" lon="2.67779">
        <ele>681.25</ele>
        <time>2022-08-17T10:16:56Z</time>
      </trkpt>
      <trkpt lat="45.36447" lon="2.67799">
        <ele>680.23</ele>
        <time>2022-08-17T10:17:02Z</time>
      </trkpt>
      <trkpt lat="45.36428" lon="2.67808">
        <ele>679.15</ele>
        <time>2022-08-17T10:17:04Z</time>
      </trkpt>
      <trkpt lat="45.36417" lon="2.6781">
        <ele>677.4</ele>
        <time>2022-08-17T10:17:05Z</time>
      </trkpt>
      <trkpt lat="45.36406" lon="2.67812">
        <ele>677.28</ele>
        <time>2022-08-17T10:17:06Z</time>
      </trkpt>
      <trkpt lat="45.36358" lon="2.6782">
        <ele>673.38</ele>
        <time>2022-08-17T10:17:10Z</time>
      </trkpt>
      <trkpt lat="45.36322" lon="2.67828">
        <ele>670.69</ele>
        <time>2022-08-17T10:17:13Z</time>
      </trkpt>
      <trkpt lat="45.36311" lon="2.67832">
        <ele>669.49</ele>
        <time>2022-08-17T10:17:14Z</time>
      </trkpt>
      <trkpt lat="45.36298" lon="2.67837">
        <ele>668.53</ele>
        <time>2022-08-17T10:17:15Z</time>
      </trkpt>
      <trkpt lat="45.3626" lon="2.67858">
        <ele>664.95</ele>
        <time>2022-08-17T10:17:18Z</time>
      </trkpt>
      <trkpt lat="45.36226" lon="2.67884">
        <ele>661.61</ele>
        <time>2022-08-17T10:17:21Z</time>
      </trkpt>
      <trkpt lat="45.36193" lon="2.67904">
        <ele>658.12</ele>
        <time>2022-08-17T10:17:24Z</time>
      </trkpt>
      <trkpt lat="45.36183" lon="2.67911">
        <ele>658.11</ele>
        <time>2022-08-17T10:17:25Z</time>
      </trkpt>
      <trkpt lat="45.36174" lon="2.6792">
        <ele>658.04</ele>
        <time>2022-08-17T10:17:26Z</time>
      </trkpt>
      <trkpt lat="45.36157" lon="2.6794">
        <ele>655.98</ele>
        <time>2022-08-17T10:17:28Z</time>
      </trkpt>
      <trkpt lat="45.36131" lon="2.67966">
        <ele>653.08</ele>
        <time>2022-08-17T10:17:31Z</time>
      </trkpt>
      <trkpt lat="45.36122" lon="2.67972">
        <ele>652.89</ele>
        <time>2022-08-17T10:17:32Z</time>
      </trkpt>
      <trkpt lat="45.36105" lon="2.67981">
        <ele>651.59</ele>
        <time>2022-08-17T10:17:34Z</time>
      </trkpt>
      <trkpt lat="45.36096" lon="2.67983">
        <ele>650.38</ele>
        <time>2022-08-17T10:17:35Z</time>
      </trkpt>
      <trkpt lat="45.36087" lon="2.67984">
        <ele>650.38</ele>
        <time>2022-08-17T10:17:36Z</time>
      </trkpt>
      <trkpt lat="45.36078" lon="2.67985">
        <ele>649.04</ele>
        <time>2022-08-17T10:17:37Z</time>
      </trkpt>
      <trkpt lat="45.36068" lon="2.67986">
        <ele>649.04</ele>
        <time>2022-08-17T10:17:38Z</time>
      </trkpt>
      <trkpt lat="45.36059" lon="2.67986">
        <ele>647.05</ele>
        <time>2022-08-17T10:17:39Z</time>
      </trkpt>
      <trkpt lat="45.3605" lon="2.67981">
        <ele>647.13</ele>
        <time>2022-08-17T10:17:40Z</time>
      </trkpt>
      <trkpt lat="45.36041" lon="2.67975">
        <ele>645.63</ele>
        <time>2022-08-17T10:17:41Z</time>
      </trkpt>
      <trkpt lat="45.36031" lon="2.67966">
        <ele>645.64</ele>
        <time>2022-08-17T10:17:42Z</time>
      </trkpt>
      <trkpt lat="45.36024" lon="2.67956">
        <ele>643.62</ele>
        <time>2022-08-17T10:17:43Z</time>
      </trkpt>
      <trkpt lat="45.36017" lon="2.67949">
        <ele>643.64</ele>
        <time>2022-08-17T10:17:44Z</time>
      </trkpt>
      <trkpt lat="45.3601" lon="2.67942">
        <ele>642.23</ele>
        <time>2022-08-17T10:17:45Z</time>
      </trkpt>
      <trkpt lat="45.36002" lon="2.67938">
        <ele>642.22</ele>
        <time>2022-08-17T10:17:46Z</time>
      </trkpt>
      <trkpt lat="45.35989" lon="2.67936">
        <ele>642.15</ele>
        <time>2022-08-17T10:17:47Z</time>
      </trkpt>
      <trkpt lat="45.3595" lon="2.67929">
        <ele>639.71</ele>
        <time>2022-08-17T10:17:50Z</time>
      </trkpt>
      <trkpt lat="45.35927" lon="2.67929">
        <ele>637.41</ele>
        <time>2022-08-17T10:17:52Z</time>
      </trkpt>
      <trkpt lat="45.35895" lon="2.67924">
        <ele>632.92</ele>
        <time>2022-08-17T10:17:55Z</time>
      </trkpt>
      <trkpt lat="45.35885" lon="2.67921">
        <ele>632.93</ele>
        <time>2022-08-17T10:17:56Z</time>
      </trkpt>
      <trkpt lat="45.35869" lon="2.67915">
        <ele>631.69</ele>
        <time>2022-08-17T10:17:58Z</time>
      </trkpt>
      <trkpt lat="45.35863" lon="2.67914">
        <ele>631.62</ele>
        <time>2022-08-17T10:17:59Z</time>
      </trkpt>
      <trkpt lat="45.35856" lon="2.67914">
        <ele>630.22</ele>
        <time>2022-08-17T10:18:00Z</time>
      </trkpt>
      <trkpt lat="45.35851" lon="2.67919">
        <ele>630.22</ele>
        <time>2022-08-17T10:18:01Z</time>
      </trkpt>
      <trkpt lat="45.35846" lon="2.67925">
        <ele>630.14</ele>
        <time>2022-08-17T10:18:02Z</time>
      </trkpt>
      <trkpt lat="45.35841" lon="2.67935">
        <ele>630.15</ele>
        <time>2022-08-17T10:18:03Z</time>
      </trkpt>
      <trkpt lat="45.35838" lon="2.67947">
        <ele>628.91</ele>
        <time>2022-08-17T10:18:04Z</time>
      </trkpt>
      <trkpt lat="45.35834" lon="2.67962">
        <ele>628.91</ele>
        <time>2022-08-17T10:18:05Z</time>
      </trkpt>
      <trkpt lat="45.35829" lon="2.67977">
        <ele>628.92</ele>
        <time>2022-08-17T10:18:06Z</time>
      </trkpt>
      <trkpt lat="45.35823" lon="2.67992">
        <ele>627.41</ele>
        <time>2022-08-17T10:18:07Z</time>
      </trkpt>
      <trkpt lat="45.35815" lon="2.68006">
        <ele>627.4</ele>
        <time>2022-08-17T10:18:08Z</time>
      </trkpt>
      <trkpt lat="45.35808" lon="2.6802">
        <ele>626.31</ele>
        <time>2022-08-17T10:18:09Z</time>
      </trkpt>
      <trkpt lat="45.35801" lon="2.68032">
        <ele>625.38</ele>
        <time>2022-08-17T10:18:10Z</time>
      </trkpt>
      <trkpt lat="45.35793" lon="2.68042">
        <ele>623.73</ele>
        <time>2022-08-17T10:18:11Z</time>
      </trkpt>
      <trkpt lat="45.35787" lon="2.68053">
        <ele>622.55</ele>
        <time>2022-08-17T10:18:12Z</time>
      </trkpt>
      <trkpt lat="45.35783" lon="2.68065">
        <ele>622.56</ele>
        <time>2022-08-17T10:18:13Z</time>
      </trkpt>
      <trkpt lat="45.35781" lon="2.68079">
        <ele>621.31</ele>
        <time>2022-08-17T10:18:14Z</time>
      </trkpt>
      <trkpt lat="45.3578" lon="2.68094">
        <ele>621.28</ele>
        <time>2022-08-17T10:18:15Z</time>
      </trkpt>
      <trkpt lat="45.35777" lon="2.6811">
        <ele>620.17</ele>
        <time>2022-08-17T10:18:16Z</time>
      </trkpt>
      <trkpt lat="45.35773" lon="2.68123">
        <ele>619.28</ele>
        <time>2022-08-17T10:18:17Z</time>
      </trkpt>
      <trkpt lat="45.35767" lon="2.68135">
        <ele>619.27</ele>
        <time>2022-08-17T10:18:18Z</time>
      </trkpt>
      <trkpt lat="45.3576" lon="2.68146">
        <ele>617.25</ele>
        <time>2022-08-17T10:18:19Z</time>
      </trkpt>
      <trkpt lat="45.35754" lon="2.68159">
        <ele>616.53</ele>
        <time>2022-08-17T10:18:20Z</time>
      </trkpt>
      <trkpt lat="45.35749" lon="2.68173">
        <ele>616.46</ele>
        <time>2022-08-17T10:18:21Z</time>
      </trkpt>
      <trkpt lat="45.35745" lon="2.68187">
        <ele>616.43</ele>
        <time>2022-08-17T10:18:22Z</time>
      </trkpt>
      <trkpt lat="45.35741" lon="2.68202">
        <ele>615.03</ele>
        <time>2022-08-17T10:18:23Z</time>
      </trkpt>
      <trkpt lat="45.35737" lon="2.68216">
        <ele>615.02</ele>
        <time>2022-08-17T10:18:24Z</time>
      </trkpt>
      <trkpt lat="45.35734" lon="2.68231">
        <ele>613.96</ele>
        <time>2022-08-17T10:18:25Z</time>
      </trkpt>
      <trkpt lat="45.35732" lon="2.68246">
        <ele>613.92</ele>
        <time>2022-08-17T10:18:26Z</time>
      </trkpt>
      <trkpt lat="45.35728" lon="2.68276">
        <ele>613.86</ele>
        <time>2022-08-17T10:18:28Z</time>
      </trkpt>
      <trkpt lat="45.35728" lon="2.6829">
        <ele>613.89</ele>
        <time>2022-08-17T10:18:29Z</time>
      </trkpt>
      <trkpt lat="45.35728" lon="2.68302">
        <ele>612.39</ele>
        <time>2022-08-17T10:18:30Z</time>
      </trkpt>
      <trkpt lat="45.35728" lon="2.68313">
        <ele>612.37</ele>
        <time>2022-08-17T10:18:31Z</time>
      </trkpt>
      <trkpt lat="45.35727" lon="2.68323">
        <ele>612.86</ele>
        <time>2022-08-17T10:18:32Z</time>
      </trkpt>
      <trkpt lat="45.35724" lon="2.68331">
        <ele>612.86</ele>
        <time>2022-08-17T10:18:33Z</time>
      </trkpt>
      <trkpt lat="45.35721" lon="2.68338">
        <ele>612.8</ele>
        <time>2022-08-17T10:18:34Z</time>
      </trkpt>
      <trkpt lat="45.35716" lon="2.68344">
        <ele>612.8</ele>
        <time>2022-08-17T10:18:35Z</time>
      </trkpt>
      <trkpt lat="45.35711" lon="2.68349">
        <ele>612.76</ele>
        <time>2022-08-17T10:18:36Z</time>
      </trkpt>
      <trkpt lat="45.35706" lon="2.68352">
        <ele>612.77</ele>
        <time>2022-08-17T10:18:37Z</time>
      </trkpt>
      <trkpt lat="45.35679" lon="2.68375">
        <ele>612.79</ele>
        <time>2022-08-17T10:18:41Z</time>
      </trkpt>
      <trkpt lat="45.35668" lon="2.68379">
        <ele>615.45</ele>
        <time>2022-08-17T10:18:42Z</time>
      </trkpt>
      <trkpt lat="45.35656" lon="2.68382">
        <ele>616.8</ele>
        <time>2022-08-17T10:18:43Z</time>
      </trkpt>
      <trkpt lat="45.35642" lon="2.68382">
        <ele>618.09</ele>
        <time>2022-08-17T10:18:44Z</time>
      </trkpt>
      <trkpt lat="45.35628" lon="2.68379">
        <ele>619.22</ele>
        <time>2022-08-17T10:18:45Z</time>
      </trkpt>
      <trkpt lat="45.35613" lon="2.68376">
        <ele>620.72</ele>
        <time>2022-08-17T10:18:46Z</time>
      </trkpt>
      <trkpt lat="45.35599" lon="2.68372">
        <ele>620.75</ele>
        <time>2022-08-17T10:18:47Z</time>
      </trkpt>
      <trkpt lat="45.35562" lon="2.68362">
        <ele>621.79</ele>
        <time>2022-08-17T10:18:50Z</time>
      </trkpt>
      <trkpt lat="45.3555" lon="2.68363">
        <ele>623.16</ele>
        <time>2022-08-17T10:18:51Z</time>
      </trkpt>
      <trkpt lat="45.35539" lon="2.68368">
        <ele>623.21</ele>
        <time>2022-08-17T10:18:52Z</time>
      </trkpt>
      <trkpt lat="45.35528" lon="2.68379">
        <ele>624.68</ele>
        <time>2022-08-17T10:18:53Z</time>
      </trkpt>
      <trkpt lat="45.35519" lon="2.68394">
        <ele>626.06</ele>
        <time>2022-08-17T10:18:54Z</time>
      </trkpt>
      <trkpt lat="45.3551" lon="2.68408">
        <ele>626.17</ele>
        <time>2022-08-17T10:18:55Z</time>
      </trkpt>
      <trkpt lat="45.35487" lon="2.68449">
        <ele>629.44</ele>
        <time>2022-08-17T10:18:58Z</time>
      </trkpt>
      <trkpt lat="45.3548" lon="2.68463">
        <ele>629.51</ele>
        <time>2022-08-17T10:18:59Z</time>
      </trkpt>
      <trkpt lat="45.35448" lon="2.68537">
        <ele>632.32</ele>
        <time>2022-08-17T10:19:04Z</time>
      </trkpt>
      <trkpt lat="45.35399" lon="2.68626">
        <ele>633.7</ele>
        <time>2022-08-17T10:19:12Z</time>
      </trkpt>
      <trkpt lat="45.35395" lon="2.68638">
        <ele>633.68</ele>
        <time>2022-08-17T10:19:13Z</time>
      </trkpt>
      <trkpt lat="45.35392" lon="2.68651">
        <ele>633.69</ele>
        <time>2022-08-17T10:19:14Z</time>
      </trkpt>
      <trkpt lat="45.35389" lon="2.68665">
        <ele>633.67</ele>
        <time>2022-08-17T10:19:15Z</time>
      </trkpt>
      <trkpt lat="45.35387" lon="2.68679">
        <ele>633.7</ele>
        <time>2022-08-17T10:19:16Z</time>
      </trkpt>
      <trkpt lat="45.35386" lon="2.68729">
        <ele>634.48</ele>
        <time>2022-08-17T10:19:19Z</time>
      </trkpt>
      <trkpt lat="45.35388" lon="2.68746">
        <ele>635.82</ele>
        <time>2022-08-17T10:19:20Z</time>
      </trkpt>
      <trkpt lat="45.3539" lon="2.68761">
        <ele>635.79</ele>
        <time>2022-08-17T10:19:21Z</time>
      </trkpt>
      <trkpt lat="45.3539" lon="2.68777">
        <ele>635.72</ele>
        <time>2022-08-17T10:19:22Z</time>
      </trkpt>
      <trkpt lat="45.35388" lon="2.68793">
        <ele>637.4</ele>
        <time>2022-08-17T10:19:23Z</time>
      </trkpt>
      <trkpt lat="45.35383" lon="2.68807">
        <ele>637.42</ele>
        <time>2022-08-17T10:19:24Z</time>
      </trkpt>
      <trkpt lat="45.35376" lon="2.68819">
        <ele>637.42</ele>
        <time>2022-08-17T10:19:25Z</time>
      </trkpt>
      <trkpt lat="45.35367" lon="2.68828">
        <ele>638.57</ele>
        <time>2022-08-17T10:19:26Z</time>
      </trkpt>
      <trkpt lat="45.35358" lon="2.68836">
        <ele>639.33</ele>
        <time>2022-08-17T10:19:27Z</time>
      </trkpt>
      <trkpt lat="45.35347" lon="2.68837">
        <ele>639.52</ele>
        <time>2022-08-17T10:19:28Z</time>
      </trkpt>
      <trkpt lat="45.35335" lon="2.6884">
        <ele>640.67</ele>
        <time>2022-08-17T10:19:29Z</time>
      </trkpt>
      <trkpt lat="45.35323" lon="2.68844">
        <ele>642.45</ele>
        <time>2022-08-17T10:19:30Z</time>
      </trkpt>
      <trkpt lat="45.35311" lon="2.68853">
        <ele>643.79</ele>
        <time>2022-08-17T10:19:31Z</time>
      </trkpt>
      <trkpt lat="45.35299" lon="2.68862">
        <ele>643.8</ele>
        <time>2022-08-17T10:19:32Z</time>
      </trkpt>
      <trkpt lat="45.3529" lon="2.68871">
        <ele>644.69</ele>
        <time>2022-08-17T10:19:33Z</time>
      </trkpt>
      <trkpt lat="45.35283" lon="2.68881">
        <ele>644.69</ele>
        <time>2022-08-17T10:19:34Z</time>
      </trkpt>
      <trkpt lat="45.35281" lon="2.68893">
        <ele>644.77</ele>
        <time>2022-08-17T10:19:35Z</time>
      </trkpt>
      <trkpt lat="45.35281" lon="2.68906">
        <ele>645.98</ele>
        <time>2022-08-17T10:19:36Z</time>
      </trkpt>
      <trkpt lat="45.35284" lon="2.6892">
        <ele>646.9</ele>
        <time>2022-08-17T10:19:37Z</time>
      </trkpt>
      <trkpt lat="45.35289" lon="2.68937">
        <ele>647.78</ele>
        <time>2022-08-17T10:19:38Z</time>
      </trkpt>
      <trkpt lat="45.35301" lon="2.68976">
        <ele>651.38</ele>
        <time>2022-08-17T10:19:40Z</time>
      </trkpt>
      <trkpt lat="45.35322" lon="2.69046">
        <ele>655.78</ele>
        <time>2022-08-17T10:19:43Z</time>
      </trkpt>
      <trkpt lat="45.35342" lon="2.69112">
        <ele>658.36</ele>
        <time>2022-08-17T10:19:46Z</time>
      </trkpt>
      <trkpt lat="45.35351" lon="2.69151">
        <ele>659.82</ele>
        <time>2022-08-17T10:19:48Z</time>
      </trkpt>
      <trkpt lat="45.35351" lon="2.6917">
        <ele>659.9</ele>
        <time>2022-08-17T10:19:49Z</time>
      </trkpt>
      <trkpt lat="45.35348" lon="2.69187">
        <ele>660.82</ele>
        <time>2022-08-17T10:19:50Z</time>
      </trkpt>
      <trkpt lat="45.35341" lon="2.69202">
        <ele>660.9</ele>
        <time>2022-08-17T10:19:51Z</time>
      </trkpt>
      <trkpt lat="45.35334" lon="2.69214">
        <ele>661.69</ele>
        <time>2022-08-17T10:19:52Z</time>
      </trkpt>
      <trkpt lat="45.35328" lon="2.69227">
        <ele>661.77</ele>
        <time>2022-08-17T10:19:53Z</time>
      </trkpt>
      <trkpt lat="45.35325" lon="2.6924">
        <ele>661.76</ele>
        <time>2022-08-17T10:19:54Z</time>
      </trkpt>
      <trkpt lat="45.35326" lon="2.69253">
        <ele>662.78</ele>
        <time>2022-08-17T10:19:55Z</time>
      </trkpt>
      <trkpt lat="45.35331" lon="2.69266">
        <ele>663.96</ele>
        <time>2022-08-17T10:19:56Z</time>
      </trkpt>
      <trkpt lat="45.35338" lon="2.69279">
        <ele>663.99</ele>
        <time>2022-08-17T10:19:57Z</time>
      </trkpt>
      <trkpt lat="45.35353" lon="2.69317">
        <ele>666.31</ele>
        <time>2022-08-17T10:20:00Z</time>
      </trkpt>
      <trkpt lat="45.35354" lon="2.6933">
        <ele>667.54</ele>
        <time>2022-08-17T10:20:01Z</time>
      </trkpt>
      <trkpt lat="45.35349" lon="2.6934">
        <ele>667.58</ele>
        <time>2022-08-17T10:20:02Z</time>
      </trkpt>
      <trkpt lat="45.35343" lon="2.69349">
        <ele>669</ele>
        <time>2022-08-17T10:20:03Z</time>
      </trkpt>
      <trkpt lat="45.35333" lon="2.69355">
        <ele>669.9</ele>
        <time>2022-08-17T10:20:04Z</time>
      </trkpt>
      <trkpt lat="45.35321" lon="2.69357">
        <ele>670.91</ele>
        <time>2022-08-17T10:20:05Z</time>
      </trkpt>
      <trkpt lat="45.3531" lon="2.6936">
        <ele>670.91</ele>
        <time>2022-08-17T10:20:06Z</time>
      </trkpt>
      <trkpt lat="45.35299" lon="2.69367">
        <ele>672.07</ele>
        <time>2022-08-17T10:20:07Z</time>
      </trkpt>
      <trkpt lat="45.35288" lon="2.69376">
        <ele>672.07</ele>
        <time>2022-08-17T10:20:08Z</time>
      </trkpt>
      <trkpt lat="45.35277" lon="2.69384">
        <ele>672.04</ele>
        <time>2022-08-17T10:20:09Z</time>
      </trkpt>
      <trkpt lat="45.35266" lon="2.69392">
        <ele>673.1</ele>
        <time>2022-08-17T10:20:10Z</time>
      </trkpt>
      <trkpt lat="45.35258" lon="2.69402">
        <ele>673.09</ele>
        <time>2022-08-17T10:20:11Z</time>
      </trkpt>
      <trkpt lat="45.35252" lon="2.69416">
        <ele>674.66</ele>
        <time>2022-08-17T10:20:12Z</time>
      </trkpt>
      <trkpt lat="45.35249" lon="2.69434">
        <ele>674.73</ele>
        <time>2022-08-17T10:20:13Z</time>
      </trkpt>
      <trkpt lat="45.35247" lon="2.69453">
        <ele>676.53</ele>
        <time>2022-08-17T10:20:14Z</time>
      </trkpt>
      <trkpt lat="45.35247" lon="2.69475">
        <ele>678.03</ele>
        <time>2022-08-17T10:20:15Z</time>
      </trkpt>
      <trkpt lat="45.35248" lon="2.69497">
        <ele>679.37</ele>
        <time>2022-08-17T10:20:16Z</time>
      </trkpt>
      <trkpt lat="45.35249" lon="2.69518">
        <ele>680.47</ele>
        <time>2022-08-17T10:20:17Z</time>
      </trkpt>
      <trkpt lat="45.35253" lon="2.6954">
        <ele>681.59</ele>
        <time>2022-08-17T10:20:18Z</time>
      </trkpt>
      <trkpt lat="45.35257" lon="2.6956">
        <ele>681.67</ele>
        <time>2022-08-17T10:20:19Z</time>
      </trkpt>
      <trkpt lat="45.35261" lon="2.69581">
        <ele>683.1</ele>
        <time>2022-08-17T10:20:20Z</time>
      </trkpt>
      <trkpt lat="45.35263" lon="2.69601">
        <ele>683.16</ele>
        <time>2022-08-17T10:20:21Z</time>
      </trkpt>
      <trkpt lat="45.35268" lon="2.69636">
        <ele>684.54</ele>
        <time>2022-08-17T10:20:23Z</time>
      </trkpt>
      <trkpt lat="45.35273" lon="2.69652">
        <ele>685.92</ele>
        <time>2022-08-17T10:20:24Z</time>
      </trkpt>
      <trkpt lat="45.35279" lon="2.69668">
        <ele>686.85</ele>
        <time>2022-08-17T10:20:25Z</time>
      </trkpt>
      <trkpt lat="45.35285" lon="2.69683">
        <ele>686.93</ele>
        <time>2022-08-17T10:20:26Z</time>
      </trkpt>
      <trkpt lat="45.35296" lon="2.69712">
        <ele>687.99</ele>
        <time>2022-08-17T10:20:28Z</time>
      </trkpt>
      <trkpt lat="45.35299" lon="2.69728">
        <ele>689.1</ele>
        <time>2022-08-17T10:20:29Z</time>
      </trkpt>
      <trkpt lat="45.35301" lon="2.69744">
        <ele>689.17</ele>
        <time>2022-08-17T10:20:30Z</time>
      </trkpt>
      <trkpt lat="45.35293" lon="2.69763">
        <ele>690.76</ele>
        <time>2022-08-17T10:20:31Z</time>
      </trkpt>
      <trkpt lat="45.35285" lon="2.69783">
        <ele>692.09</ele>
        <time>2022-08-17T10:20:32Z</time>
      </trkpt>
      <trkpt lat="45.35261" lon="2.69846">
        <ele>694.26</ele>
        <time>2022-08-17T10:20:35Z</time>
      </trkpt>
      <trkpt lat="45.35248" lon="2.69893">
        <ele>695.51</ele>
        <time>2022-08-17T10:20:37Z</time>
      </trkpt>
      <trkpt lat="45.35233" lon="2.69935">
        <ele>695.57</ele>
        <time>2022-08-17T10:20:39Z</time>
      </trkpt>
      <trkpt lat="45.35225" lon="2.69952">
        <ele>695.56</ele>
        <time>2022-08-17T10:20:40Z</time>
      </trkpt>
      <trkpt lat="45.35218" lon="2.69968">
        <ele>695.61</ele>
        <time>2022-08-17T10:20:41Z</time>
      </trkpt>
      <trkpt lat="45.35214" lon="2.69981">
        <ele>695.59</ele>
        <time>2022-08-17T10:20:42Z</time>
      </trkpt>
      <trkpt lat="45.35213" lon="2.69994">
        <ele>695.58</ele>
        <time>2022-08-17T10:20:43Z</time>
      </trkpt>
      <trkpt lat="45.35217" lon="2.70007">
        <ele>696.68</ele>
        <time>2022-08-17T10:20:44Z</time>
      </trkpt>
      <trkpt lat="45.35223" lon="2.70021">
        <ele>696.66</ele>
        <time>2022-08-17T10:20:45Z</time>
      </trkpt>
      <trkpt lat="45.35229" lon="2.70036">
        <ele>698.03</ele>
        <time>2022-08-17T10:20:46Z</time>
      </trkpt>
      <trkpt lat="45.35234" lon="2.70053">
        <ele>699.43</ele>
        <time>2022-08-17T10:20:47Z</time>
      </trkpt>
      <trkpt lat="45.35237" lon="2.70074">
        <ele>699.47</ele>
        <time>2022-08-17T10:20:48Z</time>
      </trkpt>
      <trkpt lat="45.35239" lon="2.70097">
        <ele>701.66</ele>
        <time>2022-08-17T10:20:49Z</time>
      </trkpt>
      <trkpt lat="45.35241" lon="2.70174">
        <ele>703.72</ele>
        <time>2022-08-17T10:20:52Z</time>
      </trkpt>
      <trkpt lat="45.3524" lon="2.70266">
        <ele>703.61</ele>
        <time>2022-08-17T10:20:56Z</time>
      </trkpt>
      <trkpt lat="45.3523" lon="2.7033">
        <ele>704.91</ele>
        <time>2022-08-17T10:20:59Z</time>
      </trkpt>
      <trkpt lat="45.35223" lon="2.70361">
        <ele>704.52</ele>
        <time>2022-08-17T10:21:01Z</time>
      </trkpt>
      <trkpt lat="45.35224" lon="2.70374">
        <ele>704.52</ele>
        <time>2022-08-17T10:21:02Z</time>
      </trkpt>
      <trkpt lat="45.35228" lon="2.70385">
        <ele>704.52</ele>
        <time>2022-08-17T10:21:03Z</time>
      </trkpt>
      <trkpt lat="45.35236" lon="2.70396">
        <ele>704.51</ele>
        <time>2022-08-17T10:21:04Z</time>
      </trkpt>
      <trkpt lat="45.35243" lon="2.70408">
        <ele>704.53</ele>
        <time>2022-08-17T10:21:05Z</time>
      </trkpt>
      <trkpt lat="45.35248" lon="2.7042">
        <ele>704.55</ele>
        <time>2022-08-17T10:21:06Z</time>
      </trkpt>
      <trkpt lat="45.35253" lon="2.70436">
        <ele>705.3</ele>
        <time>2022-08-17T10:21:07Z</time>
      </trkpt>
      <trkpt lat="45.35253" lon="2.70452">
        <ele>706.74</ele>
        <time>2022-08-17T10:21:08Z</time>
      </trkpt>
      <trkpt lat="45.35249" lon="2.7047">
        <ele>707.81</ele>
        <time>2022-08-17T10:21:09Z</time>
      </trkpt>
      <trkpt lat="45.35247" lon="2.70488">
        <ele>707.83</ele>
        <time>2022-08-17T10:21:10Z</time>
      </trkpt>
      <trkpt lat="45.35241" lon="2.70504">
        <ele>707.86</ele>
        <time>2022-08-17T10:21:11Z</time>
      </trkpt>
      <trkpt lat="45.35235" lon="2.70518">
        <ele>707.85</ele>
        <time>2022-08-17T10:21:12Z</time>
      </trkpt>
      <trkpt lat="45.35231" lon="2.70532">
        <ele>709.38</ele>
        <time>2022-08-17T10:21:13Z</time>
      </trkpt>
      <trkpt lat="45.35229" lon="2.70547">
        <ele>709.34</ele>
        <time>2022-08-17T10:21:14Z</time>
      </trkpt>
      <trkpt lat="45.3523" lon="2.70563">
        <ele>709.34</ele>
        <time>2022-08-17T10:21:15Z</time>
      </trkpt>
      <trkpt lat="45.35233" lon="2.70579">
        <ele>710.89</ele>
        <time>2022-08-17T10:21:16Z</time>
      </trkpt>
      <trkpt lat="45.3524" lon="2.70593">
        <ele>710.94</ele>
        <time>2022-08-17T10:21:17Z</time>
      </trkpt>
      <trkpt lat="45.35249" lon="2.70604">
        <ele>712.32</ele>
        <time>2022-08-17T10:21:18Z</time>
      </trkpt>
      <trkpt lat="45.3526" lon="2.70614">
        <ele>713.31</ele>
        <time>2022-08-17T10:21:19Z</time>
      </trkpt>
      <trkpt lat="45.35272" lon="2.70621">
        <ele>713.35</ele>
        <time>2022-08-17T10:21:20Z</time>
      </trkpt>
      <trkpt lat="45.35285" lon="2.70626">
        <ele>714.4</ele>
        <time>2022-08-17T10:21:21Z</time>
      </trkpt>
      <trkpt lat="45.35297" lon="2.70633">
        <ele>714.46</ele>
        <time>2022-08-17T10:21:22Z</time>
      </trkpt>
      <trkpt lat="45.35309" lon="2.70643">
        <ele>715.36</ele>
        <time>2022-08-17T10:21:23Z</time>
      </trkpt>
      <trkpt lat="45.35321" lon="2.70654">
        <ele>715.44</ele>
        <time>2022-08-17T10:21:24Z</time>
      </trkpt>
      <trkpt lat="45.35368" lon="2.70702">
        <ele>717</ele>
        <time>2022-08-17T10:21:29Z</time>
      </trkpt>
      <trkpt lat="45.35379" lon="2.70707">
        <ele>719</ele>
        <time>2022-08-17T10:21:30Z</time>
      </trkpt>
      <trkpt lat="45.35392" lon="2.70712">
        <ele>719.91</ele>
        <time>2022-08-17T10:21:31Z</time>
      </trkpt>
      <trkpt lat="45.35434" lon="2.70728">
        <ele>723.51</ele>
        <time>2022-08-17T10:21:34Z</time>
      </trkpt>
      <trkpt lat="45.35448" lon="2.70735">
        <ele>724.55</ele>
        <time>2022-08-17T10:21:35Z</time>
      </trkpt>
      <trkpt lat="45.35462" lon="2.70744">
        <ele>724.6</ele>
        <time>2022-08-17T10:21:36Z</time>
      </trkpt>
      <trkpt lat="45.35485" lon="2.70763">
        <ele>725.86</ele>
        <time>2022-08-17T10:21:38Z</time>
      </trkpt>
      <trkpt lat="45.35493" lon="2.70773">
        <ele>725.9</ele>
        <time>2022-08-17T10:21:39Z</time>
      </trkpt>
      <trkpt lat="45.35498" lon="2.70783">
        <ele>725.94</ele>
        <time>2022-08-17T10:21:40Z</time>
      </trkpt>
      <trkpt lat="45.355" lon="2.70795">
        <ele>725.92</ele>
        <time>2022-08-17T10:21:41Z</time>
      </trkpt>
      <trkpt lat="45.355" lon="2.70805">
        <ele>725.81</ele>
        <time>2022-08-17T10:21:42Z</time>
      </trkpt>
      <trkpt lat="45.35497" lon="2.70814">
        <ele>725.84</ele>
        <time>2022-08-17T10:21:43Z</time>
      </trkpt>
      <trkpt lat="45.35489" lon="2.70821">
        <ele>727.17</ele>
        <time>2022-08-17T10:21:44Z</time>
      </trkpt>
      <trkpt lat="45.35481" lon="2.70829">
        <ele>727.22</ele>
        <time>2022-08-17T10:21:45Z</time>
      </trkpt>
      <trkpt lat="45.35472" lon="2.70838">
        <ele>728.32</ele>
        <time>2022-08-17T10:21:46Z</time>
      </trkpt>
      <trkpt lat="45.35465" lon="2.70849">
        <ele>728.37</ele>
        <time>2022-08-17T10:21:47Z</time>
      </trkpt>
      <trkpt lat="45.35459" lon="2.70864">
        <ele>729.3</ele>
        <time>2022-08-17T10:21:48Z</time>
      </trkpt>
      <trkpt lat="45.35457" lon="2.7088">
        <ele>730.11</ele>
        <time>2022-08-17T10:21:49Z</time>
      </trkpt>
      <trkpt lat="45.35457" lon="2.70898">
        <ele>731.01</ele>
        <time>2022-08-17T10:21:50Z</time>
      </trkpt>
      <trkpt lat="45.35457" lon="2.70916">
        <ele>731.04</ele>
        <time>2022-08-17T10:21:51Z</time>
      </trkpt>
      <trkpt lat="45.35455" lon="2.70932">
        <ele>732.48</ele>
        <time>2022-08-17T10:21:52Z</time>
      </trkpt>
      <trkpt lat="45.35451" lon="2.70948">
        <ele>732.47</ele>
        <time>2022-08-17T10:21:53Z</time>
      </trkpt>
      <trkpt lat="45.3545" lon="2.70965">
        <ele>733.34</ele>
        <time>2022-08-17T10:21:54Z</time>
      </trkpt>
      <trkpt lat="45.35451" lon="2.70982">
        <ele>733.38</ele>
        <time>2022-08-17T10:21:55Z</time>
      </trkpt>
      <trkpt lat="45.35454" lon="2.71">
        <ele>734.64</ele>
        <time>2022-08-17T10:21:56Z</time>
      </trkpt>
      <trkpt lat="45.3546" lon="2.71015">
        <ele>734.13</ele>
        <time>2022-08-17T10:21:57Z</time>
      </trkpt>
      <trkpt lat="45.35466" lon="2.71027">
        <ele>734.12</ele>
        <time>2022-08-17T10:21:58Z</time>
      </trkpt>
      <trkpt lat="45.35474" lon="2.71036">
        <ele>734.18</ele>
        <time>2022-08-17T10:21:59Z</time>
      </trkpt>
      <trkpt lat="45.35482" lon="2.71044">
        <ele>735.44</ele>
        <time>2022-08-17T10:22:00Z</time>
      </trkpt>
      <trkpt lat="45.3549" lon="2.71052">
        <ele>735.43</ele>
        <time>2022-08-17T10:22:01Z</time>
      </trkpt>
      <trkpt lat="45.35496" lon="2.71061">
        <ele>735.48</ele>
        <time>2022-08-17T10:22:02Z</time>
      </trkpt>
      <trkpt lat="45.355" lon="2.71072">
        <ele>735.46</ele>
        <time>2022-08-17T10:22:03Z</time>
      </trkpt>
      <trkpt lat="45.35499" lon="2.71085">
        <ele>735.44</ele>
        <time>2022-08-17T10:22:04Z</time>
      </trkpt>
      <trkpt lat="45.35494" lon="2.711">
        <ele>735.49</ele>
        <time>2022-08-17T10:22:05Z</time>
      </trkpt>
      <trkpt lat="45.35488" lon="2.71118">
        <ele>735.47</ele>
        <time>2022-08-17T10:22:06Z</time>
      </trkpt>
      <trkpt lat="45.35483" lon="2.71138">
        <ele>735.45</ele>
        <time>2022-08-17T10:22:07Z</time>
      </trkpt>
      <trkpt lat="45.35479" lon="2.71161">
        <ele>735.43</ele>
        <time>2022-08-17T10:22:08Z</time>
      </trkpt>
      <trkpt lat="45.35472" lon="2.71184">
        <ele>735.38</ele>
        <time>2022-08-17T10:22:09Z</time>
      </trkpt>
      <trkpt lat="45.35464" lon="2.71206">
        <ele>735.35</ele>
        <time>2022-08-17T10:22:10Z</time>
      </trkpt>
      <trkpt lat="45.3545" lon="2.71248">
        <ele>732.8</ele>
        <time>2022-08-17T10:22:12Z</time>
      </trkpt>
      <trkpt lat="45.35446" lon="2.71268">
        <ele>732.77</ele>
        <time>2022-08-17T10:22:13Z</time>
      </trkpt>
      <trkpt lat="45.35442" lon="2.71306">
        <ele>731.13</ele>
        <time>2022-08-17T10:22:15Z</time>
      </trkpt>
      <trkpt lat="45.35444" lon="2.71324">
        <ele>729.79</ele>
        <time>2022-08-17T10:22:16Z</time>
      </trkpt>
      <trkpt lat="45.35448" lon="2.71357">
        <ele>728.81</ele>
        <time>2022-08-17T10:22:18Z</time>
      </trkpt>
      <trkpt lat="45.35448" lon="2.71372">
        <ele>727.51</ele>
        <time>2022-08-17T10:22:19Z</time>
      </trkpt>
      <trkpt lat="45.35447" lon="2.71385">
        <ele>726.39</ele>
        <time>2022-08-17T10:22:20Z</time>
      </trkpt>
      <trkpt lat="45.35441" lon="2.71398">
        <ele>726.88</ele>
        <time>2022-08-17T10:22:21Z</time>
      </trkpt>
      <trkpt lat="45.35433" lon="2.71409">
        <ele>726.87</ele>
        <time>2022-08-17T10:22:22Z</time>
      </trkpt>
      <trkpt lat="45.35421" lon="2.71422">
        <ele>726.87</ele>
        <time>2022-08-17T10:22:23Z</time>
      </trkpt>
      <trkpt lat="45.35407" lon="2.71435">
        <ele>726.8</ele>
        <time>2022-08-17T10:22:24Z</time>
      </trkpt>
      <trkpt lat="45.35317" lon="2.71513">
        <ele>723.53</ele>
        <time>2022-08-17T10:22:30Z</time>
      </trkpt>
      <trkpt lat="45.35305" lon="2.71527">
        <ele>723.45</ele>
        <time>2022-08-17T10:22:31Z</time>
      </trkpt>
      <trkpt lat="45.35282" lon="2.71552">
        <ele>720.92</ele>
        <time>2022-08-17T10:22:33Z</time>
      </trkpt>
      <trkpt lat="45.35274" lon="2.71567">
        <ele>720.85</ele>
        <time>2022-08-17T10:22:34Z</time>
      </trkpt>
      <trkpt lat="45.35267" lon="2.71582">
        <ele>720.07</ele>
        <time>2022-08-17T10:22:35Z</time>
      </trkpt>
      <trkpt lat="45.35262" lon="2.71597">
        <ele>719.96</ele>
        <time>2022-08-17T10:22:36Z</time>
      </trkpt>
      <trkpt lat="45.35258" lon="2.71613">
        <ele>719.13</ele>
        <time>2022-08-17T10:22:37Z</time>
      </trkpt>
      <trkpt lat="45.35255" lon="2.71628">
        <ele>718.37</ele>
        <time>2022-08-17T10:22:38Z</time>
      </trkpt>
      <trkpt lat="45.35253" lon="2.71643">
        <ele>718.32</ele>
        <time>2022-08-17T10:22:39Z</time>
      </trkpt>
      <trkpt lat="45.35249" lon="2.71656">
        <ele>717.39</ele>
        <time>2022-08-17T10:22:40Z</time>
      </trkpt>
      <trkpt lat="45.35244" lon="2.71669">
        <ele>717.31</ele>
        <time>2022-08-17T10:22:41Z</time>
      </trkpt>
      <trkpt lat="45.35237" lon="2.7168">
        <ele>717.25</ele>
        <time>2022-08-17T10:22:42Z</time>
      </trkpt>
      <trkpt lat="45.35229" lon="2.7169">
        <ele>717.24</ele>
        <time>2022-08-17T10:22:43Z</time>
      </trkpt>
      <trkpt lat="45.3522" lon="2.717">
        <ele>717.17</ele>
        <time>2022-08-17T10:22:44Z</time>
      </trkpt>
      <trkpt lat="45.35212" lon="2.71711">
        <ele>716.19</ele>
        <time>2022-08-17T10:22:45Z</time>
      </trkpt>
      <trkpt lat="45.35207" lon="2.71724">
        <ele>716.18</ele>
        <time>2022-08-17T10:22:46Z</time>
      </trkpt>
      <trkpt lat="45.35205" lon="2.71738">
        <ele>716.18</ele>
        <time>2022-08-17T10:22:47Z</time>
      </trkpt>
      <trkpt lat="45.35206" lon="2.71752">
        <ele>715.22</ele>
        <time>2022-08-17T10:22:48Z</time>
      </trkpt>
      <trkpt lat="45.35209" lon="2.71765">
        <ele>714.38</ele>
        <time>2022-08-17T10:22:49Z</time>
      </trkpt>
      <trkpt lat="45.35212" lon="2.71777">
        <ele>714.38</ele>
        <time>2022-08-17T10:22:50Z</time>
      </trkpt>
      <trkpt lat="45.35216" lon="2.71788">
        <ele>714.34</ele>
        <time>2022-08-17T10:22:51Z</time>
      </trkpt>
      <trkpt lat="45.35226" lon="2.7182">
        <ele>713.49</ele>
        <time>2022-08-17T10:22:54Z</time>
      </trkpt>
      <trkpt lat="45.35228" lon="2.71831">
        <ele>713.48</ele>
        <time>2022-08-17T10:22:55Z</time>
      </trkpt>
      <trkpt lat="45.35229" lon="2.71844">
        <ele>713.45</ele>
        <time>2022-08-17T10:22:56Z</time>
      </trkpt>
      <trkpt lat="45.35231" lon="2.7187">
        <ele>712.51</ele>
        <time>2022-08-17T10:22:58Z</time>
      </trkpt>
      <trkpt lat="45.35233" lon="2.71883">
        <ele>712.47</ele>
        <time>2022-08-17T10:22:59Z</time>
      </trkpt>
      <trkpt lat="45.35237" lon="2.71896">
        <ele>712.46</ele>
        <time>2022-08-17T10:23:00Z</time>
      </trkpt>
      <trkpt lat="45.35241" lon="2.71909">
        <ele>712.43</ele>
        <time>2022-08-17T10:23:01Z</time>
      </trkpt>
      <trkpt lat="45.35243" lon="2.71923">
        <ele>712.39</ele>
        <time>2022-08-17T10:23:02Z</time>
      </trkpt>
      <trkpt lat="45.35245" lon="2.71939">
        <ele>712.41</ele>
        <time>2022-08-17T10:23:03Z</time>
      </trkpt>
      <trkpt lat="45.35246" lon="2.71955">
        <ele>712.39</ele>
        <time>2022-08-17T10:23:04Z</time>
      </trkpt>
      <trkpt lat="45.35245" lon="2.71987">
        <ele>712.36</ele>
        <time>2022-08-17T10:23:06Z</time>
      </trkpt>
      <trkpt lat="45.35243" lon="2.72003">
        <ele>711.5</ele>
        <time>2022-08-17T10:23:07Z</time>
      </trkpt>
      <trkpt lat="45.35234" lon="2.72059">
        <ele>709.22</ele>
        <time>2022-08-17T10:23:11Z</time>
      </trkpt>
      <trkpt lat="45.35229" lon="2.72069">
        <ele>709.21</ele>
        <time>2022-08-17T10:23:12Z</time>
      </trkpt>
      <trkpt lat="45.35222" lon="2.72078">
        <ele>709.18</ele>
        <time>2022-08-17T10:23:13Z</time>
      </trkpt>
      <trkpt lat="45.35214" lon="2.72085">
        <ele>709.21</ele>
        <time>2022-08-17T10:23:14Z</time>
      </trkpt>
      <trkpt lat="45.35207" lon="2.72095">
        <ele>709.18</ele>
        <time>2022-08-17T10:23:15Z</time>
      </trkpt>
      <trkpt lat="45.35203" lon="2.72109">
        <ele>709.15</ele>
        <time>2022-08-17T10:23:16Z</time>
      </trkpt>
      <trkpt lat="45.35201" lon="2.72127">
        <ele>709.15</ele>
        <time>2022-08-17T10:23:17Z</time>
      </trkpt>
      <trkpt lat="45.35199" lon="2.72147">
        <ele>709.15</ele>
        <time>2022-08-17T10:23:18Z</time>
      </trkpt>
      <trkpt lat="45.35193" lon="2.7219">
        <ele>709.12</ele>
        <time>2022-08-17T10:23:20Z</time>
      </trkpt>
      <trkpt lat="45.35175" lon="2.72265">
        <ele>706.89</ele>
        <time>2022-08-17T10:23:24Z</time>
      </trkpt>
      <trkpt lat="45.35172" lon="2.72285">
        <ele>706.91</ele>
        <time>2022-08-17T10:23:25Z</time>
      </trkpt>
      <trkpt lat="45.3517" lon="2.72307">
        <ele>706.9</ele>
        <time>2022-08-17T10:23:26Z</time>
      </trkpt>
      <trkpt lat="45.35168" lon="2.72441">
        <ele>702.72</ele>
        <time>2022-08-17T10:23:32Z</time>
      </trkpt>
      <trkpt lat="45.3517" lon="2.72457">
        <ele>702.66</ele>
        <time>2022-08-17T10:23:33Z</time>
      </trkpt>
      <trkpt lat="45.35178" lon="2.72499">
        <ele>700.53</ele>
        <time>2022-08-17T10:23:36Z</time>
      </trkpt>
      <trkpt lat="45.35179" lon="2.72515">
        <ele>700.93</ele>
        <time>2022-08-17T10:23:37Z</time>
      </trkpt>
      <trkpt lat="45.35179" lon="2.72533">
        <ele>700.93</ele>
        <time>2022-08-17T10:23:38Z</time>
      </trkpt>
      <trkpt lat="45.35177" lon="2.72616">
        <ele>699.7</ele>
        <time>2022-08-17T10:23:43Z</time>
      </trkpt>
      <trkpt lat="45.35168" lon="2.72654">
        <ele>699.64</ele>
        <time>2022-08-17T10:23:45Z</time>
      </trkpt>
      <trkpt lat="45.35159" lon="2.72674">
        <ele>699.65</ele>
        <time>2022-08-17T10:23:46Z</time>
      </trkpt>
      <trkpt lat="45.35137" lon="2.72723">
        <ele>702.13</ele>
        <time>2022-08-17T10:23:49Z</time>
      </trkpt>
      <trkpt lat="45.35129" lon="2.72735">
        <ele>702.12</ele>
        <time>2022-08-17T10:23:50Z</time>
      </trkpt>
      <trkpt lat="45.35115" lon="2.72755">
        <ele>702.98</ele>
        <time>2022-08-17T10:23:52Z</time>
      </trkpt>
      <trkpt lat="45.35111" lon="2.72766">
        <ele>702.99</ele>
        <time>2022-08-17T10:23:53Z</time>
      </trkpt>
      <trkpt lat="45.35106" lon="2.72781">
        <ele>703.85</ele>
        <time>2022-08-17T10:23:54Z</time>
      </trkpt>
      <trkpt lat="45.35084" lon="2.72842">
        <ele>707.09</ele>
        <time>2022-08-17T10:23:58Z</time>
      </trkpt>
      <trkpt lat="45.35071" lon="2.72874">
        <ele>708.13</ele>
        <time>2022-08-17T10:24:00Z</time>
      </trkpt>
      <trkpt lat="45.35065" lon="2.72891">
        <ele>710.22</ele>
        <time>2022-08-17T10:24:01Z</time>
      </trkpt>
      <trkpt lat="45.35061" lon="2.7291">
        <ele>710.21</ele>
        <time>2022-08-17T10:24:02Z</time>
      </trkpt>
      <trkpt lat="45.35056" lon="2.72949">
        <ele>711.78</ele>
        <time>2022-08-17T10:24:04Z</time>
      </trkpt>
      <trkpt lat="45.35053" lon="2.72966">
        <ele>711.77</ele>
        <time>2022-08-17T10:24:05Z</time>
      </trkpt>
      <trkpt lat="45.3505" lon="2.72982">
        <ele>712.53</ele>
        <time>2022-08-17T10:24:06Z</time>
      </trkpt>
      <trkpt lat="45.35046" lon="2.72997">
        <ele>713.4</ele>
        <time>2022-08-17T10:24:07Z</time>
      </trkpt>
      <trkpt lat="45.35037" lon="2.73009">
        <ele>714.4</ele>
        <time>2022-08-17T10:24:08Z</time>
      </trkpt>
      <trkpt lat="45.35026" lon="2.7302">
        <ele>715.73</ele>
        <time>2022-08-17T10:24:09Z</time>
      </trkpt>
      <trkpt lat="45.35014" lon="2.73029">
        <ele>715.72</ele>
        <time>2022-08-17T10:24:10Z</time>
      </trkpt>
      <trkpt lat="45.35002" lon="2.73036">
        <ele>716.57</ele>
        <time>2022-08-17T10:24:11Z</time>
      </trkpt>
      <trkpt lat="45.34991" lon="2.73039">
        <ele>716.56</ele>
        <time>2022-08-17T10:24:12Z</time>
      </trkpt>
      <trkpt lat="45.34981" lon="2.73037">
        <ele>716.56</ele>
        <time>2022-08-17T10:24:13Z</time>
      </trkpt>
      <trkpt lat="45.34971" lon="2.73028">
        <ele>717.53</ele>
        <time>2022-08-17T10:24:14Z</time>
      </trkpt>
      <trkpt lat="45.34961" lon="2.73016">
        <ele>718.41</ele>
        <time>2022-08-17T10:24:15Z</time>
      </trkpt>
      <trkpt lat="45.34953" lon="2.73005">
        <ele>719.31</ele>
        <time>2022-08-17T10:24:16Z</time>
      </trkpt>
      <trkpt lat="45.34944" lon="2.72996">
        <ele>719.25</ele>
        <time>2022-08-17T10:24:17Z</time>
      </trkpt>
      <trkpt lat="45.34935" lon="2.72989">
        <ele>720.28</ele>
        <time>2022-08-17T10:24:18Z</time>
      </trkpt>
      <trkpt lat="45.34924" lon="2.72986">
        <ele>721.24</ele>
        <time>2022-08-17T10:24:19Z</time>
      </trkpt>
      <trkpt lat="45.34912" lon="2.72987">
        <ele>721.18</ele>
        <time>2022-08-17T10:24:20Z</time>
      </trkpt>
      <trkpt lat="45.34902" lon="2.72992">
        <ele>722.08</ele>
        <time>2022-08-17T10:24:21Z</time>
      </trkpt>
      <trkpt lat="45.34892" lon="2.72997">
        <ele>722.09</ele>
        <time>2022-08-17T10:24:22Z</time>
      </trkpt>
      <trkpt lat="45.34882" lon="2.73003">
        <ele>723.6</ele>
        <time>2022-08-17T10:24:23Z</time>
      </trkpt>
      <trkpt lat="45.34874" lon="2.73017">
        <ele>724.46</ele>
        <time>2022-08-17T10:24:24Z</time>
      </trkpt>
      <trkpt lat="45.34868" lon="2.73034">
        <ele>724.46</ele>
        <time>2022-08-17T10:24:25Z</time>
      </trkpt>
      <trkpt lat="45.34864" lon="2.73051">
        <ele>725.54</ele>
        <time>2022-08-17T10:24:26Z</time>
      </trkpt>
      <trkpt lat="45.34858" lon="2.73066">
        <ele>726.7</ele>
        <time>2022-08-17T10:24:27Z</time>
      </trkpt>
      <trkpt lat="45.34848" lon="2.73078">
        <ele>726.69</ele>
        <time>2022-08-17T10:24:28Z</time>
      </trkpt>
      <trkpt lat="45.34836" lon="2.73086">
        <ele>728.17</ele>
        <time>2022-08-17T10:24:29Z</time>
      </trkpt>
      <trkpt lat="45.34825" lon="2.73094">
        <ele>729</ele>
        <time>2022-08-17T10:24:30Z</time>
      </trkpt>
      <trkpt lat="45.34815" lon="2.73104">
        <ele>729.07</ele>
        <time>2022-08-17T10:24:31Z</time>
      </trkpt>
      <trkpt lat="45.34808" lon="2.73117">
        <ele>730.29</ele>
        <time>2022-08-17T10:24:32Z</time>
      </trkpt>
      <trkpt lat="45.34804" lon="2.73133">
        <ele>730.24</ele>
        <time>2022-08-17T10:24:33Z</time>
      </trkpt>
      <trkpt lat="45.34803" lon="2.73152">
        <ele>731.71</ele>
        <time>2022-08-17T10:24:34Z</time>
      </trkpt>
      <trkpt lat="45.34805" lon="2.73172">
        <ele>731.7</ele>
        <time>2022-08-17T10:24:35Z</time>
      </trkpt>
      <trkpt lat="45.34805" lon="2.73194">
        <ele>733.53</ele>
        <time>2022-08-17T10:24:36Z</time>
      </trkpt>
      <trkpt lat="45.34802" lon="2.73216">
        <ele>734.34</ele>
        <time>2022-08-17T10:24:37Z</time>
      </trkpt>
      <trkpt lat="45.34796" lon="2.73237">
        <ele>734.34</ele>
        <time>2022-08-17T10:24:38Z</time>
      </trkpt>
      <trkpt lat="45.3479" lon="2.73256">
        <ele>735.49</ele>
        <time>2022-08-17T10:24:39Z</time>
      </trkpt>
      <trkpt lat="45.34781" lon="2.73273">
        <ele>736.46</ele>
        <time>2022-08-17T10:24:40Z</time>
      </trkpt>
      <trkpt lat="45.34771" lon="2.73287">
        <ele>736.4</ele>
        <time>2022-08-17T10:24:41Z</time>
      </trkpt>
      <trkpt lat="45.3476" lon="2.73298">
        <ele>736.37</ele>
        <time>2022-08-17T10:24:42Z</time>
      </trkpt>
      <trkpt lat="45.34749" lon="2.73307">
        <ele>736.43</ele>
        <time>2022-08-17T10:24:43Z</time>
      </trkpt>
      <trkpt lat="45.34736" lon="2.73313">
        <ele>737.78</ele>
        <time>2022-08-17T10:24:44Z</time>
      </trkpt>
      <trkpt lat="45.34723" lon="2.73317">
        <ele>737.81</ele>
        <time>2022-08-17T10:24:45Z</time>
      </trkpt>
      <trkpt lat="45.34709" lon="2.73316">
        <ele>737.81</ele>
        <time>2022-08-17T10:24:46Z</time>
      </trkpt>
      <trkpt lat="45.34693" lon="2.73312">
        <ele>739.62</ele>
        <time>2022-08-17T10:24:47Z</time>
      </trkpt>
      <trkpt lat="45.34677" lon="2.73308">
        <ele>740.5</ele>
        <time>2022-08-17T10:24:48Z</time>
      </trkpt>
      <trkpt lat="45.34662" lon="2.73304">
        <ele>740.47</ele>
        <time>2022-08-17T10:24:49Z</time>
      </trkpt>
      <trkpt lat="45.34629" lon="2.73299">
        <ele>742.48</ele>
        <time>2022-08-17T10:24:51Z</time>
      </trkpt>
      <trkpt lat="45.34614" lon="2.733">
        <ele>742.54</ele>
        <time>2022-08-17T10:24:52Z</time>
      </trkpt>
      <trkpt lat="45.34583" lon="2.73304">
        <ele>744.79</ele>
        <time>2022-08-17T10:24:54Z</time>
      </trkpt>
      <trkpt lat="45.34568" lon="2.7331">
        <ele>746.19</ele>
        <time>2022-08-17T10:24:55Z</time>
      </trkpt>
      <trkpt lat="45.34553" lon="2.73316">
        <ele>746.18</ele>
        <time>2022-08-17T10:24:56Z</time>
      </trkpt>
      <trkpt lat="45.34538" lon="2.73319">
        <ele>747.09</ele>
        <time>2022-08-17T10:24:57Z</time>
      </trkpt>
      <trkpt lat="45.34523" lon="2.73317">
        <ele>747.01</ele>
        <time>2022-08-17T10:24:58Z</time>
      </trkpt>
      <trkpt lat="45.34508" lon="2.73311">
        <ele>747.81</ele>
        <time>2022-08-17T10:24:59Z</time>
      </trkpt>
      <trkpt lat="45.34494" lon="2.73306">
        <ele>747.8</ele>
        <time>2022-08-17T10:25:00Z</time>
      </trkpt>
      <trkpt lat="45.34467" lon="2.73302">
        <ele>749.46</ele>
        <time>2022-08-17T10:25:02Z</time>
      </trkpt>
      <trkpt lat="45.34455" lon="2.73309">
        <ele>749.35</ele>
        <time>2022-08-17T10:25:03Z</time>
      </trkpt>
      <trkpt lat="45.34444" lon="2.73312">
        <ele>749.4</ele>
        <time>2022-08-17T10:25:04Z</time>
      </trkpt>
      <trkpt lat="45.34431" lon="2.73311">
        <ele>750.66</ele>
        <time>2022-08-17T10:25:05Z</time>
      </trkpt>
      <trkpt lat="45.34417" lon="2.73309">
        <ele>751.91</ele>
        <time>2022-08-17T10:25:06Z</time>
      </trkpt>
      <trkpt lat="45.34404" lon="2.7331">
        <ele>752.81</ele>
        <time>2022-08-17T10:25:07Z</time>
      </trkpt>
      <trkpt lat="45.3439" lon="2.73314">
        <ele>753.89</ele>
        <time>2022-08-17T10:25:08Z</time>
      </trkpt>
      <trkpt lat="45.34377" lon="2.73318">
        <ele>753.9</ele>
        <time>2022-08-17T10:25:09Z</time>
      </trkpt>
      <trkpt lat="45.34365" lon="2.73321">
        <ele>755.29</ele>
        <time>2022-08-17T10:25:10Z</time>
      </trkpt>
      <trkpt lat="45.34358" lon="2.73331">
        <ele>755.27</ele>
        <time>2022-08-17T10:25:11Z</time>
      </trkpt>
      <trkpt lat="45.34351" lon="2.73344">
        <ele>755.26</ele>
        <time>2022-08-17T10:25:12Z</time>
      </trkpt>
      <trkpt lat="45.34345" lon="2.73361">
        <ele>756.88</ele>
        <time>2022-08-17T10:25:13Z</time>
      </trkpt>
      <trkpt lat="45.3434" lon="2.73382">
        <ele>757.72</ele>
        <time>2022-08-17T10:25:14Z</time>
      </trkpt>
      <trkpt lat="45.34326" lon="2.73448">
        <ele>759.69</ele>
        <time>2022-08-17T10:25:17Z</time>
      </trkpt>
      <trkpt lat="45.3432" lon="2.73467">
        <ele>759.76</ele>
        <time>2022-08-17T10:25:18Z</time>
      </trkpt>
      <trkpt lat="45.34311" lon="2.73485">
        <ele>760.55</ele>
        <time>2022-08-17T10:25:19Z</time>
      </trkpt>
      <trkpt lat="45.34292" lon="2.73517">
        <ele>761.04</ele>
        <time>2022-08-17T10:25:21Z</time>
      </trkpt>
      <trkpt lat="45.34285" lon="2.73534">
        <ele>761.03</ele>
        <time>2022-08-17T10:25:22Z</time>
      </trkpt>
      <trkpt lat="45.34281" lon="2.73554">
        <ele>762</ele>
        <time>2022-08-17T10:25:23Z</time>
      </trkpt>
      <trkpt lat="45.34278" lon="2.73575">
        <ele>762.06</ele>
        <time>2022-08-17T10:25:24Z</time>
      </trkpt>
      <trkpt lat="45.34277" lon="2.73599">
        <ele>762.82</ele>
        <time>2022-08-17T10:25:25Z</time>
      </trkpt>
      <trkpt lat="45.34277" lon="2.73626">
        <ele>763.61</ele>
        <time>2022-08-17T10:25:26Z</time>
      </trkpt>
      <trkpt lat="45.34275" lon="2.73654">
        <ele>763.65</ele>
        <time>2022-08-17T10:25:27Z</time>
      </trkpt>
      <trkpt lat="45.34276" lon="2.73706">
        <ele>763.62</ele>
        <time>2022-08-17T10:25:29Z</time>
      </trkpt>
      <trkpt lat="45.34279" lon="2.73802">
        <ele>763.61</ele>
        <time>2022-08-17T10:25:33Z</time>
      </trkpt>
      <trkpt lat="45.34278" lon="2.73825">
        <ele>763.59</ele>
        <time>2022-08-17T10:25:34Z</time>
      </trkpt>
      <trkpt lat="45.34273" lon="2.73885">
        <ele>763.56</ele>
        <time>2022-08-17T10:25:37Z</time>
      </trkpt>
      <trkpt lat="45.34269" lon="2.73899">
        <ele>761.04</ele>
        <time>2022-08-17T10:25:38Z</time>
      </trkpt>
      <trkpt lat="45.34264" lon="2.7391">
        <ele>761.01</ele>
        <time>2022-08-17T10:25:39Z</time>
      </trkpt>
      <trkpt lat="45.34258" lon="2.73918">
        <ele>760.96</ele>
        <time>2022-08-17T10:25:40Z</time>
      </trkpt>
      <trkpt lat="45.34251" lon="2.73924">
        <ele>760.92</ele>
        <time>2022-08-17T10:25:41Z</time>
      </trkpt>
      <trkpt lat="45.34244" lon="2.73928">
        <ele>760.85</ele>
        <time>2022-08-17T10:25:42Z</time>
      </trkpt>
      <trkpt lat="45.34238" lon="2.7393">
        <ele>760.08</ele>
        <time>2022-08-17T10:25:43Z</time>
      </trkpt>
      <trkpt lat="45.34231" lon="2.73933">
        <ele>760.03</ele>
        <time>2022-08-17T10:25:44Z</time>
      </trkpt>
      <trkpt lat="45.34225" lon="2.73938">
        <ele>760.02</ele>
        <time>2022-08-17T10:25:45Z</time>
      </trkpt>
      <trkpt lat="45.34219" lon="2.73947">
        <ele>759.99</ele>
        <time>2022-08-17T10:25:46Z</time>
      </trkpt>
      <trkpt lat="45.34217" lon="2.73959">
        <ele>759.99</ele>
        <time>2022-08-17T10:25:47Z</time>
      </trkpt>
      <trkpt lat="45.34218" lon="2.73975">
        <ele>762.39</ele>
        <time>2022-08-17T10:25:48Z</time>
      </trkpt>
      <trkpt lat="45.34222" lon="2.73993">
        <ele>762.38</ele>
        <time>2022-08-17T10:25:49Z</time>
      </trkpt>
      <trkpt lat="45.34226" lon="2.74014">
        <ele>763.58</ele>
        <time>2022-08-17T10:25:50Z</time>
      </trkpt>
      <trkpt lat="45.3424" lon="2.74098">
        <ele>763.54</ele>
        <time>2022-08-17T10:25:54Z</time>
      </trkpt>
      <trkpt lat="45.3424" lon="2.74117">
        <ele>763.52</ele>
        <time>2022-08-17T10:25:55Z</time>
      </trkpt>
      <trkpt lat="45.34236" lon="2.74136">
        <ele>763.52</ele>
        <time>2022-08-17T10:25:56Z</time>
      </trkpt>
      <trkpt lat="45.34195" lon="2.74261">
        <ele>763.52</ele>
        <time>2022-08-17T10:26:02Z</time>
      </trkpt>
      <trkpt lat="45.34186" lon="2.74275">
        <ele>760.91</ele>
        <time>2022-08-17T10:26:03Z</time>
      </trkpt>
      <trkpt lat="45.34175" lon="2.74286">
        <ele>760.91</ele>
        <time>2022-08-17T10:26:04Z</time>
      </trkpt>
      <trkpt lat="45.34162" lon="2.74294">
        <ele>760.86</ele>
        <time>2022-08-17T10:26:05Z</time>
      </trkpt>
      <trkpt lat="45.34149" lon="2.743">
        <ele>760.81</ele>
        <time>2022-08-17T10:26:06Z</time>
      </trkpt>
      <trkpt lat="45.34133" lon="2.74301">
        <ele>760.79</ele>
        <time>2022-08-17T10:26:07Z</time>
      </trkpt>
      <trkpt lat="45.34116" lon="2.743">
        <ele>760.79</ele>
        <time>2022-08-17T10:26:08Z</time>
      </trkpt>
      <trkpt lat="45.34097" lon="2.74297">
        <ele>760.78</ele>
        <time>2022-08-17T10:26:09Z</time>
      </trkpt>
      <trkpt lat="45.34079" lon="2.74294">
        <ele>760.79</ele>
        <time>2022-08-17T10:26:10Z</time>
      </trkpt>
      <trkpt lat="45.3399" lon="2.74277">
        <ele>759.79</ele>
        <time>2022-08-17T10:26:16Z</time>
      </trkpt>
      <trkpt lat="45.33978" lon="2.74277">
        <ele>759.75</ele>
        <time>2022-08-17T10:26:17Z</time>
      </trkpt>
      <trkpt lat="45.33966" lon="2.74281">
        <ele>759.75</ele>
        <time>2022-08-17T10:26:18Z</time>
      </trkpt>
      <trkpt lat="45.33956" lon="2.74292">
        <ele>758.9</ele>
        <time>2022-08-17T10:26:19Z</time>
      </trkpt>
      <trkpt lat="45.33947" lon="2.74306">
        <ele>757.88</ele>
        <time>2022-08-17T10:26:20Z</time>
      </trkpt>
      <trkpt lat="45.33939" lon="2.7432">
        <ele>757.88</ele>
        <time>2022-08-17T10:26:21Z</time>
      </trkpt>
      <trkpt lat="45.3393" lon="2.74332">
        <ele>757.87</ele>
        <time>2022-08-17T10:26:22Z</time>
      </trkpt>
      <trkpt lat="45.33919" lon="2.74342">
        <ele>756.27</ele>
        <time>2022-08-17T10:26:23Z</time>
      </trkpt>
      <trkpt lat="45.33908" lon="2.74349">
        <ele>756.28</ele>
        <time>2022-08-17T10:26:24Z</time>
      </trkpt>
      <trkpt lat="45.33885" lon="2.74361">
        <ele>753.59</ele>
        <time>2022-08-17T10:26:26Z</time>
      </trkpt>
      <trkpt lat="45.33871" lon="2.74362">
        <ele>753.59</ele>
        <time>2022-08-17T10:26:27Z</time>
      </trkpt>
      <trkpt lat="45.33856" lon="2.74359">
        <ele>753.59</ele>
        <time>2022-08-17T10:26:28Z</time>
      </trkpt>
      <trkpt lat="45.33797" lon="2.7435">
        <ele>751.49</ele>
        <time>2022-08-17T10:26:33Z</time>
      </trkpt>
      <trkpt lat="45.33787" lon="2.74353">
        <ele>751.5</ele>
        <time>2022-08-17T10:26:34Z</time>
      </trkpt>
      <trkpt lat="45.3378" lon="2.7436">
        <ele>750.59</ele>
        <time>2022-08-17T10:26:35Z</time>
      </trkpt>
      <trkpt lat="45.33774" lon="2.74371">
        <ele>750.59</ele>
        <time>2022-08-17T10:26:36Z</time>
      </trkpt>
      <trkpt lat="45.33771" lon="2.74386">
        <ele>750.59</ele>
        <time>2022-08-17T10:26:37Z</time>
      </trkpt>
      <trkpt lat="45.33771" lon="2.74404">
        <ele>750.58</ele>
        <time>2022-08-17T10:26:38Z</time>
      </trkpt>
      <trkpt lat="45.33772" lon="2.74425">
        <ele>750.95</ele>
        <time>2022-08-17T10:26:39Z</time>
      </trkpt>
      <trkpt lat="45.33776" lon="2.74514">
        <ele>749.03</ele>
        <time>2022-08-17T10:26:44Z</time>
      </trkpt>
      <trkpt lat="45.33771" lon="2.74526">
        <ele>749</ele>
        <time>2022-08-17T10:26:45Z</time>
      </trkpt>
      <trkpt lat="45.33764" lon="2.74535">
        <ele>749.03</ele>
        <time>2022-08-17T10:26:46Z</time>
      </trkpt>
      <trkpt lat="45.33757" lon="2.74544">
        <ele>749</ele>
        <time>2022-08-17T10:26:47Z</time>
      </trkpt>
      <trkpt lat="45.33752" lon="2.74555">
        <ele>748.97</ele>
        <time>2022-08-17T10:26:48Z</time>
      </trkpt>
      <trkpt lat="45.3375" lon="2.74569">
        <ele>748.98</ele>
        <time>2022-08-17T10:26:49Z</time>
      </trkpt>
      <trkpt lat="45.33753" lon="2.74583">
        <ele>748.14</ele>
        <time>2022-08-17T10:26:50Z</time>
      </trkpt>
      <trkpt lat="45.33759" lon="2.74596">
        <ele>748.13</ele>
        <time>2022-08-17T10:26:51Z</time>
      </trkpt>
      <trkpt lat="45.33769" lon="2.74606">
        <ele>748.11</ele>
        <time>2022-08-17T10:26:52Z</time>
      </trkpt>
      <trkpt lat="45.33781" lon="2.74612">
        <ele>748.16</ele>
        <time>2022-08-17T10:26:53Z</time>
      </trkpt>
      <trkpt lat="45.33794" lon="2.74616">
        <ele>748.13</ele>
        <time>2022-08-17T10:26:54Z</time>
      </trkpt>
      <trkpt lat="45.33806" lon="2.7462">
        <ele>746.9</ele>
        <time>2022-08-17T10:26:55Z</time>
      </trkpt>
      <trkpt lat="45.33817" lon="2.74623">
        <ele>746.85</ele>
        <time>2022-08-17T10:26:56Z</time>
      </trkpt>
      <trkpt lat="45.33827" lon="2.74627">
        <ele>745.91</ele>
        <time>2022-08-17T10:26:57Z</time>
      </trkpt>
      <trkpt lat="45.33848" lon="2.74637">
        <ele>745.88</ele>
        <time>2022-08-17T10:26:59Z</time>
      </trkpt>
      <trkpt lat="45.3386" lon="2.74639">
        <ele>745.12</ele>
        <time>2022-08-17T10:27:00Z</time>
      </trkpt>
      <trkpt lat="45.33872" lon="2.7464">
        <ele>745.11</ele>
        <time>2022-08-17T10:27:01Z</time>
      </trkpt>
      <trkpt lat="45.33905" lon="2.74639">
        <ele>743.88</ele>
        <time>2022-08-17T10:27:04Z</time>
      </trkpt>
      <trkpt lat="45.33914" lon="2.74642">
        <ele>743.17</ele>
        <time>2022-08-17T10:27:05Z</time>
      </trkpt>
      <trkpt lat="45.33924" lon="2.74649">
        <ele>741.83</ele>
        <time>2022-08-17T10:27:06Z</time>
      </trkpt>
      <trkpt lat="45.33933" lon="2.7466">
        <ele>741.8</ele>
        <time>2022-08-17T10:27:07Z</time>
      </trkpt>
      <trkpt lat="45.33943" lon="2.74673">
        <ele>741.8</ele>
        <time>2022-08-17T10:27:08Z</time>
      </trkpt>
      <trkpt lat="45.33953" lon="2.74689">
        <ele>741.79</ele>
        <time>2022-08-17T10:27:09Z</time>
      </trkpt>
      <trkpt lat="45.3396" lon="2.74706">
        <ele>740.92</ele>
        <time>2022-08-17T10:27:10Z</time>
      </trkpt>
      <trkpt lat="45.33967" lon="2.74724">
        <ele>739.75</ele>
        <time>2022-08-17T10:27:11Z</time>
      </trkpt>
      <trkpt lat="45.33986" lon="2.74772">
        <ele>737.66</ele>
        <time>2022-08-17T10:27:14Z</time>
      </trkpt>
      <trkpt lat="45.34006" lon="2.74812">
        <ele>735.11</ele>
        <time>2022-08-17T10:27:17Z</time>
      </trkpt>
      <trkpt lat="45.3401" lon="2.74827">
        <ele>734.3</ele>
        <time>2022-08-17T10:27:18Z</time>
      </trkpt>
      <trkpt lat="45.34014" lon="2.74842">
        <ele>734.22</ele>
        <time>2022-08-17T10:27:19Z</time>
      </trkpt>
      <trkpt lat="45.3402" lon="2.74857">
        <ele>734.22</ele>
        <time>2022-08-17T10:27:20Z</time>
      </trkpt>
      <trkpt lat="45.34028" lon="2.74872">
        <ele>734.23</ele>
        <time>2022-08-17T10:27:21Z</time>
      </trkpt>
      <trkpt lat="45.34046" lon="2.74903">
        <ele>733.19</ele>
        <time>2022-08-17T10:27:23Z</time>
      </trkpt>
      <trkpt lat="45.34053" lon="2.7492">
        <ele>731.93</ele>
        <time>2022-08-17T10:27:24Z</time>
      </trkpt>
      <trkpt lat="45.34059" lon="2.74936">
        <ele>731.92</ele>
        <time>2022-08-17T10:27:25Z</time>
      </trkpt>
      <trkpt lat="45.34064" lon="2.74954">
        <ele>730.54</ele>
        <time>2022-08-17T10:27:26Z</time>
      </trkpt>
      <trkpt lat="45.34073" lon="2.75003">
        <ele>728.38</ele>
        <time>2022-08-17T10:27:29Z</time>
      </trkpt>
      <trkpt lat="45.34077" lon="2.75035">
        <ele>726.61</ele>
        <time>2022-08-17T10:27:31Z</time>
      </trkpt>
      <trkpt lat="45.34078" lon="2.75065">
        <ele>725.1</ele>
        <time>2022-08-17T10:27:33Z</time>
      </trkpt>
      <trkpt lat="45.34077" lon="2.75093">
        <ele>723.47</ele>
        <time>2022-08-17T10:27:35Z</time>
      </trkpt>
      <trkpt lat="45.34075" lon="2.75106">
        <ele>722.11</ele>
        <time>2022-08-17T10:27:36Z</time>
      </trkpt>
      <trkpt lat="45.34073" lon="2.75117">
        <ele>721.2</ele>
        <time>2022-08-17T10:27:37Z</time>
      </trkpt>
      <trkpt lat="45.34069" lon="2.75127">
        <ele>721.12</ele>
        <time>2022-08-17T10:27:38Z</time>
      </trkpt>
      <trkpt lat="45.34063" lon="2.75134">
        <ele>721.12</ele>
        <time>2022-08-17T10:27:39Z</time>
      </trkpt>
      <trkpt lat="45.34054" lon="2.75138">
        <ele>721.11</ele>
        <time>2022-08-17T10:27:40Z</time>
      </trkpt>
      <trkpt lat="45.34043" lon="2.75139">
        <ele>719.29</ele>
        <time>2022-08-17T10:27:41Z</time>
      </trkpt>
      <trkpt lat="45.34032" lon="2.75139">
        <ele>719.23</ele>
        <time>2022-08-17T10:27:42Z</time>
      </trkpt>
      <trkpt lat="45.34021" lon="2.75138">
        <ele>717.62</ele>
        <time>2022-08-17T10:27:43Z</time>
      </trkpt>
      <trkpt lat="45.34009" lon="2.75138">
        <ele>716.69</ele>
        <time>2022-08-17T10:27:44Z</time>
      </trkpt>
      <trkpt lat="45.33999" lon="2.75141">
        <ele>716.63</ele>
        <time>2022-08-17T10:27:45Z</time>
      </trkpt>
      <trkpt lat="45.3399" lon="2.75147">
        <ele>715.58</ele>
        <time>2022-08-17T10:27:46Z</time>
      </trkpt>
      <trkpt lat="45.33984" lon="2.75159">
        <ele>714.38</ele>
        <time>2022-08-17T10:27:47Z</time>
      </trkpt>
      <trkpt lat="45.33979" lon="2.75174">
        <ele>714.32</ele>
        <time>2022-08-17T10:27:48Z</time>
      </trkpt>
      <trkpt lat="45.33975" lon="2.75192">
        <ele>714.36</ele>
        <time>2022-08-17T10:27:49Z</time>
      </trkpt>
      <trkpt lat="45.33973" lon="2.75211">
        <ele>713.46</ele>
        <time>2022-08-17T10:27:50Z</time>
      </trkpt>
      <trkpt lat="45.33972" lon="2.75233">
        <ele>713.5</ele>
        <time>2022-08-17T10:27:51Z</time>
      </trkpt>
      <trkpt lat="45.33971" lon="2.75327">
        <ele>710.27</ele>
        <time>2022-08-17T10:27:56Z</time>
      </trkpt>
      <trkpt lat="45.3397" lon="2.75341">
        <ele>709.15</ele>
        <time>2022-08-17T10:27:57Z</time>
      </trkpt>
      <trkpt lat="45.33968" lon="2.75355">
        <ele>709.15</ele>
        <time>2022-08-17T10:27:58Z</time>
      </trkpt>
      <trkpt lat="45.33964" lon="2.75368">
        <ele>707.1</ele>
        <time>2022-08-17T10:27:59Z</time>
      </trkpt>
      <trkpt lat="45.33959" lon="2.75379">
        <ele>707.1</ele>
        <time>2022-08-17T10:28:00Z</time>
      </trkpt>
      <trkpt lat="45.33952" lon="2.75389">
        <ele>705.56</ele>
        <time>2022-08-17T10:28:01Z</time>
      </trkpt>
      <trkpt lat="45.33945" lon="2.75398">
        <ele>705.5</ele>
        <time>2022-08-17T10:28:02Z</time>
      </trkpt>
      <trkpt lat="45.33932" lon="2.75418">
        <ele>702.46</ele>
        <time>2022-08-17T10:28:04Z</time>
      </trkpt>
      <trkpt lat="45.33918" lon="2.75439">
        <ele>701.47</ele>
        <time>2022-08-17T10:28:06Z</time>
      </trkpt>
      <trkpt lat="45.33903" lon="2.75458">
        <ele>699.75</ele>
        <time>2022-08-17T10:28:08Z</time>
      </trkpt>
      <trkpt lat="45.33881" lon="2.75491">
        <ele>696.56</ele>
        <time>2022-08-17T10:28:11Z</time>
      </trkpt>
      <trkpt lat="45.33874" lon="2.75503">
        <ele>696.56</ele>
        <time>2022-08-17T10:28:12Z</time>
      </trkpt>
      <trkpt lat="45.3386" lon="2.75528">
        <ele>695.23</ele>
        <time>2022-08-17T10:28:14Z</time>
      </trkpt>
      <trkpt lat="45.33855" lon="2.75542">
        <ele>694.09</ele>
        <time>2022-08-17T10:28:15Z</time>
      </trkpt>
      <trkpt lat="45.33852" lon="2.75556">
        <ele>694.05</ele>
        <time>2022-08-17T10:28:16Z</time>
      </trkpt>
      <trkpt lat="45.33851" lon="2.75571">
        <ele>692.95</ele>
        <time>2022-08-17T10:28:17Z</time>
      </trkpt>
      <trkpt lat="45.33852" lon="2.75587">
        <ele>692.96</ele>
        <time>2022-08-17T10:28:18Z</time>
      </trkpt>
      <trkpt lat="45.33853" lon="2.75605">
        <ele>693.59</ele>
        <time>2022-08-17T10:28:19Z</time>
      </trkpt>
      <trkpt lat="45.33855" lon="2.75623">
        <ele>693.52</ele>
        <time>2022-08-17T10:28:20Z</time>
      </trkpt>
      <trkpt lat="45.33858" lon="2.75671">
        <ele>693.11</ele>
        <time>2022-08-17T10:28:23Z</time>
      </trkpt>
      <trkpt lat="45.33857" lon="2.75689">
        <ele>693.18</ele>
        <time>2022-08-17T10:28:24Z</time>
      </trkpt>
      <trkpt lat="45.33854" lon="2.75707">
        <ele>693.19</ele>
        <time>2022-08-17T10:28:25Z</time>
      </trkpt>
      <trkpt lat="45.3385" lon="2.75724">
        <ele>693.23</ele>
        <time>2022-08-17T10:28:26Z</time>
      </trkpt>
      <trkpt lat="45.33846" lon="2.75739">
        <ele>693.38</ele>
        <time>2022-08-17T10:28:27Z</time>
      </trkpt>
      <trkpt lat="45.33819" lon="2.75889">
        <ele>692.24</ele>
        <time>2022-08-17T10:28:36Z</time>
      </trkpt>
      <trkpt lat="45.33816" lon="2.75905">
        <ele>692.21</ele>
        <time>2022-08-17T10:28:37Z</time>
      </trkpt>
      <trkpt lat="45.33813" lon="2.75936">
        <ele>690.76</ele>
        <time>2022-08-17T10:28:39Z</time>
      </trkpt>
      <trkpt lat="45.33813" lon="2.75953">
        <ele>690.7</ele>
        <time>2022-08-17T10:28:40Z</time>
      </trkpt>
      <trkpt lat="45.33814" lon="2.7597">
        <ele>690.68</ele>
        <time>2022-08-17T10:28:41Z</time>
      </trkpt>
      <trkpt lat="45.33817" lon="2.7599">
        <ele>690.71</ele>
        <time>2022-08-17T10:28:42Z</time>
      </trkpt>
      <trkpt lat="45.33832" lon="2.7611">
        <ele>689.24</ele>
        <time>2022-08-17T10:28:50Z</time>
      </trkpt>
      <trkpt lat="45.33833" lon="2.76119">
        <ele>689.28</ele>
        <time>2022-08-17T10:28:51Z</time>
      </trkpt>
      <trkpt lat="45.33835" lon="2.76126">
        <ele>689.33</ele>
        <time>2022-08-17T10:28:52Z</time>
      </trkpt>
      <trkpt lat="45.33839" lon="2.76136">
        <ele>689.57</ele>
        <time>2022-08-17T10:28:54Z</time>
      </trkpt>
      <trkpt lat="45.33836" lon="2.76153">
        <ele>689.57</ele>
        <time>2022-08-17T10:28:58Z</time>
      </trkpt>
      <trkpt lat="45.33834" lon="2.76153">
        <ele>689.64</ele>
        <time>2022-08-17T10:29:14Z</time>
      </trkpt>
      <trkpt lat="45.33833" lon="2.76151">
        <ele>686.07</ele>
        <time>2022-08-17T10:29:33Z</time>
      </trkpt>
      <trkpt lat="45.33931" lon="2.76073">
        <ele>697.93</ele>
        <time>2022-08-17T10:30:34Z</time>
      </trkpt>
      <trkpt lat="45.3396" lon="2.75999">
        <ele>700.73</ele>
        <time>2022-08-17T10:30:41Z</time>
      </trkpt>
      <trkpt lat="45.33983" lon="2.75938">
        <ele>702.09</ele>
        <time>2022-08-17T10:30:47Z</time>
      </trkpt>
      <trkpt lat="45.34013" lon="2.75859">
        <ele>705.39</ele>
        <time>2022-08-17T10:30:55Z</time>
      </trkpt>
      <trkpt lat="45.3402" lon="2.75841">
        <ele>706.01</ele>
        <time>2022-08-17T10:30:57Z</time>
      </trkpt>
      <trkpt lat="45.34061" lon="2.75742">
        <ele>709.86</ele>
        <time>2022-08-17T10:31:07Z</time>
      </trkpt>
      <trkpt lat="45.34071" lon="2.75729">
        <ele>709.9</ele>
        <time>2022-08-17T10:31:09Z</time>
      </trkpt>
      <trkpt lat="45.34093" lon="2.75708">
        <ele>712.39</ele>
        <time>2022-08-17T10:31:13Z</time>
      </trkpt>
      <trkpt lat="45.341" lon="2.75705">
        <ele>713.63</ele>
        <time>2022-08-17T10:31:14Z</time>
      </trkpt>
      <trkpt lat="45.34107" lon="2.75702">
        <ele>713.72</ele>
        <time>2022-08-17T10:31:15Z</time>
      </trkpt>
      <trkpt lat="45.34118" lon="2.75695">
        <ele>715.02</ele>
        <time>2022-08-17T10:31:17Z</time>
      </trkpt>
      <trkpt lat="45.34129" lon="2.75692">
        <ele>716.01</ele>
        <time>2022-08-17T10:31:19Z</time>
      </trkpt>
      <trkpt lat="45.34135" lon="2.75695">
        <ele>716.03</ele>
        <time>2022-08-17T10:31:20Z</time>
      </trkpt>
      <trkpt lat="45.34141" lon="2.75702">
        <ele>717.03</ele>
        <time>2022-08-17T10:31:21Z</time>
      </trkpt>
      <trkpt lat="45.3415" lon="2.75712">
        <ele>718.17</ele>
        <time>2022-08-17T10:31:22Z</time>
      </trkpt>
      <trkpt lat="45.34157" lon="2.7572">
        <ele>718.17</ele>
        <time>2022-08-17T10:31:23Z</time>
      </trkpt>
      <trkpt lat="45.34162" lon="2.7573">
        <ele>719.11</ele>
        <time>2022-08-17T10:31:24Z</time>
      </trkpt>
      <trkpt lat="45.34164" lon="2.75739">
        <ele>719.11</ele>
        <time>2022-08-17T10:31:25Z</time>
      </trkpt>
      <trkpt lat="45.34165" lon="2.75748">
        <ele>719.07</ele>
        <time>2022-08-17T10:31:26Z</time>
      </trkpt>
      <trkpt lat="45.34163" lon="2.75757">
        <ele>721.13</ele>
        <time>2022-08-17T10:31:27Z</time>
      </trkpt>
      <trkpt lat="45.34159" lon="2.75767">
        <ele>721.13</ele>
        <time>2022-08-17T10:31:28Z</time>
      </trkpt>
      <trkpt lat="45.34156" lon="2.75777">
        <ele>722.01</ele>
        <time>2022-08-17T10:31:29Z</time>
      </trkpt>
      <trkpt lat="45.34146" lon="2.75812">
        <ele>723.33</ele>
        <time>2022-08-17T10:31:32Z</time>
      </trkpt>
      <trkpt lat="45.34145" lon="2.75822">
        <ele>723.33</ele>
        <time>2022-08-17T10:31:33Z</time>
      </trkpt>
      <trkpt lat="45.34147" lon="2.75833">
        <ele>724.62</ele>
        <time>2022-08-17T10:31:34Z</time>
      </trkpt>
      <trkpt lat="45.34153" lon="2.7584">
        <ele>725.49</ele>
        <time>2022-08-17T10:31:35Z</time>
      </trkpt>
      <trkpt lat="45.3416" lon="2.75844">
        <ele>725.54</ele>
        <time>2022-08-17T10:31:36Z</time>
      </trkpt>
      <trkpt lat="45.34167" lon="2.75846">
        <ele>727.71</ele>
        <time>2022-08-17T10:31:37Z</time>
      </trkpt>
      <trkpt lat="45.34174" lon="2.75847">
        <ele>727.71</ele>
        <time>2022-08-17T10:31:38Z</time>
      </trkpt>
      <trkpt lat="45.3419" lon="2.7585">
        <ele>728.69</ele>
        <time>2022-08-17T10:31:41Z</time>
      </trkpt>
      <trkpt lat="45.34195" lon="2.75854">
        <ele>728.72</ele>
        <time>2022-08-17T10:31:42Z</time>
      </trkpt>
      <trkpt lat="45.342" lon="2.75859">
        <ele>730.18</ele>
        <time>2022-08-17T10:31:43Z</time>
      </trkpt>
      <trkpt lat="45.34204" lon="2.75867">
        <ele>730.18</ele>
        <time>2022-08-17T10:31:44Z</time>
      </trkpt>
      <trkpt lat="45.34208" lon="2.75876">
        <ele>730.22</ele>
        <time>2022-08-17T10:31:45Z</time>
      </trkpt>
      <trkpt lat="45.34212" lon="2.75885">
        <ele>730.2</ele>
        <time>2022-08-17T10:31:46Z</time>
      </trkpt>
      <trkpt lat="45.34227" lon="2.75956">
        <ele>733.61</ele>
        <time>2022-08-17T10:31:51Z</time>
      </trkpt>
      <trkpt lat="45.34227" lon="2.75974">
        <ele>734.5</ele>
        <time>2022-08-17T10:31:52Z</time>
      </trkpt>
      <trkpt lat="45.34228" lon="2.75993">
        <ele>734.48</ele>
        <time>2022-08-17T10:31:53Z</time>
      </trkpt>
      <trkpt lat="45.34229" lon="2.76051">
        <ele>736.65</ele>
        <time>2022-08-17T10:31:56Z</time>
      </trkpt>
      <trkpt lat="45.34232" lon="2.76072">
        <ele>737.8</ele>
        <time>2022-08-17T10:31:57Z</time>
      </trkpt>
      <trkpt lat="45.34236" lon="2.76092">
        <ele>739.24</ele>
        <time>2022-08-17T10:31:58Z</time>
      </trkpt>
      <trkpt lat="45.34241" lon="2.76113">
        <ele>739.23</ele>
        <time>2022-08-17T10:31:59Z</time>
      </trkpt>
      <trkpt lat="45.34248" lon="2.76151">
        <ele>742.25</ele>
        <time>2022-08-17T10:32:01Z</time>
      </trkpt>
      <trkpt lat="45.34246" lon="2.76167">
        <ele>742.3</ele>
        <time>2022-08-17T10:32:02Z</time>
      </trkpt>
      <trkpt lat="45.34243" lon="2.76182">
        <ele>743.07</ele>
        <time>2022-08-17T10:32:03Z</time>
      </trkpt>
      <trkpt lat="45.3424" lon="2.76196">
        <ele>743.12</ele>
        <time>2022-08-17T10:32:04Z</time>
      </trkpt>
      <trkpt lat="45.34238" lon="2.76211">
        <ele>743.99</ele>
        <time>2022-08-17T10:32:05Z</time>
      </trkpt>
      <trkpt lat="45.34238" lon="2.76227">
        <ele>744.88</ele>
        <time>2022-08-17T10:32:06Z</time>
      </trkpt>
      <trkpt lat="45.34241" lon="2.76243">
        <ele>744.91</ele>
        <time>2022-08-17T10:32:07Z</time>
      </trkpt>
      <trkpt lat="45.34246" lon="2.76258">
        <ele>745.74</ele>
        <time>2022-08-17T10:32:08Z</time>
      </trkpt>
      <trkpt lat="45.34253" lon="2.76273">
        <ele>746.92</ele>
        <time>2022-08-17T10:32:09Z</time>
      </trkpt>
      <trkpt lat="45.3426" lon="2.76288">
        <ele>746.93</ele>
        <time>2022-08-17T10:32:10Z</time>
      </trkpt>
      <trkpt lat="45.34274" lon="2.76319">
        <ele>749.43</ele>
        <time>2022-08-17T10:32:12Z</time>
      </trkpt>
      <trkpt lat="45.34283" lon="2.76333">
        <ele>749.39</ele>
        <time>2022-08-17T10:32:13Z</time>
      </trkpt>
      <trkpt lat="45.34293" lon="2.76345">
        <ele>750.98</ele>
        <time>2022-08-17T10:32:14Z</time>
      </trkpt>
      <trkpt lat="45.34397" lon="2.76444">
        <ele>752.05</ele>
        <time>2022-08-17T10:32:23Z</time>
      </trkpt>
      <trkpt lat="45.34409" lon="2.76456">
        <ele>752.04</ele>
        <time>2022-08-17T10:32:24Z</time>
      </trkpt>
      <trkpt lat="45.34419" lon="2.7647">
        <ele>752.03</ele>
        <time>2022-08-17T10:32:25Z</time>
      </trkpt>
      <trkpt lat="45.34428" lon="2.76487">
        <ele>752.03</ele>
        <time>2022-08-17T10:32:26Z</time>
      </trkpt>
      <trkpt lat="45.34437" lon="2.76504">
        <ele>752.02</ele>
        <time>2022-08-17T10:32:27Z</time>
      </trkpt>
      <trkpt lat="45.34523" lon="2.76629">
        <ele>753.09</ele>
        <time>2022-08-17T10:32:35Z</time>
      </trkpt>
      <trkpt lat="45.34532" lon="2.76645">
        <ele>753.11</ele>
        <time>2022-08-17T10:32:36Z</time>
      </trkpt>
      <trkpt lat="45.34539" lon="2.76663">
        <ele>753.13</ele>
        <time>2022-08-17T10:32:37Z</time>
      </trkpt>
      <trkpt lat="45.34545" lon="2.76682">
        <ele>753.13</ele>
        <time>2022-08-17T10:32:38Z</time>
      </trkpt>
      <trkpt lat="45.34549" lon="2.76703">
        <ele>754.69</ele>
        <time>2022-08-17T10:32:39Z</time>
      </trkpt>
      <trkpt lat="45.34551" lon="2.76726">
        <ele>754.71</ele>
        <time>2022-08-17T10:32:40Z</time>
      </trkpt>
      <trkpt lat="45.34551" lon="2.76751">
        <ele>755.84</ele>
        <time>2022-08-17T10:32:41Z</time>
      </trkpt>
      <trkpt lat="45.34551" lon="2.76778">
        <ele>755.85</ele>
        <time>2022-08-17T10:32:42Z</time>
      </trkpt>
      <trkpt lat="45.34553" lon="2.76898">
        <ele>755.87</ele>
        <time>2022-08-17T10:32:47Z</time>
      </trkpt>
      <trkpt lat="45.34557" lon="2.7692">
        <ele>755.89</ele>
        <time>2022-08-17T10:32:48Z</time>
      </trkpt>
      <trkpt lat="45.34563" lon="2.76942">
        <ele>757.16</ele>
        <time>2022-08-17T10:32:49Z</time>
      </trkpt>
      <trkpt lat="45.34572" lon="2.76965">
        <ele>757.17</ele>
        <time>2022-08-17T10:32:50Z</time>
      </trkpt>
      <trkpt lat="45.34581" lon="2.76989">
        <ele>758.5</ele>
        <time>2022-08-17T10:32:51Z</time>
      </trkpt>
      <trkpt lat="45.34617" lon="2.77063">
        <ele>760.47</ele>
        <time>2022-08-17T10:32:54Z</time>
      </trkpt>
      <trkpt lat="45.34701" lon="2.77211">
        <ele>758.79</ele>
        <time>2022-08-17T10:33:01Z</time>
      </trkpt>
      <trkpt lat="45.34714" lon="2.77226">
        <ele>758.8</ele>
        <time>2022-08-17T10:33:02Z</time>
      </trkpt>
      <trkpt lat="45.3473" lon="2.77238">
        <ele>758.84</ele>
        <time>2022-08-17T10:33:03Z</time>
      </trkpt>
      <trkpt lat="45.34747" lon="2.77246">
        <ele>758.67</ele>
        <time>2022-08-17T10:33:04Z</time>
      </trkpt>
      <trkpt lat="45.34767" lon="2.77252">
        <ele>758.67</ele>
        <time>2022-08-17T10:33:05Z</time>
      </trkpt>
      <trkpt lat="45.34787" lon="2.77256">
        <ele>761.1</ele>
        <time>2022-08-17T10:33:06Z</time>
      </trkpt>
      <trkpt lat="45.34807" lon="2.7726">
        <ele>761.08</ele>
        <time>2022-08-17T10:33:07Z</time>
      </trkpt>
      <trkpt lat="45.34872" lon="2.7727">
        <ele>758.16</ele>
        <time>2022-08-17T10:33:11Z</time>
      </trkpt>
      <trkpt lat="45.34894" lon="2.77275">
        <ele>756.05</ele>
        <time>2022-08-17T10:33:13Z</time>
      </trkpt>
      <trkpt lat="45.34901" lon="2.7728">
        <ele>754.94</ele>
        <time>2022-08-17T10:33:14Z</time>
      </trkpt>
      <trkpt lat="45.34907" lon="2.77288">
        <ele>754.94</ele>
        <time>2022-08-17T10:33:15Z</time>
      </trkpt>
      <trkpt lat="45.34908" lon="2.77296">
        <ele>754.92</ele>
        <time>2022-08-17T10:33:16Z</time>
      </trkpt>
      <trkpt lat="45.34904" lon="2.77303">
        <ele>754.96</ele>
        <time>2022-08-17T10:33:17Z</time>
      </trkpt>
      <trkpt lat="45.34897" lon="2.77309">
        <ele>754.9</ele>
        <time>2022-08-17T10:33:18Z</time>
      </trkpt>
      <trkpt lat="45.34886" lon="2.77313">
        <ele>754.94</ele>
        <time>2022-08-17T10:33:19Z</time>
      </trkpt>
      <trkpt lat="45.34874" lon="2.77316">
        <ele>754.95</ele>
        <time>2022-08-17T10:33:20Z</time>
      </trkpt>
      <trkpt lat="45.34858" lon="2.77319">
        <ele>754.94</ele>
        <time>2022-08-17T10:33:21Z</time>
      </trkpt>
      <trkpt lat="45.34842" lon="2.7732">
        <ele>754.99</ele>
        <time>2022-08-17T10:33:22Z</time>
      </trkpt>
      <trkpt lat="45.34824" lon="2.77318">
        <ele>754.97</ele>
        <time>2022-08-17T10:33:23Z</time>
      </trkpt>
      <trkpt lat="45.34806" lon="2.77312">
        <ele>754.88</ele>
        <time>2022-08-17T10:33:24Z</time>
      </trkpt>
      <trkpt lat="45.34788" lon="2.77303">
        <ele>754.88</ele>
        <time>2022-08-17T10:33:25Z</time>
      </trkpt>
      <trkpt lat="45.34769" lon="2.77292">
        <ele>754.84</ele>
        <time>2022-08-17T10:33:26Z</time>
      </trkpt>
      <trkpt lat="45.3475" lon="2.77279">
        <ele>754.92</ele>
        <time>2022-08-17T10:33:27Z</time>
      </trkpt>
      <trkpt lat="45.34715" lon="2.77254">
        <ele>750.26</ele>
        <time>2022-08-17T10:33:29Z</time>
      </trkpt>
      <trkpt lat="45.34699" lon="2.77241">
        <ele>750.26</ele>
        <time>2022-08-17T10:33:30Z</time>
      </trkpt>
      <trkpt lat="45.34667" lon="2.77212">
        <ele>746.72</ele>
        <time>2022-08-17T10:33:32Z</time>
      </trkpt>
      <trkpt lat="45.34621" lon="2.77159">
        <ele>744.48</ele>
        <time>2022-08-17T10:33:35Z</time>
      </trkpt>
      <trkpt lat="45.34592" lon="2.77117">
        <ele>742.82</ele>
        <time>2022-08-17T10:33:37Z</time>
      </trkpt>
      <trkpt lat="45.34556" lon="2.77045">
        <ele>738.99</ele>
        <time>2022-08-17T10:33:40Z</time>
      </trkpt>
      <trkpt lat="45.34522" lon="2.76969">
        <ele>735.49</ele>
        <time>2022-08-17T10:33:43Z</time>
      </trkpt>
      <trkpt lat="45.34499" lon="2.76917">
        <ele>731.9</ele>
        <time>2022-08-17T10:33:45Z</time>
      </trkpt>
      <trkpt lat="45.34464" lon="2.76839">
        <ele>727.45</ele>
        <time>2022-08-17T10:33:48Z</time>
      </trkpt>
      <trkpt lat="45.34438" lon="2.76789">
        <ele>724.43</ele>
        <time>2022-08-17T10:33:50Z</time>
      </trkpt>
      <trkpt lat="45.34409" lon="2.76741">
        <ele>721.13</ele>
        <time>2022-08-17T10:33:52Z</time>
      </trkpt>
      <trkpt lat="45.3438" lon="2.76699">
        <ele>717.83</ele>
        <time>2022-08-17T10:33:54Z</time>
      </trkpt>
      <trkpt lat="45.3435" lon="2.76662">
        <ele>714.39</ele>
        <time>2022-08-17T10:33:56Z</time>
      </trkpt>
      <trkpt lat="45.34319" lon="2.76627">
        <ele>711.3</ele>
        <time>2022-08-17T10:33:58Z</time>
      </trkpt>
      <trkpt lat="45.34303" lon="2.76609">
        <ele>711.59</ele>
        <time>2022-08-17T10:33:59Z</time>
      </trkpt>
      <trkpt lat="45.34271" lon="2.76575">
        <ele>707.79</ele>
        <time>2022-08-17T10:34:01Z</time>
      </trkpt>
      <trkpt lat="45.34254" lon="2.76561">
        <ele>706.93</ele>
        <time>2022-08-17T10:34:02Z</time>
      </trkpt>
      <trkpt lat="45.34234" lon="2.76551">
        <ele>706.93</ele>
        <time>2022-08-17T10:34:03Z</time>
      </trkpt>
      <trkpt lat="45.34213" lon="2.76545">
        <ele>706.78</ele>
        <time>2022-08-17T10:34:04Z</time>
      </trkpt>
      <trkpt lat="45.34191" lon="2.76541">
        <ele>706.79</ele>
        <time>2022-08-17T10:34:05Z</time>
      </trkpt>
      <trkpt lat="45.34169" lon="2.76539">
        <ele>706.66</ele>
        <time>2022-08-17T10:34:06Z</time>
      </trkpt>
      <trkpt lat="45.34128" lon="2.76532">
        <ele>705.01</ele>
        <time>2022-08-17T10:34:08Z</time>
      </trkpt>
      <trkpt lat="45.34109" lon="2.76524">
        <ele>703.67</ele>
        <time>2022-08-17T10:34:09Z</time>
      </trkpt>
      <trkpt lat="45.34092" lon="2.76513">
        <ele>703.7</ele>
        <time>2022-08-17T10:34:10Z</time>
      </trkpt>
      <trkpt lat="45.34077" lon="2.76498">
        <ele>703.61</ele>
        <time>2022-08-17T10:34:11Z</time>
      </trkpt>
      <trkpt lat="45.34062" lon="2.76481">
        <ele>703.68</ele>
        <time>2022-08-17T10:34:12Z</time>
      </trkpt>
      <trkpt lat="45.34047" lon="2.7646">
        <ele>703.7</ele>
        <time>2022-08-17T10:34:13Z</time>
      </trkpt>
      <trkpt lat="45.34033" lon="2.76438">
        <ele>703.76</ele>
        <time>2022-08-17T10:34:14Z</time>
      </trkpt>
      <trkpt lat="45.33961" lon="2.76321">
        <ele>701.42</ele>
        <time>2022-08-17T10:34:20Z</time>
      </trkpt>
      <trkpt lat="45.33939" lon="2.7629">
        <ele>699.96</ele>
        <time>2022-08-17T10:34:22Z</time>
      </trkpt>
      <trkpt lat="45.33908" lon="2.7625">
        <ele>697.42</ele>
        <time>2022-08-17T10:34:25Z</time>
      </trkpt>
      <trkpt lat="45.33875" lon="2.76205">
        <ele>695.41</ele>
        <time>2022-08-17T10:34:29Z</time>
      </trkpt>
      <trkpt lat="45.3387" lon="2.76195">
        <ele>695.47</ele>
        <time>2022-08-17T10:34:30Z</time>
      </trkpt>
      <trkpt lat="45.33865" lon="2.76185">
        <ele>695.41</ele>
        <time>2022-08-17T10:34:31Z</time>
      </trkpt>
      <trkpt lat="45.33859" lon="2.76178">
        <ele>695.42</ele>
        <time>2022-08-17T10:34:32Z</time>
      </trkpt>
      <trkpt lat="45.3385" lon="2.76174">
        <ele>695.36</ele>
        <time>2022-08-17T10:34:33Z</time>
      </trkpt>
      <trkpt lat="45.33841" lon="2.7617">
        <ele>694.54</ele>
        <time>2022-08-17T10:34:34Z</time>
      </trkpt>
      <trkpt lat="45.33832" lon="2.76164">
        <ele>694.5</ele>
        <time>2022-08-17T10:34:35Z</time>
      </trkpt>
      <trkpt lat="45.33825" lon="2.76155">
        <ele>693.03</ele>
        <time>2022-08-17T10:34:36Z</time>
      </trkpt>
      <trkpt lat="45.3382" lon="2.76144">
        <ele>691.8</ele>
        <time>2022-08-17T10:34:37Z</time>
      </trkpt>
      <trkpt lat="45.3382" lon="2.76132">
        <ele>691.76</ele>
        <time>2022-08-17T10:34:38Z</time>
      </trkpt>
      <trkpt lat="45.33823" lon="2.76118">
        <ele>691.76</ele>
        <time>2022-08-17T10:34:39Z</time>
      </trkpt>
      <trkpt lat="45.33827" lon="2.76103">
        <ele>690.22</ele>
        <time>2022-08-17T10:34:40Z</time>
      </trkpt>
      <trkpt lat="45.3383" lon="2.76087">
        <ele>690.26</ele>
        <time>2022-08-17T10:34:41Z</time>
      </trkpt>
      <trkpt lat="45.33831" lon="2.7607">
        <ele>690.19</ele>
        <time>2022-08-17T10:34:42Z</time>
      </trkpt>
      <trkpt lat="45.33829" lon="2.76051">
        <ele>690.25</ele>
        <time>2022-08-17T10:34:43Z</time>
      </trkpt>
      <trkpt lat="45.33826" lon="2.7603">
        <ele>690.33</ele>
        <time>2022-08-17T10:34:44Z</time>
      </trkpt>
      <trkpt lat="45.33815" lon="2.75951">
        <ele>690.44</ele>
        <time>2022-08-17T10:34:48Z</time>
      </trkpt>
      <trkpt lat="45.33815" lon="2.75931">
        <ele>690.38</ele>
        <time>2022-08-17T10:34:49Z</time>
      </trkpt>
      <trkpt lat="45.33816" lon="2.7591">
        <ele>690.43</ele>
        <time>2022-08-17T10:34:50Z</time>
      </trkpt>
      <trkpt lat="45.33822" lon="2.75864">
        <ele>693.25</ele>
        <time>2022-08-17T10:34:52Z</time>
      </trkpt>
      <trkpt lat="45.33833" lon="2.75798">
        <ele>696.07</ele>
        <time>2022-08-17T10:34:55Z</time>
      </trkpt>
      <trkpt lat="45.33859" lon="2.75672">
        <ele>697.12</ele>
        <time>2022-08-17T10:35:01Z</time>
      </trkpt>
      <trkpt lat="45.3386" lon="2.75651">
        <ele>697.11</ele>
        <time>2022-08-17T10:35:02Z</time>
      </trkpt>
      <trkpt lat="45.33859" lon="2.75631">
        <ele>697.08</ele>
        <time>2022-08-17T10:35:03Z</time>
      </trkpt>
      <trkpt lat="45.33853" lon="2.7557">
        <ele>697.09</ele>
        <time>2022-08-17T10:35:06Z</time>
      </trkpt>
      <trkpt lat="45.33853" lon="2.75551">
        <ele>694.14</ele>
        <time>2022-08-17T10:35:07Z</time>
      </trkpt>
      <trkpt lat="45.33856" lon="2.75534">
        <ele>694.08</ele>
        <time>2022-08-17T10:35:08Z</time>
      </trkpt>
      <trkpt lat="45.33861" lon="2.75517">
        <ele>694.04</ele>
        <time>2022-08-17T10:35:09Z</time>
      </trkpt>
      <trkpt lat="45.33869" lon="2.75501">
        <ele>694.05</ele>
        <time>2022-08-17T10:35:10Z</time>
      </trkpt>
      <trkpt lat="45.33879" lon="2.75485">
        <ele>694.05</ele>
        <time>2022-08-17T10:35:11Z</time>
      </trkpt>
      <trkpt lat="45.33902" lon="2.75452">
        <ele>698.23</ele>
        <time>2022-08-17T10:35:13Z</time>
      </trkpt>
      <trkpt lat="45.33939" lon="2.75402">
        <ele>701.2</ele>
        <time>2022-08-17T10:35:16Z</time>
      </trkpt>
      <trkpt lat="45.3395" lon="2.75387">
        <ele>704.73</ele>
        <time>2022-08-17T10:35:17Z</time>
      </trkpt>
      <trkpt lat="45.3396" lon="2.75372">
        <ele>705.81</ele>
        <time>2022-08-17T10:35:18Z</time>
      </trkpt>
      <trkpt lat="45.33967" lon="2.75357">
        <ele>705.87</ele>
        <time>2022-08-17T10:35:19Z</time>
      </trkpt>
      <trkpt lat="45.33971" lon="2.75339">
        <ele>707.87</ele>
        <time>2022-08-17T10:35:20Z</time>
      </trkpt>
      <trkpt lat="45.33972" lon="2.7532">
        <ele>709.01</ele>
        <time>2022-08-17T10:35:21Z</time>
      </trkpt>
      <trkpt lat="45.33972" lon="2.75299">
        <ele>710.44</ele>
        <time>2022-08-17T10:35:22Z</time>
      </trkpt>
      <trkpt lat="45.33972" lon="2.7523">
        <ele>712.96</ele>
        <time>2022-08-17T10:35:25Z</time>
      </trkpt>
      <trkpt lat="45.33977" lon="2.7517">
        <ele>714.04</ele>
        <time>2022-08-17T10:35:28Z</time>
      </trkpt>
      <trkpt lat="45.3398" lon="2.75156">
        <ele>714.16</ele>
        <time>2022-08-17T10:35:29Z</time>
      </trkpt>
      <trkpt lat="45.33986" lon="2.75145">
        <ele>714.14</ele>
        <time>2022-08-17T10:35:30Z</time>
      </trkpt>
      <trkpt lat="45.33993" lon="2.75137">
        <ele>714.09</ele>
        <time>2022-08-17T10:35:31Z</time>
      </trkpt>
      <trkpt lat="45.34003" lon="2.75134">
        <ele>713.98</ele>
        <time>2022-08-17T10:35:32Z</time>
      </trkpt>
      <trkpt lat="45.34013" lon="2.75132">
        <ele>714.06</ele>
        <time>2022-08-17T10:35:33Z</time>
      </trkpt>
      <trkpt lat="45.34025" lon="2.75132">
        <ele>715.19</ele>
        <time>2022-08-17T10:35:34Z</time>
      </trkpt>
      <trkpt lat="45.34037" lon="2.75133">
        <ele>715.88</ele>
        <time>2022-08-17T10:35:35Z</time>
      </trkpt>
      <trkpt lat="45.34056" lon="2.75135">
        <ele>716.69</ele>
        <time>2022-08-17T10:35:37Z</time>
      </trkpt>
      <trkpt lat="45.34068" lon="2.7513">
        <ele>717.96</ele>
        <time>2022-08-17T10:35:40Z</time>
      </trkpt>
      <trkpt lat="45.34071" lon="2.75124">
        <ele>717.97</ele>
        <time>2022-08-17T10:35:41Z</time>
      </trkpt>
      <trkpt lat="45.34075" lon="2.75113">
        <ele>719.6</ele>
        <time>2022-08-17T10:35:42Z</time>
      </trkpt>
      <trkpt lat="45.34078" lon="2.751">
        <ele>719.6</ele>
        <time>2022-08-17T10:35:43Z</time>
      </trkpt>
      <trkpt lat="45.34079" lon="2.75085">
        <ele>720.83</ele>
        <time>2022-08-17T10:35:44Z</time>
      </trkpt>
      <trkpt lat="45.3408" lon="2.7507">
        <ele>720.83</ele>
        <time>2022-08-17T10:35:45Z</time>
      </trkpt>
      <trkpt lat="45.34079" lon="2.75055">
        <ele>720.88</ele>
        <time>2022-08-17T10:35:46Z</time>
      </trkpt>
      <trkpt lat="45.3408" lon="2.75024">
        <ele>723.25</ele>
        <time>2022-08-17T10:35:48Z</time>
      </trkpt>
      <trkpt lat="45.34078" lon="2.75008">
        <ele>724.23</ele>
        <time>2022-08-17T10:35:49Z</time>
      </trkpt>
      <trkpt lat="45.34067" lon="2.7495">
        <ele>728.01</ele>
        <time>2022-08-17T10:35:52Z</time>
      </trkpt>
      <trkpt lat="45.34053" lon="2.7491">
        <ele>730.35</ele>
        <time>2022-08-17T10:35:54Z</time>
      </trkpt>
      <trkpt lat="45.34043" lon="2.74892">
        <ele>731.35</ele>
        <time>2022-08-17T10:35:55Z</time>
      </trkpt>
      <trkpt lat="45.34034" lon="2.74875">
        <ele>731.45</ele>
        <time>2022-08-17T10:35:56Z</time>
      </trkpt>
      <trkpt lat="45.34018" lon="2.74842">
        <ele>732.93</ele>
        <time>2022-08-17T10:35:58Z</time>
      </trkpt>
      <trkpt lat="45.34013" lon="2.74823">
        <ele>732.93</ele>
        <time>2022-08-17T10:35:59Z</time>
      </trkpt>
      <trkpt lat="45.34006" lon="2.74804">
        <ele>734.99</ele>
        <time>2022-08-17T10:36:00Z</time>
      </trkpt>
      <trkpt lat="45.33969" lon="2.7472">
        <ele>739.08</ele>
        <time>2022-08-17T10:36:04Z</time>
      </trkpt>
      <trkpt lat="45.33953" lon="2.74679">
        <ele>739.15</ele>
        <time>2022-08-17T10:36:06Z</time>
      </trkpt>
      <trkpt lat="45.33943" lon="2.74662">
        <ele>740.58</ele>
        <time>2022-08-17T10:36:07Z</time>
      </trkpt>
      <trkpt lat="45.33932" lon="2.74648">
        <ele>741.44</ele>
        <time>2022-08-17T10:36:08Z</time>
      </trkpt>
      <trkpt lat="45.33919" lon="2.74636">
        <ele>742.38</ele>
        <time>2022-08-17T10:36:09Z</time>
      </trkpt>
      <trkpt lat="45.33906" lon="2.74629">
        <ele>742.37</ele>
        <time>2022-08-17T10:36:10Z</time>
      </trkpt>
      <trkpt lat="45.33891" lon="2.74628">
        <ele>743.36</ele>
        <time>2022-08-17T10:36:11Z</time>
      </trkpt>
      <trkpt lat="45.33877" lon="2.74629">
        <ele>744.27</ele>
        <time>2022-08-17T10:36:12Z</time>
      </trkpt>
      <trkpt lat="45.33864" lon="2.74629">
        <ele>744.35</ele>
        <time>2022-08-17T10:36:13Z</time>
      </trkpt>
      <trkpt lat="45.3385" lon="2.74627">
        <ele>744.35</ele>
        <time>2022-08-17T10:36:14Z</time>
      </trkpt>
      <trkpt lat="45.33836" lon="2.74621">
        <ele>745.37</ele>
        <time>2022-08-17T10:36:15Z</time>
      </trkpt>
      <trkpt lat="45.33822" lon="2.74615">
        <ele>745.44</ele>
        <time>2022-08-17T10:36:16Z</time>
      </trkpt>
      <trkpt lat="45.33783" lon="2.74602">
        <ele>746.37</ele>
        <time>2022-08-17T10:36:19Z</time>
      </trkpt>
      <trkpt lat="45.33772" lon="2.74595">
        <ele>746.33</ele>
        <time>2022-08-17T10:36:20Z</time>
      </trkpt>
      <trkpt lat="45.33763" lon="2.74585">
        <ele>746.38</ele>
        <time>2022-08-17T10:36:21Z</time>
      </trkpt>
      <trkpt lat="45.33757" lon="2.74573">
        <ele>746.34</ele>
        <time>2022-08-17T10:36:22Z</time>
      </trkpt>
      <trkpt lat="45.33753" lon="2.74562">
        <ele>746.3</ele>
        <time>2022-08-17T10:36:23Z</time>
      </trkpt>
      <trkpt lat="45.33751" lon="2.74552">
        <ele>746.26</ele>
        <time>2022-08-17T10:36:24Z</time>
      </trkpt>
      <trkpt lat="45.3375" lon="2.74545">
        <ele>746.26</ele>
        <time>2022-08-17T10:36:25Z</time>
      </trkpt>
      <trkpt lat="45.33747" lon="2.74539">
        <ele>746.12</ele>
        <time>2022-08-17T10:36:32Z</time>
      </trkpt>
      <trkpt lat="45.33747" lon="2.74541">
        <ele>746.19</ele>
        <time>2022-08-17T10:36:40Z</time>
      </trkpt>
      <trkpt lat="45.33776" lon="2.74524">
        <ele>752.02</ele>
        <time>2022-08-17T10:47:27Z</time>
      </trkpt>
      <trkpt lat="45.33778" lon="2.74434">
        <ele>756.63</ele>
        <time>2022-08-17T10:47:34Z</time>
      </trkpt>
      <trkpt lat="45.33777" lon="2.74393">
        <ele>757.64</ele>
        <time>2022-08-17T10:47:37Z</time>
      </trkpt>
      <trkpt lat="45.33779" lon="2.74379">
        <ele>757.74</ele>
        <time>2022-08-17T10:47:38Z</time>
      </trkpt>
      <trkpt lat="45.33784" lon="2.74368">
        <ele>757.84</ele>
        <time>2022-08-17T10:47:39Z</time>
      </trkpt>
      <trkpt lat="45.3379" lon="2.74358">
        <ele>757.86</ele>
        <time>2022-08-17T10:47:40Z</time>
      </trkpt>
      <trkpt lat="45.33799" lon="2.74353">
        <ele>757.87</ele>
        <time>2022-08-17T10:47:41Z</time>
      </trkpt>
      <trkpt lat="45.33808" lon="2.74351">
        <ele>757.95</ele>
        <time>2022-08-17T10:47:42Z</time>
      </trkpt>
      <trkpt lat="45.33819" lon="2.74352">
        <ele>757.96</ele>
        <time>2022-08-17T10:47:43Z</time>
      </trkpt>
      <trkpt lat="45.33831" lon="2.74353">
        <ele>758.02</ele>
        <time>2022-08-17T10:47:44Z</time>
      </trkpt>
      <trkpt lat="45.33854" lon="2.74355">
        <ele>758.11</ele>
        <time>2022-08-17T10:47:46Z</time>
      </trkpt>
      <trkpt lat="45.33875" lon="2.7436">
        <ele>758.23</ele>
        <time>2022-08-17T10:47:48Z</time>
      </trkpt>
      <trkpt lat="45.33886" lon="2.74359">
        <ele>758.27</ele>
        <time>2022-08-17T10:47:49Z</time>
      </trkpt>
      <trkpt lat="45.33896" lon="2.74355">
        <ele>759.2</ele>
        <time>2022-08-17T10:47:50Z</time>
      </trkpt>
      <trkpt lat="45.33916" lon="2.74344">
        <ele>760.87</ele>
        <time>2022-08-17T10:47:52Z</time>
      </trkpt>
      <trkpt lat="45.33927" lon="2.74339">
        <ele>760.87</ele>
        <time>2022-08-17T10:47:53Z</time>
      </trkpt>
      <trkpt lat="45.33937" lon="2.74332">
        <ele>761.9</ele>
        <time>2022-08-17T10:47:54Z</time>
      </trkpt>
      <trkpt lat="45.33945" lon="2.74322">
        <ele>763.08</ele>
        <time>2022-08-17T10:47:55Z</time>
      </trkpt>
      <trkpt lat="45.33952" lon="2.7431">
        <ele>763.16</ele>
        <time>2022-08-17T10:47:56Z</time>
      </trkpt>
      <trkpt lat="45.33966" lon="2.74287">
        <ele>764.45</ele>
        <time>2022-08-17T10:47:58Z</time>
      </trkpt>
      <trkpt lat="45.33974" lon="2.7428">
        <ele>764.48</ele>
        <time>2022-08-17T10:47:59Z</time>
      </trkpt>
      <trkpt lat="45.33984" lon="2.74277">
        <ele>765.5</ele>
        <time>2022-08-17T10:48:00Z</time>
      </trkpt>
      <trkpt lat="45.33994" lon="2.74276">
        <ele>765.54</ele>
        <time>2022-08-17T10:48:01Z</time>
      </trkpt>
      <trkpt lat="45.34005" lon="2.74277">
        <ele>765.56</ele>
        <time>2022-08-17T10:48:02Z</time>
      </trkpt>
      <trkpt lat="45.34016" lon="2.74278">
        <ele>766.87</ele>
        <time>2022-08-17T10:48:03Z</time>
      </trkpt>
      <trkpt lat="45.34027" lon="2.7428">
        <ele>766.91</ele>
        <time>2022-08-17T10:48:04Z</time>
      </trkpt>
      <trkpt lat="45.34138" lon="2.74297">
        <ele>766.5</ele>
        <time>2022-08-17T10:48:13Z</time>
      </trkpt>
      <trkpt lat="45.3415" lon="2.74297">
        <ele>766.49</ele>
        <time>2022-08-17T10:48:14Z</time>
      </trkpt>
      <trkpt lat="45.34161" lon="2.74293">
        <ele>766.5</ele>
        <time>2022-08-17T10:48:15Z</time>
      </trkpt>
      <trkpt lat="45.34172" lon="2.74287">
        <ele>766.49</ele>
        <time>2022-08-17T10:48:16Z</time>
      </trkpt>
      <trkpt lat="45.34183" lon="2.74278">
        <ele>766.48</ele>
        <time>2022-08-17T10:48:17Z</time>
      </trkpt>
      <trkpt lat="45.34192" lon="2.74266">
        <ele>766.46</ele>
        <time>2022-08-17T10:48:18Z</time>
      </trkpt>
      <trkpt lat="45.34199" lon="2.74252">
        <ele>767.39</ele>
        <time>2022-08-17T10:48:19Z</time>
      </trkpt>
      <trkpt lat="45.34205" lon="2.74235">
        <ele>767.32</ele>
        <time>2022-08-17T10:48:20Z</time>
      </trkpt>
      <trkpt lat="45.3421" lon="2.74217">
        <ele>767.31</ele>
        <time>2022-08-17T10:48:21Z</time>
      </trkpt>
      <trkpt lat="45.34232" lon="2.74147">
        <ele>768.18</ele>
        <time>2022-08-17T10:48:25Z</time>
      </trkpt>
      <trkpt lat="45.34238" lon="2.7413">
        <ele>768.15</ele>
        <time>2022-08-17T10:48:26Z</time>
      </trkpt>
      <trkpt lat="45.34241" lon="2.74113">
        <ele>768.19</ele>
        <time>2022-08-17T10:48:27Z</time>
      </trkpt>
      <trkpt lat="45.34241" lon="2.74094">
        <ele>769.11</ele>
        <time>2022-08-17T10:48:28Z</time>
      </trkpt>
      <trkpt lat="45.34239" lon="2.74074">
        <ele>769.11</ele>
        <time>2022-08-17T10:48:29Z</time>
      </trkpt>
      <trkpt lat="45.34236" lon="2.74053">
        <ele>769.86</ele>
        <time>2022-08-17T10:48:30Z</time>
      </trkpt>
      <trkpt lat="45.34216" lon="2.7394">
        <ele>769.87</ele>
        <time>2022-08-17T10:48:36Z</time>
      </trkpt>
      <trkpt lat="45.34218" lon="2.73926">
        <ele>767.5</ele>
        <time>2022-08-17T10:48:37Z</time>
      </trkpt>
      <trkpt lat="45.34224" lon="2.73916">
        <ele>767.51</ele>
        <time>2022-08-17T10:48:38Z</time>
      </trkpt>
      <trkpt lat="45.34231" lon="2.73909">
        <ele>767.5</ele>
        <time>2022-08-17T10:48:39Z</time>
      </trkpt>
      <trkpt lat="45.34238" lon="2.73905">
        <ele>767.5</ele>
        <time>2022-08-17T10:48:40Z</time>
      </trkpt>
      <trkpt lat="45.34247" lon="2.73902">
        <ele>767.5</ele>
        <time>2022-08-17T10:48:41Z</time>
      </trkpt>
      <trkpt lat="45.34256" lon="2.739">
        <ele>767.47</ele>
        <time>2022-08-17T10:48:42Z</time>
      </trkpt>
      <trkpt lat="45.34265" lon="2.73894">
        <ele>766.66</ele>
        <time>2022-08-17T10:48:43Z</time>
      </trkpt>
      <trkpt lat="45.34272" lon="2.73888">
        <ele>766.64</ele>
        <time>2022-08-17T10:48:44Z</time>
      </trkpt>
      <trkpt lat="45.34278" lon="2.73878">
        <ele>766.64</ele>
        <time>2022-08-17T10:48:45Z</time>
      </trkpt>
      <trkpt lat="45.34279" lon="2.73862">
        <ele>766.63</ele>
        <time>2022-08-17T10:48:46Z</time>
      </trkpt>
      <trkpt lat="45.3428" lon="2.73845">
        <ele>766.68</ele>
        <time>2022-08-17T10:48:47Z</time>
      </trkpt>
      <trkpt lat="45.34289" lon="2.73772">
        <ele>766.53</ele>
        <time>2022-08-17T10:48:51Z</time>
      </trkpt>
      <trkpt lat="45.34289" lon="2.73752">
        <ele>766.6</ele>
        <time>2022-08-17T10:48:52Z</time>
      </trkpt>
      <trkpt lat="45.34287" lon="2.73733">
        <ele>766.6</ele>
        <time>2022-08-17T10:48:53Z</time>
      </trkpt>
      <trkpt lat="45.34282" lon="2.73695">
        <ele>766.66</ele>
        <time>2022-08-17T10:48:55Z</time>
      </trkpt>
      <trkpt lat="45.34281" lon="2.73676">
        <ele>766.66</ele>
        <time>2022-08-17T10:48:56Z</time>
      </trkpt>
      <trkpt lat="45.34282" lon="2.73567">
        <ele>766.7</ele>
        <time>2022-08-17T10:49:02Z</time>
      </trkpt>
      <trkpt lat="45.34283" lon="2.73551">
        <ele>766.69</ele>
        <time>2022-08-17T10:49:03Z</time>
      </trkpt>
      <trkpt lat="45.34285" lon="2.73536">
        <ele>766.7</ele>
        <time>2022-08-17T10:49:04Z</time>
      </trkpt>
      <trkpt lat="45.34289" lon="2.73521">
        <ele>766.69</ele>
        <time>2022-08-17T10:49:05Z</time>
      </trkpt>
      <trkpt lat="45.34294" lon="2.73508">
        <ele>766.69</ele>
        <time>2022-08-17T10:49:06Z</time>
      </trkpt>
      <trkpt lat="45.34301" lon="2.73495">
        <ele>766.69</ele>
        <time>2022-08-17T10:49:07Z</time>
      </trkpt>
      <trkpt lat="45.34308" lon="2.73482">
        <ele>766.68</ele>
        <time>2022-08-17T10:49:08Z</time>
      </trkpt>
      <trkpt lat="45.34322" lon="2.73453">
        <ele>766.69</ele>
        <time>2022-08-17T10:49:10Z</time>
      </trkpt>
      <trkpt lat="45.34326" lon="2.73435">
        <ele>766.67</ele>
        <time>2022-08-17T10:49:11Z</time>
      </trkpt>
      <trkpt lat="45.3433" lon="2.73416">
        <ele>766.64</ele>
        <time>2022-08-17T10:49:12Z</time>
      </trkpt>
      <trkpt lat="45.34345" lon="2.7334">
        <ele>764.41</ele>
        <time>2022-08-17T10:49:16Z</time>
      </trkpt>
      <trkpt lat="45.34352" lon="2.73325">
        <ele>764.39</ele>
        <time>2022-08-17T10:49:17Z</time>
      </trkpt>
      <trkpt lat="45.34361" lon="2.73313">
        <ele>762.6</ele>
        <time>2022-08-17T10:49:18Z</time>
      </trkpt>
      <trkpt lat="45.34371" lon="2.73304">
        <ele>762.57</ele>
        <time>2022-08-17T10:49:19Z</time>
      </trkpt>
      <trkpt lat="45.34382" lon="2.73298">
        <ele>761.69</ele>
        <time>2022-08-17T10:49:20Z</time>
      </trkpt>
      <trkpt lat="45.34393" lon="2.73294">
        <ele>760.24</ele>
        <time>2022-08-17T10:49:21Z</time>
      </trkpt>
      <trkpt lat="45.34404" lon="2.73289">
        <ele>760.25</ele>
        <time>2022-08-17T10:49:22Z</time>
      </trkpt>
      <trkpt lat="45.34415" lon="2.73286">
        <ele>759.35</ele>
        <time>2022-08-17T10:49:23Z</time>
      </trkpt>
      <trkpt lat="45.34427" lon="2.73286">
        <ele>759.35</ele>
        <time>2022-08-17T10:49:24Z</time>
      </trkpt>
      <trkpt lat="45.34438" lon="2.73287">
        <ele>757.74</ele>
        <time>2022-08-17T10:49:25Z</time>
      </trkpt>
      <trkpt lat="45.3445" lon="2.73287">
        <ele>756.86</ele>
        <time>2022-08-17T10:49:26Z</time>
      </trkpt>
      <trkpt lat="45.34462" lon="2.73284">
        <ele>756.86</ele>
        <time>2022-08-17T10:49:27Z</time>
      </trkpt>
      <trkpt lat="45.34474" lon="2.7328">
        <ele>755.83</ele>
        <time>2022-08-17T10:49:28Z</time>
      </trkpt>
      <trkpt lat="45.34486" lon="2.73279">
        <ele>754.78</ele>
        <time>2022-08-17T10:49:29Z</time>
      </trkpt>
      <trkpt lat="45.34499" lon="2.73285">
        <ele>754.73</ele>
        <time>2022-08-17T10:49:30Z</time>
      </trkpt>
      <trkpt lat="45.34512" lon="2.73291">
        <ele>754.74</ele>
        <time>2022-08-17T10:49:31Z</time>
      </trkpt>
      <trkpt lat="45.34526" lon="2.73296">
        <ele>753.86</ele>
        <time>2022-08-17T10:49:32Z</time>
      </trkpt>
      <trkpt lat="45.34541" lon="2.73298">
        <ele>753.87</ele>
        <time>2022-08-17T10:49:33Z</time>
      </trkpt>
      <trkpt lat="45.34556" lon="2.73298">
        <ele>752.9</ele>
        <time>2022-08-17T10:49:34Z</time>
      </trkpt>
      <trkpt lat="45.34571" lon="2.73296">
        <ele>752.85</ele>
        <time>2022-08-17T10:49:35Z</time>
      </trkpt>
      <trkpt lat="45.34584" lon="2.73291">
        <ele>751.5</ele>
        <time>2022-08-17T10:49:36Z</time>
      </trkpt>
      <trkpt lat="45.34596" lon="2.73288">
        <ele>750.41</ele>
        <time>2022-08-17T10:49:37Z</time>
      </trkpt>
      <trkpt lat="45.34609" lon="2.73286">
        <ele>750.36</ele>
        <time>2022-08-17T10:49:38Z</time>
      </trkpt>
      <trkpt lat="45.34622" lon="2.73286">
        <ele>749.16</ele>
        <time>2022-08-17T10:49:39Z</time>
      </trkpt>
      <trkpt lat="45.34635" lon="2.73286">
        <ele>749.18</ele>
        <time>2022-08-17T10:49:40Z</time>
      </trkpt>
      <trkpt lat="45.34676" lon="2.73294">
        <ele>747.5</ele>
        <time>2022-08-17T10:49:43Z</time>
      </trkpt>
      <trkpt lat="45.3469" lon="2.733">
        <ele>747.52</ele>
        <time>2022-08-17T10:49:44Z</time>
      </trkpt>
      <trkpt lat="45.34718" lon="2.73312">
        <ele>746.03</ele>
        <time>2022-08-17T10:49:46Z</time>
      </trkpt>
      <trkpt lat="45.34732" lon="2.73315">
        <ele>744.95</ele>
        <time>2022-08-17T10:49:47Z</time>
      </trkpt>
      <trkpt lat="45.34744" lon="2.73313">
        <ele>743.89</ele>
        <time>2022-08-17T10:49:48Z</time>
      </trkpt>
      <trkpt lat="45.34756" lon="2.73309">
        <ele>743.89</ele>
        <time>2022-08-17T10:49:49Z</time>
      </trkpt>
      <trkpt lat="45.34767" lon="2.73302">
        <ele>743.01</ele>
        <time>2022-08-17T10:49:50Z</time>
      </trkpt>
      <trkpt lat="45.34778" lon="2.73292">
        <ele>743.01</ele>
        <time>2022-08-17T10:49:51Z</time>
      </trkpt>
      <trkpt lat="45.34788" lon="2.7328">
        <ele>741.82</ele>
        <time>2022-08-17T10:49:52Z</time>
      </trkpt>
      <trkpt lat="45.34796" lon="2.73262">
        <ele>741.83</ele>
        <time>2022-08-17T10:49:53Z</time>
      </trkpt>
      <trkpt lat="45.34802" lon="2.73243">
        <ele>741.83</ele>
        <time>2022-08-17T10:49:54Z</time>
      </trkpt>
      <trkpt lat="45.34808" lon="2.73224">
        <ele>741.78</ele>
        <time>2022-08-17T10:49:55Z</time>
      </trkpt>
      <trkpt lat="45.34816" lon="2.73189">
        <ele>740.22</ele>
        <time>2022-08-17T10:49:57Z</time>
      </trkpt>
      <trkpt lat="45.34816" lon="2.73172">
        <ele>739.11</ele>
        <time>2022-08-17T10:49:58Z</time>
      </trkpt>
      <trkpt lat="45.34816" lon="2.73139">
        <ele>738.06</ele>
        <time>2022-08-17T10:50:00Z</time>
      </trkpt>
      <trkpt lat="45.34819" lon="2.73124">
        <ele>736.68</ele>
        <time>2022-08-17T10:50:01Z</time>
      </trkpt>
      <trkpt lat="45.34826" lon="2.73109">
        <ele>736.61</ele>
        <time>2022-08-17T10:50:02Z</time>
      </trkpt>
      <trkpt lat="45.34835" lon="2.73098">
        <ele>736.61</ele>
        <time>2022-08-17T10:50:03Z</time>
      </trkpt>
      <trkpt lat="45.34847" lon="2.73091">
        <ele>736.65</ele>
        <time>2022-08-17T10:50:04Z</time>
      </trkpt>
      <trkpt lat="45.34859" lon="2.73083">
        <ele>735.08</ele>
        <time>2022-08-17T10:50:05Z</time>
      </trkpt>
      <trkpt lat="45.3487" lon="2.73071">
        <ele>735.07</ele>
        <time>2022-08-17T10:50:06Z</time>
      </trkpt>
      <trkpt lat="45.34877" lon="2.73056">
        <ele>733.46</ele>
        <time>2022-08-17T10:50:07Z</time>
      </trkpt>
      <trkpt lat="45.34882" lon="2.73038">
        <ele>732.07</ele>
        <time>2022-08-17T10:50:08Z</time>
      </trkpt>
      <trkpt lat="45.34887" lon="2.73021">
        <ele>732.09</ele>
        <time>2022-08-17T10:50:09Z</time>
      </trkpt>
      <trkpt lat="45.34893" lon="2.73007">
        <ele>731.7</ele>
        <time>2022-08-17T10:50:10Z</time>
      </trkpt>
      <trkpt lat="45.34902" lon="2.72997">
        <ele>729.79</ele>
        <time>2022-08-17T10:50:11Z</time>
      </trkpt>
      <trkpt lat="45.34911" lon="2.72989">
        <ele>728.78</ele>
        <time>2022-08-17T10:50:12Z</time>
      </trkpt>
      <trkpt lat="45.34921" lon="2.72984">
        <ele>728.78</ele>
        <time>2022-08-17T10:50:13Z</time>
      </trkpt>
      <trkpt lat="45.34931" lon="2.7298">
        <ele>727.42</ele>
        <time>2022-08-17T10:50:14Z</time>
      </trkpt>
      <trkpt lat="45.3494" lon="2.72978">
        <ele>726.56</ele>
        <time>2022-08-17T10:50:15Z</time>
      </trkpt>
      <trkpt lat="45.3495" lon="2.72985">
        <ele>726.55</ele>
        <time>2022-08-17T10:50:16Z</time>
      </trkpt>
      <trkpt lat="45.34959" lon="2.72994">
        <ele>725.71</ele>
        <time>2022-08-17T10:50:17Z</time>
      </trkpt>
      <trkpt lat="45.34967" lon="2.73004">
        <ele>725.72</ele>
        <time>2022-08-17T10:50:18Z</time>
      </trkpt>
      <trkpt lat="45.34975" lon="2.73015">
        <ele>724.39</ele>
        <time>2022-08-17T10:50:19Z</time>
      </trkpt>
      <trkpt lat="45.34984" lon="2.73024">
        <ele>724.32</ele>
        <time>2022-08-17T10:50:20Z</time>
      </trkpt>
      <trkpt lat="45.34993" lon="2.73031">
        <ele>723.16</ele>
        <time>2022-08-17T10:50:21Z</time>
      </trkpt>
      <trkpt lat="45.35004" lon="2.73032">
        <ele>723.16</ele>
        <time>2022-08-17T10:50:22Z</time>
      </trkpt>
      <trkpt lat="45.35016" lon="2.73028">
        <ele>721.93</ele>
        <time>2022-08-17T10:50:23Z</time>
      </trkpt>
      <trkpt lat="45.35029" lon="2.73021">
        <ele>721.93</ele>
        <time>2022-08-17T10:50:24Z</time>
      </trkpt>
      <trkpt lat="45.3504" lon="2.73014">
        <ele>720.47</ele>
        <time>2022-08-17T10:50:25Z</time>
      </trkpt>
      <trkpt lat="45.3505" lon="2.73004">
        <ele>720.49</ele>
        <time>2022-08-17T10:50:26Z</time>
      </trkpt>
      <trkpt lat="45.35058" lon="2.72989">
        <ele>720.42</ele>
        <time>2022-08-17T10:50:27Z</time>
      </trkpt>
      <trkpt lat="45.35064" lon="2.72971">
        <ele>719.4</ele>
        <time>2022-08-17T10:50:28Z</time>
      </trkpt>
      <trkpt lat="45.35068" lon="2.72951">
        <ele>719.35</ele>
        <time>2022-08-17T10:50:29Z</time>
      </trkpt>
      <trkpt lat="45.35072" lon="2.72931">
        <ele>718.43</ele>
        <time>2022-08-17T10:50:30Z</time>
      </trkpt>
      <trkpt lat="45.35074" lon="2.72912">
        <ele>717.36</ele>
        <time>2022-08-17T10:50:31Z</time>
      </trkpt>
      <trkpt lat="45.35078" lon="2.72895">
        <ele>716.31</ele>
        <time>2022-08-17T10:50:32Z</time>
      </trkpt>
      <trkpt lat="45.35083" lon="2.72877">
        <ele>716.3</ele>
        <time>2022-08-17T10:50:33Z</time>
      </trkpt>
      <trkpt lat="45.3509" lon="2.72859">
        <ele>715.25</ele>
        <time>2022-08-17T10:50:34Z</time>
      </trkpt>
      <trkpt lat="45.3511" lon="2.72805">
        <ele>711.88</ele>
        <time>2022-08-17T10:50:37Z</time>
      </trkpt>
      <trkpt lat="45.35122" lon="2.72771">
        <ele>710.13</ele>
        <time>2022-08-17T10:50:39Z</time>
      </trkpt>
      <trkpt lat="45.3513" lon="2.72755">
        <ele>710.12</ele>
        <time>2022-08-17T10:50:40Z</time>
      </trkpt>
      <trkpt lat="45.35167" lon="2.72688">
        <ele>707.77</ele>
        <time>2022-08-17T10:50:44Z</time>
      </trkpt>
      <trkpt lat="45.35183" lon="2.72655">
        <ele>704.75</ele>
        <time>2022-08-17T10:50:46Z</time>
      </trkpt>
      <trkpt lat="45.3519" lon="2.72639">
        <ele>704.75</ele>
        <time>2022-08-17T10:50:47Z</time>
      </trkpt>
      <trkpt lat="45.35194" lon="2.72621">
        <ele>704.74</ele>
        <time>2022-08-17T10:50:48Z</time>
      </trkpt>
      <trkpt lat="45.35195" lon="2.72602">
        <ele>704.68</ele>
        <time>2022-08-17T10:50:49Z</time>
      </trkpt>
      <trkpt lat="45.35197" lon="2.72583">
        <ele>704.7</ele>
        <time>2022-08-17T10:50:50Z</time>
      </trkpt>
      <trkpt lat="45.352" lon="2.72564">
        <ele>704.63</ele>
        <time>2022-08-17T10:50:51Z</time>
      </trkpt>
      <trkpt lat="45.35202" lon="2.72545">
        <ele>704.62</ele>
        <time>2022-08-17T10:50:52Z</time>
      </trkpt>
      <trkpt lat="45.35199" lon="2.72524">
        <ele>707</ele>
        <time>2022-08-17T10:50:53Z</time>
      </trkpt>
      <trkpt lat="45.35193" lon="2.72497">
        <ele>707.03</ele>
        <time>2022-08-17T10:50:54Z</time>
      </trkpt>
      <trkpt lat="45.35182" lon="2.72446">
        <ele>708.61</ele>
        <time>2022-08-17T10:50:56Z</time>
      </trkpt>
      <trkpt lat="45.3518" lon="2.72422">
        <ele>708.73</ele>
        <time>2022-08-17T10:50:57Z</time>
      </trkpt>
      <trkpt lat="45.3518" lon="2.724">
        <ele>708.85</ele>
        <time>2022-08-17T10:50:58Z</time>
      </trkpt>
      <trkpt lat="45.3518" lon="2.72376">
        <ele>709.96</ele>
        <time>2022-08-17T10:50:59Z</time>
      </trkpt>
      <trkpt lat="45.35181" lon="2.72354">
        <ele>709.94</ele>
        <time>2022-08-17T10:51:00Z</time>
      </trkpt>
      <trkpt lat="45.35189" lon="2.72291">
        <ele>711.26</ele>
        <time>2022-08-17T10:51:03Z</time>
      </trkpt>
      <trkpt lat="45.35194" lon="2.7227">
        <ele>712.07</ele>
        <time>2022-08-17T10:51:04Z</time>
      </trkpt>
      <trkpt lat="45.3521" lon="2.722">
        <ele>713.25</ele>
        <time>2022-08-17T10:51:07Z</time>
      </trkpt>
      <trkpt lat="45.35222" lon="2.72125">
        <ele>713.12</ele>
        <time>2022-08-17T10:51:11Z</time>
      </trkpt>
      <trkpt lat="45.35224" lon="2.72106">
        <ele>713.07</ele>
        <time>2022-08-17T10:51:12Z</time>
      </trkpt>
      <trkpt lat="45.35231" lon="2.72095">
        <ele>713.05</ele>
        <time>2022-08-17T10:51:13Z</time>
      </trkpt>
      <trkpt lat="45.35239" lon="2.72086">
        <ele>713.1</ele>
        <time>2022-08-17T10:51:14Z</time>
      </trkpt>
      <trkpt lat="45.35246" lon="2.72073">
        <ele>713.11</ele>
        <time>2022-08-17T10:51:15Z</time>
      </trkpt>
      <trkpt lat="45.35251" lon="2.72058">
        <ele>713.03</ele>
        <time>2022-08-17T10:51:16Z</time>
      </trkpt>
      <trkpt lat="45.35253" lon="2.72039">
        <ele>714.18</ele>
        <time>2022-08-17T10:51:17Z</time>
      </trkpt>
      <trkpt lat="45.35255" lon="2.7202">
        <ele>715</ele>
        <time>2022-08-17T10:51:18Z</time>
      </trkpt>
      <trkpt lat="45.35258" lon="2.72001">
        <ele>715.08</ele>
        <time>2022-08-17T10:51:19Z</time>
      </trkpt>
      <trkpt lat="45.35259" lon="2.71981">
        <ele>716.61</ele>
        <time>2022-08-17T10:51:20Z</time>
      </trkpt>
      <trkpt lat="45.35259" lon="2.71959">
        <ele>716.58</ele>
        <time>2022-08-17T10:51:21Z</time>
      </trkpt>
      <trkpt lat="45.35257" lon="2.71937">
        <ele>716.62</ele>
        <time>2022-08-17T10:51:22Z</time>
      </trkpt>
      <trkpt lat="45.35254" lon="2.71916">
        <ele>717.33</ele>
        <time>2022-08-17T10:51:23Z</time>
      </trkpt>
      <trkpt lat="45.35249" lon="2.71898">
        <ele>717.32</ele>
        <time>2022-08-17T10:51:24Z</time>
      </trkpt>
      <trkpt lat="45.35244" lon="2.71882">
        <ele>717.35</ele>
        <time>2022-08-17T10:51:25Z</time>
      </trkpt>
      <trkpt lat="45.35241" lon="2.71866">
        <ele>717.36</ele>
        <time>2022-08-17T10:51:26Z</time>
      </trkpt>
      <trkpt lat="45.3524" lon="2.7185">
        <ele>717.36</ele>
        <time>2022-08-17T10:51:27Z</time>
      </trkpt>
      <trkpt lat="45.35238" lon="2.71832">
        <ele>717.35</ele>
        <time>2022-08-17T10:51:28Z</time>
      </trkpt>
      <trkpt lat="45.35236" lon="2.71816">
        <ele>717.43</ele>
        <time>2022-08-17T10:51:29Z</time>
      </trkpt>
      <trkpt lat="45.35232" lon="2.718">
        <ele>718.66</ele>
        <time>2022-08-17T10:51:30Z</time>
      </trkpt>
      <trkpt lat="45.35226" lon="2.71784">
        <ele>719.13</ele>
        <time>2022-08-17T10:51:31Z</time>
      </trkpt>
      <trkpt lat="45.35221" lon="2.71768">
        <ele>719.13</ele>
        <time>2022-08-17T10:51:32Z</time>
      </trkpt>
      <trkpt lat="45.35215" lon="2.71754">
        <ele>719.17</ele>
        <time>2022-08-17T10:51:33Z</time>
      </trkpt>
      <trkpt lat="45.35211" lon="2.7174">
        <ele>719.17</ele>
        <time>2022-08-17T10:51:34Z</time>
      </trkpt>
      <trkpt lat="45.35211" lon="2.71725">
        <ele>719.2</ele>
        <time>2022-08-17T10:51:35Z</time>
      </trkpt>
      <trkpt lat="45.35214" lon="2.7171">
        <ele>719.19</ele>
        <time>2022-08-17T10:51:36Z</time>
      </trkpt>
      <trkpt lat="45.35219" lon="2.71697">
        <ele>720.13</ele>
        <time>2022-08-17T10:51:37Z</time>
      </trkpt>
      <trkpt lat="45.35226" lon="2.71684">
        <ele>720.16</ele>
        <time>2022-08-17T10:51:38Z</time>
      </trkpt>
      <trkpt lat="45.35235" lon="2.71672">
        <ele>720.13</ele>
        <time>2022-08-17T10:51:39Z</time>
      </trkpt>
      <trkpt lat="45.35244" lon="2.71659">
        <ele>721.53</ele>
        <time>2022-08-17T10:51:40Z</time>
      </trkpt>
      <trkpt lat="45.3525" lon="2.71645">
        <ele>721.54</ele>
        <time>2022-08-17T10:51:41Z</time>
      </trkpt>
      <trkpt lat="45.35254" lon="2.71629">
        <ele>721.57</ele>
        <time>2022-08-17T10:51:42Z</time>
      </trkpt>
      <trkpt lat="45.35258" lon="2.71613">
        <ele>722.55</ele>
        <time>2022-08-17T10:51:43Z</time>
      </trkpt>
      <trkpt lat="45.35271" lon="2.71564">
        <ele>722.58</ele>
        <time>2022-08-17T10:51:46Z</time>
      </trkpt>
      <trkpt lat="45.35278" lon="2.7155">
        <ele>722.55</ele>
        <time>2022-08-17T10:51:47Z</time>
      </trkpt>
      <trkpt lat="45.35288" lon="2.71537">
        <ele>723.5</ele>
        <time>2022-08-17T10:51:48Z</time>
      </trkpt>
      <trkpt lat="45.35299" lon="2.71526">
        <ele>724.59</ele>
        <time>2022-08-17T10:51:49Z</time>
      </trkpt>
      <trkpt lat="45.35311" lon="2.71514">
        <ele>724.59</ele>
        <time>2022-08-17T10:51:50Z</time>
      </trkpt>
      <trkpt lat="45.35325" lon="2.71503">
        <ele>726.31</ele>
        <time>2022-08-17T10:51:51Z</time>
      </trkpt>
      <trkpt lat="45.35339" lon="2.71491">
        <ele>726.38</ele>
        <time>2022-08-17T10:51:52Z</time>
      </trkpt>
      <trkpt lat="45.35384" lon="2.71454">
        <ele>728.91</ele>
        <time>2022-08-17T10:51:55Z</time>
      </trkpt>
      <trkpt lat="45.3545" lon="2.71387">
        <ele>729.8</ele>
        <time>2022-08-17T10:52:01Z</time>
      </trkpt>
      <trkpt lat="45.35455" lon="2.71375">
        <ele>729.86</ele>
        <time>2022-08-17T10:52:02Z</time>
      </trkpt>
      <trkpt lat="45.35458" lon="2.71363">
        <ele>731.16</ele>
        <time>2022-08-17T10:52:03Z</time>
      </trkpt>
      <trkpt lat="45.35456" lon="2.71344">
        <ele>731.04</ele>
        <time>2022-08-17T10:52:04Z</time>
      </trkpt>
      <trkpt lat="45.35454" lon="2.71323">
        <ele>732.69</ele>
        <time>2022-08-17T10:52:05Z</time>
      </trkpt>
      <trkpt lat="45.35454" lon="2.71301">
        <ele>732.7</ele>
        <time>2022-08-17T10:52:06Z</time>
      </trkpt>
      <trkpt lat="45.35456" lon="2.71279">
        <ele>734</ele>
        <time>2022-08-17T10:52:07Z</time>
      </trkpt>
      <trkpt lat="45.35459" lon="2.71258">
        <ele>734.01</ele>
        <time>2022-08-17T10:52:08Z</time>
      </trkpt>
      <trkpt lat="45.35464" lon="2.71238">
        <ele>735.24</ele>
        <time>2022-08-17T10:52:09Z</time>
      </trkpt>
      <trkpt lat="45.3547" lon="2.71218">
        <ele>735.3</ele>
        <time>2022-08-17T10:52:10Z</time>
      </trkpt>
      <trkpt lat="45.35477" lon="2.71197">
        <ele>736.98</ele>
        <time>2022-08-17T10:52:11Z</time>
      </trkpt>
      <trkpt lat="45.35489" lon="2.71153">
        <ele>738.04</ele>
        <time>2022-08-17T10:52:13Z</time>
      </trkpt>
      <trkpt lat="45.35502" lon="2.71102">
        <ele>738.08</ele>
        <time>2022-08-17T10:52:16Z</time>
      </trkpt>
      <trkpt lat="45.35506" lon="2.71088">
        <ele>738.14</ele>
        <time>2022-08-17T10:52:17Z</time>
      </trkpt>
      <trkpt lat="45.35506" lon="2.71074">
        <ele>738.14</ele>
        <time>2022-08-17T10:52:18Z</time>
      </trkpt>
      <trkpt lat="45.35503" lon="2.71058">
        <ele>738.99</ele>
        <time>2022-08-17T10:52:19Z</time>
      </trkpt>
      <trkpt lat="45.35494" lon="2.71046">
        <ele>739.49</ele>
        <time>2022-08-17T10:52:20Z</time>
      </trkpt>
      <trkpt lat="45.35485" lon="2.71033">
        <ele>739.49</ele>
        <time>2022-08-17T10:52:21Z</time>
      </trkpt>
      <trkpt lat="45.35469" lon="2.71006">
        <ele>739.53</ele>
        <time>2022-08-17T10:52:23Z</time>
      </trkpt>
      <trkpt lat="45.35462" lon="2.7099">
        <ele>739.55</ele>
        <time>2022-08-17T10:52:24Z</time>
      </trkpt>
      <trkpt lat="45.35458" lon="2.70975">
        <ele>739.55</ele>
        <time>2022-08-17T10:52:25Z</time>
      </trkpt>
      <trkpt lat="45.35455" lon="2.7096">
        <ele>739.53</ele>
        <time>2022-08-17T10:52:26Z</time>
      </trkpt>
      <trkpt lat="45.35456" lon="2.70945">
        <ele>737.06</ele>
        <time>2022-08-17T10:52:27Z</time>
      </trkpt>
      <trkpt lat="45.35457" lon="2.7093">
        <ele>736.21</ele>
        <time>2022-08-17T10:52:28Z</time>
      </trkpt>
      <trkpt lat="45.35459" lon="2.70914">
        <ele>736.21</ele>
        <time>2022-08-17T10:52:29Z</time>
      </trkpt>
      <trkpt lat="45.35459" lon="2.70898">
        <ele>736.21</ele>
        <time>2022-08-17T10:52:30Z</time>
      </trkpt>
      <trkpt lat="45.35458" lon="2.70881">
        <ele>735.06</ele>
        <time>2022-08-17T10:52:31Z</time>
      </trkpt>
      <trkpt lat="45.3546" lon="2.70864">
        <ele>734.03</ele>
        <time>2022-08-17T10:52:32Z</time>
      </trkpt>
      <trkpt lat="45.35464" lon="2.70849">
        <ele>733.2</ele>
        <time>2022-08-17T10:52:33Z</time>
      </trkpt>
      <trkpt lat="45.3547" lon="2.70836">
        <ele>733.19</ele>
        <time>2022-08-17T10:52:34Z</time>
      </trkpt>
      <trkpt lat="45.35478" lon="2.70825">
        <ele>732.15</ele>
        <time>2022-08-17T10:52:35Z</time>
      </trkpt>
      <trkpt lat="45.35486" lon="2.70817">
        <ele>732.05</ele>
        <time>2022-08-17T10:52:36Z</time>
      </trkpt>
      <trkpt lat="45.35493" lon="2.70807">
        <ele>730.72</ele>
        <time>2022-08-17T10:52:37Z</time>
      </trkpt>
      <trkpt lat="45.35499" lon="2.70797">
        <ele>730.67</ele>
        <time>2022-08-17T10:52:38Z</time>
      </trkpt>
      <trkpt lat="45.35498" lon="2.70783">
        <ele>729.59</ele>
        <time>2022-08-17T10:52:39Z</time>
      </trkpt>
      <trkpt lat="45.35494" lon="2.7077">
        <ele>729.56</ele>
        <time>2022-08-17T10:52:40Z</time>
      </trkpt>
      <trkpt lat="45.35486" lon="2.70758">
        <ele>729.57</ele>
        <time>2022-08-17T10:52:41Z</time>
      </trkpt>
      <trkpt lat="45.35475" lon="2.70746">
        <ele>729.55</ele>
        <time>2022-08-17T10:52:42Z</time>
      </trkpt>
      <trkpt lat="45.35459" lon="2.7075">
        <ele>729.49</ele>
        <time>2022-08-17T10:52:43Z</time>
      </trkpt>
      <trkpt lat="45.35442" lon="2.70737">
        <ele>729.56</ele>
        <time>2022-08-17T10:52:44Z</time>
      </trkpt>
      <trkpt lat="45.35424" lon="2.70728">
        <ele>727.8</ele>
        <time>2022-08-17T10:52:45Z</time>
      </trkpt>
      <trkpt lat="45.35392" lon="2.70717">
        <ele>726.51</ele>
        <time>2022-08-17T10:52:47Z</time>
      </trkpt>
      <trkpt lat="45.35367" lon="2.70707">
        <ele>723.1</ele>
        <time>2022-08-17T10:52:49Z</time>
      </trkpt>
      <trkpt lat="45.35346" lon="2.70695">
        <ele>722.34</ele>
        <time>2022-08-17T10:52:51Z</time>
      </trkpt>
      <trkpt lat="45.35336" lon="2.70679">
        <ele>722.28</ele>
        <time>2022-08-17T10:52:52Z</time>
      </trkpt>
      <trkpt lat="45.35295" lon="2.70617">
        <ele>719.14</ele>
        <time>2022-08-17T10:52:56Z</time>
      </trkpt>
      <trkpt lat="45.35284" lon="2.70609">
        <ele>719.21</ele>
        <time>2022-08-17T10:52:57Z</time>
      </trkpt>
      <trkpt lat="45.35272" lon="2.70604">
        <ele>718.04</ele>
        <time>2022-08-17T10:52:58Z</time>
      </trkpt>
      <trkpt lat="45.3526" lon="2.706">
        <ele>718.04</ele>
        <time>2022-08-17T10:52:59Z</time>
      </trkpt>
      <trkpt lat="45.3525" lon="2.70597">
        <ele>716.81</ele>
        <time>2022-08-17T10:53:00Z</time>
      </trkpt>
      <trkpt lat="45.35242" lon="2.7059">
        <ele>716.8</ele>
        <time>2022-08-17T10:53:01Z</time>
      </trkpt>
      <trkpt lat="45.35235" lon="2.7058">
        <ele>715.61</ele>
        <time>2022-08-17T10:53:02Z</time>
      </trkpt>
      <trkpt lat="45.35229" lon="2.70568">
        <ele>715.62</ele>
        <time>2022-08-17T10:53:03Z</time>
      </trkpt>
      <trkpt lat="45.35225" lon="2.70553">
        <ele>714.61</ele>
        <time>2022-08-17T10:53:04Z</time>
      </trkpt>
      <trkpt lat="45.35225" lon="2.70538">
        <ele>714.56</ele>
        <time>2022-08-17T10:53:05Z</time>
      </trkpt>
      <trkpt lat="45.35227" lon="2.70522">
        <ele>712.97</ele>
        <time>2022-08-17T10:53:06Z</time>
      </trkpt>
      <trkpt lat="45.35235" lon="2.70506">
        <ele>712.92</ele>
        <time>2022-08-17T10:53:07Z</time>
      </trkpt>
      <trkpt lat="45.35243" lon="2.70488">
        <ele>712.95</ele>
        <time>2022-08-17T10:53:08Z</time>
      </trkpt>
      <trkpt lat="45.35251" lon="2.70469">
        <ele>711.8</ele>
        <time>2022-08-17T10:53:09Z</time>
      </trkpt>
      <trkpt lat="45.35256" lon="2.7045">
        <ele>711.8</ele>
        <time>2022-08-17T10:53:10Z</time>
      </trkpt>
      <trkpt lat="45.35259" lon="2.70433">
        <ele>709.55</ele>
        <time>2022-08-17T10:53:11Z</time>
      </trkpt>
      <trkpt lat="45.35259" lon="2.70418">
        <ele>709.49</ele>
        <time>2022-08-17T10:53:12Z</time>
      </trkpt>
      <trkpt lat="45.35256" lon="2.70401">
        <ele>709.49</ele>
        <time>2022-08-17T10:53:13Z</time>
      </trkpt>
      <trkpt lat="45.35248" lon="2.7039">
        <ele>709.44</ele>
        <time>2022-08-17T10:53:14Z</time>
      </trkpt>
      <trkpt lat="45.35239" lon="2.70381">
        <ele>709.45</ele>
        <time>2022-08-17T10:53:15Z</time>
      </trkpt>
      <trkpt lat="45.35233" lon="2.70368">
        <ele>708.63</ele>
        <time>2022-08-17T10:53:16Z</time>
      </trkpt>
      <trkpt lat="45.3523" lon="2.70355">
        <ele>707.7</ele>
        <time>2022-08-17T10:53:17Z</time>
      </trkpt>
      <trkpt lat="45.35229" lon="2.70342">
        <ele>707.71</ele>
        <time>2022-08-17T10:53:18Z</time>
      </trkpt>
      <trkpt lat="45.35232" lon="2.70325">
        <ele>707.68</ele>
        <time>2022-08-17T10:53:19Z</time>
      </trkpt>
      <trkpt lat="45.35236" lon="2.70305">
        <ele>707.68</ele>
        <time>2022-08-17T10:53:20Z</time>
      </trkpt>
      <trkpt lat="45.35244" lon="2.70225">
        <ele>707.69</ele>
        <time>2022-08-17T10:53:23Z</time>
      </trkpt>
      <trkpt lat="45.35247" lon="2.70092">
        <ele>706.13</ele>
        <time>2022-08-17T10:53:28Z</time>
      </trkpt>
      <trkpt lat="45.35244" lon="2.7005">
        <ele>704.78</ele>
        <time>2022-08-17T10:53:30Z</time>
      </trkpt>
      <trkpt lat="45.35239" lon="2.70031">
        <ele>703.25</ele>
        <time>2022-08-17T10:53:31Z</time>
      </trkpt>
      <trkpt lat="45.35232" lon="2.70014">
        <ele>703.22</ele>
        <time>2022-08-17T10:53:32Z</time>
      </trkpt>
      <trkpt lat="45.35219" lon="2.69986">
        <ele>700.66</ele>
        <time>2022-08-17T10:53:34Z</time>
      </trkpt>
      <trkpt lat="45.3522" lon="2.69972">
        <ele>699.63</ele>
        <time>2022-08-17T10:53:35Z</time>
      </trkpt>
      <trkpt lat="45.35225" lon="2.69956">
        <ele>699.58</ele>
        <time>2022-08-17T10:53:36Z</time>
      </trkpt>
      <trkpt lat="45.35233" lon="2.69939">
        <ele>699.58</ele>
        <time>2022-08-17T10:53:37Z</time>
      </trkpt>
      <trkpt lat="45.35241" lon="2.69919">
        <ele>699.58</ele>
        <time>2022-08-17T10:53:38Z</time>
      </trkpt>
      <trkpt lat="45.35248" lon="2.69897">
        <ele>699.54</ele>
        <time>2022-08-17T10:53:39Z</time>
      </trkpt>
      <trkpt lat="45.35254" lon="2.69874">
        <ele>699.53</ele>
        <time>2022-08-17T10:53:40Z</time>
      </trkpt>
      <trkpt lat="45.3526" lon="2.69852">
        <ele>697.99</ele>
        <time>2022-08-17T10:53:41Z</time>
      </trkpt>
      <trkpt lat="45.35266" lon="2.69831">
        <ele>696.82</ele>
        <time>2022-08-17T10:53:42Z</time>
      </trkpt>
      <trkpt lat="45.35273" lon="2.69812">
        <ele>696.75</ele>
        <time>2022-08-17T10:53:43Z</time>
      </trkpt>
      <trkpt lat="45.35296" lon="2.69761">
        <ele>694.62</ele>
        <time>2022-08-17T10:53:46Z</time>
      </trkpt>
      <trkpt lat="45.35307" lon="2.69727">
        <ele>692.57</ele>
        <time>2022-08-17T10:53:48Z</time>
      </trkpt>
      <trkpt lat="45.35309" lon="2.69711">
        <ele>692.61</ele>
        <time>2022-08-17T10:53:49Z</time>
      </trkpt>
      <trkpt lat="45.35307" lon="2.69694">
        <ele>691.57</ele>
        <time>2022-08-17T10:53:50Z</time>
      </trkpt>
      <trkpt lat="45.353" lon="2.69678">
        <ele>691.6</ele>
        <time>2022-08-17T10:53:51Z</time>
      </trkpt>
      <trkpt lat="45.35293" lon="2.69662">
        <ele>691.48</ele>
        <time>2022-08-17T10:53:52Z</time>
      </trkpt>
      <trkpt lat="45.3528" lon="2.69631">
        <ele>690.06</ele>
        <time>2022-08-17T10:53:54Z</time>
      </trkpt>
      <trkpt lat="45.35276" lon="2.69612">
        <ele>688.95</ele>
        <time>2022-08-17T10:53:55Z</time>
      </trkpt>
      <trkpt lat="45.35256" lon="2.69509">
        <ele>685.37</ele>
        <time>2022-08-17T10:54:00Z</time>
      </trkpt>
      <trkpt lat="45.35254" lon="2.69489">
        <ele>684.45</ele>
        <time>2022-08-17T10:54:01Z</time>
      </trkpt>
      <trkpt lat="45.35253" lon="2.6947">
        <ele>683.42</ele>
        <time>2022-08-17T10:54:02Z</time>
      </trkpt>
      <trkpt lat="45.35255" lon="2.69451">
        <ele>683.42</ele>
        <time>2022-08-17T10:54:03Z</time>
      </trkpt>
      <trkpt lat="45.35258" lon="2.69416">
        <ele>680.08</ele>
        <time>2022-08-17T10:54:05Z</time>
      </trkpt>
      <trkpt lat="45.35261" lon="2.69401">
        <ele>679.24</ele>
        <time>2022-08-17T10:54:06Z</time>
      </trkpt>
      <trkpt lat="45.35266" lon="2.69389">
        <ele>677.98</ele>
        <time>2022-08-17T10:54:07Z</time>
      </trkpt>
      <trkpt lat="45.35276" lon="2.69381">
        <ele>677.99</ele>
        <time>2022-08-17T10:54:08Z</time>
      </trkpt>
      <trkpt lat="45.35286" lon="2.69373">
        <ele>677.93</ele>
        <time>2022-08-17T10:54:09Z</time>
      </trkpt>
      <trkpt lat="45.35295" lon="2.69364">
        <ele>676.21</ele>
        <time>2022-08-17T10:54:10Z</time>
      </trkpt>
      <trkpt lat="45.35304" lon="2.69356">
        <ele>675.46</ele>
        <time>2022-08-17T10:54:11Z</time>
      </trkpt>
      <trkpt lat="45.35314" lon="2.6935">
        <ele>675.37</ele>
        <time>2022-08-17T10:54:12Z</time>
      </trkpt>
      <trkpt lat="45.35324" lon="2.69345">
        <ele>673.97</ele>
        <time>2022-08-17T10:54:13Z</time>
      </trkpt>
      <trkpt lat="45.35335" lon="2.69342">
        <ele>673.89</ele>
        <time>2022-08-17T10:54:14Z</time>
      </trkpt>
      <trkpt lat="45.35345" lon="2.69338">
        <ele>672.7</ele>
        <time>2022-08-17T10:54:15Z</time>
      </trkpt>
      <trkpt lat="45.35354" lon="2.69334">
        <ele>672.6</ele>
        <time>2022-08-17T10:54:16Z</time>
      </trkpt>
      <trkpt lat="45.35361" lon="2.69328">
        <ele>671.55</ele>
        <time>2022-08-17T10:54:17Z</time>
      </trkpt>
      <trkpt lat="45.35366" lon="2.6932">
        <ele>670.7</ele>
        <time>2022-08-17T10:54:18Z</time>
      </trkpt>
      <trkpt lat="45.35364" lon="2.69304">
        <ele>670.65</ele>
        <time>2022-08-17T10:54:19Z</time>
      </trkpt>
      <trkpt lat="45.35358" lon="2.69287">
        <ele>669.61</ele>
        <time>2022-08-17T10:54:20Z</time>
      </trkpt>
      <trkpt lat="45.35351" lon="2.69274">
        <ele>668.78</ele>
        <time>2022-08-17T10:54:21Z</time>
      </trkpt>
      <trkpt lat="45.35343" lon="2.69262">
        <ele>668.78</ele>
        <time>2022-08-17T10:54:22Z</time>
      </trkpt>
      <trkpt lat="45.35338" lon="2.6925">
        <ele>667.32</ele>
        <time>2022-08-17T10:54:23Z</time>
      </trkpt>
      <trkpt lat="45.35335" lon="2.69236">
        <ele>666.96</ele>
        <time>2022-08-17T10:54:24Z</time>
      </trkpt>
      <trkpt lat="45.35335" lon="2.69221">
        <ele>666.96</ele>
        <time>2022-08-17T10:54:25Z</time>
      </trkpt>
      <trkpt lat="45.3534" lon="2.69208">
        <ele>665.99</ele>
        <time>2022-08-17T10:54:26Z</time>
      </trkpt>
      <trkpt lat="45.35346" lon="2.69195">
        <ele>664.82</ele>
        <time>2022-08-17T10:54:27Z</time>
      </trkpt>
      <trkpt lat="45.35353" lon="2.6918">
        <ele>664.86</ele>
        <time>2022-08-17T10:54:28Z</time>
      </trkpt>
      <trkpt lat="45.35357" lon="2.69163">
        <ele>664.78</ele>
        <time>2022-08-17T10:54:29Z</time>
      </trkpt>
      <trkpt lat="45.35359" lon="2.69145">
        <ele>663.28</ele>
        <time>2022-08-17T10:54:30Z</time>
      </trkpt>
      <trkpt lat="45.35357" lon="2.69126">
        <ele>663.31</ele>
        <time>2022-08-17T10:54:31Z</time>
      </trkpt>
      <trkpt lat="45.3535" lon="2.69104">
        <ele>663.31</ele>
        <time>2022-08-17T10:54:32Z</time>
      </trkpt>
      <trkpt lat="45.35343" lon="2.6908">
        <ele>661.88</ele>
        <time>2022-08-17T10:54:33Z</time>
      </trkpt>
      <trkpt lat="45.35335" lon="2.69055">
        <ele>661.96</ele>
        <time>2022-08-17T10:54:34Z</time>
      </trkpt>
      <trkpt lat="45.35314" lon="2.68983">
        <ele>659.09</ele>
        <time>2022-08-17T10:54:37Z</time>
      </trkpt>
      <trkpt lat="45.35301" lon="2.68938">
        <ele>655.65</ele>
        <time>2022-08-17T10:54:39Z</time>
      </trkpt>
      <trkpt lat="45.35289" lon="2.68887">
        <ele>651.61</ele>
        <time>2022-08-17T10:54:42Z</time>
      </trkpt>
      <trkpt lat="45.35291" lon="2.68874">
        <ele>649.99</ele>
        <time>2022-08-17T10:54:43Z</time>
      </trkpt>
      <trkpt lat="45.35296" lon="2.68862">
        <ele>649.92</ele>
        <time>2022-08-17T10:54:44Z</time>
      </trkpt>
      <trkpt lat="45.35305" lon="2.68851">
        <ele>648.38</ele>
        <time>2022-08-17T10:54:45Z</time>
      </trkpt>
      <trkpt lat="45.35315" lon="2.68841">
        <ele>648.36</ele>
        <time>2022-08-17T10:54:46Z</time>
      </trkpt>
      <trkpt lat="45.35326" lon="2.68834">
        <ele>646.83</ele>
        <time>2022-08-17T10:54:47Z</time>
      </trkpt>
      <trkpt lat="45.35336" lon="2.68828">
        <ele>646.24</ele>
        <time>2022-08-17T10:54:48Z</time>
      </trkpt>
      <trkpt lat="45.35358" lon="2.6882">
        <ele>644.03</ele>
        <time>2022-08-17T10:54:50Z</time>
      </trkpt>
      <trkpt lat="45.3537" lon="2.68819">
        <ele>643.92</ele>
        <time>2022-08-17T10:54:51Z</time>
      </trkpt>
      <trkpt lat="45.35382" lon="2.68815">
        <ele>642.74</ele>
        <time>2022-08-17T10:54:52Z</time>
      </trkpt>
      <trkpt lat="45.35392" lon="2.68807">
        <ele>642.66</ele>
        <time>2022-08-17T10:54:53Z</time>
      </trkpt>
      <trkpt lat="45.35398" lon="2.68793">
        <ele>641.47</ele>
        <time>2022-08-17T10:54:54Z</time>
      </trkpt>
      <trkpt lat="45.35401" lon="2.68776">
        <ele>641.47</ele>
        <time>2022-08-17T10:54:55Z</time>
      </trkpt>
      <trkpt lat="45.35401" lon="2.68759">
        <ele>640.15</ele>
        <time>2022-08-17T10:54:56Z</time>
      </trkpt>
      <trkpt lat="45.35399" lon="2.68742">
        <ele>640.16</ele>
        <time>2022-08-17T10:54:57Z</time>
      </trkpt>
      <trkpt lat="45.35397" lon="2.68709">
        <ele>639.18</ele>
        <time>2022-08-17T10:54:59Z</time>
      </trkpt>
      <trkpt lat="45.35398" lon="2.68694">
        <ele>638.04</ele>
        <time>2022-08-17T10:55:00Z</time>
      </trkpt>
      <trkpt lat="45.354" lon="2.68679">
        <ele>637.97</ele>
        <time>2022-08-17T10:55:01Z</time>
      </trkpt>
      <trkpt lat="45.35403" lon="2.68665">
        <ele>637.91</ele>
        <time>2022-08-17T10:55:02Z</time>
      </trkpt>
      <trkpt lat="45.35405" lon="2.68651">
        <ele>637.91</ele>
        <time>2022-08-17T10:55:03Z</time>
      </trkpt>
      <trkpt lat="45.35411" lon="2.68624">
        <ele>637.86</ele>
        <time>2022-08-17T10:55:05Z</time>
      </trkpt>
      <trkpt lat="45.35416" lon="2.68612">
        <ele>637.87</ele>
        <time>2022-08-17T10:55:06Z</time>
      </trkpt>
      <trkpt lat="45.35421" lon="2.68601">
        <ele>637</ele>
        <time>2022-08-17T10:55:07Z</time>
      </trkpt>
      <trkpt lat="45.35469" lon="2.68506">
        <ele>635.96</ele>
        <time>2022-08-17T10:55:16Z</time>
      </trkpt>
      <trkpt lat="45.3551" lon="2.68419">
        <ele>632.5</ele>
        <time>2022-08-17T10:55:22Z</time>
      </trkpt>
      <trkpt lat="45.35536" lon="2.68378">
        <ele>628.75</ele>
        <time>2022-08-17T10:55:25Z</time>
      </trkpt>
      <trkpt lat="45.35545" lon="2.68367">
        <ele>628.75</ele>
        <time>2022-08-17T10:55:26Z</time>
      </trkpt>
      <trkpt lat="45.35557" lon="2.68364">
        <ele>627.38</ele>
        <time>2022-08-17T10:55:27Z</time>
      </trkpt>
      <trkpt lat="45.35569" lon="2.68362">
        <ele>627.32</ele>
        <time>2022-08-17T10:55:28Z</time>
      </trkpt>
      <trkpt lat="45.35584" lon="2.68364">
        <ele>627.38</ele>
        <time>2022-08-17T10:55:29Z</time>
      </trkpt>
      <trkpt lat="45.3564" lon="2.68379">
        <ele>623.94</ele>
        <time>2022-08-17T10:55:33Z</time>
      </trkpt>
      <trkpt lat="45.35652" lon="2.6838">
        <ele>622.82</ele>
        <time>2022-08-17T10:55:34Z</time>
      </trkpt>
      <trkpt lat="45.35665" lon="2.68381">
        <ele>622.79</ele>
        <time>2022-08-17T10:55:35Z</time>
      </trkpt>
      <trkpt lat="45.35677" lon="2.68381">
        <ele>621.09</ele>
        <time>2022-08-17T10:55:36Z</time>
      </trkpt>
      <trkpt lat="45.35687" lon="2.68377">
        <ele>620.25</ele>
        <time>2022-08-17T10:55:37Z</time>
      </trkpt>
      <trkpt lat="45.35696" lon="2.68368">
        <ele>618.87</ele>
        <time>2022-08-17T10:55:38Z</time>
      </trkpt>
      <trkpt lat="45.35701" lon="2.68356">
        <ele>617.75</ele>
        <time>2022-08-17T10:55:39Z</time>
      </trkpt>
      <trkpt lat="45.35704" lon="2.68341">
        <ele>617.79</ele>
        <time>2022-08-17T10:55:40Z</time>
      </trkpt>
      <trkpt lat="45.35705" lon="2.68321">
        <ele>617.79</ele>
        <time>2022-08-17T10:55:41Z</time>
      </trkpt>
      <trkpt lat="45.35706" lon="2.683">
        <ele>617.74</ele>
        <time>2022-08-17T10:55:42Z</time>
      </trkpt>
      <trkpt lat="45.35709" lon="2.68252">
        <ele>615.88</ele>
        <time>2022-08-17T10:55:44Z</time>
      </trkpt>
      <trkpt lat="45.35714" lon="2.68229">
        <ele>615.83</ele>
        <time>2022-08-17T10:55:45Z</time>
      </trkpt>
      <trkpt lat="45.35721" lon="2.68186">
        <ele>612.73</ele>
        <time>2022-08-17T10:55:47Z</time>
      </trkpt>
      <trkpt lat="45.35727" lon="2.68145">
        <ele>611.53</ele>
        <time>2022-08-17T10:55:49Z</time>
      </trkpt>
      <trkpt lat="45.35734" lon="2.68105">
        <ele>610.06</ele>
        <time>2022-08-17T10:55:51Z</time>
      </trkpt>
      <trkpt lat="45.35761" lon="2.67968">
        <ele>607.52</ele>
        <time>2022-08-17T10:55:57Z</time>
      </trkpt>
      <trkpt lat="45.35769" lon="2.67926">
        <ele>606.56</ele>
        <time>2022-08-17T10:55:59Z</time>
      </trkpt>
      <trkpt lat="45.35776" lon="2.67888">
        <ele>605.23</ele>
        <time>2022-08-17T10:56:01Z</time>
      </trkpt>
      <trkpt lat="45.35786" lon="2.67851">
        <ele>603.7</ele>
        <time>2022-08-17T10:56:03Z</time>
      </trkpt>
      <trkpt lat="45.358" lon="2.67816">
        <ele>603.74</ele>
        <time>2022-08-17T10:56:05Z</time>
      </trkpt>
      <trkpt lat="45.35853" lon="2.67728">
        <ele>600.81</ele>
        <time>2022-08-17T10:56:11Z</time>
      </trkpt>
      <trkpt lat="45.35857" lon="2.67713">
        <ele>600.81</ele>
        <time>2022-08-17T10:56:12Z</time>
      </trkpt>
      <trkpt lat="45.35859" lon="2.67697">
        <ele>601.3</ele>
        <time>2022-08-17T10:56:13Z</time>
      </trkpt>
      <trkpt lat="45.35857" lon="2.67678">
        <ele>601.3</ele>
        <time>2022-08-17T10:56:14Z</time>
      </trkpt>
      <trkpt lat="45.35851" lon="2.6766">
        <ele>601.26</ele>
        <time>2022-08-17T10:56:15Z</time>
      </trkpt>
      <trkpt lat="45.35843" lon="2.67641">
        <ele>601.27</ele>
        <time>2022-08-17T10:56:16Z</time>
      </trkpt>
      <trkpt lat="45.35837" lon="2.67621">
        <ele>601.26</ele>
        <time>2022-08-17T10:56:17Z</time>
      </trkpt>
      <trkpt lat="45.35833" lon="2.676">
        <ele>601.23</ele>
        <time>2022-08-17T10:56:18Z</time>
      </trkpt>
      <trkpt lat="45.35806" lon="2.67489">
        <ele>597.67</ele>
        <time>2022-08-17T10:56:23Z</time>
      </trkpt>
      <trkpt lat="45.358" lon="2.67469">
        <ele>597.65</ele>
        <time>2022-08-17T10:56:24Z</time>
      </trkpt>
      <trkpt lat="45.3579" lon="2.67431">
        <ele>596.08</ele>
        <time>2022-08-17T10:56:26Z</time>
      </trkpt>
      <trkpt lat="45.35787" lon="2.67413">
        <ele>594.65</ele>
        <time>2022-08-17T10:56:27Z</time>
      </trkpt>
      <trkpt lat="45.35784" lon="2.67394">
        <ele>594.6</ele>
        <time>2022-08-17T10:56:28Z</time>
      </trkpt>
      <trkpt lat="45.35781" lon="2.67361">
        <ele>593.11</ele>
        <time>2022-08-17T10:56:30Z</time>
      </trkpt>
      <trkpt lat="45.35779" lon="2.67332">
        <ele>591.72</ele>
        <time>2022-08-17T10:56:32Z</time>
      </trkpt>
      <trkpt lat="45.35781" lon="2.67319">
        <ele>590.83</ele>
        <time>2022-08-17T10:56:33Z</time>
      </trkpt>
      <trkpt lat="45.35787" lon="2.67307">
        <ele>590.83</ele>
        <time>2022-08-17T10:56:34Z</time>
      </trkpt>
      <trkpt lat="45.35796" lon="2.67296">
        <ele>590.82</ele>
        <time>2022-08-17T10:56:35Z</time>
      </trkpt>
      <trkpt lat="45.35807" lon="2.67284">
        <ele>590.79</ele>
        <time>2022-08-17T10:56:36Z</time>
      </trkpt>
      <trkpt lat="45.35826" lon="2.67259">
        <ele>593.59</ele>
        <time>2022-08-17T10:56:38Z</time>
      </trkpt>
      <trkpt lat="45.35876" lon="2.67191">
        <ele>593.52</ele>
        <time>2022-08-17T10:56:44Z</time>
      </trkpt>
      <trkpt lat="45.35883" lon="2.67177">
        <ele>591.03</ele>
        <time>2022-08-17T10:56:45Z</time>
      </trkpt>
      <trkpt lat="45.35888" lon="2.67162">
        <ele>590.01</ele>
        <time>2022-08-17T10:56:46Z</time>
      </trkpt>
      <trkpt lat="45.35891" lon="2.67149">
        <ele>589.99</ele>
        <time>2022-08-17T10:56:47Z</time>
      </trkpt>
      <trkpt lat="45.35891" lon="2.67135">
        <ele>589.99</ele>
        <time>2022-08-17T10:56:48Z</time>
      </trkpt>
      <trkpt lat="45.35887" lon="2.67121">
        <ele>589.99</ele>
        <time>2022-08-17T10:56:49Z</time>
      </trkpt>
      <trkpt lat="45.35881" lon="2.6711">
        <ele>589.98</ele>
        <time>2022-08-17T10:56:50Z</time>
      </trkpt>
      <trkpt lat="45.35872" lon="2.67102">
        <ele>589.99</ele>
        <time>2022-08-17T10:56:51Z</time>
      </trkpt>
      <trkpt lat="45.35862" lon="2.671">
        <ele>589.96</ele>
        <time>2022-08-17T10:56:52Z</time>
      </trkpt>
      <trkpt lat="45.35851" lon="2.671">
        <ele>589.95</ele>
        <time>2022-08-17T10:56:53Z</time>
      </trkpt>
      <trkpt lat="45.35839" lon="2.671">
        <ele>589.95</ele>
        <time>2022-08-17T10:56:54Z</time>
      </trkpt>
      <trkpt lat="45.35826" lon="2.671">
        <ele>589.93</ele>
        <time>2022-08-17T10:56:55Z</time>
      </trkpt>
      <trkpt lat="45.35737" lon="2.67112">
        <ele>590.01</ele>
        <time>2022-08-17T10:57:02Z</time>
      </trkpt>
      <trkpt lat="45.35726" lon="2.67119">
        <ele>590</ele>
        <time>2022-08-17T10:57:03Z</time>
      </trkpt>
      <trkpt lat="45.35714" lon="2.67124">
        <ele>590</ele>
        <time>2022-08-17T10:57:04Z</time>
      </trkpt>
      <trkpt lat="45.35701" lon="2.67129">
        <ele>590</ele>
        <time>2022-08-17T10:57:05Z</time>
      </trkpt>
      <trkpt lat="45.35686" lon="2.67133">
        <ele>589.99</ele>
        <time>2022-08-17T10:57:06Z</time>
      </trkpt>
      <trkpt lat="45.35672" lon="2.67137">
        <ele>589.99</ele>
        <time>2022-08-17T10:57:07Z</time>
      </trkpt>
      <trkpt lat="45.35634" lon="2.67145">
        <ele>589.14</ele>
        <time>2022-08-17T10:57:10Z</time>
      </trkpt>
      <trkpt lat="45.35623" lon="2.67145">
        <ele>589.12</ele>
        <time>2022-08-17T10:57:11Z</time>
      </trkpt>
      <trkpt lat="45.35613" lon="2.67141">
        <ele>589.11</ele>
        <time>2022-08-17T10:57:12Z</time>
      </trkpt>
      <trkpt lat="45.35603" lon="2.67133">
        <ele>589.11</ele>
        <time>2022-08-17T10:57:13Z</time>
      </trkpt>
      <trkpt lat="45.35594" lon="2.67122">
        <ele>588.23</ele>
        <time>2022-08-17T10:57:14Z</time>
      </trkpt>
      <trkpt lat="45.35587" lon="2.67108">
        <ele>588.23</ele>
        <time>2022-08-17T10:57:15Z</time>
      </trkpt>
      <trkpt lat="45.3558" lon="2.67092">
        <ele>588.21</ele>
        <time>2022-08-17T10:57:16Z</time>
      </trkpt>
      <trkpt lat="45.35573" lon="2.67078">
        <ele>588.2</ele>
        <time>2022-08-17T10:57:17Z</time>
      </trkpt>
      <trkpt lat="45.35564" lon="2.67065">
        <ele>588.2</ele>
        <time>2022-08-17T10:57:18Z</time>
      </trkpt>
      <trkpt lat="45.35554" lon="2.67054">
        <ele>588.19</ele>
        <time>2022-08-17T10:57:19Z</time>
      </trkpt>
      <trkpt lat="45.35546" lon="2.67043">
        <ele>588.19</ele>
        <time>2022-08-17T10:57:20Z</time>
      </trkpt>
      <trkpt lat="45.35539" lon="2.67029">
        <ele>587.4</ele>
        <time>2022-08-17T10:57:21Z</time>
      </trkpt>
      <trkpt lat="45.35536" lon="2.67014">
        <ele>587.37</ele>
        <time>2022-08-17T10:57:22Z</time>
      </trkpt>
      <trkpt lat="45.35534" lon="2.66998">
        <ele>587.35</ele>
        <time>2022-08-17T10:57:23Z</time>
      </trkpt>
      <trkpt lat="45.35533" lon="2.66981">
        <ele>587.35</ele>
        <time>2022-08-17T10:57:24Z</time>
      </trkpt>
      <trkpt lat="45.3553" lon="2.66963">
        <ele>587.34</ele>
        <time>2022-08-17T10:57:25Z</time>
      </trkpt>
      <trkpt lat="45.35525" lon="2.66945">
        <ele>587.46</ele>
        <time>2022-08-17T10:57:26Z</time>
      </trkpt>
      <trkpt lat="45.35518" lon="2.66926">
        <ele>587.46</ele>
        <time>2022-08-17T10:57:27Z</time>
      </trkpt>
      <trkpt lat="45.35509" lon="2.66907">
        <ele>587.45</ele>
        <time>2022-08-17T10:57:28Z</time>
      </trkpt>
      <trkpt lat="45.35501" lon="2.6689">
        <ele>587.44</ele>
        <time>2022-08-17T10:57:29Z</time>
      </trkpt>
      <trkpt lat="45.35483" lon="2.6684">
        <ele>586.11</ele>
        <time>2022-08-17T10:57:32Z</time>
      </trkpt>
      <trkpt lat="45.3548" lon="2.66823">
        <ele>586.11</ele>
        <time>2022-08-17T10:57:33Z</time>
      </trkpt>
      <trkpt lat="45.3546" lon="2.66764">
        <ele>586.08</ele>
        <time>2022-08-17T10:57:37Z</time>
      </trkpt>
      <trkpt lat="45.35452" lon="2.66751">
        <ele>586.1</ele>
        <time>2022-08-17T10:57:38Z</time>
      </trkpt>
      <trkpt lat="45.35443" lon="2.66739">
        <ele>586.1</ele>
        <time>2022-08-17T10:57:39Z</time>
      </trkpt>
      <trkpt lat="45.35376" lon="2.66645">
        <ele>583.16</ele>
        <time>2022-08-17T10:57:48Z</time>
      </trkpt>
      <trkpt lat="45.35278" lon="2.66511">
        <ele>581.33</ele>
        <time>2022-08-17T10:58:00Z</time>
      </trkpt>
      <trkpt lat="45.35255" lon="2.66456">
        <ele>579.5</ele>
        <time>2022-08-17T10:58:04Z</time>
      </trkpt>
      <trkpt lat="45.35246" lon="2.66432">
        <ele>579.5</ele>
        <time>2022-08-17T10:58:06Z</time>
      </trkpt>
      <trkpt lat="45.35241" lon="2.66422">
        <ele>579.48</ele>
        <time>2022-08-17T10:58:07Z</time>
      </trkpt>
      <trkpt lat="45.35235" lon="2.66413">
        <ele>579.48</ele>
        <time>2022-08-17T10:58:08Z</time>
      </trkpt>
      <trkpt lat="45.35221" lon="2.66396">
        <ele>579.49</ele>
        <time>2022-08-17T10:58:10Z</time>
      </trkpt>
      <trkpt lat="45.35213" lon="2.66391">
        <ele>579.47</ele>
        <time>2022-08-17T10:58:11Z</time>
      </trkpt>
      <trkpt lat="45.35206" lon="2.66389">
        <ele>579.44</ele>
        <time>2022-08-17T10:58:12Z</time>
      </trkpt>
      <trkpt lat="45.352" lon="2.66388">
        <ele>578.07</ele>
        <time>2022-08-17T10:58:13Z</time>
      </trkpt>
      <trkpt lat="45.35196" lon="2.66385">
        <ele>578.06</ele>
        <time>2022-08-17T10:58:14Z</time>
      </trkpt>
      <trkpt lat="45.35193" lon="2.66381">
        <ele>576.87</ele>
        <time>2022-08-17T10:58:15Z</time>
      </trkpt>
      <trkpt lat="45.35191" lon="2.66376">
        <ele>576.87</ele>
        <time>2022-08-17T10:58:16Z</time>
      </trkpt>
      <trkpt lat="45.35189" lon="2.66368">
        <ele>576.87</ele>
        <time>2022-08-17T10:58:17Z</time>
      </trkpt>
      <trkpt lat="45.35189" lon="2.66357">
        <ele>576.87</ele>
        <time>2022-08-17T10:58:18Z</time>
      </trkpt>
      <trkpt lat="45.35189" lon="2.66344">
        <ele>576.87</ele>
        <time>2022-08-17T10:58:19Z</time>
      </trkpt>
      <trkpt lat="45.35189" lon="2.6633">
        <ele>576.86</ele>
        <time>2022-08-17T10:58:20Z</time>
      </trkpt>
      <trkpt lat="45.35189" lon="2.66317">
        <ele>576.85</ele>
        <time>2022-08-17T10:58:21Z</time>
      </trkpt>
      <trkpt lat="45.3519" lon="2.66305">
        <ele>576.86</ele>
        <time>2022-08-17T10:58:22Z</time>
      </trkpt>
      <trkpt lat="45.35195" lon="2.66293">
        <ele>576.86</ele>
        <time>2022-08-17T10:58:23Z</time>
      </trkpt>
      <trkpt lat="45.35203" lon="2.66281">
        <ele>576.85</ele>
        <time>2022-08-17T10:58:24Z</time>
      </trkpt>
      <trkpt lat="45.35213" lon="2.66269">
        <ele>579.52</ele>
        <time>2022-08-17T10:58:25Z</time>
      </trkpt>
      <trkpt lat="45.35223" lon="2.66254">
        <ele>579.53</ele>
        <time>2022-08-17T10:58:26Z</time>
      </trkpt>
      <trkpt lat="45.35234" lon="2.66237">
        <ele>581.25</ele>
        <time>2022-08-17T10:58:27Z</time>
      </trkpt>
      <trkpt lat="45.35245" lon="2.66219">
        <ele>582.02</ele>
        <time>2022-08-17T10:58:28Z</time>
      </trkpt>
      <trkpt lat="45.35256" lon="2.662">
        <ele>582.05</ele>
        <time>2022-08-17T10:58:29Z</time>
      </trkpt>
      <trkpt lat="45.35265" lon="2.66181">
        <ele>582.06</ele>
        <time>2022-08-17T10:58:30Z</time>
      </trkpt>
      <trkpt lat="45.35274" lon="2.66163">
        <ele>582.06</ele>
        <time>2022-08-17T10:58:31Z</time>
      </trkpt>
      <trkpt lat="45.35303" lon="2.66117">
        <ele>582.06</ele>
        <time>2022-08-17T10:58:34Z</time>
      </trkpt>
      <trkpt lat="45.35363" lon="2.66064">
        <ele>582</ele>
        <time>2022-08-17T10:58:39Z</time>
      </trkpt>
      <trkpt lat="45.35373" lon="2.66051">
        <ele>582.02</ele>
        <time>2022-08-17T10:58:40Z</time>
      </trkpt>
      <trkpt lat="45.35381" lon="2.66038">
        <ele>582.01</ele>
        <time>2022-08-17T10:58:41Z</time>
      </trkpt>
      <trkpt lat="45.35391" lon="2.66027">
        <ele>581.96</ele>
        <time>2022-08-17T10:58:42Z</time>
      </trkpt>
      <trkpt lat="45.35401" lon="2.66017">
        <ele>581.96</ele>
        <time>2022-08-17T10:58:43Z</time>
      </trkpt>
      <trkpt lat="45.35413" lon="2.6601">
        <ele>581.95</ele>
        <time>2022-08-17T10:58:44Z</time>
      </trkpt>
      <trkpt lat="45.35427" lon="2.66003">
        <ele>581.95</ele>
        <time>2022-08-17T10:58:45Z</time>
      </trkpt>
      <trkpt lat="45.35468" lon="2.6598">
        <ele>581.95</ele>
        <time>2022-08-17T10:58:48Z</time>
      </trkpt>
      <trkpt lat="45.3553" lon="2.65929">
        <ele>581.97</ele>
        <time>2022-08-17T10:58:53Z</time>
      </trkpt>
      <trkpt lat="45.35581" lon="2.659">
        <ele>579.61</ele>
        <time>2022-08-17T10:58:58Z</time>
      </trkpt>
      <trkpt lat="45.35588" lon="2.65898">
        <ele>578.51</ele>
        <time>2022-08-17T10:58:59Z</time>
      </trkpt>
      <trkpt lat="45.35595" lon="2.659">
        <ele>578.48</ele>
        <time>2022-08-17T10:59:00Z</time>
      </trkpt>
      <trkpt lat="45.35601" lon="2.65905">
        <ele>578.47</ele>
        <time>2022-08-17T10:59:01Z</time>
      </trkpt>
      <trkpt lat="45.35606" lon="2.65913">
        <ele>577.71</ele>
        <time>2022-08-17T10:59:02Z</time>
      </trkpt>
      <trkpt lat="45.35611" lon="2.65922">
        <ele>577.69</ele>
        <time>2022-08-17T10:59:03Z</time>
      </trkpt>
      <trkpt lat="45.35616" lon="2.65933">
        <ele>577.68</ele>
        <time>2022-08-17T10:59:04Z</time>
      </trkpt>
      <trkpt lat="45.35621" lon="2.65943">
        <ele>577.61</ele>
        <time>2022-08-17T10:59:05Z</time>
      </trkpt>
      <trkpt lat="45.35633" lon="2.65964">
        <ele>577.81</ele>
        <time>2022-08-17T10:59:07Z</time>
      </trkpt>
      <trkpt lat="45.35641" lon="2.65973">
        <ele>577.81</ele>
        <time>2022-08-17T10:59:08Z</time>
      </trkpt>
      <trkpt lat="45.3566" lon="2.65986">
        <ele>580.23</ele>
        <time>2022-08-17T10:59:10Z</time>
      </trkpt>
      <trkpt lat="45.3567" lon="2.65987">
        <ele>580.23</ele>
        <time>2022-08-17T10:59:11Z</time>
      </trkpt>
      <trkpt lat="45.3568" lon="2.65985">
        <ele>580.25</ele>
        <time>2022-08-17T10:59:12Z</time>
      </trkpt>
      <trkpt lat="45.35689" lon="2.6598">
        <ele>581.23</ele>
        <time>2022-08-17T10:59:13Z</time>
      </trkpt>
      <trkpt lat="45.35698" lon="2.65973">
        <ele>581.26</ele>
        <time>2022-08-17T10:59:14Z</time>
      </trkpt>
      <trkpt lat="45.35749" lon="2.65947">
        <ele>583.07</ele>
        <time>2022-08-17T10:59:19Z</time>
      </trkpt>
      <trkpt lat="45.35758" lon="2.65939">
        <ele>583.07</ele>
        <time>2022-08-17T10:59:20Z</time>
      </trkpt>
      <trkpt lat="45.35765" lon="2.65927">
        <ele>584.36</ele>
        <time>2022-08-17T10:59:21Z</time>
      </trkpt>
      <trkpt lat="45.35772" lon="2.65914">
        <ele>584.34</ele>
        <time>2022-08-17T10:59:22Z</time>
      </trkpt>
      <trkpt lat="45.35778" lon="2.65902">
        <ele>584.34</ele>
        <time>2022-08-17T10:59:23Z</time>
      </trkpt>
      <trkpt lat="45.35785" lon="2.65892">
        <ele>584.36</ele>
        <time>2022-08-17T10:59:24Z</time>
      </trkpt>
      <trkpt lat="45.35793" lon="2.65883">
        <ele>584.34</ele>
        <time>2022-08-17T10:59:25Z</time>
      </trkpt>
      <trkpt lat="45.35802" lon="2.65876">
        <ele>585.16</ele>
        <time>2022-08-17T10:59:26Z</time>
      </trkpt>
      <trkpt lat="45.3581" lon="2.65871">
        <ele>585.16</ele>
        <time>2022-08-17T10:59:27Z</time>
      </trkpt>
      <trkpt lat="45.35818" lon="2.65868">
        <ele>586.09</ele>
        <time>2022-08-17T10:59:28Z</time>
      </trkpt>
      <trkpt lat="45.35827" lon="2.65865">
        <ele>586.11</ele>
        <time>2022-08-17T10:59:29Z</time>
      </trkpt>
      <trkpt lat="45.35856" lon="2.65859">
        <ele>587.97</ele>
        <time>2022-08-17T10:59:32Z</time>
      </trkpt>
      <trkpt lat="45.35865" lon="2.65854">
        <ele>588</ele>
        <time>2022-08-17T10:59:33Z</time>
      </trkpt>
      <trkpt lat="45.35874" lon="2.65846">
        <ele>587.99</ele>
        <time>2022-08-17T10:59:34Z</time>
      </trkpt>
      <trkpt lat="45.35883" lon="2.65838">
        <ele>587.98</ele>
        <time>2022-08-17T10:59:35Z</time>
      </trkpt>
      <trkpt lat="45.35891" lon="2.65829">
        <ele>588.01</ele>
        <time>2022-08-17T10:59:36Z</time>
      </trkpt>
      <trkpt lat="45.35996" lon="2.65721">
        <ele>587.92</ele>
        <time>2022-08-17T10:59:47Z</time>
      </trkpt>
      <trkpt lat="45.36018" lon="2.657">
        <ele>587.89</ele>
        <time>2022-08-17T10:59:49Z</time>
      </trkpt>
      <trkpt lat="45.36029" lon="2.65693">
        <ele>587.86</ele>
        <time>2022-08-17T10:59:50Z</time>
      </trkpt>
      <trkpt lat="45.3605" lon="2.65684">
        <ele>587.81</ele>
        <time>2022-08-17T10:59:52Z</time>
      </trkpt>
      <trkpt lat="45.36061" lon="2.65686">
        <ele>587.85</ele>
        <time>2022-08-17T10:59:53Z</time>
      </trkpt>
      <trkpt lat="45.36073" lon="2.65689">
        <ele>587.85</ele>
        <time>2022-08-17T10:59:54Z</time>
      </trkpt>
      <trkpt lat="45.361" lon="2.65697">
        <ele>587.78</ele>
        <time>2022-08-17T10:59:56Z</time>
      </trkpt>
      <trkpt lat="45.36114" lon="2.65697">
        <ele>587.78</ele>
        <time>2022-08-17T10:59:57Z</time>
      </trkpt>
      <trkpt lat="45.36129" lon="2.65694">
        <ele>587.77</ele>
        <time>2022-08-17T10:59:58Z</time>
      </trkpt>
      <trkpt lat="45.36144" lon="2.6569">
        <ele>587.77</ele>
        <time>2022-08-17T10:59:59Z</time>
      </trkpt>
      <trkpt lat="45.36159" lon="2.65685">
        <ele>587.76</ele>
        <time>2022-08-17T11:00:00Z</time>
      </trkpt>
      <trkpt lat="45.36222" lon="2.65656">
        <ele>587.71</ele>
        <time>2022-08-17T11:00:05Z</time>
      </trkpt>
      <trkpt lat="45.3623" lon="2.6564">
        <ele>587.71</ele>
        <time>2022-08-17T11:00:06Z</time>
      </trkpt>
      <trkpt lat="45.36248" lon="2.65609">
        <ele>587.69</ele>
        <time>2022-08-17T11:00:08Z</time>
      </trkpt>
      <trkpt lat="45.3629" lon="2.65544">
        <ele>585.18</ele>
        <time>2022-08-17T11:00:13Z</time>
      </trkpt>
      <trkpt lat="45.36299" lon="2.65534">
        <ele>583.98</ele>
        <time>2022-08-17T11:00:14Z</time>
      </trkpt>
      <trkpt lat="45.36307" lon="2.65525">
        <ele>583.97</ele>
        <time>2022-08-17T11:00:15Z</time>
      </trkpt>
      <trkpt lat="45.36314" lon="2.65511">
        <ele>583.95</ele>
        <time>2022-08-17T11:00:16Z</time>
      </trkpt>
      <trkpt lat="45.36318" lon="2.65495">
        <ele>583.89</ele>
        <time>2022-08-17T11:00:17Z</time>
      </trkpt>
      <trkpt lat="45.36321" lon="2.65477">
        <ele>583.87</ele>
        <time>2022-08-17T11:00:18Z</time>
      </trkpt>
      <trkpt lat="45.36324" lon="2.65457">
        <ele>583.84</ele>
        <time>2022-08-17T11:00:19Z</time>
      </trkpt>
      <trkpt lat="45.36331" lon="2.6542">
        <ele>583.99</ele>
        <time>2022-08-17T11:00:21Z</time>
      </trkpt>
      <trkpt lat="45.36337" lon="2.65403">
        <ele>583.96</ele>
        <time>2022-08-17T11:00:22Z</time>
      </trkpt>
      <trkpt lat="45.36344" lon="2.65387">
        <ele>583.95</ele>
        <time>2022-08-17T11:00:23Z</time>
      </trkpt>
      <trkpt lat="45.36351" lon="2.65372">
        <ele>582.99</ele>
        <time>2022-08-17T11:00:24Z</time>
      </trkpt>
      <trkpt lat="45.3636" lon="2.65361">
        <ele>582.95</ele>
        <time>2022-08-17T11:00:25Z</time>
      </trkpt>
      <trkpt lat="45.3637" lon="2.65356">
        <ele>582.01</ele>
        <time>2022-08-17T11:00:26Z</time>
      </trkpt>
      <trkpt lat="45.3638" lon="2.65352">
        <ele>581.99</ele>
        <time>2022-08-17T11:00:27Z</time>
      </trkpt>
      <trkpt lat="45.3639" lon="2.65346">
        <ele>582</ele>
        <time>2022-08-17T11:00:28Z</time>
      </trkpt>
      <trkpt lat="45.36412" lon="2.6533">
        <ele>581.98</ele>
        <time>2022-08-17T11:00:30Z</time>
      </trkpt>
      <trkpt lat="45.36421" lon="2.65317">
        <ele>582.02</ele>
        <time>2022-08-17T11:00:31Z</time>
      </trkpt>
      <trkpt lat="45.36431" lon="2.65303">
        <ele>582</ele>
        <time>2022-08-17T11:00:32Z</time>
      </trkpt>
      <trkpt lat="45.36447" lon="2.65274">
        <ele>581.95</ele>
        <time>2022-08-17T11:00:34Z</time>
      </trkpt>
      <trkpt lat="45.36454" lon="2.6526">
        <ele>581.93</ele>
        <time>2022-08-17T11:00:35Z</time>
      </trkpt>
      <trkpt lat="45.36459" lon="2.65246">
        <ele>580.96</ele>
        <time>2022-08-17T11:00:36Z</time>
      </trkpt>
      <trkpt lat="45.3646" lon="2.65231">
        <ele>580.91</ele>
        <time>2022-08-17T11:00:37Z</time>
      </trkpt>
      <trkpt lat="45.3646" lon="2.65214">
        <ele>580.85</ele>
        <time>2022-08-17T11:00:38Z</time>
      </trkpt>
      <trkpt lat="45.36459" lon="2.65197">
        <ele>579.93</ele>
        <time>2022-08-17T11:00:39Z</time>
      </trkpt>
      <trkpt lat="45.36458" lon="2.65181">
        <ele>579.89</ele>
        <time>2022-08-17T11:00:40Z</time>
      </trkpt>
      <trkpt lat="45.36461" lon="2.65166">
        <ele>579.92</ele>
        <time>2022-08-17T11:00:41Z</time>
      </trkpt>
      <trkpt lat="45.36466" lon="2.6515">
        <ele>578.96</ele>
        <time>2022-08-17T11:00:42Z</time>
      </trkpt>
      <trkpt lat="45.36494" lon="2.65076">
        <ele>579.04</ele>
        <time>2022-08-17T11:00:46Z</time>
      </trkpt>
      <trkpt lat="45.36524" lon="2.64981">
        <ele>581.64</ele>
        <time>2022-08-17T11:00:50Z</time>
      </trkpt>
      <trkpt lat="45.36551" lon="2.64885">
        <ele>579.03</ele>
        <time>2022-08-17T11:00:54Z</time>
      </trkpt>
      <trkpt lat="45.36558" lon="2.64864">
        <ele>579</ele>
        <time>2022-08-17T11:00:55Z</time>
      </trkpt>
      <trkpt lat="45.36572" lon="2.64827">
        <ele>576.66</ele>
        <time>2022-08-17T11:00:57Z</time>
      </trkpt>
      <trkpt lat="45.36575" lon="2.64807">
        <ele>576.66</ele>
        <time>2022-08-17T11:00:58Z</time>
      </trkpt>
      <trkpt lat="45.36576" lon="2.64787">
        <ele>576.65</ele>
        <time>2022-08-17T11:00:59Z</time>
      </trkpt>
      <trkpt lat="45.36575" lon="2.64767">
        <ele>576.68</ele>
        <time>2022-08-17T11:01:00Z</time>
      </trkpt>
      <trkpt lat="45.36572" lon="2.64747">
        <ele>576.64</ele>
        <time>2022-08-17T11:01:01Z</time>
      </trkpt>
      <trkpt lat="45.36566" lon="2.64729">
        <ele>575.5</ele>
        <time>2022-08-17T11:01:02Z</time>
      </trkpt>
      <trkpt lat="45.36559" lon="2.64713">
        <ele>575.41</ele>
        <time>2022-08-17T11:01:03Z</time>
      </trkpt>
      <trkpt lat="45.3655" lon="2.647">
        <ele>574.58</ele>
        <time>2022-08-17T11:01:04Z</time>
      </trkpt>
      <trkpt lat="45.36541" lon="2.64689">
        <ele>574.53</ele>
        <time>2022-08-17T11:01:05Z</time>
      </trkpt>
      <trkpt lat="45.36531" lon="2.6468">
        <ele>573.54</ele>
        <time>2022-08-17T11:01:06Z</time>
      </trkpt>
      <trkpt lat="45.36523" lon="2.64672">
        <ele>573.57</ele>
        <time>2022-08-17T11:01:07Z</time>
      </trkpt>
      <trkpt lat="45.36515" lon="2.64663">
        <ele>573.49</ele>
        <time>2022-08-17T11:01:08Z</time>
      </trkpt>
      <trkpt lat="45.3651" lon="2.64652">
        <ele>572.64</ele>
        <time>2022-08-17T11:01:09Z</time>
      </trkpt>
      <trkpt lat="45.36507" lon="2.6464">
        <ele>572.57</ele>
        <time>2022-08-17T11:01:10Z</time>
      </trkpt>
      <trkpt lat="45.36509" lon="2.64627">
        <ele>572.59</ele>
        <time>2022-08-17T11:01:11Z</time>
      </trkpt>
      <trkpt lat="45.36514" lon="2.64616">
        <ele>571.55</ele>
        <time>2022-08-17T11:01:12Z</time>
      </trkpt>
      <trkpt lat="45.36523" lon="2.64606">
        <ele>571.67</ele>
        <time>2022-08-17T11:01:13Z</time>
      </trkpt>
      <trkpt lat="45.36532" lon="2.64596">
        <ele>572.08</ele>
        <time>2022-08-17T11:01:14Z</time>
      </trkpt>
      <trkpt lat="45.36543" lon="2.64586">
        <ele>572.08</ele>
        <time>2022-08-17T11:01:15Z</time>
      </trkpt>
      <trkpt lat="45.36593" lon="2.64523">
        <ele>572.02</ele>
        <time>2022-08-17T11:01:21Z</time>
      </trkpt>
      <trkpt lat="45.36598" lon="2.64511">
        <ele>572.04</ele>
        <time>2022-08-17T11:01:22Z</time>
      </trkpt>
      <trkpt lat="45.36604" lon="2.64498">
        <ele>572.02</ele>
        <time>2022-08-17T11:01:23Z</time>
      </trkpt>
      <trkpt lat="45.36652" lon="2.64379">
        <ele>568.77</ele>
        <time>2022-08-17T11:01:32Z</time>
      </trkpt>
      <trkpt lat="45.36655" lon="2.64362">
        <ele>568.76</ele>
        <time>2022-08-17T11:01:33Z</time>
      </trkpt>
      <trkpt lat="45.3667" lon="2.64287">
        <ele>567.95</ele>
        <time>2022-08-17T11:01:37Z</time>
      </trkpt>
      <trkpt lat="45.36677" lon="2.6427">
        <ele>567.89</ele>
        <time>2022-08-17T11:01:38Z</time>
      </trkpt>
      <trkpt lat="45.36684" lon="2.64254">
        <ele>566.46</ele>
        <time>2022-08-17T11:01:39Z</time>
      </trkpt>
      <trkpt lat="45.36691" lon="2.64239">
        <ele>566.46</ele>
        <time>2022-08-17T11:01:40Z</time>
      </trkpt>
      <trkpt lat="45.36713" lon="2.64199">
        <ele>565</ele>
        <time>2022-08-17T11:01:43Z</time>
      </trkpt>
      <trkpt lat="45.36722" lon="2.64187">
        <ele>564.97</ele>
        <time>2022-08-17T11:01:44Z</time>
      </trkpt>
      <trkpt lat="45.36733" lon="2.64177">
        <ele>564.98</ele>
        <time>2022-08-17T11:01:45Z</time>
      </trkpt>
      <trkpt lat="45.36829" lon="2.64096">
        <ele>561.36</ele>
        <time>2022-08-17T11:01:54Z</time>
      </trkpt>
      <trkpt lat="45.3684" lon="2.64088">
        <ele>561.31</ele>
        <time>2022-08-17T11:01:55Z</time>
      </trkpt>
      <trkpt lat="45.36945" lon="2.64032">
        <ele>558.13</ele>
        <time>2022-08-17T11:02:03Z</time>
      </trkpt>
      <trkpt lat="45.36998" lon="2.63995">
        <ele>556.53</ele>
        <time>2022-08-17T11:02:07Z</time>
      </trkpt>
      <trkpt lat="45.37009" lon="2.63982">
        <ele>556.52</ele>
        <time>2022-08-17T11:02:08Z</time>
      </trkpt>
      <trkpt lat="45.37019" lon="2.63966">
        <ele>556.53</ele>
        <time>2022-08-17T11:02:09Z</time>
      </trkpt>
      <trkpt lat="45.37029" lon="2.63951">
        <ele>555.61</ele>
        <time>2022-08-17T11:02:10Z</time>
      </trkpt>
      <trkpt lat="45.37039" lon="2.63938">
        <ele>555.6</ele>
        <time>2022-08-17T11:02:11Z</time>
      </trkpt>
      <trkpt lat="45.37052" lon="2.63928">
        <ele>554.68</ele>
        <time>2022-08-17T11:02:12Z</time>
      </trkpt>
      <trkpt lat="45.37065" lon="2.63919">
        <ele>554.69</ele>
        <time>2022-08-17T11:02:13Z</time>
      </trkpt>
      <trkpt lat="45.37078" lon="2.63908">
        <ele>554.67</ele>
        <time>2022-08-17T11:02:14Z</time>
      </trkpt>
      <trkpt lat="45.37121" lon="2.63865">
        <ele>552.15</ele>
        <time>2022-08-17T11:02:18Z</time>
      </trkpt>
      <trkpt lat="45.37129" lon="2.63851">
        <ele>552.16</ele>
        <time>2022-08-17T11:02:19Z</time>
      </trkpt>
      <trkpt lat="45.37136" lon="2.63836">
        <ele>552.16</ele>
        <time>2022-08-17T11:02:20Z</time>
      </trkpt>
      <trkpt lat="45.3715" lon="2.63804">
        <ele>552.2</ele>
        <time>2022-08-17T11:02:22Z</time>
      </trkpt>
      <trkpt lat="45.3716" lon="2.63791">
        <ele>551.14</ele>
        <time>2022-08-17T11:02:23Z</time>
      </trkpt>
      <trkpt lat="45.37169" lon="2.63777">
        <ele>551.13</ele>
        <time>2022-08-17T11:02:24Z</time>
      </trkpt>
      <trkpt lat="45.37178" lon="2.63763">
        <ele>551.1</ele>
        <time>2022-08-17T11:02:25Z</time>
      </trkpt>
      <trkpt lat="45.37186" lon="2.6375">
        <ele>551.1</ele>
        <time>2022-08-17T11:02:26Z</time>
      </trkpt>
      <trkpt lat="45.37266" lon="2.63598">
        <ele>551.27</ele>
        <time>2022-08-17T11:02:36Z</time>
      </trkpt>
      <trkpt lat="45.37295" lon="2.63533">
        <ele>551.25</ele>
        <time>2022-08-17T11:02:40Z</time>
      </trkpt>
      <trkpt lat="45.37299" lon="2.63514">
        <ele>551.29</ele>
        <time>2022-08-17T11:02:41Z</time>
      </trkpt>
      <trkpt lat="45.37301" lon="2.63494">
        <ele>551.28</ele>
        <time>2022-08-17T11:02:42Z</time>
      </trkpt>
      <trkpt lat="45.37325" lon="2.63365">
        <ele>551.12</ele>
        <time>2022-08-17T11:02:50Z</time>
      </trkpt>
      <trkpt lat="45.37375" lon="2.63186">
        <ele>550.34</ele>
        <time>2022-08-17T11:03:03Z</time>
      </trkpt>
      <trkpt lat="45.37415" lon="2.63036">
        <ele>550.37</ele>
        <time>2022-08-17T11:03:14Z</time>
      </trkpt>
      <trkpt lat="45.37417" lon="2.63023">
        <ele>550.35</ele>
        <time>2022-08-17T11:03:15Z</time>
      </trkpt>
      <trkpt lat="45.37416" lon="2.63009">
        <ele>550.35</ele>
        <time>2022-08-17T11:03:16Z</time>
      </trkpt>
      <trkpt lat="45.37413" lon="2.62995">
        <ele>550.37</ele>
        <time>2022-08-17T11:03:17Z</time>
      </trkpt>
      <trkpt lat="45.3741" lon="2.62983">
        <ele>550.39</ele>
        <time>2022-08-17T11:03:18Z</time>
      </trkpt>
      <trkpt lat="45.37406" lon="2.6297">
        <ele>550.4</ele>
        <time>2022-08-17T11:03:19Z</time>
      </trkpt>
      <trkpt lat="45.37336" lon="2.62772">
        <ele>550.31</ele>
        <time>2022-08-17T11:03:35Z</time>
      </trkpt>
      <trkpt lat="45.37322" lon="2.62736">
        <ele>548.83</ele>
        <time>2022-08-17T11:03:38Z</time>
      </trkpt>
      <trkpt lat="45.37233" lon="2.62509">
        <ele>545.25</ele>
        <time>2022-08-17T11:03:57Z</time>
      </trkpt>
      <trkpt lat="45.3721" lon="2.6245">
        <ele>543.76</ele>
        <time>2022-08-17T11:04:02Z</time>
      </trkpt>
      <trkpt lat="45.37128" lon="2.62235">
        <ele>541.96</ele>
        <time>2022-08-17T11:04:19Z</time>
      </trkpt>
      <trkpt lat="45.37072" lon="2.62047">
        <ele>539.97</ele>
        <time>2022-08-17T11:04:33Z</time>
      </trkpt>
      <trkpt lat="45.37074" lon="2.61867">
        <ele>539.18</ele>
        <time>2022-08-17T11:04:44Z</time>
      </trkpt>
      <trkpt lat="45.37085" lon="2.61546">
        <ele>539.22</ele>
        <time>2022-08-17T11:05:00Z</time>
      </trkpt>
      <trkpt lat="45.37085" lon="2.61416">
        <ele>539.11</ele>
        <time>2022-08-17T11:05:06Z</time>
      </trkpt>
      <trkpt lat="45.37082" lon="2.61396">
        <ele>538.3</ele>
        <time>2022-08-17T11:05:07Z</time>
      </trkpt>
      <trkpt lat="45.37075" lon="2.61377">
        <ele>538.29</ele>
        <time>2022-08-17T11:05:08Z</time>
      </trkpt>
      <trkpt lat="45.37067" lon="2.61359">
        <ele>538.28</ele>
        <time>2022-08-17T11:05:09Z</time>
      </trkpt>
      <trkpt lat="45.37057" lon="2.61343">
        <ele>538.28</ele>
        <time>2022-08-17T11:05:10Z</time>
      </trkpt>
      <trkpt lat="45.37046" lon="2.61329">
        <ele>538.3</ele>
        <time>2022-08-17T11:05:11Z</time>
      </trkpt>
      <trkpt lat="45.37033" lon="2.61319">
        <ele>538.29</ele>
        <time>2022-08-17T11:05:12Z</time>
      </trkpt>
      <trkpt lat="45.37019" lon="2.61311">
        <ele>538.28</ele>
        <time>2022-08-17T11:05:13Z</time>
      </trkpt>
      <trkpt lat="45.37006" lon="2.61302">
        <ele>538.29</ele>
        <time>2022-08-17T11:05:14Z</time>
      </trkpt>
      <trkpt lat="45.36957" lon="2.61261">
        <ele>538.23</ele>
        <time>2022-08-17T11:05:18Z</time>
      </trkpt>
      <trkpt lat="45.36948" lon="2.61246">
        <ele>538.23</ele>
        <time>2022-08-17T11:05:19Z</time>
      </trkpt>
      <trkpt lat="45.3694" lon="2.61229">
        <ele>538.16</ele>
        <time>2022-08-17T11:05:20Z</time>
      </trkpt>
      <trkpt lat="45.36933" lon="2.6121">
        <ele>538.15</ele>
        <time>2022-08-17T11:05:21Z</time>
      </trkpt>
      <trkpt lat="45.3693" lon="2.6119">
        <ele>538.15</ele>
        <time>2022-08-17T11:05:22Z</time>
      </trkpt>
      <trkpt lat="45.3693" lon="2.61168">
        <ele>538.21</ele>
        <time>2022-08-17T11:05:23Z</time>
      </trkpt>
      <trkpt lat="45.36931" lon="2.61146">
        <ele>538.25</ele>
        <time>2022-08-17T11:05:24Z</time>
      </trkpt>
      <trkpt lat="45.36956" lon="2.60955">
        <ele>538.2</ele>
        <time>2022-08-17T11:05:32Z</time>
      </trkpt>
      <trkpt lat="45.36956" lon="2.60783">
        <ele>536.24</ele>
        <time>2022-08-17T11:05:39Z</time>
      </trkpt>
      <trkpt lat="45.36937" lon="2.606">
        <ele>534.37</ele>
        <time>2022-08-17T11:05:46Z</time>
      </trkpt>
      <trkpt lat="45.36908" lon="2.60408">
        <ele>531.07</ele>
        <time>2022-08-17T11:05:54Z</time>
      </trkpt>
      <trkpt lat="45.36902" lon="2.60387">
        <ele>531.06</ele>
        <time>2022-08-17T11:05:55Z</time>
      </trkpt>
      <trkpt lat="45.36893" lon="2.60367">
        <ele>531.03</ele>
        <time>2022-08-17T11:05:56Z</time>
      </trkpt>
      <trkpt lat="45.36881" lon="2.60349">
        <ele>533.37</ele>
        <time>2022-08-17T11:05:57Z</time>
      </trkpt>
      <trkpt lat="45.36867" lon="2.60332">
        <ele>533.36</ele>
        <time>2022-08-17T11:05:58Z</time>
      </trkpt>
      <trkpt lat="45.36793" lon="2.60241">
        <ele>536.43</ele>
        <time>2022-08-17T11:06:04Z</time>
      </trkpt>
      <trkpt lat="45.36781" lon="2.60225">
        <ele>536.47</ele>
        <time>2022-08-17T11:06:05Z</time>
      </trkpt>
      <trkpt lat="45.36751" lon="2.60181">
        <ele>537.55</ele>
        <time>2022-08-17T11:06:08Z</time>
      </trkpt>
      <trkpt lat="45.36744" lon="2.60166">
        <ele>537.54</ele>
        <time>2022-08-17T11:06:09Z</time>
      </trkpt>
      <trkpt lat="45.36739" lon="2.6015">
        <ele>537.56</ele>
        <time>2022-08-17T11:06:10Z</time>
      </trkpt>
      <trkpt lat="45.36739" lon="2.60131">
        <ele>537.56</ele>
        <time>2022-08-17T11:06:11Z</time>
      </trkpt>
      <trkpt lat="45.36741" lon="2.60109">
        <ele>537.62</ele>
        <time>2022-08-17T11:06:12Z</time>
      </trkpt>
      <trkpt lat="45.36742" lon="2.60084">
        <ele>537.7</ele>
        <time>2022-08-17T11:06:13Z</time>
      </trkpt>
      <trkpt lat="45.36768" lon="2.59893">
        <ele>538.67</ele>
        <time>2022-08-17T11:06:20Z</time>
      </trkpt>
      <trkpt lat="45.36774" lon="2.59848">
        <ele>535.25</ele>
        <time>2022-08-17T11:06:22Z</time>
      </trkpt>
      <trkpt lat="45.36777" lon="2.59827">
        <ele>535.19</ele>
        <time>2022-08-17T11:06:23Z</time>
      </trkpt>
      <trkpt lat="45.36784" lon="2.59788">
        <ele>533.26</ele>
        <time>2022-08-17T11:06:25Z</time>
      </trkpt>
      <trkpt lat="45.3679" lon="2.5977">
        <ele>533.27</ele>
        <time>2022-08-17T11:06:26Z</time>
      </trkpt>
      <trkpt lat="45.36821" lon="2.59678">
        <ele>532.4</ele>
        <time>2022-08-17T11:06:31Z</time>
      </trkpt>
      <trkpt lat="45.36824" lon="2.5966">
        <ele>532.32</ele>
        <time>2022-08-17T11:06:32Z</time>
      </trkpt>
      <trkpt lat="45.36825" lon="2.59639">
        <ele>532.32</ele>
        <time>2022-08-17T11:06:33Z</time>
      </trkpt>
      <trkpt lat="45.36824" lon="2.59618">
        <ele>532.3</ele>
        <time>2022-08-17T11:06:34Z</time>
      </trkpt>
      <trkpt lat="45.36819" lon="2.59593">
        <ele>532.27</ele>
        <time>2022-08-17T11:06:35Z</time>
      </trkpt>
      <trkpt lat="45.36815" lon="2.59568">
        <ele>532.32</ele>
        <time>2022-08-17T11:06:36Z</time>
      </trkpt>
      <trkpt lat="45.36809" lon="2.59545">
        <ele>532.29</ele>
        <time>2022-08-17T11:06:37Z</time>
      </trkpt>
      <trkpt lat="45.36803" lon="2.59522">
        <ele>532.54</ele>
        <time>2022-08-17T11:06:38Z</time>
      </trkpt>
      <trkpt lat="45.36797" lon="2.59499">
        <ele>532.54</ele>
        <time>2022-08-17T11:06:39Z</time>
      </trkpt>
      <trkpt lat="45.36768" lon="2.5938">
        <ele>530.31</ele>
        <time>2022-08-17T11:06:45Z</time>
      </trkpt>
      <trkpt lat="45.36766" lon="2.59338">
        <ele>530.32</ele>
        <time>2022-08-17T11:06:47Z</time>
      </trkpt>
      <trkpt lat="45.36754" lon="2.59273">
        <ele>530.32</ele>
        <time>2022-08-17T11:06:50Z</time>
      </trkpt>
      <trkpt lat="45.36747" lon="2.59233">
        <ele>530.26</ele>
        <time>2022-08-17T11:06:52Z</time>
      </trkpt>
      <trkpt lat="45.36741" lon="2.59214">
        <ele>529.01</ele>
        <time>2022-08-17T11:06:53Z</time>
      </trkpt>
      <trkpt lat="45.36732" lon="2.59198">
        <ele>529.06</ele>
        <time>2022-08-17T11:06:54Z</time>
      </trkpt>
      <trkpt lat="45.36715" lon="2.59168">
        <ele>529.15</ele>
        <time>2022-08-17T11:06:56Z</time>
      </trkpt>
      <trkpt lat="45.36709" lon="2.59151">
        <ele>529.16</ele>
        <time>2022-08-17T11:06:57Z</time>
      </trkpt>
      <trkpt lat="45.36652" lon="2.59004">
        <ele>529.22</ele>
        <time>2022-08-17T11:07:05Z</time>
      </trkpt>
      <trkpt lat="45.36576" lon="2.58862">
        <ele>526.28</ele>
        <time>2022-08-17T11:07:14Z</time>
      </trkpt>
      <trkpt lat="45.36556" lon="2.58837">
        <ele>526.25</ele>
        <time>2022-08-17T11:07:16Z</time>
      </trkpt>
      <trkpt lat="45.36545" lon="2.58826">
        <ele>526.21</ele>
        <time>2022-08-17T11:07:17Z</time>
      </trkpt>
      <trkpt lat="45.36532" lon="2.58819">
        <ele>526.18</ele>
        <time>2022-08-17T11:07:18Z</time>
      </trkpt>
      <trkpt lat="45.36508" lon="2.58802">
        <ele>526.19</ele>
        <time>2022-08-17T11:07:20Z</time>
      </trkpt>
      <trkpt lat="45.36497" lon="2.58792">
        <ele>525.32</ele>
        <time>2022-08-17T11:07:21Z</time>
      </trkpt>
      <trkpt lat="45.36466" lon="2.5876">
        <ele>525.33</ele>
        <time>2022-08-17T11:07:24Z</time>
      </trkpt>
      <trkpt lat="45.36458" lon="2.58751">
        <ele>525.34</ele>
        <time>2022-08-17T11:07:25Z</time>
      </trkpt>
      <trkpt lat="45.36453" lon="2.58737">
        <ele>524.36</ele>
        <time>2022-08-17T11:07:26Z</time>
      </trkpt>
      <trkpt lat="45.36443" lon="2.58708">
        <ele>523.47</ele>
        <time>2022-08-17T11:07:28Z</time>
      </trkpt>
      <trkpt lat="45.36438" lon="2.58693">
        <ele>523.47</ele>
        <time>2022-08-17T11:07:29Z</time>
      </trkpt>
      <trkpt lat="45.3642" lon="2.58612">
        <ele>523.42</ele>
        <time>2022-08-17T11:07:34Z</time>
      </trkpt>
      <trkpt lat="45.36419" lon="2.58596">
        <ele>523.42</ele>
        <time>2022-08-17T11:07:35Z</time>
      </trkpt>
      <trkpt lat="45.36418" lon="2.5858">
        <ele>523.41</ele>
        <time>2022-08-17T11:07:36Z</time>
      </trkpt>
      <trkpt lat="45.36416" lon="2.58563">
        <ele>523.4</ele>
        <time>2022-08-17T11:07:37Z</time>
      </trkpt>
      <trkpt lat="45.36414" lon="2.58546">
        <ele>523.39</ele>
        <time>2022-08-17T11:07:38Z</time>
      </trkpt>
      <trkpt lat="45.36411" lon="2.58513">
        <ele>522.43</ele>
        <time>2022-08-17T11:07:40Z</time>
      </trkpt>
      <trkpt lat="45.36413" lon="2.5848">
        <ele>521.45</ele>
        <time>2022-08-17T11:07:42Z</time>
      </trkpt>
      <trkpt lat="45.36417" lon="2.58465">
        <ele>521.43</ele>
        <time>2022-08-17T11:07:43Z</time>
      </trkpt>
      <trkpt lat="45.3647" lon="2.583">
        <ele>519.65</ele>
        <time>2022-08-17T11:07:53Z</time>
      </trkpt>
      <trkpt lat="45.36513" lon="2.5817">
        <ele>516.54</ele>
        <time>2022-08-17T11:08:01Z</time>
      </trkpt>
      <trkpt lat="45.36529" lon="2.58129">
        <ele>515.58</ele>
        <time>2022-08-17T11:08:04Z</time>
      </trkpt>
      <trkpt lat="45.36536" lon="2.5812">
        <ele>515.51</ele>
        <time>2022-08-17T11:08:05Z</time>
      </trkpt>
      <trkpt lat="45.36545" lon="2.58116">
        <ele>514.75</ele>
        <time>2022-08-17T11:08:06Z</time>
      </trkpt>
      <trkpt lat="45.36555" lon="2.58116">
        <ele>514.75</ele>
        <time>2022-08-17T11:08:07Z</time>
      </trkpt>
      <trkpt lat="45.36566" lon="2.58118">
        <ele>514.72</ele>
        <time>2022-08-17T11:08:08Z</time>
      </trkpt>
      <trkpt lat="45.36576" lon="2.58123">
        <ele>514.74</ele>
        <time>2022-08-17T11:08:09Z</time>
      </trkpt>
      <trkpt lat="45.36586" lon="2.58129">
        <ele>514.71</ele>
        <time>2022-08-17T11:08:10Z</time>
      </trkpt>
      <trkpt lat="45.36596" lon="2.58137">
        <ele>514.71</ele>
        <time>2022-08-17T11:08:11Z</time>
      </trkpt>
      <trkpt lat="45.36653" lon="2.58185">
        <ele>512.78</ele>
        <time>2022-08-17T11:08:17Z</time>
      </trkpt>
      <trkpt lat="45.36663" lon="2.58187">
        <ele>512.77</ele>
        <time>2022-08-17T11:08:18Z</time>
      </trkpt>
      <trkpt lat="45.36673" lon="2.58184">
        <ele>511.69</ele>
        <time>2022-08-17T11:08:19Z</time>
      </trkpt>
      <trkpt lat="45.36684" lon="2.58179">
        <ele>511.67</ele>
        <time>2022-08-17T11:08:20Z</time>
      </trkpt>
      <trkpt lat="45.36695" lon="2.58171">
        <ele>511.68</ele>
        <time>2022-08-17T11:08:21Z</time>
      </trkpt>
      <trkpt lat="45.36729" lon="2.58154">
        <ele>511.64</ele>
        <time>2022-08-17T11:08:24Z</time>
      </trkpt>
      <trkpt lat="45.36741" lon="2.58152">
        <ele>510.74</ele>
        <time>2022-08-17T11:08:25Z</time>
      </trkpt>
      <trkpt lat="45.36763" lon="2.5815">
        <ele>509.53</ele>
        <time>2022-08-17T11:08:27Z</time>
      </trkpt>
      <trkpt lat="45.36773" lon="2.58144">
        <ele>509.52</ele>
        <time>2022-08-17T11:08:28Z</time>
      </trkpt>
      <trkpt lat="45.3678" lon="2.58136">
        <ele>509.49</ele>
        <time>2022-08-17T11:08:29Z</time>
      </trkpt>
      <trkpt lat="45.36786" lon="2.58125">
        <ele>508.62</ele>
        <time>2022-08-17T11:08:30Z</time>
      </trkpt>
      <trkpt lat="45.36792" lon="2.58114">
        <ele>508.69</ele>
        <time>2022-08-17T11:08:31Z</time>
      </trkpt>
      <trkpt lat="45.36799" lon="2.58105">
        <ele>507.89</ele>
        <time>2022-08-17T11:08:32Z</time>
      </trkpt>
      <trkpt lat="45.36808" lon="2.58097">
        <ele>507.88</ele>
        <time>2022-08-17T11:08:33Z</time>
      </trkpt>
      <trkpt lat="45.36817" lon="2.5809">
        <ele>507.87</ele>
        <time>2022-08-17T11:08:34Z</time>
      </trkpt>
      <trkpt lat="45.36828" lon="2.58085">
        <ele>507.84</ele>
        <time>2022-08-17T11:08:35Z</time>
      </trkpt>
      <trkpt lat="45.36838" lon="2.5808">
        <ele>507.83</ele>
        <time>2022-08-17T11:08:36Z</time>
      </trkpt>
      <trkpt lat="45.36926" lon="2.58031">
        <ele>506.04</ele>
        <time>2022-08-17T11:08:44Z</time>
      </trkpt>
      <trkpt lat="45.36935" lon="2.5802">
        <ele>505.05</ele>
        <time>2022-08-17T11:08:45Z</time>
      </trkpt>
      <trkpt lat="45.36942" lon="2.58008">
        <ele>505.06</ele>
        <time>2022-08-17T11:08:46Z</time>
      </trkpt>
      <trkpt lat="45.3695" lon="2.57997">
        <ele>505.06</ele>
        <time>2022-08-17T11:08:47Z</time>
      </trkpt>
      <trkpt lat="45.36958" lon="2.57986">
        <ele>505.03</ele>
        <time>2022-08-17T11:08:48Z</time>
      </trkpt>
      <trkpt lat="45.36995" lon="2.57928">
        <ele>502.89</ele>
        <time>2022-08-17T11:08:54Z</time>
      </trkpt>
      <trkpt lat="45.37007" lon="2.57904">
        <ele>501.84</ele>
        <time>2022-08-17T11:08:57Z</time>
      </trkpt>
      <trkpt lat="45.37033" lon="2.57804">
        <ele>501.81</ele>
        <time>2022-08-17T11:09:05Z</time>
      </trkpt>
      <trkpt lat="45.37043" lon="2.57773">
        <ele>501.79</ele>
        <time>2022-08-17T11:09:07Z</time>
      </trkpt>
      <trkpt lat="45.3705" lon="2.57759">
        <ele>501.83</ele>
        <time>2022-08-17T11:09:08Z</time>
      </trkpt>
      <trkpt lat="45.37098" lon="2.57672">
        <ele>501.85</ele>
        <time>2022-08-17T11:09:14Z</time>
      </trkpt>
      <trkpt lat="45.37108" lon="2.5766">
        <ele>501.85</ele>
        <time>2022-08-17T11:09:15Z</time>
      </trkpt>
      <trkpt lat="45.37118" lon="2.57649">
        <ele>501.85</ele>
        <time>2022-08-17T11:09:16Z</time>
      </trkpt>
      <trkpt lat="45.37129" lon="2.5764">
        <ele>501.84</ele>
        <time>2022-08-17T11:09:17Z</time>
      </trkpt>
      <trkpt lat="45.37141" lon="2.57632">
        <ele>501.83</ele>
        <time>2022-08-17T11:09:18Z</time>
      </trkpt>
      <trkpt lat="45.37152" lon="2.57626">
        <ele>501.83</ele>
        <time>2022-08-17T11:09:19Z</time>
      </trkpt>
      <trkpt lat="45.37164" lon="2.5762">
        <ele>501.82</ele>
        <time>2022-08-17T11:09:20Z</time>
      </trkpt>
      <trkpt lat="45.3733" lon="2.57549">
        <ele>501.86</ele>
        <time>2022-08-17T11:09:33Z</time>
      </trkpt>
      <trkpt lat="45.37344" lon="2.57548">
        <ele>504.74</ele>
        <time>2022-08-17T11:09:34Z</time>
      </trkpt>
      <trkpt lat="45.37357" lon="2.5755">
        <ele>504.63</ele>
        <time>2022-08-17T11:09:35Z</time>
      </trkpt>
      <trkpt lat="45.3737" lon="2.57554">
        <ele>504.56</ele>
        <time>2022-08-17T11:09:36Z</time>
      </trkpt>
      <trkpt lat="45.37383" lon="2.57559">
        <ele>504.57</ele>
        <time>2022-08-17T11:09:37Z</time>
      </trkpt>
      <trkpt lat="45.37395" lon="2.57566">
        <ele>504.65</ele>
        <time>2022-08-17T11:09:38Z</time>
      </trkpt>
      <trkpt lat="45.37434" lon="2.57587">
        <ele>505.87</ele>
        <time>2022-08-17T11:09:41Z</time>
      </trkpt>
      <trkpt lat="45.37496" lon="2.57623">
        <ele>508.06</ele>
        <time>2022-08-17T11:09:46Z</time>
      </trkpt>
      <trkpt lat="45.37639" lon="2.57702">
        <ele>511.71</ele>
        <time>2022-08-17T11:09:59Z</time>
      </trkpt>
      <trkpt lat="45.37648" lon="2.57706">
        <ele>511.7</ele>
        <time>2022-08-17T11:10:00Z</time>
      </trkpt>
      <trkpt lat="45.37733" lon="2.57711">
        <ele>512.41</ele>
        <time>2022-08-17T11:10:09Z</time>
      </trkpt>
      <trkpt lat="45.3785" lon="2.57661">
        <ele>512.31</ele>
        <time>2022-08-17T11:10:22Z</time>
      </trkpt>
      <trkpt lat="45.37986" lon="2.57631">
        <ele>512.37</ele>
        <time>2022-08-17T11:10:37Z</time>
      </trkpt>
      <trkpt lat="45.38103" lon="2.57649">
        <ele>512.43</ele>
        <time>2022-08-17T11:10:50Z</time>
      </trkpt>
      <trkpt lat="45.38245" lon="2.57674">
        <ele>515.04</ele>
        <time>2022-08-17T11:11:06Z</time>
      </trkpt>
      <trkpt lat="45.38391" lon="2.577">
        <ele>516</ele>
        <time>2022-08-17T11:11:22Z</time>
      </trkpt>
      <trkpt lat="45.38528" lon="2.57706">
        <ele>516.81</ele>
        <time>2022-08-17T11:11:35Z</time>
      </trkpt>
      <trkpt lat="45.38693" lon="2.57678">
        <ele>516.77</ele>
        <time>2022-08-17T11:11:47Z</time>
      </trkpt>
      <trkpt lat="45.38917" lon="2.57639">
        <ele>514.41</ele>
        <time>2022-08-17T11:12:02Z</time>
      </trkpt>
      <trkpt lat="45.38932" lon="2.57637">
        <ele>514.4</ele>
        <time>2022-08-17T11:12:03Z</time>
      </trkpt>
      <trkpt lat="45.39125" lon="2.57605">
        <ele>511.86</ele>
        <time>2022-08-17T11:12:16Z</time>
      </trkpt>
      <trkpt lat="45.39168" lon="2.57599">
        <ele>510.58</ele>
        <time>2022-08-17T11:12:19Z</time>
      </trkpt>
      <trkpt lat="45.39239" lon="2.57581">
        <ele>510.58</ele>
        <time>2022-08-17T11:12:24Z</time>
      </trkpt>
      <trkpt lat="45.39253" lon="2.57573">
        <ele>510.59</ele>
        <time>2022-08-17T11:12:25Z</time>
      </trkpt>
      <trkpt lat="45.39267" lon="2.57564">
        <ele>510.58</ele>
        <time>2022-08-17T11:12:26Z</time>
      </trkpt>
      <trkpt lat="45.3928" lon="2.57553">
        <ele>510.58</ele>
        <time>2022-08-17T11:12:27Z</time>
      </trkpt>
      <trkpt lat="45.39292" lon="2.57542">
        <ele>510.58</ele>
        <time>2022-08-17T11:12:28Z</time>
      </trkpt>
      <trkpt lat="45.39304" lon="2.57529">
        <ele>510.57</ele>
        <time>2022-08-17T11:12:29Z</time>
      </trkpt>
      <trkpt lat="45.39315" lon="2.57516">
        <ele>510.56</ele>
        <time>2022-08-17T11:12:30Z</time>
      </trkpt>
      <trkpt lat="45.39326" lon="2.57501">
        <ele>510.55</ele>
        <time>2022-08-17T11:12:31Z</time>
      </trkpt>
      <trkpt lat="45.39407" lon="2.57359">
        <ele>508.33</ele>
        <time>2022-08-17T11:12:40Z</time>
      </trkpt>
      <trkpt lat="45.39475" lon="2.57239">
        <ele>506.33</ele>
        <time>2022-08-17T11:12:50Z</time>
      </trkpt>
      <trkpt lat="45.39568" lon="2.57077">
        <ele>505.5</ele>
        <time>2022-08-17T11:13:04Z</time>
      </trkpt>
      <trkpt lat="45.39652" lon="2.56889">
        <ele>504.68</ele>
        <time>2022-08-17T11:13:19Z</time>
      </trkpt>
      <trkpt lat="45.39674" lon="2.56743">
        <ele>502.88</ele>
        <time>2022-08-17T11:13:29Z</time>
      </trkpt>
      <trkpt lat="45.39682" lon="2.56589">
        <ele>500.61</ele>
        <time>2022-08-17T11:13:39Z</time>
      </trkpt>
      <trkpt lat="45.39678" lon="2.56376">
        <ele>499.63</ele>
        <time>2022-08-17T11:13:53Z</time>
      </trkpt>
      <trkpt lat="45.39625" lon="2.5625">
        <ele>497.8</ele>
        <time>2022-08-17T11:14:03Z</time>
      </trkpt>
      <trkpt lat="45.39582" lon="2.56164">
        <ele>496.97</ele>
        <time>2022-08-17T11:14:12Z</time>
      </trkpt>
      <trkpt lat="45.3958" lon="2.56157">
        <ele>496.96</ele>
        <time>2022-08-17T11:14:13Z</time>
      </trkpt>
      <trkpt lat="45.39577" lon="2.5615">
        <ele>496.95</ele>
        <time>2022-08-17T11:14:14Z</time>
      </trkpt>
      <trkpt lat="45.39575" lon="2.56134">
        <ele>495.96</ele>
        <time>2022-08-17T11:14:16Z</time>
      </trkpt>
      <trkpt lat="45.39571" lon="2.56126">
        <ele>495.96</ele>
        <time>2022-08-17T11:14:17Z</time>
      </trkpt>
      <trkpt lat="45.39565" lon="2.56118">
        <ele>496.11</ele>
        <time>2022-08-17T11:14:18Z</time>
      </trkpt>
      <trkpt lat="45.39553" lon="2.56102">
        <ele>496.09</ele>
        <time>2022-08-17T11:14:20Z</time>
      </trkpt>
      <trkpt lat="45.39547" lon="2.56092">
        <ele>496.09</ele>
        <time>2022-08-17T11:14:21Z</time>
      </trkpt>
      <trkpt lat="45.39534" lon="2.56062">
        <ele>495.98</ele>
        <time>2022-08-17T11:14:24Z</time>
      </trkpt>
      <trkpt lat="45.39529" lon="2.56046">
        <ele>496.1</ele>
        <time>2022-08-17T11:14:26Z</time>
      </trkpt>
      <trkpt lat="45.39526" lon="2.56039">
        <ele>495.32</ele>
        <time>2022-08-17T11:14:28Z</time>
      </trkpt>
      <trkpt lat="45.39523" lon="2.56036">
        <ele>494.54</ele>
        <time>2022-08-17T11:14:45Z</time>
      </trkpt>
      <trkpt lat="45.39522" lon="2.56042">
        <ele>494.66</ele>
        <time>2022-08-17T11:15:41Z</time>
      </trkpt>
      <trkpt lat="45.39521" lon="2.56043">
        <ele>494.62</ele>
        <time>2022-08-17T11:16:42Z</time>
      </trkpt>
      <trkpt lat="45.39521" lon="2.56042">
        <ele>494.55</ele>
        <time>2022-08-17T11:17:46Z</time>
      </trkpt>
      <trkpt lat="45.39522" lon="2.56042">
        <ele>494.45</ele>
        <time>2022-08-17T11:19:00Z</time>
      </trkpt>
      <trkpt lat="45.39523" lon="2.56043">
        <ele>494.3</ele>
        <time>2022-08-17T11:20:02Z</time>
      </trkpt>
      <trkpt lat="45.39521" lon="2.5604">
        <ele>494.17</ele>
        <time>2022-08-17T11:21:29Z</time>
      </trkpt>
      <trkpt lat="45.39521" lon="2.56041">
        <ele>494.11</ele>
        <time>2022-08-17T11:22:05Z</time>
      </trkpt>
      <trkpt lat="45.39519" lon="2.56039">
        <ele>494.11</ele>
        <time>2022-08-17T11:22:06Z</time>
      </trkpt>
      <trkpt lat="45.39516" lon="2.56037">
        <ele>494.11</ele>
        <time>2022-08-17T11:22:07Z</time>
      </trkpt>
      <trkpt lat="45.39514" lon="2.56034">
        <ele>494.11</ele>
        <time>2022-08-17T11:22:08Z</time>
      </trkpt>
      <trkpt lat="45.3951" lon="2.56033">
        <ele>494.11</ele>
        <time>2022-08-17T11:22:09Z</time>
      </trkpt>
      <trkpt lat="45.39507" lon="2.56034">
        <ele>494.1</ele>
        <time>2022-08-17T11:22:10Z</time>
      </trkpt>
      <trkpt lat="45.39505" lon="2.56036">
        <ele>494.09</ele>
        <time>2022-08-17T11:22:11Z</time>
      </trkpt>
      <trkpt lat="45.39501" lon="2.56038">
        <ele>494.1</ele>
        <time>2022-08-17T11:22:12Z</time>
      </trkpt>
      <trkpt lat="45.39495" lon="2.56037">
        <ele>494.09</ele>
        <time>2022-08-17T11:22:13Z</time>
      </trkpt>
      <trkpt lat="45.39489" lon="2.56034">
        <ele>494.1</ele>
        <time>2022-08-17T11:22:14Z</time>
      </trkpt>
      <trkpt lat="45.39482" lon="2.5603">
        <ele>494.1</ele>
        <time>2022-08-17T11:22:15Z</time>
      </trkpt>
      <trkpt lat="45.39476" lon="2.56025">
        <ele>494.1</ele>
        <time>2022-08-17T11:22:16Z</time>
      </trkpt>
      <trkpt lat="45.3947" lon="2.56018">
        <ele>494.09</ele>
        <time>2022-08-17T11:22:17Z</time>
      </trkpt>
      <trkpt lat="45.39466" lon="2.56009">
        <ele>494.1</ele>
        <time>2022-08-17T11:22:18Z</time>
      </trkpt>
      <trkpt lat="45.39463" lon="2.55998">
        <ele>494.1</ele>
        <time>2022-08-17T11:22:19Z</time>
      </trkpt>
      <trkpt lat="45.39462" lon="2.55987">
        <ele>494.07</ele>
        <time>2022-08-17T11:22:20Z</time>
      </trkpt>
      <trkpt lat="45.3946" lon="2.55975">
        <ele>494.09</ele>
        <time>2022-08-17T11:22:21Z</time>
      </trkpt>
      <trkpt lat="45.3945" lon="2.55885">
        <ele>496.55</ele>
        <time>2022-08-17T11:22:27Z</time>
      </trkpt>
      <trkpt lat="45.3943" lon="2.55674">
        <ele>496.48</ele>
        <time>2022-08-17T11:22:40Z</time>
      </trkpt>
      <trkpt lat="45.39424" lon="2.55604">
        <ele>493.94</ele>
        <time>2022-08-17T11:22:44Z</time>
      </trkpt>
      <trkpt lat="45.39403" lon="2.5544">
        <ele>492.99</ele>
        <time>2022-08-17T11:22:53Z</time>
      </trkpt>
      <trkpt lat="45.39397" lon="2.55419">
        <ele>493.17</ele>
        <time>2022-08-17T11:22:54Z</time>
      </trkpt>
      <trkpt lat="45.39376" lon="2.55318">
        <ele>493.13</ele>
        <time>2022-08-17T11:22:59Z</time>
      </trkpt>
      <trkpt lat="45.39364" lon="2.55188">
        <ele>493.16</ele>
        <time>2022-08-17T11:23:05Z</time>
      </trkpt>
      <trkpt lat="45.39357" lon="2.55166">
        <ele>493.19</ele>
        <time>2022-08-17T11:23:06Z</time>
      </trkpt>
      <trkpt lat="45.39348" lon="2.55143">
        <ele>493.18</ele>
        <time>2022-08-17T11:23:07Z</time>
      </trkpt>
      <trkpt lat="45.39326" lon="2.55096">
        <ele>495.84</ele>
        <time>2022-08-17T11:23:09Z</time>
      </trkpt>
      <trkpt lat="45.39251" lon="2.54938">
        <ele>496.79</ele>
        <time>2022-08-17T11:23:16Z</time>
      </trkpt>
      <trkpt lat="45.39236" lon="2.54918">
        <ele>497.66</ele>
        <time>2022-08-17T11:23:17Z</time>
      </trkpt>
      <trkpt lat="45.39192" lon="2.54864">
        <ele>499.35</ele>
        <time>2022-08-17T11:23:20Z</time>
      </trkpt>
      <trkpt lat="45.39165" lon="2.54823">
        <ele>501.53</ele>
        <time>2022-08-17T11:23:22Z</time>
      </trkpt>
      <trkpt lat="45.39154" lon="2.54798">
        <ele>502.53</ele>
        <time>2022-08-17T11:23:23Z</time>
      </trkpt>
      <trkpt lat="45.39146" lon="2.5477">
        <ele>504.17</ele>
        <time>2022-08-17T11:23:24Z</time>
      </trkpt>
      <trkpt lat="45.39116" lon="2.54683">
        <ele>507.82</ele>
        <time>2022-08-17T11:23:27Z</time>
      </trkpt>
      <trkpt lat="45.39092" lon="2.54627">
        <ele>508.68</ele>
        <time>2022-08-17T11:23:29Z</time>
      </trkpt>
      <trkpt lat="45.39054" lon="2.54544">
        <ele>511.1</ele>
        <time>2022-08-17T11:23:32Z</time>
      </trkpt>
      <trkpt lat="45.38999" lon="2.54433">
        <ele>514.44</ele>
        <time>2022-08-17T11:23:37Z</time>
      </trkpt>
      <trkpt lat="45.38984" lon="2.54414">
        <ele>515.92</ele>
        <time>2022-08-17T11:23:38Z</time>
      </trkpt>
      <trkpt lat="45.38966" lon="2.54396">
        <ele>518.19</ele>
        <time>2022-08-17T11:23:39Z</time>
      </trkpt>
      <trkpt lat="45.38947" lon="2.54381">
        <ele>520.06</ele>
        <time>2022-08-17T11:23:40Z</time>
      </trkpt>
      <trkpt lat="45.38913" lon="2.54353">
        <ele>520.84</ele>
        <time>2022-08-17T11:23:42Z</time>
      </trkpt>
      <trkpt lat="45.3887" lon="2.54315">
        <ele>522.55</ele>
        <time>2022-08-17T11:23:45Z</time>
      </trkpt>
      <trkpt lat="45.38858" lon="2.54299">
        <ele>524.09</ele>
        <time>2022-08-17T11:23:46Z</time>
      </trkpt>
      <trkpt lat="45.38849" lon="2.5428">
        <ele>525.02</ele>
        <time>2022-08-17T11:23:47Z</time>
      </trkpt>
      <trkpt lat="45.38843" lon="2.54257">
        <ele>526.3</ele>
        <time>2022-08-17T11:23:48Z</time>
      </trkpt>
      <trkpt lat="45.3884" lon="2.54231">
        <ele>527.35</ele>
        <time>2022-08-17T11:23:49Z</time>
      </trkpt>
      <trkpt lat="45.38837" lon="2.54203">
        <ele>530.44</ele>
        <time>2022-08-17T11:23:50Z</time>
      </trkpt>
      <trkpt lat="45.3883" lon="2.54145">
        <ele>534.34</ele>
        <time>2022-08-17T11:23:52Z</time>
      </trkpt>
      <trkpt lat="45.38824" lon="2.54084">
        <ele>538.24</ele>
        <time>2022-08-17T11:23:54Z</time>
      </trkpt>
      <trkpt lat="45.38823" lon="2.54027">
        <ele>540.3</ele>
        <time>2022-08-17T11:23:56Z</time>
      </trkpt>
      <trkpt lat="45.38825" lon="2.54001">
        <ele>540.35</ele>
        <time>2022-08-17T11:23:57Z</time>
      </trkpt>
      <trkpt lat="45.38831" lon="2.53979">
        <ele>540.3</ele>
        <time>2022-08-17T11:23:58Z</time>
      </trkpt>
      <trkpt lat="45.38838" lon="2.53959">
        <ele>540.39</ele>
        <time>2022-08-17T11:23:59Z</time>
      </trkpt>
      <trkpt lat="45.38847" lon="2.53942">
        <ele>541.45</ele>
        <time>2022-08-17T11:24:00Z</time>
      </trkpt>
      <trkpt lat="45.38857" lon="2.5393">
        <ele>541.45</ele>
        <time>2022-08-17T11:24:01Z</time>
      </trkpt>
      <trkpt lat="45.38869" lon="2.53919">
        <ele>541.54</ele>
        <time>2022-08-17T11:24:02Z</time>
      </trkpt>
      <trkpt lat="45.38883" lon="2.53911">
        <ele>541.5</ele>
        <time>2022-08-17T11:24:03Z</time>
      </trkpt>
      <trkpt lat="45.38898" lon="2.53906">
        <ele>542.44</ele>
        <time>2022-08-17T11:24:04Z</time>
      </trkpt>
      <trkpt lat="45.38913" lon="2.53904">
        <ele>542.37</ele>
        <time>2022-08-17T11:24:05Z</time>
      </trkpt>
      <trkpt lat="45.3893" lon="2.53902">
        <ele>542.39</ele>
        <time>2022-08-17T11:24:06Z</time>
      </trkpt>
      <trkpt lat="45.39054" lon="2.53867">
        <ele>541.1</ele>
        <time>2022-08-17T11:24:13Z</time>
      </trkpt>
      <trkpt lat="45.39103" lon="2.53855">
        <ele>539.27</ele>
        <time>2022-08-17T11:24:16Z</time>
      </trkpt>
      <trkpt lat="45.39147" lon="2.53847">
        <ele>536.94</ele>
        <time>2022-08-17T11:24:19Z</time>
      </trkpt>
      <trkpt lat="45.39175" lon="2.53844">
        <ele>534.43</ele>
        <time>2022-08-17T11:24:21Z</time>
      </trkpt>
      <trkpt lat="45.39218" lon="2.53838">
        <ele>532.95</ele>
        <time>2022-08-17T11:24:24Z</time>
      </trkpt>
      <trkpt lat="45.39301" lon="2.53813">
        <ele>529.45</ele>
        <time>2022-08-17T11:24:29Z</time>
      </trkpt>
      <trkpt lat="45.39319" lon="2.53806">
        <ele>529.46</ele>
        <time>2022-08-17T11:24:30Z</time>
      </trkpt>
      <trkpt lat="45.39354" lon="2.53793">
        <ele>526.36</ele>
        <time>2022-08-17T11:24:32Z</time>
      </trkpt>
      <trkpt lat="45.39405" lon="2.53773">
        <ele>522.2</ele>
        <time>2022-08-17T11:24:35Z</time>
      </trkpt>
      <trkpt lat="45.39421" lon="2.53764">
        <ele>521.02</ele>
        <time>2022-08-17T11:24:36Z</time>
      </trkpt>
      <trkpt lat="45.39435" lon="2.53751">
        <ele>519.37</ele>
        <time>2022-08-17T11:24:37Z</time>
      </trkpt>
      <trkpt lat="45.39446" lon="2.53735">
        <ele>518.31</ele>
        <time>2022-08-17T11:24:38Z</time>
      </trkpt>
      <trkpt lat="45.39454" lon="2.53716">
        <ele>517.14</ele>
        <time>2022-08-17T11:24:39Z</time>
      </trkpt>
      <trkpt lat="45.3946" lon="2.53696">
        <ele>516</ele>
        <time>2022-08-17T11:24:40Z</time>
      </trkpt>
      <trkpt lat="45.39461" lon="2.53674">
        <ele>514.87</ele>
        <time>2022-08-17T11:24:41Z</time>
      </trkpt>
      <trkpt lat="45.39459" lon="2.53653">
        <ele>513.96</ele>
        <time>2022-08-17T11:24:42Z</time>
      </trkpt>
      <trkpt lat="45.39454" lon="2.53631">
        <ele>513.87</ele>
        <time>2022-08-17T11:24:43Z</time>
      </trkpt>
      <trkpt lat="45.39446" lon="2.53609">
        <ele>512.35</ele>
        <time>2022-08-17T11:24:44Z</time>
      </trkpt>
      <trkpt lat="45.39436" lon="2.53587">
        <ele>512.24</ele>
        <time>2022-08-17T11:24:45Z</time>
      </trkpt>
      <trkpt lat="45.39426" lon="2.53567">
        <ele>511.3</ele>
        <time>2022-08-17T11:24:46Z</time>
      </trkpt>
      <trkpt lat="45.394" lon="2.53501">
        <ele>509.63</ele>
        <time>2022-08-17T11:24:49Z</time>
      </trkpt>
      <trkpt lat="45.39394" lon="2.53477">
        <ele>509.03</ele>
        <time>2022-08-17T11:24:50Z</time>
      </trkpt>
      <trkpt lat="45.39394" lon="2.53452">
        <ele>508.94</ele>
        <time>2022-08-17T11:24:51Z</time>
      </trkpt>
      <trkpt lat="45.39397" lon="2.53428">
        <ele>508.95</ele>
        <time>2022-08-17T11:24:52Z</time>
      </trkpt>
      <trkpt lat="45.39403" lon="2.53405">
        <ele>508.93</ele>
        <time>2022-08-17T11:24:53Z</time>
      </trkpt>
      <trkpt lat="45.39411" lon="2.53383">
        <ele>508.97</ele>
        <time>2022-08-17T11:24:54Z</time>
      </trkpt>
      <trkpt lat="45.3942" lon="2.53361">
        <ele>509.03</ele>
        <time>2022-08-17T11:24:55Z</time>
      </trkpt>
      <trkpt lat="45.39448" lon="2.53271">
        <ele>509.13</ele>
        <time>2022-08-17T11:24:59Z</time>
      </trkpt>
      <trkpt lat="45.39465" lon="2.53083">
        <ele>511.69</ele>
        <time>2022-08-17T11:25:07Z</time>
      </trkpt>
      <trkpt lat="45.39464" lon="2.53061">
        <ele>513.3</ele>
        <time>2022-08-17T11:25:08Z</time>
      </trkpt>
      <trkpt lat="45.3946" lon="2.53038">
        <ele>514.19</ele>
        <time>2022-08-17T11:25:09Z</time>
      </trkpt>
      <trkpt lat="45.39455" lon="2.53015">
        <ele>514.21</ele>
        <time>2022-08-17T11:25:10Z</time>
      </trkpt>
      <trkpt lat="45.39449" lon="2.52993">
        <ele>515.85</ele>
        <time>2022-08-17T11:25:11Z</time>
      </trkpt>
      <trkpt lat="45.3944" lon="2.52972">
        <ele>515.85</ele>
        <time>2022-08-17T11:25:12Z</time>
      </trkpt>
      <trkpt lat="45.39431" lon="2.52953">
        <ele>516.71</ele>
        <time>2022-08-17T11:25:13Z</time>
      </trkpt>
      <trkpt lat="45.39421" lon="2.52933">
        <ele>518.18</ele>
        <time>2022-08-17T11:25:14Z</time>
      </trkpt>
      <trkpt lat="45.39388" lon="2.52875">
        <ele>520.28</ele>
        <time>2022-08-17T11:25:17Z</time>
      </trkpt>
      <trkpt lat="45.39366" lon="2.52837">
        <ele>522.06</ele>
        <time>2022-08-17T11:25:19Z</time>
      </trkpt>
      <trkpt lat="45.39341" lon="2.52801">
        <ele>523.82</ele>
        <time>2022-08-17T11:25:21Z</time>
      </trkpt>
      <trkpt lat="45.39316" lon="2.52768">
        <ele>525.82</ele>
        <time>2022-08-17T11:25:23Z</time>
      </trkpt>
      <trkpt lat="45.39293" lon="2.52736">
        <ele>528.56</ele>
        <time>2022-08-17T11:25:25Z</time>
      </trkpt>
      <trkpt lat="45.39277" lon="2.52698">
        <ele>529.94</ele>
        <time>2022-08-17T11:25:27Z</time>
      </trkpt>
      <trkpt lat="45.39266" lon="2.52633">
        <ele>532.08</ele>
        <time>2022-08-17T11:25:30Z</time>
      </trkpt>
      <trkpt lat="45.39252" lon="2.5254">
        <ele>534.95</ele>
        <time>2022-08-17T11:25:35Z</time>
      </trkpt>
      <trkpt lat="45.39247" lon="2.52524">
        <ele>534.93</ele>
        <time>2022-08-17T11:25:36Z</time>
      </trkpt>
      <trkpt lat="45.3924" lon="2.52511">
        <ele>537.19</ele>
        <time>2022-08-17T11:25:37Z</time>
      </trkpt>
      <trkpt lat="45.39231" lon="2.52499">
        <ele>538.17</ele>
        <time>2022-08-17T11:25:38Z</time>
      </trkpt>
      <trkpt lat="45.3922" lon="2.52488">
        <ele>538.17</ele>
        <time>2022-08-17T11:25:39Z</time>
      </trkpt>
      <trkpt lat="45.39208" lon="2.52479">
        <ele>538.16</ele>
        <time>2022-08-17T11:25:40Z</time>
      </trkpt>
      <trkpt lat="45.39195" lon="2.5247">
        <ele>539.2</ele>
        <time>2022-08-17T11:25:41Z</time>
      </trkpt>
      <trkpt lat="45.39157" lon="2.52443">
        <ele>541.06</ele>
        <time>2022-08-17T11:25:44Z</time>
      </trkpt>
      <trkpt lat="45.39146" lon="2.52434">
        <ele>542.4</ele>
        <time>2022-08-17T11:25:45Z</time>
      </trkpt>
      <trkpt lat="45.39138" lon="2.52422">
        <ele>542.45</ele>
        <time>2022-08-17T11:25:46Z</time>
      </trkpt>
      <trkpt lat="45.39133" lon="2.52407">
        <ele>543.35</ele>
        <time>2022-08-17T11:25:47Z</time>
      </trkpt>
      <trkpt lat="45.39131" lon="2.5239">
        <ele>543.32</ele>
        <time>2022-08-17T11:25:48Z</time>
      </trkpt>
      <trkpt lat="45.39128" lon="2.52372">
        <ele>544.17</ele>
        <time>2022-08-17T11:25:49Z</time>
      </trkpt>
      <trkpt lat="45.39114" lon="2.52293">
        <ele>545.91</ele>
        <time>2022-08-17T11:25:53Z</time>
      </trkpt>
      <trkpt lat="45.39073" lon="2.52159">
        <ele>549.05</ele>
        <time>2022-08-17T11:26:00Z</time>
      </trkpt>
      <trkpt lat="45.39024" lon="2.52032">
        <ele>552.18</ele>
        <time>2022-08-17T11:26:07Z</time>
      </trkpt>
      <trkpt lat="45.39015" lon="2.52015">
        <ele>553.19</ele>
        <time>2022-08-17T11:26:08Z</time>
      </trkpt>
      <trkpt lat="45.39004" lon="2.52">
        <ele>553.23</ele>
        <time>2022-08-17T11:26:09Z</time>
      </trkpt>
      <trkpt lat="45.38993" lon="2.51987">
        <ele>553.22</ele>
        <time>2022-08-17T11:26:10Z</time>
      </trkpt>
      <trkpt lat="45.3898" lon="2.51976">
        <ele>553.2</ele>
        <time>2022-08-17T11:26:11Z</time>
      </trkpt>
      <trkpt lat="45.38966" lon="2.51967">
        <ele>553.24</ele>
        <time>2022-08-17T11:26:12Z</time>
      </trkpt>
      <trkpt lat="45.38939" lon="2.51948">
        <ele>554.53</ele>
        <time>2022-08-17T11:26:14Z</time>
      </trkpt>
      <trkpt lat="45.38912" lon="2.51925">
        <ele>554.12</ele>
        <time>2022-08-17T11:26:16Z</time>
      </trkpt>
      <trkpt lat="45.389" lon="2.5191">
        <ele>554.11</ele>
        <time>2022-08-17T11:26:17Z</time>
      </trkpt>
      <trkpt lat="45.3889" lon="2.51894">
        <ele>554.14</ele>
        <time>2022-08-17T11:26:18Z</time>
      </trkpt>
      <trkpt lat="45.3888" lon="2.51876">
        <ele>554.13</ele>
        <time>2022-08-17T11:26:19Z</time>
      </trkpt>
      <trkpt lat="45.38871" lon="2.51858">
        <ele>554.16</ele>
        <time>2022-08-17T11:26:20Z</time>
      </trkpt>
      <trkpt lat="45.38863" lon="2.51839">
        <ele>554.15</ele>
        <time>2022-08-17T11:26:21Z</time>
      </trkpt>
      <trkpt lat="45.38834" lon="2.51764">
        <ele>550.96</ele>
        <time>2022-08-17T11:26:25Z</time>
      </trkpt>
      <trkpt lat="45.38828" lon="2.51747">
        <ele>550.92</ele>
        <time>2022-08-17T11:26:26Z</time>
      </trkpt>
      <trkpt lat="45.38823" lon="2.51729">
        <ele>549.5</ele>
        <time>2022-08-17T11:26:27Z</time>
      </trkpt>
      <trkpt lat="45.38819" lon="2.5171">
        <ele>549.45</ele>
        <time>2022-08-17T11:26:28Z</time>
      </trkpt>
      <trkpt lat="45.38819" lon="2.51688">
        <ele>548.52</ele>
        <time>2022-08-17T11:26:29Z</time>
      </trkpt>
      <trkpt lat="45.38817" lon="2.51621">
        <ele>546.88</ele>
        <time>2022-08-17T11:26:32Z</time>
      </trkpt>
      <trkpt lat="45.38813" lon="2.51599">
        <ele>546.04</ele>
        <time>2022-08-17T11:26:33Z</time>
      </trkpt>
      <trkpt lat="45.38807" lon="2.51578">
        <ele>545.08</ele>
        <time>2022-08-17T11:26:34Z</time>
      </trkpt>
      <trkpt lat="45.38798" lon="2.51558">
        <ele>545.07</ele>
        <time>2022-08-17T11:26:35Z</time>
      </trkpt>
      <trkpt lat="45.38787" lon="2.51541">
        <ele>545.06</ele>
        <time>2022-08-17T11:26:36Z</time>
      </trkpt>
      <trkpt lat="45.38776" lon="2.51524">
        <ele>544.2</ele>
        <time>2022-08-17T11:26:37Z</time>
      </trkpt>
      <trkpt lat="45.38741" lon="2.51463">
        <ele>541.49</ele>
        <time>2022-08-17T11:26:41Z</time>
      </trkpt>
      <trkpt lat="45.38734" lon="2.51447">
        <ele>541.03</ele>
        <time>2022-08-17T11:26:42Z</time>
      </trkpt>
      <trkpt lat="45.38729" lon="2.51431">
        <ele>540.98</ele>
        <time>2022-08-17T11:26:43Z</time>
      </trkpt>
      <trkpt lat="45.38703" lon="2.51344">
        <ele>537.5</ele>
        <time>2022-08-17T11:26:48Z</time>
      </trkpt>
      <trkpt lat="45.38698" lon="2.51329">
        <ele>537.5</ele>
        <time>2022-08-17T11:26:49Z</time>
      </trkpt>
      <trkpt lat="45.3869" lon="2.51296">
        <ele>536.48</ele>
        <time>2022-08-17T11:26:51Z</time>
      </trkpt>
      <trkpt lat="45.3869" lon="2.51278">
        <ele>534.97</ele>
        <time>2022-08-17T11:26:52Z</time>
      </trkpt>
      <trkpt lat="45.38691" lon="2.51259">
        <ele>534.04</ele>
        <time>2022-08-17T11:26:53Z</time>
      </trkpt>
      <trkpt lat="45.38692" lon="2.5124">
        <ele>533.97</ele>
        <time>2022-08-17T11:26:54Z</time>
      </trkpt>
      <trkpt lat="45.38698" lon="2.51202">
        <ele>532.96</ele>
        <time>2022-08-17T11:26:56Z</time>
      </trkpt>
      <trkpt lat="45.38704" lon="2.51184">
        <ele>532.95</ele>
        <time>2022-08-17T11:26:57Z</time>
      </trkpt>
      <trkpt lat="45.38712" lon="2.51166">
        <ele>531.19</ele>
        <time>2022-08-17T11:26:58Z</time>
      </trkpt>
      <trkpt lat="45.38722" lon="2.5115">
        <ele>530.06</ele>
        <time>2022-08-17T11:26:59Z</time>
      </trkpt>
      <trkpt lat="45.38732" lon="2.51136">
        <ele>529.99</ele>
        <time>2022-08-17T11:27:00Z</time>
      </trkpt>
      <trkpt lat="45.38744" lon="2.51123">
        <ele>528.89</ele>
        <time>2022-08-17T11:27:01Z</time>
      </trkpt>
      <trkpt lat="45.38758" lon="2.51111">
        <ele>527.94</ele>
        <time>2022-08-17T11:27:02Z</time>
      </trkpt>
      <trkpt lat="45.38771" lon="2.51098">
        <ele>527.94</ele>
        <time>2022-08-17T11:27:03Z</time>
      </trkpt>
      <trkpt lat="45.38795" lon="2.51074">
        <ele>526.13</ele>
        <time>2022-08-17T11:27:05Z</time>
      </trkpt>
      <trkpt lat="45.3883" lon="2.51039">
        <ele>523.6</ele>
        <time>2022-08-17T11:27:08Z</time>
      </trkpt>
      <trkpt lat="45.38856" lon="2.51018">
        <ele>521.37</ele>
        <time>2022-08-17T11:27:10Z</time>
      </trkpt>
      <trkpt lat="45.3887" lon="2.51013">
        <ele>520.48</ele>
        <time>2022-08-17T11:27:11Z</time>
      </trkpt>
      <trkpt lat="45.38884" lon="2.51009">
        <ele>520.47</ele>
        <time>2022-08-17T11:27:12Z</time>
      </trkpt>
      <trkpt lat="45.38946" lon="2.50991">
        <ele>518.02</ele>
        <time>2022-08-17T11:27:16Z</time>
      </trkpt>
      <trkpt lat="45.38962" lon="2.50985">
        <ele>516.37</ele>
        <time>2022-08-17T11:27:17Z</time>
      </trkpt>
      <trkpt lat="45.38976" lon="2.50976">
        <ele>515.34</ele>
        <time>2022-08-17T11:27:18Z</time>
      </trkpt>
      <trkpt lat="45.38988" lon="2.50961">
        <ele>515.34</ele>
        <time>2022-08-17T11:27:19Z</time>
      </trkpt>
      <trkpt lat="45.38999" lon="2.50944">
        <ele>514.2</ele>
        <time>2022-08-17T11:27:20Z</time>
      </trkpt>
      <trkpt lat="45.39007" lon="2.50924">
        <ele>513.27</ele>
        <time>2022-08-17T11:27:21Z</time>
      </trkpt>
      <trkpt lat="45.39015" lon="2.50904">
        <ele>513.3</ele>
        <time>2022-08-17T11:27:22Z</time>
      </trkpt>
      <trkpt lat="45.3904" lon="2.5085">
        <ele>510.99</ele>
        <time>2022-08-17T11:27:25Z</time>
      </trkpt>
      <trkpt lat="45.39051" lon="2.50836">
        <ele>509.39</ele>
        <time>2022-08-17T11:27:26Z</time>
      </trkpt>
      <trkpt lat="45.39063" lon="2.50827">
        <ele>507.53</ele>
        <time>2022-08-17T11:27:27Z</time>
      </trkpt>
      <trkpt lat="45.39076" lon="2.50824">
        <ele>506.37</ele>
        <time>2022-08-17T11:27:28Z</time>
      </trkpt>
      <trkpt lat="45.3909" lon="2.50827">
        <ele>505.27</ele>
        <time>2022-08-17T11:27:29Z</time>
      </trkpt>
      <trkpt lat="45.39104" lon="2.50834">
        <ele>503.8</ele>
        <time>2022-08-17T11:27:30Z</time>
      </trkpt>
      <trkpt lat="45.39119" lon="2.50841">
        <ele>503.08</ele>
        <time>2022-08-17T11:27:31Z</time>
      </trkpt>
      <trkpt lat="45.39133" lon="2.50847">
        <ele>503.08</ele>
        <time>2022-08-17T11:27:32Z</time>
      </trkpt>
      <trkpt lat="45.39148" lon="2.50851">
        <ele>501.81</ele>
        <time>2022-08-17T11:27:33Z</time>
      </trkpt>
      <trkpt lat="45.39164" lon="2.50851">
        <ele>501.81</ele>
        <time>2022-08-17T11:27:34Z</time>
      </trkpt>
      <trkpt lat="45.3918" lon="2.50848">
        <ele>500.86</ele>
        <time>2022-08-17T11:27:35Z</time>
      </trkpt>
      <trkpt lat="45.39195" lon="2.50841">
        <ele>500.09</ele>
        <time>2022-08-17T11:27:36Z</time>
      </trkpt>
      <trkpt lat="45.39209" lon="2.50831">
        <ele>499.25</ele>
        <time>2022-08-17T11:27:37Z</time>
      </trkpt>
      <trkpt lat="45.39222" lon="2.5082">
        <ele>499.16</ele>
        <time>2022-08-17T11:27:38Z</time>
      </trkpt>
      <trkpt lat="45.3925" lon="2.50801">
        <ele>497.16</ele>
        <time>2022-08-17T11:27:40Z</time>
      </trkpt>
      <trkpt lat="45.3928" lon="2.50787">
        <ele>496.05</ele>
        <time>2022-08-17T11:27:42Z</time>
      </trkpt>
      <trkpt lat="45.39308" lon="2.5077">
        <ele>494.14</ele>
        <time>2022-08-17T11:27:44Z</time>
      </trkpt>
      <trkpt lat="45.39335" lon="2.50752">
        <ele>490.94</ele>
        <time>2022-08-17T11:27:46Z</time>
      </trkpt>
      <trkpt lat="45.39348" lon="2.50744">
        <ele>490.96</ele>
        <time>2022-08-17T11:27:47Z</time>
      </trkpt>
      <trkpt lat="45.39373" lon="2.5073">
        <ele>487.76</ele>
        <time>2022-08-17T11:27:49Z</time>
      </trkpt>
      <trkpt lat="45.39398" lon="2.50717">
        <ele>485.9</ele>
        <time>2022-08-17T11:27:51Z</time>
      </trkpt>
      <trkpt lat="45.39409" lon="2.50707">
        <ele>484.8</ele>
        <time>2022-08-17T11:27:52Z</time>
      </trkpt>
      <trkpt lat="45.39418" lon="2.50691">
        <ele>484.71</ele>
        <time>2022-08-17T11:27:53Z</time>
      </trkpt>
      <trkpt lat="45.39426" lon="2.50672">
        <ele>484.71</ele>
        <time>2022-08-17T11:27:54Z</time>
      </trkpt>
      <trkpt lat="45.39432" lon="2.50651">
        <ele>482.97</ele>
        <time>2022-08-17T11:27:55Z</time>
      </trkpt>
      <trkpt lat="45.39438" lon="2.50631">
        <ele>482.86</ele>
        <time>2022-08-17T11:27:56Z</time>
      </trkpt>
      <trkpt lat="45.39455" lon="2.50575">
        <ele>479.41</ele>
        <time>2022-08-17T11:27:59Z</time>
      </trkpt>
      <trkpt lat="45.39463" lon="2.5056">
        <ele>478.17</ele>
        <time>2022-08-17T11:28:00Z</time>
      </trkpt>
      <trkpt lat="45.39473" lon="2.50548">
        <ele>476.92</ele>
        <time>2022-08-17T11:28:01Z</time>
      </trkpt>
      <trkpt lat="45.39494" lon="2.50529">
        <ele>475.5</ele>
        <time>2022-08-17T11:28:03Z</time>
      </trkpt>
      <trkpt lat="45.39516" lon="2.50509">
        <ele>474.26</ele>
        <time>2022-08-17T11:28:05Z</time>
      </trkpt>
      <trkpt lat="45.39546" lon="2.50477">
        <ele>471.44</ele>
        <time>2022-08-17T11:28:08Z</time>
      </trkpt>
      <trkpt lat="45.39554" lon="2.50464">
        <ele>470.1</ele>
        <time>2022-08-17T11:28:09Z</time>
      </trkpt>
      <trkpt lat="45.39558" lon="2.5045">
        <ele>469.35</ele>
        <time>2022-08-17T11:28:10Z</time>
      </trkpt>
      <trkpt lat="45.39561" lon="2.50435">
        <ele>469.25</ele>
        <time>2022-08-17T11:28:11Z</time>
      </trkpt>
      <trkpt lat="45.39564" lon="2.50419">
        <ele>469.26</ele>
        <time>2022-08-17T11:28:12Z</time>
      </trkpt>
      <trkpt lat="45.39569" lon="2.50403">
        <ele>469.22</ele>
        <time>2022-08-17T11:28:13Z</time>
      </trkpt>
      <trkpt lat="45.39574" lon="2.50387">
        <ele>468.28</ele>
        <time>2022-08-17T11:28:14Z</time>
      </trkpt>
      <trkpt lat="45.39585" lon="2.50357">
        <ele>467.3</ele>
        <time>2022-08-17T11:28:16Z</time>
      </trkpt>
      <trkpt lat="45.39591" lon="2.50344">
        <ele>467.46</ele>
        <time>2022-08-17T11:28:17Z</time>
      </trkpt>
      <trkpt lat="45.39599" lon="2.5033">
        <ele>467.43</ele>
        <time>2022-08-17T11:28:18Z</time>
      </trkpt>
      <trkpt lat="45.39638" lon="2.5026">
        <ele>463.91</ele>
        <time>2022-08-17T11:28:23Z</time>
      </trkpt>
      <trkpt lat="45.39646" lon="2.50246">
        <ele>463.92</ele>
        <time>2022-08-17T11:28:24Z</time>
      </trkpt>
      <trkpt lat="45.39658" lon="2.50219">
        <ele>462.28</ele>
        <time>2022-08-17T11:28:26Z</time>
      </trkpt>
      <trkpt lat="45.39663" lon="2.50206">
        <ele>461.24</ele>
        <time>2022-08-17T11:28:27Z</time>
      </trkpt>
      <trkpt lat="45.39667" lon="2.50192">
        <ele>460.37</ele>
        <time>2022-08-17T11:28:28Z</time>
      </trkpt>
      <trkpt lat="45.39671" lon="2.50177">
        <ele>460.31</ele>
        <time>2022-08-17T11:28:29Z</time>
      </trkpt>
      <trkpt lat="45.39682" lon="2.50128">
        <ele>457.83</ele>
        <time>2022-08-17T11:28:32Z</time>
      </trkpt>
      <trkpt lat="45.39693" lon="2.50083">
        <ele>455.28</ele>
        <time>2022-08-17T11:28:35Z</time>
      </trkpt>
      <trkpt lat="45.39704" lon="2.5004">
        <ele>452.18</ele>
        <time>2022-08-17T11:28:38Z</time>
      </trkpt>
      <trkpt lat="45.39713" lon="2.50013">
        <ele>450.93</ele>
        <time>2022-08-17T11:28:40Z</time>
      </trkpt>
      <trkpt lat="45.39718" lon="2.50001">
        <ele>449.36</ele>
        <time>2022-08-17T11:28:41Z</time>
      </trkpt>
      <trkpt lat="45.39725" lon="2.49991">
        <ele>448.35</ele>
        <time>2022-08-17T11:28:42Z</time>
      </trkpt>
      <trkpt lat="45.39733" lon="2.49982">
        <ele>447.44</ele>
        <time>2022-08-17T11:28:43Z</time>
      </trkpt>
      <trkpt lat="45.3974" lon="2.49974">
        <ele>447.39</ele>
        <time>2022-08-17T11:28:44Z</time>
      </trkpt>
      <trkpt lat="45.39748" lon="2.49967">
        <ele>447.36</ele>
        <time>2022-08-17T11:28:45Z</time>
      </trkpt>
      <trkpt lat="45.39769" lon="2.4995">
        <ele>445.96</ele>
        <time>2022-08-17T11:28:48Z</time>
      </trkpt>
      <trkpt lat="45.39779" lon="2.49949">
        <ele>445.97</ele>
        <time>2022-08-17T11:28:49Z</time>
      </trkpt>
      <trkpt lat="45.3979" lon="2.49951">
        <ele>445.97</ele>
        <time>2022-08-17T11:28:50Z</time>
      </trkpt>
      <trkpt lat="45.39811" lon="2.49958">
        <ele>444.74</ele>
        <time>2022-08-17T11:28:52Z</time>
      </trkpt>
      <trkpt lat="45.3982" lon="2.4996">
        <ele>443.08</ele>
        <time>2022-08-17T11:28:53Z</time>
      </trkpt>
      <trkpt lat="45.3983" lon="2.49961">
        <ele>442.25</ele>
        <time>2022-08-17T11:28:54Z</time>
      </trkpt>
      <trkpt lat="45.3984" lon="2.4996">
        <ele>442.19</ele>
        <time>2022-08-17T11:28:55Z</time>
      </trkpt>
      <trkpt lat="45.39849" lon="2.49959">
        <ele>441.02</ele>
        <time>2022-08-17T11:28:56Z</time>
      </trkpt>
      <trkpt lat="45.39858" lon="2.49958">
        <ele>440.91</ele>
        <time>2022-08-17T11:28:57Z</time>
      </trkpt>
      <trkpt lat="45.39891" lon="2.49951">
        <ele>437.47</ele>
        <time>2022-08-17T11:29:01Z</time>
      </trkpt>
      <trkpt lat="45.39899" lon="2.49949">
        <ele>437.43</ele>
        <time>2022-08-17T11:29:02Z</time>
      </trkpt>
      <trkpt lat="45.39922" lon="2.49939">
        <ele>435.23</ele>
        <time>2022-08-17T11:29:05Z</time>
      </trkpt>
      <trkpt lat="45.39933" lon="2.49932">
        <ele>434.05</ele>
        <time>2022-08-17T11:29:07Z</time>
      </trkpt>
      <trkpt lat="45.39936" lon="2.49933">
        <ele>433.06</ele>
        <time>2022-08-17T11:29:08Z</time>
      </trkpt>
      <trkpt lat="45.39938" lon="2.49933">
        <ele>433.6</ele>
        <time>2022-08-17T11:29:09Z</time>
      </trkpt>
      <trkpt lat="45.39941" lon="2.49933">
        <ele>432.38</ele>
        <time>2022-08-17T11:29:14Z</time>
      </trkpt>
      <trkpt lat="45.39944" lon="2.49935">
        <ele>432.34</ele>
        <time>2022-08-17T11:29:15Z</time>
      </trkpt>
      <trkpt lat="45.39948" lon="2.49937">
        <ele>432.37</ele>
        <time>2022-08-17T11:29:16Z</time>
      </trkpt>
      <trkpt lat="45.39962" lon="2.49945">
        <ele>432.31</ele>
        <time>2022-08-17T11:29:19Z</time>
      </trkpt>
      <trkpt lat="45.39966" lon="2.49947">
        <ele>432.32</ele>
        <time>2022-08-17T11:29:20Z</time>
      </trkpt>
      <trkpt lat="45.39971" lon="2.49949">
        <ele>432.33</ele>
        <time>2022-08-17T11:29:21Z</time>
      </trkpt>
      <trkpt lat="45.39976" lon="2.49951">
        <ele>432.33</ele>
        <time>2022-08-17T11:29:22Z</time>
      </trkpt>
      <trkpt lat="45.39981" lon="2.49954">
        <ele>432.33</ele>
        <time>2022-08-17T11:29:23Z</time>
      </trkpt>
      <trkpt lat="45.39986" lon="2.49956">
        <ele>432.33</ele>
        <time>2022-08-17T11:29:24Z</time>
      </trkpt>
      <trkpt lat="45.39991" lon="2.49958">
        <ele>432.32</ele>
        <time>2022-08-17T11:29:25Z</time>
      </trkpt>
      <trkpt lat="45.40035" lon="2.49976">
        <ele>432.24</ele>
        <time>2022-08-17T11:29:34Z</time>
      </trkpt>
      <trkpt lat="45.40037" lon="2.49974">
        <ele>432.24</ele>
        <time>2022-08-17T11:29:36Z</time>
      </trkpt>
      <trkpt lat="45.40037" lon="2.49971">
        <ele>432.23</ele>
        <time>2022-08-17T11:29:37Z</time>
      </trkpt>
      <trkpt lat="45.40038" lon="2.49965">
        <ele>432.22</ele>
        <time>2022-08-17T11:29:38Z</time>
      </trkpt>
      <trkpt lat="45.40071" lon="2.49888">
        <ele>432.12</ele>
        <time>2022-08-17T11:29:47Z</time>
      </trkpt>
      <trkpt lat="45.40078" lon="2.49873">
        <ele>432.08</ele>
        <time>2022-08-17T11:29:50Z</time>
      </trkpt>
      <trkpt lat="45.40077" lon="2.49868">
        <ele>432.07</ele>
        <time>2022-08-17T11:29:51Z</time>
      </trkpt>
      <trkpt lat="45.40075" lon="2.49863">
        <ele>432.05</ele>
        <time>2022-08-17T11:29:52Z</time>
      </trkpt>
      <trkpt lat="45.40069" lon="2.49825">
        <ele>432.03</ele>
        <time>2022-08-17T11:30:01Z</time>
      </trkpt>
      <trkpt lat="45.4007" lon="2.49802">
        <ele>431.98</ele>
        <time>2022-08-17T11:30:09Z</time>
      </trkpt>
      <trkpt lat="45.4007" lon="2.49802">
        <ele>434.17</ele>
        <time>2022-08-17T11:30:11Z</time>
      </trkpt>
      <trkpt lat="45.40075" lon="2.49802">
        <ele>433.91</ele>
        <time>2022-08-17T11:30:36Z</time>
      </trkpt>
      <trkpt lat="45.4008" lon="2.49802">
        <ele>433.71</ele>
        <time>2022-08-17T11:31:02Z</time>
      </trkpt>
      <trkpt lat="45.40079" lon="2.49801">
        <ele>433.56</ele>
        <time>2022-08-17T11:31:26Z</time>
      </trkpt>
      <trkpt lat="45.40076" lon="2.49789">
        <ele>434.37</ele>
        <time>2022-08-17T11:31:50Z</time>
      </trkpt>
      <trkpt lat="45.40074" lon="2.49793">
        <ele>434.44</ele>
        <time>2022-08-17T11:32:21Z</time>
      </trkpt>
      <trkpt lat="45.40075" lon="2.49827">
        <ele>431.63</ele>
        <time>2022-08-17T11:32:27Z</time>
      </trkpt>
      <trkpt lat="45.40076" lon="2.49842">
        <ele>431.6</ele>
        <time>2022-08-17T11:32:30Z</time>
      </trkpt>
      <trkpt lat="45.40078" lon="2.49847">
        <ele>431.62</ele>
        <time>2022-08-17T11:32:31Z</time>
      </trkpt>
      <trkpt lat="45.40083" lon="2.49851">
        <ele>431.62</ele>
        <time>2022-08-17T11:32:32Z</time>
      </trkpt>
      <trkpt lat="45.40088" lon="2.49855">
        <ele>431.62</ele>
        <time>2022-08-17T11:32:33Z</time>
      </trkpt>
      <trkpt lat="45.40093" lon="2.49857">
        <ele>431.63</ele>
        <time>2022-08-17T11:32:34Z</time>
      </trkpt>
      <trkpt lat="45.40098" lon="2.49859">
        <ele>431.62</ele>
        <time>2022-08-17T11:32:35Z</time>
      </trkpt>
      <trkpt lat="45.40104" lon="2.49861">
        <ele>431.73</ele>
        <time>2022-08-17T11:32:36Z</time>
      </trkpt>
      <trkpt lat="45.4011" lon="2.49862">
        <ele>431.73</ele>
        <time>2022-08-17T11:32:37Z</time>
      </trkpt>
      <trkpt lat="45.40116" lon="2.49864">
        <ele>431.72</ele>
        <time>2022-08-17T11:32:38Z</time>
      </trkpt>
      <trkpt lat="45.40121" lon="2.49866">
        <ele>431.73</ele>
        <time>2022-08-17T11:32:39Z</time>
      </trkpt>
      <trkpt lat="45.40146" lon="2.49872">
        <ele>431.76</ele>
        <time>2022-08-17T11:32:43Z</time>
      </trkpt>
      <trkpt lat="45.40181" lon="2.49878">
        <ele>431.8</ele>
        <time>2022-08-17T11:32:48Z</time>
      </trkpt>
      <trkpt lat="45.40215" lon="2.49887">
        <ele>431.83</ele>
        <time>2022-08-17T11:32:52Z</time>
      </trkpt>
      <trkpt lat="45.40232" lon="2.49891">
        <ele>431.83</ele>
        <time>2022-08-17T11:32:54Z</time>
      </trkpt>
      <trkpt lat="45.40342" lon="2.49923">
        <ele>431.88</ele>
        <time>2022-08-17T11:33:06Z</time>
      </trkpt>
      <trkpt lat="45.40348" lon="2.49926">
        <ele>431.81</ele>
        <time>2022-08-17T11:33:07Z</time>
      </trkpt>
      <trkpt lat="45.40353" lon="2.49929">
        <ele>431.81</ele>
        <time>2022-08-17T11:33:08Z</time>
      </trkpt>
      <trkpt lat="45.40357" lon="2.49934">
        <ele>431.81</ele>
        <time>2022-08-17T11:33:09Z</time>
      </trkpt>
      <trkpt lat="45.40359" lon="2.4994">
        <ele>431.81</ele>
        <time>2022-08-17T11:33:10Z</time>
      </trkpt>
      <trkpt lat="45.40358" lon="2.49947">
        <ele>431.81</ele>
        <time>2022-08-17T11:33:11Z</time>
      </trkpt>
      <trkpt lat="45.40358" lon="2.49954">
        <ele>431.81</ele>
        <time>2022-08-17T11:33:12Z</time>
      </trkpt>
      <trkpt lat="45.40357" lon="2.49969">
        <ele>431.81</ele>
        <time>2022-08-17T11:33:14Z</time>
      </trkpt>
      <trkpt lat="45.40369" lon="2.49994">
        <ele>431.77</ele>
        <time>2022-08-17T11:33:18Z</time>
      </trkpt>
      <trkpt lat="45.40386" lon="2.50007">
        <ele>431.79</ele>
        <time>2022-08-17T11:33:21Z</time>
      </trkpt>
      <trkpt lat="45.40413" lon="2.50017">
        <ele>431.88</ele>
        <time>2022-08-17T11:33:27Z</time>
      </trkpt>
      <trkpt lat="45.40421" lon="2.50022">
        <ele>431.86</ele>
        <time>2022-08-17T11:33:35Z</time>
      </trkpt>
      <trkpt lat="45.40421" lon="2.50022">
        <ele>425.63</ele>
        <time>2022-08-17T11:33:46Z</time>
      </trkpt>
      <trkpt lat="45.40327" lon="2.50004">
        <ele>431.82</ele>
        <time>2022-08-17T11:47:16Z</time>
      </trkpt>
      <trkpt lat="45.40342" lon="2.5003">
        <ele>431.93</ele>
        <time>2022-08-17T11:47:43Z</time>
      </trkpt>
      <trkpt lat="45.40356" lon="2.49983">
        <ele>433.87</ele>
        <time>2022-08-17T11:51:01Z</time>
      </trkpt>
      <trkpt lat="45.40359" lon="2.49949">
        <ele>434.69</ele>
        <time>2022-08-17T11:51:07Z</time>
      </trkpt>
      <trkpt lat="45.40359" lon="2.4994">
        <ele>434.74</ele>
        <time>2022-08-17T11:51:08Z</time>
      </trkpt>
      <trkpt lat="45.40362" lon="2.49929">
        <ele>434.86</ele>
        <time>2022-08-17T11:51:10Z</time>
      </trkpt>
      <trkpt lat="45.40365" lon="2.49927">
        <ele>434.93</ele>
        <time>2022-08-17T11:51:11Z</time>
      </trkpt>
      <trkpt lat="45.4037" lon="2.49927">
        <ele>435</ele>
        <time>2022-08-17T11:51:12Z</time>
      </trkpt>
      <trkpt lat="45.40376" lon="2.4993">
        <ele>435.07</ele>
        <time>2022-08-17T11:51:13Z</time>
      </trkpt>
      <trkpt lat="45.40457" lon="2.49952">
        <ele>439.16</ele>
        <time>2022-08-17T11:51:22Z</time>
      </trkpt>
      <trkpt lat="45.40465" lon="2.49957">
        <ele>439.16</ele>
        <time>2022-08-17T11:51:23Z</time>
      </trkpt>
      <trkpt lat="45.40592" lon="2.49989">
        <ele>441.23</ele>
        <time>2022-08-17T11:51:34Z</time>
      </trkpt>
      <trkpt lat="45.40643" lon="2.49998">
        <ele>441.15</ele>
        <time>2022-08-17T11:51:40Z</time>
      </trkpt>
      <trkpt lat="45.40646" lon="2.49996">
        <ele>441.22</ele>
        <time>2022-08-17T11:51:41Z</time>
      </trkpt>
      <trkpt lat="45.40647" lon="2.49991">
        <ele>441.22</ele>
        <time>2022-08-17T11:51:42Z</time>
      </trkpt>
      <trkpt lat="45.40645" lon="2.49987">
        <ele>441.25</ele>
        <time>2022-08-17T11:51:43Z</time>
      </trkpt>
      <trkpt lat="45.4064" lon="2.49987">
        <ele>441.26</ele>
        <time>2022-08-17T11:51:44Z</time>
      </trkpt>
      <trkpt lat="45.40636" lon="2.4999">
        <ele>441.29</ele>
        <time>2022-08-17T11:51:45Z</time>
      </trkpt>
      <trkpt lat="45.40631" lon="2.49993">
        <ele>441.27</ele>
        <time>2022-08-17T11:51:46Z</time>
      </trkpt>
      <trkpt lat="45.40624" lon="2.49994">
        <ele>441.27</ele>
        <time>2022-08-17T11:51:47Z</time>
      </trkpt>
      <trkpt lat="45.40615" lon="2.49993">
        <ele>441.14</ele>
        <time>2022-08-17T11:51:48Z</time>
      </trkpt>
      <trkpt lat="45.40606" lon="2.49991">
        <ele>441.15</ele>
        <time>2022-08-17T11:51:49Z</time>
      </trkpt>
      <trkpt lat="45.40501" lon="2.49962">
        <ele>442.79</ele>
        <time>2022-08-17T11:51:59Z</time>
      </trkpt>
      <trkpt lat="45.40428" lon="2.49945">
        <ele>439.68</ele>
        <time>2022-08-17T11:52:06Z</time>
      </trkpt>
      <trkpt lat="45.40418" lon="2.49942">
        <ele>439.66</ele>
        <time>2022-08-17T11:52:07Z</time>
      </trkpt>
      <trkpt lat="45.40266" lon="2.49902">
        <ele>438.63</ele>
        <time>2022-08-17T11:52:23Z</time>
      </trkpt>
      <trkpt lat="45.40174" lon="2.49881">
        <ele>437.75</ele>
        <time>2022-08-17T11:52:33Z</time>
      </trkpt>
      <trkpt lat="45.40092" lon="2.49865">
        <ele>437.77</ele>
        <time>2022-08-17T11:52:43Z</time>
      </trkpt>
      <trkpt lat="45.40076" lon="2.49863">
        <ele>435.84</ele>
        <time>2022-08-17T11:52:46Z</time>
      </trkpt>
      <trkpt lat="45.40072" lon="2.49865">
        <ele>435.84</ele>
        <time>2022-08-17T11:52:47Z</time>
      </trkpt>
      <trkpt lat="45.40067" lon="2.4987">
        <ele>435.83</ele>
        <time>2022-08-17T11:52:48Z</time>
      </trkpt>
      <trkpt lat="45.40064" lon="2.49876">
        <ele>435.83</ele>
        <time>2022-08-17T11:52:49Z</time>
      </trkpt>
      <trkpt lat="45.4006" lon="2.49884">
        <ele>435.83</ele>
        <time>2022-08-17T11:52:50Z</time>
      </trkpt>
      <trkpt lat="45.40057" lon="2.49893">
        <ele>435.84</ele>
        <time>2022-08-17T11:52:51Z</time>
      </trkpt>
      <trkpt lat="45.40053" lon="2.49902">
        <ele>435.84</ele>
        <time>2022-08-17T11:52:52Z</time>
      </trkpt>
      <trkpt lat="45.40032" lon="2.49957">
        <ele>435.8</ele>
        <time>2022-08-17T11:52:58Z</time>
      </trkpt>
      <trkpt lat="45.4003" lon="2.49969">
        <ele>435.79</ele>
        <time>2022-08-17T11:53:00Z</time>
      </trkpt>
      <trkpt lat="45.40031" lon="2.49972">
        <ele>435.78</ele>
        <time>2022-08-17T11:53:01Z</time>
      </trkpt>
      <trkpt lat="45.40033" lon="2.49976">
        <ele>435.82</ele>
        <time>2022-08-17T11:53:02Z</time>
      </trkpt>
      <trkpt lat="45.40037" lon="2.49978">
        <ele>435.84</ele>
        <time>2022-08-17T11:53:03Z</time>
      </trkpt>
      <trkpt lat="45.40043" lon="2.49981">
        <ele>435.83</ele>
        <time>2022-08-17T11:53:04Z</time>
      </trkpt>
      <trkpt lat="45.40093" lon="2.5001">
        <ele>438.18</ele>
        <time>2022-08-17T11:53:11Z</time>
      </trkpt>
      <trkpt lat="45.40179" lon="2.50046">
        <ele>439.25</ele>
        <time>2022-08-17T11:53:21Z</time>
      </trkpt>
      <trkpt lat="45.40295" lon="2.50091">
        <ele>439.16</ele>
        <time>2022-08-17T11:53:34Z</time>
      </trkpt>
      <trkpt lat="45.40406" lon="2.50131">
        <ele>440.07</ele>
        <time>2022-08-17T11:53:46Z</time>
      </trkpt>
      <trkpt lat="45.4051" lon="2.50161">
        <ele>441.32</ele>
        <time>2022-08-17T11:53:56Z</time>
      </trkpt>
      <trkpt lat="45.40676" lon="2.50214">
        <ele>443.37</ele>
        <time>2022-08-17T11:54:11Z</time>
      </trkpt>
      <trkpt lat="45.40858" lon="2.50267">
        <ele>445.99</ele>
        <time>2022-08-17T11:54:27Z</time>
      </trkpt>
      <trkpt lat="45.41036" lon="2.5032">
        <ele>445.89</ele>
        <time>2022-08-17T11:54:42Z</time>
      </trkpt>
      <trkpt lat="45.41148" lon="2.50354">
        <ele>448.02</ele>
        <time>2022-08-17T11:54:50Z</time>
      </trkpt>
      <trkpt lat="45.41196" lon="2.50367">
        <ele>451.72</ele>
        <time>2022-08-17T11:54:53Z</time>
      </trkpt>
      <trkpt lat="45.41212" lon="2.50373">
        <ele>452.96</ele>
        <time>2022-08-17T11:54:54Z</time>
      </trkpt>
      <trkpt lat="45.41227" lon="2.50384">
        <ele>453.51</ele>
        <time>2022-08-17T11:54:55Z</time>
      </trkpt>
      <trkpt lat="45.4124" lon="2.50397">
        <ele>454.04</ele>
        <time>2022-08-17T11:54:56Z</time>
      </trkpt>
      <trkpt lat="45.41252" lon="2.50415">
        <ele>456.72</ele>
        <time>2022-08-17T11:54:57Z</time>
      </trkpt>
      <trkpt lat="45.41262" lon="2.50433">
        <ele>458.21</ele>
        <time>2022-08-17T11:54:58Z</time>
      </trkpt>
      <trkpt lat="45.41281" lon="2.50465">
        <ele>461.1</ele>
        <time>2022-08-17T11:55:00Z</time>
      </trkpt>
      <trkpt lat="45.41291" lon="2.50476">
        <ele>462.07</ele>
        <time>2022-08-17T11:55:01Z</time>
      </trkpt>
      <trkpt lat="45.41303" lon="2.50482">
        <ele>462.16</ele>
        <time>2022-08-17T11:55:02Z</time>
      </trkpt>
      <trkpt lat="45.41317" lon="2.50481">
        <ele>463.82</ele>
        <time>2022-08-17T11:55:03Z</time>
      </trkpt>
      <trkpt lat="45.41331" lon="2.50475">
        <ele>465.43</ele>
        <time>2022-08-17T11:55:04Z</time>
      </trkpt>
      <trkpt lat="45.41347" lon="2.50466">
        <ele>467.84</ele>
        <time>2022-08-17T11:55:05Z</time>
      </trkpt>
      <trkpt lat="45.41382" lon="2.50445">
        <ele>471.67</ele>
        <time>2022-08-17T11:55:07Z</time>
      </trkpt>
      <trkpt lat="45.41418" lon="2.50425">
        <ele>473.75</ele>
        <time>2022-08-17T11:55:09Z</time>
      </trkpt>
      <trkpt lat="45.41454" lon="2.50406">
        <ele>477.38</ele>
        <time>2022-08-17T11:55:11Z</time>
      </trkpt>
      <trkpt lat="45.41488" lon="2.50394">
        <ele>482.02</ele>
        <time>2022-08-17T11:55:13Z</time>
      </trkpt>
      <trkpt lat="45.41522" lon="2.50387">
        <ele>485.43</ele>
        <time>2022-08-17T11:55:15Z</time>
      </trkpt>
      <trkpt lat="45.41555" lon="2.50379">
        <ele>489.46</ele>
        <time>2022-08-17T11:55:17Z</time>
      </trkpt>
      <trkpt lat="45.41572" lon="2.50372">
        <ele>491.55</ele>
        <time>2022-08-17T11:55:18Z</time>
      </trkpt>
      <trkpt lat="45.4159" lon="2.50363">
        <ele>494.67</ele>
        <time>2022-08-17T11:55:19Z</time>
      </trkpt>
      <trkpt lat="45.41641" lon="2.50335">
        <ele>499.01</ele>
        <time>2022-08-17T11:55:22Z</time>
      </trkpt>
      <trkpt lat="45.41672" lon="2.50319">
        <ele>502.49</ele>
        <time>2022-08-17T11:55:24Z</time>
      </trkpt>
      <trkpt lat="45.4171" lon="2.50296">
        <ele>505.23</ele>
        <time>2022-08-17T11:55:27Z</time>
      </trkpt>
      <trkpt lat="45.41716" lon="2.50285">
        <ele>505.56</ele>
        <time>2022-08-17T11:55:28Z</time>
      </trkpt>
      <trkpt lat="45.41717" lon="2.50272">
        <ele>506.54</ele>
        <time>2022-08-17T11:55:29Z</time>
      </trkpt>
      <trkpt lat="45.41713" lon="2.5026">
        <ele>507.55</ele>
        <time>2022-08-17T11:55:30Z</time>
      </trkpt>
      <trkpt lat="45.41705" lon="2.50251">
        <ele>507.66</ele>
        <time>2022-08-17T11:55:31Z</time>
      </trkpt>
      <trkpt lat="45.41694" lon="2.50249">
        <ele>509.12</ele>
        <time>2022-08-17T11:55:32Z</time>
      </trkpt>
      <trkpt lat="45.41682" lon="2.50253">
        <ele>510.37</ele>
        <time>2022-08-17T11:55:33Z</time>
      </trkpt>
      <trkpt lat="45.4167" lon="2.50261">
        <ele>511.76</ele>
        <time>2022-08-17T11:55:34Z</time>
      </trkpt>
      <trkpt lat="45.41657" lon="2.50269">
        <ele>511.83</ele>
        <time>2022-08-17T11:55:35Z</time>
      </trkpt>
      <trkpt lat="45.41642" lon="2.50274">
        <ele>513.58</ele>
        <time>2022-08-17T11:55:36Z</time>
      </trkpt>
      <trkpt lat="45.41611" lon="2.50278">
        <ele>515.28</ele>
        <time>2022-08-17T11:55:38Z</time>
      </trkpt>
      <trkpt lat="45.41573" lon="2.5028">
        <ele>516.15</ele>
        <time>2022-08-17T11:55:41Z</time>
      </trkpt>
      <trkpt lat="45.41563" lon="2.50276">
        <ele>516.29</ele>
        <time>2022-08-17T11:55:42Z</time>
      </trkpt>
      <trkpt lat="45.41557" lon="2.50268">
        <ele>517.13</ele>
        <time>2022-08-17T11:55:43Z</time>
      </trkpt>
      <trkpt lat="45.41555" lon="2.50256">
        <ele>516.96</ele>
        <time>2022-08-17T11:55:44Z</time>
      </trkpt>
      <trkpt lat="45.41559" lon="2.50245">
        <ele>516.89</ele>
        <time>2022-08-17T11:55:45Z</time>
      </trkpt>
      <trkpt lat="45.41568" lon="2.50238">
        <ele>516.89</ele>
        <time>2022-08-17T11:55:46Z</time>
      </trkpt>
      <trkpt lat="45.4158" lon="2.50236">
        <ele>518.59</ele>
        <time>2022-08-17T11:55:47Z</time>
      </trkpt>
      <trkpt lat="45.41594" lon="2.50236">
        <ele>519.63</ele>
        <time>2022-08-17T11:55:48Z</time>
      </trkpt>
      <trkpt lat="45.41623" lon="2.50234">
        <ele>521.9</ele>
        <time>2022-08-17T11:55:50Z</time>
      </trkpt>
      <trkpt lat="45.41638" lon="2.50229">
        <ele>521.94</ele>
        <time>2022-08-17T11:55:51Z</time>
      </trkpt>
      <trkpt lat="45.41652" lon="2.50221">
        <ele>523.53</ele>
        <time>2022-08-17T11:55:52Z</time>
      </trkpt>
      <trkpt lat="45.41666" lon="2.50212">
        <ele>523.54</ele>
        <time>2022-08-17T11:55:53Z</time>
      </trkpt>
      <trkpt lat="45.41694" lon="2.50197">
        <ele>526.56</ele>
        <time>2022-08-17T11:55:55Z</time>
      </trkpt>
      <trkpt lat="45.41707" lon="2.50191">
        <ele>526.84</ele>
        <time>2022-08-17T11:55:56Z</time>
      </trkpt>
      <trkpt lat="45.4175" lon="2.50178">
        <ele>530.68</ele>
        <time>2022-08-17T11:55:59Z</time>
      </trkpt>
      <trkpt lat="45.41764" lon="2.50171">
        <ele>532</ele>
        <time>2022-08-17T11:56:00Z</time>
      </trkpt>
      <trkpt lat="45.41776" lon="2.50161">
        <ele>531.91</ele>
        <time>2022-08-17T11:56:01Z</time>
      </trkpt>
      <trkpt lat="45.41789" lon="2.5015">
        <ele>534.25</ele>
        <time>2022-08-17T11:56:02Z</time>
      </trkpt>
      <trkpt lat="45.41826" lon="2.50116">
        <ele>537.64</ele>
        <time>2022-08-17T11:56:05Z</time>
      </trkpt>
      <trkpt lat="45.41854" lon="2.50095">
        <ele>541.5</ele>
        <time>2022-08-17T11:56:07Z</time>
      </trkpt>
      <trkpt lat="45.419" lon="2.50069">
        <ele>545.39</ele>
        <time>2022-08-17T11:56:10Z</time>
      </trkpt>
      <trkpt lat="45.41916" lon="2.50067">
        <ele>546.38</ele>
        <time>2022-08-17T11:56:11Z</time>
      </trkpt>
      <trkpt lat="45.41932" lon="2.50071">
        <ele>547.95</ele>
        <time>2022-08-17T11:56:12Z</time>
      </trkpt>
      <trkpt lat="45.41947" lon="2.50079">
        <ele>550.01</ele>
        <time>2022-08-17T11:56:13Z</time>
      </trkpt>
      <trkpt lat="45.41961" lon="2.50093">
        <ele>551.65</ele>
        <time>2022-08-17T11:56:14Z</time>
      </trkpt>
      <trkpt lat="45.41972" lon="2.50111">
        <ele>553.27</ele>
        <time>2022-08-17T11:56:15Z</time>
      </trkpt>
      <trkpt lat="45.4198" lon="2.50133">
        <ele>553.56</ele>
        <time>2022-08-17T11:56:16Z</time>
      </trkpt>
      <trkpt lat="45.41987" lon="2.50157">
        <ele>555.83</ele>
        <time>2022-08-17T11:56:17Z</time>
      </trkpt>
      <trkpt lat="45.41992" lon="2.50182">
        <ele>558.06</ele>
        <time>2022-08-17T11:56:18Z</time>
      </trkpt>
      <trkpt lat="45.41999" lon="2.50208">
        <ele>560.03</ele>
        <time>2022-08-17T11:56:19Z</time>
      </trkpt>
      <trkpt lat="45.42007" lon="2.50233">
        <ele>562.14</ele>
        <time>2022-08-17T11:56:20Z</time>
      </trkpt>
      <trkpt lat="45.42018" lon="2.50257">
        <ele>563.35</ele>
        <time>2022-08-17T11:56:21Z</time>
      </trkpt>
      <trkpt lat="45.42031" lon="2.5028">
        <ele>565.51</ele>
        <time>2022-08-17T11:56:22Z</time>
      </trkpt>
      <trkpt lat="45.42045" lon="2.503">
        <ele>567.63</ele>
        <time>2022-08-17T11:56:23Z</time>
      </trkpt>
      <trkpt lat="45.42061" lon="2.50318">
        <ele>568.85</ele>
        <time>2022-08-17T11:56:24Z</time>
      </trkpt>
      <trkpt lat="45.42077" lon="2.50334">
        <ele>570.65</ele>
        <time>2022-08-17T11:56:25Z</time>
      </trkpt>
      <trkpt lat="45.42094" lon="2.50347">
        <ele>571.68</ele>
        <time>2022-08-17T11:56:26Z</time>
      </trkpt>
      <trkpt lat="45.42113" lon="2.50359">
        <ele>573.16</ele>
        <time>2022-08-17T11:56:27Z</time>
      </trkpt>
      <trkpt lat="45.42133" lon="2.50366">
        <ele>574.06</ele>
        <time>2022-08-17T11:56:28Z</time>
      </trkpt>
      <trkpt lat="45.42155" lon="2.5037">
        <ele>576.77</ele>
        <time>2022-08-17T11:56:29Z</time>
      </trkpt>
      <trkpt lat="45.42179" lon="2.50371">
        <ele>578.91</ele>
        <time>2022-08-17T11:56:30Z</time>
      </trkpt>
      <trkpt lat="45.42229" lon="2.50371">
        <ele>583.53</ele>
        <time>2022-08-17T11:56:32Z</time>
      </trkpt>
      <trkpt lat="45.42282" lon="2.50374">
        <ele>585.81</ele>
        <time>2022-08-17T11:56:34Z</time>
      </trkpt>
      <trkpt lat="45.42373" lon="2.50394">
        <ele>587.36</ele>
        <time>2022-08-17T11:56:38Z</time>
      </trkpt>
      <trkpt lat="45.42392" lon="2.50409">
        <ele>589.14</ele>
        <time>2022-08-17T11:56:39Z</time>
      </trkpt>
      <trkpt lat="45.42412" lon="2.50428">
        <ele>590.55</ele>
        <time>2022-08-17T11:56:40Z</time>
      </trkpt>
      <trkpt lat="45.42469" lon="2.50491">
        <ele>593.5</ele>
        <time>2022-08-17T11:56:43Z</time>
      </trkpt>
      <trkpt lat="45.42519" lon="2.5055">
        <ele>597.39</ele>
        <time>2022-08-17T11:56:46Z</time>
      </trkpt>
      <trkpt lat="45.42548" lon="2.5059">
        <ele>598.22</ele>
        <time>2022-08-17T11:56:48Z</time>
      </trkpt>
      <trkpt lat="45.42605" lon="2.50667">
        <ele>600.86</ele>
        <time>2022-08-17T11:56:52Z</time>
      </trkpt>
      <trkpt lat="45.42633" lon="2.50707">
        <ele>604.31</ele>
        <time>2022-08-17T11:56:54Z</time>
      </trkpt>
      <trkpt lat="45.42664" lon="2.5075">
        <ele>607.61</ele>
        <time>2022-08-17T11:56:56Z</time>
      </trkpt>
      <trkpt lat="45.42696" lon="2.50795">
        <ele>611</ele>
        <time>2022-08-17T11:56:58Z</time>
      </trkpt>
      <trkpt lat="45.42746" lon="2.50862">
        <ele>615.24</ele>
        <time>2022-08-17T11:57:01Z</time>
      </trkpt>
      <trkpt lat="45.42765" lon="2.50878">
        <ele>616.52</ele>
        <time>2022-08-17T11:57:02Z</time>
      </trkpt>
      <trkpt lat="45.42787" lon="2.50889">
        <ele>618.51</ele>
        <time>2022-08-17T11:57:03Z</time>
      </trkpt>
      <trkpt lat="45.42834" lon="2.50904">
        <ele>623.12</ele>
        <time>2022-08-17T11:57:05Z</time>
      </trkpt>
      <trkpt lat="45.42879" lon="2.5092">
        <ele>624.36</ele>
        <time>2022-08-17T11:57:07Z</time>
      </trkpt>
      <trkpt lat="45.43006" lon="2.50958">
        <ele>625.25</ele>
        <time>2022-08-17T11:57:14Z</time>
      </trkpt>
      <trkpt lat="45.43055" lon="2.50979">
        <ele>625.1</ele>
        <time>2022-08-17T11:57:17Z</time>
      </trkpt>
      <trkpt lat="45.43071" lon="2.5099">
        <ele>625.08</ele>
        <time>2022-08-17T11:57:18Z</time>
      </trkpt>
      <trkpt lat="45.43085" lon="2.51003">
        <ele>625.05</ele>
        <time>2022-08-17T11:57:19Z</time>
      </trkpt>
      <trkpt lat="45.43187" lon="2.51117">
        <ele>627.56</ele>
        <time>2022-08-17T11:57:26Z</time>
      </trkpt>
      <trkpt lat="45.43262" lon="2.51192">
        <ele>629.33</ele>
        <time>2022-08-17T11:57:31Z</time>
      </trkpt>
      <trkpt lat="45.43303" lon="2.51231">
        <ele>630.16</ele>
        <time>2022-08-17T11:57:34Z</time>
      </trkpt>
      <trkpt lat="45.43314" lon="2.51249">
        <ele>631.01</ele>
        <time>2022-08-17T11:57:35Z</time>
      </trkpt>
      <trkpt lat="45.43325" lon="2.51269">
        <ele>631.06</ele>
        <time>2022-08-17T11:57:36Z</time>
      </trkpt>
      <trkpt lat="45.43344" lon="2.51316">
        <ele>632.94</ele>
        <time>2022-08-17T11:57:38Z</time>
      </trkpt>
      <trkpt lat="45.43475" lon="2.51639">
        <ele>633.79</ele>
        <time>2022-08-17T11:57:52Z</time>
      </trkpt>
      <trkpt lat="45.43645" lon="2.52054">
        <ele>635.75</ele>
        <time>2022-08-17T11:58:11Z</time>
      </trkpt>
      <trkpt lat="45.43762" lon="2.52341">
        <ele>633.35</ele>
        <time>2022-08-17T11:58:25Z</time>
      </trkpt>
      <trkpt lat="45.43856" lon="2.52565">
        <ele>635.93</ele>
        <time>2022-08-17T11:58:37Z</time>
      </trkpt>
      <trkpt lat="45.43879" lon="2.52623">
        <ele>637.71</ele>
        <time>2022-08-17T11:58:40Z</time>
      </trkpt>
      <trkpt lat="45.43931" lon="2.52752">
        <ele>641.82</ele>
        <time>2022-08-17T11:58:47Z</time>
      </trkpt>
      <trkpt lat="45.43938" lon="2.52769">
        <ele>641.85</ele>
        <time>2022-08-17T11:58:48Z</time>
      </trkpt>
      <trkpt lat="45.44019" lon="2.52961">
        <ele>642.79</ele>
        <time>2022-08-17T11:59:00Z</time>
      </trkpt>
      <trkpt lat="45.44031" lon="2.52992">
        <ele>642.76</ele>
        <time>2022-08-17T11:59:03Z</time>
      </trkpt>
      <trkpt lat="45.44035" lon="2.53007">
        <ele>640.4</ele>
        <time>2022-08-17T11:59:06Z</time>
      </trkpt>
      <trkpt lat="45.44038" lon="2.53007">
        <ele>640.4</ele>
        <time>2022-08-17T11:59:07Z</time>
      </trkpt>
      <trkpt lat="45.44039" lon="2.53">
        <ele>640.42</ele>
        <time>2022-08-17T11:59:09Z</time>
      </trkpt>
      <trkpt lat="45.44036" lon="2.52992">
        <ele>640.44</ele>
        <time>2022-08-17T11:59:10Z</time>
      </trkpt>
      <trkpt lat="45.44031" lon="2.5298">
        <ele>642.94</ele>
        <time>2022-08-17T11:59:11Z</time>
      </trkpt>
      <trkpt lat="45.44026" lon="2.52966">
        <ele>642.94</ele>
        <time>2022-08-17T11:59:12Z</time>
      </trkpt>
      <trkpt lat="45.43971" lon="2.52831">
        <ele>642.95</ele>
        <time>2022-08-17T11:59:21Z</time>
      </trkpt>
      <trkpt lat="45.43956" lon="2.52793">
        <ele>642.96</ele>
        <time>2022-08-17T11:59:24Z</time>
      </trkpt>
      <trkpt lat="45.43954" lon="2.52782">
        <ele>642.92</ele>
        <time>2022-08-17T11:59:25Z</time>
      </trkpt>
      <trkpt lat="45.43955" lon="2.52771">
        <ele>642.92</ele>
        <time>2022-08-17T11:59:26Z</time>
      </trkpt>
      <trkpt lat="45.43958" lon="2.52759">
        <ele>640.3</ele>
        <time>2022-08-17T11:59:27Z</time>
      </trkpt>
      <trkpt lat="45.43962" lon="2.52747">
        <ele>640.29</ele>
        <time>2022-08-17T11:59:28Z</time>
      </trkpt>
      <trkpt lat="45.43986" lon="2.52683">
        <ele>640.24</ele>
        <time>2022-08-17T11:59:33Z</time>
      </trkpt>
      <trkpt lat="45.43992" lon="2.52672">
        <ele>640.25</ele>
        <time>2022-08-17T11:59:34Z</time>
      </trkpt>
      <trkpt lat="45.43999" lon="2.52661">
        <ele>640.23</ele>
        <time>2022-08-17T11:59:35Z</time>
      </trkpt>
      <trkpt lat="45.44007" lon="2.52651">
        <ele>640.27</ele>
        <time>2022-08-17T11:59:36Z</time>
      </trkpt>
      <trkpt lat="45.44016" lon="2.52641">
        <ele>640.35</ele>
        <time>2022-08-17T11:59:37Z</time>
      </trkpt>
      <trkpt lat="45.44112" lon="2.52531">
        <ele>638.12</ele>
        <time>2022-08-17T11:59:48Z</time>
      </trkpt>
      <trkpt lat="45.44134" lon="2.52506">
        <ele>638.07</ele>
        <time>2022-08-17T11:59:51Z</time>
      </trkpt>
      <trkpt lat="45.44179" lon="2.52471">
        <ele>637.13</ele>
        <time>2022-08-17T11:59:56Z</time>
      </trkpt>
      <trkpt lat="45.44186" lon="2.52462">
        <ele>637.12</ele>
        <time>2022-08-17T11:59:57Z</time>
      </trkpt>
      <trkpt lat="45.44219" lon="2.52405">
        <ele>636.48</ele>
        <time>2022-08-17T12:00:02Z</time>
      </trkpt>
      <trkpt lat="45.44224" lon="2.5239">
        <ele>635.65</ele>
        <time>2022-08-17T12:00:03Z</time>
      </trkpt>
      <trkpt lat="45.44227" lon="2.52375">
        <ele>635.64</ele>
        <time>2022-08-17T12:00:04Z</time>
      </trkpt>
      <trkpt lat="45.44278" lon="2.52096">
        <ele>633.69</ele>
        <time>2022-08-17T12:00:20Z</time>
      </trkpt>
      <trkpt lat="45.44327" lon="2.5183">
        <ele>631.81</ele>
        <time>2022-08-17T12:00:35Z</time>
      </trkpt>
      <trkpt lat="45.44332" lon="2.51787">
        <ele>629.1</ele>
        <time>2022-08-17T12:00:38Z</time>
      </trkpt>
      <trkpt lat="45.44333" lon="2.51758">
        <ele>628.09</ele>
        <time>2022-08-17T12:00:40Z</time>
      </trkpt>
      <trkpt lat="45.44332" lon="2.51713">
        <ele>624.52</ele>
        <time>2022-08-17T12:00:43Z</time>
      </trkpt>
      <trkpt lat="45.44332" lon="2.51666">
        <ele>622.34</ele>
        <time>2022-08-17T12:00:46Z</time>
      </trkpt>
      <trkpt lat="45.4433" lon="2.51618">
        <ele>617.31</ele>
        <time>2022-08-17T12:00:49Z</time>
      </trkpt>
      <trkpt lat="45.44327" lon="2.51586">
        <ele>614.01</ele>
        <time>2022-08-17T12:00:51Z</time>
      </trkpt>
      <trkpt lat="45.4432" lon="2.51538">
        <ele>611.3</ele>
        <time>2022-08-17T12:00:54Z</time>
      </trkpt>
      <trkpt lat="45.44312" lon="2.51493">
        <ele>608.73</ele>
        <time>2022-08-17T12:00:57Z</time>
      </trkpt>
      <trkpt lat="45.443" lon="2.51434">
        <ele>604.99</ele>
        <time>2022-08-17T12:01:01Z</time>
      </trkpt>
      <trkpt lat="45.44298" lon="2.51419">
        <ele>605</ele>
        <time>2022-08-17T12:01:02Z</time>
      </trkpt>
      <trkpt lat="45.44286" lon="2.5135">
        <ele>601.87</ele>
        <time>2022-08-17T12:01:06Z</time>
      </trkpt>
      <trkpt lat="45.44285" lon="2.51333">
        <ele>601.12</ele>
        <time>2022-08-17T12:01:07Z</time>
      </trkpt>
      <trkpt lat="45.44287" lon="2.51314">
        <ele>600.36</ele>
        <time>2022-08-17T12:01:08Z</time>
      </trkpt>
      <trkpt lat="45.4429" lon="2.51296">
        <ele>600.37</ele>
        <time>2022-08-17T12:01:09Z</time>
      </trkpt>
      <trkpt lat="45.44294" lon="2.51278">
        <ele>599.48</ele>
        <time>2022-08-17T12:01:10Z</time>
      </trkpt>
      <trkpt lat="45.44299" lon="2.5126">
        <ele>598.57</ele>
        <time>2022-08-17T12:01:11Z</time>
      </trkpt>
      <trkpt lat="45.4431" lon="2.5121">
        <ele>595.61</ele>
        <time>2022-08-17T12:01:14Z</time>
      </trkpt>
      <trkpt lat="45.44311" lon="2.51193">
        <ele>594.5</ele>
        <time>2022-08-17T12:01:15Z</time>
      </trkpt>
      <trkpt lat="45.4431" lon="2.51176">
        <ele>594.49</ele>
        <time>2022-08-17T12:01:16Z</time>
      </trkpt>
      <trkpt lat="45.44308" lon="2.51159">
        <ele>593.32</ele>
        <time>2022-08-17T12:01:17Z</time>
      </trkpt>
      <trkpt lat="45.44304" lon="2.51143">
        <ele>593.29</ele>
        <time>2022-08-17T12:01:18Z</time>
      </trkpt>
      <trkpt lat="45.44292" lon="2.51132">
        <ele>593.27</ele>
        <time>2022-08-17T12:01:19Z</time>
      </trkpt>
      <trkpt lat="45.44281" lon="2.51123">
        <ele>593.41</ele>
        <time>2022-08-17T12:01:20Z</time>
      </trkpt>
      <trkpt lat="45.4427" lon="2.51114">
        <ele>593.47</ele>
        <time>2022-08-17T12:01:21Z</time>
      </trkpt>
      <trkpt lat="45.44259" lon="2.51104">
        <ele>590.62</ele>
        <time>2022-08-17T12:01:22Z</time>
      </trkpt>
      <trkpt lat="45.44253" lon="2.51091">
        <ele>589.5</ele>
        <time>2022-08-17T12:01:23Z</time>
      </trkpt>
      <trkpt lat="45.44249" lon="2.51075">
        <ele>587.53</ele>
        <time>2022-08-17T12:01:24Z</time>
      </trkpt>
      <trkpt lat="45.44246" lon="2.51059">
        <ele>586.29</ele>
        <time>2022-08-17T12:01:25Z</time>
      </trkpt>
      <trkpt lat="45.44244" lon="2.51042">
        <ele>585.05</ele>
        <time>2022-08-17T12:01:26Z</time>
      </trkpt>
      <trkpt lat="45.44243" lon="2.51026">
        <ele>584.11</ele>
        <time>2022-08-17T12:01:27Z</time>
      </trkpt>
      <trkpt lat="45.44244" lon="2.51009">
        <ele>583.15</ele>
        <time>2022-08-17T12:01:28Z</time>
      </trkpt>
      <trkpt lat="45.44245" lon="2.50993">
        <ele>583.05</ele>
        <time>2022-08-17T12:01:29Z</time>
      </trkpt>
      <trkpt lat="45.44247" lon="2.50978">
        <ele>580.51</ele>
        <time>2022-08-17T12:01:30Z</time>
      </trkpt>
      <trkpt lat="45.4425" lon="2.50962">
        <ele>580.42</ele>
        <time>2022-08-17T12:01:31Z</time>
      </trkpt>
      <trkpt lat="45.44252" lon="2.50931">
        <ele>577.78</ele>
        <time>2022-08-17T12:01:33Z</time>
      </trkpt>
      <trkpt lat="45.44252" lon="2.50915">
        <ele>577.95</ele>
        <time>2022-08-17T12:01:34Z</time>
      </trkpt>
      <trkpt lat="45.44252" lon="2.50901">
        <ele>576.49</ele>
        <time>2022-08-17T12:01:35Z</time>
      </trkpt>
      <trkpt lat="45.44255" lon="2.50888">
        <ele>574.26</ele>
        <time>2022-08-17T12:01:36Z</time>
      </trkpt>
      <trkpt lat="45.44259" lon="2.50876">
        <ele>572.59</ele>
        <time>2022-08-17T12:01:37Z</time>
      </trkpt>
      <trkpt lat="45.44264" lon="2.50865">
        <ele>571.54</ele>
        <time>2022-08-17T12:01:38Z</time>
      </trkpt>
      <trkpt lat="45.4427" lon="2.50854">
        <ele>569.8</ele>
        <time>2022-08-17T12:01:39Z</time>
      </trkpt>
      <trkpt lat="45.44277" lon="2.50843">
        <ele>568.65</ele>
        <time>2022-08-17T12:01:40Z</time>
      </trkpt>
      <trkpt lat="45.44292" lon="2.50821">
        <ele>567.24</ele>
        <time>2022-08-17T12:01:42Z</time>
      </trkpt>
      <trkpt lat="45.44308" lon="2.50802">
        <ele>564.36</ele>
        <time>2022-08-17T12:01:44Z</time>
      </trkpt>
      <trkpt lat="45.44316" lon="2.50793">
        <ele>563.39</ele>
        <time>2022-08-17T12:01:45Z</time>
      </trkpt>
      <trkpt lat="45.44331" lon="2.5078">
        <ele>562.41</ele>
        <time>2022-08-17T12:01:47Z</time>
      </trkpt>
      <trkpt lat="45.44352" lon="2.50763">
        <ele>560.27</ele>
        <time>2022-08-17T12:01:50Z</time>
      </trkpt>
      <trkpt lat="45.44359" lon="2.50758">
        <ele>560.22</ele>
        <time>2022-08-17T12:01:51Z</time>
      </trkpt>
      <trkpt lat="45.44365" lon="2.50756">
        <ele>559.22</ele>
        <time>2022-08-17T12:01:52Z</time>
      </trkpt>
      <trkpt lat="45.44372" lon="2.50756">
        <ele>558.23</ele>
        <time>2022-08-17T12:01:53Z</time>
      </trkpt>
      <trkpt lat="45.44379" lon="2.50758">
        <ele>558.14</ele>
        <time>2022-08-17T12:01:54Z</time>
      </trkpt>
      <trkpt lat="45.44386" lon="2.5076">
        <ele>556.73</ele>
        <time>2022-08-17T12:01:55Z</time>
      </trkpt>
      <trkpt lat="45.44393" lon="2.50762">
        <ele>556.73</ele>
        <time>2022-08-17T12:01:56Z</time>
      </trkpt>
      <trkpt lat="45.44404" lon="2.50764">
        <ele>555.87</ele>
        <time>2022-08-17T12:01:58Z</time>
      </trkpt>
      <trkpt lat="45.44408" lon="2.5076">
        <ele>554.99</ele>
        <time>2022-08-17T12:01:59Z</time>
      </trkpt>
      <trkpt lat="45.44399" lon="2.5074">
        <ele>552.98</ele>
        <time>2022-08-17T12:02:03Z</time>
      </trkpt>
      <trkpt lat="45.44394" lon="2.50738">
        <ele>552.14</ele>
        <time>2022-08-17T12:02:04Z</time>
      </trkpt>
      <trkpt lat="45.44388" lon="2.50736">
        <ele>551.12</ele>
        <time>2022-08-17T12:02:05Z</time>
      </trkpt>
      <trkpt lat="45.44383" lon="2.50732">
        <ele>551.07</ele>
        <time>2022-08-17T12:02:06Z</time>
      </trkpt>
      <trkpt lat="45.44378" lon="2.50729">
        <ele>549.62</ele>
        <time>2022-08-17T12:02:07Z</time>
      </trkpt>
      <trkpt lat="45.44374" lon="2.50726">
        <ele>549.63</ele>
        <time>2022-08-17T12:02:08Z</time>
      </trkpt>
      <trkpt lat="45.44371" lon="2.50724">
        <ele>548.31</ele>
        <time>2022-08-17T12:02:09Z</time>
      </trkpt>
      <trkpt lat="45.44369" lon="2.50722">
        <ele>548.32</ele>
        <time>2022-08-17T12:02:10Z</time>
      </trkpt>
      <trkpt lat="45.44362" lon="2.50715">
        <ele>546.78</ele>
        <time>2022-08-17T12:02:19Z</time>
      </trkpt>
      <trkpt lat="45.44351" lon="2.50707">
        <ele>544.74</ele>
        <time>2022-08-17T12:02:25Z</time>
      </trkpt>
      <trkpt lat="45.44349" lon="2.50708">
        <ele>544.78</ele>
        <time>2022-08-17T12:02:26Z</time>
      </trkpt>
      <trkpt lat="45.44348" lon="2.50709">
        <ele>544.75</ele>
        <time>2022-08-17T12:02:27Z</time>
      </trkpt>
      <trkpt lat="45.44332" lon="2.50726">
        <ele>547.54</ele>
        <time>2022-08-17T12:02:36Z</time>
      </trkpt>
      <trkpt lat="45.4431" lon="2.50745">
        <ele>547.44</ele>
        <time>2022-08-17T12:02:49Z</time>
      </trkpt>
      <trkpt lat="45.44309" lon="2.50747">
        <ele>547.42</ele>
        <time>2022-08-17T12:02:50Z</time>
      </trkpt>
      <trkpt lat="45.4431" lon="2.50749">
        <ele>547.39</ele>
        <time>2022-08-17T12:02:52Z</time>
      </trkpt>
      <trkpt lat="45.44317" lon="2.50739">
        <ele>547.36</ele>
        <time>2022-08-17T12:02:56Z</time>
      </trkpt>
      <trkpt lat="45.4432" lon="2.50736">
        <ele>547.34</ele>
        <time>2022-08-17T12:02:57Z</time>
      </trkpt>
      <trkpt lat="45.44339" lon="2.50717">
        <ele>547.25</ele>
        <time>2022-08-17T12:03:03Z</time>
      </trkpt>
      <trkpt lat="45.44344" lon="2.50714">
        <ele>547.22</ele>
        <time>2022-08-17T12:03:04Z</time>
      </trkpt>
      <trkpt lat="45.4435" lon="2.50713">
        <ele>547.24</ele>
        <time>2022-08-17T12:03:05Z</time>
      </trkpt>
      <trkpt lat="45.44355" lon="2.50716">
        <ele>547.29</ele>
        <time>2022-08-17T12:03:06Z</time>
      </trkpt>
      <trkpt lat="45.4436" lon="2.50721">
        <ele>547.28</ele>
        <time>2022-08-17T12:03:07Z</time>
      </trkpt>
      <trkpt lat="45.44364" lon="2.50728">
        <ele>547.27</ele>
        <time>2022-08-17T12:03:08Z</time>
      </trkpt>
      <trkpt lat="45.44368" lon="2.50734">
        <ele>547.27</ele>
        <time>2022-08-17T12:03:09Z</time>
      </trkpt>
      <trkpt lat="45.44373" lon="2.50739">
        <ele>548.84</ele>
        <time>2022-08-17T12:03:10Z</time>
      </trkpt>
      <trkpt lat="45.44378" lon="2.50743">
        <ele>548.84</ele>
        <time>2022-08-17T12:03:11Z</time>
      </trkpt>
      <trkpt lat="45.44383" lon="2.50746">
        <ele>549.66</ele>
        <time>2022-08-17T12:03:12Z</time>
      </trkpt>
      <trkpt lat="45.44388" lon="2.50748">
        <ele>550.77</ele>
        <time>2022-08-17T12:03:13Z</time>
      </trkpt>
      <trkpt lat="45.44393" lon="2.5075">
        <ele>550.76</ele>
        <time>2022-08-17T12:03:14Z</time>
      </trkpt>
      <trkpt lat="45.44402" lon="2.50757">
        <ele>551.99</ele>
        <time>2022-08-17T12:03:16Z</time>
      </trkpt>
      <trkpt lat="45.44391" lon="2.50768">
        <ele>555</ele>
        <time>2022-08-17T12:03:20Z</time>
      </trkpt>
      <trkpt lat="45.44383" lon="2.50766">
        <ele>556.66</ele>
        <time>2022-08-17T12:03:21Z</time>
      </trkpt>
      <trkpt lat="45.44375" lon="2.50765">
        <ele>557.57</ele>
        <time>2022-08-17T12:03:22Z</time>
      </trkpt>
      <trkpt lat="45.44366" lon="2.50766">
        <ele>558.75</ele>
        <time>2022-08-17T12:03:23Z</time>
      </trkpt>
      <trkpt lat="45.44358" lon="2.50768">
        <ele>558.82</ele>
        <time>2022-08-17T12:03:24Z</time>
      </trkpt>
      <trkpt lat="45.44352" lon="2.50772">
        <ele>559.58</ele>
        <time>2022-08-17T12:03:25Z</time>
      </trkpt>
      <trkpt lat="45.44349" lon="2.50777">
        <ele>559.6</ele>
        <time>2022-08-17T12:03:26Z</time>
      </trkpt>
      <trkpt lat="45.44347" lon="2.50782">
        <ele>559.59</ele>
        <time>2022-08-17T12:03:27Z</time>
      </trkpt>
      <trkpt lat="45.44348" lon="2.50787">
        <ele>559.54</ele>
        <time>2022-08-17T12:03:28Z</time>
      </trkpt>
      <trkpt lat="45.44349" lon="2.50789">
        <ele>559.51</ele>
        <time>2022-08-17T12:03:29Z</time>
      </trkpt>
      <trkpt lat="45.44351" lon="2.5079">
        <ele>559.34</ele>
        <time>2022-08-17T12:03:30Z</time>
      </trkpt>
      <trkpt lat="45.44355" lon="2.50789">
        <ele>560.28</ele>
        <time>2022-08-17T12:03:31Z</time>
      </trkpt>
      <trkpt lat="45.44359" lon="2.50787">
        <ele>560.28</ele>
        <time>2022-08-17T12:03:32Z</time>
      </trkpt>
      <trkpt lat="45.44364" lon="2.50786">
        <ele>560.31</ele>
        <time>2022-08-17T12:03:33Z</time>
      </trkpt>
      <trkpt lat="45.4437" lon="2.50786">
        <ele>561.85</ele>
        <time>2022-08-17T12:03:34Z</time>
      </trkpt>
      <trkpt lat="45.44376" lon="2.50788">
        <ele>561.88</ele>
        <time>2022-08-17T12:03:35Z</time>
      </trkpt>
      <trkpt lat="45.44382" lon="2.5079">
        <ele>563.61</ele>
        <time>2022-08-17T12:03:36Z</time>
      </trkpt>
      <trkpt lat="45.44389" lon="2.50793">
        <ele>563.58</ele>
        <time>2022-08-17T12:03:37Z</time>
      </trkpt>
      <trkpt lat="45.44395" lon="2.50797">
        <ele>564.85</ele>
        <time>2022-08-17T12:03:38Z</time>
      </trkpt>
      <trkpt lat="45.44403" lon="2.50798">
        <ele>564.81</ele>
        <time>2022-08-17T12:03:39Z</time>
      </trkpt>
      <trkpt lat="45.44411" lon="2.50799">
        <ele>566.42</ele>
        <time>2022-08-17T12:03:40Z</time>
      </trkpt>
      <trkpt lat="45.44418" lon="2.50797">
        <ele>566.37</ele>
        <time>2022-08-17T12:03:41Z</time>
      </trkpt>
      <trkpt lat="45.44425" lon="2.50794">
        <ele>566.36</ele>
        <time>2022-08-17T12:03:42Z</time>
      </trkpt>
      <trkpt lat="45.44432" lon="2.50791">
        <ele>567.21</ele>
        <time>2022-08-17T12:03:43Z</time>
      </trkpt>
      <trkpt lat="45.4444" lon="2.50788">
        <ele>568.29</ele>
        <time>2022-08-17T12:03:44Z</time>
      </trkpt>
      <trkpt lat="45.44448" lon="2.50785">
        <ele>568.32</ele>
        <time>2022-08-17T12:03:45Z</time>
      </trkpt>
      <trkpt lat="45.44455" lon="2.5078">
        <ele>568.3</ele>
        <time>2022-08-17T12:03:46Z</time>
      </trkpt>
      <trkpt lat="45.44467" lon="2.5077">
        <ele>569.35</ele>
        <time>2022-08-17T12:03:48Z</time>
      </trkpt>
      <trkpt lat="45.44475" lon="2.50753">
        <ele>569.33</ele>
        <time>2022-08-17T12:03:51Z</time>
      </trkpt>
      <trkpt lat="45.44479" lon="2.50751">
        <ele>570.09</ele>
        <time>2022-08-17T12:03:52Z</time>
      </trkpt>
      <trkpt lat="45.44484" lon="2.50749">
        <ele>570.04</ele>
        <time>2022-08-17T12:03:53Z</time>
      </trkpt>
      <trkpt lat="45.44489" lon="2.50746">
        <ele>571.13</ele>
        <time>2022-08-17T12:03:54Z</time>
      </trkpt>
      <trkpt lat="45.44495" lon="2.50744">
        <ele>571.63</ele>
        <time>2022-08-17T12:03:55Z</time>
      </trkpt>
      <trkpt lat="45.44498" lon="2.50743">
        <ele>571.59</ele>
        <time>2022-08-17T12:03:56Z</time>
      </trkpt>
      <trkpt lat="45.44503" lon="2.50743">
        <ele>572.68</ele>
        <time>2022-08-17T12:03:57Z</time>
      </trkpt>
      <trkpt lat="45.44507" lon="2.50746">
        <ele>572.66</ele>
        <time>2022-08-17T12:03:58Z</time>
      </trkpt>
      <trkpt lat="45.4451" lon="2.50749">
        <ele>573.64</ele>
        <time>2022-08-17T12:03:59Z</time>
      </trkpt>
      <trkpt lat="45.44513" lon="2.50752">
        <ele>573.63</ele>
        <time>2022-08-17T12:04:00Z</time>
      </trkpt>
      <trkpt lat="45.4452" lon="2.50762">
        <ele>574.85</ele>
        <time>2022-08-17T12:04:02Z</time>
      </trkpt>
      <trkpt lat="45.44523" lon="2.50767">
        <ele>576.45</ele>
        <time>2022-08-17T12:04:03Z</time>
      </trkpt>
      <trkpt lat="45.44525" lon="2.50775">
        <ele>577.53</ele>
        <time>2022-08-17T12:04:04Z</time>
      </trkpt>
      <trkpt lat="45.44527" lon="2.50783">
        <ele>577.57</ele>
        <time>2022-08-17T12:04:05Z</time>
      </trkpt>
      <trkpt lat="45.44531" lon="2.50792">
        <ele>579.42</ele>
        <time>2022-08-17T12:04:06Z</time>
      </trkpt>
      <trkpt lat="45.44536" lon="2.50802">
        <ele>580.58</ele>
        <time>2022-08-17T12:04:07Z</time>
      </trkpt>
      <trkpt lat="45.44539" lon="2.50813">
        <ele>581.54</ele>
        <time>2022-08-17T12:04:08Z</time>
      </trkpt>
      <trkpt lat="45.44548" lon="2.50839">
        <ele>585.07</ele>
        <time>2022-08-17T12:04:11Z</time>
      </trkpt>
      <trkpt lat="45.44556" lon="2.5086">
        <ele>588.64</ele>
        <time>2022-08-17T12:04:14Z</time>
      </trkpt>
      <trkpt lat="45.44557" lon="2.50874">
        <ele>590.62</ele>
        <time>2022-08-17T12:04:16Z</time>
      </trkpt>
      <trkpt lat="45.44556" lon="2.50883">
        <ele>590.61</ele>
        <time>2022-08-17T12:04:17Z</time>
      </trkpt>
      <trkpt lat="45.44555" lon="2.509">
        <ele>593.62</ele>
        <time>2022-08-17T12:04:19Z</time>
      </trkpt>
      <trkpt lat="45.44554" lon="2.50928">
        <ele>597.27</ele>
        <time>2022-08-17T12:04:22Z</time>
      </trkpt>
      <trkpt lat="45.44554" lon="2.50938">
        <ele>598.84</ele>
        <time>2022-08-17T12:04:23Z</time>
      </trkpt>
      <trkpt lat="45.44556" lon="2.5096">
        <ele>600.23</ele>
        <time>2022-08-17T12:04:25Z</time>
      </trkpt>
      <trkpt lat="45.44558" lon="2.50979">
        <ele>601.49</ele>
        <time>2022-08-17T12:04:27Z</time>
      </trkpt>
      <trkpt lat="45.44561" lon="2.50996">
        <ele>602.87</ele>
        <time>2022-08-17T12:04:29Z</time>
      </trkpt>
      <trkpt lat="45.44563" lon="2.51005">
        <ele>603.99</ele>
        <time>2022-08-17T12:04:30Z</time>
      </trkpt>
      <trkpt lat="45.44566" lon="2.51014">
        <ele>604.8</ele>
        <time>2022-08-17T12:04:31Z</time>
      </trkpt>
      <trkpt lat="45.44569" lon="2.51023">
        <ele>604.76</ele>
        <time>2022-08-17T12:04:32Z</time>
      </trkpt>
      <trkpt lat="45.44578" lon="2.51054">
        <ele>608.58</ele>
        <time>2022-08-17T12:04:35Z</time>
      </trkpt>
      <trkpt lat="45.44579" lon="2.51062">
        <ele>608.52</ele>
        <time>2022-08-17T12:04:36Z</time>
      </trkpt>
      <trkpt lat="45.44581" lon="2.51071">
        <ele>610.32</ele>
        <time>2022-08-17T12:04:37Z</time>
      </trkpt>
      <trkpt lat="45.44581" lon="2.5108">
        <ele>610.16</ele>
        <time>2022-08-17T12:04:38Z</time>
      </trkpt>
      <trkpt lat="45.44582" lon="2.5109">
        <ele>610.13</ele>
        <time>2022-08-17T12:04:39Z</time>
      </trkpt>
      <trkpt lat="45.44582" lon="2.511">
        <ele>611.49</ele>
        <time>2022-08-17T12:04:40Z</time>
      </trkpt>
      <trkpt lat="45.44584" lon="2.51124">
        <ele>612.65</ele>
        <time>2022-08-17T12:04:42Z</time>
      </trkpt>
      <trkpt lat="45.44585" lon="2.51151">
        <ele>615.88</ele>
        <time>2022-08-17T12:04:44Z</time>
      </trkpt>
      <trkpt lat="45.4459" lon="2.51185">
        <ele>618.92</ele>
        <time>2022-08-17T12:04:47Z</time>
      </trkpt>
      <trkpt lat="45.44593" lon="2.51195">
        <ele>620.74</ele>
        <time>2022-08-17T12:04:48Z</time>
      </trkpt>
      <trkpt lat="45.44597" lon="2.51205">
        <ele>621.57</ele>
        <time>2022-08-17T12:04:49Z</time>
      </trkpt>
      <trkpt lat="45.44602" lon="2.51215">
        <ele>622.33</ele>
        <time>2022-08-17T12:04:50Z</time>
      </trkpt>
      <trkpt lat="45.44607" lon="2.51226">
        <ele>623.56</ele>
        <time>2022-08-17T12:04:51Z</time>
      </trkpt>
      <trkpt lat="45.44616" lon="2.51241">
        <ele>624.82</ele>
        <time>2022-08-17T12:04:53Z</time>
      </trkpt>
      <trkpt lat="45.44618" lon="2.51247">
        <ele>625.55</ele>
        <time>2022-08-17T12:04:54Z</time>
      </trkpt>
      <trkpt lat="45.4462" lon="2.51252">
        <ele>625.71</ele>
        <time>2022-08-17T12:04:55Z</time>
      </trkpt>
      <trkpt lat="45.44621" lon="2.51257">
        <ele>626.8</ele>
        <time>2022-08-17T12:04:56Z</time>
      </trkpt>
      <trkpt lat="45.44622" lon="2.51261">
        <ele>626.89</ele>
        <time>2022-08-17T12:04:57Z</time>
      </trkpt>
      <trkpt lat="45.4462" lon="2.51278">
        <ele>626.75</ele>
        <time>2022-08-17T12:05:06Z</time>
      </trkpt>
      <trkpt lat="45.44622" lon="2.51282">
        <ele>623.54</ele>
        <time>2022-08-17T12:05:17Z</time>
      </trkpt>
      <trkpt lat="45.44525" lon="2.51469">
        <ele>628.4</ele>
        <time>2022-08-17T12:46:24Z</time>
      </trkpt>
      <trkpt lat="45.44522" lon="2.51519">
        <ele>631.36</ele>
        <time>2022-08-17T12:46:31Z</time>
      </trkpt>
      <trkpt lat="45.44524" lon="2.51529">
        <ele>631.35</ele>
        <time>2022-08-17T12:46:32Z</time>
      </trkpt>
      <trkpt lat="45.44524" lon="2.51579">
        <ele>630.42</ele>
        <time>2022-08-17T12:46:37Z</time>
      </trkpt>
      <trkpt lat="45.44521" lon="2.51596">
        <ele>631.08</ele>
        <time>2022-08-17T12:46:39Z</time>
      </trkpt>
      <trkpt lat="45.44519" lon="2.51604">
        <ele>630.91</ele>
        <time>2022-08-17T12:46:40Z</time>
      </trkpt>
      <trkpt lat="45.44484" lon="2.51696">
        <ele>629.87</ele>
        <time>2022-08-17T12:46:50Z</time>
      </trkpt>
      <trkpt lat="45.44482" lon="2.51708">
        <ele>629.67</ele>
        <time>2022-08-17T12:46:51Z</time>
      </trkpt>
      <trkpt lat="45.4448" lon="2.51721">
        <ele>629.48</ele>
        <time>2022-08-17T12:46:52Z</time>
      </trkpt>
      <trkpt lat="45.44476" lon="2.51748">
        <ele>629.1</ele>
        <time>2022-08-17T12:46:54Z</time>
      </trkpt>
      <trkpt lat="45.44452" lon="2.51917">
        <ele>627.56</ele>
        <time>2022-08-17T12:47:06Z</time>
      </trkpt>
      <trkpt lat="45.4445" lon="2.5193">
        <ele>628.35</ele>
        <time>2022-08-17T12:47:07Z</time>
      </trkpt>
      <trkpt lat="45.44446" lon="2.51943">
        <ele>628.27</ele>
        <time>2022-08-17T12:47:08Z</time>
      </trkpt>
      <trkpt lat="45.44442" lon="2.51956">
        <ele>627.98</ele>
        <time>2022-08-17T12:47:09Z</time>
      </trkpt>
      <trkpt lat="45.44365" lon="2.52136">
        <ele>627.67</ele>
        <time>2022-08-17T12:47:25Z</time>
      </trkpt>
      <trkpt lat="45.44352" lon="2.52156">
        <ele>627.56</ele>
        <time>2022-08-17T12:47:27Z</time>
      </trkpt>
      <trkpt lat="45.44344" lon="2.52164">
        <ele>627.51</ele>
        <time>2022-08-17T12:47:28Z</time>
      </trkpt>
      <trkpt lat="45.44335" lon="2.5217">
        <ele>627.45</ele>
        <time>2022-08-17T12:47:29Z</time>
      </trkpt>
      <trkpt lat="45.44326" lon="2.52173">
        <ele>627.4</ele>
        <time>2022-08-17T12:47:30Z</time>
      </trkpt>
      <trkpt lat="45.44317" lon="2.52174">
        <ele>627.32</ele>
        <time>2022-08-17T12:47:31Z</time>
      </trkpt>
      <trkpt lat="45.44308" lon="2.52174">
        <ele>628.15</ele>
        <time>2022-08-17T12:47:32Z</time>
      </trkpt>
      <trkpt lat="45.44299" lon="2.52174">
        <ele>628.08</ele>
        <time>2022-08-17T12:47:33Z</time>
      </trkpt>
      <trkpt lat="45.44258" lon="2.52177">
        <ele>627.4</ele>
        <time>2022-08-17T12:47:41Z</time>
      </trkpt>
      <trkpt lat="45.44256" lon="2.52179">
        <ele>627.41</ele>
        <time>2022-08-17T12:47:42Z</time>
      </trkpt>
      <trkpt lat="45.44254" lon="2.52186">
        <ele>627.41</ele>
        <time>2022-08-17T12:47:43Z</time>
      </trkpt>
      <trkpt lat="45.44252" lon="2.52194">
        <ele>627.39</ele>
        <time>2022-08-17T12:47:44Z</time>
      </trkpt>
      <trkpt lat="45.4423" lon="2.52314">
        <ele>627.46</ele>
        <time>2022-08-17T12:47:53Z</time>
      </trkpt>
      <trkpt lat="45.44215" lon="2.52391">
        <ele>630.06</ele>
        <time>2022-08-17T12:47:58Z</time>
      </trkpt>
      <trkpt lat="45.44211" lon="2.52406">
        <ele>630.98</ele>
        <time>2022-08-17T12:47:59Z</time>
      </trkpt>
      <trkpt lat="45.44205" lon="2.52419">
        <ele>630.98</ele>
        <time>2022-08-17T12:48:00Z</time>
      </trkpt>
      <trkpt lat="45.44199" lon="2.52431">
        <ele>631</ele>
        <time>2022-08-17T12:48:01Z</time>
      </trkpt>
      <trkpt lat="45.44168" lon="2.52476">
        <ele>631.01</ele>
        <time>2022-08-17T12:48:05Z</time>
      </trkpt>
      <trkpt lat="45.44159" lon="2.52485">
        <ele>632.13</ele>
        <time>2022-08-17T12:48:06Z</time>
      </trkpt>
      <trkpt lat="45.44149" lon="2.52491">
        <ele>632.13</ele>
        <time>2022-08-17T12:48:07Z</time>
      </trkpt>
      <trkpt lat="45.44063" lon="2.52582">
        <ele>633.27</ele>
        <time>2022-08-17T12:48:17Z</time>
      </trkpt>
      <trkpt lat="45.43984" lon="2.52668">
        <ele>634.88</ele>
        <time>2022-08-17T12:48:27Z</time>
      </trkpt>
      <trkpt lat="45.43977" lon="2.52679">
        <ele>634.89</ele>
        <time>2022-08-17T12:48:28Z</time>
      </trkpt>
      <trkpt lat="45.43972" lon="2.5269">
        <ele>634.9</ele>
        <time>2022-08-17T12:48:29Z</time>
      </trkpt>
      <trkpt lat="45.43968" lon="2.52703">
        <ele>634.9</ele>
        <time>2022-08-17T12:48:30Z</time>
      </trkpt>
      <trkpt lat="45.43963" lon="2.52715">
        <ele>634.91</ele>
        <time>2022-08-17T12:48:31Z</time>
      </trkpt>
      <trkpt lat="45.43949" lon="2.52746">
        <ele>635.75</ele>
        <time>2022-08-17T12:48:34Z</time>
      </trkpt>
      <trkpt lat="45.43938" lon="2.52763">
        <ele>635.69</ele>
        <time>2022-08-17T12:48:40Z</time>
      </trkpt>
      <trkpt lat="45.4394" lon="2.52763">
        <ele>633.14</ele>
        <time>2022-08-17T12:49:06Z</time>
      </trkpt>
      <trkpt lat="45.4394" lon="2.52764">
        <ele>633.14</ele>
        <time>2022-08-17T12:49:29Z</time>
      </trkpt>
      <trkpt lat="45.43939" lon="2.5277">
        <ele>633.15</ele>
        <time>2022-08-17T12:49:30Z</time>
      </trkpt>
      <trkpt lat="45.43941" lon="2.52779">
        <ele>633.15</ele>
        <time>2022-08-17T12:49:31Z</time>
      </trkpt>
      <trkpt lat="45.43943" lon="2.5279">
        <ele>633.14</ele>
        <time>2022-08-17T12:49:32Z</time>
      </trkpt>
      <trkpt lat="45.43947" lon="2.52801">
        <ele>633.18</ele>
        <time>2022-08-17T12:49:33Z</time>
      </trkpt>
      <trkpt lat="45.43977" lon="2.52869">
        <ele>635.88</ele>
        <time>2022-08-17T12:49:38Z</time>
      </trkpt>
      <trkpt lat="45.44038" lon="2.53015">
        <ele>638.18</ele>
        <time>2022-08-17T12:49:47Z</time>
      </trkpt>
      <trkpt lat="45.44105" lon="2.53178">
        <ele>641.93</ele>
        <time>2022-08-17T12:49:56Z</time>
      </trkpt>
      <trkpt lat="45.44182" lon="2.53364">
        <ele>641.76</ele>
        <time>2022-08-17T12:50:08Z</time>
      </trkpt>
      <trkpt lat="45.44287" lon="2.53621">
        <ele>645.46</ele>
        <time>2022-08-17T12:50:24Z</time>
      </trkpt>
      <trkpt lat="45.44294" lon="2.53637">
        <ele>645.5</ele>
        <time>2022-08-17T12:50:25Z</time>
      </trkpt>
      <trkpt lat="45.4434" lon="2.53802">
        <ele>645.29</ele>
        <time>2022-08-17T12:50:34Z</time>
      </trkpt>
      <trkpt lat="45.44359" lon="2.53862">
        <ele>640.98</ele>
        <time>2022-08-17T12:50:37Z</time>
      </trkpt>
      <trkpt lat="45.44366" lon="2.53882">
        <ele>640.95</ele>
        <time>2022-08-17T12:50:38Z</time>
      </trkpt>
      <trkpt lat="45.44403" lon="2.53967">
        <ele>637.15</ele>
        <time>2022-08-17T12:50:42Z</time>
      </trkpt>
      <trkpt lat="45.44415" lon="2.53985">
        <ele>636.3</ele>
        <time>2022-08-17T12:50:43Z</time>
      </trkpt>
      <trkpt lat="45.44429" lon="2.54003">
        <ele>636.29</ele>
        <time>2022-08-17T12:50:44Z</time>
      </trkpt>
      <trkpt lat="45.44443" lon="2.54019">
        <ele>634.74</ele>
        <time>2022-08-17T12:50:45Z</time>
      </trkpt>
      <trkpt lat="45.44459" lon="2.54034">
        <ele>634.73</ele>
        <time>2022-08-17T12:50:46Z</time>
      </trkpt>
      <trkpt lat="45.44476" lon="2.54047">
        <ele>634.73</ele>
        <time>2022-08-17T12:50:47Z</time>
      </trkpt>
      <trkpt lat="45.44493" lon="2.54058">
        <ele>633.48</ele>
        <time>2022-08-17T12:50:48Z</time>
      </trkpt>
      <trkpt lat="45.4451" lon="2.54068">
        <ele>633.48</ele>
        <time>2022-08-17T12:50:49Z</time>
      </trkpt>
      <trkpt lat="45.44528" lon="2.54077">
        <ele>633.43</ele>
        <time>2022-08-17T12:50:50Z</time>
      </trkpt>
      <trkpt lat="45.44619" lon="2.54126">
        <ele>635.84</ele>
        <time>2022-08-17T12:50:55Z</time>
      </trkpt>
      <trkpt lat="45.44673" lon="2.5417">
        <ele>639.64</ele>
        <time>2022-08-17T12:50:58Z</time>
      </trkpt>
      <trkpt lat="45.44711" lon="2.54204">
        <ele>644.27</ele>
        <time>2022-08-17T12:51:00Z</time>
      </trkpt>
      <trkpt lat="45.44748" lon="2.54238">
        <ele>645.19</ele>
        <time>2022-08-17T12:51:02Z</time>
      </trkpt>
      <trkpt lat="45.44855" lon="2.54348">
        <ele>647.62</ele>
        <time>2022-08-17T12:51:09Z</time>
      </trkpt>
      <trkpt lat="45.44867" lon="2.54365">
        <ele>648.43</ele>
        <time>2022-08-17T12:51:10Z</time>
      </trkpt>
      <trkpt lat="45.45034" lon="2.54655">
        <ele>648.15</ele>
        <time>2022-08-17T12:51:25Z</time>
      </trkpt>
      <trkpt lat="45.45196" lon="2.54991">
        <ele>649.16</ele>
        <time>2022-08-17T12:51:41Z</time>
      </trkpt>
      <trkpt lat="45.45278" lon="2.55129">
        <ele>645.77</ele>
        <time>2022-08-17T12:51:48Z</time>
      </trkpt>
      <trkpt lat="45.45305" lon="2.55163">
        <ele>642.13</ele>
        <time>2022-08-17T12:51:50Z</time>
      </trkpt>
      <trkpt lat="45.45345" lon="2.5521">
        <ele>638.05</ele>
        <time>2022-08-17T12:51:53Z</time>
      </trkpt>
      <trkpt lat="45.45386" lon="2.55256">
        <ele>635.65</ele>
        <time>2022-08-17T12:51:56Z</time>
      </trkpt>
      <trkpt lat="45.45414" lon="2.55287">
        <ele>634.38</ele>
        <time>2022-08-17T12:51:58Z</time>
      </trkpt>
      <trkpt lat="45.45444" lon="2.55312">
        <ele>633.23</ele>
        <time>2022-08-17T12:52:00Z</time>
      </trkpt>
      <trkpt lat="45.45541" lon="2.55365">
        <ele>637.38</ele>
        <time>2022-08-17T12:52:06Z</time>
      </trkpt>
      <trkpt lat="45.45593" lon="2.55382">
        <ele>640.92</ele>
        <time>2022-08-17T12:52:09Z</time>
      </trkpt>
      <trkpt lat="45.45629" lon="2.55394">
        <ele>645.12</ele>
        <time>2022-08-17T12:52:11Z</time>
      </trkpt>
      <trkpt lat="45.45683" lon="2.55414">
        <ele>650.1</ele>
        <time>2022-08-17T12:52:14Z</time>
      </trkpt>
      <trkpt lat="45.4572" lon="2.55428">
        <ele>653.16</ele>
        <time>2022-08-17T12:52:16Z</time>
      </trkpt>
      <trkpt lat="45.45757" lon="2.55443">
        <ele>656.65</ele>
        <time>2022-08-17T12:52:18Z</time>
      </trkpt>
      <trkpt lat="45.45794" lon="2.55457">
        <ele>659.86</ele>
        <time>2022-08-17T12:52:20Z</time>
      </trkpt>
      <trkpt lat="45.4585" lon="2.55479">
        <ele>663.98</ele>
        <time>2022-08-17T12:52:23Z</time>
      </trkpt>
      <trkpt lat="45.45868" lon="2.55487">
        <ele>664</ele>
        <time>2022-08-17T12:52:24Z</time>
      </trkpt>
      <trkpt lat="45.45905" lon="2.55502">
        <ele>668.23</ele>
        <time>2022-08-17T12:52:26Z</time>
      </trkpt>
      <trkpt lat="45.45942" lon="2.55518">
        <ele>671.61</ele>
        <time>2022-08-17T12:52:28Z</time>
      </trkpt>
      <trkpt lat="45.45979" lon="2.55533">
        <ele>674.7</ele>
        <time>2022-08-17T12:52:30Z</time>
      </trkpt>
      <trkpt lat="45.46016" lon="2.55547">
        <ele>678.4</ele>
        <time>2022-08-17T12:52:32Z</time>
      </trkpt>
      <trkpt lat="45.46073" lon="2.55569">
        <ele>682.07</ele>
        <time>2022-08-17T12:52:35Z</time>
      </trkpt>
      <trkpt lat="45.46168" lon="2.55602">
        <ele>686.52</ele>
        <time>2022-08-17T12:52:40Z</time>
      </trkpt>
      <trkpt lat="45.46225" lon="2.55621">
        <ele>688.69</ele>
        <time>2022-08-17T12:52:43Z</time>
      </trkpt>
      <trkpt lat="45.46316" lon="2.5565">
        <ele>691.47</ele>
        <time>2022-08-17T12:52:48Z</time>
      </trkpt>
      <trkpt lat="45.4637" lon="2.55667">
        <ele>695.39</ele>
        <time>2022-08-17T12:52:51Z</time>
      </trkpt>
      <trkpt lat="45.46387" lon="2.55673">
        <ele>695.36</ele>
        <time>2022-08-17T12:52:52Z</time>
      </trkpt>
      <trkpt lat="45.46423" lon="2.55686">
        <ele>698.45</ele>
        <time>2022-08-17T12:52:54Z</time>
      </trkpt>
      <trkpt lat="45.46475" lon="2.55708">
        <ele>701.35</ele>
        <time>2022-08-17T12:52:57Z</time>
      </trkpt>
      <trkpt lat="45.46527" lon="2.55736">
        <ele>704.71</ele>
        <time>2022-08-17T12:53:00Z</time>
      </trkpt>
      <trkpt lat="45.46561" lon="2.55756">
        <ele>705.58</ele>
        <time>2022-08-17T12:53:02Z</time>
      </trkpt>
      <trkpt lat="45.4663" lon="2.55797">
        <ele>707.38</ele>
        <time>2022-08-17T12:53:06Z</time>
      </trkpt>
      <trkpt lat="45.46719" lon="2.55849">
        <ele>710.36</ele>
        <time>2022-08-17T12:53:11Z</time>
      </trkpt>
      <trkpt lat="45.46791" lon="2.5589">
        <ele>711.85</ele>
        <time>2022-08-17T12:53:15Z</time>
      </trkpt>
      <trkpt lat="45.46901" lon="2.55954">
        <ele>715.09</ele>
        <time>2022-08-17T12:53:21Z</time>
      </trkpt>
      <trkpt lat="45.46954" lon="2.55986">
        <ele>718.09</ele>
        <time>2022-08-17T12:53:24Z</time>
      </trkpt>
      <trkpt lat="45.46972" lon="2.55996">
        <ele>718.17</ele>
        <time>2022-08-17T12:53:25Z</time>
      </trkpt>
      <trkpt lat="45.4706" lon="2.56046">
        <ele>721.24</ele>
        <time>2022-08-17T12:53:30Z</time>
      </trkpt>
      <trkpt lat="45.47115" lon="2.56071">
        <ele>725.05</ele>
        <time>2022-08-17T12:53:33Z</time>
      </trkpt>
      <trkpt lat="45.47152" lon="2.56085">
        <ele>726.07</ele>
        <time>2022-08-17T12:53:35Z</time>
      </trkpt>
      <trkpt lat="45.47189" lon="2.56098">
        <ele>728.18</ele>
        <time>2022-08-17T12:53:37Z</time>
      </trkpt>
      <trkpt lat="45.47227" lon="2.5611">
        <ele>729.58</ele>
        <time>2022-08-17T12:53:39Z</time>
      </trkpt>
      <trkpt lat="45.47284" lon="2.5613">
        <ele>731.04</ele>
        <time>2022-08-17T12:53:42Z</time>
      </trkpt>
      <trkpt lat="45.47361" lon="2.56159">
        <ele>734.05</ele>
        <time>2022-08-17T12:53:46Z</time>
      </trkpt>
      <trkpt lat="45.47399" lon="2.56172">
        <ele>735.6</ele>
        <time>2022-08-17T12:53:48Z</time>
      </trkpt>
      <trkpt lat="45.47437" lon="2.56186">
        <ele>736.8</ele>
        <time>2022-08-17T12:53:50Z</time>
      </trkpt>
      <trkpt lat="45.47476" lon="2.56199">
        <ele>738.48</ele>
        <time>2022-08-17T12:53:52Z</time>
      </trkpt>
      <trkpt lat="45.47532" lon="2.56219">
        <ele>740.17</ele>
        <time>2022-08-17T12:53:55Z</time>
      </trkpt>
      <trkpt lat="45.47624" lon="2.56252">
        <ele>742.71</ele>
        <time>2022-08-17T12:54:00Z</time>
      </trkpt>
      <trkpt lat="45.47721" lon="2.56283">
        <ele>739.85</ele>
        <time>2022-08-17T12:54:07Z</time>
      </trkpt>
      <trkpt lat="45.47725" lon="2.56281">
        <ele>739.87</ele>
        <time>2022-08-17T12:54:08Z</time>
      </trkpt>
      <trkpt lat="45.47724" lon="2.56273">
        <ele>739.87</ele>
        <time>2022-08-17T12:54:10Z</time>
      </trkpt>
      <trkpt lat="45.47724" lon="2.56269">
        <ele>739.86</ele>
        <time>2022-08-17T12:54:11Z</time>
      </trkpt>
      <trkpt lat="45.47725" lon="2.56262">
        <ele>739.87</ele>
        <time>2022-08-17T12:54:12Z</time>
      </trkpt>
      <trkpt lat="45.47728" lon="2.56254">
        <ele>739.85</ele>
        <time>2022-08-17T12:54:13Z</time>
      </trkpt>
      <trkpt lat="45.47733" lon="2.56243">
        <ele>739.88</ele>
        <time>2022-08-17T12:54:14Z</time>
      </trkpt>
      <trkpt lat="45.47739" lon="2.56232">
        <ele>742.82</ele>
        <time>2022-08-17T12:54:15Z</time>
      </trkpt>
      <trkpt lat="45.47747" lon="2.56219">
        <ele>742.82</ele>
        <time>2022-08-17T12:54:16Z</time>
      </trkpt>
      <trkpt lat="45.47773" lon="2.56177">
        <ele>745.1</ele>
        <time>2022-08-17T12:54:19Z</time>
      </trkpt>
      <trkpt lat="45.47856" lon="2.56092">
        <ele>747.01</ele>
        <time>2022-08-17T12:54:26Z</time>
      </trkpt>
      <trkpt lat="45.47938" lon="2.56039">
        <ele>750.19</ele>
        <time>2022-08-17T12:54:32Z</time>
      </trkpt>
      <trkpt lat="45.47951" lon="2.56027">
        <ele>751.11</ele>
        <time>2022-08-17T12:54:33Z</time>
      </trkpt>
      <trkpt lat="45.47962" lon="2.56012">
        <ele>751.15</ele>
        <time>2022-08-17T12:54:34Z</time>
      </trkpt>
      <trkpt lat="45.4797" lon="2.55994">
        <ele>752.35</ele>
        <time>2022-08-17T12:54:35Z</time>
      </trkpt>
      <trkpt lat="45.47978" lon="2.55977">
        <ele>752.38</ele>
        <time>2022-08-17T12:54:36Z</time>
      </trkpt>
      <trkpt lat="45.47986" lon="2.55962">
        <ele>752.38</ele>
        <time>2022-08-17T12:54:37Z</time>
      </trkpt>
      <trkpt lat="45.47997" lon="2.55949">
        <ele>752.4</ele>
        <time>2022-08-17T12:54:38Z</time>
      </trkpt>
      <trkpt lat="45.4801" lon="2.55938">
        <ele>753.61</ele>
        <time>2022-08-17T12:54:39Z</time>
      </trkpt>
      <trkpt lat="45.48024" lon="2.55928">
        <ele>753.6</ele>
        <time>2022-08-17T12:54:40Z</time>
      </trkpt>
      <trkpt lat="45.48037" lon="2.55921">
        <ele>753.64</ele>
        <time>2022-08-17T12:54:41Z</time>
      </trkpt>
      <trkpt lat="45.4805" lon="2.55916">
        <ele>753.65</ele>
        <time>2022-08-17T12:54:42Z</time>
      </trkpt>
      <trkpt lat="45.48065" lon="2.55913">
        <ele>753.64</ele>
        <time>2022-08-17T12:54:43Z</time>
      </trkpt>
      <trkpt lat="45.48081" lon="2.5591">
        <ele>753.66</ele>
        <time>2022-08-17T12:54:44Z</time>
      </trkpt>
      <trkpt lat="45.48125" lon="2.55903">
        <ele>750.43</ele>
        <time>2022-08-17T12:54:47Z</time>
      </trkpt>
      <trkpt lat="45.48138" lon="2.55901">
        <ele>750.28</ele>
        <time>2022-08-17T12:54:48Z</time>
      </trkpt>
      <trkpt lat="45.48162" lon="2.559">
        <ele>750.3</ele>
        <time>2022-08-17T12:54:50Z</time>
      </trkpt>
      <trkpt lat="45.48174" lon="2.55902">
        <ele>750.31</ele>
        <time>2022-08-17T12:54:51Z</time>
      </trkpt>
      <trkpt lat="45.48185" lon="2.55906">
        <ele>753.37</ele>
        <time>2022-08-17T12:54:52Z</time>
      </trkpt>
      <trkpt lat="45.48197" lon="2.55911">
        <ele>753.37</ele>
        <time>2022-08-17T12:54:53Z</time>
      </trkpt>
      <trkpt lat="45.48262" lon="2.55937">
        <ele>756.83</ele>
        <time>2022-08-17T12:54:58Z</time>
      </trkpt>
      <trkpt lat="45.48316" lon="2.55959">
        <ele>758.35</ele>
        <time>2022-08-17T12:55:02Z</time>
      </trkpt>
      <trkpt lat="45.48352" lon="2.55984">
        <ele>759.57</ele>
        <time>2022-08-17T12:55:05Z</time>
      </trkpt>
      <trkpt lat="45.48374" lon="2.56005">
        <ele>760.8</ele>
        <time>2022-08-17T12:55:07Z</time>
      </trkpt>
      <trkpt lat="45.48502" lon="2.56125">
        <ele>761.43</ele>
        <time>2022-08-17T12:55:17Z</time>
      </trkpt>
      <trkpt lat="45.48549" lon="2.56164">
        <ele>762.36</ele>
        <time>2022-08-17T12:55:21Z</time>
      </trkpt>
      <trkpt lat="45.48562" lon="2.5617">
        <ele>762.34</ele>
        <time>2022-08-17T12:55:22Z</time>
      </trkpt>
      <trkpt lat="45.48576" lon="2.56173">
        <ele>762.32</ele>
        <time>2022-08-17T12:55:23Z</time>
      </trkpt>
      <trkpt lat="45.4859" lon="2.56174">
        <ele>762.31</ele>
        <time>2022-08-17T12:55:24Z</time>
      </trkpt>
      <trkpt lat="45.48604" lon="2.56174">
        <ele>762.29</ele>
        <time>2022-08-17T12:55:25Z</time>
      </trkpt>
      <trkpt lat="45.4863" lon="2.56174">
        <ele>758.98</ele>
        <time>2022-08-17T12:55:27Z</time>
      </trkpt>
      <trkpt lat="45.48656" lon="2.56174">
        <ele>757.55</ele>
        <time>2022-08-17T12:55:29Z</time>
      </trkpt>
      <trkpt lat="45.48691" lon="2.56173">
        <ele>754.49</ele>
        <time>2022-08-17T12:55:32Z</time>
      </trkpt>
      <trkpt lat="45.48725" lon="2.56173">
        <ele>751.37</ele>
        <time>2022-08-17T12:55:35Z</time>
      </trkpt>
      <trkpt lat="45.48766" lon="2.56182">
        <ele>748.39</ele>
        <time>2022-08-17T12:55:39Z</time>
      </trkpt>
      <trkpt lat="45.48806" lon="2.56193">
        <ele>744.82</ele>
        <time>2022-08-17T12:55:43Z</time>
      </trkpt>
      <trkpt lat="45.48815" lon="2.56196">
        <ele>744.83</ele>
        <time>2022-08-17T12:55:44Z</time>
      </trkpt>
      <trkpt lat="45.48853" lon="2.56206">
        <ele>742.18</ele>
        <time>2022-08-17T12:55:48Z</time>
      </trkpt>
      <trkpt lat="45.48863" lon="2.56207">
        <ele>740.59</ele>
        <time>2022-08-17T12:55:49Z</time>
      </trkpt>
      <trkpt lat="45.48872" lon="2.56205">
        <ele>740.6</ele>
        <time>2022-08-17T12:55:50Z</time>
      </trkpt>
      <trkpt lat="45.4888" lon="2.56199">
        <ele>739.73</ele>
        <time>2022-08-17T12:55:51Z</time>
      </trkpt>
      <trkpt lat="45.48888" lon="2.56191">
        <ele>739.67</ele>
        <time>2022-08-17T12:55:52Z</time>
      </trkpt>
      <trkpt lat="45.48893" lon="2.56182">
        <ele>738.75</ele>
        <time>2022-08-17T12:55:53Z</time>
      </trkpt>
      <trkpt lat="45.48897" lon="2.56172">
        <ele>738.7</ele>
        <time>2022-08-17T12:55:54Z</time>
      </trkpt>
      <trkpt lat="45.48905" lon="2.56155">
        <ele>738.75</ele>
        <time>2022-08-17T12:55:56Z</time>
      </trkpt>
      <trkpt lat="45.4891" lon="2.56148">
        <ele>738.71</ele>
        <time>2022-08-17T12:55:57Z</time>
      </trkpt>
      <trkpt lat="45.48916" lon="2.56142">
        <ele>738.74</ele>
        <time>2022-08-17T12:55:58Z</time>
      </trkpt>
      <trkpt lat="45.48922" lon="2.56135">
        <ele>738.79</ele>
        <time>2022-08-17T12:55:59Z</time>
      </trkpt>
      <trkpt lat="45.48929" lon="2.56129">
        <ele>738.9</ele>
        <time>2022-08-17T12:56:00Z</time>
      </trkpt>
      <trkpt lat="45.48964" lon="2.56089">
        <ele>741.65</ele>
        <time>2022-08-17T12:56:05Z</time>
      </trkpt>
      <trkpt lat="45.48975" lon="2.56069">
        <ele>743.36</ele>
        <time>2022-08-17T12:56:07Z</time>
      </trkpt>
      <trkpt lat="45.48991" lon="2.56041">
        <ele>745.32</ele>
        <time>2022-08-17T12:56:10Z</time>
      </trkpt>
      <trkpt lat="45.48997" lon="2.56035">
        <ele>745.34</ele>
        <time>2022-08-17T12:56:11Z</time>
      </trkpt>
      <trkpt lat="45.49004" lon="2.56032">
        <ele>745.38</ele>
        <time>2022-08-17T12:56:12Z</time>
      </trkpt>
      <trkpt lat="45.49011" lon="2.56032">
        <ele>746.83</ele>
        <time>2022-08-17T12:56:13Z</time>
      </trkpt>
      <trkpt lat="45.49018" lon="2.56035">
        <ele>746.84</ele>
        <time>2022-08-17T12:56:14Z</time>
      </trkpt>
      <trkpt lat="45.49025" lon="2.56038">
        <ele>747.83</ele>
        <time>2022-08-17T12:56:15Z</time>
      </trkpt>
      <trkpt lat="45.49032" lon="2.56042">
        <ele>748.66</ele>
        <time>2022-08-17T12:56:16Z</time>
      </trkpt>
      <trkpt lat="45.49039" lon="2.56046">
        <ele>748.71</ele>
        <time>2022-08-17T12:56:17Z</time>
      </trkpt>
      <trkpt lat="45.49059" lon="2.56059">
        <ele>751.08</ele>
        <time>2022-08-17T12:56:20Z</time>
      </trkpt>
      <trkpt lat="45.49065" lon="2.56064">
        <ele>751.09</ele>
        <time>2022-08-17T12:56:21Z</time>
      </trkpt>
      <trkpt lat="45.4907" lon="2.56071">
        <ele>751.17</ele>
        <time>2022-08-17T12:56:22Z</time>
      </trkpt>
      <trkpt lat="45.49075" lon="2.5608">
        <ele>752.3</ele>
        <time>2022-08-17T12:56:23Z</time>
      </trkpt>
      <trkpt lat="45.49078" lon="2.56089">
        <ele>752.28</ele>
        <time>2022-08-17T12:56:24Z</time>
      </trkpt>
      <trkpt lat="45.49081" lon="2.56098">
        <ele>752.34</ele>
        <time>2022-08-17T12:56:25Z</time>
      </trkpt>
      <trkpt lat="45.49084" lon="2.56108">
        <ele>753.34</ele>
        <time>2022-08-17T12:56:26Z</time>
      </trkpt>
      <trkpt lat="45.49098" lon="2.56167">
        <ele>753.94</ele>
        <time>2022-08-17T12:56:32Z</time>
      </trkpt>
      <trkpt lat="45.49098" lon="2.56177">
        <ele>753.94</ele>
        <time>2022-08-17T12:56:33Z</time>
      </trkpt>
      <trkpt lat="45.49097" lon="2.56186">
        <ele>753.94</ele>
        <time>2022-08-17T12:56:34Z</time>
      </trkpt>
      <trkpt lat="45.49096" lon="2.56212">
        <ele>753.99</ele>
        <time>2022-08-17T12:56:37Z</time>
      </trkpt>
      <trkpt lat="45.49097" lon="2.56222">
        <ele>753.97</ele>
        <time>2022-08-17T12:56:38Z</time>
      </trkpt>
      <trkpt lat="45.49099" lon="2.56231">
        <ele>753.99</ele>
        <time>2022-08-17T12:56:39Z</time>
      </trkpt>
      <trkpt lat="45.49102" lon="2.5624">
        <ele>754</ele>
        <time>2022-08-17T12:56:40Z</time>
      </trkpt>
      <trkpt lat="45.49105" lon="2.5625">
        <ele>753.98</ele>
        <time>2022-08-17T12:56:41Z</time>
      </trkpt>
      <trkpt lat="45.49119" lon="2.56293">
        <ele>753.97</ele>
        <time>2022-08-17T12:56:45Z</time>
      </trkpt>
      <trkpt lat="45.49125" lon="2.56303">
        <ele>753.98</ele>
        <time>2022-08-17T12:56:46Z</time>
      </trkpt>
      <trkpt lat="45.49131" lon="2.56312">
        <ele>753.97</ele>
        <time>2022-08-17T12:56:47Z</time>
      </trkpt>
      <trkpt lat="45.49139" lon="2.56319">
        <ele>754</ele>
        <time>2022-08-17T12:56:48Z</time>
      </trkpt>
      <trkpt lat="45.49147" lon="2.56323">
        <ele>754.01</ele>
        <time>2022-08-17T12:56:49Z</time>
      </trkpt>
      <trkpt lat="45.49156" lon="2.56326">
        <ele>754.81</ele>
        <time>2022-08-17T12:56:50Z</time>
      </trkpt>
      <trkpt lat="45.49165" lon="2.56328">
        <ele>755.58</ele>
        <time>2022-08-17T12:56:51Z</time>
      </trkpt>
      <trkpt lat="45.49185" lon="2.56332">
        <ele>756.88</ele>
        <time>2022-08-17T12:56:53Z</time>
      </trkpt>
      <trkpt lat="45.49205" lon="2.56337">
        <ele>758.32</ele>
        <time>2022-08-17T12:56:55Z</time>
      </trkpt>
      <trkpt lat="45.49225" lon="2.56341">
        <ele>759.99</ele>
        <time>2022-08-17T12:56:57Z</time>
      </trkpt>
      <trkpt lat="45.49255" lon="2.56339">
        <ele>762.37</ele>
        <time>2022-08-17T12:57:00Z</time>
      </trkpt>
      <trkpt lat="45.49296" lon="2.56333">
        <ele>766.2</ele>
        <time>2022-08-17T12:57:04Z</time>
      </trkpt>
      <trkpt lat="45.49306" lon="2.56332">
        <ele>766.21</ele>
        <time>2022-08-17T12:57:05Z</time>
      </trkpt>
      <trkpt lat="45.49326" lon="2.56334">
        <ele>767.6</ele>
        <time>2022-08-17T12:57:07Z</time>
      </trkpt>
      <trkpt lat="45.49347" lon="2.56337">
        <ele>768.87</ele>
        <time>2022-08-17T12:57:09Z</time>
      </trkpt>
      <trkpt lat="45.49368" lon="2.56339">
        <ele>770.05</ele>
        <time>2022-08-17T12:57:11Z</time>
      </trkpt>
      <trkpt lat="45.49399" lon="2.5634">
        <ele>772.7</ele>
        <time>2022-08-17T12:57:14Z</time>
      </trkpt>
      <trkpt lat="45.49451" lon="2.56345">
        <ele>776.14</ele>
        <time>2022-08-17T12:57:19Z</time>
      </trkpt>
      <trkpt lat="45.49499" lon="2.56352">
        <ele>776.25</ele>
        <time>2022-08-17T12:57:24Z</time>
      </trkpt>
      <trkpt lat="45.49508" lon="2.56355">
        <ele>776.26</ele>
        <time>2022-08-17T12:57:25Z</time>
      </trkpt>
      <trkpt lat="45.49516" lon="2.56362">
        <ele>776.28</ele>
        <time>2022-08-17T12:57:26Z</time>
      </trkpt>
      <trkpt lat="45.49523" lon="2.56371">
        <ele>776.24</ele>
        <time>2022-08-17T12:57:27Z</time>
      </trkpt>
      <trkpt lat="45.49529" lon="2.56384">
        <ele>776.22</ele>
        <time>2022-08-17T12:57:28Z</time>
      </trkpt>
      <trkpt lat="45.49536" lon="2.56397">
        <ele>773.51</ele>
        <time>2022-08-17T12:57:29Z</time>
      </trkpt>
      <trkpt lat="45.49543" lon="2.5641">
        <ele>773.45</ele>
        <time>2022-08-17T12:57:30Z</time>
      </trkpt>
      <trkpt lat="45.49552" lon="2.56421">
        <ele>772.55</ele>
        <time>2022-08-17T12:57:31Z</time>
      </trkpt>
      <trkpt lat="45.49561" lon="2.56431">
        <ele>771.19</ele>
        <time>2022-08-17T12:57:32Z</time>
      </trkpt>
      <trkpt lat="45.49571" lon="2.56439">
        <ele>771.16</ele>
        <time>2022-08-17T12:57:33Z</time>
      </trkpt>
      <trkpt lat="45.49581" lon="2.56443">
        <ele>769.9</ele>
        <time>2022-08-17T12:57:34Z</time>
      </trkpt>
      <trkpt lat="45.49591" lon="2.56444">
        <ele>769.84</ele>
        <time>2022-08-17T12:57:35Z</time>
      </trkpt>
      <trkpt lat="45.49601" lon="2.56441">
        <ele>768.89</ele>
        <time>2022-08-17T12:57:36Z</time>
      </trkpt>
      <trkpt lat="45.49611" lon="2.56437">
        <ele>768.03</ele>
        <time>2022-08-17T12:57:37Z</time>
      </trkpt>
      <trkpt lat="45.49622" lon="2.56434">
        <ele>767.98</ele>
        <time>2022-08-17T12:57:38Z</time>
      </trkpt>
      <trkpt lat="45.4967" lon="2.56425">
        <ele>765.11</ele>
        <time>2022-08-17T12:57:42Z</time>
      </trkpt>
      <trkpt lat="45.49683" lon="2.56425">
        <ele>765.05</ele>
        <time>2022-08-17T12:57:43Z</time>
      </trkpt>
      <trkpt lat="45.49694" lon="2.56427">
        <ele>763.86</ele>
        <time>2022-08-17T12:57:44Z</time>
      </trkpt>
      <trkpt lat="45.49727" lon="2.56436">
        <ele>760.25</ele>
        <time>2022-08-17T12:57:47Z</time>
      </trkpt>
      <trkpt lat="45.49735" lon="2.56443">
        <ele>758.63</ele>
        <time>2022-08-17T12:57:48Z</time>
      </trkpt>
      <trkpt lat="45.49741" lon="2.56452">
        <ele>758.63</ele>
        <time>2022-08-17T12:57:49Z</time>
      </trkpt>
      <trkpt lat="45.49744" lon="2.56465">
        <ele>756.95</ele>
        <time>2022-08-17T12:57:50Z</time>
      </trkpt>
      <trkpt lat="45.49745" lon="2.56478">
        <ele>756.96</ele>
        <time>2022-08-17T12:57:51Z</time>
      </trkpt>
      <trkpt lat="45.49745" lon="2.56492">
        <ele>755.93</ele>
        <time>2022-08-17T12:57:52Z</time>
      </trkpt>
      <trkpt lat="45.49744" lon="2.56507">
        <ele>755.86</ele>
        <time>2022-08-17T12:57:53Z</time>
      </trkpt>
      <trkpt lat="45.49744" lon="2.56523">
        <ele>754.47</ele>
        <time>2022-08-17T12:57:54Z</time>
      </trkpt>
      <trkpt lat="45.49745" lon="2.56539">
        <ele>754.49</ele>
        <time>2022-08-17T12:57:55Z</time>
      </trkpt>
      <trkpt lat="45.49748" lon="2.56556">
        <ele>753.48</ele>
        <time>2022-08-17T12:57:56Z</time>
      </trkpt>
      <trkpt lat="45.49752" lon="2.56574">
        <ele>753.48</ele>
        <time>2022-08-17T12:57:57Z</time>
      </trkpt>
      <trkpt lat="45.49757" lon="2.5659">
        <ele>751.44</ele>
        <time>2022-08-17T12:57:58Z</time>
      </trkpt>
      <trkpt lat="45.49763" lon="2.56607">
        <ele>751.47</ele>
        <time>2022-08-17T12:57:59Z</time>
      </trkpt>
      <trkpt lat="45.49771" lon="2.56623">
        <ele>750.45</ele>
        <time>2022-08-17T12:58:00Z</time>
      </trkpt>
      <trkpt lat="45.49779" lon="2.56638">
        <ele>750.51</ele>
        <time>2022-08-17T12:58:01Z</time>
      </trkpt>
      <trkpt lat="45.49806" lon="2.5668">
        <ele>748.15</ele>
        <time>2022-08-17T12:58:04Z</time>
      </trkpt>
      <trkpt lat="45.49829" lon="2.56722">
        <ele>744.88</ele>
        <time>2022-08-17T12:58:07Z</time>
      </trkpt>
      <trkpt lat="45.49835" lon="2.56736">
        <ele>744.88</ele>
        <time>2022-08-17T12:58:08Z</time>
      </trkpt>
      <trkpt lat="45.4984" lon="2.56751">
        <ele>743.98</ele>
        <time>2022-08-17T12:58:09Z</time>
      </trkpt>
      <trkpt lat="45.49842" lon="2.56767">
        <ele>742.88</ele>
        <time>2022-08-17T12:58:10Z</time>
      </trkpt>
      <trkpt lat="45.49843" lon="2.56782">
        <ele>741.91</ele>
        <time>2022-08-17T12:58:11Z</time>
      </trkpt>
      <trkpt lat="45.49839" lon="2.56797">
        <ele>741.93</ele>
        <time>2022-08-17T12:58:12Z</time>
      </trkpt>
      <trkpt lat="45.49836" lon="2.56811">
        <ele>741.69</ele>
        <time>2022-08-17T12:58:13Z</time>
      </trkpt>
      <trkpt lat="45.49831" lon="2.56825">
        <ele>740.12</ele>
        <time>2022-08-17T12:58:14Z</time>
      </trkpt>
      <trkpt lat="45.49828" lon="2.56838">
        <ele>740.12</ele>
        <time>2022-08-17T12:58:15Z</time>
      </trkpt>
      <trkpt lat="45.49822" lon="2.56866">
        <ele>739.19</ele>
        <time>2022-08-17T12:58:17Z</time>
      </trkpt>
      <trkpt lat="45.49819" lon="2.56879">
        <ele>737.96</ele>
        <time>2022-08-17T12:58:18Z</time>
      </trkpt>
      <trkpt lat="45.4982" lon="2.5689">
        <ele>736.94</ele>
        <time>2022-08-17T12:58:19Z</time>
      </trkpt>
      <trkpt lat="45.49823" lon="2.56901">
        <ele>736.94</ele>
        <time>2022-08-17T12:58:20Z</time>
      </trkpt>
      <trkpt lat="45.49827" lon="2.56911">
        <ele>736.96</ele>
        <time>2022-08-17T12:58:21Z</time>
      </trkpt>
      <trkpt lat="45.49832" lon="2.56921">
        <ele>736.9</ele>
        <time>2022-08-17T12:58:22Z</time>
      </trkpt>
      <trkpt lat="45.49837" lon="2.5693">
        <ele>735.7</ele>
        <time>2022-08-17T12:58:23Z</time>
      </trkpt>
      <trkpt lat="45.49844" lon="2.56936">
        <ele>735.67</ele>
        <time>2022-08-17T12:58:24Z</time>
      </trkpt>
      <trkpt lat="45.4985" lon="2.56939">
        <ele>735.69</ele>
        <time>2022-08-17T12:58:25Z</time>
      </trkpt>
      <trkpt lat="45.49857" lon="2.5694">
        <ele>735.64</ele>
        <time>2022-08-17T12:58:26Z</time>
      </trkpt>
      <trkpt lat="45.49866" lon="2.56938">
        <ele>734.73</ele>
        <time>2022-08-17T12:58:27Z</time>
      </trkpt>
      <trkpt lat="45.49873" lon="2.56936">
        <ele>734.75</ele>
        <time>2022-08-17T12:58:28Z</time>
      </trkpt>
      <trkpt lat="45.4988" lon="2.56932">
        <ele>734.74</ele>
        <time>2022-08-17T12:58:29Z</time>
      </trkpt>
      <trkpt lat="45.49886" lon="2.56924">
        <ele>734.77</ele>
        <time>2022-08-17T12:58:30Z</time>
      </trkpt>
      <trkpt lat="45.49893" lon="2.56916">
        <ele>734.8</ele>
        <time>2022-08-17T12:58:31Z</time>
      </trkpt>
      <trkpt lat="45.49901" lon="2.56905">
        <ele>734.8</ele>
        <time>2022-08-17T12:58:32Z</time>
      </trkpt>
      <trkpt lat="45.49904" lon="2.56892">
        <ele>734.8</ele>
        <time>2022-08-17T12:58:33Z</time>
      </trkpt>
      <trkpt lat="45.49905" lon="2.56879">
        <ele>734.81</ele>
        <time>2022-08-17T12:58:34Z</time>
      </trkpt>
      <trkpt lat="45.49906" lon="2.56867">
        <ele>734.78</ele>
        <time>2022-08-17T12:58:35Z</time>
      </trkpt>
      <trkpt lat="45.49906" lon="2.56825">
        <ele>734.1</ele>
        <time>2022-08-17T12:58:40Z</time>
      </trkpt>
      <trkpt lat="45.49905" lon="2.56823">
        <ele>734.08</ele>
        <time>2022-08-17T12:58:41Z</time>
      </trkpt>
      <trkpt lat="45.49905" lon="2.5682">
        <ele>733.22</ele>
        <time>2022-08-17T12:58:44Z</time>
      </trkpt>
      <trkpt lat="45.49903" lon="2.56821">
        <ele>733.23</ele>
        <time>2022-08-17T12:58:45Z</time>
      </trkpt>
      <trkpt lat="45.49902" lon="2.56825">
        <ele>733.25</ele>
        <time>2022-08-17T12:58:46Z</time>
      </trkpt>
      <trkpt lat="45.499" lon="2.56832">
        <ele>733.22</ele>
        <time>2022-08-17T12:58:47Z</time>
      </trkpt>
      <trkpt lat="45.49898" lon="2.56842">
        <ele>733.22</ele>
        <time>2022-08-17T12:58:48Z</time>
      </trkpt>
      <trkpt lat="45.49895" lon="2.56854">
        <ele>733.22</ele>
        <time>2022-08-17T12:58:49Z</time>
      </trkpt>
      <trkpt lat="45.49892" lon="2.56875">
        <ele>733.21</ele>
        <time>2022-08-17T12:58:51Z</time>
      </trkpt>
      <trkpt lat="45.49876" lon="2.56915">
        <ele>733.23</ele>
        <time>2022-08-17T12:58:56Z</time>
      </trkpt>
      <trkpt lat="45.49874" lon="2.5692">
        <ele>733.22</ele>
        <time>2022-08-17T12:58:57Z</time>
      </trkpt>
      <trkpt lat="45.49875" lon="2.56925">
        <ele>733.25</ele>
        <time>2022-08-17T12:58:58Z</time>
      </trkpt>
      <trkpt lat="45.49877" lon="2.56931">
        <ele>733.32</ele>
        <time>2022-08-17T12:58:59Z</time>
      </trkpt>
      <trkpt lat="45.4988" lon="2.56937">
        <ele>736.05</ele>
        <time>2022-08-17T12:59:00Z</time>
      </trkpt>
      <trkpt lat="45.49888" lon="2.56952">
        <ele>737.15</ele>
        <time>2022-08-17T12:59:02Z</time>
      </trkpt>
      <trkpt lat="45.49905" lon="2.56979">
        <ele>740.76</ele>
        <time>2022-08-17T12:59:05Z</time>
      </trkpt>
      <trkpt lat="45.49913" lon="2.56987">
        <ele>742.01</ele>
        <time>2022-08-17T12:59:06Z</time>
      </trkpt>
      <trkpt lat="45.4992" lon="2.56994">
        <ele>742.86</ele>
        <time>2022-08-17T12:59:07Z</time>
      </trkpt>
      <trkpt lat="45.49943" lon="2.57013">
        <ele>744.59</ele>
        <time>2022-08-17T12:59:10Z</time>
      </trkpt>
      <trkpt lat="45.49957" lon="2.57026">
        <ele>745.88</ele>
        <time>2022-08-17T12:59:12Z</time>
      </trkpt>
      <trkpt lat="45.49972" lon="2.57035">
        <ele>747.36</ele>
        <time>2022-08-17T12:59:14Z</time>
      </trkpt>
      <trkpt lat="45.49988" lon="2.57043">
        <ele>748.27</ele>
        <time>2022-08-17T12:59:16Z</time>
      </trkpt>
      <trkpt lat="45.49996" lon="2.57047">
        <ele>749.13</ele>
        <time>2022-08-17T12:59:17Z</time>
      </trkpt>
      <trkpt lat="45.50055" lon="2.57057">
        <ele>750.11</ele>
        <time>2022-08-17T12:59:24Z</time>
      </trkpt>
      <trkpt lat="45.50077" lon="2.57069">
        <ele>750.52</ele>
        <time>2022-08-17T12:59:29Z</time>
      </trkpt>
      <trkpt lat="45.50078" lon="2.57069">
        <ele>750.52</ele>
        <time>2022-08-17T12:59:30Z</time>
      </trkpt>
      <trkpt lat="45.50081" lon="2.57075">
        <ele>750.5</ele>
        <time>2022-08-17T12:59:43Z</time>
      </trkpt>
      <trkpt lat="45.50084" lon="2.57077">
        <ele>750.79</ele>
        <time>2022-08-17T13:00:44Z</time>
      </trkpt>
      <trkpt lat="45.50082" lon="2.57076">
        <ele>750.82</ele>
        <time>2022-08-17T13:00:48Z</time>
      </trkpt>
      <trkpt lat="45.50079" lon="2.57076">
        <ele>750.82</ele>
        <time>2022-08-17T13:00:49Z</time>
      </trkpt>
      <trkpt lat="45.50069" lon="2.57073">
        <ele>750.85</ele>
        <time>2022-08-17T13:00:51Z</time>
      </trkpt>
      <trkpt lat="45.50063" lon="2.57071">
        <ele>750.86</ele>
        <time>2022-08-17T13:00:52Z</time>
      </trkpt>
      <trkpt lat="45.49995" lon="2.57056">
        <ele>750.87</ele>
        <time>2022-08-17T13:00:59Z</time>
      </trkpt>
      <trkpt lat="45.49987" lon="2.57052">
        <ele>750.88</ele>
        <time>2022-08-17T13:01:00Z</time>
      </trkpt>
      <trkpt lat="45.49979" lon="2.57046">
        <ele>750.88</ele>
        <time>2022-08-17T13:01:01Z</time>
      </trkpt>
      <trkpt lat="45.49956" lon="2.57027">
        <ele>748.36</ele>
        <time>2022-08-17T13:01:04Z</time>
      </trkpt>
      <trkpt lat="45.49933" lon="2.57006">
        <ele>744.77</ele>
        <time>2022-08-17T13:01:07Z</time>
      </trkpt>
      <trkpt lat="45.49926" lon="2.56999">
        <ele>743.84</ele>
        <time>2022-08-17T13:01:08Z</time>
      </trkpt>
      <trkpt lat="45.49919" lon="2.5699">
        <ele>742.65</ele>
        <time>2022-08-17T13:01:09Z</time>
      </trkpt>
      <trkpt lat="45.49901" lon="2.56962">
        <ele>739.53</ele>
        <time>2022-08-17T13:01:12Z</time>
      </trkpt>
      <trkpt lat="45.49897" lon="2.56952">
        <ele>739.47</ele>
        <time>2022-08-17T13:01:13Z</time>
      </trkpt>
      <trkpt lat="45.49888" lon="2.5693">
        <ele>735.66</ele>
        <time>2022-08-17T13:01:16Z</time>
      </trkpt>
      <trkpt lat="45.49887" lon="2.56926">
        <ele>735.66</ele>
        <time>2022-08-17T13:01:17Z</time>
      </trkpt>
      <trkpt lat="45.49887" lon="2.56922">
        <ele>735.58</ele>
        <time>2022-08-17T13:01:18Z</time>
      </trkpt>
      <trkpt lat="45.49889" lon="2.56917">
        <ele>734.6</ele>
        <time>2022-08-17T13:01:19Z</time>
      </trkpt>
      <trkpt lat="45.49893" lon="2.5691">
        <ele>734.57</ele>
        <time>2022-08-17T13:01:20Z</time>
      </trkpt>
      <trkpt lat="45.49904" lon="2.56891">
        <ele>734.5</ele>
        <time>2022-08-17T13:01:22Z</time>
      </trkpt>
      <trkpt lat="45.49908" lon="2.56878">
        <ele>734.48</ele>
        <time>2022-08-17T13:01:23Z</time>
      </trkpt>
      <trkpt lat="45.49911" lon="2.56865">
        <ele>734.57</ele>
        <time>2022-08-17T13:01:24Z</time>
      </trkpt>
      <trkpt lat="45.49911" lon="2.5685">
        <ele>734.65</ele>
        <time>2022-08-17T13:01:25Z</time>
      </trkpt>
      <trkpt lat="45.49911" lon="2.56834">
        <ele>734.62</ele>
        <time>2022-08-17T13:01:26Z</time>
      </trkpt>
      <trkpt lat="45.49902" lon="2.56677">
        <ele>733.48</ele>
        <time>2022-08-17T13:01:35Z</time>
      </trkpt>
      <trkpt lat="45.49898" lon="2.56662">
        <ele>733.48</ele>
        <time>2022-08-17T13:01:36Z</time>
      </trkpt>
      <trkpt lat="45.49892" lon="2.56649">
        <ele>733.48</ele>
        <time>2022-08-17T13:01:37Z</time>
      </trkpt>
      <trkpt lat="45.49885" lon="2.56636">
        <ele>733.49</ele>
        <time>2022-08-17T13:01:38Z</time>
      </trkpt>
      <trkpt lat="45.49855" lon="2.56584">
        <ele>733.46</ele>
        <time>2022-08-17T13:01:42Z</time>
      </trkpt>
      <trkpt lat="45.4985" lon="2.56569">
        <ele>733.47</ele>
        <time>2022-08-17T13:01:43Z</time>
      </trkpt>
      <trkpt lat="45.49847" lon="2.56554">
        <ele>733.47</ele>
        <time>2022-08-17T13:01:44Z</time>
      </trkpt>
      <trkpt lat="45.49847" lon="2.56539">
        <ele>733.45</ele>
        <time>2022-08-17T13:01:45Z</time>
      </trkpt>
      <trkpt lat="45.49849" lon="2.56524">
        <ele>733.45</ele>
        <time>2022-08-17T13:01:46Z</time>
      </trkpt>
      <trkpt lat="45.49853" lon="2.5651">
        <ele>733.46</ele>
        <time>2022-08-17T13:01:47Z</time>
      </trkpt>
      <trkpt lat="45.4986" lon="2.56494">
        <ele>733.48</ele>
        <time>2022-08-17T13:01:48Z</time>
      </trkpt>
      <trkpt lat="45.49869" lon="2.56478">
        <ele>733.48</ele>
        <time>2022-08-17T13:01:49Z</time>
      </trkpt>
      <trkpt lat="45.49907" lon="2.564">
        <ele>733.6</ele>
        <time>2022-08-17T13:01:54Z</time>
      </trkpt>
      <trkpt lat="45.49912" lon="2.56383">
        <ele>733.65</ele>
        <time>2022-08-17T13:01:55Z</time>
      </trkpt>
      <trkpt lat="45.49927" lon="2.56336">
        <ele>733.61</ele>
        <time>2022-08-17T13:01:58Z</time>
      </trkpt>
      <trkpt lat="45.49936" lon="2.56321">
        <ele>733.61</ele>
        <time>2022-08-17T13:01:59Z</time>
      </trkpt>
      <trkpt lat="45.49955" lon="2.56293">
        <ele>737.38</ele>
        <time>2022-08-17T13:02:01Z</time>
      </trkpt>
      <trkpt lat="45.49964" lon="2.5628">
        <ele>737.39</ele>
        <time>2022-08-17T13:02:02Z</time>
      </trkpt>
      <trkpt lat="45.49978" lon="2.56252">
        <ele>739.18</ele>
        <time>2022-08-17T13:02:04Z</time>
      </trkpt>
      <trkpt lat="45.49984" lon="2.56237">
        <ele>739.26</ele>
        <time>2022-08-17T13:02:05Z</time>
      </trkpt>
      <trkpt lat="45.49998" lon="2.56194">
        <ele>741.49</ele>
        <time>2022-08-17T13:02:08Z</time>
      </trkpt>
      <trkpt lat="45.5001" lon="2.56168">
        <ele>743.41</ele>
        <time>2022-08-17T13:02:10Z</time>
      </trkpt>
      <trkpt lat="45.50018" lon="2.56156">
        <ele>743.47</ele>
        <time>2022-08-17T13:02:11Z</time>
      </trkpt>
      <trkpt lat="45.50034" lon="2.56136">
        <ele>744.97</ele>
        <time>2022-08-17T13:02:13Z</time>
      </trkpt>
      <trkpt lat="45.50043" lon="2.56127">
        <ele>745.97</ele>
        <time>2022-08-17T13:02:14Z</time>
      </trkpt>
      <trkpt lat="45.50052" lon="2.56121">
        <ele>745.98</ele>
        <time>2022-08-17T13:02:15Z</time>
      </trkpt>
      <trkpt lat="45.50063" lon="2.56116">
        <ele>747.1</ele>
        <time>2022-08-17T13:02:16Z</time>
      </trkpt>
      <trkpt lat="45.50073" lon="2.56116">
        <ele>747.08</ele>
        <time>2022-08-17T13:02:17Z</time>
      </trkpt>
      <trkpt lat="45.50085" lon="2.56117">
        <ele>748.07</ele>
        <time>2022-08-17T13:02:18Z</time>
      </trkpt>
      <trkpt lat="45.50097" lon="2.56121">
        <ele>749.55</ele>
        <time>2022-08-17T13:02:19Z</time>
      </trkpt>
      <trkpt lat="45.50109" lon="2.56125">
        <ele>750.31</ele>
        <time>2022-08-17T13:02:20Z</time>
      </trkpt>
      <trkpt lat="45.5012" lon="2.56131">
        <ele>750.86</ele>
        <time>2022-08-17T13:02:21Z</time>
      </trkpt>
      <trkpt lat="45.50131" lon="2.56139">
        <ele>750.86</ele>
        <time>2022-08-17T13:02:22Z</time>
      </trkpt>
      <trkpt lat="45.50142" lon="2.56147">
        <ele>752.16</ele>
        <time>2022-08-17T13:02:23Z</time>
      </trkpt>
      <trkpt lat="45.50164" lon="2.56161">
        <ele>753.84</ele>
        <time>2022-08-17T13:02:25Z</time>
      </trkpt>
      <trkpt lat="45.50176" lon="2.56164">
        <ele>753.92</ele>
        <time>2022-08-17T13:02:26Z</time>
      </trkpt>
      <trkpt lat="45.50188" lon="2.56166">
        <ele>755.29</ele>
        <time>2022-08-17T13:02:27Z</time>
      </trkpt>
      <trkpt lat="45.50213" lon="2.56167">
        <ele>756.18</ele>
        <time>2022-08-17T13:02:29Z</time>
      </trkpt>
      <trkpt lat="45.50237" lon="2.56168">
        <ele>757.89</ele>
        <time>2022-08-17T13:02:31Z</time>
      </trkpt>
      <trkpt lat="45.50262" lon="2.56169">
        <ele>759.74</ele>
        <time>2022-08-17T13:02:33Z</time>
      </trkpt>
      <trkpt lat="45.50298" lon="2.5617">
        <ele>762.25</ele>
        <time>2022-08-17T13:02:36Z</time>
      </trkpt>
      <trkpt lat="45.50338" lon="2.56171">
        <ele>764.58</ele>
        <time>2022-08-17T13:02:39Z</time>
      </trkpt>
      <trkpt lat="45.504" lon="2.56172">
        <ele>764.69</ele>
        <time>2022-08-17T13:02:44Z</time>
      </trkpt>
      <trkpt lat="45.50412" lon="2.56174">
        <ele>764.09</ele>
        <time>2022-08-17T13:02:45Z</time>
      </trkpt>
      <trkpt lat="45.50451" lon="2.56182">
        <ele>765.06</ele>
        <time>2022-08-17T13:02:48Z</time>
      </trkpt>
      <trkpt lat="45.50465" lon="2.5618">
        <ele>765.07</ele>
        <time>2022-08-17T13:02:49Z</time>
      </trkpt>
      <trkpt lat="45.50481" lon="2.56174">
        <ele>766.81</ele>
        <time>2022-08-17T13:02:50Z</time>
      </trkpt>
      <trkpt lat="45.50497" lon="2.56167">
        <ele>766.87</ele>
        <time>2022-08-17T13:02:51Z</time>
      </trkpt>
      <trkpt lat="45.5057" lon="2.56125">
        <ele>767.88</ele>
        <time>2022-08-17T13:02:56Z</time>
      </trkpt>
      <trkpt lat="45.50584" lon="2.56112">
        <ele>769.02</ele>
        <time>2022-08-17T13:02:57Z</time>
      </trkpt>
      <trkpt lat="45.50597" lon="2.56096">
        <ele>770.14</ele>
        <time>2022-08-17T13:02:58Z</time>
      </trkpt>
      <trkpt lat="45.50625" lon="2.56058">
        <ele>773.73</ele>
        <time>2022-08-17T13:03:00Z</time>
      </trkpt>
      <trkpt lat="45.5065" lon="2.56022">
        <ele>774.73</ele>
        <time>2022-08-17T13:03:02Z</time>
      </trkpt>
      <trkpt lat="45.50682" lon="2.55975">
        <ele>777.7</ele>
        <time>2022-08-17T13:03:05Z</time>
      </trkpt>
      <trkpt lat="45.50708" lon="2.55937">
        <ele>778.75</ele>
        <time>2022-08-17T13:03:08Z</time>
      </trkpt>
      <trkpt lat="45.50724" lon="2.5592">
        <ele>779.45</ele>
        <time>2022-08-17T13:03:10Z</time>
      </trkpt>
      <trkpt lat="45.50733" lon="2.55912">
        <ele>780.96</ele>
        <time>2022-08-17T13:03:11Z</time>
      </trkpt>
      <trkpt lat="45.50744" lon="2.55906">
        <ele>782.14</ele>
        <time>2022-08-17T13:03:12Z</time>
      </trkpt>
      <trkpt lat="45.50757" lon="2.55903">
        <ele>782.97</ele>
        <time>2022-08-17T13:03:13Z</time>
      </trkpt>
      <trkpt lat="45.50771" lon="2.55901">
        <ele>784.44</ele>
        <time>2022-08-17T13:03:14Z</time>
      </trkpt>
      <trkpt lat="45.50805" lon="2.55895">
        <ele>785.77</ele>
        <time>2022-08-17T13:03:16Z</time>
      </trkpt>
      <trkpt lat="45.50843" lon="2.55889">
        <ele>789.86</ele>
        <time>2022-08-17T13:03:18Z</time>
      </trkpt>
      <trkpt lat="45.50882" lon="2.55883">
        <ele>791.24</ele>
        <time>2022-08-17T13:03:20Z</time>
      </trkpt>
      <trkpt lat="45.50961" lon="2.55869">
        <ele>791.28</ele>
        <time>2022-08-17T13:03:26Z</time>
      </trkpt>
      <trkpt lat="45.50986" lon="2.55867">
        <ele>790.98</ele>
        <time>2022-08-17T13:03:32Z</time>
      </trkpt>
      <trkpt lat="45.5099" lon="2.55862">
        <ele>790.91</ele>
        <time>2022-08-17T13:03:35Z</time>
      </trkpt>
      <trkpt lat="45.50991" lon="2.55856">
        <ele>790.91</ele>
        <time>2022-08-17T13:03:36Z</time>
      </trkpt>
      <trkpt lat="45.5099" lon="2.55848">
        <ele>790.96</ele>
        <time>2022-08-17T13:03:37Z</time>
      </trkpt>
      <trkpt lat="45.50987" lon="2.55819">
        <ele>790.94</ele>
        <time>2022-08-17T13:03:43Z</time>
      </trkpt>
      <trkpt lat="45.50985" lon="2.55817">
        <ele>790.95</ele>
        <time>2022-08-17T13:03:44Z</time>
      </trkpt>
      <trkpt lat="45.50985" lon="2.55819">
        <ele>790.98</ele>
        <time>2022-08-17T13:03:52Z</time>
      </trkpt>
      <trkpt lat="45.50987" lon="2.55831">
        <ele>790.99</ele>
        <time>2022-08-17T13:03:54Z</time>
      </trkpt>
      <trkpt lat="45.50991" lon="2.55837">
        <ele>791</ele>
        <time>2022-08-17T13:03:55Z</time>
      </trkpt>
      <trkpt lat="45.50995" lon="2.55842">
        <ele>791</ele>
        <time>2022-08-17T13:03:56Z</time>
      </trkpt>
      <trkpt lat="45.51001" lon="2.55842">
        <ele>791</ele>
        <time>2022-08-17T13:03:57Z</time>
      </trkpt>
      <trkpt lat="45.51006" lon="2.55839">
        <ele>791</ele>
        <time>2022-08-17T13:03:58Z</time>
      </trkpt>
      <trkpt lat="45.51012" lon="2.55833">
        <ele>790.99</ele>
        <time>2022-08-17T13:03:59Z</time>
      </trkpt>
      <trkpt lat="45.51018" lon="2.55827">
        <ele>790.98</ele>
        <time>2022-08-17T13:04:00Z</time>
      </trkpt>
      <trkpt lat="45.51103" lon="2.55741">
        <ele>791.03</ele>
        <time>2022-08-17T13:04:10Z</time>
      </trkpt>
      <trkpt lat="45.51112" lon="2.55733">
        <ele>787.72</ele>
        <time>2022-08-17T13:04:11Z</time>
      </trkpt>
      <trkpt lat="45.51138" lon="2.55712">
        <ele>785.82</ele>
        <time>2022-08-17T13:04:14Z</time>
      </trkpt>
      <trkpt lat="45.51167" lon="2.55687">
        <ele>783.99</ele>
        <time>2022-08-17T13:04:17Z</time>
      </trkpt>
      <trkpt lat="45.51255" lon="2.55618">
        <ele>781.52</ele>
        <time>2022-08-17T13:04:25Z</time>
      </trkpt>
      <trkpt lat="45.5129" lon="2.55591">
        <ele>781.5</ele>
        <time>2022-08-17T13:04:28Z</time>
      </trkpt>
      <trkpt lat="45.513" lon="2.55579">
        <ele>780.41</ele>
        <time>2022-08-17T13:04:29Z</time>
      </trkpt>
      <trkpt lat="45.51332" lon="2.55541">
        <ele>779.14</ele>
        <time>2022-08-17T13:04:32Z</time>
      </trkpt>
      <trkpt lat="45.51342" lon="2.55527">
        <ele>779.14</ele>
        <time>2022-08-17T13:04:33Z</time>
      </trkpt>
      <trkpt lat="45.5135" lon="2.55511">
        <ele>779.12</ele>
        <time>2022-08-17T13:04:34Z</time>
      </trkpt>
      <trkpt lat="45.51355" lon="2.55493">
        <ele>779.13</ele>
        <time>2022-08-17T13:04:35Z</time>
      </trkpt>
      <trkpt lat="45.51358" lon="2.55475">
        <ele>779.12</ele>
        <time>2022-08-17T13:04:36Z</time>
      </trkpt>
      <trkpt lat="45.5136" lon="2.55459">
        <ele>779.12</ele>
        <time>2022-08-17T13:04:37Z</time>
      </trkpt>
      <trkpt lat="45.51363" lon="2.55443">
        <ele>781.73</ele>
        <time>2022-08-17T13:04:38Z</time>
      </trkpt>
      <trkpt lat="45.51368" lon="2.55431">
        <ele>781.82</ele>
        <time>2022-08-17T13:04:39Z</time>
      </trkpt>
      <trkpt lat="45.51375" lon="2.5542">
        <ele>783.89</ele>
        <time>2022-08-17T13:04:40Z</time>
      </trkpt>
      <trkpt lat="45.51383" lon="2.55411">
        <ele>783.91</ele>
        <time>2022-08-17T13:04:41Z</time>
      </trkpt>
      <trkpt lat="45.51392" lon="2.55403">
        <ele>784.91</ele>
        <time>2022-08-17T13:04:42Z</time>
      </trkpt>
      <trkpt lat="45.51402" lon="2.55397">
        <ele>785.75</ele>
        <time>2022-08-17T13:04:43Z</time>
      </trkpt>
      <trkpt lat="45.51412" lon="2.55393">
        <ele>786.69</ele>
        <time>2022-08-17T13:04:44Z</time>
      </trkpt>
      <trkpt lat="45.51423" lon="2.55389">
        <ele>786.71</ele>
        <time>2022-08-17T13:04:45Z</time>
      </trkpt>
      <trkpt lat="45.51434" lon="2.55388">
        <ele>787.77</ele>
        <time>2022-08-17T13:04:46Z</time>
      </trkpt>
      <trkpt lat="45.51444" lon="2.5539">
        <ele>787.8</ele>
        <time>2022-08-17T13:04:47Z</time>
      </trkpt>
      <trkpt lat="45.51454" lon="2.55394">
        <ele>788.81</ele>
        <time>2022-08-17T13:04:48Z</time>
      </trkpt>
      <trkpt lat="45.51464" lon="2.55397">
        <ele>788.88</ele>
        <time>2022-08-17T13:04:49Z</time>
      </trkpt>
      <trkpt lat="45.515" lon="2.55411">
        <ele>789.77</ele>
        <time>2022-08-17T13:04:53Z</time>
      </trkpt>
      <trkpt lat="45.51519" lon="2.55422">
        <ele>789.97</ele>
        <time>2022-08-17T13:04:56Z</time>
      </trkpt>
      <trkpt lat="45.51526" lon="2.55428">
        <ele>790.02</ele>
        <time>2022-08-17T13:04:57Z</time>
      </trkpt>
      <trkpt lat="45.51531" lon="2.55435">
        <ele>790.95</ele>
        <time>2022-08-17T13:04:58Z</time>
      </trkpt>
      <trkpt lat="45.51537" lon="2.55443">
        <ele>791</ele>
        <time>2022-08-17T13:04:59Z</time>
      </trkpt>
      <trkpt lat="45.51543" lon="2.55452">
        <ele>790.95</ele>
        <time>2022-08-17T13:05:00Z</time>
      </trkpt>
      <trkpt lat="45.51571" lon="2.55482">
        <ele>791.97</ele>
        <time>2022-08-17T13:05:04Z</time>
      </trkpt>
      <trkpt lat="45.5158" lon="2.55486">
        <ele>792.95</ele>
        <time>2022-08-17T13:05:05Z</time>
      </trkpt>
      <trkpt lat="45.51589" lon="2.55489">
        <ele>792.97</ele>
        <time>2022-08-17T13:05:06Z</time>
      </trkpt>
      <trkpt lat="45.51598" lon="2.55491">
        <ele>793</ele>
        <time>2022-08-17T13:05:07Z</time>
      </trkpt>
      <trkpt lat="45.51607" lon="2.55492">
        <ele>793</ele>
        <time>2022-08-17T13:05:08Z</time>
      </trkpt>
      <trkpt lat="45.51705" lon="2.55527">
        <ele>793.96</ele>
        <time>2022-08-17T13:05:19Z</time>
      </trkpt>
      <trkpt lat="45.51731" lon="2.55547">
        <ele>789.85</ele>
        <time>2022-08-17T13:05:22Z</time>
      </trkpt>
      <trkpt lat="45.5174" lon="2.55555">
        <ele>789.84</ele>
        <time>2022-08-17T13:05:23Z</time>
      </trkpt>
      <trkpt lat="45.51747" lon="2.55565">
        <ele>789.84</ele>
        <time>2022-08-17T13:05:24Z</time>
      </trkpt>
      <trkpt lat="45.51755" lon="2.55576">
        <ele>788.38</ele>
        <time>2022-08-17T13:05:25Z</time>
      </trkpt>
      <trkpt lat="45.51762" lon="2.55586">
        <ele>788.39</ele>
        <time>2022-08-17T13:05:26Z</time>
      </trkpt>
      <trkpt lat="45.5177" lon="2.55594">
        <ele>788.36</ele>
        <time>2022-08-17T13:05:27Z</time>
      </trkpt>
      <trkpt lat="45.51779" lon="2.55597">
        <ele>787.41</ele>
        <time>2022-08-17T13:05:28Z</time>
      </trkpt>
      <trkpt lat="45.51788" lon="2.55596">
        <ele>787.38</ele>
        <time>2022-08-17T13:05:29Z</time>
      </trkpt>
      <trkpt lat="45.51796" lon="2.5559">
        <ele>787.35</ele>
        <time>2022-08-17T13:05:30Z</time>
      </trkpt>
      <trkpt lat="45.51803" lon="2.55581">
        <ele>787.36</ele>
        <time>2022-08-17T13:05:31Z</time>
      </trkpt>
      <trkpt lat="45.51807" lon="2.55569">
        <ele>787.34</ele>
        <time>2022-08-17T13:05:32Z</time>
      </trkpt>
      <trkpt lat="45.51811" lon="2.55556">
        <ele>787.34</ele>
        <time>2022-08-17T13:05:33Z</time>
      </trkpt>
      <trkpt lat="45.51815" lon="2.55543">
        <ele>787.35</ele>
        <time>2022-08-17T13:05:34Z</time>
      </trkpt>
      <trkpt lat="45.5182" lon="2.55531">
        <ele>787.37</ele>
        <time>2022-08-17T13:05:35Z</time>
      </trkpt>
      <trkpt lat="45.51827" lon="2.5552">
        <ele>787.32</ele>
        <time>2022-08-17T13:05:36Z</time>
      </trkpt>
      <trkpt lat="45.51834" lon="2.5551">
        <ele>787.34</ele>
        <time>2022-08-17T13:05:37Z</time>
      </trkpt>
      <trkpt lat="45.51841" lon="2.55501">
        <ele>786.15</ele>
        <time>2022-08-17T13:05:38Z</time>
      </trkpt>
      <trkpt lat="45.51848" lon="2.5549">
        <ele>786.13</ele>
        <time>2022-08-17T13:05:39Z</time>
      </trkpt>
      <trkpt lat="45.51853" lon="2.55478">
        <ele>786.15</ele>
        <time>2022-08-17T13:05:40Z</time>
      </trkpt>
      <trkpt lat="45.51857" lon="2.55465">
        <ele>784.94</ele>
        <time>2022-08-17T13:05:41Z</time>
      </trkpt>
      <trkpt lat="45.51865" lon="2.55423">
        <ele>784.12</ele>
        <time>2022-08-17T13:05:44Z</time>
      </trkpt>
      <trkpt lat="45.51869" lon="2.5541">
        <ele>782.7</ele>
        <time>2022-08-17T13:05:45Z</time>
      </trkpt>
      <trkpt lat="45.51874" lon="2.55399">
        <ele>781.88</ele>
        <time>2022-08-17T13:05:46Z</time>
      </trkpt>
      <trkpt lat="45.5188" lon="2.55388">
        <ele>781.89</ele>
        <time>2022-08-17T13:05:47Z</time>
      </trkpt>
      <trkpt lat="45.51886" lon="2.5538">
        <ele>780.41</ele>
        <time>2022-08-17T13:05:48Z</time>
      </trkpt>
      <trkpt lat="45.51893" lon="2.55371">
        <ele>780.4</ele>
        <time>2022-08-17T13:05:49Z</time>
      </trkpt>
      <trkpt lat="45.51906" lon="2.55355">
        <ele>778.42</ele>
        <time>2022-08-17T13:05:51Z</time>
      </trkpt>
      <trkpt lat="45.51917" lon="2.55338">
        <ele>777.02</ele>
        <time>2022-08-17T13:05:53Z</time>
      </trkpt>
      <trkpt lat="45.51928" lon="2.55323">
        <ele>775.78</ele>
        <time>2022-08-17T13:05:55Z</time>
      </trkpt>
      <trkpt lat="45.51935" lon="2.55316">
        <ele>775.69</ele>
        <time>2022-08-17T13:05:56Z</time>
      </trkpt>
      <trkpt lat="45.51943" lon="2.55309">
        <ele>774.81</ele>
        <time>2022-08-17T13:05:57Z</time>
      </trkpt>
      <trkpt lat="45.51952" lon="2.55304">
        <ele>774.81</ele>
        <time>2022-08-17T13:05:58Z</time>
      </trkpt>
      <trkpt lat="45.51962" lon="2.55303">
        <ele>774.76</ele>
        <time>2022-08-17T13:05:59Z</time>
      </trkpt>
      <trkpt lat="45.51973" lon="2.55302">
        <ele>773.19</ele>
        <time>2022-08-17T13:06:00Z</time>
      </trkpt>
      <trkpt lat="45.51984" lon="2.55302">
        <ele>771.52</ele>
        <time>2022-08-17T13:06:01Z</time>
      </trkpt>
      <trkpt lat="45.52015" lon="2.55303">
        <ele>768.49</ele>
        <time>2022-08-17T13:06:04Z</time>
      </trkpt>
      <trkpt lat="45.52034" lon="2.55301">
        <ele>767.52</ele>
        <time>2022-08-17T13:06:06Z</time>
      </trkpt>
      <trkpt lat="45.52054" lon="2.553">
        <ele>766.24</ele>
        <time>2022-08-17T13:06:08Z</time>
      </trkpt>
      <trkpt lat="45.52104" lon="2.55302">
        <ele>763.52</ele>
        <time>2022-08-17T13:06:12Z</time>
      </trkpt>
      <trkpt lat="45.5213" lon="2.55307">
        <ele>761.76</ele>
        <time>2022-08-17T13:06:14Z</time>
      </trkpt>
      <trkpt lat="45.52143" lon="2.55314">
        <ele>761.76</ele>
        <time>2022-08-17T13:06:15Z</time>
      </trkpt>
      <trkpt lat="45.52155" lon="2.55324">
        <ele>759.91</ele>
        <time>2022-08-17T13:06:16Z</time>
      </trkpt>
      <trkpt lat="45.52165" lon="2.55337">
        <ele>758.76</ele>
        <time>2022-08-17T13:06:17Z</time>
      </trkpt>
      <trkpt lat="45.52173" lon="2.55352">
        <ele>757.98</ele>
        <time>2022-08-17T13:06:18Z</time>
      </trkpt>
      <trkpt lat="45.52181" lon="2.55369">
        <ele>756.96</ele>
        <time>2022-08-17T13:06:19Z</time>
      </trkpt>
      <trkpt lat="45.52187" lon="2.55385">
        <ele>755.58</ele>
        <time>2022-08-17T13:06:20Z</time>
      </trkpt>
      <trkpt lat="45.52194" lon="2.55401">
        <ele>755.6</ele>
        <time>2022-08-17T13:06:21Z</time>
      </trkpt>
      <trkpt lat="45.52212" lon="2.55444">
        <ele>751.69</ele>
        <time>2022-08-17T13:06:24Z</time>
      </trkpt>
      <trkpt lat="45.52234" lon="2.55477">
        <ele>747.94</ele>
        <time>2022-08-17T13:06:27Z</time>
      </trkpt>
      <trkpt lat="45.52242" lon="2.55484">
        <ele>748.05</ele>
        <time>2022-08-17T13:06:28Z</time>
      </trkpt>
      <trkpt lat="45.52251" lon="2.55489">
        <ele>747</ele>
        <time>2022-08-17T13:06:29Z</time>
      </trkpt>
      <trkpt lat="45.5226" lon="2.55492">
        <ele>745.81</ele>
        <time>2022-08-17T13:06:30Z</time>
      </trkpt>
      <trkpt lat="45.52269" lon="2.55495">
        <ele>745.81</ele>
        <time>2022-08-17T13:06:31Z</time>
      </trkpt>
      <trkpt lat="45.52278" lon="2.55498">
        <ele>744.7</ele>
        <time>2022-08-17T13:06:32Z</time>
      </trkpt>
      <trkpt lat="45.52312" lon="2.55513">
        <ele>743.01</ele>
        <time>2022-08-17T13:06:36Z</time>
      </trkpt>
      <trkpt lat="45.52333" lon="2.55529">
        <ele>740.57</ele>
        <time>2022-08-17T13:06:39Z</time>
      </trkpt>
      <trkpt lat="45.52338" lon="2.55538">
        <ele>740.58</ele>
        <time>2022-08-17T13:06:40Z</time>
      </trkpt>
      <trkpt lat="45.52341" lon="2.55549">
        <ele>739.45</ele>
        <time>2022-08-17T13:06:41Z</time>
      </trkpt>
      <trkpt lat="45.52343" lon="2.55559">
        <ele>738.37</ele>
        <time>2022-08-17T13:06:42Z</time>
      </trkpt>
      <trkpt lat="45.52343" lon="2.55571">
        <ele>738.31</ele>
        <time>2022-08-17T13:06:43Z</time>
      </trkpt>
      <trkpt lat="45.52342" lon="2.55582">
        <ele>737.39</ele>
        <time>2022-08-17T13:06:44Z</time>
      </trkpt>
      <trkpt lat="45.5234" lon="2.55594">
        <ele>736.54</ele>
        <time>2022-08-17T13:06:45Z</time>
      </trkpt>
      <trkpt lat="45.52336" lon="2.55604">
        <ele>736.48</ele>
        <time>2022-08-17T13:06:46Z</time>
      </trkpt>
      <trkpt lat="45.52332" lon="2.55615">
        <ele>735.21</ele>
        <time>2022-08-17T13:06:47Z</time>
      </trkpt>
      <trkpt lat="45.52327" lon="2.55625">
        <ele>735.22</ele>
        <time>2022-08-17T13:06:48Z</time>
      </trkpt>
      <trkpt lat="45.52317" lon="2.55647">
        <ele>733.69</ele>
        <time>2022-08-17T13:06:50Z</time>
      </trkpt>
      <trkpt lat="45.52312" lon="2.55658">
        <ele>733.65</ele>
        <time>2022-08-17T13:06:51Z</time>
      </trkpt>
      <trkpt lat="45.5231" lon="2.55672">
        <ele>733.68</ele>
        <time>2022-08-17T13:06:52Z</time>
      </trkpt>
      <trkpt lat="45.52309" lon="2.55686">
        <ele>732.11</ele>
        <time>2022-08-17T13:06:53Z</time>
      </trkpt>
      <trkpt lat="45.52309" lon="2.557">
        <ele>732.11</ele>
        <time>2022-08-17T13:06:54Z</time>
      </trkpt>
      <trkpt lat="45.52309" lon="2.55714">
        <ele>732.06</ele>
        <time>2022-08-17T13:06:55Z</time>
      </trkpt>
      <trkpt lat="45.52308" lon="2.55727">
        <ele>730.64</ele>
        <time>2022-08-17T13:06:56Z</time>
      </trkpt>
      <trkpt lat="45.52308" lon="2.55741">
        <ele>730.62</ele>
        <time>2022-08-17T13:06:57Z</time>
      </trkpt>
      <trkpt lat="45.52308" lon="2.55755">
        <ele>728.98</ele>
        <time>2022-08-17T13:06:58Z</time>
      </trkpt>
      <trkpt lat="45.52308" lon="2.55768">
        <ele>728.95</ele>
        <time>2022-08-17T13:06:59Z</time>
      </trkpt>
      <trkpt lat="45.52308" lon="2.55808">
        <ele>727.42</ele>
        <time>2022-08-17T13:07:02Z</time>
      </trkpt>
      <trkpt lat="45.52309" lon="2.55846">
        <ele>725.43</ele>
        <time>2022-08-17T13:07:05Z</time>
      </trkpt>
      <trkpt lat="45.52309" lon="2.5587">
        <ele>724.14</ele>
        <time>2022-08-17T13:07:07Z</time>
      </trkpt>
      <trkpt lat="45.52307" lon="2.55881">
        <ele>722.95</ele>
        <time>2022-08-17T13:07:08Z</time>
      </trkpt>
      <trkpt lat="45.52304" lon="2.55892">
        <ele>722.89</ele>
        <time>2022-08-17T13:07:09Z</time>
      </trkpt>
      <trkpt lat="45.52298" lon="2.55914">
        <ele>721.53</ele>
        <time>2022-08-17T13:07:11Z</time>
      </trkpt>
      <trkpt lat="45.52297" lon="2.55926">
        <ele>721.47</ele>
        <time>2022-08-17T13:07:12Z</time>
      </trkpt>
      <trkpt lat="45.52298" lon="2.55937">
        <ele>721.55</ele>
        <time>2022-08-17T13:07:13Z</time>
      </trkpt>
      <trkpt lat="45.52301" lon="2.55947">
        <ele>721.51</ele>
        <time>2022-08-17T13:07:14Z</time>
      </trkpt>
      <trkpt lat="45.52306" lon="2.55954">
        <ele>721.49</ele>
        <time>2022-08-17T13:07:15Z</time>
      </trkpt>
      <trkpt lat="45.52313" lon="2.55957">
        <ele>721.55</ele>
        <time>2022-08-17T13:07:16Z</time>
      </trkpt>
      <trkpt lat="45.5232" lon="2.55958">
        <ele>721.53</ele>
        <time>2022-08-17T13:07:17Z</time>
      </trkpt>
      <trkpt lat="45.52327" lon="2.55955">
        <ele>721.51</ele>
        <time>2022-08-17T13:07:18Z</time>
      </trkpt>
      <trkpt lat="45.52333" lon="2.5595">
        <ele>721.55</ele>
        <time>2022-08-17T13:07:19Z</time>
      </trkpt>
      <trkpt lat="45.52339" lon="2.55942">
        <ele>721.56</ele>
        <time>2022-08-17T13:07:20Z</time>
      </trkpt>
      <trkpt lat="45.52344" lon="2.55933">
        <ele>721.6</ele>
        <time>2022-08-17T13:07:21Z</time>
      </trkpt>
      <trkpt lat="45.52349" lon="2.55923">
        <ele>721.65</ele>
        <time>2022-08-17T13:07:22Z</time>
      </trkpt>
      <trkpt lat="45.52354" lon="2.55911">
        <ele>721.7</ele>
        <time>2022-08-17T13:07:23Z</time>
      </trkpt>
      <trkpt lat="45.52358" lon="2.55899">
        <ele>724.95</ele>
        <time>2022-08-17T13:07:24Z</time>
      </trkpt>
      <trkpt lat="45.52363" lon="2.55886">
        <ele>724.95</ele>
        <time>2022-08-17T13:07:25Z</time>
      </trkpt>
      <trkpt lat="45.5238" lon="2.55816">
        <ele>727</ele>
        <time>2022-08-17T13:07:30Z</time>
      </trkpt>
      <trkpt lat="45.52384" lon="2.55773">
        <ele>728.89</ele>
        <time>2022-08-17T13:07:33Z</time>
      </trkpt>
      <trkpt lat="45.52385" lon="2.55743">
        <ele>730.6</ele>
        <time>2022-08-17T13:07:35Z</time>
      </trkpt>
      <trkpt lat="45.52387" lon="2.55729">
        <ele>730.66</ele>
        <time>2022-08-17T13:07:36Z</time>
      </trkpt>
      <trkpt lat="45.52392" lon="2.55716">
        <ele>731.7</ele>
        <time>2022-08-17T13:07:37Z</time>
      </trkpt>
      <trkpt lat="45.52397" lon="2.55705">
        <ele>731.7</ele>
        <time>2022-08-17T13:07:38Z</time>
      </trkpt>
      <trkpt lat="45.52404" lon="2.55694">
        <ele>731.76</ele>
        <time>2022-08-17T13:07:39Z</time>
      </trkpt>
      <trkpt lat="45.52419" lon="2.55674">
        <ele>732.99</ele>
        <time>2022-08-17T13:07:41Z</time>
      </trkpt>
      <trkpt lat="45.52444" lon="2.55626">
        <ele>735.3</ele>
        <time>2022-08-17T13:07:45Z</time>
      </trkpt>
      <trkpt lat="45.52484" lon="2.55517">
        <ele>738.33</ele>
        <time>2022-08-17T13:07:53Z</time>
      </trkpt>
      <trkpt lat="45.5249" lon="2.55504">
        <ele>739.38</ele>
        <time>2022-08-17T13:07:54Z</time>
      </trkpt>
      <trkpt lat="45.52496" lon="2.55492">
        <ele>739.35</ele>
        <time>2022-08-17T13:07:55Z</time>
      </trkpt>
      <trkpt lat="45.52504" lon="2.55482">
        <ele>739.03</ele>
        <time>2022-08-17T13:07:56Z</time>
      </trkpt>
      <trkpt lat="45.52513" lon="2.55475">
        <ele>739.03</ele>
        <time>2022-08-17T13:07:57Z</time>
      </trkpt>
      <trkpt lat="45.52523" lon="2.55473">
        <ele>739.03</ele>
        <time>2022-08-17T13:07:58Z</time>
      </trkpt>
      <trkpt lat="45.52533" lon="2.55475">
        <ele>740.69</ele>
        <time>2022-08-17T13:07:59Z</time>
      </trkpt>
      <trkpt lat="45.52543" lon="2.55481">
        <ele>740.7</ele>
        <time>2022-08-17T13:08:00Z</time>
      </trkpt>
      <trkpt lat="45.52552" lon="2.5549">
        <ele>741.53</ele>
        <time>2022-08-17T13:08:01Z</time>
      </trkpt>
      <trkpt lat="45.52561" lon="2.555">
        <ele>741.53</ele>
        <time>2022-08-17T13:08:02Z</time>
      </trkpt>
      <trkpt lat="45.5257" lon="2.55513">
        <ele>741.54</ele>
        <time>2022-08-17T13:08:03Z</time>
      </trkpt>
      <trkpt lat="45.52577" lon="2.55526">
        <ele>741.58</ele>
        <time>2022-08-17T13:08:04Z</time>
      </trkpt>
      <trkpt lat="45.52584" lon="2.55539">
        <ele>742.65</ele>
        <time>2022-08-17T13:08:05Z</time>
      </trkpt>
      <trkpt lat="45.52591" lon="2.55553">
        <ele>742.7</ele>
        <time>2022-08-17T13:08:06Z</time>
      </trkpt>
      <trkpt lat="45.52598" lon="2.55565">
        <ele>743.71</ele>
        <time>2022-08-17T13:08:07Z</time>
      </trkpt>
      <trkpt lat="45.52668" lon="2.55678">
        <ele>744.62</ele>
        <time>2022-08-17T13:08:17Z</time>
      </trkpt>
      <trkpt lat="45.52682" lon="2.557">
        <ele>744.6</ele>
        <time>2022-08-17T13:08:19Z</time>
      </trkpt>
      <trkpt lat="45.5269" lon="2.55705">
        <ele>744.59</ele>
        <time>2022-08-17T13:08:20Z</time>
      </trkpt>
      <trkpt lat="45.527" lon="2.55701">
        <ele>744.54</ele>
        <time>2022-08-17T13:08:21Z</time>
      </trkpt>
      <trkpt lat="45.52709" lon="2.55692">
        <ele>744.55</ele>
        <time>2022-08-17T13:08:22Z</time>
      </trkpt>
      <trkpt lat="45.52714" lon="2.55679">
        <ele>745.87</ele>
        <time>2022-08-17T13:08:23Z</time>
      </trkpt>
      <trkpt lat="45.52717" lon="2.55663">
        <ele>746.82</ele>
        <time>2022-08-17T13:08:24Z</time>
      </trkpt>
      <trkpt lat="45.52715" lon="2.55647">
        <ele>748.32</ele>
        <time>2022-08-17T13:08:25Z</time>
      </trkpt>
      <trkpt lat="45.52709" lon="2.55632">
        <ele>748.33</ele>
        <time>2022-08-17T13:08:26Z</time>
      </trkpt>
      <trkpt lat="45.52702" lon="2.55616">
        <ele>749.8</ele>
        <time>2022-08-17T13:08:27Z</time>
      </trkpt>
      <trkpt lat="45.52696" lon="2.55599">
        <ele>750.75</ele>
        <time>2022-08-17T13:08:28Z</time>
      </trkpt>
      <trkpt lat="45.52692" lon="2.55578">
        <ele>752.08</ele>
        <time>2022-08-17T13:08:29Z</time>
      </trkpt>
      <trkpt lat="45.52682" lon="2.55534">
        <ele>754.27</ele>
        <time>2022-08-17T13:08:31Z</time>
      </trkpt>
      <trkpt lat="45.52647" lon="2.55419">
        <ele>756.49</ele>
        <time>2022-08-17T13:08:37Z</time>
      </trkpt>
      <trkpt lat="45.52639" lon="2.554">
        <ele>756.5</ele>
        <time>2022-08-17T13:08:38Z</time>
      </trkpt>
      <trkpt lat="45.52629" lon="2.55383">
        <ele>756.58</ele>
        <time>2022-08-17T13:08:39Z</time>
      </trkpt>
      <trkpt lat="45.52618" lon="2.55369">
        <ele>756.59</ele>
        <time>2022-08-17T13:08:40Z</time>
      </trkpt>
      <trkpt lat="45.52598" lon="2.55343">
        <ele>756.66</ele>
        <time>2022-08-17T13:08:42Z</time>
      </trkpt>
      <trkpt lat="45.52591" lon="2.55329">
        <ele>756.61</ele>
        <time>2022-08-17T13:08:43Z</time>
      </trkpt>
      <trkpt lat="45.52586" lon="2.55314">
        <ele>756.54</ele>
        <time>2022-08-17T13:08:44Z</time>
      </trkpt>
      <trkpt lat="45.52583" lon="2.55298">
        <ele>757.03</ele>
        <time>2022-08-17T13:08:45Z</time>
      </trkpt>
      <trkpt lat="45.52581" lon="2.55282">
        <ele>757.04</ele>
        <time>2022-08-17T13:08:46Z</time>
      </trkpt>
      <trkpt lat="45.52578" lon="2.55266">
        <ele>757.04</ele>
        <time>2022-08-17T13:08:47Z</time>
      </trkpt>
      <trkpt lat="45.52573" lon="2.55251">
        <ele>757.06</ele>
        <time>2022-08-17T13:08:48Z</time>
      </trkpt>
      <trkpt lat="45.52566" lon="2.55238">
        <ele>757.92</ele>
        <time>2022-08-17T13:08:49Z</time>
      </trkpt>
      <trkpt lat="45.52557" lon="2.55229">
        <ele>757.94</ele>
        <time>2022-08-17T13:08:50Z</time>
      </trkpt>
      <trkpt lat="45.52547" lon="2.55223">
        <ele>759.25</ele>
        <time>2022-08-17T13:08:51Z</time>
      </trkpt>
      <trkpt lat="45.52538" lon="2.55218">
        <ele>759.27</ele>
        <time>2022-08-17T13:08:52Z</time>
      </trkpt>
      <trkpt lat="45.52529" lon="2.55214">
        <ele>759.31</ele>
        <time>2022-08-17T13:08:53Z</time>
      </trkpt>
      <trkpt lat="45.52502" lon="2.55203">
        <ele>761.01</ele>
        <time>2022-08-17T13:08:57Z</time>
      </trkpt>
      <trkpt lat="45.52496" lon="2.55202">
        <ele>761.03</ele>
        <time>2022-08-17T13:08:58Z</time>
      </trkpt>
      <trkpt lat="45.52489" lon="2.55202">
        <ele>762.25</ele>
        <time>2022-08-17T13:08:59Z</time>
      </trkpt>
      <trkpt lat="45.52483" lon="2.55202">
        <ele>762.24</ele>
        <time>2022-08-17T13:09:00Z</time>
      </trkpt>
      <trkpt lat="45.52477" lon="2.55202">
        <ele>763.22</ele>
        <time>2022-08-17T13:09:01Z</time>
      </trkpt>
      <trkpt lat="45.5247" lon="2.55202">
        <ele>763.23</ele>
        <time>2022-08-17T13:09:02Z</time>
      </trkpt>
      <trkpt lat="45.52464" lon="2.552">
        <ele>763.28</ele>
        <time>2022-08-17T13:09:03Z</time>
      </trkpt>
      <trkpt lat="45.52459" lon="2.55196">
        <ele>764.94</ele>
        <time>2022-08-17T13:09:04Z</time>
      </trkpt>
      <trkpt lat="45.52455" lon="2.55191">
        <ele>764.95</ele>
        <time>2022-08-17T13:09:05Z</time>
      </trkpt>
      <trkpt lat="45.52452" lon="2.55184">
        <ele>766.04</ele>
        <time>2022-08-17T13:09:06Z</time>
      </trkpt>
      <trkpt lat="45.52451" lon="2.55176">
        <ele>766.02</ele>
        <time>2022-08-17T13:09:07Z</time>
      </trkpt>
      <trkpt lat="45.52451" lon="2.55168">
        <ele>766.07</ele>
        <time>2022-08-17T13:09:08Z</time>
      </trkpt>
      <trkpt lat="45.52451" lon="2.5516">
        <ele>767.04</ele>
        <time>2022-08-17T13:09:09Z</time>
      </trkpt>
      <trkpt lat="45.52453" lon="2.55152">
        <ele>767.05</ele>
        <time>2022-08-17T13:09:10Z</time>
      </trkpt>
      <trkpt lat="45.52457" lon="2.55145">
        <ele>768.56</ele>
        <time>2022-08-17T13:09:11Z</time>
      </trkpt>
      <trkpt lat="45.52462" lon="2.5514">
        <ele>768.56</ele>
        <time>2022-08-17T13:09:12Z</time>
      </trkpt>
      <trkpt lat="45.52467" lon="2.55135">
        <ele>769.59</ele>
        <time>2022-08-17T13:09:13Z</time>
      </trkpt>
      <trkpt lat="45.52472" lon="2.55129">
        <ele>769.59</ele>
        <time>2022-08-17T13:09:14Z</time>
      </trkpt>
      <trkpt lat="45.52477" lon="2.55122">
        <ele>771.08</ele>
        <time>2022-08-17T13:09:15Z</time>
      </trkpt>
      <trkpt lat="45.52481" lon="2.55115">
        <ele>772.07</ele>
        <time>2022-08-17T13:09:16Z</time>
      </trkpt>
      <trkpt lat="45.52484" lon="2.55107">
        <ele>772.13</ele>
        <time>2022-08-17T13:09:17Z</time>
      </trkpt>
      <trkpt lat="45.52486" lon="2.55097">
        <ele>773.28</ele>
        <time>2022-08-17T13:09:18Z</time>
      </trkpt>
      <trkpt lat="45.52487" lon="2.55088">
        <ele>773.29</ele>
        <time>2022-08-17T13:09:19Z</time>
      </trkpt>
      <trkpt lat="45.52486" lon="2.55078">
        <ele>774.16</ele>
        <time>2022-08-17T13:09:20Z</time>
      </trkpt>
      <trkpt lat="45.52484" lon="2.55069">
        <ele>775.15</ele>
        <time>2022-08-17T13:09:21Z</time>
      </trkpt>
      <trkpt lat="45.52482" lon="2.5506">
        <ele>775.2</ele>
        <time>2022-08-17T13:09:22Z</time>
      </trkpt>
      <trkpt lat="45.52481" lon="2.5505">
        <ele>775.96</ele>
        <time>2022-08-17T13:09:23Z</time>
      </trkpt>
      <trkpt lat="45.52482" lon="2.55042">
        <ele>775.94</ele>
        <time>2022-08-17T13:09:24Z</time>
      </trkpt>
      <trkpt lat="45.52485" lon="2.55035">
        <ele>776.87</ele>
        <time>2022-08-17T13:09:25Z</time>
      </trkpt>
      <trkpt lat="45.52489" lon="2.5503">
        <ele>776.9</ele>
        <time>2022-08-17T13:09:26Z</time>
      </trkpt>
      <trkpt lat="45.52493" lon="2.55029">
        <ele>778.35</ele>
        <time>2022-08-17T13:09:27Z</time>
      </trkpt>
      <trkpt lat="45.52499" lon="2.55031">
        <ele>778.3</ele>
        <time>2022-08-17T13:09:28Z</time>
      </trkpt>
      <trkpt lat="45.52504" lon="2.55035">
        <ele>779.26</ele>
        <time>2022-08-17T13:09:29Z</time>
      </trkpt>
      <trkpt lat="45.52509" lon="2.55038">
        <ele>780.37</ele>
        <time>2022-08-17T13:09:30Z</time>
      </trkpt>
      <trkpt lat="45.52514" lon="2.55041">
        <ele>780.31</ele>
        <time>2022-08-17T13:09:31Z</time>
      </trkpt>
      <trkpt lat="45.5252" lon="2.55044">
        <ele>781.65</ele>
        <time>2022-08-17T13:09:32Z</time>
      </trkpt>
      <trkpt lat="45.52526" lon="2.55047">
        <ele>781.63</ele>
        <time>2022-08-17T13:09:33Z</time>
      </trkpt>
      <trkpt lat="45.52564" lon="2.55063">
        <ele>785.48</ele>
        <time>2022-08-17T13:09:40Z</time>
      </trkpt>
      <trkpt lat="45.5257" lon="2.55063">
        <ele>785.48</ele>
        <time>2022-08-17T13:09:42Z</time>
      </trkpt>
      <trkpt lat="45.52573" lon="2.55059">
        <ele>785.53</ele>
        <time>2022-08-17T13:09:43Z</time>
      </trkpt>
      <trkpt lat="45.52575" lon="2.55052">
        <ele>786.5</ele>
        <time>2022-08-17T13:09:44Z</time>
      </trkpt>
      <trkpt lat="45.52586" lon="2.55024">
        <ele>787.78</ele>
        <time>2022-08-17T13:09:48Z</time>
      </trkpt>
      <trkpt lat="45.52595" lon="2.55009">
        <ele>789.02</ele>
        <time>2022-08-17T13:09:50Z</time>
      </trkpt>
      <trkpt lat="45.526" lon="2.55002">
        <ele>789.02</ele>
        <time>2022-08-17T13:09:51Z</time>
      </trkpt>
      <trkpt lat="45.52612" lon="2.54988">
        <ele>789.82</ele>
        <time>2022-08-17T13:09:53Z</time>
      </trkpt>
      <trkpt lat="45.52618" lon="2.5498">
        <ele>789.81</ele>
        <time>2022-08-17T13:09:54Z</time>
      </trkpt>
      <trkpt lat="45.52623" lon="2.54971">
        <ele>789.86</ele>
        <time>2022-08-17T13:09:55Z</time>
      </trkpt>
      <trkpt lat="45.5267" lon="2.5488">
        <ele>788</ele>
        <time>2022-08-17T13:10:04Z</time>
      </trkpt>
      <trkpt lat="45.52715" lon="2.54787">
        <ele>784.16</ele>
        <time>2022-08-17T13:10:12Z</time>
      </trkpt>
      <trkpt lat="45.52721" lon="2.54774">
        <ele>784.15</ele>
        <time>2022-08-17T13:10:13Z</time>
      </trkpt>
      <trkpt lat="45.52751" lon="2.54727">
        <ele>782.23</ele>
        <time>2022-08-17T13:10:17Z</time>
      </trkpt>
      <trkpt lat="45.52821" lon="2.546">
        <ele>780.4</ele>
        <time>2022-08-17T13:10:28Z</time>
      </trkpt>
      <trkpt lat="45.52848" lon="2.54524">
        <ele>779.33</ele>
        <time>2022-08-17T13:10:36Z</time>
      </trkpt>
      <trkpt lat="45.52849" lon="2.54513">
        <ele>779.32</ele>
        <time>2022-08-17T13:10:37Z</time>
      </trkpt>
      <trkpt lat="45.52848" lon="2.54502">
        <ele>778.5</ele>
        <time>2022-08-17T13:10:38Z</time>
      </trkpt>
      <trkpt lat="45.52836" lon="2.54403">
        <ele>774.82</ele>
        <time>2022-08-17T13:10:45Z</time>
      </trkpt>
      <trkpt lat="45.52831" lon="2.54365">
        <ele>773.01</ele>
        <time>2022-08-17T13:10:48Z</time>
      </trkpt>
      <trkpt lat="45.5283" lon="2.54353">
        <ele>771.73</ele>
        <time>2022-08-17T13:10:49Z</time>
      </trkpt>
      <trkpt lat="45.52831" lon="2.54341">
        <ele>771.78</ele>
        <time>2022-08-17T13:10:50Z</time>
      </trkpt>
      <trkpt lat="45.52833" lon="2.54328">
        <ele>770.74</ele>
        <time>2022-08-17T13:10:51Z</time>
      </trkpt>
      <trkpt lat="45.52835" lon="2.54315">
        <ele>770.78</ele>
        <time>2022-08-17T13:10:52Z</time>
      </trkpt>
      <trkpt lat="45.52839" lon="2.54302">
        <ele>770.72</ele>
        <time>2022-08-17T13:10:53Z</time>
      </trkpt>
      <trkpt lat="45.52844" lon="2.54274">
        <ele>769.21</ele>
        <time>2022-08-17T13:10:55Z</time>
      </trkpt>
      <trkpt lat="45.52844" lon="2.54261">
        <ele>768.43</ele>
        <time>2022-08-17T13:10:56Z</time>
      </trkpt>
      <trkpt lat="45.5284" lon="2.5425">
        <ele>767.58</ele>
        <time>2022-08-17T13:10:57Z</time>
      </trkpt>
      <trkpt lat="45.52835" lon="2.54239">
        <ele>767.51</ele>
        <time>2022-08-17T13:10:58Z</time>
      </trkpt>
      <trkpt lat="45.52828" lon="2.54231">
        <ele>766.15</ele>
        <time>2022-08-17T13:10:59Z</time>
      </trkpt>
      <trkpt lat="45.5282" lon="2.54223">
        <ele>766.15</ele>
        <time>2022-08-17T13:11:00Z</time>
      </trkpt>
      <trkpt lat="45.52811" lon="2.54216">
        <ele>766.09</ele>
        <time>2022-08-17T13:11:01Z</time>
      </trkpt>
      <trkpt lat="45.52801" lon="2.5421">
        <ele>764.91</ele>
        <time>2022-08-17T13:11:02Z</time>
      </trkpt>
      <trkpt lat="45.5279" lon="2.54205">
        <ele>764.84</ele>
        <time>2022-08-17T13:11:03Z</time>
      </trkpt>
      <trkpt lat="45.52761" lon="2.54191">
        <ele>762.63</ele>
        <time>2022-08-17T13:11:06Z</time>
      </trkpt>
      <trkpt lat="45.52751" lon="2.54186">
        <ele>761.51</ele>
        <time>2022-08-17T13:11:07Z</time>
      </trkpt>
      <trkpt lat="45.52743" lon="2.5418">
        <ele>761.44</ele>
        <time>2022-08-17T13:11:08Z</time>
      </trkpt>
      <trkpt lat="45.52736" lon="2.54172">
        <ele>760.58</ele>
        <time>2022-08-17T13:11:09Z</time>
      </trkpt>
      <trkpt lat="45.5273" lon="2.54163">
        <ele>759.69</ele>
        <time>2022-08-17T13:11:10Z</time>
      </trkpt>
      <trkpt lat="45.52724" lon="2.54152">
        <ele>759.63</ele>
        <time>2022-08-17T13:11:11Z</time>
      </trkpt>
      <trkpt lat="45.52705" lon="2.54119">
        <ele>758.19</ele>
        <time>2022-08-17T13:11:14Z</time>
      </trkpt>
      <trkpt lat="45.52696" lon="2.5411">
        <ele>758.23</ele>
        <time>2022-08-17T13:11:15Z</time>
      </trkpt>
      <trkpt lat="45.52687" lon="2.54101">
        <ele>758.25</ele>
        <time>2022-08-17T13:11:16Z</time>
      </trkpt>
      <trkpt lat="45.52657" lon="2.54072">
        <ele>758.44</ele>
        <time>2022-08-17T13:11:19Z</time>
      </trkpt>
      <trkpt lat="45.52649" lon="2.54061">
        <ele>758.7</ele>
        <time>2022-08-17T13:11:20Z</time>
      </trkpt>
      <trkpt lat="45.52628" lon="2.54026">
        <ele>756.76</ele>
        <time>2022-08-17T13:11:23Z</time>
      </trkpt>
      <trkpt lat="45.52624" lon="2.54013">
        <ele>756.76</ele>
        <time>2022-08-17T13:11:24Z</time>
      </trkpt>
      <trkpt lat="45.52621" lon="2.54">
        <ele>755.46</ele>
        <time>2022-08-17T13:11:25Z</time>
      </trkpt>
      <trkpt lat="45.52619" lon="2.53986">
        <ele>755.46</ele>
        <time>2022-08-17T13:11:26Z</time>
      </trkpt>
      <trkpt lat="45.52618" lon="2.53972">
        <ele>754.32</ele>
        <time>2022-08-17T13:11:27Z</time>
      </trkpt>
      <trkpt lat="45.52616" lon="2.53945">
        <ele>753.09</ele>
        <time>2022-08-17T13:11:29Z</time>
      </trkpt>
      <trkpt lat="45.52614" lon="2.53918">
        <ele>751.76</ele>
        <time>2022-08-17T13:11:31Z</time>
      </trkpt>
      <trkpt lat="45.52612" lon="2.53879">
        <ele>749.37</ele>
        <time>2022-08-17T13:11:34Z</time>
      </trkpt>
      <trkpt lat="45.5261" lon="2.53867">
        <ele>748.34</ele>
        <time>2022-08-17T13:11:35Z</time>
      </trkpt>
      <trkpt lat="45.52607" lon="2.53855">
        <ele>748.28</ele>
        <time>2022-08-17T13:11:36Z</time>
      </trkpt>
      <trkpt lat="45.52603" lon="2.53845">
        <ele>747.38</ele>
        <time>2022-08-17T13:11:37Z</time>
      </trkpt>
      <trkpt lat="45.52598" lon="2.53835">
        <ele>747.33</ele>
        <time>2022-08-17T13:11:38Z</time>
      </trkpt>
      <trkpt lat="45.52591" lon="2.53826">
        <ele>747.33</ele>
        <time>2022-08-17T13:11:39Z</time>
      </trkpt>
      <trkpt lat="45.52584" lon="2.53817">
        <ele>745.84</ele>
        <time>2022-08-17T13:11:40Z</time>
      </trkpt>
      <trkpt lat="45.52575" lon="2.53809">
        <ele>745.86</ele>
        <time>2022-08-17T13:11:41Z</time>
      </trkpt>
      <trkpt lat="45.52536" lon="2.53776">
        <ele>742.47</ele>
        <time>2022-08-17T13:11:45Z</time>
      </trkpt>
      <trkpt lat="45.52517" lon="2.53754">
        <ele>740.52</ele>
        <time>2022-08-17T13:11:47Z</time>
      </trkpt>
      <trkpt lat="45.52508" lon="2.53742">
        <ele>740.53</ele>
        <time>2022-08-17T13:11:48Z</time>
      </trkpt>
      <trkpt lat="45.52477" lon="2.53695">
        <ele>736.62</ele>
        <time>2022-08-17T13:11:52Z</time>
      </trkpt>
      <trkpt lat="45.5247" lon="2.53683">
        <ele>736.62</ele>
        <time>2022-08-17T13:11:53Z</time>
      </trkpt>
      <trkpt lat="45.52458" lon="2.53659">
        <ele>734.46</ele>
        <time>2022-08-17T13:11:55Z</time>
      </trkpt>
      <trkpt lat="45.52455" lon="2.53646">
        <ele>734.46</ele>
        <time>2022-08-17T13:11:56Z</time>
      </trkpt>
      <trkpt lat="45.52455" lon="2.53633">
        <ele>733.28</ele>
        <time>2022-08-17T13:11:57Z</time>
      </trkpt>
      <trkpt lat="45.52458" lon="2.53621">
        <ele>732.51</ele>
        <time>2022-08-17T13:11:58Z</time>
      </trkpt>
      <trkpt lat="45.52464" lon="2.5361">
        <ele>732.41</ele>
        <time>2022-08-17T13:11:59Z</time>
      </trkpt>
      <trkpt lat="45.52471" lon="2.53599">
        <ele>731.39</ele>
        <time>2022-08-17T13:12:00Z</time>
      </trkpt>
      <trkpt lat="45.52479" lon="2.53588">
        <ele>731.4</ele>
        <time>2022-08-17T13:12:01Z</time>
      </trkpt>
      <trkpt lat="45.52487" lon="2.53578">
        <ele>730</ele>
        <time>2022-08-17T13:12:02Z</time>
      </trkpt>
      <trkpt lat="45.52496" lon="2.53569">
        <ele>729.99</ele>
        <time>2022-08-17T13:12:03Z</time>
      </trkpt>
      <trkpt lat="45.52505" lon="2.53561">
        <ele>728.89</ele>
        <time>2022-08-17T13:12:04Z</time>
      </trkpt>
      <trkpt lat="45.52512" lon="2.53552">
        <ele>728.93</ele>
        <time>2022-08-17T13:12:05Z</time>
      </trkpt>
      <trkpt lat="45.52519" lon="2.53541">
        <ele>727.86</ele>
        <time>2022-08-17T13:12:06Z</time>
      </trkpt>
      <trkpt lat="45.52523" lon="2.53529">
        <ele>727.86</ele>
        <time>2022-08-17T13:12:07Z</time>
      </trkpt>
      <trkpt lat="45.52526" lon="2.53516">
        <ele>726.85</ele>
        <time>2022-08-17T13:12:08Z</time>
      </trkpt>
      <trkpt lat="45.52529" lon="2.53503">
        <ele>726.02</ele>
        <time>2022-08-17T13:12:09Z</time>
      </trkpt>
      <trkpt lat="45.52531" lon="2.5349">
        <ele>726.03</ele>
        <time>2022-08-17T13:12:10Z</time>
      </trkpt>
      <trkpt lat="45.52538" lon="2.53465">
        <ele>724.39</ele>
        <time>2022-08-17T13:12:12Z</time>
      </trkpt>
      <trkpt lat="45.52542" lon="2.53454">
        <ele>722.99</ele>
        <time>2022-08-17T13:12:13Z</time>
      </trkpt>
      <trkpt lat="45.52546" lon="2.53445">
        <ele>722.99</ele>
        <time>2022-08-17T13:12:14Z</time>
      </trkpt>
      <trkpt lat="45.52552" lon="2.53438">
        <ele>721.52</ele>
        <time>2022-08-17T13:12:15Z</time>
      </trkpt>
      <trkpt lat="45.52559" lon="2.53433">
        <ele>720.45</ele>
        <time>2022-08-17T13:12:16Z</time>
      </trkpt>
      <trkpt lat="45.52568" lon="2.53433">
        <ele>719.58</ele>
        <time>2022-08-17T13:12:17Z</time>
      </trkpt>
      <trkpt lat="45.52577" lon="2.53436">
        <ele>718.5</ele>
        <time>2022-08-17T13:12:18Z</time>
      </trkpt>
      <trkpt lat="45.52585" lon="2.53442">
        <ele>717.53</ele>
        <time>2022-08-17T13:12:19Z</time>
      </trkpt>
      <trkpt lat="45.52593" lon="2.5345">
        <ele>717.53</ele>
        <time>2022-08-17T13:12:20Z</time>
      </trkpt>
      <trkpt lat="45.526" lon="2.53459">
        <ele>716.13</ele>
        <time>2022-08-17T13:12:21Z</time>
      </trkpt>
      <trkpt lat="45.52606" lon="2.53469">
        <ele>716.07</ele>
        <time>2022-08-17T13:12:22Z</time>
      </trkpt>
      <trkpt lat="45.52612" lon="2.5348">
        <ele>715.22</ele>
        <time>2022-08-17T13:12:23Z</time>
      </trkpt>
      <trkpt lat="45.52631" lon="2.53509">
        <ele>712.62</ele>
        <time>2022-08-17T13:12:26Z</time>
      </trkpt>
      <trkpt lat="45.52638" lon="2.53516">
        <ele>712.55</ele>
        <time>2022-08-17T13:12:27Z</time>
      </trkpt>
      <trkpt lat="45.52646" lon="2.53522">
        <ele>711.35</ele>
        <time>2022-08-17T13:12:28Z</time>
      </trkpt>
      <trkpt lat="45.52662" lon="2.53533">
        <ele>710.17</ele>
        <time>2022-08-17T13:12:30Z</time>
      </trkpt>
      <trkpt lat="45.52687" lon="2.53552">
        <ele>708.77</ele>
        <time>2022-08-17T13:12:33Z</time>
      </trkpt>
      <trkpt lat="45.52704" lon="2.53564">
        <ele>706.83</ele>
        <time>2022-08-17T13:12:35Z</time>
      </trkpt>
      <trkpt lat="45.52733" lon="2.53579">
        <ele>703.49</ele>
        <time>2022-08-17T13:12:38Z</time>
      </trkpt>
      <trkpt lat="45.52741" lon="2.53585">
        <ele>703.42</ele>
        <time>2022-08-17T13:12:39Z</time>
      </trkpt>
      <trkpt lat="45.52768" lon="2.53601">
        <ele>700.63</ele>
        <time>2022-08-17T13:12:42Z</time>
      </trkpt>
      <trkpt lat="45.52795" lon="2.53616">
        <ele>696.96</ele>
        <time>2022-08-17T13:12:45Z</time>
      </trkpt>
      <trkpt lat="45.52804" lon="2.5362">
        <ele>696.05</ele>
        <time>2022-08-17T13:12:46Z</time>
      </trkpt>
      <trkpt lat="45.52814" lon="2.53623">
        <ele>695.26</ele>
        <time>2022-08-17T13:12:47Z</time>
      </trkpt>
      <trkpt lat="45.52832" lon="2.53628">
        <ele>694.33</ele>
        <time>2022-08-17T13:12:49Z</time>
      </trkpt>
      <trkpt lat="45.52851" lon="2.53631">
        <ele>691.95</ele>
        <time>2022-08-17T13:12:51Z</time>
      </trkpt>
      <trkpt lat="45.5287" lon="2.53636">
        <ele>690.73</ele>
        <time>2022-08-17T13:12:53Z</time>
      </trkpt>
      <trkpt lat="45.52902" lon="2.53639">
        <ele>686.86</ele>
        <time>2022-08-17T13:12:56Z</time>
      </trkpt>
      <trkpt lat="45.52912" lon="2.5364">
        <ele>685.86</ele>
        <time>2022-08-17T13:12:57Z</time>
      </trkpt>
      <trkpt lat="45.52922" lon="2.53643">
        <ele>684.93</ele>
        <time>2022-08-17T13:12:58Z</time>
      </trkpt>
      <trkpt lat="45.52932" lon="2.53649">
        <ele>683.83</ele>
        <time>2022-08-17T13:12:59Z</time>
      </trkpt>
      <trkpt lat="45.52939" lon="2.53659">
        <ele>682.59</ele>
        <time>2022-08-17T13:13:00Z</time>
      </trkpt>
      <trkpt lat="45.52945" lon="2.5367">
        <ele>681.41</ele>
        <time>2022-08-17T13:13:01Z</time>
      </trkpt>
      <trkpt lat="45.52944" lon="2.53686">
        <ele>680.63</ele>
        <time>2022-08-17T13:13:02Z</time>
      </trkpt>
      <trkpt lat="45.52939" lon="2.53699">
        <ele>679.47</ele>
        <time>2022-08-17T13:13:03Z</time>
      </trkpt>
      <trkpt lat="45.52933" lon="2.53709">
        <ele>679.46</ele>
        <time>2022-08-17T13:13:04Z</time>
      </trkpt>
      <trkpt lat="45.52926" lon="2.53716">
        <ele>677.83</ele>
        <time>2022-08-17T13:13:05Z</time>
      </trkpt>
      <trkpt lat="45.52919" lon="2.53722">
        <ele>677.72</ele>
        <time>2022-08-17T13:13:06Z</time>
      </trkpt>
      <trkpt lat="45.52911" lon="2.53726">
        <ele>676.63</ele>
        <time>2022-08-17T13:13:07Z</time>
      </trkpt>
      <trkpt lat="45.52903" lon="2.53733">
        <ele>675.49</ele>
        <time>2022-08-17T13:13:08Z</time>
      </trkpt>
      <trkpt lat="45.52896" lon="2.53741">
        <ele>674.69</ele>
        <time>2022-08-17T13:13:09Z</time>
      </trkpt>
      <trkpt lat="45.52889" lon="2.5375">
        <ele>674.69</ele>
        <time>2022-08-17T13:13:10Z</time>
      </trkpt>
      <trkpt lat="45.52896" lon="2.53767">
        <ele>673.04</ele>
        <time>2022-08-17T13:13:11Z</time>
      </trkpt>
      <trkpt lat="45.52902" lon="2.5378">
        <ele>673.04</ele>
        <time>2022-08-17T13:13:12Z</time>
      </trkpt>
      <trkpt lat="45.52909" lon="2.53789">
        <ele>671.7</ele>
        <time>2022-08-17T13:13:13Z</time>
      </trkpt>
      <trkpt lat="45.52917" lon="2.5379">
        <ele>671.72</ele>
        <time>2022-08-17T13:13:14Z</time>
      </trkpt>
      <trkpt lat="45.52927" lon="2.53791">
        <ele>670.7</ele>
        <time>2022-08-17T13:13:15Z</time>
      </trkpt>
      <trkpt lat="45.52948" lon="2.53791">
        <ele>670.65</ele>
        <time>2022-08-17T13:13:17Z</time>
      </trkpt>
      <trkpt lat="45.52959" lon="2.53788">
        <ele>669.55</ele>
        <time>2022-08-17T13:13:18Z</time>
      </trkpt>
      <trkpt lat="45.52969" lon="2.53782">
        <ele>669.49</ele>
        <time>2022-08-17T13:13:19Z</time>
      </trkpt>
      <trkpt lat="45.5298" lon="2.53771">
        <ele>669.58</ele>
        <time>2022-08-17T13:13:20Z</time>
      </trkpt>
      <trkpt lat="45.52989" lon="2.53759">
        <ele>668.22</ele>
        <time>2022-08-17T13:13:21Z</time>
      </trkpt>
      <trkpt lat="45.52999" lon="2.53752">
        <ele>668.19</ele>
        <time>2022-08-17T13:13:22Z</time>
      </trkpt>
      <trkpt lat="45.53023" lon="2.53738">
        <ele>667.86</ele>
        <time>2022-08-17T13:13:24Z</time>
      </trkpt>
      <trkpt lat="45.53034" lon="2.53728">
        <ele>667.81</ele>
        <time>2022-08-17T13:13:25Z</time>
      </trkpt>
      <trkpt lat="45.53042" lon="2.53713">
        <ele>667.81</ele>
        <time>2022-08-17T13:13:26Z</time>
      </trkpt>
      <trkpt lat="45.53048" lon="2.53696">
        <ele>667.8</ele>
        <time>2022-08-17T13:13:27Z</time>
      </trkpt>
      <trkpt lat="45.5305" lon="2.53679">
        <ele>667.75</ele>
        <time>2022-08-17T13:13:28Z</time>
      </trkpt>
      <trkpt lat="45.53054" lon="2.53665">
        <ele>667.74</ele>
        <time>2022-08-17T13:13:29Z</time>
      </trkpt>
      <trkpt lat="45.5306" lon="2.53653">
        <ele>667.74</ele>
        <time>2022-08-17T13:13:30Z</time>
      </trkpt>
      <trkpt lat="45.53067" lon="2.53644">
        <ele>667.74</ele>
        <time>2022-08-17T13:13:31Z</time>
      </trkpt>
      <trkpt lat="45.53076" lon="2.5364">
        <ele>667.78</ele>
        <time>2022-08-17T13:13:32Z</time>
      </trkpt>
      <trkpt lat="45.53084" lon="2.53638">
        <ele>670.42</ele>
        <time>2022-08-17T13:13:33Z</time>
      </trkpt>
      <trkpt lat="45.53094" lon="2.5364">
        <ele>671.37</ele>
        <time>2022-08-17T13:13:34Z</time>
      </trkpt>
      <trkpt lat="45.53104" lon="2.53643">
        <ele>672.39</ele>
        <time>2022-08-17T13:13:35Z</time>
      </trkpt>
      <trkpt lat="45.53114" lon="2.53647">
        <ele>672.38</ele>
        <time>2022-08-17T13:13:36Z</time>
      </trkpt>
      <trkpt lat="45.53192" lon="2.53675">
        <ele>669.59</ele>
        <time>2022-08-17T13:13:44Z</time>
      </trkpt>
      <trkpt lat="45.53227" lon="2.53688">
        <ele>666.91</ele>
        <time>2022-08-17T13:13:47Z</time>
      </trkpt>
      <trkpt lat="45.53237" lon="2.53692">
        <ele>664.45</ele>
        <time>2022-08-17T13:13:48Z</time>
      </trkpt>
      <trkpt lat="45.53246" lon="2.537">
        <ele>662.9</ele>
        <time>2022-08-17T13:13:49Z</time>
      </trkpt>
      <trkpt lat="45.53253" lon="2.53711">
        <ele>661.93</ele>
        <time>2022-08-17T13:13:50Z</time>
      </trkpt>
      <trkpt lat="45.53257" lon="2.53723">
        <ele>660.34</ele>
        <time>2022-08-17T13:13:51Z</time>
      </trkpt>
      <trkpt lat="45.53257" lon="2.53737">
        <ele>660.33</ele>
        <time>2022-08-17T13:13:52Z</time>
      </trkpt>
      <trkpt lat="45.53255" lon="2.53749">
        <ele>660.26</ele>
        <time>2022-08-17T13:13:53Z</time>
      </trkpt>
      <trkpt lat="45.5325" lon="2.53761">
        <ele>659.26</ele>
        <time>2022-08-17T13:13:54Z</time>
      </trkpt>
      <trkpt lat="45.53245" lon="2.5377">
        <ele>657.81</ele>
        <time>2022-08-17T13:13:55Z</time>
      </trkpt>
      <trkpt lat="45.53239" lon="2.5378">
        <ele>657.67</ele>
        <time>2022-08-17T13:13:56Z</time>
      </trkpt>
      <trkpt lat="45.53229" lon="2.53801">
        <ele>656.67</ele>
        <time>2022-08-17T13:13:58Z</time>
      </trkpt>
      <trkpt lat="45.53228" lon="2.53812">
        <ele>656.66</ele>
        <time>2022-08-17T13:13:59Z</time>
      </trkpt>
      <trkpt lat="45.53229" lon="2.53825">
        <ele>655.48</ele>
        <time>2022-08-17T13:14:00Z</time>
      </trkpt>
      <trkpt lat="45.53233" lon="2.53836">
        <ele>655.48</ele>
        <time>2022-08-17T13:14:01Z</time>
      </trkpt>
      <trkpt lat="45.5324" lon="2.53845">
        <ele>654.39</ele>
        <time>2022-08-17T13:14:02Z</time>
      </trkpt>
      <trkpt lat="45.53248" lon="2.53853">
        <ele>654.32</ele>
        <time>2022-08-17T13:14:03Z</time>
      </trkpt>
      <trkpt lat="45.53259" lon="2.53857">
        <ele>652.96</ele>
        <time>2022-08-17T13:14:04Z</time>
      </trkpt>
      <trkpt lat="45.53268" lon="2.5386">
        <ele>651.44</ele>
        <time>2022-08-17T13:14:05Z</time>
      </trkpt>
      <trkpt lat="45.53277" lon="2.53864">
        <ele>650.08</ele>
        <time>2022-08-17T13:14:06Z</time>
      </trkpt>
      <trkpt lat="45.53286" lon="2.5387">
        <ele>648.35</ele>
        <time>2022-08-17T13:14:07Z</time>
      </trkpt>
      <trkpt lat="45.5329" lon="2.53881">
        <ele>647.55</ele>
        <time>2022-08-17T13:14:08Z</time>
      </trkpt>
      <trkpt lat="45.53289" lon="2.53894">
        <ele>646.5</ele>
        <time>2022-08-17T13:14:09Z</time>
      </trkpt>
      <trkpt lat="45.53283" lon="2.53908">
        <ele>645.38</ele>
        <time>2022-08-17T13:14:10Z</time>
      </trkpt>
      <trkpt lat="45.53279" lon="2.53917">
        <ele>645.31</ele>
        <time>2022-08-17T13:14:11Z</time>
      </trkpt>
      <trkpt lat="45.53274" lon="2.53927">
        <ele>644.17</ele>
        <time>2022-08-17T13:14:12Z</time>
      </trkpt>
      <trkpt lat="45.5327" lon="2.53935">
        <ele>644.16</ele>
        <time>2022-08-17T13:14:13Z</time>
      </trkpt>
      <trkpt lat="45.53266" lon="2.53943">
        <ele>643.5</ele>
        <time>2022-08-17T13:14:14Z</time>
      </trkpt>
      <trkpt lat="45.53264" lon="2.53956">
        <ele>642.11</ele>
        <time>2022-08-17T13:14:15Z</time>
      </trkpt>
      <trkpt lat="45.53266" lon="2.53968">
        <ele>642.1</ele>
        <time>2022-08-17T13:14:16Z</time>
      </trkpt>
      <trkpt lat="45.53272" lon="2.53979">
        <ele>642.09</ele>
        <time>2022-08-17T13:14:17Z</time>
      </trkpt>
      <trkpt lat="45.5328" lon="2.53992">
        <ele>641.07</ele>
        <time>2022-08-17T13:14:18Z</time>
      </trkpt>
      <trkpt lat="45.53288" lon="2.54005">
        <ele>639.81</ele>
        <time>2022-08-17T13:14:19Z</time>
      </trkpt>
      <trkpt lat="45.53298" lon="2.54016">
        <ele>638.85</ele>
        <time>2022-08-17T13:14:20Z</time>
      </trkpt>
      <trkpt lat="45.53308" lon="2.54027">
        <ele>638.74</ele>
        <time>2022-08-17T13:14:21Z</time>
      </trkpt>
      <trkpt lat="45.5332" lon="2.54037">
        <ele>636.25</ele>
        <time>2022-08-17T13:14:22Z</time>
      </trkpt>
      <trkpt lat="45.53331" lon="2.54046">
        <ele>635.12</ele>
        <time>2022-08-17T13:14:23Z</time>
      </trkpt>
      <trkpt lat="45.53342" lon="2.54053">
        <ele>633.98</ele>
        <time>2022-08-17T13:14:24Z</time>
      </trkpt>
      <trkpt lat="45.53356" lon="2.54054">
        <ele>632.4</ele>
        <time>2022-08-17T13:14:25Z</time>
      </trkpt>
      <trkpt lat="45.53369" lon="2.54051">
        <ele>630.9</ele>
        <time>2022-08-17T13:14:26Z</time>
      </trkpt>
      <trkpt lat="45.53381" lon="2.54045">
        <ele>629.8</ele>
        <time>2022-08-17T13:14:27Z</time>
      </trkpt>
      <trkpt lat="45.53392" lon="2.54041">
        <ele>628.82</ele>
        <time>2022-08-17T13:14:28Z</time>
      </trkpt>
      <trkpt lat="45.53404" lon="2.5404">
        <ele>627.34</ele>
        <time>2022-08-17T13:14:29Z</time>
      </trkpt>
      <trkpt lat="45.53416" lon="2.54043">
        <ele>625.88</ele>
        <time>2022-08-17T13:14:30Z</time>
      </trkpt>
      <trkpt lat="45.53428" lon="2.54048">
        <ele>624.5</ele>
        <time>2022-08-17T13:14:31Z</time>
      </trkpt>
      <trkpt lat="45.53439" lon="2.54053">
        <ele>624.51</ele>
        <time>2022-08-17T13:14:32Z</time>
      </trkpt>
      <trkpt lat="45.53452" lon="2.54057">
        <ele>622.77</ele>
        <time>2022-08-17T13:14:33Z</time>
      </trkpt>
      <trkpt lat="45.53465" lon="2.54055">
        <ele>622.75</ele>
        <time>2022-08-17T13:14:34Z</time>
      </trkpt>
      <trkpt lat="45.5351" lon="2.54044">
        <ele>619.39</ele>
        <time>2022-08-17T13:14:37Z</time>
      </trkpt>
      <trkpt lat="45.53525" lon="2.54043">
        <ele>618.5</ele>
        <time>2022-08-17T13:14:38Z</time>
      </trkpt>
      <trkpt lat="45.53567" lon="2.54045">
        <ele>615.71</ele>
        <time>2022-08-17T13:14:41Z</time>
      </trkpt>
      <trkpt lat="45.53581" lon="2.54047">
        <ele>614.29</ele>
        <time>2022-08-17T13:14:42Z</time>
      </trkpt>
      <trkpt lat="45.53606" lon="2.54054">
        <ele>612.06</ele>
        <time>2022-08-17T13:14:44Z</time>
      </trkpt>
      <trkpt lat="45.53639" lon="2.54069">
        <ele>608.32</ele>
        <time>2022-08-17T13:14:47Z</time>
      </trkpt>
      <trkpt lat="45.53651" lon="2.54069">
        <ele>607.03</ele>
        <time>2022-08-17T13:14:48Z</time>
      </trkpt>
      <trkpt lat="45.53662" lon="2.54065">
        <ele>605.76</ele>
        <time>2022-08-17T13:14:49Z</time>
      </trkpt>
      <trkpt lat="45.53673" lon="2.54058">
        <ele>605.64</ele>
        <time>2022-08-17T13:14:50Z</time>
      </trkpt>
      <trkpt lat="45.53683" lon="2.54051">
        <ele>603.87</ele>
        <time>2022-08-17T13:14:51Z</time>
      </trkpt>
      <trkpt lat="45.53693" lon="2.54047">
        <ele>603.79</ele>
        <time>2022-08-17T13:14:52Z</time>
      </trkpt>
      <trkpt lat="45.53704" lon="2.54044">
        <ele>601.87</ele>
        <time>2022-08-17T13:14:53Z</time>
      </trkpt>
      <trkpt lat="45.53714" lon="2.54043">
        <ele>600.87</ele>
        <time>2022-08-17T13:14:54Z</time>
      </trkpt>
      <trkpt lat="45.53759" lon="2.5404">
        <ele>597.03</ele>
        <time>2022-08-17T13:14:58Z</time>
      </trkpt>
      <trkpt lat="45.53791" lon="2.54039">
        <ele>594.89</ele>
        <time>2022-08-17T13:15:01Z</time>
      </trkpt>
      <trkpt lat="45.53811" lon="2.54041">
        <ele>593.66</ele>
        <time>2022-08-17T13:15:03Z</time>
      </trkpt>
      <trkpt lat="45.53821" lon="2.54046">
        <ele>593.66</ele>
        <time>2022-08-17T13:15:04Z</time>
      </trkpt>
      <trkpt lat="45.5383" lon="2.54053">
        <ele>592.17</ele>
        <time>2022-08-17T13:15:05Z</time>
      </trkpt>
      <trkpt lat="45.53838" lon="2.54062">
        <ele>592.08</ele>
        <time>2022-08-17T13:15:06Z</time>
      </trkpt>
      <trkpt lat="45.53845" lon="2.54072">
        <ele>590.16</ele>
        <time>2022-08-17T13:15:07Z</time>
      </trkpt>
      <trkpt lat="45.53853" lon="2.5408">
        <ele>590.15</ele>
        <time>2022-08-17T13:15:08Z</time>
      </trkpt>
      <trkpt lat="45.53862" lon="2.54087">
        <ele>588.18</ele>
        <time>2022-08-17T13:15:09Z</time>
      </trkpt>
      <trkpt lat="45.53872" lon="2.54092">
        <ele>587.32</ele>
        <time>2022-08-17T13:15:10Z</time>
      </trkpt>
      <trkpt lat="45.53882" lon="2.54094">
        <ele>586.53</ele>
        <time>2022-08-17T13:15:11Z</time>
      </trkpt>
      <trkpt lat="45.53892" lon="2.54095">
        <ele>586.45</ele>
        <time>2022-08-17T13:15:12Z</time>
      </trkpt>
      <trkpt lat="45.53901" lon="2.54095">
        <ele>585.34</ele>
        <time>2022-08-17T13:15:13Z</time>
      </trkpt>
      <trkpt lat="45.53911" lon="2.54095">
        <ele>584.59</ele>
        <time>2022-08-17T13:15:14Z</time>
      </trkpt>
      <trkpt lat="45.53921" lon="2.54095">
        <ele>583.7</ele>
        <time>2022-08-17T13:15:15Z</time>
      </trkpt>
      <trkpt lat="45.53951" lon="2.54094">
        <ele>581.89</ele>
        <time>2022-08-17T13:15:18Z</time>
      </trkpt>
      <trkpt lat="45.53961" lon="2.54094">
        <ele>580.54</ele>
        <time>2022-08-17T13:15:19Z</time>
      </trkpt>
      <trkpt lat="45.53981" lon="2.54092">
        <ele>579.57</ele>
        <time>2022-08-17T13:15:21Z</time>
      </trkpt>
      <trkpt lat="45.5401" lon="2.54086">
        <ele>577.15</ele>
        <time>2022-08-17T13:15:24Z</time>
      </trkpt>
      <trkpt lat="45.54029" lon="2.54077">
        <ele>574.77</ele>
        <time>2022-08-17T13:15:26Z</time>
      </trkpt>
      <trkpt lat="45.54037" lon="2.54072">
        <ele>574.69</ele>
        <time>2022-08-17T13:15:27Z</time>
      </trkpt>
      <trkpt lat="45.54055" lon="2.54064">
        <ele>573.68</ele>
        <time>2022-08-17T13:15:29Z</time>
      </trkpt>
      <trkpt lat="45.54064" lon="2.54062">
        <ele>572.38</ele>
        <time>2022-08-17T13:15:30Z</time>
      </trkpt>
      <trkpt lat="45.54073" lon="2.54062">
        <ele>572.31</ele>
        <time>2022-08-17T13:15:31Z</time>
      </trkpt>
      <trkpt lat="45.54082" lon="2.54063">
        <ele>571.38</ele>
        <time>2022-08-17T13:15:32Z</time>
      </trkpt>
      <trkpt lat="45.5409" lon="2.54064">
        <ele>570.82</ele>
        <time>2022-08-17T13:15:33Z</time>
      </trkpt>
      <trkpt lat="45.54114" lon="2.5407">
        <ele>569.61</ele>
        <time>2022-08-17T13:15:36Z</time>
      </trkpt>
      <trkpt lat="45.54122" lon="2.54074">
        <ele>569.55</ele>
        <time>2022-08-17T13:15:37Z</time>
      </trkpt>
      <trkpt lat="45.54144" lon="2.5409">
        <ele>569.52</ele>
        <time>2022-08-17T13:15:40Z</time>
      </trkpt>
      <trkpt lat="45.5415" lon="2.54098">
        <ele>568.05</ele>
        <time>2022-08-17T13:15:41Z</time>
      </trkpt>
      <trkpt lat="45.54157" lon="2.54107">
        <ele>568.06</ele>
        <time>2022-08-17T13:15:42Z</time>
      </trkpt>
      <trkpt lat="45.54163" lon="2.54116">
        <ele>568.02</ele>
        <time>2022-08-17T13:15:43Z</time>
      </trkpt>
      <trkpt lat="45.54167" lon="2.54128">
        <ele>568.08</ele>
        <time>2022-08-17T13:15:44Z</time>
      </trkpt>
      <trkpt lat="45.5417" lon="2.54139">
        <ele>568.04</ele>
        <time>2022-08-17T13:15:45Z</time>
      </trkpt>
      <trkpt lat="45.54173" lon="2.54152">
        <ele>566.91</ele>
        <time>2022-08-17T13:15:46Z</time>
      </trkpt>
      <trkpt lat="45.54175" lon="2.54164">
        <ele>566.99</ele>
        <time>2022-08-17T13:15:47Z</time>
      </trkpt>
      <trkpt lat="45.54177" lon="2.54176">
        <ele>565.96</ele>
        <time>2022-08-17T13:15:48Z</time>
      </trkpt>
      <trkpt lat="45.54182" lon="2.54198">
        <ele>565.12</ele>
        <time>2022-08-17T13:15:50Z</time>
      </trkpt>
      <trkpt lat="45.54186" lon="2.54208">
        <ele>565.08</ele>
        <time>2022-08-17T13:15:51Z</time>
      </trkpt>
      <trkpt lat="45.54191" lon="2.54217">
        <ele>563.89</ele>
        <time>2022-08-17T13:15:52Z</time>
      </trkpt>
      <trkpt lat="45.54195" lon="2.54226">
        <ele>562.94</ele>
        <time>2022-08-17T13:15:53Z</time>
      </trkpt>
      <trkpt lat="45.542" lon="2.54234">
        <ele>562.94</ele>
        <time>2022-08-17T13:15:54Z</time>
      </trkpt>
      <trkpt lat="45.54205" lon="2.54241">
        <ele>561.96</ele>
        <time>2022-08-17T13:15:55Z</time>
      </trkpt>
      <trkpt lat="45.54229" lon="2.54267">
        <ele>561.52</ele>
        <time>2022-08-17T13:15:59Z</time>
      </trkpt>
      <trkpt lat="45.54236" lon="2.54273">
        <ele>561.48</ele>
        <time>2022-08-17T13:16:00Z</time>
      </trkpt>
      <trkpt lat="45.54243" lon="2.54277">
        <ele>561.48</ele>
        <time>2022-08-17T13:16:01Z</time>
      </trkpt>
      <trkpt lat="45.54305" lon="2.54297">
        <ele>560.43</ele>
        <time>2022-08-17T13:16:12Z</time>
      </trkpt>
      <trkpt lat="45.54309" lon="2.54295">
        <ele>560.44</ele>
        <time>2022-08-17T13:16:13Z</time>
      </trkpt>
      <trkpt lat="45.54312" lon="2.54291">
        <ele>560.44</ele>
        <time>2022-08-17T13:16:14Z</time>
      </trkpt>
      <trkpt lat="45.54314" lon="2.54285">
        <ele>559.54</ele>
        <time>2022-08-17T13:16:15Z</time>
      </trkpt>
      <trkpt lat="45.54316" lon="2.5428">
        <ele>559.55</ele>
        <time>2022-08-17T13:16:16Z</time>
      </trkpt>
      <trkpt lat="45.54316" lon="2.54275">
        <ele>559.53</ele>
        <time>2022-08-17T13:16:17Z</time>
      </trkpt>
      <trkpt lat="45.54316" lon="2.54271">
        <ele>559.5</ele>
        <time>2022-08-17T13:16:18Z</time>
      </trkpt>
      <trkpt lat="45.54316" lon="2.54267">
        <ele>559.51</ele>
        <time>2022-08-17T13:16:19Z</time>
      </trkpt>
      <trkpt lat="45.54316" lon="2.54261">
        <ele>558.77</ele>
        <time>2022-08-17T13:16:30Z</time>
      </trkpt>
      <trkpt lat="45.54317" lon="2.54259">
        <ele>563.46</ele>
        <time>2022-08-17T13:16:53Z</time>
      </trkpt>
      <trkpt lat="45.54352" lon="2.54091">
        <ele>556.49</ele>
        <time>2022-08-17T13:43:47Z</time>
      </trkpt>
      <trkpt lat="45.54352" lon="2.54056">
        <ele>555.3</ele>
        <time>2022-08-17T13:43:56Z</time>
      </trkpt>
      <trkpt lat="45.54348" lon="2.54048">
        <ele>555.29</ele>
        <time>2022-08-17T13:43:57Z</time>
      </trkpt>
      <trkpt lat="45.54344" lon="2.54046">
        <ele>555.29</ele>
        <time>2022-08-17T13:43:58Z</time>
      </trkpt>
      <trkpt lat="45.5434" lon="2.5404">
        <ele>555.3</ele>
        <time>2022-08-17T13:43:59Z</time>
      </trkpt>
      <trkpt lat="45.54334" lon="2.54033">
        <ele>555.3</ele>
        <time>2022-08-17T13:44:00Z</time>
      </trkpt>
      <trkpt lat="45.54318" lon="2.54016">
        <ele>554.35</ele>
        <time>2022-08-17T13:44:04Z</time>
      </trkpt>
      <trkpt lat="45.54292" lon="2.54056">
        <ele>554.33</ele>
        <time>2022-08-17T13:44:09Z</time>
      </trkpt>
      <trkpt lat="45.54309" lon="2.54117">
        <ele>554.35</ele>
        <time>2022-08-17T13:44:22Z</time>
      </trkpt>
      <trkpt lat="45.54277" lon="2.54087">
        <ele>544.99</ele>
        <time>2022-08-17T18:09:48Z</time>
      </trkpt>
      <trkpt lat="45.54284" lon="2.54083">
        <ele>497.14</ele>
        <time>2022-08-17T18:09:53Z</time>
      </trkpt>
      <trkpt lat="45.54284" lon="2.54083">
        <ele>497.14</ele>
        <time>2022-08-17T18:09:54Z</time>
      </trkpt>
      <trkpt lat="45.54308" lon="2.5411">
        <ele>497.62</ele>
        <time>2022-08-17T18:10:24Z</time>
      </trkpt>
    </trkseg>
  </trk>
</gpx>